<?xml version='1.0' encoding='UTF-8'?><gpx version="1.1" creator="JPX - https://github.com/jenetics/jpx" xmlns="http://www.topografix.com/GPX/1/1"><trk><trkseg><trkpt lat="46.5769821" lon="12.3873977"><ele>935.0</ele><time>2026-05-01T12:25:30.288Z</time></trkpt><trkpt lat="46.5768801" lon="12.3872845"><ele>935.0</ele><time>2026-05-01T12:25:32.284Z</time></trkpt><trkpt lat="46.576817" lon="12.3872056"><ele>935.0</ele><time>2026-05-01T12:25:33.295Z</time></trkpt><trkpt lat="46.5767401" lon="12.3871297"><ele>935.0</ele><time>2026-05-01T12:25:34.289Z</time></trkpt><trkpt lat="46.5766561" lon="12.3870611"><ele>935.0</ele><time>2026-05-01T12:25:35.285Z</time></trkpt><trkpt lat="46.5765738" lon="12.3869961"><ele>934.5000000000001</ele><time>2026-05-01T12:25:36.288Z</time></trkpt><trkpt lat="46.5765017" lon="12.3869299"><ele>934.0</ele><time>2026-05-01T12:25:37.284Z</time></trkpt><trkpt lat="46.5764318" lon="12.3868664"><ele>933.5</ele><time>2026-05-01T12:25:38.285Z</time></trkpt><trkpt lat="46.5763554" lon="12.3868166"><ele>933.0</ele><time>2026-05-01T12:25:39.288Z</time></trkpt><trkpt lat="46.5762791" lon="12.3867575"><ele>932.5000000000001</ele><time>2026-05-01T12:25:40.285Z</time></trkpt><trkpt lat="46.5762034" lon="12.3866955"><ele>932.0</ele><time>2026-05-01T12:25:41.288Z</time></trkpt><trkpt lat="46.5761416" lon="12.3866363"><ele>930.5000000000001</ele><time>2026-05-01T12:25:42.292Z</time></trkpt><trkpt lat="46.576082" lon="12.3865791"><ele>929.0</ele><time>2026-05-01T12:25:43.289Z</time></trkpt><trkpt lat="46.5760199" lon="12.3865131"><ele>927.5</ele><time>2026-05-01T12:25:45.28Z</time></trkpt><trkpt lat="46.5759395" lon="12.386524"><ele>926.0</ele><time>2026-05-01T12:25:50.282Z</time></trkpt><trkpt lat="46.5758755" lon="12.3865815"><ele>924.5000000000001</ele><time>2026-05-01T12:25:51.284Z</time></trkpt><trkpt lat="46.5758082" lon="12.3866447"><ele>923.0</ele><time>2026-05-01T12:25:52.29Z</time></trkpt><trkpt lat="46.5757293" lon="12.3867273"><ele>923.0</ele><time>2026-05-01T12:25:53.288Z</time></trkpt><trkpt lat="46.5756421" lon="12.3868281"><ele>923.0</ele><time>2026-05-01T12:25:54.292Z</time></trkpt><trkpt lat="46.575561" lon="12.3869491"><ele>923.0</ele><time>2026-05-01T12:25:55.283Z</time></trkpt><trkpt lat="46.5754876" lon="12.387085"><ele>923.0</ele><time>2026-05-01T12:25:56.289Z</time></trkpt><trkpt lat="46.5754195" lon="12.3872301"><ele>922.5</ele><time>2026-05-01T12:25:57.289Z</time></trkpt><trkpt lat="46.5753622" lon="12.3874015"><ele>922.0</ele><time>2026-05-01T12:25:58.289Z</time></trkpt><trkpt lat="46.5753196" lon="12.3875992"><ele>921.5</ele><time>2026-05-01T12:25:59.289Z</time></trkpt><trkpt lat="46.5752868" lon="12.3878061"><ele>921.0</ele><time>2026-05-01T12:26:00.286Z</time></trkpt><trkpt lat="46.5752676" lon="12.3880073"><ele>920.5</ele><time>2026-05-01T12:26:01.287Z</time></trkpt><trkpt lat="46.5752604" lon="12.3882241"><ele>920.0</ele><time>2026-05-01T12:26:02.289Z</time></trkpt><trkpt lat="46.5752596" lon="12.3884348"><ele>919.5</ele><time>2026-05-01T12:26:03.292Z</time></trkpt><trkpt lat="46.5752605" lon="12.3886462"><ele>919.0</ele><time>2026-05-01T12:26:04.296Z</time></trkpt><trkpt lat="46.5752676" lon="12.3888677"><ele>919.0</ele><time>2026-05-01T12:26:05.287Z</time></trkpt><trkpt lat="46.5752715" lon="12.3890897"><ele>919.0</ele><time>2026-05-01T12:26:06.284Z</time></trkpt><trkpt lat="46.5752704" lon="12.3893198"><ele>919.0</ele><time>2026-05-01T12:26:07.287Z</time></trkpt><trkpt lat="46.5752702" lon="12.3895484"><ele>916.3333333333333</ele><time>2026-05-01T12:26:08.283Z</time></trkpt><trkpt lat="46.575271" lon="12.3897825"><ele>913.6666666666667</ele><time>2026-05-01T12:26:09.284Z</time></trkpt><trkpt lat="46.5752733" lon="12.3900143"><ele>911.0</ele><time>2026-05-01T12:26:10.287Z</time></trkpt><trkpt lat="46.5752731" lon="12.3902376"><ele>911.0</ele><time>2026-05-01T12:26:11.288Z</time></trkpt><trkpt lat="46.5752515" lon="12.390455"><ele>911.0</ele><time>2026-05-01T12:26:12.287Z</time></trkpt><trkpt lat="46.575221" lon="12.3906692"><ele>911.0</ele><time>2026-05-01T12:26:13.284Z</time></trkpt><trkpt lat="46.5751691" lon="12.390879"><ele>911.0</ele><time>2026-05-01T12:26:14.282Z</time></trkpt><trkpt lat="46.5750952" lon="12.3910816"><ele>911.0</ele><time>2026-05-01T12:26:15.288Z</time></trkpt><trkpt lat="46.5750017" lon="12.3912715"><ele>911.0</ele><time>2026-05-01T12:26:16.299Z</time></trkpt><trkpt lat="46.5749088" lon="12.391458"><ele>913.0</ele><time>2026-05-01T12:26:17.286Z</time></trkpt><trkpt lat="46.5748101" lon="12.3916515"><ele>915.0</ele><time>2026-05-01T12:26:18.287Z</time></trkpt><trkpt lat="46.5747077" lon="12.3918501"><ele>917.0</ele><time>2026-05-01T12:26:19.287Z</time></trkpt><trkpt lat="46.5746003" lon="12.392054"><ele>913.0</ele><time>2026-05-01T12:26:20.291Z</time></trkpt><trkpt lat="46.574492" lon="12.392264"><ele>909.0</ele><time>2026-05-01T12:26:21.291Z</time></trkpt><trkpt lat="46.5743814" lon="12.3924798"><ele>905.0</ele><time>2026-05-01T12:26:22.295Z</time></trkpt><trkpt lat="46.5742746" lon="12.3926946"><ele>905.0</ele><time>2026-05-01T12:26:23.285Z</time></trkpt><trkpt lat="46.5741648" lon="12.3929117"><ele>905.0</ele><time>2026-05-01T12:26:24.283Z</time></trkpt><trkpt lat="46.5740597" lon="12.3931193"><ele>905.0</ele><time>2026-05-01T12:26:25.289Z</time></trkpt><trkpt lat="46.573949" lon="12.3933389"><ele>904.3333333333334</ele><time>2026-05-01T12:26:26.291Z</time></trkpt><trkpt lat="46.5738441" lon="12.3935513"><ele>903.6666666666667</ele><time>2026-05-01T12:26:27.298Z</time></trkpt><trkpt lat="46.5737364" lon="12.3937648"><ele>903.0</ele><time>2026-05-01T12:26:28.288Z</time></trkpt><trkpt lat="46.5736271" lon="12.39398"><ele>903.0</ele><time>2026-05-01T12:26:29.292Z</time></trkpt><trkpt lat="46.5735175" lon="12.3941908"><ele>903.0</ele><time>2026-05-01T12:26:30.287Z</time></trkpt><trkpt lat="46.5734105" lon="12.3944031"><ele>903.0</ele><time>2026-05-01T12:26:31.291Z</time></trkpt><trkpt lat="46.5733065" lon="12.3946128"><ele>904.6666666666667</ele><time>2026-05-01T12:26:32.296Z</time></trkpt><trkpt lat="46.5731985" lon="12.394821"><ele>906.3333333333334</ele><time>2026-05-01T12:26:33.285Z</time></trkpt><trkpt lat="46.5730901" lon="12.3950269"><ele>908.0</ele><time>2026-05-01T12:26:34.291Z</time></trkpt><trkpt lat="46.5729819" lon="12.3952375"><ele>908.0</ele><time>2026-05-01T12:26:35.288Z</time></trkpt><trkpt lat="46.5728772" lon="12.3954486"><ele>908.0</ele><time>2026-05-01T12:26:36.283Z</time></trkpt><trkpt lat="46.5727693" lon="12.3956585"><ele>908.0</ele><time>2026-05-01T12:26:37.297Z</time></trkpt><trkpt lat="46.5726639" lon="12.3958609"><ele>907.6666666666667</ele><time>2026-05-01T12:26:38.284Z</time></trkpt><trkpt lat="46.5725604" lon="12.3960679"><ele>907.3333333333333</ele><time>2026-05-01T12:26:39.289Z</time></trkpt><trkpt lat="46.5724573" lon="12.3962753"><ele>907.0</ele><time>2026-05-01T12:26:40.29Z</time></trkpt><trkpt lat="46.572354" lon="12.3964823"><ele>907.0</ele><time>2026-05-01T12:26:41.292Z</time></trkpt><trkpt lat="46.5722536" lon="12.3966902"><ele>907.0</ele><time>2026-05-01T12:26:42.284Z</time></trkpt><trkpt lat="46.5721463" lon="12.3968959"><ele>907.0</ele><time>2026-05-01T12:26:43.3Z</time></trkpt><trkpt lat="46.5720337" lon="12.3971017"><ele>904.0</ele><time>2026-05-01T12:26:44.289Z</time></trkpt><trkpt lat="46.5719195" lon="12.3973055"><ele>901.0</ele><time>2026-05-01T12:26:45.286Z</time></trkpt><trkpt lat="46.5718019" lon="12.3975024"><ele>898.0</ele><time>2026-05-01T12:26:46.286Z</time></trkpt><trkpt lat="46.5716751" lon="12.3976951"><ele>898.0</ele><time>2026-05-01T12:26:47.286Z</time></trkpt><trkpt lat="46.5715491" lon="12.3978802"><ele>898.0</ele><time>2026-05-01T12:26:48.29Z</time></trkpt><trkpt lat="46.5714223" lon="12.3980692"><ele>898.0</ele><time>2026-05-01T12:26:49.285Z</time></trkpt><trkpt lat="46.5712959" lon="12.3982645"><ele>897.0</ele><time>2026-05-01T12:26:50.289Z</time></trkpt><trkpt lat="46.5711656" lon="12.3984543"><ele>896.0</ele><time>2026-05-01T12:26:51.288Z</time></trkpt><trkpt lat="46.5710334" lon="12.398638"><ele>895.0</ele><time>2026-05-01T12:26:52.285Z</time></trkpt><trkpt lat="46.5709019" lon="12.398821"><ele>896.3333333333333</ele><time>2026-05-01T12:26:53.284Z</time></trkpt><trkpt lat="46.570773" lon="12.399006"><ele>897.6666666666667</ele><time>2026-05-01T12:26:54.292Z</time></trkpt><trkpt lat="46.570644" lon="12.3991885"><ele>899.0</ele><time>2026-05-01T12:26:55.295Z</time></trkpt><trkpt lat="46.5705136" lon="12.3993572"><ele>899.0</ele><time>2026-05-01T12:26:56.289Z</time></trkpt><trkpt lat="46.5703766" lon="12.3995152"><ele>899.0</ele><time>2026-05-01T12:26:57.296Z</time></trkpt><trkpt lat="46.5702314" lon="12.3996657"><ele>899.0</ele><time>2026-05-01T12:26:58.292Z</time></trkpt><trkpt lat="46.5700859" lon="12.3998094"><ele>900.3333333333334</ele><time>2026-05-01T12:26:59.29Z</time></trkpt><trkpt lat="46.5699379" lon="12.3999517"><ele>901.6666666666667</ele><time>2026-05-01T12:27:00.291Z</time></trkpt><trkpt lat="46.5697873" lon="12.4000937"><ele>903.0</ele><time>2026-05-01T12:27:01.291Z</time></trkpt><trkpt lat="46.5696348" lon="12.4002311"><ele>902.0</ele><time>2026-05-01T12:27:02.285Z</time></trkpt><trkpt lat="46.5694837" lon="12.400373"><ele>901.0</ele><time>2026-05-01T12:27:03.284Z</time></trkpt><trkpt lat="46.563153" lon="12.416203"><ele>871.0</ele><time>2026-05-01T12:28:19.438Z</time></trkpt><trkpt lat="46.5618993" lon="12.4183386"><ele>871.0</ele><time>2026-05-01T12:28:28.082Z</time></trkpt><trkpt lat="46.5614221" lon="12.4187541"><ele>875.0</ele><time>2026-05-01T12:28:36.716Z</time></trkpt><trkpt lat="46.5608336" lon="12.4197508"><ele>871.0</ele><time>2026-05-01T12:28:45.454Z</time></trkpt><trkpt lat="46.5598866" lon="12.42128"><ele>867.0</ele><time>2026-05-01T12:28:54.895Z</time></trkpt><trkpt lat="46.5593978" lon="12.421891"><ele>877.0</ele><time>2026-05-01T12:29:03.634Z</time></trkpt><trkpt lat="46.5579976" lon="12.4252535"><ele>878.0</ele><time>2026-05-01T12:29:13.692Z</time></trkpt><trkpt lat="46.5579672" lon="12.4255181"><ele>879.0</ele><time>2026-05-01T12:29:22.737Z</time></trkpt><trkpt lat="46.5573807" lon="12.4277986"><ele>857.0</ele><time>2026-05-01T12:29:31.44Z</time></trkpt><trkpt lat="46.5528359" lon="12.4329541"><ele>866.0</ele><time>2026-05-01T12:30:06.41Z</time></trkpt><trkpt lat="46.5528247" lon="12.4370362"><ele>857.0</ele><time>2026-05-01T12:30:31.058Z</time></trkpt><trkpt lat="46.5523452" lon="12.43978"><ele>864.0</ele><time>2026-05-01T12:30:48.844Z</time></trkpt><trkpt lat="46.5520451" lon="12.4414574"><ele>857.0</ele><time>2026-05-01T12:31:06.038Z</time></trkpt><trkpt lat="46.5492842" lon="12.4477458"><ele>866.0</ele><time>2026-05-01T12:31:55.8Z</time></trkpt><trkpt lat="46.548044" lon="12.4513721"><ele>853.0</ele><time>2026-05-01T12:34:16.582Z</time></trkpt><trkpt lat="46.5474507" lon="12.4527961"><ele>842.0</ele><time>2026-05-01T12:34:28.798Z</time></trkpt><trkpt lat="46.544202" lon="12.4591161"><ele>843.0</ele><time>2026-05-01T12:35:16.845Z</time></trkpt><trkpt lat="46.5434752" lon="12.4596714"><ele>843.0</ele><time>2026-05-01T12:37:48.718Z</time></trkpt><trkpt lat="46.5436068" lon="12.4594287"><ele>843.0</ele><time>2026-05-01T12:37:59.749Z</time></trkpt><trkpt lat="46.5436305" lon="12.4595223"><ele>843.0</ele><time>2026-05-01T12:39:28.746Z</time></trkpt><trkpt lat="46.5436237" lon="12.4596588"><ele>843.0</ele><time>2026-05-01T12:39:31.749Z</time></trkpt><trkpt lat="46.5435223" lon="12.4597881"><ele>843.0</ele><time>2026-05-01T12:39:33.739Z</time></trkpt><trkpt lat="46.5434487" lon="12.4598543"><ele>843.0</ele><time>2026-05-01T12:39:34.756Z</time></trkpt><trkpt lat="46.5433709" lon="12.4599206"><ele>843.0</ele><time>2026-05-01T12:39:35.744Z</time></trkpt><trkpt lat="46.5432722" lon="12.4600027"><ele>843.0</ele><time>2026-05-01T12:39:36.747Z</time></trkpt><trkpt lat="46.5431678" lon="12.4600939"><ele>843.0</ele><time>2026-05-01T12:39:37.748Z</time></trkpt><trkpt lat="46.5430624" lon="12.4601934"><ele>843.0</ele><time>2026-05-01T12:39:38.751Z</time></trkpt><trkpt lat="46.542953" lon="12.4602952"><ele>843.0</ele><time>2026-05-01T12:39:39.751Z</time></trkpt><trkpt lat="46.5428485" lon="12.4604066"><ele>843.0</ele><time>2026-05-01T12:39:40.752Z</time></trkpt><trkpt lat="46.5427366" lon="12.4605363"><ele>843.0</ele><time>2026-05-01T12:39:41.746Z</time></trkpt><trkpt lat="46.5426236" lon="12.4606782"><ele>842.0</ele><time>2026-05-01T12:39:42.74Z</time></trkpt><trkpt lat="46.5425191" lon="12.4608268"><ele>841.0</ele><time>2026-05-01T12:39:43.745Z</time></trkpt><trkpt lat="46.5424258" lon="12.4609794"><ele>840.0</ele><time>2026-05-01T12:39:44.749Z</time></trkpt><trkpt lat="46.5423372" lon="12.4611274"><ele>839.0</ele><time>2026-05-01T12:39:45.745Z</time></trkpt><trkpt lat="46.5422475" lon="12.4612641"><ele>840.75</ele><time>2026-05-01T12:39:46.746Z</time></trkpt><trkpt lat="46.5421569" lon="12.4614075"><ele>842.5</ele><time>2026-05-01T12:39:47.744Z</time></trkpt><trkpt lat="46.5420729" lon="12.4615622"><ele>844.25</ele><time>2026-05-01T12:39:48.752Z</time></trkpt><trkpt lat="46.5419912" lon="12.4617157"><ele>846.0</ele><time>2026-05-01T12:39:49.741Z</time></trkpt><trkpt lat="46.5419153" lon="12.4618802"><ele>843.75</ele><time>2026-05-01T12:39:50.755Z</time></trkpt><trkpt lat="46.5418532" lon="12.4620529"><ele>841.5</ele><time>2026-05-01T12:39:51.748Z</time></trkpt><trkpt lat="46.5418015" lon="12.4622035"><ele>839.25</ele><time>2026-05-01T12:39:52.747Z</time></trkpt><trkpt lat="46.5417311" lon="12.4623414"><ele>837.0</ele><time>2026-05-01T12:39:53.75Z</time></trkpt><trkpt lat="46.5416476" lon="12.4624639"><ele>837.0</ele><time>2026-05-01T12:39:54.746Z</time></trkpt><trkpt lat="46.5415394" lon="12.4625667"><ele>837.0</ele><time>2026-05-01T12:39:55.743Z</time></trkpt><trkpt lat="46.541407" lon="12.4626435"><ele>837.0</ele><time>2026-05-01T12:39:56.745Z</time></trkpt><trkpt lat="46.5412885" lon="12.4626933"><ele>837.0</ele><time>2026-05-01T12:39:57.745Z</time></trkpt><trkpt lat="46.541176" lon="12.4627385"><ele>835.75</ele><time>2026-05-01T12:39:58.744Z</time></trkpt><trkpt lat="46.541055" lon="12.4628011"><ele>834.5</ele><time>2026-05-01T12:39:59.744Z</time></trkpt><trkpt lat="46.5409223" lon="12.4628726"><ele>833.25</ele><time>2026-05-01T12:40:00.751Z</time></trkpt><trkpt lat="46.5407921" lon="12.4629161"><ele>832.0</ele><time>2026-05-01T12:40:01.749Z</time></trkpt><trkpt lat="46.5406637" lon="12.4629606"><ele>832.0</ele><time>2026-05-01T12:40:02.747Z</time></trkpt><trkpt lat="46.5405226" lon="12.4630115"><ele>832.0</ele><time>2026-05-01T12:40:03.747Z</time></trkpt><trkpt lat="46.5403827" lon="12.4630626"><ele>832.0</ele><time>2026-05-01T12:40:04.747Z</time></trkpt><trkpt lat="46.5402511" lon="12.4631082"><ele>832.0</ele><time>2026-05-01T12:40:05.754Z</time></trkpt><trkpt lat="46.5401239" lon="12.4631615"><ele>831.0</ele><time>2026-05-01T12:40:06.743Z</time></trkpt><trkpt lat="46.5399939" lon="12.4632227"><ele>830.0</ele><time>2026-05-01T12:40:07.744Z</time></trkpt><trkpt lat="46.5398723" lon="12.4633027"><ele>829.0</ele><time>2026-05-01T12:40:08.747Z</time></trkpt><trkpt lat="46.5397533" lon="12.46339"><ele>828.0</ele><time>2026-05-01T12:40:09.747Z</time></trkpt><trkpt lat="46.5396367" lon="12.4634837"><ele>829.25</ele><time>2026-05-01T12:40:10.748Z</time></trkpt><trkpt lat="46.5395081" lon="12.4635754"><ele>830.5</ele><time>2026-05-01T12:40:11.748Z</time></trkpt><trkpt lat="46.5393863" lon="12.4636766"><ele>831.75</ele><time>2026-05-01T12:40:12.745Z</time></trkpt><trkpt lat="46.5392578" lon="12.4637879"><ele>833.0</ele><time>2026-05-01T12:40:13.745Z</time></trkpt><trkpt lat="46.5391317" lon="12.4639042"><ele>833.0</ele><time>2026-05-01T12:40:14.754Z</time></trkpt><trkpt lat="46.53901" lon="12.4640574"><ele>833.0</ele><time>2026-05-01T12:40:15.745Z</time></trkpt><trkpt lat="46.5388927" lon="12.4642432"><ele>833.0</ele><time>2026-05-01T12:40:16.743Z</time></trkpt><trkpt lat="46.5387809" lon="12.4644394"><ele>829.0</ele><time>2026-05-01T12:40:17.748Z</time></trkpt><trkpt lat="46.5386752" lon="12.4646317"><ele>825.0</ele><time>2026-05-01T12:40:18.749Z</time></trkpt><trkpt lat="46.5385775" lon="12.4648296"><ele>821.0</ele><time>2026-05-01T12:40:19.746Z</time></trkpt><trkpt lat="46.5384875" lon="12.4650433"><ele>821.0</ele><time>2026-05-01T12:40:20.755Z</time></trkpt><trkpt lat="46.5383908" lon="12.465268"><ele>821.0</ele><time>2026-05-01T12:40:21.756Z</time></trkpt><trkpt lat="46.5382977" lon="12.4654822"><ele>821.0</ele><time>2026-05-01T12:40:22.744Z</time></trkpt><trkpt lat="46.5382089" lon="12.4656723"><ele>814.6666666666667</ele><time>2026-05-01T12:40:23.761Z</time></trkpt><trkpt lat="46.5381122" lon="12.4658567"><ele>808.3333333333333</ele><time>2026-05-01T12:40:24.747Z</time></trkpt><trkpt lat="46.5379952" lon="12.4660347"><ele>802.0</ele><time>2026-05-01T12:40:25.75Z</time></trkpt><trkpt lat="46.5378617" lon="12.4662086"><ele>810.3333333333333</ele><time>2026-05-01T12:40:26.743Z</time></trkpt><trkpt lat="46.5377279" lon="12.4663784"><ele>818.6666666666667</ele><time>2026-05-01T12:40:27.752Z</time></trkpt><trkpt lat="46.5375896" lon="12.4665559"><ele>827.0</ele><time>2026-05-01T12:40:28.745Z</time></trkpt><trkpt lat="46.5374594" lon="12.4667265"><ele>827.0</ele><time>2026-05-01T12:40:29.742Z</time></trkpt><trkpt lat="46.5373313" lon="12.4668868"><ele>827.0</ele><time>2026-05-01T12:40:30.75Z</time></trkpt><trkpt lat="46.5371949" lon="12.4670373"><ele>827.0</ele><time>2026-05-01T12:40:31.747Z</time></trkpt><trkpt lat="46.5370514" lon="12.4671422"><ele>833.0</ele><time>2026-05-01T12:40:32.744Z</time></trkpt><trkpt lat="46.5368978" lon="12.4672129"><ele>839.0</ele><time>2026-05-01T12:40:33.744Z</time></trkpt><trkpt lat="46.5367273" lon="12.4672501"><ele>845.0</ele><time>2026-05-01T12:40:34.75Z</time></trkpt><trkpt lat="46.5365592" lon="12.4672622"><ele>845.0</ele><time>2026-05-01T12:40:35.741Z</time></trkpt><trkpt lat="46.5363893" lon="12.4672809"><ele>845.0</ele><time>2026-05-01T12:40:36.746Z</time></trkpt><trkpt lat="46.5362081" lon="12.4673103"><ele>845.0</ele><time>2026-05-01T12:40:37.744Z</time></trkpt><trkpt lat="46.536027" lon="12.4673493"><ele>838.3333333333334</ele><time>2026-05-01T12:40:38.749Z</time></trkpt><trkpt lat="46.5358491" lon="12.4674008"><ele>831.6666666666667</ele><time>2026-05-01T12:40:39.748Z</time></trkpt><trkpt lat="46.5356747" lon="12.4674468"><ele>825.0</ele><time>2026-05-01T12:40:40.744Z</time></trkpt><trkpt lat="46.5355111" lon="12.4675035"><ele>819.0</ele><time>2026-05-01T12:40:41.746Z</time></trkpt><trkpt lat="46.5353453" lon="12.4675635"><ele>813.0</ele><time>2026-05-01T12:40:42.742Z</time></trkpt><trkpt lat="46.5351765" lon="12.4676222"><ele>807.0</ele><time>2026-05-01T12:40:43.748Z</time></trkpt><trkpt lat="46.5350042" lon="12.4676838"><ele>807.0</ele><time>2026-05-01T12:40:44.746Z</time></trkpt><trkpt lat="46.5348272" lon="12.4677368"><ele>807.0</ele><time>2026-05-01T12:40:45.752Z</time></trkpt><trkpt lat="46.5346527" lon="12.4677932"><ele>807.0</ele><time>2026-05-01T12:40:46.741Z</time></trkpt><trkpt lat="46.5344792" lon="12.4678557"><ele>804.6666666666667</ele><time>2026-05-01T12:40:47.748Z</time></trkpt><trkpt lat="46.534311" lon="12.4679295"><ele>802.3333333333334</ele><time>2026-05-01T12:40:48.743Z</time></trkpt><trkpt lat="46.5341489" lon="12.4680114"><ele>800.0</ele><time>2026-05-01T12:40:49.741Z</time></trkpt><trkpt lat="46.5339843" lon="12.4680997"><ele>798.3333333333334</ele><time>2026-05-01T12:40:50.755Z</time></trkpt><trkpt lat="46.5338185" lon="12.4681856"><ele>796.6666666666667</ele><time>2026-05-01T12:40:51.745Z</time></trkpt><trkpt lat="46.533658" lon="12.4682836"><ele>795.0</ele><time>2026-05-01T12:40:52.749Z</time></trkpt><trkpt lat="46.5334995" lon="12.4683831"><ele>795.0</ele><time>2026-05-01T12:40:53.746Z</time></trkpt><trkpt lat="46.5333554" lon="12.4684878"><ele>795.0</ele><time>2026-05-01T12:40:54.751Z</time></trkpt><trkpt lat="46.5332219" lon="12.4686002"><ele>795.0</ele><time>2026-05-01T12:40:55.743Z</time></trkpt><trkpt lat="46.5331012" lon="12.4687248"><ele>797.0</ele><time>2026-05-01T12:40:56.744Z</time></trkpt><trkpt lat="46.5329942" lon="12.4688493"><ele>799.0</ele><time>2026-05-01T12:40:57.746Z</time></trkpt><trkpt lat="46.5329034" lon="12.4689839"><ele>801.0</ele><time>2026-05-01T12:40:58.742Z</time></trkpt><trkpt lat="46.5328542" lon="12.4691314"><ele>803.0</ele><time>2026-05-01T12:40:59.748Z</time></trkpt><trkpt lat="46.5328373" lon="12.4692796"><ele>803.0</ele><time>2026-05-01T12:41:00.75Z</time></trkpt><trkpt lat="46.5328435" lon="12.4694243"><ele>803.0</ele><time>2026-05-01T12:41:01.745Z</time></trkpt><trkpt lat="46.5328723" lon="12.4695679"><ele>803.0</ele><time>2026-05-01T12:41:02.748Z</time></trkpt><trkpt lat="46.5329146" lon="12.4697146"><ele>803.0</ele><time>2026-05-01T12:41:03.742Z</time></trkpt><trkpt lat="46.5329641" lon="12.4698612"><ele>803.0</ele><time>2026-05-01T12:41:04.752Z</time></trkpt><trkpt lat="46.5330083" lon="12.4700148"><ele>812.3333333333334</ele><time>2026-05-01T12:41:05.749Z</time></trkpt><trkpt lat="46.5330436" lon="12.4701663"><ele>821.6666666666667</ele><time>2026-05-01T12:41:06.745Z</time></trkpt><trkpt lat="46.5330664" lon="12.4703135"><ele>831.0</ele><time>2026-05-01T12:41:07.747Z</time></trkpt><trkpt lat="46.5330235" lon="12.4697051"><ele>840.0</ele><time>2026-05-01T12:41:24.324Z</time></trkpt><trkpt lat="46.5341833" lon="12.4691061"><ele>870.0</ele><time>2026-05-01T12:42:56.609Z</time></trkpt><trkpt lat="46.5382242" lon="12.5222457"><ele>870.0</ele><time>2026-05-01T12:44:48.743Z</time></trkpt><trkpt lat="46.5382615" lon="12.522458"><ele>870.0</ele><time>2026-05-01T12:44:49.739Z</time></trkpt><trkpt lat="46.5383115" lon="12.522665"><ele>870.0</ele><time>2026-05-01T12:44:50.739Z</time></trkpt><trkpt lat="46.5383637" lon="12.5228912"><ele>867.3333333333333</ele><time>2026-05-01T12:44:51.735Z</time></trkpt><trkpt lat="46.538407" lon="12.5231119"><ele>864.6666666666666</ele><time>2026-05-01T12:44:52.743Z</time></trkpt><trkpt lat="46.5384649" lon="12.5233498"><ele>862.0</ele><time>2026-05-01T12:44:53.746Z</time></trkpt><trkpt lat="46.5385226" lon="12.5235857"><ele>860.3333333333333</ele><time>2026-05-01T12:44:54.745Z</time></trkpt><trkpt lat="46.5385847" lon="12.5238258"><ele>858.6666666666667</ele><time>2026-05-01T12:44:55.738Z</time></trkpt><trkpt lat="46.5386478" lon="12.5240702"><ele>857.0</ele><time>2026-05-01T12:44:56.744Z</time></trkpt><trkpt lat="46.5386997" lon="12.5243217"><ele>863.3333333333334</ele><time>2026-05-01T12:44:57.738Z</time></trkpt><trkpt lat="46.5387458" lon="12.5245788"><ele>869.6666666666667</ele><time>2026-05-01T12:44:58.744Z</time></trkpt><trkpt lat="46.5387626" lon="12.5248413"><ele>876.0</ele><time>2026-05-01T12:44:59.741Z</time></trkpt><trkpt lat="46.5387651" lon="12.5251035"><ele>876.0</ele><time>2026-05-01T12:45:00.74Z</time></trkpt><trkpt lat="46.5387619" lon="12.525358"><ele>876.0</ele><time>2026-05-01T12:45:01.738Z</time></trkpt><trkpt lat="46.5387551" lon="12.5255957"><ele>876.0</ele><time>2026-05-01T12:45:02.742Z</time></trkpt><trkpt lat="46.5387461" lon="12.5258196"><ele>871.75</ele><time>2026-05-01T12:45:03.743Z</time></trkpt><trkpt lat="46.5387525" lon="12.5260371"><ele>867.5</ele><time>2026-05-01T12:45:04.747Z</time></trkpt><trkpt lat="46.5387787" lon="12.5262501"><ele>863.25</ele><time>2026-05-01T12:45:05.757Z</time></trkpt><trkpt lat="46.5388277" lon="12.5264556"><ele>859.0</ele><time>2026-05-01T12:45:06.742Z</time></trkpt><trkpt lat="46.5389046" lon="12.5266586"><ele>859.0</ele><time>2026-05-01T12:45:07.74Z</time></trkpt><trkpt lat="46.5390017" lon="12.5268516"><ele>859.0</ele><time>2026-05-01T12:45:08.745Z</time></trkpt><trkpt lat="46.5391145" lon="12.5270443"><ele>859.0</ele><time>2026-05-01T12:45:09.739Z</time></trkpt><trkpt lat="46.5392344" lon="12.5272399"><ele>860.0</ele><time>2026-05-01T12:45:10.745Z</time></trkpt><trkpt lat="46.5393654" lon="12.527424"><ele>861.0</ele><time>2026-05-01T12:45:11.744Z</time></trkpt><trkpt lat="46.5395038" lon="12.5276048"><ele>862.0</ele><time>2026-05-01T12:45:12.743Z</time></trkpt><trkpt lat="46.539646" lon="12.5277833"><ele>868.3333333333333</ele><time>2026-05-01T12:45:13.745Z</time></trkpt><trkpt lat="46.5397951" lon="12.5279683"><ele>874.6666666666667</ele><time>2026-05-01T12:45:14.741Z</time></trkpt><trkpt lat="46.5399473" lon="12.5281516"><ele>881.0</ele><time>2026-05-01T12:45:15.739Z</time></trkpt><trkpt lat="46.5400911" lon="12.5283283"><ele>881.0</ele><time>2026-05-01T12:45:16.743Z</time></trkpt><trkpt lat="46.5402227" lon="12.5284838"><ele>881.0</ele><time>2026-05-01T12:45:17.746Z</time></trkpt><trkpt lat="46.5403457" lon="12.5286212"><ele>881.0</ele><time>2026-05-01T12:45:18.738Z</time></trkpt><trkpt lat="46.5404568" lon="12.5287544"><ele>880.75</ele><time>2026-05-01T12:45:19.749Z</time></trkpt><trkpt lat="46.5405546" lon="12.5288816"><ele>880.5</ele><time>2026-05-01T12:45:20.745Z</time></trkpt><trkpt lat="46.5406529" lon="12.5290142"><ele>880.25</ele><time>2026-05-01T12:45:21.754Z</time></trkpt><trkpt lat="46.5407415" lon="12.5291513"><ele>880.0</ele><time>2026-05-01T12:45:22.743Z</time></trkpt><trkpt lat="46.5408166" lon="12.5293116"><ele>880.0</ele><time>2026-05-01T12:45:23.752Z</time></trkpt><trkpt lat="46.5408683" lon="12.5294818"><ele>880.0</ele><time>2026-05-01T12:45:24.741Z</time></trkpt><trkpt lat="46.5409222" lon="12.5296381"><ele>880.0</ele><time>2026-05-01T12:45:25.742Z</time></trkpt><trkpt lat="46.540978" lon="12.5297598"><ele>880.0</ele><time>2026-05-01T12:45:26.744Z</time></trkpt><trkpt lat="46.5410613" lon="12.5298382"><ele>880.0</ele><time>2026-05-01T12:45:27.747Z</time></trkpt><trkpt lat="46.5411563" lon="12.5298726"><ele>881.0</ele><time>2026-05-01T12:45:28.742Z</time></trkpt><trkpt lat="46.5412702" lon="12.5298667"><ele>882.0</ele><time>2026-05-01T12:45:29.747Z</time></trkpt><trkpt lat="46.5413878" lon="12.5298139"><ele>883.0</ele><time>2026-05-01T12:45:30.743Z</time></trkpt><trkpt lat="46.5415153" lon="12.5297609"><ele>884.0</ele><time>2026-05-01T12:45:31.752Z</time></trkpt><trkpt lat="46.541637" lon="12.5297165"><ele>884.0</ele><time>2026-05-01T12:45:32.741Z</time></trkpt><trkpt lat="46.5417463" lon="12.5296859"><ele>884.0000000000001</ele><time>2026-05-01T12:45:33.746Z</time></trkpt><trkpt lat="46.541842" lon="12.5296628"><ele>884.0000000000001</ele><time>2026-05-01T12:45:34.739Z</time></trkpt><trkpt lat="46.5419284" lon="12.5296555"><ele>884.0</ele><time>2026-05-01T12:45:35.743Z</time></trkpt><trkpt lat="46.5420002" lon="12.5296538"><ele>884.0</ele><time>2026-05-01T12:45:36.746Z</time></trkpt><trkpt lat="46.542075" lon="12.5297077"><ele>885.0000000000001</ele><time>2026-05-01T12:45:38.753Z</time></trkpt><trkpt lat="46.5420839" lon="12.5297992"><ele>886.0</ele><time>2026-05-01T12:45:40.735Z</time></trkpt><trkpt lat="46.5420681" lon="12.529951"><ele>887.0</ele><time>2026-05-01T12:45:42.75Z</time></trkpt><trkpt lat="46.5420659" lon="12.5300578"><ele>888.0</ele><time>2026-05-01T12:45:43.742Z</time></trkpt><trkpt lat="46.5420748" lon="12.5301648"><ele>889.0000000000001</ele><time>2026-05-01T12:45:44.745Z</time></trkpt><trkpt lat="46.5420818" lon="12.5302682"><ele>890.0</ele><time>2026-05-01T12:45:45.747Z</time></trkpt><trkpt lat="46.5420984" lon="12.5303686"><ele>892.1428571428571</ele><time>2026-05-01T12:45:46.738Z</time></trkpt><trkpt lat="46.5421288" lon="12.5304849"><ele>894.2857142857142</ele><time>2026-05-01T12:45:47.755Z</time></trkpt><trkpt lat="46.5421601" lon="12.5305837"><ele>896.4285714285713</ele><time>2026-05-01T12:45:48.746Z</time></trkpt><trkpt lat="46.5421678" lon="12.5306759"><ele>898.5714285714286</ele><time>2026-05-01T12:45:49.745Z</time></trkpt><trkpt lat="46.5421423" lon="12.5307608"><ele>900.7142857142856</ele><time>2026-05-01T12:45:50.747Z</time></trkpt><trkpt lat="46.5421104" lon="12.5308483"><ele>902.8571428571428</ele><time>2026-05-01T12:45:51.74Z</time></trkpt><trkpt lat="46.5420743" lon="12.5309533"><ele>905.0</ele><time>2026-05-01T12:45:52.751Z</time></trkpt><trkpt lat="46.5420388" lon="12.5310654"><ele>905.0000000000001</ele><time>2026-05-01T12:45:53.742Z</time></trkpt><trkpt lat="46.5420181" lon="12.5311898"><ele>905.0</ele><time>2026-05-01T12:45:54.747Z</time></trkpt><trkpt lat="46.5419947" lon="12.5313037"><ele>905.0</ele><time>2026-05-01T12:45:55.742Z</time></trkpt><trkpt lat="46.541967" lon="12.5314263"><ele>905.0</ele><time>2026-05-01T12:45:56.744Z</time></trkpt><trkpt lat="46.5419295" lon="12.5315349"><ele>905.0000000000001</ele><time>2026-05-01T12:45:57.745Z</time></trkpt><trkpt lat="46.541883" lon="12.5316468"><ele>905.0</ele><time>2026-05-01T12:45:58.745Z</time></trkpt><trkpt lat="46.5418346" lon="12.5317652"><ele>907.1666666666667</ele><time>2026-05-01T12:45:59.748Z</time></trkpt><trkpt lat="46.541783" lon="12.5318846"><ele>909.3333333333334</ele><time>2026-05-01T12:46:00.748Z</time></trkpt><trkpt lat="46.5417379" lon="12.5320138"><ele>911.5</ele><time>2026-05-01T12:46:01.744Z</time></trkpt><trkpt lat="46.5416837" lon="12.5321155"><ele>913.6666666666667</ele><time>2026-05-01T12:46:02.738Z</time></trkpt><trkpt lat="46.5416245" lon="12.5321996"><ele>915.8333333333334</ele><time>2026-05-01T12:46:03.748Z</time></trkpt><trkpt lat="46.5415656" lon="12.5322784"><ele>918.0</ele><time>2026-05-01T12:46:04.746Z</time></trkpt><trkpt lat="46.5415209" lon="12.5323925"><ele>920.5999999999999</ele><time>2026-05-01T12:46:05.74Z</time></trkpt><trkpt lat="46.541487" lon="12.5325426"><ele>923.1999999999999</ele><time>2026-05-01T12:46:06.752Z</time></trkpt><trkpt lat="46.5414661" lon="12.5327101"><ele>925.8</ele><time>2026-05-01T12:46:07.749Z</time></trkpt><trkpt lat="46.5414227" lon="12.5328384"><ele>928.4</ele><time>2026-05-01T12:46:08.739Z</time></trkpt><trkpt lat="46.541399" lon="12.5329615"><ele>931.0</ele><time>2026-05-01T12:46:09.742Z</time></trkpt><trkpt lat="46.5413813" lon="12.5331014"><ele>931.1999999999999</ele><time>2026-05-01T12:46:10.744Z</time></trkpt><trkpt lat="46.5413578" lon="12.5332339"><ele>931.3999999999999</ele><time>2026-05-01T12:46:11.741Z</time></trkpt><trkpt lat="46.5413286" lon="12.5333572"><ele>931.6</ele><time>2026-05-01T12:46:12.751Z</time></trkpt><trkpt lat="46.5412859" lon="12.5334747"><ele>931.8</ele><time>2026-05-01T12:46:13.737Z</time></trkpt><trkpt lat="46.5412325" lon="12.5335911"><ele>932.0</ele><time>2026-05-01T12:46:14.741Z</time></trkpt><trkpt lat="46.5411785" lon="12.5337025"><ele>933.8</ele><time>2026-05-01T12:46:15.744Z</time></trkpt><trkpt lat="46.541127" lon="12.5338225"><ele>935.6</ele><time>2026-05-01T12:46:16.745Z</time></trkpt><trkpt lat="46.5410947" lon="12.5339519"><ele>937.3999999999999</ele><time>2026-05-01T12:46:17.747Z</time></trkpt><trkpt lat="46.5410536" lon="12.5340711"><ele>939.1999999999999</ele><time>2026-05-01T12:46:18.744Z</time></trkpt><trkpt lat="46.5410163" lon="12.5341906"><ele>941.0</ele><time>2026-05-01T12:46:19.75Z</time></trkpt><trkpt lat="46.5409701" lon="12.5342997"><ele>941.0</ele><time>2026-05-01T12:46:20.745Z</time></trkpt><trkpt lat="46.5409171" lon="12.5344017"><ele>940.9999999999999</ele><time>2026-05-01T12:46:21.745Z</time></trkpt><trkpt lat="46.5408619" lon="12.5345145"><ele>940.9999999999999</ele><time>2026-05-01T12:46:22.752Z</time></trkpt><trkpt lat="46.5407944" lon="12.5346088"><ele>941.0</ele><time>2026-05-01T12:46:23.742Z</time></trkpt><trkpt lat="46.5407101" lon="12.5346996"><ele>941.0</ele><time>2026-05-01T12:46:24.75Z</time></trkpt><trkpt lat="46.5406297" lon="12.5347839"><ele>938.8</ele><time>2026-05-01T12:46:25.738Z</time></trkpt><trkpt lat="46.5405559" lon="12.5348714"><ele>936.5999999999999</ele><time>2026-05-01T12:46:26.747Z</time></trkpt><trkpt lat="46.5404762" lon="12.534959"><ele>934.4</ele><time>2026-05-01T12:46:27.743Z</time></trkpt><trkpt lat="46.540409" lon="12.5350615"><ele>932.2</ele><time>2026-05-01T12:46:28.742Z</time></trkpt><trkpt lat="46.5403635" lon="12.5351875"><ele>930.0</ele><time>2026-05-01T12:46:29.749Z</time></trkpt><trkpt lat="46.5403422" lon="12.535321"><ele>933.4</ele><time>2026-05-01T12:46:30.745Z</time></trkpt><trkpt lat="46.5403213" lon="12.5354597"><ele>936.8</ele><time>2026-05-01T12:46:31.744Z</time></trkpt><trkpt lat="46.5402951" lon="12.5356153"><ele>940.2</ele><time>2026-05-01T12:46:32.742Z</time></trkpt><trkpt lat="46.5402579" lon="12.5357582"><ele>943.6</ele><time>2026-05-01T12:46:33.755Z</time></trkpt><trkpt lat="46.5402241" lon="12.5359011"><ele>947.0</ele><time>2026-05-01T12:46:34.746Z</time></trkpt><trkpt lat="46.5401939" lon="12.5360521"><ele>947.0</ele><time>2026-05-01T12:46:35.745Z</time></trkpt><trkpt lat="46.5401899" lon="12.53621"><ele>947.0</ele><time>2026-05-01T12:46:36.746Z</time></trkpt><trkpt lat="46.5401879" lon="12.5363598"><ele>947.0</ele><time>2026-05-01T12:46:37.75Z</time></trkpt><trkpt lat="46.5401879" lon="12.5365027"><ele>947.0</ele><time>2026-05-01T12:46:38.744Z</time></trkpt><trkpt lat="46.5401911" lon="12.5366639"><ele>947.0</ele><time>2026-05-01T12:46:39.745Z</time></trkpt><trkpt lat="46.5402077" lon="12.5368209"><ele>949.8</ele><time>2026-05-01T12:46:40.752Z</time></trkpt><trkpt lat="46.5402179" lon="12.5369557"><ele>952.6</ele><time>2026-05-01T12:46:41.748Z</time></trkpt><trkpt lat="46.5402172" lon="12.5370839"><ele>955.3999999999999</ele><time>2026-05-01T12:46:42.753Z</time></trkpt><trkpt lat="46.5401994" lon="12.5372089"><ele>958.1999999999999</ele><time>2026-05-01T12:46:43.75Z</time></trkpt><trkpt lat="46.5401708" lon="12.5373406"><ele>961.0</ele><time>2026-05-01T12:46:44.748Z</time></trkpt><trkpt lat="46.5401506" lon="12.537468"><ele>962.0</ele><time>2026-05-01T12:46:45.745Z</time></trkpt><trkpt lat="46.5401582" lon="12.5375929"><ele>962.9999999999999</ele><time>2026-05-01T12:46:46.742Z</time></trkpt><trkpt lat="46.5401937" lon="12.5377169"><ele>963.9999999999999</ele><time>2026-05-01T12:46:47.752Z</time></trkpt><trkpt lat="46.5402454" lon="12.5378387"><ele>965.0</ele><time>2026-05-01T12:46:48.744Z</time></trkpt><trkpt lat="46.5403079" lon="12.5379624"><ele>966.0</ele><time>2026-05-01T12:46:49.75Z</time></trkpt><trkpt lat="46.5403717" lon="12.5380767"><ele>971.1999999999999</ele><time>2026-05-01T12:46:50.748Z</time></trkpt><trkpt lat="46.5404413" lon="12.5381947"><ele>976.3999999999999</ele><time>2026-05-01T12:46:51.755Z</time></trkpt><trkpt lat="46.5405117" lon="12.5383027"><ele>981.6</ele><time>2026-05-01T12:46:52.745Z</time></trkpt><trkpt lat="46.5405801" lon="12.5384139"><ele>986.8</ele><time>2026-05-01T12:46:53.745Z</time></trkpt><trkpt lat="46.5406485" lon="12.5385345"><ele>992.0</ele><time>2026-05-01T12:46:54.744Z</time></trkpt><trkpt lat="46.5407245" lon="12.5386509"><ele>989.4000000000001</ele><time>2026-05-01T12:46:55.749Z</time></trkpt><trkpt lat="46.540805" lon="12.5387516"><ele>986.8000000000001</ele><time>2026-05-01T12:46:56.748Z</time></trkpt><trkpt lat="46.540877" lon="12.5388551"><ele>984.2</ele><time>2026-05-01T12:46:57.749Z</time></trkpt><trkpt lat="46.5409451" lon="12.5389655"><ele>981.6</ele><time>2026-05-01T12:46:58.745Z</time></trkpt><trkpt lat="46.5410239" lon="12.5390742"><ele>979.0</ele><time>2026-05-01T12:46:59.753Z</time></trkpt><trkpt lat="46.5411032" lon="12.5391878"><ele>979.0</ele><time>2026-05-01T12:47:00.749Z</time></trkpt><trkpt lat="46.541182" lon="12.5392914"><ele>979.0000000000001</ele><time>2026-05-01T12:47:01.749Z</time></trkpt><trkpt lat="46.5412518" lon="12.5393891"><ele>979.0000000000001</ele><time>2026-05-01T12:47:02.747Z</time></trkpt><trkpt lat="46.5413251" lon="12.5394719"><ele>979.0</ele><time>2026-05-01T12:47:03.748Z</time></trkpt><trkpt lat="46.5413783" lon="12.5395883"><ele>979.0</ele><time>2026-05-01T12:47:04.745Z</time></trkpt><trkpt lat="46.5414231" lon="12.5397365"><ele>982.0</ele><time>2026-05-01T12:47:05.744Z</time></trkpt><trkpt lat="46.5414773" lon="12.5398902"><ele>985.0000000000001</ele><time>2026-05-01T12:47:06.744Z</time></trkpt><trkpt lat="46.5415395" lon="12.5400173"><ele>988.0000000000001</ele><time>2026-05-01T12:47:07.744Z</time></trkpt><trkpt lat="46.5415986" lon="12.5401601"><ele>991.0</ele><time>2026-05-01T12:47:08.743Z</time></trkpt><trkpt lat="46.541657" lon="12.540287"><ele>994.0</ele><time>2026-05-01T12:47:09.744Z</time></trkpt><trkpt lat="46.5417161" lon="12.5404283"><ele>994.0</ele><time>2026-05-01T12:47:10.75Z</time></trkpt><trkpt lat="46.5417678" lon="12.5405568"><ele>994.0000000000001</ele><time>2026-05-01T12:47:11.75Z</time></trkpt><trkpt lat="46.54183" lon="12.5406846"><ele>994.0000000000001</ele><time>2026-05-01T12:47:12.744Z</time></trkpt><trkpt lat="46.5418868" lon="12.5408156"><ele>994.0</ele><time>2026-05-01T12:47:13.747Z</time></trkpt><trkpt lat="46.5419565" lon="12.5409413"><ele>994.0</ele><time>2026-05-01T12:47:14.748Z</time></trkpt><trkpt lat="46.5420181" lon="12.541054"><ele>997.25</ele><time>2026-05-01T12:47:15.742Z</time></trkpt><trkpt lat="46.5420878" lon="12.54117"><ele>1000.5</ele><time>2026-05-01T12:47:16.743Z</time></trkpt><trkpt lat="46.5421554" lon="12.5412893"><ele>1003.75</ele><time>2026-05-01T12:47:17.745Z</time></trkpt><trkpt lat="46.5422309" lon="12.5414257"><ele>1007.0</ele><time>2026-05-01T12:47:18.748Z</time></trkpt><trkpt lat="46.5423178" lon="12.5415425"><ele>1007.0</ele><time>2026-05-01T12:47:19.741Z</time></trkpt><trkpt lat="46.5424102" lon="12.5416418"><ele>1007.0</ele><time>2026-05-01T12:47:20.74Z</time></trkpt><trkpt lat="46.5424933" lon="12.5417304"><ele>1007.0</ele><time>2026-05-01T12:47:21.74Z</time></trkpt><trkpt lat="46.5425536" lon="12.5418308"><ele>1007.0</ele><time>2026-05-01T12:47:22.744Z</time></trkpt><trkpt lat="46.5426116" lon="12.5419476"><ele>1007.0</ele><time>2026-05-01T12:47:23.739Z</time></trkpt><trkpt lat="46.5426703" lon="12.5420703"><ele>1005.8</ele><time>2026-05-01T12:47:24.748Z</time></trkpt><trkpt lat="46.5427095" lon="12.5422123"><ele>1004.6</ele><time>2026-05-01T12:47:25.747Z</time></trkpt><trkpt lat="46.5427479" lon="12.5423511"><ele>1003.3999999999999</ele><time>2026-05-01T12:47:26.743Z</time></trkpt><trkpt lat="46.5427935" lon="12.542491"><ele>1002.1999999999999</ele><time>2026-05-01T12:47:27.748Z</time></trkpt><trkpt lat="46.5428425" lon="12.5426134"><ele>1001.0</ele><time>2026-05-01T12:47:28.749Z</time></trkpt><trkpt lat="46.5428737" lon="12.5427159"><ele>1000.3333333333334</ele><time>2026-05-01T12:47:29.74Z</time></trkpt><trkpt lat="46.5429103" lon="12.5428089"><ele>999.6666666666667</ele><time>2026-05-01T12:47:30.751Z</time></trkpt><trkpt lat="46.5429507" lon="12.5429112"><ele>999.0</ele><time>2026-05-01T12:47:31.743Z</time></trkpt><trkpt lat="46.5429992" lon="12.5430105"><ele>998.3333333333333</ele><time>2026-05-01T12:47:32.748Z</time></trkpt><trkpt lat="46.5430435" lon="12.5431233"><ele>997.6666666666666</ele><time>2026-05-01T12:47:33.748Z</time></trkpt><trkpt lat="46.5430955" lon="12.5432339"><ele>997.0</ele><time>2026-05-01T12:47:34.745Z</time></trkpt><trkpt lat="46.5431404" lon="12.5433469"><ele>996.9999999999999</ele><time>2026-05-01T12:47:35.744Z</time></trkpt><trkpt lat="46.5431748" lon="12.5434561"><ele>997.0</ele><time>2026-05-01T12:47:36.744Z</time></trkpt><trkpt lat="46.5432113" lon="12.543561"><ele>997.0</ele><time>2026-05-01T12:47:37.747Z</time></trkpt><trkpt lat="46.5432448" lon="12.543651"><ele>997.0</ele><time>2026-05-01T12:47:38.738Z</time></trkpt><trkpt lat="46.5432849" lon="12.543735"><ele>996.9999999999999</ele><time>2026-05-01T12:47:39.746Z</time></trkpt><trkpt lat="46.5433387" lon="12.5437851"><ele>997.0</ele><time>2026-05-01T12:47:40.744Z</time></trkpt><trkpt lat="46.5434624" lon="12.5438128"><ele>996.8</ele><time>2026-05-01T12:47:42.74Z</time></trkpt><trkpt lat="46.5435814" lon="12.5438422"><ele>996.6</ele><time>2026-05-01T12:47:44.743Z</time></trkpt><trkpt lat="46.5436873" lon="12.5438617"><ele>996.3999999999999</ele><time>2026-05-01T12:47:46.743Z</time></trkpt><trkpt lat="46.5437601" lon="12.5438928"><ele>996.1999999999999</ele><time>2026-05-01T12:47:47.745Z</time></trkpt><trkpt lat="46.5438283" lon="12.543926"><ele>996.0</ele><time>2026-05-01T12:47:48.739Z</time></trkpt><trkpt lat="46.5438991" lon="12.5439664"><ele>993.0</ele><time>2026-05-01T12:47:49.74Z</time></trkpt><trkpt lat="46.5439569" lon="12.5440174"><ele>989.9999999999999</ele><time>2026-05-01T12:47:50.745Z</time></trkpt><trkpt lat="46.5440331" lon="12.5441423"><ele>986.9999999999999</ele><time>2026-05-01T12:47:52.741Z</time></trkpt><trkpt lat="46.5440159" lon="12.5442849"><ele>984.0</ele><time>2026-05-01T12:47:54.741Z</time></trkpt><trkpt lat="46.5439333" lon="12.5444083"><ele>981.0</ele><time>2026-05-01T12:47:56.741Z</time></trkpt><trkpt lat="46.5438882" lon="12.5444722"><ele>981.5999999999999</ele><time>2026-05-01T12:47:57.741Z</time></trkpt><trkpt lat="46.5437979" lon="12.5445795"><ele>982.1999999999999</ele><time>2026-05-01T12:47:59.742Z</time></trkpt><trkpt lat="46.5437405" lon="12.5446919"><ele>982.8000000000001</ele><time>2026-05-01T12:48:01.744Z</time></trkpt><trkpt lat="46.5437926" lon="12.5447576"><ele>983.4000000000001</ele><time>2026-05-01T12:48:03.754Z</time></trkpt><trkpt lat="46.543928" lon="12.5448025"><ele>984.0</ele><time>2026-05-01T12:48:05.746Z</time></trkpt><trkpt lat="46.5440118" lon="12.5448453"><ele>984.0</ele><time>2026-05-01T12:48:06.743Z</time></trkpt><trkpt lat="46.5440909" lon="12.5448714"><ele>984.0</ele><time>2026-05-01T12:48:07.744Z</time></trkpt><trkpt lat="46.5441774" lon="12.5448842"><ele>984.0</ele><time>2026-05-01T12:48:08.744Z</time></trkpt><trkpt lat="46.5442614" lon="12.5448891"><ele>984.0</ele><time>2026-05-01T12:48:09.748Z</time></trkpt><trkpt lat="46.5443377" lon="12.544898"><ele>984.0</ele><time>2026-05-01T12:48:10.743Z</time></trkpt><trkpt lat="46.5444216" lon="12.5448993"><ele>984.0</ele><time>2026-05-01T12:48:11.746Z</time></trkpt><trkpt lat="46.5445124" lon="12.5448925"><ele>983.8000000000001</ele><time>2026-05-01T12:48:12.743Z</time></trkpt><trkpt lat="46.5445988" lon="12.5448861"><ele>983.6000000000001</ele><time>2026-05-01T12:48:13.746Z</time></trkpt><trkpt lat="46.5446962" lon="12.544877"><ele>983.4</ele><time>2026-05-01T12:48:14.748Z</time></trkpt><trkpt lat="46.5448045" lon="12.5448457"><ele>983.2</ele><time>2026-05-01T12:48:15.754Z</time></trkpt><trkpt lat="46.54492" lon="12.5447791"><ele>983.0</ele><time>2026-05-01T12:48:16.741Z</time></trkpt><trkpt lat="46.545032" lon="12.5447173"><ele>983.0</ele><time>2026-05-01T12:48:17.739Z</time></trkpt><trkpt lat="46.5451278" lon="12.5446668"><ele>983.0</ele><time>2026-05-01T12:48:18.744Z</time></trkpt><trkpt lat="46.5452146" lon="12.5446258"><ele>983.0</ele><time>2026-05-01T12:48:19.746Z</time></trkpt><trkpt lat="46.5452986" lon="12.5445825"><ele>983.0</ele><time>2026-05-01T12:48:20.741Z</time></trkpt><trkpt lat="46.5453824" lon="12.5445378"><ele>983.0</ele><time>2026-05-01T12:48:21.739Z</time></trkpt><trkpt lat="46.5454754" lon="12.5444912"><ele>980.2</ele><time>2026-05-01T12:48:22.743Z</time></trkpt><trkpt lat="46.5455612" lon="12.5444451"><ele>977.4</ele><time>2026-05-01T12:48:23.752Z</time></trkpt><trkpt lat="46.5456488" lon="12.5443995"><ele>974.6000000000001</ele><time>2026-05-01T12:48:24.749Z</time></trkpt><trkpt lat="46.5457366" lon="12.5443385"><ele>971.8000000000001</ele><time>2026-05-01T12:48:25.74Z</time></trkpt><trkpt lat="46.5458207" lon="12.5442817"><ele>969.0</ele><time>2026-05-01T12:48:26.754Z</time></trkpt><trkpt lat="46.5459062" lon="12.5442424"><ele>969.0</ele><time>2026-05-01T12:48:27.746Z</time></trkpt><trkpt lat="46.5459869" lon="12.5442151"><ele>969.0</ele><time>2026-05-01T12:48:28.739Z</time></trkpt><trkpt lat="46.5460651" lon="12.5442078"><ele>969.0</ele><time>2026-05-01T12:48:29.75Z</time></trkpt><trkpt lat="46.5461348" lon="12.5442245"><ele>969.0</ele><time>2026-05-01T12:48:30.745Z</time></trkpt><trkpt lat="46.5462082" lon="12.5442538"><ele>969.0</ele><time>2026-05-01T12:48:31.746Z</time></trkpt><trkpt lat="46.5462862" lon="12.5443099"><ele>969.0</ele><time>2026-05-01T12:48:32.75Z</time></trkpt><trkpt lat="46.5463733" lon="12.5443799"><ele>968.3333333333334</ele><time>2026-05-01T12:48:33.746Z</time></trkpt><trkpt lat="46.5464565" lon="12.5444351"><ele>967.6666666666667</ele><time>2026-05-01T12:48:34.742Z</time></trkpt><trkpt lat="46.5465308" lon="12.5444746"><ele>967.0</ele><time>2026-05-01T12:48:35.741Z</time></trkpt><trkpt lat="46.5465968" lon="12.5444865"><ele>966.3333333333334</ele><time>2026-05-01T12:48:36.748Z</time></trkpt><trkpt lat="46.5466815" lon="12.5445228"><ele>965.6666666666667</ele><time>2026-05-01T12:48:38.748Z</time></trkpt><trkpt lat="46.5467325" lon="12.5445782"><ele>965.0</ele><time>2026-05-01T12:48:40.744Z</time></trkpt><trkpt lat="46.5467939" lon="12.5447097"><ele>965.0000000000001</ele><time>2026-05-01T12:48:42.746Z</time></trkpt><trkpt lat="46.5468313" lon="12.5448068"><ele>965.0</ele><time>2026-05-01T12:48:43.739Z</time></trkpt><trkpt lat="46.5468578" lon="12.544904"><ele>965.0</ele><time>2026-05-01T12:48:44.742Z</time></trkpt><trkpt lat="46.5469" lon="12.545005"><ele>965.0</ele><time>2026-05-01T12:48:45.742Z</time></trkpt><trkpt lat="46.5469711" lon="12.5450998"><ele>965.0000000000001</ele><time>2026-05-01T12:48:46.746Z</time></trkpt><trkpt lat="46.5470568" lon="12.5451635"><ele>965.0</ele><time>2026-05-01T12:48:47.74Z</time></trkpt><trkpt lat="46.5471392" lon="12.5452218"><ele>965.5000000000001</ele><time>2026-05-01T12:48:48.738Z</time></trkpt><trkpt lat="46.5472222" lon="12.5452797"><ele>966.0</ele><time>2026-05-01T12:48:49.747Z</time></trkpt><trkpt lat="46.5473124" lon="12.5453409"><ele>966.5</ele><time>2026-05-01T12:48:50.742Z</time></trkpt><trkpt lat="46.5473874" lon="12.5453972"><ele>967.0</ele><time>2026-05-01T12:48:51.745Z</time></trkpt><trkpt lat="46.5474555" lon="12.5454715"><ele>967.5000000000001</ele><time>2026-05-01T12:48:52.746Z</time></trkpt><trkpt lat="46.5475221" lon="12.5455512"><ele>968.0</ele><time>2026-05-01T12:48:53.741Z</time></trkpt><trkpt lat="46.5475859" lon="12.5456397"><ele>968.0000000000001</ele><time>2026-05-01T12:48:54.755Z</time></trkpt><trkpt lat="46.5476413" lon="12.5457245"><ele>968.0</ele><time>2026-05-01T12:48:55.745Z</time></trkpt><trkpt lat="46.5477081" lon="12.5458095"><ele>968.0</ele><time>2026-05-01T12:48:56.744Z</time></trkpt><trkpt lat="46.5477748" lon="12.545909"><ele>968.0</ele><time>2026-05-01T12:48:57.742Z</time></trkpt><trkpt lat="46.5478394" lon="12.5459901"><ele>968.0000000000001</ele><time>2026-05-01T12:48:58.742Z</time></trkpt><trkpt lat="46.5478959" lon="12.5460587"><ele>968.0</ele><time>2026-05-01T12:48:59.742Z</time></trkpt><trkpt lat="46.5479609" lon="12.546127"><ele>966.4</ele><time>2026-05-01T12:49:00.744Z</time></trkpt><trkpt lat="46.5480391" lon="12.5461857"><ele>964.8</ele><time>2026-05-01T12:49:01.755Z</time></trkpt><trkpt lat="46.5481244" lon="12.5462222"><ele>963.2</ele><time>2026-05-01T12:49:02.741Z</time></trkpt><trkpt lat="46.5482143" lon="12.5462581"><ele>961.6</ele><time>2026-05-01T12:49:03.744Z</time></trkpt><trkpt lat="46.5483089" lon="12.5462892"><ele>960.0</ele><time>2026-05-01T12:49:04.749Z</time></trkpt><trkpt lat="46.5483972" lon="12.5463535"><ele>961.6</ele><time>2026-05-01T12:49:05.744Z</time></trkpt><trkpt lat="46.548482" lon="12.5464207"><ele>963.2</ele><time>2026-05-01T12:49:06.751Z</time></trkpt><trkpt lat="46.5485703" lon="12.5465011"><ele>964.8</ele><time>2026-05-01T12:49:07.743Z</time></trkpt><trkpt lat="46.5486594" lon="12.5465789"><ele>966.4</ele><time>2026-05-01T12:49:08.747Z</time></trkpt><trkpt lat="46.5487476" lon="12.5466537"><ele>968.0</ele><time>2026-05-01T12:49:09.748Z</time></trkpt><trkpt lat="46.5488362" lon="12.5467303"><ele>968.0000000000001</ele><time>2026-05-01T12:49:10.752Z</time></trkpt><trkpt lat="46.5489147" lon="12.5467957"><ele>968.0</ele><time>2026-05-01T12:49:11.738Z</time></trkpt><trkpt lat="46.5489907" lon="12.5468409"><ele>968.0</ele><time>2026-05-01T12:49:12.743Z</time></trkpt><trkpt lat="46.549065" lon="12.5468976"><ele>968.0</ele><time>2026-05-01T12:49:13.745Z</time></trkpt><trkpt lat="46.5491492" lon="12.5469604"><ele>968.0000000000001</ele><time>2026-05-01T12:49:14.749Z</time></trkpt><trkpt lat="46.5492213" lon="12.5470226"><ele>968.0</ele><time>2026-05-01T12:49:15.748Z</time></trkpt><trkpt lat="46.5492909" lon="12.5470827"><ele>971.2</ele><time>2026-05-01T12:49:16.749Z</time></trkpt><trkpt lat="46.5493872" lon="12.5471677"><ele>974.4</ele><time>2026-05-01T12:49:18.748Z</time></trkpt><trkpt lat="46.5494262" lon="12.5472553"><ele>977.6000000000001</ele><time>2026-05-01T12:49:20.748Z</time></trkpt><trkpt lat="46.5494509" lon="12.5474284"><ele>980.8000000000001</ele><time>2026-05-01T12:49:22.747Z</time></trkpt><trkpt lat="46.5494596" lon="12.5475402"><ele>984.0</ele><time>2026-05-01T12:49:23.75Z</time></trkpt><trkpt lat="46.5494764" lon="12.5476562"><ele>984.0</ele><time>2026-05-01T12:49:24.748Z</time></trkpt><trkpt lat="46.5494939" lon="12.5477784"><ele>984.0</ele><time>2026-05-01T12:49:25.749Z</time></trkpt><trkpt lat="46.5495169" lon="12.5478986"><ele>984.0</ele><time>2026-05-01T12:49:26.747Z</time></trkpt><trkpt lat="46.5495394" lon="12.5480009"><ele>984.0</ele><time>2026-05-01T12:49:27.745Z</time></trkpt><trkpt lat="46.5495556" lon="12.5480928"><ele>984.0</ele><time>2026-05-01T12:49:28.744Z</time></trkpt><trkpt lat="46.5495634" lon="12.548197"><ele>984.0</ele><time>2026-05-01T12:49:29.749Z</time></trkpt><trkpt lat="46.5495748" lon="12.5482937"><ele>983.3333333333334</ele><time>2026-05-01T12:49:30.755Z</time></trkpt><trkpt lat="46.5495839" lon="12.5483887"><ele>982.6666666666667</ele><time>2026-05-01T12:49:31.74Z</time></trkpt><trkpt lat="46.5495829" lon="12.5484993"><ele>982.0</ele><time>2026-05-01T12:49:32.755Z</time></trkpt><trkpt lat="46.5495849" lon="12.5486075"><ele>981.3333333333334</ele><time>2026-05-01T12:49:33.75Z</time></trkpt><trkpt lat="46.5496186" lon="12.5487596"><ele>980.6666666666667</ele><time>2026-05-01T12:49:35.744Z</time></trkpt><trkpt lat="46.5496561" lon="12.5488419"><ele>980.0</ele><time>2026-05-01T12:49:36.743Z</time></trkpt><trkpt lat="46.5497152" lon="12.5489253"><ele>980.0000000000001</ele><time>2026-05-01T12:49:37.75Z</time></trkpt><trkpt lat="46.5497932" lon="12.5489729"><ele>980.0</ele><time>2026-05-01T12:49:38.747Z</time></trkpt><trkpt lat="46.549869" lon="12.5490071"><ele>980.0</ele><time>2026-05-01T12:49:39.752Z</time></trkpt><trkpt lat="46.5499395" lon="12.5490309"><ele>980.0</ele><time>2026-05-01T12:49:40.744Z</time></trkpt><trkpt lat="46.5500043" lon="12.5490561"><ele>980.0000000000001</ele><time>2026-05-01T12:49:41.744Z</time></trkpt><trkpt lat="46.5500719" lon="12.5490734"><ele>980.0</ele><time>2026-05-01T12:49:42.752Z</time></trkpt><trkpt lat="46.5501726" lon="12.5491318"><ele>980.0</ele><time>2026-05-01T12:49:44.749Z</time></trkpt><trkpt lat="46.5502375" lon="12.549169"><ele>980.0</ele><time>2026-05-01T12:49:46.748Z</time></trkpt><trkpt lat="46.5503092" lon="12.549183"><ele>980.0</ele><time>2026-05-01T12:49:52.75Z</time></trkpt><trkpt lat="46.5503992" lon="12.5493027"><ele>980.0</ele><time>2026-05-01T12:49:54.749Z</time></trkpt><trkpt lat="46.5504702" lon="12.5494002"><ele>980.0</ele><time>2026-05-01T12:49:55.748Z</time></trkpt><trkpt lat="46.5505298" lon="12.5495233"><ele>977.8</ele><time>2026-05-01T12:49:56.754Z</time></trkpt><trkpt lat="46.5505944" lon="12.5496558"><ele>975.6</ele><time>2026-05-01T12:49:57.748Z</time></trkpt><trkpt lat="46.5506677" lon="12.5497956"><ele>973.4000000000001</ele><time>2026-05-01T12:49:58.754Z</time></trkpt><trkpt lat="46.550737" lon="12.5499201"><ele>971.2</ele><time>2026-05-01T12:49:59.747Z</time></trkpt><trkpt lat="46.5508072" lon="12.5500096"><ele>969.0</ele><time>2026-05-01T12:50:00.751Z</time></trkpt><trkpt lat="46.55087" lon="12.5500931"><ele>968.9999999999999</ele><time>2026-05-01T12:50:01.756Z</time></trkpt><trkpt lat="46.5509197" lon="12.5501549"><ele>969.0</ele><time>2026-05-01T12:50:02.751Z</time></trkpt><trkpt lat="46.5509644" lon="12.5502468"><ele>968.9999999999999</ele><time>2026-05-01T12:50:04.747Z</time></trkpt><trkpt lat="46.5509649" lon="12.5503624"><ele>968.9999999999999</ele><time>2026-05-01T12:50:06.75Z</time></trkpt><trkpt lat="46.5509211" lon="12.5504346"><ele>969.0</ele><time>2026-05-01T12:50:07.749Z</time></trkpt><trkpt lat="46.5508714" lon="12.5505108"><ele>968.9999999999999</ele><time>2026-05-01T12:50:08.75Z</time></trkpt><trkpt lat="46.5508323" lon="12.550586"><ele>968.9999999999999</ele><time>2026-05-01T12:50:09.753Z</time></trkpt><trkpt lat="46.5507835" lon="12.5507296"><ele>969.6666666666666</ele><time>2026-05-01T12:50:11.75Z</time></trkpt><trkpt lat="46.5507794" lon="12.5508336"><ele>970.3333333333333</ele><time>2026-05-01T12:50:12.742Z</time></trkpt><trkpt lat="46.5507947" lon="12.5509435"><ele>971.0</ele><time>2026-05-01T12:50:13.746Z</time></trkpt><trkpt lat="46.5508222" lon="12.5510502"><ele>971.6666666666666</ele><time>2026-05-01T12:50:14.747Z</time></trkpt><trkpt lat="46.5508605" lon="12.5511569"><ele>972.3333333333333</ele><time>2026-05-01T12:50:15.746Z</time></trkpt><trkpt lat="46.550918" lon="12.5512548"><ele>973.0</ele><time>2026-05-01T12:50:16.748Z</time></trkpt><trkpt lat="46.5509696" lon="12.5513513"><ele>974.2</ele><time>2026-05-01T12:50:17.747Z</time></trkpt><trkpt lat="46.5510236" lon="12.5514641"><ele>975.4</ele><time>2026-05-01T12:50:18.747Z</time></trkpt><trkpt lat="46.5510662" lon="12.5515912"><ele>976.6000000000001</ele><time>2026-05-01T12:50:19.743Z</time></trkpt><trkpt lat="46.5511142" lon="12.5516957"><ele>977.8000000000001</ele><time>2026-05-01T12:50:20.746Z</time></trkpt><trkpt lat="46.5511749" lon="12.5518025"><ele>979.0</ele><time>2026-05-01T12:50:21.749Z</time></trkpt><trkpt lat="46.5512394" lon="12.5518904"><ele>978.8000000000001</ele><time>2026-05-01T12:50:22.744Z</time></trkpt><trkpt lat="46.5513067" lon="12.5519689"><ele>978.6000000000001</ele><time>2026-05-01T12:50:23.748Z</time></trkpt><trkpt lat="46.5513681" lon="12.5520306"><ele>978.4</ele><time>2026-05-01T12:50:24.745Z</time></trkpt><trkpt lat="46.5514249" lon="12.5520927"><ele>978.2</ele><time>2026-05-01T12:50:25.754Z</time></trkpt><trkpt lat="46.5515043" lon="12.5522137"><ele>978.0</ele><time>2026-05-01T12:50:27.748Z</time></trkpt><trkpt lat="46.5516161" lon="12.5523003"><ele>978.0</ele><time>2026-05-01T12:50:29.747Z</time></trkpt><trkpt lat="46.5516766" lon="12.5523463"><ele>978.0000000000001</ele><time>2026-05-01T12:50:30.755Z</time></trkpt><trkpt lat="46.5517406" lon="12.5523875"><ele>978.0</ele><time>2026-05-01T12:50:31.744Z</time></trkpt><trkpt lat="46.5517974" lon="12.5524384"><ele>978.0</ele><time>2026-05-01T12:50:32.741Z</time></trkpt><trkpt lat="46.5518563" lon="12.5524801"><ele>978.0000000000001</ele><time>2026-05-01T12:50:33.748Z</time></trkpt><trkpt lat="46.5519201" lon="12.5525239"><ele>978.0</ele><time>2026-05-01T12:50:34.749Z</time></trkpt><trkpt lat="46.5519986" lon="12.5525581"><ele>978.0</ele><time>2026-05-01T12:50:35.753Z</time></trkpt><trkpt lat="46.5520804" lon="12.5525914"><ele>978.1666666666666</ele><time>2026-05-01T12:50:36.75Z</time></trkpt><trkpt lat="46.5521583" lon="12.5526353"><ele>978.3333333333333</ele><time>2026-05-01T12:50:37.745Z</time></trkpt><trkpt lat="46.5522358" lon="12.5526792"><ele>978.5</ele><time>2026-05-01T12:50:38.752Z</time></trkpt><trkpt lat="46.5523094" lon="12.5527104"><ele>978.6666666666666</ele><time>2026-05-01T12:50:39.751Z</time></trkpt><trkpt lat="46.5523742" lon="12.5527493"><ele>978.8333333333333</ele><time>2026-05-01T12:50:40.743Z</time></trkpt><trkpt lat="46.5524388" lon="12.5527905"><ele>979.0</ele><time>2026-05-01T12:50:41.75Z</time></trkpt><trkpt lat="46.5525083" lon="12.5528429"><ele>979.3333333333333</ele><time>2026-05-01T12:50:42.745Z</time></trkpt><trkpt lat="46.5525803" lon="12.5529025"><ele>979.6666666666666</ele><time>2026-05-01T12:50:43.745Z</time></trkpt><trkpt lat="46.5526651" lon="12.5529544"><ele>980.0</ele><time>2026-05-01T12:50:44.742Z</time></trkpt><trkpt lat="46.5527486" lon="12.5530119"><ele>980.3333333333333</ele><time>2026-05-01T12:50:45.745Z</time></trkpt><trkpt lat="46.5528289" lon="12.5530611"><ele>980.6666666666666</ele><time>2026-05-01T12:50:46.756Z</time></trkpt><trkpt lat="46.5529107" lon="12.5531049"><ele>981.0</ele><time>2026-05-01T12:50:47.759Z</time></trkpt><trkpt lat="46.5529798" lon="12.5531447"><ele>981.0</ele><time>2026-05-01T12:50:48.738Z</time></trkpt><trkpt lat="46.5530458" lon="12.5531676"><ele>981.0</ele><time>2026-05-01T12:50:49.748Z</time></trkpt><trkpt lat="46.5531081" lon="12.553186"><ele>981.0</ele><time>2026-05-01T12:50:50.746Z</time></trkpt><trkpt lat="46.5531922" lon="12.5531956"><ele>981.0</ele><time>2026-05-01T12:50:52.75Z</time></trkpt><trkpt lat="46.5532845" lon="12.5531832"><ele>981.0</ele><time>2026-05-01T12:50:54.746Z</time></trkpt><trkpt lat="46.5533984" lon="12.5531549"><ele>981.0</ele><time>2026-05-01T12:50:56.75Z</time></trkpt><trkpt lat="46.5535019" lon="12.553136"><ele>981.0</ele><time>2026-05-01T12:50:58.756Z</time></trkpt><trkpt lat="46.5536087" lon="12.5531354"><ele>980.9999999999999</ele><time>2026-05-01T12:51:00.746Z</time></trkpt><trkpt lat="46.5536784" lon="12.5531475"><ele>980.9999999999999</ele><time>2026-05-01T12:51:01.748Z</time></trkpt><trkpt lat="46.553765" lon="12.553225"><ele>981.0</ele><time>2026-05-01T12:51:03.748Z</time></trkpt><trkpt lat="46.5538217" lon="12.5533258"><ele>981.0</ele><time>2026-05-01T12:51:05.75Z</time></trkpt><trkpt lat="46.5538659" lon="12.5534688"><ele>977.5</ele><time>2026-05-01T12:51:07.74Z</time></trkpt><trkpt lat="46.5539544" lon="12.5535743"><ele>974.0</ele><time>2026-05-01T12:51:09.744Z</time></trkpt><trkpt lat="46.5540301" lon="12.5536212"><ele>970.5</ele><time>2026-05-01T12:51:11.75Z</time></trkpt><trkpt lat="46.5541056" lon="12.5536473"><ele>967.0</ele><time>2026-05-01T12:51:13.744Z</time></trkpt><trkpt lat="46.5541711" lon="12.5536751"><ele>963.5</ele><time>2026-05-01T12:51:15.747Z</time></trkpt><trkpt lat="46.5542516" lon="12.5537086"><ele>960.0</ele><time>2026-05-01T12:51:18.746Z</time></trkpt><trkpt lat="46.5542953" lon="12.5537822"><ele>959.8333333333334</ele><time>2026-05-01T12:51:21.75Z</time></trkpt><trkpt lat="46.5542727" lon="12.5538948"><ele>959.6666666666667</ele><time>2026-05-01T12:51:25.744Z</time></trkpt><trkpt lat="46.5542338" lon="12.5539887"><ele>959.5</ele><time>2026-05-01T12:51:28.745Z</time></trkpt><trkpt lat="46.554229" lon="12.5541095"><ele>959.3333333333334</ele><time>2026-05-01T12:51:31.75Z</time></trkpt><trkpt lat="46.5542949" lon="12.5541137"><ele>959.1666666666667</ele><time>2026-05-01T12:51:34.744Z</time></trkpt><trkpt lat="46.5543618" lon="12.5540914"><ele>959.0</ele><time>2026-05-01T12:53:39.758Z</time></trkpt><trkpt lat="46.5544448" lon="12.5540769"><ele>959.0</ele><time>2026-05-01T12:53:42.745Z</time></trkpt><trkpt lat="46.5545284" lon="12.5541194"><ele>959.0000000000001</ele><time>2026-05-01T12:53:44.752Z</time></trkpt><trkpt lat="46.554632" lon="12.5541676"><ele>959.0000000000001</ele><time>2026-05-01T12:53:46.757Z</time></trkpt><trkpt lat="46.5547163" lon="12.5542093"><ele>959.0</ele><time>2026-05-01T12:53:48.744Z</time></trkpt><trkpt lat="46.5548018" lon="12.5542357"><ele>959.0</ele><time>2026-05-01T12:53:50.75Z</time></trkpt><trkpt lat="46.5549051" lon="12.5542674"><ele>952.5</ele><time>2026-05-01T12:53:52.745Z</time></trkpt><trkpt lat="46.5550193" lon="12.5543018"><ele>946.0</ele><time>2026-05-01T12:53:54.744Z</time></trkpt><trkpt lat="46.5551367" lon="12.5543414"><ele>939.5</ele><time>2026-05-01T12:53:56.745Z</time></trkpt><trkpt lat="46.5552557" lon="12.5543837"><ele>933.0</ele><time>2026-05-01T12:53:58.745Z</time></trkpt><trkpt lat="46.5553707" lon="12.5544262"><ele>929.8333333333334</ele><time>2026-05-01T12:54:00.746Z</time></trkpt><trkpt lat="46.5554513" lon="12.5544575"><ele>926.6666666666667</ele><time>2026-05-01T12:54:01.747Z</time></trkpt><trkpt lat="46.5555282" lon="12.5544886"><ele>923.5</ele><time>2026-05-01T12:54:02.747Z</time></trkpt><trkpt lat="46.5556021" lon="12.5545149"><ele>920.3333333333334</ele><time>2026-05-01T12:54:03.746Z</time></trkpt><trkpt lat="46.5556808" lon="12.5545533"><ele>917.1666666666667</ele><time>2026-05-01T12:54:04.743Z</time></trkpt><trkpt lat="46.5557509" lon="12.5545903"><ele>914.0</ele><time>2026-05-01T12:54:05.744Z</time></trkpt><trkpt lat="46.5558261" lon="12.5546343"><ele>914.0000000000001</ele><time>2026-05-01T12:54:06.747Z</time></trkpt><trkpt lat="46.5558971" lon="12.5546846"><ele>914.0</ele><time>2026-05-01T12:54:07.753Z</time></trkpt><trkpt lat="46.555975" lon="12.5547439"><ele>914.0</ele><time>2026-05-01T12:54:08.749Z</time></trkpt><trkpt lat="46.5560449" lon="12.5548062"><ele>914.0</ele><time>2026-05-01T12:54:09.74Z</time></trkpt><trkpt lat="46.5561172" lon="12.5548636"><ele>914.0000000000001</ele><time>2026-05-01T12:54:10.75Z</time></trkpt><trkpt lat="46.5561807" lon="12.5549192"><ele>914.0</ele><time>2026-05-01T12:54:11.749Z</time></trkpt><trkpt lat="46.5562395" lon="12.5549675"><ele>913.6666666666667</ele><time>2026-05-01T12:54:12.751Z</time></trkpt><trkpt lat="46.5562954" lon="12.5550238"><ele>913.3333333333334</ele><time>2026-05-01T12:54:13.75Z</time></trkpt><trkpt lat="46.5563527" lon="12.5550966"><ele>913.0</ele><time>2026-05-01T12:54:14.744Z</time></trkpt><trkpt lat="46.5564155" lon="12.5551813"><ele>912.6666666666667</ele><time>2026-05-01T12:54:15.744Z</time></trkpt><trkpt lat="46.5564762" lon="12.555272"><ele>912.3333333333334</ele><time>2026-05-01T12:54:16.749Z</time></trkpt><trkpt lat="46.5565643" lon="12.5554032"><ele>912.0</ele><time>2026-05-01T12:54:18.75Z</time></trkpt><trkpt lat="46.5566402" lon="12.5555408"><ele>912.0</ele><time>2026-05-01T12:54:20.751Z</time></trkpt><trkpt lat="46.5567146" lon="12.555688"><ele>912.0</ele><time>2026-05-01T12:54:22.745Z</time></trkpt><trkpt lat="46.5567582" lon="12.5557553"><ele>912.0</ele><time>2026-05-01T12:54:23.755Z</time></trkpt><trkpt lat="46.5568041" lon="12.5558214"><ele>912.0</ele><time>2026-05-01T12:54:24.745Z</time></trkpt><trkpt lat="46.5568428" lon="12.5558969"><ele>912.0</ele><time>2026-05-01T12:54:25.758Z</time></trkpt><trkpt lat="46.5568836" lon="12.5560029"><ele>912.0</ele><time>2026-05-01T12:54:26.749Z</time></trkpt><trkpt lat="46.5569254" lon="12.5561137"><ele>912.0</ele><time>2026-05-01T12:54:27.751Z</time></trkpt><trkpt lat="46.5569678" lon="12.5562169"><ele>912.0</ele><time>2026-05-01T12:54:28.745Z</time></trkpt><trkpt lat="46.5570038" lon="12.5563246"><ele>912.0</ele><time>2026-05-01T12:54:29.747Z</time></trkpt><trkpt lat="46.5570446" lon="12.5564468"><ele>912.0</ele><time>2026-05-01T12:54:30.751Z</time></trkpt><trkpt lat="46.5570766" lon="12.5565727"><ele>912.0</ele><time>2026-05-01T12:54:31.75Z</time></trkpt><trkpt lat="46.5571092" lon="12.5566777"><ele>912.0</ele><time>2026-05-01T12:54:32.75Z</time></trkpt><trkpt lat="46.5571436" lon="12.5567736"><ele>912.0</ele><time>2026-05-01T12:54:33.745Z</time></trkpt><trkpt lat="46.5571858" lon="12.5568721"><ele>912.0</ele><time>2026-05-01T12:54:34.748Z</time></trkpt><trkpt lat="46.5572305" lon="12.5569791"><ele>912.0</ele><time>2026-05-01T12:54:35.749Z</time></trkpt><trkpt lat="46.5572807" lon="12.5571024"><ele>912.0</ele><time>2026-05-01T12:54:36.752Z</time></trkpt><trkpt lat="46.5573302" lon="12.5572182"><ele>912.0</ele><time>2026-05-01T12:54:37.755Z</time></trkpt><trkpt lat="46.5573863" lon="12.5573308"><ele>912.8333333333334</ele><time>2026-05-01T12:54:38.746Z</time></trkpt><trkpt lat="46.5574457" lon="12.5574359"><ele>913.6666666666667</ele><time>2026-05-01T12:54:39.752Z</time></trkpt><trkpt lat="46.5575082" lon="12.5575202"><ele>914.5</ele><time>2026-05-01T12:54:40.755Z</time></trkpt><trkpt lat="46.5575731" lon="12.5576033"><ele>915.3333333333334</ele><time>2026-05-01T12:54:41.744Z</time></trkpt><trkpt lat="46.5576419" lon="12.5576768"><ele>916.1666666666667</ele><time>2026-05-01T12:54:42.745Z</time></trkpt><trkpt lat="46.5577028" lon="12.557747"><ele>917.0</ele><time>2026-05-01T12:54:43.748Z</time></trkpt><trkpt lat="46.5577516" lon="12.5578238"><ele>917.2</ele><time>2026-05-01T12:54:44.745Z</time></trkpt><trkpt lat="46.5578005" lon="12.5579356"><ele>917.4000000000001</ele><time>2026-05-01T12:54:46.757Z</time></trkpt><trkpt lat="46.5579067" lon="12.5579356"><ele>917.5999999999999</ele><time>2026-05-01T12:54:50.751Z</time></trkpt><trkpt lat="46.5579981" lon="12.5578415"><ele>917.8</ele><time>2026-05-01T12:54:52.747Z</time></trkpt><trkpt lat="46.5580603" lon="12.5577848"><ele>918.0</ele><time>2026-05-01T12:54:53.759Z</time></trkpt><trkpt lat="46.5581305" lon="12.5577243"><ele>918.1666666666666</ele><time>2026-05-01T12:54:54.75Z</time></trkpt><trkpt lat="46.5582094" lon="12.5577003"><ele>918.3333333333333</ele><time>2026-05-01T12:54:55.741Z</time></trkpt><trkpt lat="46.5582925" lon="12.5576714"><ele>918.5</ele><time>2026-05-01T12:54:56.747Z</time></trkpt><trkpt lat="46.5583672" lon="12.5576117"><ele>918.6666666666666</ele><time>2026-05-01T12:54:57.749Z</time></trkpt><trkpt lat="46.5584299" lon="12.5575476"><ele>918.8333333333333</ele><time>2026-05-01T12:54:58.746Z</time></trkpt><trkpt lat="46.5584782" lon="12.5574642"><ele>919.0</ele><time>2026-05-01T12:54:59.752Z</time></trkpt><trkpt lat="46.5585107" lon="12.5573688"><ele>919.0</ele><time>2026-05-01T12:55:00.751Z</time></trkpt><trkpt lat="46.5585749" lon="12.5572788"><ele>919.0000000000001</ele><time>2026-05-01T12:55:02.751Z</time></trkpt><trkpt lat="46.5586455" lon="12.5573681"><ele>919.0000000000001</ele><time>2026-05-01T12:55:05.742Z</time></trkpt><trkpt lat="46.5586733" lon="12.5575852"><ele>919.0</ele><time>2026-05-01T12:55:07.745Z</time></trkpt><trkpt lat="46.558682" lon="12.5577352"><ele>919.0</ele><time>2026-05-01T12:55:08.749Z</time></trkpt><trkpt lat="46.5586914" lon="12.557902"><ele>917.25</ele><time>2026-05-01T12:55:09.742Z</time></trkpt><trkpt lat="46.5587059" lon="12.5580633"><ele>915.5</ele><time>2026-05-01T12:55:10.747Z</time></trkpt><trkpt lat="46.5587101" lon="12.5582386"><ele>913.75</ele><time>2026-05-01T12:55:11.745Z</time></trkpt><trkpt lat="46.5587169" lon="12.5584234"><ele>912.0</ele><time>2026-05-01T12:55:12.75Z</time></trkpt><trkpt lat="46.5587376" lon="12.5586297"><ele>912.5</ele><time>2026-05-01T12:55:13.747Z</time></trkpt><trkpt lat="46.5587529" lon="12.5588414"><ele>913.0</ele><time>2026-05-01T12:55:14.755Z</time></trkpt><trkpt lat="46.5587741" lon="12.5590496"><ele>913.5</ele><time>2026-05-01T12:55:15.745Z</time></trkpt><trkpt lat="46.5588043" lon="12.5592463"><ele>914.0</ele><time>2026-05-01T12:55:16.748Z</time></trkpt><trkpt lat="46.5588522" lon="12.5594355"><ele>914.25</ele><time>2026-05-01T12:55:17.748Z</time></trkpt><trkpt lat="46.5589101" lon="12.5596131"><ele>914.5</ele><time>2026-05-01T12:55:18.75Z</time></trkpt><trkpt lat="46.5589649" lon="12.5597848"><ele>914.75</ele><time>2026-05-01T12:55:19.743Z</time></trkpt><trkpt lat="46.5590187" lon="12.5599558"><ele>915.0</ele><time>2026-05-01T12:55:20.747Z</time></trkpt><trkpt lat="46.5590674" lon="12.5601185"><ele>915.0</ele><time>2026-05-01T12:55:21.748Z</time></trkpt><trkpt lat="46.5591056" lon="12.5602796"><ele>915.0</ele><time>2026-05-01T12:55:22.747Z</time></trkpt><trkpt lat="46.5591463" lon="12.560428"><ele>915.0</ele><time>2026-05-01T12:55:23.747Z</time></trkpt><trkpt lat="46.5591825" lon="12.5605838"><ele>915.0</ele><time>2026-05-01T12:55:24.745Z</time></trkpt><trkpt lat="46.5592125" lon="12.5607535"><ele>914.75</ele><time>2026-05-01T12:55:25.749Z</time></trkpt><trkpt lat="46.5592385" lon="12.5609312"><ele>914.5</ele><time>2026-05-01T12:55:26.751Z</time></trkpt><trkpt lat="46.559264" lon="12.5611125"><ele>914.25</ele><time>2026-05-01T12:55:27.744Z</time></trkpt><trkpt lat="46.5592883" lon="12.5612954"><ele>914.0</ele><time>2026-05-01T12:55:28.746Z</time></trkpt><trkpt lat="46.5593032" lon="12.5614712"><ele>914.8000000000001</ele><time>2026-05-01T12:55:29.751Z</time></trkpt><trkpt lat="46.5593163" lon="12.5616324"><ele>915.6000000000001</ele><time>2026-05-01T12:55:30.745Z</time></trkpt><trkpt lat="46.5593267" lon="12.5617903"><ele>916.4</ele><time>2026-05-01T12:55:31.754Z</time></trkpt><trkpt lat="46.5593286" lon="12.5619572"><ele>917.2</ele><time>2026-05-01T12:55:32.746Z</time></trkpt><trkpt lat="46.5593173" lon="12.5621214"><ele>918.0</ele><time>2026-05-01T12:55:33.748Z</time></trkpt><trkpt lat="46.5592981" lon="12.5623032"><ele>919.5</ele><time>2026-05-01T12:55:34.748Z</time></trkpt><trkpt lat="46.5592842" lon="12.5624904"><ele>921.0</ele><time>2026-05-01T12:55:35.747Z</time></trkpt><trkpt lat="46.5592848" lon="12.5626856"><ele>922.5</ele><time>2026-05-01T12:55:36.751Z</time></trkpt><trkpt lat="46.5593032" lon="12.5628854"><ele>924.0</ele><time>2026-05-01T12:55:37.756Z</time></trkpt><trkpt lat="46.5593274" lon="12.5630903"><ele>925.0</ele><time>2026-05-01T12:55:38.742Z</time></trkpt><trkpt lat="46.5593602" lon="12.5632969"><ele>926.0</ele><time>2026-05-01T12:55:39.747Z</time></trkpt><trkpt lat="46.5594053" lon="12.56351"><ele>927.0</ele><time>2026-05-01T12:55:40.748Z</time></trkpt><trkpt lat="46.559461" lon="12.5637266"><ele>929.0</ele><time>2026-05-01T12:55:41.744Z</time></trkpt><trkpt lat="46.5595235" lon="12.5639472"><ele>931.0</ele><time>2026-05-01T12:55:42.747Z</time></trkpt><trkpt lat="46.5595944" lon="12.5641668"><ele>933.0</ele><time>2026-05-01T12:55:43.744Z</time></trkpt><trkpt lat="46.5596657" lon="12.5643862"><ele>928.6666666666667</ele><time>2026-05-01T12:55:44.754Z</time></trkpt><trkpt lat="46.5597299" lon="12.5646116"><ele>924.3333333333334</ele><time>2026-05-01T12:55:45.748Z</time></trkpt><trkpt lat="46.5597862" lon="12.5648391"><ele>920.0</ele><time>2026-05-01T12:55:46.74Z</time></trkpt><trkpt lat="46.5598421" lon="12.5650609"><ele>920.0</ele><time>2026-05-01T12:55:47.742Z</time></trkpt><trkpt lat="46.5598993" lon="12.5652815"><ele>920.0</ele><time>2026-05-01T12:55:48.751Z</time></trkpt><trkpt lat="46.559948" lon="12.5655032"><ele>920.0</ele><time>2026-05-01T12:55:49.749Z</time></trkpt><trkpt lat="46.5599924" lon="12.5657202"><ele>922.0</ele><time>2026-05-01T12:55:50.751Z</time></trkpt><trkpt lat="46.5600358" lon="12.5659452"><ele>924.0</ele><time>2026-05-01T12:55:51.753Z</time></trkpt><trkpt lat="46.5600675" lon="12.5661583"><ele>926.0</ele><time>2026-05-01T12:55:52.748Z</time></trkpt><trkpt lat="46.5600996" lon="12.5663724"><ele>929.5</ele><time>2026-05-01T12:55:53.764Z</time></trkpt><trkpt lat="46.5601246" lon="12.5665863"><ele>933.0</ele><time>2026-05-01T12:55:54.765Z</time></trkpt><trkpt lat="46.6020432" lon="12.6315548"><ele>1988.0</ele><time>2026-05-01T13:06:41.389Z</time></trkpt><trkpt lat="46.6460042" lon="12.6913382"><ele>1988.0</ele><time>2026-05-01T14:14:30.868Z</time></trkpt></trkseg><trkseg><trkpt lat="46.6461074" lon="12.6914981"><ele>1987.9999999999998</ele><time>2026-05-01T14:25:22.991Z</time></trkpt><trkpt lat="46.6460965" lon="12.6914069"><ele>1988.0</ele><time>2026-05-01T14:25:28.999Z</time></trkpt><trkpt lat="46.6460745" lon="12.6912875"><ele>1988.0</ele><time>2026-05-01T14:25:39.995Z</time></trkpt><trkpt lat="46.646092" lon="12.6914387"><ele>1988.0</ele><time>2026-05-01T14:25:44.998Z</time></trkpt><trkpt lat="46.646128" lon="12.691556"><ele>1987.9999999999998</ele><time>2026-05-01T14:25:47.001Z</time></trkpt><trkpt lat="46.6461769" lon="12.6916474"><ele>1988.0</ele><time>2026-05-01T14:26:07.002Z</time></trkpt><trkpt lat="46.6461951" lon="12.6917375"><ele>1995.3333333333333</ele><time>2026-05-01T14:26:07.994Z</time></trkpt><trkpt lat="46.646214" lon="12.6918458"><ele>2002.6666666666665</ele><time>2026-05-01T14:26:09.001Z</time></trkpt><trkpt lat="46.6462389" lon="12.6919581"><ele>2010.0</ele><time>2026-05-01T14:26:09.997Z</time></trkpt><trkpt lat="46.6462604" lon="12.6920639"><ele>2017.3333333333335</ele><time>2026-05-01T14:26:11.001Z</time></trkpt><trkpt lat="46.6462764" lon="12.6921702"><ele>2024.6666666666667</ele><time>2026-05-01T14:26:12.001Z</time></trkpt><trkpt lat="46.6462971" lon="12.6922725"><ele>2032.0</ele><time>2026-05-01T14:26:13.004Z</time></trkpt><trkpt lat="46.6463306" lon="12.6924332"><ele>2032.0</ele><time>2026-05-01T14:26:14.997Z</time></trkpt><trkpt lat="46.6463207" lon="12.6925842"><ele>2031.9999999999998</ele><time>2026-05-01T14:26:17.001Z</time></trkpt><trkpt lat="46.6463279" lon="12.6927254"><ele>2031.9999999999998</ele><time>2026-05-01T14:26:19.004Z</time></trkpt><trkpt lat="46.6462995" lon="12.6928298"><ele>2032.0</ele><time>2026-05-01T14:26:21.008Z</time></trkpt><trkpt lat="46.6462114" lon="12.6929076"><ele>2032.0</ele><time>2026-05-01T14:26:23.002Z</time></trkpt><trkpt lat="46.6461048" lon="12.6929948"><ele>2028.3999999999999</ele><time>2026-05-01T14:26:24.995Z</time></trkpt><trkpt lat="46.6460417" lon="12.6930905"><ele>2024.7999999999997</ele><time>2026-05-01T14:26:26.996Z</time></trkpt><trkpt lat="46.6460176" lon="12.6931976"><ele>2021.2</ele><time>2026-05-01T14:26:29.008Z</time></trkpt><trkpt lat="46.645966" lon="12.6932672"><ele>2017.6</ele><time>2026-05-01T14:26:30.998Z</time></trkpt><trkpt lat="46.6458619" lon="12.6932763"><ele>2014.0</ele><time>2026-05-01T14:26:32.994Z</time></trkpt><trkpt lat="46.6457434" lon="12.6933067"><ele>2014.0000000000002</ele><time>2026-05-01T14:26:35.007Z</time></trkpt><trkpt lat="46.6456808" lon="12.6933338"><ele>2014.0</ele><time>2026-05-01T14:26:36Z</time></trkpt><trkpt lat="46.6456172" lon="12.693379"><ele>2014.0</ele><time>2026-05-01T14:26:36.997Z</time></trkpt><trkpt lat="46.6455488" lon="12.6934215"><ele>2014.0</ele><time>2026-05-01T14:26:37.999Z</time></trkpt><trkpt lat="46.6454342" lon="12.6934718"><ele>2014.0000000000002</ele><time>2026-05-01T14:26:39.999Z</time></trkpt><trkpt lat="46.6453675" lon="12.6934718"><ele>2014.0</ele><time>2026-05-01T14:26:41.001Z</time></trkpt><trkpt lat="46.6453033" lon="12.6934553"><ele>2008.25</ele><time>2026-05-01T14:26:41.996Z</time></trkpt><trkpt lat="46.6451882" lon="12.6934194"><ele>2002.5</ele><time>2026-05-01T14:26:43.998Z</time></trkpt><trkpt lat="46.6450697" lon="12.6934129"><ele>1996.75</ele><time>2026-05-01T14:26:46.003Z</time></trkpt><trkpt lat="46.6449636" lon="12.6934682"><ele>1991.0</ele><time>2026-05-01T14:26:47.994Z</time></trkpt><trkpt lat="46.644884" lon="12.6935782"><ele>1992.25</ele><time>2026-05-01T14:26:49.996Z</time></trkpt><trkpt lat="46.6448354" lon="12.6937472"><ele>1993.5</ele><time>2026-05-01T14:26:51.995Z</time></trkpt><trkpt lat="46.64479" lon="12.6939164"><ele>1994.75</ele><time>2026-05-01T14:26:54.001Z</time></trkpt><trkpt lat="46.6447558" lon="12.6940778"><ele>1996.0</ele><time>2026-05-01T14:26:55.994Z</time></trkpt><trkpt lat="46.6447416" lon="12.6942363"><ele>1996.0</ele><time>2026-05-01T14:26:58Z</time></trkpt><trkpt lat="46.6447439" lon="12.6943955"><ele>1996.0</ele><time>2026-05-01T14:27:00.012Z</time></trkpt><trkpt lat="46.6447688" lon="12.6945403"><ele>1996.0</ele><time>2026-05-01T14:27:02Z</time></trkpt><trkpt lat="46.6448009" lon="12.6946656"><ele>1996.0</ele><time>2026-05-01T14:27:03.995Z</time></trkpt><trkpt lat="46.644831" lon="12.6948185"><ele>1996.0</ele><time>2026-05-01T14:27:05.995Z</time></trkpt><trkpt lat="46.6448675" lon="12.6949607"><ele>1995.4</ele><time>2026-05-01T14:27:07.995Z</time></trkpt><trkpt lat="46.6449069" lon="12.6951093"><ele>1994.8</ele><time>2026-05-01T14:27:09.998Z</time></trkpt><trkpt lat="46.6449197" lon="12.6952581"><ele>1994.2000000000003</ele><time>2026-05-01T14:27:12.005Z</time></trkpt><trkpt lat="46.6448965" lon="12.6953626"><ele>1993.6000000000001</ele><time>2026-05-01T14:27:13.995Z</time></trkpt><trkpt lat="46.644835" lon="12.6954678"><ele>1993.0</ele><time>2026-05-01T14:27:15.994Z</time></trkpt><trkpt lat="46.64477" lon="12.6955852"><ele>1993.0</ele><time>2026-05-01T14:27:18.003Z</time></trkpt><trkpt lat="46.644695" lon="12.695684"><ele>1993.0000000000002</ele><time>2026-05-01T14:27:19.992Z</time></trkpt><trkpt lat="46.64462" lon="12.6957946"><ele>1993.0000000000002</ele><time>2026-05-01T14:27:21.995Z</time></trkpt><trkpt lat="46.6445387" lon="12.6958966"><ele>1993.0</ele><time>2026-05-01T14:27:24.002Z</time></trkpt><trkpt lat="46.6444693" lon="12.6959934"><ele>1993.0</ele><time>2026-05-01T14:27:26.002Z</time></trkpt><trkpt lat="46.6444009" lon="12.6961003"><ele>1986.8333333333335</ele><time>2026-05-01T14:27:27.998Z</time></trkpt><trkpt lat="46.6443461" lon="12.6962082"><ele>1980.6666666666667</ele><time>2026-05-01T14:27:29.997Z</time></trkpt><trkpt lat="46.6442936" lon="12.696308"><ele>1974.5</ele><time>2026-05-01T14:27:31.998Z</time></trkpt><trkpt lat="46.6442358" lon="12.6963872"><ele>1968.3333333333335</ele><time>2026-05-01T14:27:33.998Z</time></trkpt><trkpt lat="46.6441935" lon="12.6962972"><ele>1962.1666666666667</ele><time>2026-05-01T14:27:37.995Z</time></trkpt><trkpt lat="46.6442266" lon="12.6962049"><ele>1956.0</ele><time>2026-05-01T14:27:39.997Z</time></trkpt><trkpt lat="46.6442475" lon="12.6960658"><ele>1953.4</ele><time>2026-05-01T14:27:41.995Z</time></trkpt><trkpt lat="46.6442643" lon="12.6959092"><ele>1950.8</ele><time>2026-05-01T14:27:43.999Z</time></trkpt><trkpt lat="46.6442908" lon="12.6957503"><ele>1948.2000000000003</ele><time>2026-05-01T14:27:45.999Z</time></trkpt><trkpt lat="46.6442999" lon="12.6956069"><ele>1945.6000000000001</ele><time>2026-05-01T14:27:47.996Z</time></trkpt><trkpt lat="46.6443165" lon="12.6954812"><ele>1943.0</ele><time>2026-05-01T14:27:49.995Z</time></trkpt><trkpt lat="46.6443459" lon="12.6953701"><ele>1943.0</ele><time>2026-05-01T14:27:51.993Z</time></trkpt><trkpt lat="46.6442687" lon="12.6953719"><ele>1943.0000000000002</ele><time>2026-05-01T14:27:56.997Z</time></trkpt><trkpt lat="46.6441865" lon="12.6954974"><ele>1943.0000000000002</ele><time>2026-05-01T14:27:58.999Z</time></trkpt><trkpt lat="46.6441214" lon="12.6956133"><ele>1943.0</ele><time>2026-05-01T14:28:01Z</time></trkpt><trkpt lat="46.6440601" lon="12.6957299"><ele>1943.0</ele><time>2026-05-01T14:28:02.995Z</time></trkpt><trkpt lat="46.6440006" lon="12.6958573"><ele>1943.0</ele><time>2026-05-01T14:28:04.994Z</time></trkpt><trkpt lat="46.6439121" lon="12.6959901"><ele>1943.0000000000002</ele><time>2026-05-01T14:28:06.994Z</time></trkpt><trkpt lat="46.6438571" lon="12.6960391"><ele>1943.0000000000002</ele><time>2026-05-01T14:28:07.993Z</time></trkpt><trkpt lat="46.6437574" lon="12.6961499"><ele>1943.0</ele><time>2026-05-01T14:28:10.007Z</time></trkpt><trkpt lat="46.6437044" lon="12.6962124"><ele>1943.0</ele><time>2026-05-01T14:28:10.998Z</time></trkpt><trkpt lat="46.6436107" lon="12.6962722"><ele>1937.8333333333333</ele><time>2026-05-01T14:28:13.001Z</time></trkpt><trkpt lat="46.6435146" lon="12.6962805"><ele>1932.6666666666665</ele><time>2026-05-01T14:28:14.998Z</time></trkpt><trkpt lat="46.6434332" lon="12.6962661"><ele>1927.5</ele><time>2026-05-01T14:28:17.002Z</time></trkpt><trkpt lat="46.6433463" lon="12.6962629"><ele>1922.3333333333335</ele><time>2026-05-01T14:28:18.996Z</time></trkpt><trkpt lat="46.6432802" lon="12.696288"><ele>1917.1666666666667</ele><time>2026-05-01T14:28:20.995Z</time></trkpt><trkpt lat="46.6432363" lon="12.6963864"><ele>1912.0</ele><time>2026-05-01T14:28:23.002Z</time></trkpt><trkpt lat="46.6432169" lon="12.696512"><ele>1912.0</ele><time>2026-05-01T14:28:24.998Z</time></trkpt><trkpt lat="46.6432032" lon="12.6966531"><ele>1911.9999999999998</ele><time>2026-05-01T14:28:26.998Z</time></trkpt><trkpt lat="46.6432098" lon="12.6967918"><ele>1911.9999999999998</ele><time>2026-05-01T14:28:28.992Z</time></trkpt><trkpt lat="46.6432187" lon="12.6969415"><ele>1912.0</ele><time>2026-05-01T14:28:30.998Z</time></trkpt><trkpt lat="46.6432253" lon="12.697075"><ele>1912.0</ele><time>2026-05-01T14:28:32.993Z</time></trkpt><trkpt lat="46.6432073" lon="12.6972238"><ele>1912.0</ele><time>2026-05-01T14:28:34.998Z</time></trkpt><trkpt lat="46.643172" lon="12.6973736"><ele>1911.9999999999998</ele><time>2026-05-01T14:28:37Z</time></trkpt><trkpt lat="46.6431432" lon="12.6975239"><ele>1911.9999999999998</ele><time>2026-05-01T14:28:38.998Z</time></trkpt><trkpt lat="46.6431061" lon="12.6976675"><ele>1912.0</ele><time>2026-05-01T14:28:41.002Z</time></trkpt><trkpt lat="46.6430476" lon="12.6978022"><ele>1912.0</ele><time>2026-05-01T14:28:42.994Z</time></trkpt><trkpt lat="46.6429931" lon="12.6979501"><ele>1912.0</ele><time>2026-05-01T14:28:44.994Z</time></trkpt><trkpt lat="46.6429791" lon="12.698096"><ele>1911.9999999999998</ele><time>2026-05-01T14:28:46.995Z</time></trkpt><trkpt lat="46.6429846" lon="12.6981894"><ele>1911.9999999999998</ele><time>2026-05-01T14:28:47.996Z</time></trkpt><trkpt lat="46.643006" lon="12.6983583"><ele>1912.0</ele><time>2026-05-01T14:28:50Z</time></trkpt><trkpt lat="46.6430048" lon="12.6985166"><ele>1912.0</ele><time>2026-05-01T14:28:51.994Z</time></trkpt><trkpt lat="46.6429784" lon="12.6986725"><ele>1911.0000000000002</ele><time>2026-05-01T14:28:54.005Z</time></trkpt><trkpt lat="46.6429458" lon="12.6988008"><ele>1910.0</ele><time>2026-05-01T14:28:56.006Z</time></trkpt><trkpt lat="46.6429169" lon="12.6989225"><ele>1909.0</ele><time>2026-05-01T14:28:57.999Z</time></trkpt><trkpt lat="46.6428855" lon="12.6990127"><ele>1908.0</ele><time>2026-05-01T14:29:00.001Z</time></trkpt><trkpt lat="46.6428612" lon="12.6991083"><ele>1907.0000000000002</ele><time>2026-05-01T14:29:02.999Z</time></trkpt><trkpt lat="46.6428314" lon="12.6991897"><ele>1906.0</ele><time>2026-05-01T14:29:05.005Z</time></trkpt><trkpt lat="46.6427813" lon="12.699272"><ele>1899.8333333333335</ele><time>2026-05-01T14:29:06.997Z</time></trkpt><trkpt lat="46.642736" lon="12.6993559"><ele>1893.6666666666667</ele><time>2026-05-01T14:29:08.994Z</time></trkpt><trkpt lat="46.6426884" lon="12.6994669"><ele>1887.5</ele><time>2026-05-01T14:29:10.996Z</time></trkpt><trkpt lat="46.6426778" lon="12.6996222"><ele>1881.3333333333335</ele><time>2026-05-01T14:29:13.006Z</time></trkpt><trkpt lat="46.6426845" lon="12.699717"><ele>1875.1666666666667</ele><time>2026-05-01T14:29:13.998Z</time></trkpt><trkpt lat="46.6426848" lon="12.6998121"><ele>1869.0</ele><time>2026-05-01T14:29:15.005Z</time></trkpt><trkpt lat="46.6426656" lon="12.6999145"><ele>1869.0</ele><time>2026-05-01T14:29:16.003Z</time></trkpt><trkpt lat="46.6426363" lon="12.7000271"><ele>1869.0</ele><time>2026-05-01T14:29:17.003Z</time></trkpt><trkpt lat="46.6426043" lon="12.7001299"><ele>1869.0</ele><time>2026-05-01T14:29:17.996Z</time></trkpt><trkpt lat="46.6425799" lon="12.7002226"><ele>1869.0</ele><time>2026-05-01T14:29:18.997Z</time></trkpt><trkpt lat="46.6425412" lon="12.7003863"><ele>1869.0</ele><time>2026-05-01T14:29:21.006Z</time></trkpt><trkpt lat="46.6425145" lon="12.7005718"><ele>1869.3333333333333</ele><time>2026-05-01T14:29:22.999Z</time></trkpt><trkpt lat="46.6425061" lon="12.7006819"><ele>1869.6666666666665</ele><time>2026-05-01T14:29:23.996Z</time></trkpt><trkpt lat="46.6424991" lon="12.7007956"><ele>1870.0</ele><time>2026-05-01T14:29:24.995Z</time></trkpt><trkpt lat="46.6424804" lon="12.7009122"><ele>1870.3333333333333</ele><time>2026-05-01T14:29:25.996Z</time></trkpt><trkpt lat="46.64245" lon="12.701024"><ele>1870.6666666666665</ele><time>2026-05-01T14:29:26.999Z</time></trkpt><trkpt lat="46.6424146" lon="12.7011358"><ele>1871.0</ele><time>2026-05-01T14:29:28.006Z</time></trkpt><trkpt lat="46.6423853" lon="12.7012327"><ele>1871.8333333333333</ele><time>2026-05-01T14:29:28.996Z</time></trkpt><trkpt lat="46.6423681" lon="12.7013327"><ele>1872.6666666666665</ele><time>2026-05-01T14:29:29.996Z</time></trkpt><trkpt lat="46.6423443" lon="12.7014288"><ele>1873.5</ele><time>2026-05-01T14:29:30.994Z</time></trkpt><trkpt lat="46.6423246" lon="12.7015163"><ele>1874.3333333333335</ele><time>2026-05-01T14:29:31.991Z</time></trkpt><trkpt lat="46.6422827" lon="12.7016935"><ele>1875.1666666666667</ele><time>2026-05-01T14:29:33.999Z</time></trkpt><trkpt lat="46.6422666" lon="12.7017884"><ele>1876.0</ele><time>2026-05-01T14:29:35.001Z</time></trkpt><trkpt lat="46.6422533" lon="12.7018906"><ele>1876.5000000000002</ele><time>2026-05-01T14:29:36.001Z</time></trkpt><trkpt lat="46.6422448" lon="12.7019979"><ele>1877.0</ele><time>2026-05-01T14:29:37Z</time></trkpt><trkpt lat="46.6422372" lon="12.7021026"><ele>1877.5</ele><time>2026-05-01T14:29:37.995Z</time></trkpt><trkpt lat="46.6422292" lon="12.7021993"><ele>1878.0</ele><time>2026-05-01T14:29:38.999Z</time></trkpt><trkpt lat="46.6422213" lon="12.7023038"><ele>1878.5000000000002</ele><time>2026-05-01T14:29:40Z</time></trkpt><trkpt lat="46.6422064" lon="12.7023982"><ele>1879.0</ele><time>2026-05-01T14:29:41.002Z</time></trkpt><trkpt lat="46.6421718" lon="12.7025515"><ele>1879.0</ele><time>2026-05-01T14:29:42.997Z</time></trkpt><trkpt lat="46.6421492" lon="12.7027132"><ele>1879.0</ele><time>2026-05-01T14:29:44.995Z</time></trkpt><trkpt lat="46.6421411" lon="12.7028755"><ele>1879.0</ele><time>2026-05-01T14:29:46.995Z</time></trkpt><trkpt lat="46.6421306" lon="12.7030379"><ele>1879.0</ele><time>2026-05-01T14:29:48.997Z</time></trkpt><trkpt lat="46.6421267" lon="12.7031295"><ele>1879.0</ele><time>2026-05-01T14:29:50.003Z</time></trkpt><trkpt lat="46.6421225" lon="12.7033158"><ele>1877.8000000000002</ele><time>2026-05-01T14:29:51.996Z</time></trkpt><trkpt lat="46.6420785" lon="12.7034801"><ele>1876.6000000000001</ele><time>2026-05-01T14:29:54.003Z</time></trkpt><trkpt lat="46.6420372" lon="12.7036426"><ele>1875.4</ele><time>2026-05-01T14:29:55.997Z</time></trkpt><trkpt lat="46.6420117" lon="12.7038253"><ele>1874.2</ele><time>2026-05-01T14:29:58Z</time></trkpt><trkpt lat="46.642014" lon="12.703922"><ele>1873.0</ele><time>2026-05-01T14:29:59.005Z</time></trkpt><trkpt lat="46.6420152" lon="12.7040263"><ele>1871.8333333333335</ele><time>2026-05-01T14:30:00.009Z</time></trkpt><trkpt lat="46.6420073" lon="12.7041316"><ele>1870.6666666666667</ele><time>2026-05-01T14:30:00.997Z</time></trkpt><trkpt lat="46.6420023" lon="12.7042326"><ele>1869.5</ele><time>2026-05-01T14:30:02.005Z</time></trkpt><trkpt lat="46.641997" lon="12.7043288"><ele>1868.3333333333335</ele><time>2026-05-01T14:30:02.998Z</time></trkpt><trkpt lat="46.6420138" lon="12.7045032"><ele>1867.1666666666667</ele><time>2026-05-01T14:30:05.002Z</time></trkpt><trkpt lat="46.6420299" lon="12.7045925"><ele>1866.0</ele><time>2026-05-01T14:30:06.001Z</time></trkpt><trkpt lat="46.642055" lon="12.7046808"><ele>1865.3333333333333</ele><time>2026-05-01T14:30:07.009Z</time></trkpt><trkpt lat="46.6420614" lon="12.7048221"><ele>1864.6666666666665</ele><time>2026-05-01T14:30:09.002Z</time></trkpt><trkpt lat="46.6419918" lon="12.7049228"><ele>1864.0</ele><time>2026-05-01T14:30:11.996Z</time></trkpt><trkpt lat="46.6419109" lon="12.7049075"><ele>1863.3333333333333</ele><time>2026-05-01T14:30:13.995Z</time></trkpt><trkpt lat="46.6418456" lon="12.7048669"><ele>1862.6666666666665</ele><time>2026-05-01T14:30:26.014Z</time></trkpt><trkpt lat="46.6417876" lon="12.7048285"><ele>1862.0</ele><time>2026-05-01T14:30:27.996Z</time></trkpt><trkpt lat="46.6416924" lon="12.7047712"><ele>1858.3999999999999</ele><time>2026-05-01T14:30:29.997Z</time></trkpt><trkpt lat="46.6415661" lon="12.7047303"><ele>1854.7999999999997</ele><time>2026-05-01T14:30:31.994Z</time></trkpt><trkpt lat="46.6414731" lon="12.7046822"><ele>1851.2</ele><time>2026-05-01T14:30:33.991Z</time></trkpt><trkpt lat="46.6414165" lon="12.7045804"><ele>1847.6</ele><time>2026-05-01T14:30:35.994Z</time></trkpt><trkpt lat="46.6413897" lon="12.7044866"><ele>1844.0</ele><time>2026-05-01T14:30:36.999Z</time></trkpt><trkpt lat="46.641364" lon="12.7043994"><ele>1843.6666666666665</ele><time>2026-05-01T14:30:37.995Z</time></trkpt><trkpt lat="46.6413305" lon="12.7043206"><ele>1843.3333333333333</ele><time>2026-05-01T14:30:38.995Z</time></trkpt><trkpt lat="46.6412835" lon="12.7042515"><ele>1843.0</ele><time>2026-05-01T14:30:39.995Z</time></trkpt><trkpt lat="46.6412294" lon="12.7041883"><ele>1842.6666666666665</ele><time>2026-05-01T14:30:41.001Z</time></trkpt><trkpt lat="46.6411782" lon="12.7041256"><ele>1842.3333333333333</ele><time>2026-05-01T14:30:41.993Z</time></trkpt><trkpt lat="46.6411317" lon="12.7040583"><ele>1842.0</ele><time>2026-05-01T14:30:42.993Z</time></trkpt><trkpt lat="46.6410515" lon="12.7039227"><ele>1842.0</ele><time>2026-05-01T14:30:44.997Z</time></trkpt><trkpt lat="46.6409722" lon="12.7037971"><ele>1842.0</ele><time>2026-05-01T14:30:46.998Z</time></trkpt><trkpt lat="46.6409353" lon="12.7037216"><ele>1842.0</ele><time>2026-05-01T14:30:47.993Z</time></trkpt><trkpt lat="46.6408977" lon="12.7036408"><ele>1842.0</ele><time>2026-05-01T14:30:49.003Z</time></trkpt><trkpt lat="46.6408585" lon="12.7035523"><ele>1842.0</ele><time>2026-05-01T14:30:50.002Z</time></trkpt><trkpt lat="46.6408228" lon="12.7034661"><ele>1842.0</ele><time>2026-05-01T14:30:51.003Z</time></trkpt><trkpt lat="46.6407501" lon="12.7033229"><ele>1838.1999999999998</ele><time>2026-05-01T14:30:52.997Z</time></trkpt><trkpt lat="46.6406936" lon="12.7031576"><ele>1834.3999999999999</ele><time>2026-05-01T14:30:55.002Z</time></trkpt><trkpt lat="46.6406814" lon="12.7030618"><ele>1830.6000000000001</ele><time>2026-05-01T14:30:56.003Z</time></trkpt><trkpt lat="46.6406687" lon="12.7029646"><ele>1826.8000000000002</ele><time>2026-05-01T14:30:56.994Z</time></trkpt><trkpt lat="46.6406696" lon="12.7028656"><ele>1823.0</ele><time>2026-05-01T14:30:58.008Z</time></trkpt><trkpt lat="46.6406922" lon="12.7026904"><ele>1820.4999999999998</ele><time>2026-05-01T14:30:59.998Z</time></trkpt><trkpt lat="46.6406782" lon="12.7025239"><ele>1818.0</ele><time>2026-05-01T14:31:01.993Z</time></trkpt><trkpt lat="46.6406544" lon="12.7024356"><ele>1815.5</ele><time>2026-05-01T14:31:02.998Z</time></trkpt><trkpt lat="46.6406268" lon="12.7023468"><ele>1813.0</ele><time>2026-05-01T14:31:03.999Z</time></trkpt><trkpt lat="46.6405924" lon="12.702265"><ele>1810.4999999999998</ele><time>2026-05-01T14:31:05.005Z</time></trkpt><trkpt lat="46.6405583" lon="12.7021846"><ele>1808.0</ele><time>2026-05-01T14:31:06.002Z</time></trkpt><trkpt lat="46.6404952" lon="12.7020413"><ele>1807.3333333333333</ele><time>2026-05-01T14:31:07.999Z</time></trkpt><trkpt lat="46.6404262" lon="12.7018978"><ele>1806.6666666666665</ele><time>2026-05-01T14:31:10.006Z</time></trkpt><trkpt lat="46.6403795" lon="12.7017473"><ele>1806.0</ele><time>2026-05-01T14:31:11.997Z</time></trkpt><trkpt lat="46.6403752" lon="12.7016548"><ele>1805.3333333333335</ele><time>2026-05-01T14:31:12.998Z</time></trkpt><trkpt lat="46.6403711" lon="12.7015612"><ele>1804.6666666666667</ele><time>2026-05-01T14:31:13.999Z</time></trkpt><trkpt lat="46.6403609" lon="12.7014615"><ele>1804.0</ele><time>2026-05-01T14:31:14.997Z</time></trkpt><trkpt lat="46.6403575" lon="12.7013544"><ele>1804.0</ele><time>2026-05-01T14:31:15.998Z</time></trkpt><trkpt lat="46.6403637" lon="12.701256"><ele>1804.0</ele><time>2026-05-01T14:31:16.997Z</time></trkpt><trkpt lat="46.640369" lon="12.7011525"><ele>1804.0</ele><time>2026-05-01T14:31:18.001Z</time></trkpt><trkpt lat="46.6403731" lon="12.7010508"><ele>1804.0</ele><time>2026-05-01T14:31:19.004Z</time></trkpt><trkpt lat="46.6403741" lon="12.7009535"><ele>1804.0</ele><time>2026-05-01T14:31:19.996Z</time></trkpt><trkpt lat="46.6403636" lon="12.7008617"><ele>1804.0</ele><time>2026-05-01T14:31:21.02Z</time></trkpt><trkpt lat="46.6403436" lon="12.7007603"><ele>1804.0</ele><time>2026-05-01T14:31:21.996Z</time></trkpt><trkpt lat="46.6403176" lon="12.7006639"><ele>1803.8333333333335</ele><time>2026-05-01T14:31:23.004Z</time></trkpt><trkpt lat="46.6402932" lon="12.7005705"><ele>1803.6666666666667</ele><time>2026-05-01T14:31:23.997Z</time></trkpt><trkpt lat="46.6402673" lon="12.700462"><ele>1803.5</ele><time>2026-05-01T14:31:24.998Z</time></trkpt><trkpt lat="46.6402432" lon="12.7003589"><ele>1803.3333333333335</ele><time>2026-05-01T14:31:25.998Z</time></trkpt><trkpt lat="46.640218" lon="12.7002608"><ele>1803.1666666666667</ele><time>2026-05-01T14:31:27.003Z</time></trkpt><trkpt lat="46.6401643" lon="12.7000974"><ele>1803.0</ele><time>2026-05-01T14:31:29.001Z</time></trkpt><trkpt lat="46.6401228" lon="12.7000277"><ele>1801.2</ele><time>2026-05-01T14:31:29.999Z</time></trkpt><trkpt lat="46.6400299" lon="12.6999081"><ele>1799.4</ele><time>2026-05-01T14:31:31.998Z</time></trkpt><trkpt lat="46.6399933" lon="12.6997256"><ele>1797.6000000000001</ele><time>2026-05-01T14:31:33.994Z</time></trkpt><trkpt lat="46.6399989" lon="12.6996127"><ele>1795.8000000000002</ele><time>2026-05-01T14:31:34.995Z</time></trkpt><trkpt lat="46.6400047" lon="12.6994808"><ele>1794.0</ele><time>2026-05-01T14:31:36Z</time></trkpt><trkpt lat="46.640007" lon="12.6993669"><ele>1792.1666666666667</ele><time>2026-05-01T14:31:36.998Z</time></trkpt><trkpt lat="46.6400128" lon="12.6992608"><ele>1790.3333333333335</ele><time>2026-05-01T14:31:38Z</time></trkpt><trkpt lat="46.6400126" lon="12.6991561"><ele>1788.5</ele><time>2026-05-01T14:31:39.008Z</time></trkpt><trkpt lat="46.6400113" lon="12.6990625"><ele>1786.6666666666667</ele><time>2026-05-01T14:31:39.996Z</time></trkpt><trkpt lat="46.6399839" lon="12.698955"><ele>1784.8333333333335</ele><time>2026-05-01T14:31:40.995Z</time></trkpt><trkpt lat="46.6399307" lon="12.6988589"><ele>1783.0</ele><time>2026-05-01T14:31:41.992Z</time></trkpt><trkpt lat="46.6398914" lon="12.6987545"><ele>1783.0</ele><time>2026-05-01T14:31:42.989Z</time></trkpt><trkpt lat="46.6398615" lon="12.6986245"><ele>1783.0000000000002</ele><time>2026-05-01T14:31:44.001Z</time></trkpt><trkpt lat="46.6398319" lon="12.6985002"><ele>1783.0000000000002</ele><time>2026-05-01T14:31:44.997Z</time></trkpt><trkpt lat="46.6398039" lon="12.6983763"><ele>1783.0</ele><time>2026-05-01T14:31:45.995Z</time></trkpt><trkpt lat="46.6397681" lon="12.6982515"><ele>1783.0</ele><time>2026-05-01T14:31:46.993Z</time></trkpt><trkpt lat="46.6397238" lon="12.6981365"><ele>1781.1666666666667</ele><time>2026-05-01T14:31:47.993Z</time></trkpt><trkpt lat="46.6396789" lon="12.6980279"><ele>1779.3333333333335</ele><time>2026-05-01T14:31:49.01Z</time></trkpt><trkpt lat="46.6396412" lon="12.6979216"><ele>1777.5</ele><time>2026-05-01T14:31:49.998Z</time></trkpt><trkpt lat="46.6396084" lon="12.6978273"><ele>1775.6666666666665</ele><time>2026-05-01T14:31:51Z</time></trkpt><trkpt lat="46.6395839" lon="12.697731"><ele>1773.8333333333333</ele><time>2026-05-01T14:31:51.998Z</time></trkpt><trkpt lat="46.6395674" lon="12.6976196"><ele>1772.0</ele><time>2026-05-01T14:31:52.997Z</time></trkpt><trkpt lat="46.6395523" lon="12.6975096"><ele>1769.3999999999999</ele><time>2026-05-01T14:31:54.005Z</time></trkpt><trkpt lat="46.6394881" lon="12.6973752"><ele>1766.7999999999997</ele><time>2026-05-01T14:31:56.011Z</time></trkpt><trkpt lat="46.6394198" lon="12.6972529"><ele>1764.2</ele><time>2026-05-01T14:31:58.001Z</time></trkpt><trkpt lat="46.6394083" lon="12.697077"><ele>1761.6</ele><time>2026-05-01T14:31:59.999Z</time></trkpt><trkpt lat="46.6394091" lon="12.6969679"><ele>1759.0</ele><time>2026-05-01T14:32:00.994Z</time></trkpt><trkpt lat="46.6394083" lon="12.6968556"><ele>1768.4285714285716</ele><time>2026-05-01T14:32:02.001Z</time></trkpt><trkpt lat="46.6393923" lon="12.6967542"><ele>1777.8571428571427</ele><time>2026-05-01T14:32:02.998Z</time></trkpt><trkpt lat="46.6393764" lon="12.6966624"><ele>1787.2857142857142</ele><time>2026-05-01T14:32:03.998Z</time></trkpt><trkpt lat="46.6393829" lon="12.6965645"><ele>1796.7142857142858</ele><time>2026-05-01T14:32:04.999Z</time></trkpt><trkpt lat="46.6394027" lon="12.6964556"><ele>1806.1428571428573</ele><time>2026-05-01T14:32:06.001Z</time></trkpt><trkpt lat="46.6394246" lon="12.6963522"><ele>1815.5714285714284</ele><time>2026-05-01T14:32:06.995Z</time></trkpt><trkpt lat="46.6394508" lon="12.6962406"><ele>1825.0</ele><time>2026-05-01T14:32:07.999Z</time></trkpt><trkpt lat="46.6394627" lon="12.6961422"><ele>1824.3333333333335</ele><time>2026-05-01T14:32:09.013Z</time></trkpt><trkpt lat="46.6394607" lon="12.6959583"><ele>1823.6666666666667</ele><time>2026-05-01T14:32:11.001Z</time></trkpt><trkpt lat="46.6394638" lon="12.6958379"><ele>1823.0</ele><time>2026-05-01T14:32:11.997Z</time></trkpt><trkpt lat="46.6394567" lon="12.6957305"><ele>1822.3333333333335</ele><time>2026-05-01T14:32:12.995Z</time></trkpt><trkpt lat="46.6394439" lon="12.6956229"><ele>1821.6666666666667</ele><time>2026-05-01T14:32:14.002Z</time></trkpt><trkpt lat="46.6394283" lon="12.6955064"><ele>1821.0</ele><time>2026-05-01T14:32:14.997Z</time></trkpt><trkpt lat="46.6394128" lon="12.6953864"><ele>1821.0</ele><time>2026-05-01T14:32:16.006Z</time></trkpt><trkpt lat="46.6393971" lon="12.6952594"><ele>1821.0</ele><time>2026-05-01T14:32:16.995Z</time></trkpt><trkpt lat="46.6393614" lon="12.6951213"><ele>1821.0</ele><time>2026-05-01T14:32:17.997Z</time></trkpt><trkpt lat="46.6393095" lon="12.6949761"><ele>1821.0</ele><time>2026-05-01T14:32:18.998Z</time></trkpt><trkpt lat="46.6392576" lon="12.6948373"><ele>1821.0</ele><time>2026-05-01T14:32:20.002Z</time></trkpt><trkpt lat="46.6392042" lon="12.6946945"><ele>1818.1999999999998</ele><time>2026-05-01T14:32:20.995Z</time></trkpt><trkpt lat="46.639155" lon="12.6945536"><ele>1815.3999999999999</ele><time>2026-05-01T14:32:22.006Z</time></trkpt><trkpt lat="46.6391097" lon="12.6944166"><ele>1812.6</ele><time>2026-05-01T14:32:22.994Z</time></trkpt><trkpt lat="46.6390711" lon="12.694288"><ele>1809.8</ele><time>2026-05-01T14:32:23.996Z</time></trkpt><trkpt lat="46.6390362" lon="12.6941684"><ele>1807.0</ele><time>2026-05-01T14:32:25.001Z</time></trkpt><trkpt lat="46.6390093" lon="12.6940702"><ele>1805.5000000000002</ele><time>2026-05-01T14:32:25.998Z</time></trkpt><trkpt lat="46.6390041" lon="12.6939596"><ele>1804.0</ele><time>2026-05-01T14:32:27.01Z</time></trkpt><trkpt lat="46.6390051" lon="12.6938223"><ele>1802.5</ele><time>2026-05-01T14:32:27.997Z</time></trkpt><trkpt lat="46.6390074" lon="12.6936869"><ele>1801.0</ele><time>2026-05-01T14:32:28.999Z</time></trkpt><trkpt lat="46.6390127" lon="12.6935551"><ele>1799.5000000000002</ele><time>2026-05-01T14:32:29.997Z</time></trkpt><trkpt lat="46.6390059" lon="12.6934252"><ele>1798.0</ele><time>2026-05-01T14:32:30.999Z</time></trkpt><trkpt lat="46.6389998" lon="12.6932872"><ele>1797.4</ele><time>2026-05-01T14:32:32.006Z</time></trkpt><trkpt lat="46.6389949" lon="12.6931408"><ele>1796.8000000000002</ele><time>2026-05-01T14:32:33Z</time></trkpt><trkpt lat="46.638989" lon="12.6929955"><ele>1796.2</ele><time>2026-05-01T14:32:33.996Z</time></trkpt><trkpt lat="46.6389857" lon="12.6928594"><ele>1795.6</ele><time>2026-05-01T14:32:34.995Z</time></trkpt><trkpt lat="46.6389849" lon="12.6927228"><ele>1795.0</ele><time>2026-05-01T14:32:35.998Z</time></trkpt><trkpt lat="46.6389856" lon="12.6925835"><ele>1794.8</ele><time>2026-05-01T14:32:36.998Z</time></trkpt><trkpt lat="46.6389802" lon="12.6924421"><ele>1794.6</ele><time>2026-05-01T14:32:37.999Z</time></trkpt><trkpt lat="46.638964" lon="12.6922962"><ele>1794.4</ele><time>2026-05-01T14:32:39.005Z</time></trkpt><trkpt lat="46.6389464" lon="12.6921514"><ele>1794.2</ele><time>2026-05-01T14:32:39.995Z</time></trkpt><trkpt lat="46.638926" lon="12.6920062"><ele>1794.0</ele><time>2026-05-01T14:32:40.995Z</time></trkpt><trkpt lat="46.6388949" lon="12.6918713"><ele>1792.8000000000002</ele><time>2026-05-01T14:32:41.994Z</time></trkpt><trkpt lat="46.6388798" lon="12.6917179"><ele>1791.6000000000001</ele><time>2026-05-01T14:32:43.004Z</time></trkpt><trkpt lat="46.6388634" lon="12.6915744"><ele>1790.4</ele><time>2026-05-01T14:32:44.006Z</time></trkpt><trkpt lat="46.63885" lon="12.6914434"><ele>1789.2</ele><time>2026-05-01T14:32:44.994Z</time></trkpt><trkpt lat="46.6388377" lon="12.6913286"><ele>1788.0</ele><time>2026-05-01T14:32:45.995Z</time></trkpt><trkpt lat="46.6388236" lon="12.6912236"><ele>1788.0</ele><time>2026-05-01T14:32:46.991Z</time></trkpt><trkpt lat="46.6388026" lon="12.691112"><ele>1788.0</ele><time>2026-05-01T14:32:48Z</time></trkpt><trkpt lat="46.6387855" lon="12.6909989"><ele>1788.0</ele><time>2026-05-01T14:32:49.996Z</time></trkpt><trkpt lat="46.6387487" lon="12.6908877"><ele>1788.0</ele><time>2026-05-01T14:33:14.996Z</time></trkpt><trkpt lat="46.638725" lon="12.6907225"><ele>1788.0</ele><time>2026-05-01T14:33:16.994Z</time></trkpt><trkpt lat="46.6387139" lon="12.6906252"><ele>1788.0</ele><time>2026-05-01T14:33:17.995Z</time></trkpt><trkpt lat="46.6387008" lon="12.6905023"><ele>1787.0</ele><time>2026-05-01T14:33:19.001Z</time></trkpt><trkpt lat="46.6386962" lon="12.6903809"><ele>1786.0</ele><time>2026-05-01T14:33:19.992Z</time></trkpt><trkpt lat="46.6386915" lon="12.6902677"><ele>1785.0</ele><time>2026-05-01T14:33:20.998Z</time></trkpt><trkpt lat="46.6386838" lon="12.690142"><ele>1784.0</ele><time>2026-05-01T14:33:22.001Z</time></trkpt><trkpt lat="46.6386682" lon="12.6900145"><ele>1783.0</ele><time>2026-05-01T14:33:22.995Z</time></trkpt><trkpt lat="46.6386535" lon="12.689895"><ele>1782.0</ele><time>2026-05-01T14:33:23.996Z</time></trkpt><trkpt lat="46.6386174" lon="12.6897884"><ele>1784.8</ele><time>2026-05-01T14:33:24.996Z</time></trkpt><trkpt lat="46.6385748" lon="12.6896816"><ele>1787.6</ele><time>2026-05-01T14:33:26.017Z</time></trkpt><trkpt lat="46.6385217" lon="12.6895707"><ele>1790.3999999999999</ele><time>2026-05-01T14:33:26.997Z</time></trkpt><trkpt lat="46.6384689" lon="12.6894678"><ele>1793.1999999999998</ele><time>2026-05-01T14:33:27.999Z</time></trkpt><trkpt lat="46.6384158" lon="12.6893477"><ele>1796.0</ele><time>2026-05-01T14:33:29.002Z</time></trkpt><trkpt lat="46.638361" lon="12.6892377"><ele>1796.0</ele><time>2026-05-01T14:33:30.002Z</time></trkpt><trkpt lat="46.6383055" lon="12.6891294"><ele>1796.0</ele><time>2026-05-01T14:33:30.999Z</time></trkpt><trkpt lat="46.6382614" lon="12.6890132"><ele>1796.0</ele><time>2026-05-01T14:33:32Z</time></trkpt><trkpt lat="46.638212" lon="12.6888935"><ele>1796.0</ele><time>2026-05-01T14:33:32.997Z</time></trkpt><trkpt lat="46.638157" lon="12.6887798"><ele>1796.0</ele><time>2026-05-01T14:33:34.003Z</time></trkpt><trkpt lat="46.6381073" lon="12.6886956"><ele>1795.9999999999998</ele><time>2026-05-01T14:33:34.996Z</time></trkpt><trkpt lat="46.6380577" lon="12.6886243"><ele>1796.0</ele><time>2026-05-01T14:33:36.005Z</time></trkpt><trkpt lat="46.6380023" lon="12.6885616"><ele>1796.0</ele><time>2026-05-01T14:33:36.997Z</time></trkpt><trkpt lat="46.6379295" lon="12.6885021"><ele>1796.0</ele><time>2026-05-01T14:33:38.006Z</time></trkpt><trkpt lat="46.6378649" lon="12.6884354"><ele>1795.9999999999998</ele><time>2026-05-01T14:33:38.998Z</time></trkpt><trkpt lat="46.6378036" lon="12.68836"><ele>1796.0</ele><time>2026-05-01T14:33:39.996Z</time></trkpt><trkpt lat="46.6377546" lon="12.6882912"><ele>1798.2857142857142</ele><time>2026-05-01T14:33:40.998Z</time></trkpt><trkpt lat="46.6376984" lon="12.6882386"><ele>1800.5714285714284</ele><time>2026-05-01T14:33:42.002Z</time></trkpt><trkpt lat="46.6376218" lon="12.6882066"><ele>1802.8571428571427</ele><time>2026-05-01T14:33:42.996Z</time></trkpt><trkpt lat="46.6375407" lon="12.6881669"><ele>1805.1428571428569</ele><time>2026-05-01T14:33:44.002Z</time></trkpt><trkpt lat="46.6374705" lon="12.688125"><ele>1807.4285714285713</ele><time>2026-05-01T14:33:44.995Z</time></trkpt><trkpt lat="46.6374014" lon="12.6880863"><ele>1809.7142857142853</ele><time>2026-05-01T14:33:45.998Z</time></trkpt><trkpt lat="46.6373405" lon="12.6880489"><ele>1811.9999999999998</ele><time>2026-05-01T14:33:47.004Z</time></trkpt><trkpt lat="46.6372298" lon="12.6880137"><ele>1811.9999999999998</ele><time>2026-05-01T14:33:48.994Z</time></trkpt><trkpt lat="46.6371595" lon="12.6880172"><ele>1812.0</ele><time>2026-05-01T14:33:50.006Z</time></trkpt><trkpt lat="46.6370813" lon="12.6880267"><ele>1811.9999999999998</ele><time>2026-05-01T14:33:50.999Z</time></trkpt><trkpt lat="46.6370047" lon="12.6880348"><ele>1811.9999999999998</ele><time>2026-05-01T14:33:52.001Z</time></trkpt><trkpt lat="46.6369357" lon="12.6880516"><ele>1812.0</ele><time>2026-05-01T14:33:53Z</time></trkpt><trkpt lat="46.636867" lon="12.688047"><ele>1811.9999999999998</ele><time>2026-05-01T14:33:54.007Z</time></trkpt><trkpt lat="46.6368005" lon="12.6880367"><ele>1811.9999999999998</ele><time>2026-05-01T14:33:55.007Z</time></trkpt><trkpt lat="46.6367284" lon="12.6880017"><ele>1811.3333333333333</ele><time>2026-05-01T14:33:55.999Z</time></trkpt><trkpt lat="46.6366608" lon="12.6879685"><ele>1810.6666666666665</ele><time>2026-05-01T14:33:57.002Z</time></trkpt><trkpt lat="46.6365473" lon="12.6879785"><ele>1810.0</ele><time>2026-05-01T14:33:59Z</time></trkpt><trkpt lat="46.6364289" lon="12.6880105"><ele>1809.3333333333333</ele><time>2026-05-01T14:34:00.996Z</time></trkpt><trkpt lat="46.6363609" lon="12.6879896"><ele>1808.6666666666665</ele><time>2026-05-01T14:34:02.01Z</time></trkpt><trkpt lat="46.6362969" lon="12.6879559"><ele>1808.0</ele><time>2026-05-01T14:34:02.995Z</time></trkpt><trkpt lat="46.6362347" lon="12.6879155"><ele>1808.0</ele><time>2026-05-01T14:34:03.993Z</time></trkpt><trkpt lat="46.63617" lon="12.6878941"><ele>1808.0</ele><time>2026-05-01T14:34:05.01Z</time></trkpt><trkpt lat="46.636105" lon="12.6878934"><ele>1808.0</ele><time>2026-05-01T14:34:05.995Z</time></trkpt><trkpt lat="46.6360387" lon="12.6879119"><ele>1808.0</ele><time>2026-05-01T14:34:07.003Z</time></trkpt><trkpt lat="46.6359712" lon="12.687965"><ele>1808.0</ele><time>2026-05-01T14:34:07.996Z</time></trkpt><trkpt lat="46.6359068" lon="12.6880085"><ele>1808.0</ele><time>2026-05-01T14:34:08.998Z</time></trkpt><trkpt lat="46.6358383" lon="12.6880502"><ele>1808.0</ele><time>2026-05-01T14:34:09.997Z</time></trkpt><trkpt lat="46.6357699" lon="12.6880846"><ele>1806.8333333333333</ele><time>2026-05-01T14:34:11.004Z</time></trkpt><trkpt lat="46.6356996" lon="12.6881185"><ele>1805.6666666666665</ele><time>2026-05-01T14:34:11.994Z</time></trkpt><trkpt lat="46.6356411" lon="12.6881682"><ele>1804.5</ele><time>2026-05-01T14:34:12.996Z</time></trkpt><trkpt lat="46.6355618" lon="12.6882967"><ele>1803.3333333333335</ele><time>2026-05-01T14:34:14.991Z</time></trkpt><trkpt lat="46.635492" lon="12.6883593"><ele>1802.1666666666667</ele><time>2026-05-01T14:34:17.002Z</time></trkpt><trkpt lat="46.6353941" lon="12.6882989"><ele>1801.0</ele><time>2026-05-01T14:34:19.001Z</time></trkpt><trkpt lat="46.6352956" lon="12.6881856"><ele>1798.8333333333335</ele><time>2026-05-01T14:34:20.996Z</time></trkpt><trkpt lat="46.6352374" lon="12.6881405"><ele>1796.6666666666667</ele><time>2026-05-01T14:34:21.995Z</time></trkpt><trkpt lat="46.6351713" lon="12.6881094"><ele>1794.5</ele><time>2026-05-01T14:34:22.994Z</time></trkpt><trkpt lat="46.6351051" lon="12.6880975"><ele>1792.3333333333335</ele><time>2026-05-01T14:34:23.997Z</time></trkpt><trkpt lat="46.6349917" lon="12.6881066"><ele>1790.1666666666667</ele><time>2026-05-01T14:34:25.997Z</time></trkpt><trkpt lat="46.634902" lon="12.6881555"><ele>1788.0</ele><time>2026-05-01T14:34:28.002Z</time></trkpt><trkpt lat="46.634829" lon="12.6882046"><ele>1788.0</ele><time>2026-05-01T14:34:30.001Z</time></trkpt><trkpt lat="46.6347079" lon="12.6881597"><ele>1788.0000000000002</ele><time>2026-05-01T14:34:31.993Z</time></trkpt><trkpt lat="46.6346027" lon="12.6881725"><ele>1788.0000000000002</ele><time>2026-05-01T14:34:33.992Z</time></trkpt><trkpt lat="46.6344936" lon="12.6882659"><ele>1788.0</ele><time>2026-05-01T14:34:35.994Z</time></trkpt><trkpt lat="46.6344251" lon="12.6883037"><ele>1788.0</ele><time>2026-05-01T14:34:36.999Z</time></trkpt><trkpt lat="46.6343645" lon="12.6883357"><ele>1787.4285714285713</ele><time>2026-05-01T14:34:37.998Z</time></trkpt><trkpt lat="46.6343008" lon="12.6883462"><ele>1786.857142857143</ele><time>2026-05-01T14:34:39.002Z</time></trkpt><trkpt lat="46.6342373" lon="12.6883345"><ele>1786.2857142857142</ele><time>2026-05-01T14:34:39.995Z</time></trkpt><trkpt lat="46.63417" lon="12.6883213"><ele>1785.7142857142858</ele><time>2026-05-01T14:34:40.999Z</time></trkpt><trkpt lat="46.6341025" lon="12.6883015"><ele>1785.142857142857</ele><time>2026-05-01T14:34:41.998Z</time></trkpt><trkpt lat="46.634022" lon="12.6882742"><ele>1784.5714285714284</ele><time>2026-05-01T14:34:43Z</time></trkpt><trkpt lat="46.6339431" lon="12.6882574"><ele>1784.0</ele><time>2026-05-01T14:34:44.004Z</time></trkpt><trkpt lat="46.6338636" lon="12.6882472"><ele>1783.9999999999998</ele><time>2026-05-01T14:34:44.996Z</time></trkpt><trkpt lat="46.6337919" lon="12.6882528"><ele>1784.0</ele><time>2026-05-01T14:34:45.997Z</time></trkpt><trkpt lat="46.6337219" lon="12.6882513"><ele>1784.0</ele><time>2026-05-01T14:34:47.001Z</time></trkpt><trkpt lat="46.6336452" lon="12.6882517"><ele>1784.0</ele><time>2026-05-01T14:34:48.004Z</time></trkpt><trkpt lat="46.6335702" lon="12.6882604"><ele>1783.9999999999998</ele><time>2026-05-01T14:34:48.993Z</time></trkpt><trkpt lat="46.6335055" lon="12.6882612"><ele>1784.0</ele><time>2026-05-01T14:34:50.002Z</time></trkpt><trkpt lat="46.6333961" lon="12.6883234"><ele>1783.6666666666665</ele><time>2026-05-01T14:34:52.003Z</time></trkpt><trkpt lat="46.6333377" lon="12.6883872"><ele>1783.3333333333333</ele><time>2026-05-01T14:34:52.998Z</time></trkpt><trkpt lat="46.6332665" lon="12.6884154"><ele>1783.0</ele><time>2026-05-01T14:34:54.004Z</time></trkpt><trkpt lat="46.6331959" lon="12.6884363"><ele>1782.6666666666665</ele><time>2026-05-01T14:34:55Z</time></trkpt><trkpt lat="46.6331331" lon="12.6884501"><ele>1782.3333333333333</ele><time>2026-05-01T14:34:55.996Z</time></trkpt><trkpt lat="46.6330239" lon="12.6884706"><ele>1782.0</ele><time>2026-05-01T14:34:57.998Z</time></trkpt><trkpt lat="46.632928" lon="12.6884132"><ele>1782.0</ele><time>2026-05-01T14:34:59.996Z</time></trkpt><trkpt lat="46.6328895" lon="12.6882446"><ele>1781.9999999999998</ele><time>2026-05-01T14:35:01.998Z</time></trkpt><trkpt lat="46.6328771" lon="12.6881416"><ele>1781.9999999999998</ele><time>2026-05-01T14:35:02.993Z</time></trkpt><trkpt lat="46.6328453" lon="12.6879845"><ele>1782.0</ele><time>2026-05-01T14:35:04.995Z</time></trkpt><trkpt lat="46.632772" lon="12.6878658"><ele>1782.0</ele><time>2026-05-01T14:35:06.995Z</time></trkpt><trkpt lat="46.6326742" lon="12.6877889"><ele>1778.0</ele><time>2026-05-01T14:35:09Z</time></trkpt><trkpt lat="46.6325904" lon="12.6877202"><ele>1773.9999999999998</ele><time>2026-05-01T14:35:11Z</time></trkpt><trkpt lat="46.6325732" lon="12.6875733"><ele>1769.9999999999998</ele><time>2026-05-01T14:35:12.995Z</time></trkpt><trkpt lat="46.6325503" lon="12.6874229"><ele>1766.0</ele><time>2026-05-01T14:35:15Z</time></trkpt><trkpt lat="46.6324551" lon="12.6873098"><ele>1762.0</ele><time>2026-05-01T14:35:17.005Z</time></trkpt><trkpt lat="46.6323904" lon="12.6872745"><ele>1762.0000000000002</ele><time>2026-05-01T14:35:18.005Z</time></trkpt><trkpt lat="46.6323258" lon="12.6872642"><ele>1762.0</ele><time>2026-05-01T14:35:18.999Z</time></trkpt><trkpt lat="46.6322551" lon="12.6872527"><ele>1762.0</ele><time>2026-05-01T14:35:19.997Z</time></trkpt><trkpt lat="46.6321816" lon="12.6872397"><ele>1762.0</ele><time>2026-05-01T14:35:20.999Z</time></trkpt><trkpt lat="46.6321093" lon="12.6872077"><ele>1762.0000000000002</ele><time>2026-05-01T14:35:21.993Z</time></trkpt><trkpt lat="46.6320417" lon="12.6871836"><ele>1762.0</ele><time>2026-05-01T14:35:23.007Z</time></trkpt><trkpt lat="46.6319241" lon="12.6871599"><ele>1761.6</ele><time>2026-05-01T14:35:24.996Z</time></trkpt><trkpt lat="46.6318295" lon="12.6871681"><ele>1761.1999999999998</ele><time>2026-05-01T14:35:26.999Z</time></trkpt><trkpt lat="46.6317469" lon="12.6872159"><ele>1760.8</ele><time>2026-05-01T14:35:29.003Z</time></trkpt><trkpt lat="46.631647" lon="12.6872989"><ele>1760.4</ele><time>2026-05-01T14:35:30.998Z</time></trkpt><trkpt lat="46.631569" lon="12.6873992"><ele>1760.0</ele><time>2026-05-01T14:35:32.996Z</time></trkpt><trkpt lat="46.6314632" lon="12.6875119"><ele>1760.0</ele><time>2026-05-01T14:35:34.999Z</time></trkpt><trkpt lat="46.6313649" lon="12.6876204"><ele>1760.0</ele><time>2026-05-01T14:35:37.012Z</time></trkpt><trkpt lat="46.6313366" lon="12.68771"><ele>1760.0</ele><time>2026-05-01T14:35:38.003Z</time></trkpt><trkpt lat="46.6313041" lon="12.6878126"><ele>1760.0</ele><time>2026-05-01T14:35:39Z</time></trkpt><trkpt lat="46.6312655" lon="12.6878935"><ele>1760.0</ele><time>2026-05-01T14:35:40.003Z</time></trkpt><trkpt lat="46.6311889" lon="12.68802"><ele>1757.4</ele><time>2026-05-01T14:35:41.994Z</time></trkpt><trkpt lat="46.6310935" lon="12.6881068"><ele>1754.8</ele><time>2026-05-01T14:35:43.999Z</time></trkpt><trkpt lat="46.6309902" lon="12.6881094"><ele>1752.1999999999998</ele><time>2026-05-01T14:35:46Z</time></trkpt><trkpt lat="46.6308806" lon="12.6881079"><ele>1749.6</ele><time>2026-05-01T14:35:48.001Z</time></trkpt><trkpt lat="46.6307584" lon="12.6881185"><ele>1747.0</ele><time>2026-05-01T14:35:50.007Z</time></trkpt><trkpt lat="46.6306309" lon="12.688112"><ele>1747.0</ele><time>2026-05-01T14:35:51.997Z</time></trkpt><trkpt lat="46.6305156" lon="12.6881449"><ele>1746.9999999999998</ele><time>2026-05-01T14:35:54.005Z</time></trkpt><trkpt lat="46.6304171" lon="12.6881965"><ele>1746.9999999999998</ele><time>2026-05-01T14:35:56.006Z</time></trkpt><trkpt lat="46.6303189" lon="12.6882219"><ele>1747.0</ele><time>2026-05-01T14:35:58.001Z</time></trkpt><trkpt lat="46.6302584" lon="12.6882533"><ele>1747.0</ele><time>2026-05-01T14:35:59.005Z</time></trkpt><trkpt lat="46.6301479" lon="12.6883348"><ele>1745.5000000000002</ele><time>2026-05-01T14:36:00.998Z</time></trkpt><trkpt lat="46.6300921" lon="12.6883839"><ele>1744.0</ele><time>2026-05-01T14:36:01.99Z</time></trkpt><trkpt lat="46.6300293" lon="12.6884458"><ele>1742.5</ele><time>2026-05-01T14:36:02.992Z</time></trkpt><trkpt lat="46.6299626" lon="12.6885066"><ele>1741.0</ele><time>2026-05-01T14:36:04.004Z</time></trkpt><trkpt lat="46.6298883" lon="12.6885705"><ele>1739.5000000000002</ele><time>2026-05-01T14:36:04.999Z</time></trkpt><trkpt lat="46.6298078" lon="12.6886172"><ele>1738.0</ele><time>2026-05-01T14:36:05.998Z</time></trkpt><trkpt lat="46.6297234" lon="12.6886596"><ele>1738.0000000000002</ele><time>2026-05-01T14:36:06.999Z</time></trkpt><trkpt lat="46.6296536" lon="12.6886995"><ele>1738.0</ele><time>2026-05-01T14:36:08.003Z</time></trkpt><trkpt lat="46.6295898" lon="12.6887475"><ele>1738.0</ele><time>2026-05-01T14:36:08.998Z</time></trkpt><trkpt lat="46.6295172" lon="12.6887987"><ele>1738.0</ele><time>2026-05-01T14:36:10.997Z</time></trkpt><trkpt lat="46.6294357" lon="12.68876"><ele>1738.0000000000002</ele><time>2026-05-01T14:36:13.998Z</time></trkpt><trkpt lat="46.629461" lon="12.688651"><ele>1738.0</ele><time>2026-05-01T14:36:15.999Z</time></trkpt><trkpt lat="46.6295246" lon="12.6885611"><ele>1738.0</ele><time>2026-05-01T14:36:17.996Z</time></trkpt><trkpt lat="46.629623" lon="12.6884848"><ele>1738.0000000000002</ele><time>2026-05-01T14:36:20.003Z</time></trkpt><trkpt lat="46.6296925" lon="12.6883887"><ele>1738.0000000000002</ele><time>2026-05-01T14:36:21.995Z</time></trkpt><trkpt lat="46.6297192" lon="12.6882808"><ele>1738.0</ele><time>2026-05-01T14:36:23.998Z</time></trkpt><trkpt lat="46.6296388" lon="12.6882092"><ele>1738.0</ele><time>2026-05-01T14:36:27Z</time></trkpt><trkpt lat="46.6295331" lon="12.6882569"><ele>1735.8000000000002</ele><time>2026-05-01T14:36:28.998Z</time></trkpt><trkpt lat="46.6294374" lon="12.6883718"><ele>1733.6000000000001</ele><time>2026-05-01T14:36:31.01Z</time></trkpt><trkpt lat="46.6293843" lon="12.688425"><ele>1731.3999999999999</ele><time>2026-05-01T14:36:31.996Z</time></trkpt><trkpt lat="46.6292946" lon="12.6884796"><ele>1729.1999999999998</ele><time>2026-05-01T14:36:33.998Z</time></trkpt><trkpt lat="46.6292207" lon="12.6884513"><ele>1727.0</ele><time>2026-05-01T14:36:36.001Z</time></trkpt><trkpt lat="46.6292165" lon="12.6883197"><ele>1727.0</ele><time>2026-05-01T14:36:37.999Z</time></trkpt><trkpt lat="46.6292784" lon="12.6881514"><ele>1726.9999999999998</ele><time>2026-05-01T14:36:40.005Z</time></trkpt><trkpt lat="46.6293186" lon="12.6880695"><ele>1726.9999999999998</ele><time>2026-05-01T14:36:41.001Z</time></trkpt><trkpt lat="46.6293838" lon="12.6879018"><ele>1727.0</ele><time>2026-05-01T14:36:43.006Z</time></trkpt><trkpt lat="46.629407" lon="12.6878152"><ele>1727.0</ele><time>2026-05-01T14:36:43.997Z</time></trkpt><trkpt lat="46.6294352" lon="12.6876554"><ele>1727.0</ele><time>2026-05-01T14:36:45.996Z</time></trkpt><trkpt lat="46.6294794" lon="12.6875016"><ele>1726.9999999999998</ele><time>2026-05-01T14:36:48.004Z</time></trkpt><trkpt lat="46.6294868" lon="12.6874012"><ele>1726.9999999999998</ele><time>2026-05-01T14:36:49.998Z</time></trkpt><trkpt lat="46.6294321" lon="12.6873534"><ele>1727.0</ele><time>2026-05-01T14:36:51.996Z</time></trkpt><trkpt lat="46.6293437" lon="12.6874303"><ele>1727.0</ele><time>2026-05-01T14:36:53.999Z</time></trkpt><trkpt lat="46.6292776" lon="12.6875646"><ele>1725.8333333333333</ele><time>2026-05-01T14:36:55.999Z</time></trkpt><trkpt lat="46.6291751" lon="12.6876469"><ele>1724.6666666666665</ele><time>2026-05-01T14:36:58Z</time></trkpt><trkpt lat="46.6291028" lon="12.6876695"><ele>1723.5</ele><time>2026-05-01T14:36:58.993Z</time></trkpt><trkpt lat="46.6290394" lon="12.6876878"><ele>1722.3333333333335</ele><time>2026-05-01T14:37:00.003Z</time></trkpt><trkpt lat="46.628972" lon="12.6877025"><ele>1721.1666666666667</ele><time>2026-05-01T14:37:00.995Z</time></trkpt><trkpt lat="46.6289066" lon="12.6877176"><ele>1720.0</ele><time>2026-05-01T14:37:02.003Z</time></trkpt><trkpt lat="46.6287835" lon="12.6877386"><ele>1721.4</ele><time>2026-05-01T14:37:03.992Z</time></trkpt><trkpt lat="46.6287217" lon="12.6877633"><ele>1722.8</ele><time>2026-05-01T14:37:05.008Z</time></trkpt><trkpt lat="46.6286167" lon="12.6878545"><ele>1724.1999999999998</ele><time>2026-05-01T14:37:07.002Z</time></trkpt><trkpt lat="46.6285152" lon="12.6879463"><ele>1725.6</ele><time>2026-05-01T14:37:08.994Z</time></trkpt><trkpt lat="46.6284113" lon="12.6880547"><ele>1727.0</ele><time>2026-05-01T14:37:10.999Z</time></trkpt><trkpt lat="46.6283169" lon="12.6881772"><ele>1724.1666666666665</ele><time>2026-05-01T14:37:12.993Z</time></trkpt><trkpt lat="46.628266" lon="12.6882518"><ele>1721.3333333333333</ele><time>2026-05-01T14:37:13.999Z</time></trkpt><trkpt lat="46.6282053" lon="12.6883367"><ele>1718.5</ele><time>2026-05-01T14:37:14.998Z</time></trkpt><trkpt lat="46.6281427" lon="12.6884168"><ele>1715.6666666666665</ele><time>2026-05-01T14:37:16.003Z</time></trkpt><trkpt lat="46.6280747" lon="12.6884917"><ele>1712.8333333333333</ele><time>2026-05-01T14:37:17.004Z</time></trkpt><trkpt lat="46.6280168" lon="12.6885525"><ele>1710.0</ele><time>2026-05-01T14:37:18.004Z</time></trkpt><trkpt lat="46.6279195" lon="12.6886415"><ele>1710.0</ele><time>2026-05-01T14:37:19.997Z</time></trkpt><trkpt lat="46.6278696" lon="12.6887473"><ele>1710.0</ele><time>2026-05-01T14:37:21.999Z</time></trkpt><trkpt lat="46.6277974" lon="12.6887561"><ele>1710.0</ele><time>2026-05-01T14:37:24.996Z</time></trkpt><trkpt lat="46.6278024" lon="12.6886427"><ele>1710.0</ele><time>2026-05-01T14:37:26.995Z</time></trkpt><trkpt lat="46.6278499" lon="12.6885334"><ele>1710.0</ele><time>2026-05-01T14:37:29.012Z</time></trkpt><trkpt lat="46.6278728" lon="12.6884329"><ele>1710.0</ele><time>2026-05-01T14:37:31Z</time></trkpt><trkpt lat="46.6278231" lon="12.6883572"><ele>1703.0</ele><time>2026-05-01T14:37:32.997Z</time></trkpt><trkpt lat="46.6277594" lon="12.6884209"><ele>1696.0</ele><time>2026-05-01T14:37:34.997Z</time></trkpt><trkpt lat="46.6276948" lon="12.6885802"><ele>1689.0</ele><time>2026-05-01T14:37:36.999Z</time></trkpt><trkpt lat="46.6276222" lon="12.6887262"><ele>1682.0</ele><time>2026-05-01T14:37:38.999Z</time></trkpt><trkpt lat="46.6275574" lon="12.6888766"><ele>1681.9999999999998</ele><time>2026-05-01T14:37:40.997Z</time></trkpt><trkpt lat="46.6274902" lon="12.6889859"><ele>1682.0</ele><time>2026-05-01T14:37:43.002Z</time></trkpt><trkpt lat="46.6274242" lon="12.6889781"><ele>1682.0</ele><time>2026-05-01T14:37:44.996Z</time></trkpt><trkpt lat="46.6273832" lon="12.6888899"><ele>1682.0</ele><time>2026-05-01T14:37:46.998Z</time></trkpt><trkpt lat="46.6274433" lon="12.6887249"><ele>1681.9999999999998</ele><time>2026-05-01T14:37:49Z</time></trkpt><trkpt lat="46.6274773" lon="12.6886425"><ele>1682.0</ele><time>2026-05-01T14:37:50.003Z</time></trkpt><trkpt lat="46.6275438" lon="12.6884732"><ele>1681.8</ele><time>2026-05-01T14:37:52Z</time></trkpt><trkpt lat="46.6275832" lon="12.6883294"><ele>1681.6</ele><time>2026-05-01T14:37:54Z</time></trkpt><trkpt lat="46.6275627" lon="12.6882129"><ele>1681.3999999999999</ele><time>2026-05-01T14:37:56Z</time></trkpt><trkpt lat="46.6274799" lon="12.6882006"><ele>1681.1999999999998</ele><time>2026-05-01T14:37:58Z</time></trkpt><trkpt lat="46.6274164" lon="12.6882891"><ele>1681.0</ele><time>2026-05-01T14:37:59.995Z</time></trkpt><trkpt lat="46.6273586" lon="12.6884596"><ele>1681.0</ele><time>2026-05-01T14:38:02.001Z</time></trkpt><trkpt lat="46.6273253" lon="12.6885449"><ele>1681.0</ele><time>2026-05-01T14:38:02.999Z</time></trkpt><trkpt lat="46.6272863" lon="12.6886339"><ele>1681.0</ele><time>2026-05-01T14:38:04.001Z</time></trkpt><trkpt lat="46.627247" lon="12.6887207"><ele>1681.0</ele><time>2026-05-01T14:38:04.994Z</time></trkpt><trkpt lat="46.6272121" lon="12.6888041"><ele>1681.0</ele><time>2026-05-01T14:38:05.995Z</time></trkpt><trkpt lat="46.6271885" lon="12.6888968"><ele>1681.0</ele><time>2026-05-01T14:38:07.002Z</time></trkpt><trkpt lat="46.6271739" lon="12.6889893"><ele>1681.0</ele><time>2026-05-01T14:38:07.994Z</time></trkpt><trkpt lat="46.6271483" lon="12.6891635"><ele>1681.1666666666667</ele><time>2026-05-01T14:38:09.998Z</time></trkpt><trkpt lat="46.6271289" lon="12.6893005"><ele>1681.3333333333335</ele><time>2026-05-01T14:38:12.001Z</time></trkpt><trkpt lat="46.6270904" lon="12.6893886"><ele>1681.5</ele><time>2026-05-01T14:38:14Z</time></trkpt><trkpt lat="46.6270167" lon="12.6893488"><ele>1681.6666666666665</ele><time>2026-05-01T14:38:17.008Z</time></trkpt><trkpt lat="46.6269715" lon="12.6892729"><ele>1681.8333333333333</ele><time>2026-05-01T14:38:19.004Z</time></trkpt><trkpt lat="46.6269209" lon="12.6891678"><ele>1682.0</ele><time>2026-05-01T14:38:20.999Z</time></trkpt><trkpt lat="46.6268735" lon="12.6890421"><ele>1675.1999999999998</ele><time>2026-05-01T14:38:22.998Z</time></trkpt><trkpt lat="46.6267963" lon="12.6889236"><ele>1668.4</ele><time>2026-05-01T14:38:25.002Z</time></trkpt><trkpt lat="46.6267045" lon="12.6888435"><ele>1661.6</ele><time>2026-05-01T14:38:26.999Z</time></trkpt><trkpt lat="46.6266222" lon="12.6888318"><ele>1654.8000000000002</ele><time>2026-05-01T14:38:29Z</time></trkpt><trkpt lat="46.6265632" lon="12.6889424"><ele>1648.0</ele><time>2026-05-01T14:38:32Z</time></trkpt><trkpt lat="46.6265701" lon="12.6890514"><ele>1648.0000000000002</ele><time>2026-05-01T14:38:33.999Z</time></trkpt><trkpt lat="46.626578" lon="12.68916"><ele>1648.0</ele><time>2026-05-01T14:38:36.004Z</time></trkpt><trkpt lat="46.6265138" lon="12.6892058"><ele>1648.0</ele><time>2026-05-01T14:38:38.994Z</time></trkpt><trkpt lat="46.6264722" lon="12.6891275"><ele>1648.0</ele><time>2026-05-01T14:38:40.991Z</time></trkpt><trkpt lat="46.6264665" lon="12.6889871"><ele>1648.0000000000002</ele><time>2026-05-01T14:38:43.001Z</time></trkpt><trkpt lat="46.6264635" lon="12.6888854"><ele>1648.0</ele><time>2026-05-01T14:38:43.998Z</time></trkpt><trkpt lat="46.6264578" lon="12.6887837"><ele>1647.9999999999998</ele><time>2026-05-01T14:38:45Z</time></trkpt><trkpt lat="46.6264491" lon="12.688688"><ele>1648.0</ele><time>2026-05-01T14:38:45.995Z</time></trkpt><trkpt lat="46.6264431" lon="12.6885955"><ele>1648.0</ele><time>2026-05-01T14:38:46.994Z</time></trkpt><trkpt lat="46.6264384" lon="12.6884979"><ele>1648.0</ele><time>2026-05-01T14:38:47.998Z</time></trkpt><trkpt lat="46.6264409" lon="12.6883933"><ele>1648.0</ele><time>2026-05-01T14:38:49.003Z</time></trkpt><trkpt lat="46.6264459" lon="12.6882843"><ele>1647.9999999999998</ele><time>2026-05-01T14:38:50.001Z</time></trkpt><trkpt lat="46.6264499" lon="12.6881664"><ele>1648.0</ele><time>2026-05-01T14:38:50.996Z</time></trkpt><trkpt lat="46.6264503" lon="12.6880546"><ele>1648.3333333333335</ele><time>2026-05-01T14:38:51.999Z</time></trkpt><trkpt lat="46.6264492" lon="12.6879444"><ele>1648.6666666666667</ele><time>2026-05-01T14:38:53.004Z</time></trkpt><trkpt lat="46.6264562" lon="12.6878312"><ele>1649.0</ele><time>2026-05-01T14:38:54.004Z</time></trkpt><trkpt lat="46.6264678" lon="12.6877255"><ele>1649.3333333333335</ele><time>2026-05-01T14:38:54.998Z</time></trkpt><trkpt lat="46.6264812" lon="12.6876246"><ele>1649.6666666666667</ele><time>2026-05-01T14:38:56.001Z</time></trkpt><trkpt lat="46.6264991" lon="12.6875192"><ele>1650.0</ele><time>2026-05-01T14:38:56.997Z</time></trkpt><trkpt lat="46.6265267" lon="12.6874088"><ele>1648.6666666666667</ele><time>2026-05-01T14:38:57.999Z</time></trkpt><trkpt lat="46.6265591" lon="12.6873086"><ele>1647.3333333333335</ele><time>2026-05-01T14:38:59.004Z</time></trkpt><trkpt lat="46.626594" lon="12.6872119"><ele>1646.0</ele><time>2026-05-01T14:39:00.004Z</time></trkpt><trkpt lat="46.626635" lon="12.6871056"><ele>1644.6666666666667</ele><time>2026-05-01T14:39:01.007Z</time></trkpt><trkpt lat="46.6266776" lon="12.6870086"><ele>1643.3333333333335</ele><time>2026-05-01T14:39:02.003Z</time></trkpt><trkpt lat="46.6267162" lon="12.6869242"><ele>1642.0</ele><time>2026-05-01T14:39:03.004Z</time></trkpt><trkpt lat="46.6267605" lon="12.6868408"><ele>1639.8333333333335</ele><time>2026-05-01T14:39:03.997Z</time></trkpt><trkpt lat="46.6268148" lon="12.6867589"><ele>1637.6666666666667</ele><time>2026-05-01T14:39:04.993Z</time></trkpt><trkpt lat="46.6268832" lon="12.6866675"><ele>1635.5</ele><time>2026-05-01T14:39:06Z</time></trkpt><trkpt lat="46.6269515" lon="12.6865899"><ele>1633.3333333333335</ele><time>2026-05-01T14:39:07.001Z</time></trkpt><trkpt lat="46.6270169" lon="12.6865169"><ele>1631.1666666666667</ele><time>2026-05-01T14:39:07.998Z</time></trkpt><trkpt lat="46.6270657" lon="12.6864412"><ele>1629.0</ele><time>2026-05-01T14:39:09.007Z</time></trkpt><trkpt lat="46.6271077" lon="12.6863726"><ele>1629.142857142857</ele><time>2026-05-01T14:39:09.996Z</time></trkpt><trkpt lat="46.6271565" lon="12.6863114"><ele>1629.2857142857144</ele><time>2026-05-01T14:39:10.995Z</time></trkpt><trkpt lat="46.6272157" lon="12.6862563"><ele>1629.4285714285716</ele><time>2026-05-01T14:39:12.002Z</time></trkpt><trkpt lat="46.6272751" lon="12.6862006"><ele>1629.5714285714284</ele><time>2026-05-01T14:39:12.999Z</time></trkpt><trkpt lat="46.6273437" lon="12.686144"><ele>1629.7142857142858</ele><time>2026-05-01T14:39:14Z</time></trkpt><trkpt lat="46.6274079" lon="12.6860894"><ele>1629.857142857143</ele><time>2026-05-01T14:39:15.003Z</time></trkpt><trkpt lat="46.627462" lon="12.6860337"><ele>1630.0</ele><time>2026-05-01T14:39:16Z</time></trkpt><trkpt lat="46.6275378" lon="12.6859143"><ele>1630.0</ele><time>2026-05-01T14:39:17.992Z</time></trkpt><trkpt lat="46.627614" lon="12.6858348"><ele>1630.0</ele><time>2026-05-01T14:39:19.994Z</time></trkpt><trkpt lat="46.6277222" lon="12.68579"><ele>1630.0</ele><time>2026-05-01T14:39:22.001Z</time></trkpt><trkpt lat="46.6278243" lon="12.6857056"><ele>1630.0</ele><time>2026-05-01T14:39:24.004Z</time></trkpt><trkpt lat="46.6278959" lon="12.6856076"><ele>1630.0</ele><time>2026-05-01T14:39:25.993Z</time></trkpt><trkpt lat="46.6279019" lon="12.6855063"><ele>1630.0000000000002</ele><time>2026-05-01T14:39:27.993Z</time></trkpt><trkpt lat="46.6278246" lon="12.6854092"><ele>1630.0</ele><time>2026-05-01T14:39:30.998Z</time></trkpt><trkpt lat="46.6277214" lon="12.6853258"><ele>1630.0</ele><time>2026-05-01T14:39:33.001Z</time></trkpt><trkpt lat="46.6276637" lon="12.6852831"><ele>1630.0</ele><time>2026-05-01T14:39:34.003Z</time></trkpt><trkpt lat="46.6276042" lon="12.6852464"><ele>1630.0000000000002</ele><time>2026-05-01T14:39:35Z</time></trkpt><trkpt lat="46.6275439" lon="12.6852139"><ele>1630.0</ele><time>2026-05-01T14:39:36Z</time></trkpt><trkpt lat="46.6274819" lon="12.6851583"><ele>1627.5000000000002</ele><time>2026-05-01T14:39:37.002Z</time></trkpt><trkpt lat="46.6274207" lon="12.6850872"><ele>1625.0</ele><time>2026-05-01T14:39:37.995Z</time></trkpt><trkpt lat="46.6273663" lon="12.6850097"><ele>1622.5</ele><time>2026-05-01T14:39:38.995Z</time></trkpt><trkpt lat="46.6273043" lon="12.6849288"><ele>1620.0</ele><time>2026-05-01T14:39:39.998Z</time></trkpt><trkpt lat="46.6272412" lon="12.6848534"><ele>1617.5000000000002</ele><time>2026-05-01T14:39:40.991Z</time></trkpt><trkpt lat="46.6271782" lon="12.6847859"><ele>1615.0</ele><time>2026-05-01T14:39:42.003Z</time></trkpt><trkpt lat="46.6271201" lon="12.6847087"><ele>1615.0000000000002</ele><time>2026-05-01T14:39:42.994Z</time></trkpt><trkpt lat="46.6270687" lon="12.6846301"><ele>1615.0</ele><time>2026-05-01T14:39:44.003Z</time></trkpt><trkpt lat="46.6270151" lon="12.684567"><ele>1615.0</ele><time>2026-05-01T14:39:45.002Z</time></trkpt><trkpt lat="46.6269614" lon="12.6845097"><ele>1615.0</ele><time>2026-05-01T14:39:45.997Z</time></trkpt><trkpt lat="46.6268611" lon="12.684407"><ele>1615.0000000000002</ele><time>2026-05-01T14:39:47.998Z</time></trkpt><trkpt lat="46.6268135" lon="12.6843412"><ele>1615.0</ele><time>2026-05-01T14:39:49.001Z</time></trkpt><trkpt lat="46.6267746" lon="12.6842446"><ele>1612.8333333333335</ele><time>2026-05-01T14:39:50Z</time></trkpt><trkpt lat="46.6267394" lon="12.6841502"><ele>1610.6666666666667</ele><time>2026-05-01T14:39:50.994Z</time></trkpt><trkpt lat="46.6267065" lon="12.6840645"><ele>1608.5</ele><time>2026-05-01T14:39:52.01Z</time></trkpt><trkpt lat="46.6266875" lon="12.6839686"><ele>1606.3333333333335</ele><time>2026-05-01T14:39:52.998Z</time></trkpt><trkpt lat="46.6266751" lon="12.6838556"><ele>1604.1666666666667</ele><time>2026-05-01T14:39:53.999Z</time></trkpt><trkpt lat="46.6266531" lon="12.6837322"><ele>1602.0</ele><time>2026-05-01T14:39:55.004Z</time></trkpt><trkpt lat="46.6266175" lon="12.6836142"><ele>1602.3333333333333</ele><time>2026-05-01T14:39:56.004Z</time></trkpt><trkpt lat="46.6265873" lon="12.6835158"><ele>1602.6666666666665</ele><time>2026-05-01T14:39:57.008Z</time></trkpt><trkpt lat="46.6265641" lon="12.6834303"><ele>1603.0</ele><time>2026-05-01T14:39:58Z</time></trkpt><trkpt lat="46.6265539" lon="12.6832606"><ele>1603.3333333333333</ele><time>2026-05-01T14:39:59.997Z</time></trkpt><trkpt lat="46.6265621" lon="12.6831119"><ele>1603.6666666666665</ele><time>2026-05-01T14:40:02.002Z</time></trkpt><trkpt lat="46.6265808" lon="12.6829859"><ele>1604.0</ele><time>2026-05-01T14:40:04.001Z</time></trkpt><trkpt lat="46.6265931" lon="12.6828273"><ele>1602.8000000000002</ele><time>2026-05-01T14:40:05.999Z</time></trkpt><trkpt lat="46.6265882" lon="12.682648"><ele>1601.6000000000001</ele><time>2026-05-01T14:40:07.997Z</time></trkpt><trkpt lat="46.6265716" lon="12.6824749"><ele>1600.4</ele><time>2026-05-01T14:40:10.006Z</time></trkpt><trkpt lat="46.6265573" lon="12.6822882"><ele>1599.2</ele><time>2026-05-01T14:40:12.004Z</time></trkpt><trkpt lat="46.626544" lon="12.6821844"><ele>1598.0</ele><time>2026-05-01T14:40:13.002Z</time></trkpt><trkpt lat="46.6265312" lon="12.6820763"><ele>1597.9999999999998</ele><time>2026-05-01T14:40:13.999Z</time></trkpt><trkpt lat="46.6265196" lon="12.6819767"><ele>1598.0</ele><time>2026-05-01T14:40:15Z</time></trkpt><trkpt lat="46.6265166" lon="12.6818608"><ele>1598.0</ele><time>2026-05-01T14:40:15.999Z</time></trkpt><trkpt lat="46.62652" lon="12.6817386"><ele>1598.0</ele><time>2026-05-01T14:40:17.004Z</time></trkpt><trkpt lat="46.6265192" lon="12.681626"><ele>1597.9999999999998</ele><time>2026-05-01T14:40:17.999Z</time></trkpt><trkpt lat="46.6265125" lon="12.6815105"><ele>1598.0</ele><time>2026-05-01T14:40:19.006Z</time></trkpt><trkpt lat="46.6265038" lon="12.6814019"><ele>1596.6666666666665</ele><time>2026-05-01T14:40:19.993Z</time></trkpt><trkpt lat="46.6264978" lon="12.6812929"><ele>1595.3333333333333</ele><time>2026-05-01T14:40:21Z</time></trkpt><trkpt lat="46.6264942" lon="12.6811787"><ele>1594.0</ele><time>2026-05-01T14:40:22.002Z</time></trkpt><trkpt lat="46.6264991" lon="12.6810552"><ele>1592.6666666666665</ele><time>2026-05-01T14:40:23.003Z</time></trkpt><trkpt lat="46.6265106" lon="12.6809364"><ele>1591.3333333333333</ele><time>2026-05-01T14:40:23.998Z</time></trkpt><trkpt lat="46.6265318" lon="12.680821"><ele>1590.0</ele><time>2026-05-01T14:40:25.003Z</time></trkpt><trkpt lat="46.6265545" lon="12.6807062"><ele>1588.5</ele><time>2026-05-01T14:40:25.999Z</time></trkpt><trkpt lat="46.6265738" lon="12.6805793"><ele>1587.0</ele><time>2026-05-01T14:40:27Z</time></trkpt><trkpt lat="46.626594" lon="12.6804475"><ele>1585.5</ele><time>2026-05-01T14:40:27.994Z</time></trkpt><trkpt lat="46.6266164" lon="12.6803251"><ele>1584.0</ele><time>2026-05-01T14:40:28.995Z</time></trkpt><trkpt lat="46.6266407" lon="12.6802046"><ele>1582.5</ele><time>2026-05-01T14:40:29.998Z</time></trkpt><trkpt lat="46.6266623" lon="12.6800805"><ele>1581.0</ele><time>2026-05-01T14:40:31.001Z</time></trkpt><trkpt lat="46.6266761" lon="12.679955"><ele>1579.6</ele><time>2026-05-01T14:40:31.994Z</time></trkpt><trkpt lat="46.6266883" lon="12.6798202"><ele>1578.1999999999998</ele><time>2026-05-01T14:40:33.003Z</time></trkpt><trkpt lat="46.6267031" lon="12.6796751"><ele>1576.8000000000002</ele><time>2026-05-01T14:40:33.998Z</time></trkpt><trkpt lat="46.6267149" lon="12.6795302"><ele>1575.4</ele><time>2026-05-01T14:40:34.997Z</time></trkpt><trkpt lat="46.6267226" lon="12.6794063"><ele>1574.0</ele><time>2026-05-01T14:40:35.999Z</time></trkpt><trkpt lat="46.6267193" lon="12.6792921"><ele>1572.6</ele><time>2026-05-01T14:40:37.001Z</time></trkpt><trkpt lat="46.6267125" lon="12.6791824"><ele>1571.2</ele><time>2026-05-01T14:40:37.996Z</time></trkpt><trkpt lat="46.6267173" lon="12.6790822"><ele>1569.8</ele><time>2026-05-01T14:40:38.994Z</time></trkpt><trkpt lat="46.6267227" lon="12.6789893"><ele>1568.3999999999999</ele><time>2026-05-01T14:40:40.002Z</time></trkpt><trkpt lat="46.6267324" lon="12.6788206"><ele>1567.0</ele><time>2026-05-01T14:40:41.997Z</time></trkpt><trkpt lat="46.6267919" lon="12.6786435"><ele>1564.0</ele><time>2026-05-01T14:40:43.996Z</time></trkpt><trkpt lat="46.6268457" lon="12.6785216"><ele>1561.0</ele><time>2026-05-01T14:40:45.003Z</time></trkpt><trkpt lat="46.6268925" lon="12.6783891"><ele>1558.0</ele><time>2026-05-01T14:40:45.998Z</time></trkpt><trkpt lat="46.6269357" lon="12.6782576"><ele>1555.0</ele><time>2026-05-01T14:40:46.995Z</time></trkpt><trkpt lat="46.6269782" lon="12.6781408"><ele>1552.0</ele><time>2026-05-01T14:40:48Z</time></trkpt><trkpt lat="46.6270242" lon="12.6780186"><ele>1556.0000000000002</ele><time>2026-05-01T14:40:49.003Z</time></trkpt><trkpt lat="46.6270725" lon="12.6778953"><ele>1560.0</ele><time>2026-05-01T14:40:50.005Z</time></trkpt><trkpt lat="46.6271151" lon="12.6777793"><ele>1564.0</ele><time>2026-05-01T14:40:51.002Z</time></trkpt><trkpt lat="46.6271561" lon="12.6776653"><ele>1568.0</ele><time>2026-05-01T14:40:52.002Z</time></trkpt><trkpt lat="46.6271997" lon="12.677559"><ele>1572.0000000000002</ele><time>2026-05-01T14:40:52.995Z</time></trkpt><trkpt lat="46.6272441" lon="12.6774482"><ele>1576.0</ele><time>2026-05-01T14:40:53.998Z</time></trkpt><trkpt lat="46.6272755" lon="12.6773425"><ele>1576.0000000000002</ele><time>2026-05-01T14:40:55.006Z</time></trkpt><trkpt lat="46.6272994" lon="12.6772456"><ele>1576.0</ele><time>2026-05-01T14:40:55.992Z</time></trkpt><trkpt lat="46.6273235" lon="12.6771513"><ele>1576.0</ele><time>2026-05-01T14:40:57.005Z</time></trkpt><trkpt lat="46.6273535" lon="12.6770528"><ele>1576.0</ele><time>2026-05-01T14:40:58.004Z</time></trkpt><trkpt lat="46.6273901" lon="12.6769431"><ele>1576.0000000000002</ele><time>2026-05-01T14:40:58.995Z</time></trkpt><trkpt lat="46.6274274" lon="12.6768272"><ele>1576.0</ele><time>2026-05-01T14:41:00.005Z</time></trkpt><trkpt lat="46.6274503" lon="12.6767163"><ele>1573.0000000000002</ele><time>2026-05-01T14:41:01Z</time></trkpt><trkpt lat="46.6274677" lon="12.6766092"><ele>1570.0</ele><time>2026-05-01T14:41:02.007Z</time></trkpt><trkpt lat="46.6274904" lon="12.6764816"><ele>1567.0</ele><time>2026-05-01T14:41:02.998Z</time></trkpt><trkpt lat="46.6275115" lon="12.6763561"><ele>1564.0</ele><time>2026-05-01T14:41:03.993Z</time></trkpt><trkpt lat="46.627533" lon="12.6762383"><ele>1561.0000000000002</ele><time>2026-05-01T14:41:04.996Z</time></trkpt><trkpt lat="46.6275677" lon="12.6761211"><ele>1558.0</ele><time>2026-05-01T14:41:06.003Z</time></trkpt><trkpt lat="46.6276093" lon="12.6759993"><ele>1555.0</ele><time>2026-05-01T14:41:06.996Z</time></trkpt><trkpt lat="46.6276446" lon="12.675881"><ele>1552.0</ele><time>2026-05-01T14:41:07.998Z</time></trkpt><trkpt lat="46.6276734" lon="12.6757617"><ele>1549.0</ele><time>2026-05-01T14:41:08.998Z</time></trkpt><trkpt lat="46.627697" lon="12.6756337"><ele>1546.0</ele><time>2026-05-01T14:41:09.993Z</time></trkpt><trkpt lat="46.6277188" lon="12.6755015"><ele>1543.0</ele><time>2026-05-01T14:41:11.009Z</time></trkpt><trkpt lat="46.6277388" lon="12.6753641"><ele>1540.8333333333335</ele><time>2026-05-01T14:41:12.001Z</time></trkpt><trkpt lat="46.6277585" lon="12.6752364"><ele>1538.6666666666667</ele><time>2026-05-01T14:41:13Z</time></trkpt><trkpt lat="46.6277756" lon="12.6751114"><ele>1536.5</ele><time>2026-05-01T14:41:14Z</time></trkpt><trkpt lat="46.627799" lon="12.674978"><ele>1534.3333333333335</ele><time>2026-05-01T14:41:14.996Z</time></trkpt><trkpt lat="46.6278166" lon="12.6748586"><ele>1532.1666666666667</ele><time>2026-05-01T14:41:16.008Z</time></trkpt><trkpt lat="46.627835" lon="12.6747419"><ele>1530.0</ele><time>2026-05-01T14:41:16.998Z</time></trkpt><trkpt lat="46.6278486" lon="12.6746307"><ele>1535.1666666666667</ele><time>2026-05-01T14:41:18.005Z</time></trkpt><trkpt lat="46.6278635" lon="12.6745244"><ele>1540.3333333333335</ele><time>2026-05-01T14:41:19.003Z</time></trkpt><trkpt lat="46.6278842" lon="12.6744213"><ele>1545.5</ele><time>2026-05-01T14:41:19.999Z</time></trkpt><trkpt lat="46.6279031" lon="12.6743195"><ele>1550.6666666666667</ele><time>2026-05-01T14:41:20.998Z</time></trkpt><trkpt lat="46.6279174" lon="12.6742122"><ele>1555.8333333333335</ele><time>2026-05-01T14:41:22.002Z</time></trkpt><trkpt lat="46.6279247" lon="12.6740973"><ele>1561.0</ele><time>2026-05-01T14:41:23.002Z</time></trkpt><trkpt lat="46.6279214" lon="12.6739861"><ele>1561.0000000000002</ele><time>2026-05-01T14:41:23.998Z</time></trkpt><trkpt lat="46.6279043" lon="12.6738921"><ele>1561.0</ele><time>2026-05-01T14:41:25.01Z</time></trkpt><trkpt lat="46.6278751" lon="12.6738099"><ele>1561.0</ele><time>2026-05-01T14:41:26Z</time></trkpt><trkpt lat="46.6278304" lon="12.6737438"><ele>1561.0</ele><time>2026-05-01T14:41:26.997Z</time></trkpt><trkpt lat="46.6277374" lon="12.6736441"><ele>1561.0000000000002</ele><time>2026-05-01T14:41:28.997Z</time></trkpt><trkpt lat="46.6276462" lon="12.6735939"><ele>1561.0</ele><time>2026-05-01T14:41:31.002Z</time></trkpt><trkpt lat="46.6275643" lon="12.6736165"><ele>1554.0</ele><time>2026-05-01T14:41:33.002Z</time></trkpt><trkpt lat="46.6275941" lon="12.6737227"><ele>1547.0</ele><time>2026-05-01T14:42:18.996Z</time></trkpt><trkpt lat="46.6276725" lon="12.673826"><ele>1540.0</ele><time>2026-05-01T14:42:20.998Z</time></trkpt><trkpt lat="46.6277068" lon="12.6739673"><ele>1533.0</ele><time>2026-05-01T14:42:23.001Z</time></trkpt><trkpt lat="46.6276891" lon="12.674139"><ele>1526.0</ele><time>2026-05-01T14:42:24.998Z</time></trkpt><trkpt lat="46.6276568" lon="12.6742293"><ele>1526.0</ele><time>2026-05-01T14:42:26.007Z</time></trkpt><trkpt lat="46.6276202" lon="12.674313"><ele>1526.0</ele><time>2026-05-01T14:42:27.003Z</time></trkpt><trkpt lat="46.6275774" lon="12.6743963"><ele>1526.0</ele><time>2026-05-01T14:42:28.001Z</time></trkpt><trkpt lat="46.6275331" lon="12.6745503"><ele>1526.0</ele><time>2026-05-01T14:42:30Z</time></trkpt><trkpt lat="46.6275238" lon="12.6746724"><ele>1526.0</ele><time>2026-05-01T14:42:31.998Z</time></trkpt><trkpt lat="46.627455" lon="12.6747296"><ele>1526.0</ele><time>2026-05-01T14:42:35Z</time></trkpt><trkpt lat="46.6274228" lon="12.6746467"><ele>1526.0</ele><time>2026-05-01T14:42:37.001Z</time></trkpt><trkpt lat="46.6274475" lon="12.6744868"><ele>1526.0</ele><time>2026-05-01T14:42:39Z</time></trkpt><trkpt lat="46.6274781" lon="12.6743352"><ele>1526.0</ele><time>2026-05-01T14:42:41.004Z</time></trkpt><trkpt lat="46.627467" lon="12.6741807"><ele>1526.0</ele><time>2026-05-01T14:42:42.998Z</time></trkpt><trkpt lat="46.6274071" lon="12.6740513"><ele>1526.0</ele><time>2026-05-01T14:42:44.996Z</time></trkpt><trkpt lat="46.6273298" lon="12.6739543"><ele>1526.0</ele><time>2026-05-01T14:42:47.005Z</time></trkpt><trkpt lat="46.62726" lon="12.6738958"><ele>1526.0</ele><time>2026-05-01T14:42:49.01Z</time></trkpt><trkpt lat="46.6272071" lon="12.673958"><ele>1526.0</ele><time>2026-05-01T14:42:51.004Z</time></trkpt><trkpt lat="46.6272211" lon="12.6741128"><ele>1526.0</ele><time>2026-05-01T14:42:53Z</time></trkpt><trkpt lat="46.6272556" lon="12.6742746"><ele>1526.0</ele><time>2026-05-01T14:42:55.001Z</time></trkpt><trkpt lat="46.6272547" lon="12.6743667"><ele>1526.0</ele><time>2026-05-01T14:42:56.001Z</time></trkpt><trkpt lat="46.6272204" lon="12.6745494"><ele>1526.5714285714287</ele><time>2026-05-01T14:42:57.997Z</time></trkpt><trkpt lat="46.6271968" lon="12.6746435"><ele>1527.142857142857</ele><time>2026-05-01T14:42:58.999Z</time></trkpt><trkpt lat="46.6271693" lon="12.6747279"><ele>1527.7142857142858</ele><time>2026-05-01T14:43:00.007Z</time></trkpt><trkpt lat="46.627131" lon="12.6748112"><ele>1528.2857142857142</ele><time>2026-05-01T14:43:00.997Z</time></trkpt><trkpt lat="46.6270924" lon="12.6748979"><ele>1528.857142857143</ele><time>2026-05-01T14:43:01.996Z</time></trkpt><trkpt lat="46.6270507" lon="12.6749838"><ele>1529.4285714285716</ele><time>2026-05-01T14:43:03.002Z</time></trkpt><trkpt lat="46.6270023" lon="12.6750651"><ele>1530.0</ele><time>2026-05-01T14:43:03.997Z</time></trkpt><trkpt lat="46.6269572" lon="12.67514"><ele>1525.4285714285716</ele><time>2026-05-01T14:43:05Z</time></trkpt><trkpt lat="46.6269263" lon="12.675232"><ele>1520.857142857143</ele><time>2026-05-01T14:43:05.994Z</time></trkpt><trkpt lat="46.6269058" lon="12.6753317"><ele>1516.2857142857142</ele><time>2026-05-01T14:43:07.002Z</time></trkpt><trkpt lat="46.6268961" lon="12.6754229"><ele>1511.7142857142858</ele><time>2026-05-01T14:43:07.998Z</time></trkpt><trkpt lat="46.626879" lon="12.6755604"><ele>1507.142857142857</ele><time>2026-05-01T14:43:09.995Z</time></trkpt><trkpt lat="46.6268296" lon="12.675631"><ele>1502.5714285714287</ele><time>2026-05-01T14:43:12.999Z</time></trkpt><trkpt lat="46.6267721" lon="12.6755859"><ele>1498.0</ele><time>2026-05-01T14:43:15.995Z</time></trkpt><trkpt lat="46.6267643" lon="12.675487"><ele>1498.0</ele><time>2026-05-01T14:43:17.999Z</time></trkpt><trkpt lat="46.6267823" lon="12.6753156"><ele>1498.0</ele><time>2026-05-01T14:43:19.992Z</time></trkpt><trkpt lat="46.6267795" lon="12.6752226"><ele>1498.0</ele><time>2026-05-01T14:43:20.995Z</time></trkpt><trkpt lat="46.6267879" lon="12.6751274"><ele>1498.0</ele><time>2026-05-01T14:43:22.002Z</time></trkpt><trkpt lat="46.626803" lon="12.6749559"><ele>1498.0</ele><time>2026-05-01T14:43:24Z</time></trkpt><trkpt lat="46.6267865" lon="12.6747754"><ele>1497.0</ele><time>2026-05-01T14:43:25.998Z</time></trkpt><trkpt lat="46.626762" lon="12.6746885"><ele>1496.0</ele><time>2026-05-01T14:43:26.996Z</time></trkpt><trkpt lat="46.6267325" lon="12.6746019"><ele>1495.0</ele><time>2026-05-01T14:43:28.005Z</time></trkpt><trkpt lat="46.6267127" lon="12.6745128"><ele>1494.0</ele><time>2026-05-01T14:43:29Z</time></trkpt><trkpt lat="46.6266896" lon="12.6743346"><ele>1493.0</ele><time>2026-05-01T14:43:31.001Z</time></trkpt><trkpt lat="46.6267031" lon="12.6741598"><ele>1492.0</ele><time>2026-05-01T14:43:33Z</time></trkpt><trkpt lat="46.6267299" lon="12.6740675"><ele>1491.2857142857142</ele><time>2026-05-01T14:43:34.001Z</time></trkpt><trkpt lat="46.6267599" lon="12.6739688"><ele>1490.5714285714287</ele><time>2026-05-01T14:43:34.996Z</time></trkpt><trkpt lat="46.6267738" lon="12.6738629"><ele>1489.8571428571427</ele><time>2026-05-01T14:43:36.001Z</time></trkpt><trkpt lat="46.626779" lon="12.6737595"><ele>1489.142857142857</ele><time>2026-05-01T14:43:37.001Z</time></trkpt><trkpt lat="46.6267811" lon="12.6736491"><ele>1488.4285714285713</ele><time>2026-05-01T14:43:38.003Z</time></trkpt><trkpt lat="46.6267803" lon="12.6735357"><ele>1487.7142857142856</ele><time>2026-05-01T14:43:39.006Z</time></trkpt><trkpt lat="46.6267842" lon="12.6734306"><ele>1487.0</ele><time>2026-05-01T14:43:40.005Z</time></trkpt><trkpt lat="46.6267887" lon="12.6733248"><ele>1486.4285714285713</ele><time>2026-05-01T14:43:40.999Z</time></trkpt><trkpt lat="46.6267882" lon="12.6732165"><ele>1485.857142857143</ele><time>2026-05-01T14:43:42Z</time></trkpt><trkpt lat="46.6267955" lon="12.6731067"><ele>1485.2857142857142</ele><time>2026-05-01T14:43:43.002Z</time></trkpt><trkpt lat="46.6268048" lon="12.6729977"><ele>1484.7142857142858</ele><time>2026-05-01T14:43:44.006Z</time></trkpt><trkpt lat="46.6268142" lon="12.6728896"><ele>1484.142857142857</ele><time>2026-05-01T14:43:44.994Z</time></trkpt><trkpt lat="46.6268291" lon="12.6727846"><ele>1483.5714285714284</ele><time>2026-05-01T14:43:46.007Z</time></trkpt><trkpt lat="46.6268544" lon="12.6726852"><ele>1483.0</ele><time>2026-05-01T14:43:46.996Z</time></trkpt><trkpt lat="46.6268851" lon="12.6725816"><ele>1482.0</ele><time>2026-05-01T14:43:47.996Z</time></trkpt><trkpt lat="46.6269239" lon="12.672481"><ele>1481.0</ele><time>2026-05-01T14:43:48.998Z</time></trkpt><trkpt lat="46.6269912" lon="12.6723573"><ele>1480.0</ele><time>2026-05-01T14:43:50.999Z</time></trkpt><trkpt lat="46.6269964" lon="12.6722652"><ele>1479.0</ele><time>2026-05-01T14:43:53.003Z</time></trkpt><trkpt lat="46.6269159" lon="12.6722147"><ele>1478.0</ele><time>2026-05-01T14:43:56.001Z</time></trkpt><trkpt lat="46.6268337" lon="12.6722971"><ele>1477.0</ele><time>2026-05-01T14:43:58.001Z</time></trkpt><trkpt lat="46.6267793" lon="12.6724212"><ele>1477.0</ele><time>2026-05-01T14:44:00.01Z</time></trkpt><trkpt lat="46.6267426" lon="12.6725016"><ele>1477.0</ele><time>2026-05-01T14:44:00.998Z</time></trkpt><trkpt lat="46.6266971" lon="12.6725863"><ele>1477.0</ele><time>2026-05-01T14:44:01.995Z</time></trkpt><trkpt lat="46.6266436" lon="12.6726733"><ele>1477.0</ele><time>2026-05-01T14:44:03Z</time></trkpt><trkpt lat="46.6265911" lon="12.6727463"><ele>1477.0</ele><time>2026-05-01T14:44:03.998Z</time></trkpt><trkpt lat="46.6265464" lon="12.6728209"><ele>1477.0</ele><time>2026-05-01T14:44:05.001Z</time></trkpt><trkpt lat="46.6265072" lon="12.6728936"><ele>1477.0</ele><time>2026-05-01T14:44:06.001Z</time></trkpt><trkpt lat="46.6264543" lon="12.6730573"><ele>1478.0</ele><time>2026-05-01T14:44:08Z</time></trkpt><trkpt lat="46.6264352" lon="12.6731933"><ele>1479.0</ele><time>2026-05-01T14:44:10.015Z</time></trkpt><trkpt lat="46.6263891" lon="12.673268"><ele>1480.0</ele><time>2026-05-01T14:44:12.998Z</time></trkpt><trkpt lat="46.6263298" lon="12.6732361"><ele>1481.0</ele><time>2026-05-01T14:44:15Z</time></trkpt><trkpt lat="46.626301" lon="12.6731274"><ele>1482.0</ele><time>2026-05-01T14:44:17.007Z</time></trkpt><trkpt lat="46.6263024" lon="12.6730276"><ele>1483.0</ele><time>2026-05-01T14:44:17.997Z</time></trkpt><trkpt lat="46.6262969" lon="12.6729172"><ele>1483.0</ele><time>2026-05-01T14:44:19.001Z</time></trkpt><trkpt lat="46.6262858" lon="12.672799"><ele>1483.0</ele><time>2026-05-01T14:44:19.999Z</time></trkpt><trkpt lat="46.6262721" lon="12.6726976"><ele>1483.0</ele><time>2026-05-01T14:44:21.001Z</time></trkpt><trkpt lat="46.6262589" lon="12.6725988"><ele>1483.0</ele><time>2026-05-01T14:44:22Z</time></trkpt><trkpt lat="46.6262481" lon="12.6724961"><ele>1483.0</ele><time>2026-05-01T14:44:23.005Z</time></trkpt><trkpt lat="46.6262472" lon="12.6723884"><ele>1483.0</ele><time>2026-05-01T14:44:24Z</time></trkpt><trkpt lat="46.6262593" lon="12.6722868"><ele>1483.0</ele><time>2026-05-01T14:44:25.001Z</time></trkpt><trkpt lat="46.6262816" lon="12.6721935"><ele>1482.0</ele><time>2026-05-01T14:44:26.005Z</time></trkpt><trkpt lat="46.6263275" lon="12.6720522"><ele>1481.0</ele><time>2026-05-01T14:44:27.996Z</time></trkpt><trkpt lat="46.6262874" lon="12.6719565"><ele>1480.0</ele><time>2026-05-01T14:44:31.008Z</time></trkpt><trkpt lat="46.6262114" lon="12.6719922"><ele>1479.0</ele><time>2026-05-01T14:44:32.999Z</time></trkpt><trkpt lat="46.626161" lon="12.6720519"><ele>1478.0</ele><time>2026-05-01T14:44:34.995Z</time></trkpt><trkpt lat="46.6260903" lon="12.6719944"><ele>1477.0</ele><time>2026-05-01T14:44:37.997Z</time></trkpt><trkpt lat="46.626112" lon="12.6718738"><ele>1474.5</ele><time>2026-05-01T14:44:39.994Z</time></trkpt><trkpt lat="46.6261791" lon="12.6717686"><ele>1472.0</ele><time>2026-05-01T14:44:42.005Z</time></trkpt><trkpt lat="46.6261706" lon="12.6716448"><ele>1469.5</ele><time>2026-05-01T14:44:45.014Z</time></trkpt><trkpt lat="46.6261" lon="12.6716098"><ele>1467.0</ele><time>2026-05-01T14:44:48.001Z</time></trkpt><trkpt lat="46.6260274" lon="12.6716844"><ele>1464.5</ele><time>2026-05-01T14:44:50.011Z</time></trkpt><trkpt lat="46.6259856" lon="12.6717667"><ele>1462.0</ele><time>2026-05-01T14:44:50.998Z</time></trkpt><trkpt lat="46.6259213" lon="12.6718976"><ele>1459.1666666666665</ele><time>2026-05-01T14:44:52.996Z</time></trkpt><trkpt lat="46.6258931" lon="12.672015"><ele>1456.3333333333333</ele><time>2026-05-01T14:44:54.997Z</time></trkpt><trkpt lat="46.6258229" lon="12.6720842"><ele>1453.5</ele><time>2026-05-01T14:44:57.995Z</time></trkpt><trkpt lat="46.6257723" lon="12.6720141"><ele>1450.6666666666667</ele><time>2026-05-01T14:45:00.001Z</time></trkpt><trkpt lat="46.6257803" lon="12.6718638"><ele>1447.8333333333335</ele><time>2026-05-01T14:45:01.996Z</time></trkpt><trkpt lat="46.6257909" lon="12.6717662"><ele>1445.0</ele><time>2026-05-01T14:45:02.996Z</time></trkpt><trkpt lat="46.6257979" lon="12.671646"><ele>1444.3333333333335</ele><time>2026-05-01T14:45:03.999Z</time></trkpt><trkpt lat="46.6258116" lon="12.6715331"><ele>1443.6666666666667</ele><time>2026-05-01T14:45:05.002Z</time></trkpt><trkpt lat="46.6258235" lon="12.6714292"><ele>1443.0</ele><time>2026-05-01T14:45:06.01Z</time></trkpt><trkpt lat="46.6258427" lon="12.6713306"><ele>1442.3333333333333</ele><time>2026-05-01T14:45:06.999Z</time></trkpt><trkpt lat="46.625864" lon="12.6712386"><ele>1441.6666666666665</ele><time>2026-05-01T14:45:08.006Z</time></trkpt><trkpt lat="46.6259081" lon="12.6710881"><ele>1441.0</ele><time>2026-05-01T14:45:10Z</time></trkpt><trkpt lat="46.625915" lon="12.6709892"><ele>1438.8333333333333</ele><time>2026-05-01T14:45:12.003Z</time></trkpt><trkpt lat="46.6258588" lon="12.6709289"><ele>1436.6666666666665</ele><time>2026-05-01T14:45:14.005Z</time></trkpt><trkpt lat="46.6257738" lon="12.6709602"><ele>1434.5</ele><time>2026-05-01T14:45:16.001Z</time></trkpt><trkpt lat="46.6257186" lon="12.6710395"><ele>1432.3333333333333</ele><time>2026-05-01T14:45:17.999Z</time></trkpt><trkpt lat="46.6256535" lon="12.6709779"><ele>1430.1666666666667</ele><time>2026-05-01T14:45:22Z</time></trkpt><trkpt lat="46.6256873" lon="12.6708432"><ele>1428.0</ele><time>2026-05-01T14:45:24.001Z</time></trkpt><trkpt lat="46.6257655" lon="12.6707146"><ele>1428.0</ele><time>2026-05-01T14:45:25.994Z</time></trkpt><trkpt lat="46.6257944" lon="12.6705979"><ele>1428.0</ele><time>2026-05-01T14:45:27.995Z</time></trkpt><trkpt lat="46.6257398" lon="12.670519"><ele>1428.0</ele><time>2026-05-01T14:45:30.008Z</time></trkpt><trkpt lat="46.6256592" lon="12.6705238"><ele>1428.0</ele><time>2026-05-01T14:45:31.991Z</time></trkpt><trkpt lat="46.6256064" lon="12.6705763"><ele>1428.0</ele><time>2026-05-01T14:45:33.996Z</time></trkpt><trkpt lat="46.6255315" lon="12.6706718"><ele>1428.0</ele><time>2026-05-01T14:45:35.998Z</time></trkpt><trkpt lat="46.6254475" lon="12.6707883"><ele>1428.0</ele><time>2026-05-01T14:45:38Z</time></trkpt><trkpt lat="46.6253781" lon="12.6708877"><ele>1428.0</ele><time>2026-05-01T14:45:39.996Z</time></trkpt><trkpt lat="46.6253209" lon="12.6709996"><ele>1428.0</ele><time>2026-05-01T14:45:41.999Z</time></trkpt><trkpt lat="46.6252713" lon="12.67107"><ele>1428.0</ele><time>2026-05-01T14:45:43.999Z</time></trkpt><trkpt lat="46.6252204" lon="12.6709934"><ele>1428.0</ele><time>2026-05-01T14:45:46.008Z</time></trkpt><trkpt lat="46.6251899" lon="12.6708271"><ele>1423.8333333333333</ele><time>2026-05-01T14:45:47.999Z</time></trkpt><trkpt lat="46.6251805" lon="12.6707217"><ele>1419.6666666666667</ele><time>2026-05-01T14:45:49.01Z</time></trkpt><trkpt lat="46.6251719" lon="12.6706127"><ele>1415.5</ele><time>2026-05-01T14:45:49.999Z</time></trkpt><trkpt lat="46.6251667" lon="12.6705093"><ele>1411.3333333333335</ele><time>2026-05-01T14:45:50.998Z</time></trkpt><trkpt lat="46.6251691" lon="12.6704168"><ele>1407.1666666666667</ele><time>2026-05-01T14:45:52Z</time></trkpt><trkpt lat="46.6251966" lon="12.6702365"><ele>1403.0</ele><time>2026-05-01T14:45:53.998Z</time></trkpt><trkpt lat="46.6252242" lon="12.6701363"><ele>1402.0</ele><time>2026-05-01T14:45:54.993Z</time></trkpt><trkpt lat="46.6252517" lon="12.6700332"><ele>1401.0</ele><time>2026-05-01T14:45:56.007Z</time></trkpt><trkpt lat="46.6252838" lon="12.6699289"><ele>1400.0</ele><time>2026-05-01T14:45:57.001Z</time></trkpt><trkpt lat="46.6253162" lon="12.6698212"><ele>1399.0</ele><time>2026-05-01T14:45:57.996Z</time></trkpt><trkpt lat="46.6253452" lon="12.6697107"><ele>1398.0</ele><time>2026-05-01T14:45:59.006Z</time></trkpt><trkpt lat="46.6253752" lon="12.6695978"><ele>1397.0</ele><time>2026-05-01T14:45:59.994Z</time></trkpt><trkpt lat="46.6254021" lon="12.6694909"><ele>1398.0</ele><time>2026-05-01T14:46:01.007Z</time></trkpt><trkpt lat="46.6254277" lon="12.6693912"><ele>1399.0</ele><time>2026-05-01T14:46:02Z</time></trkpt><trkpt lat="46.6254481" lon="12.6693026"><ele>1400.0</ele><time>2026-05-01T14:46:02.997Z</time></trkpt><trkpt lat="46.6254712" lon="12.6691401"><ele>1401.0</ele><time>2026-05-01T14:46:05.001Z</time></trkpt><trkpt lat="46.6255175" lon="12.6690107"><ele>1402.0</ele><time>2026-05-01T14:46:07.004Z</time></trkpt><trkpt lat="46.625603" lon="12.6689645"><ele>1403.0</ele><time>2026-05-01T14:46:08.995Z</time></trkpt><trkpt lat="46.6256901" lon="12.6690039"><ele>1403.0</ele><time>2026-05-01T14:46:10.992Z</time></trkpt><trkpt lat="46.6257751" lon="12.6690601"><ele>1403.0</ele><time>2026-05-01T14:46:13.008Z</time></trkpt><trkpt lat="46.625833" lon="12.6691829"><ele>1403.0</ele><time>2026-05-01T14:46:15Z</time></trkpt><trkpt lat="46.6258767" lon="12.6692979"><ele>1403.0</ele><time>2026-05-01T14:46:17.004Z</time></trkpt><trkpt lat="46.6259731" lon="12.6693461"><ele>1403.0</ele><time>2026-05-01T14:46:18.996Z</time></trkpt><trkpt lat="46.6260448" lon="12.6692832"><ele>1403.0</ele><time>2026-05-01T14:46:20.995Z</time></trkpt><trkpt lat="46.6260414" lon="12.6690961"><ele>1403.0</ele><time>2026-05-01T14:46:23.017Z</time></trkpt><trkpt lat="46.6260211" lon="12.6689656"><ele>1403.0</ele><time>2026-05-01T14:46:23.998Z</time></trkpt><trkpt lat="46.6259958" lon="12.6688291"><ele>1403.0</ele><time>2026-05-01T14:46:25.004Z</time></trkpt><trkpt lat="46.6259726" lon="12.6686756"><ele>1403.0</ele><time>2026-05-01T14:46:26.006Z</time></trkpt><trkpt lat="46.6259445" lon="12.6685207"><ele>1401.6000000000001</ele><time>2026-05-01T14:46:26.993Z</time></trkpt><trkpt lat="46.6259239" lon="12.6683738"><ele>1400.2</ele><time>2026-05-01T14:46:28Z</time></trkpt><trkpt lat="46.6259132" lon="12.6682309"><ele>1398.8</ele><time>2026-05-01T14:46:28.999Z</time></trkpt><trkpt lat="46.6258994" lon="12.6680886"><ele>1397.4</ele><time>2026-05-01T14:46:29.997Z</time></trkpt><trkpt lat="46.625887" lon="12.6679484"><ele>1396.0</ele><time>2026-05-01T14:46:30.998Z</time></trkpt><trkpt lat="46.6258742" lon="12.6678141"><ele>1395.0</ele><time>2026-05-01T14:46:31.999Z</time></trkpt><trkpt lat="46.6258531" lon="12.6677002"><ele>1394.0</ele><time>2026-05-01T14:46:33.006Z</time></trkpt><trkpt lat="46.625827" lon="12.6675947"><ele>1393.0</ele><time>2026-05-01T14:46:34.004Z</time></trkpt><trkpt lat="46.6257831" lon="12.6675079"><ele>1392.0</ele><time>2026-05-01T14:46:35.011Z</time></trkpt><trkpt lat="46.6257293" lon="12.6674232"><ele>1391.0</ele><time>2026-05-01T14:46:35.997Z</time></trkpt><trkpt lat="46.6256691" lon="12.6673414"><ele>1390.0</ele><time>2026-05-01T14:46:36.999Z</time></trkpt><trkpt lat="46.62561" lon="12.6672704"><ele>1390.0</ele><time>2026-05-01T14:46:37.998Z</time></trkpt><trkpt lat="46.6255659" lon="12.6671981"><ele>1390.0</ele><time>2026-05-01T14:46:39Z</time></trkpt><trkpt lat="46.6255357" lon="12.6671003"><ele>1390.0</ele><time>2026-05-01T14:46:40.002Z</time></trkpt><trkpt lat="46.6255166" lon="12.6669734"><ele>1390.0</ele><time>2026-05-01T14:46:40.998Z</time></trkpt><trkpt lat="46.6254929" lon="12.6668433"><ele>1390.0</ele><time>2026-05-01T14:46:42.006Z</time></trkpt><trkpt lat="46.6254628" lon="12.6667131"><ele>1390.0</ele><time>2026-05-01T14:46:43.002Z</time></trkpt><trkpt lat="46.6254203" lon="12.6665716"><ele>1389.2</ele><time>2026-05-01T14:46:44.001Z</time></trkpt><trkpt lat="46.6253742" lon="12.6664352"><ele>1388.4</ele><time>2026-05-01T14:46:45.005Z</time></trkpt><trkpt lat="46.6253333" lon="12.6662991"><ele>1387.6</ele><time>2026-05-01T14:46:46Z</time></trkpt><trkpt lat="46.6253005" lon="12.6661712"><ele>1386.8</ele><time>2026-05-01T14:46:47.008Z</time></trkpt><trkpt lat="46.6252722" lon="12.6660431"><ele>1386.0</ele><time>2026-05-01T14:46:47.995Z</time></trkpt><trkpt lat="46.6252534" lon="12.6659244"><ele>1384.4</ele><time>2026-05-01T14:46:49.003Z</time></trkpt><trkpt lat="46.6252387" lon="12.6658071"><ele>1382.8</ele><time>2026-05-01T14:46:49.998Z</time></trkpt><trkpt lat="46.6252348" lon="12.6656928"><ele>1381.2</ele><time>2026-05-01T14:46:51.003Z</time></trkpt><trkpt lat="46.6252424" lon="12.6655868"><ele>1379.6000000000001</ele><time>2026-05-01T14:46:52.008Z</time></trkpt><trkpt lat="46.6252631" lon="12.6654298"><ele>1378.0</ele><time>2026-05-01T14:46:54.004Z</time></trkpt><trkpt lat="46.625254" lon="12.6652582"><ele>1376.1666666666665</ele><time>2026-05-01T14:46:56Z</time></trkpt><trkpt lat="46.6252268" lon="12.6651709"><ele>1374.3333333333333</ele><time>2026-05-01T14:46:57.003Z</time></trkpt><trkpt lat="46.6251862" lon="12.6650892"><ele>1372.5</ele><time>2026-05-01T14:46:57.999Z</time></trkpt><trkpt lat="46.6251509" lon="12.6650129"><ele>1370.6666666666667</ele><time>2026-05-01T14:46:58.995Z</time></trkpt><trkpt lat="46.6250787" lon="12.6648909"><ele>1368.8333333333335</ele><time>2026-05-01T14:47:00.997Z</time></trkpt><trkpt lat="46.6250187" lon="12.6648028"><ele>1367.0</ele><time>2026-05-01T14:47:03Z</time></trkpt><trkpt lat="46.6249663" lon="12.6647124"><ele>1367.0</ele><time>2026-05-01T14:47:04.999Z</time></trkpt><trkpt lat="46.6249055" lon="12.6646178"><ele>1367.0</ele><time>2026-05-01T14:47:07.004Z</time></trkpt><trkpt lat="46.6248587" lon="12.6645562"><ele>1367.0</ele><time>2026-05-01T14:47:07.995Z</time></trkpt><trkpt lat="46.6248016" lon="12.6644941"><ele>1367.0</ele><time>2026-05-01T14:47:09.012Z</time></trkpt><trkpt lat="46.6247327" lon="12.6644304"><ele>1367.0</ele><time>2026-05-01T14:47:10Z</time></trkpt><trkpt lat="46.6246653" lon="12.6643665"><ele>1367.0</ele><time>2026-05-01T14:47:10.999Z</time></trkpt><trkpt lat="46.6246131" lon="12.6643079"><ele>1365.2857142857144</ele><time>2026-05-01T14:47:11.997Z</time></trkpt><trkpt lat="46.6245666" lon="12.6642368"><ele>1363.5714285714284</ele><time>2026-05-01T14:47:12.997Z</time></trkpt><trkpt lat="46.6245207" lon="12.6641528"><ele>1361.857142857143</ele><time>2026-05-01T14:47:14Z</time></trkpt><trkpt lat="46.6244758" lon="12.6640672"><ele>1360.1428571428573</ele><time>2026-05-01T14:47:15.001Z</time></trkpt><trkpt lat="46.6244343" lon="12.6639903"><ele>1358.4285714285716</ele><time>2026-05-01T14:47:16.009Z</time></trkpt><trkpt lat="46.6243915" lon="12.6639057"><ele>1356.7142857142858</ele><time>2026-05-01T14:47:17.004Z</time></trkpt><trkpt lat="46.6243489" lon="12.6638163"><ele>1355.0</ele><time>2026-05-01T14:47:18.002Z</time></trkpt><trkpt lat="46.6243191" lon="12.6637341"><ele>1354.8</ele><time>2026-05-01T14:47:19.001Z</time></trkpt><trkpt lat="46.6243128" lon="12.6635781"><ele>1354.6</ele><time>2026-05-01T14:47:20.999Z</time></trkpt><trkpt lat="46.6243524" lon="12.6634717"><ele>1354.4</ele><time>2026-05-01T14:47:22.999Z</time></trkpt><trkpt lat="46.6244376" lon="12.6633729"><ele>1354.2</ele><time>2026-05-01T14:47:25Z</time></trkpt><trkpt lat="46.6245356" lon="12.663351"><ele>1354.0</ele><time>2026-05-01T14:47:27.004Z</time></trkpt><trkpt lat="46.6246304" lon="12.6633087"><ele>1354.0</ele><time>2026-05-01T14:47:29Z</time></trkpt><trkpt lat="46.6246516" lon="12.6631707"><ele>1354.0</ele><time>2026-05-01T14:47:30.999Z</time></trkpt><trkpt lat="46.6246526" lon="12.663078"><ele>1354.0</ele><time>2026-05-01T14:47:32.002Z</time></trkpt><trkpt lat="46.6246558" lon="12.6629194"><ele>1354.0</ele><time>2026-05-01T14:47:34.007Z</time></trkpt><trkpt lat="46.6246731" lon="12.662821"><ele>1354.0</ele><time>2026-05-01T14:47:35.999Z</time></trkpt><trkpt lat="46.6247453" lon="12.6627516"><ele>1354.0</ele><time>2026-05-01T14:47:39Z</time></trkpt><trkpt lat="46.6247932" lon="12.6626776"><ele>1354.6</ele><time>2026-05-01T14:47:42.996Z</time></trkpt><trkpt lat="46.6248505" lon="12.6625593"><ele>1355.2</ele><time>2026-05-01T14:47:46.002Z</time></trkpt><trkpt lat="46.624863" lon="12.6624312"><ele>1355.8</ele><time>2026-05-01T14:47:48.005Z</time></trkpt><trkpt lat="46.6247999" lon="12.6623388"><ele>1356.3999999999999</ele><time>2026-05-01T14:47:49.998Z</time></trkpt><trkpt lat="46.6247145" lon="12.662178"><ele>1357.0</ele><time>2026-05-01T14:47:52Z</time></trkpt><trkpt lat="46.6246639" lon="12.6620825"><ele>1357.0</ele><time>2026-05-01T14:47:53.014Z</time></trkpt><trkpt lat="46.6246147" lon="12.6619898"><ele>1357.0</ele><time>2026-05-01T14:47:54.005Z</time></trkpt><trkpt lat="46.6245666" lon="12.6618966"><ele>1357.0</ele><time>2026-05-01T14:47:55.002Z</time></trkpt><trkpt lat="46.6245219" lon="12.6617954"><ele>1357.0</ele><time>2026-05-01T14:47:56.005Z</time></trkpt><trkpt lat="46.6244786" lon="12.6616847"><ele>1357.0</ele><time>2026-05-01T14:47:57.003Z</time></trkpt><trkpt lat="46.6244401" lon="12.6615676"><ele>1357.0</ele><time>2026-05-01T14:47:58.004Z</time></trkpt><trkpt lat="46.6244032" lon="12.6614507"><ele>1356.8</ele><time>2026-05-01T14:47:58.992Z</time></trkpt><trkpt lat="46.6243718" lon="12.661318"><ele>1356.6</ele><time>2026-05-01T14:48:00.006Z</time></trkpt><trkpt lat="46.6243425" lon="12.6611757"><ele>1356.3999999999999</ele><time>2026-05-01T14:48:01.005Z</time></trkpt><trkpt lat="46.6243203" lon="12.6610325"><ele>1356.1999999999998</ele><time>2026-05-01T14:48:02.004Z</time></trkpt><trkpt lat="46.6243026" lon="12.6609049"><ele>1356.0</ele><time>2026-05-01T14:48:03.002Z</time></trkpt><trkpt lat="46.6242889" lon="12.6607792"><ele>1354.8333333333333</ele><time>2026-05-01T14:48:03.994Z</time></trkpt><trkpt lat="46.6242814" lon="12.6606461"><ele>1353.6666666666667</ele><time>2026-05-01T14:48:05.009Z</time></trkpt><trkpt lat="46.6242739" lon="12.6605151"><ele>1352.5</ele><time>2026-05-01T14:48:05.99Z</time></trkpt><trkpt lat="46.6242716" lon="12.6603873"><ele>1351.3333333333335</ele><time>2026-05-01T14:48:06.999Z</time></trkpt><trkpt lat="46.6242686" lon="12.6602618"><ele>1350.1666666666667</ele><time>2026-05-01T14:48:07.999Z</time></trkpt><trkpt lat="46.6242664" lon="12.6601296"><ele>1349.0</ele><time>2026-05-01T14:48:08.996Z</time></trkpt><trkpt lat="46.6242494" lon="12.6599968"><ele>1348.0</ele><time>2026-05-01T14:48:10.011Z</time></trkpt><trkpt lat="46.6242274" lon="12.6598713"><ele>1347.0</ele><time>2026-05-01T14:48:11.003Z</time></trkpt><trkpt lat="46.6242042" lon="12.6597544"><ele>1346.0</ele><time>2026-05-01T14:48:12.001Z</time></trkpt><trkpt lat="46.624164" lon="12.6596396"><ele>1345.0</ele><time>2026-05-01T14:48:13Z</time></trkpt><trkpt lat="46.6241272" lon="12.6595422"><ele>1344.0</ele><time>2026-05-01T14:48:13.997Z</time></trkpt><trkpt lat="46.6240741" lon="12.6594388"><ele>1343.0</ele><time>2026-05-01T14:48:14.999Z</time></trkpt><trkpt lat="46.6240381" lon="12.6593279"><ele>1342.8000000000002</ele><time>2026-05-01T14:48:16.003Z</time></trkpt><trkpt lat="46.6240025" lon="12.6592045"><ele>1342.6</ele><time>2026-05-01T14:48:17.007Z</time></trkpt><trkpt lat="46.6239705" lon="12.6590734"><ele>1342.4</ele><time>2026-05-01T14:48:17.997Z</time></trkpt><trkpt lat="46.6239313" lon="12.6589122"><ele>1342.1999999999998</ele><time>2026-05-01T14:48:18.998Z</time></trkpt><trkpt lat="46.6238902" lon="12.6587268"><ele>1342.0</ele><time>2026-05-01T14:48:20.006Z</time></trkpt><trkpt lat="46.6238459" lon="12.658548"><ele>1340.5</ele><time>2026-05-01T14:48:20.999Z</time></trkpt><trkpt lat="46.6237899" lon="12.6583596"><ele>1339.0</ele><time>2026-05-01T14:48:21.999Z</time></trkpt><trkpt lat="46.6237359" lon="12.6581756"><ele>1337.5</ele><time>2026-05-01T14:48:22.994Z</time></trkpt><trkpt lat="46.6236804" lon="12.6579965"><ele>1336.0</ele><time>2026-05-01T14:48:24.002Z</time></trkpt><trkpt lat="46.6236243" lon="12.6578158"><ele>1332.5</ele><time>2026-05-01T14:48:25.002Z</time></trkpt><trkpt lat="46.6235685" lon="12.6576371"><ele>1329.0</ele><time>2026-05-01T14:48:26.006Z</time></trkpt><trkpt lat="46.6235194" lon="12.6574652"><ele>1325.5</ele><time>2026-05-01T14:48:27Z</time></trkpt><trkpt lat="46.6234845" lon="12.6573073"><ele>1322.0</ele><time>2026-05-01T14:48:28.006Z</time></trkpt><trkpt lat="46.6234455" lon="12.6571537"><ele>1322.0</ele><time>2026-05-01T14:48:28.999Z</time></trkpt><trkpt lat="46.6234055" lon="12.6570091"><ele>1322.0</ele><time>2026-05-01T14:48:30.002Z</time></trkpt><trkpt lat="46.6233638" lon="12.656863"><ele>1322.0</ele><time>2026-05-01T14:48:30.994Z</time></trkpt><trkpt lat="46.623308" lon="12.6567248"><ele>1322.0</ele><time>2026-05-01T14:48:32.006Z</time></trkpt><trkpt lat="46.6232439" lon="12.6565827"><ele>1322.0</ele><time>2026-05-01T14:48:33.008Z</time></trkpt><trkpt lat="46.6231768" lon="12.6564305"><ele>1322.75</ele><time>2026-05-01T14:48:34Z</time></trkpt><trkpt lat="46.6231181" lon="12.65628"><ele>1323.5</ele><time>2026-05-01T14:48:35Z</time></trkpt><trkpt lat="46.623061" lon="12.6561318"><ele>1324.25</ele><time>2026-05-01T14:48:36.011Z</time></trkpt><trkpt lat="46.6229982" lon="12.6559835"><ele>1325.0</ele><time>2026-05-01T14:48:36.997Z</time></trkpt><trkpt lat="46.622935" lon="12.6558077"><ele>1325.25</ele><time>2026-05-01T14:48:38.011Z</time></trkpt><trkpt lat="46.6228645" lon="12.6556112"><ele>1325.5</ele><time>2026-05-01T14:48:38.997Z</time></trkpt><trkpt lat="46.6227942" lon="12.6554189"><ele>1325.75</ele><time>2026-05-01T14:48:39.999Z</time></trkpt><trkpt lat="46.6227246" lon="12.6552411"><ele>1326.0</ele><time>2026-05-01T14:48:41Z</time></trkpt><trkpt lat="46.6226489" lon="12.6550654"><ele>1326.75</ele><time>2026-05-01T14:48:42Z</time></trkpt><trkpt lat="46.6225668" lon="12.6548976"><ele>1327.5</ele><time>2026-05-01T14:48:42.999Z</time></trkpt><trkpt lat="46.6224899" lon="12.6547333"><ele>1328.25</ele><time>2026-05-01T14:48:44Z</time></trkpt><trkpt lat="46.6224119" lon="12.6545793"><ele>1329.0</ele><time>2026-05-01T14:48:45.005Z</time></trkpt><trkpt lat="46.6223356" lon="12.6544082"><ele>1329.5</ele><time>2026-05-01T14:48:45.997Z</time></trkpt><trkpt lat="46.6222648" lon="12.6542378"><ele>1330.0</ele><time>2026-05-01T14:48:47.002Z</time></trkpt><trkpt lat="46.6222011" lon="12.6540668"><ele>1330.5</ele><time>2026-05-01T14:48:48Z</time></trkpt><trkpt lat="46.6221413" lon="12.6538942"><ele>1331.0</ele><time>2026-05-01T14:48:49.004Z</time></trkpt><trkpt lat="46.6220879" lon="12.6537169"><ele>1332.25</ele><time>2026-05-01T14:48:50.008Z</time></trkpt><trkpt lat="46.6220429" lon="12.6535355"><ele>1333.5</ele><time>2026-05-01T14:48:50.997Z</time></trkpt><trkpt lat="46.6220005" lon="12.6533567"><ele>1334.75</ele><time>2026-05-01T14:48:52.01Z</time></trkpt><trkpt lat="46.6219622" lon="12.6531885"><ele>1336.0</ele><time>2026-05-01T14:48:53.003Z</time></trkpt><trkpt lat="46.6219232" lon="12.6530163"><ele>1336.0</ele><time>2026-05-01T14:48:54.009Z</time></trkpt><trkpt lat="46.6218842" lon="12.6528363"><ele>1336.0</ele><time>2026-05-01T14:48:55.008Z</time></trkpt><trkpt lat="46.6218482" lon="12.6526548"><ele>1336.0</ele><time>2026-05-01T14:48:55.999Z</time></trkpt><trkpt lat="46.6218017" lon="12.6524788"><ele>1336.0</ele><time>2026-05-01T14:48:57.01Z</time></trkpt><trkpt lat="46.6217446" lon="12.6523084"><ele>1336.0</ele><time>2026-05-01T14:48:58.005Z</time></trkpt><trkpt lat="46.6216878" lon="12.6521363"><ele>1336.0</ele><time>2026-05-01T14:48:59.001Z</time></trkpt><trkpt lat="46.6216262" lon="12.6519694"><ele>1336.0</ele><time>2026-05-01T14:49:00.005Z</time></trkpt><trkpt lat="46.6215671" lon="12.651796"><ele>1336.0</ele><time>2026-05-01T14:49:00.996Z</time></trkpt><trkpt lat="46.6215155" lon="12.6516168"><ele>1336.0</ele><time>2026-05-01T14:49:02.014Z</time></trkpt><trkpt lat="46.6214842" lon="12.6514272"><ele>1336.0</ele><time>2026-05-01T14:49:02.999Z</time></trkpt><trkpt lat="46.6214575" lon="12.6512281"><ele>1336.0</ele><time>2026-05-01T14:49:04.001Z</time></trkpt><trkpt lat="46.6214363" lon="12.6510222"><ele>1336.0</ele><time>2026-05-01T14:49:04.992Z</time></trkpt><trkpt lat="46.6214145" lon="12.6508022"><ele>1336.6666666666665</ele><time>2026-05-01T14:49:05.998Z</time></trkpt><trkpt lat="46.6213964" lon="12.6505765"><ele>1337.3333333333333</ele><time>2026-05-01T14:49:07.002Z</time></trkpt><trkpt lat="46.6213762" lon="12.6503512"><ele>1338.0</ele><time>2026-05-01T14:49:07.994Z</time></trkpt><trkpt lat="46.6213474" lon="12.65013"><ele>1338.0</ele><time>2026-05-01T14:49:09.006Z</time></trkpt><trkpt lat="46.621314" lon="12.6499114"><ele>1338.0</ele><time>2026-05-01T14:49:10.006Z</time></trkpt><trkpt lat="46.6212677" lon="12.6496966"><ele>1338.0</ele><time>2026-05-01T14:49:11.002Z</time></trkpt><trkpt lat="46.6212192" lon="12.649492"><ele>1338.75</ele><time>2026-05-01T14:49:12.012Z</time></trkpt><trkpt lat="46.6211734" lon="12.6493001"><ele>1339.5</ele><time>2026-05-01T14:49:12.997Z</time></trkpt><trkpt lat="46.6211239" lon="12.6491166"><ele>1340.25</ele><time>2026-05-01T14:49:13.993Z</time></trkpt><trkpt lat="46.6210789" lon="12.648934"><ele>1341.0</ele><time>2026-05-01T14:49:15.002Z</time></trkpt><trkpt lat="46.621044" lon="12.6487485"><ele>1338.75</ele><time>2026-05-01T14:49:16Z</time></trkpt><trkpt lat="46.6210059" lon="12.6485604"><ele>1336.5</ele><time>2026-05-01T14:49:17.01Z</time></trkpt><trkpt lat="46.6209699" lon="12.6483807"><ele>1334.25</ele><time>2026-05-01T14:49:17.999Z</time></trkpt><trkpt lat="46.6209384" lon="12.6482068"><ele>1332.0</ele><time>2026-05-01T14:49:19.004Z</time></trkpt><trkpt lat="46.6209081" lon="12.6480559"><ele>1332.0</ele><time>2026-05-01T14:49:19.999Z</time></trkpt><trkpt lat="46.6208819" lon="12.6479217"><ele>1332.0</ele><time>2026-05-01T14:49:21.004Z</time></trkpt><trkpt lat="46.6208512" lon="12.6477964"><ele>1332.0</ele><time>2026-05-01T14:49:21.999Z</time></trkpt><trkpt lat="46.620809" lon="12.647693"><ele>1332.0</ele><time>2026-05-01T14:49:23.009Z</time></trkpt><trkpt lat="46.6207621" lon="12.6476037"><ele>1332.0</ele><time>2026-05-01T14:49:24.006Z</time></trkpt><trkpt lat="46.6207046" lon="12.6475275"><ele>1332.0</ele><time>2026-05-01T14:49:25.001Z</time></trkpt><trkpt lat="46.6206361" lon="12.6474425"><ele>1331.5</ele><time>2026-05-01T14:49:26.004Z</time></trkpt><trkpt lat="46.6205553" lon="12.647332"><ele>1331.0</ele><time>2026-05-01T14:49:26.997Z</time></trkpt><trkpt lat="46.620465" lon="12.6472163"><ele>1330.5</ele><time>2026-05-01T14:49:28.004Z</time></trkpt><trkpt lat="46.6203765" lon="12.647103"><ele>1330.0</ele><time>2026-05-01T14:49:29Z</time></trkpt><trkpt lat="46.6202904" lon="12.646996"><ele>1325.6</ele><time>2026-05-01T14:49:30.006Z</time></trkpt><trkpt lat="46.6202145" lon="12.6468827"><ele>1321.2</ele><time>2026-05-01T14:49:30.999Z</time></trkpt><trkpt lat="46.6201493" lon="12.6467652"><ele>1316.8000000000002</ele><time>2026-05-01T14:49:31.996Z</time></trkpt><trkpt lat="46.6200868" lon="12.6466431"><ele>1312.4</ele><time>2026-05-01T14:49:33.001Z</time></trkpt><trkpt lat="46.6200271" lon="12.6465298"><ele>1308.0</ele><time>2026-05-01T14:49:34.004Z</time></trkpt><trkpt lat="46.6199736" lon="12.6464159"><ele>1308.0</ele><time>2026-05-01T14:49:35.008Z</time></trkpt><trkpt lat="46.6199313" lon="12.6463021"><ele>1308.0</ele><time>2026-05-01T14:49:36.008Z</time></trkpt><trkpt lat="46.6198993" lon="12.6461838"><ele>1308.0</ele><time>2026-05-01T14:49:37.002Z</time></trkpt><trkpt lat="46.6198791" lon="12.6460606"><ele>1308.0</ele><time>2026-05-01T14:49:37.995Z</time></trkpt><trkpt lat="46.61987" lon="12.6459431"><ele>1308.0</ele><time>2026-05-01T14:49:39Z</time></trkpt><trkpt lat="46.6198742" lon="12.6458427"><ele>1308.0</ele><time>2026-05-01T14:49:40.002Z</time></trkpt><trkpt lat="46.6199226" lon="12.6456904"><ele>1307.5</ele><time>2026-05-01T14:49:42.002Z</time></trkpt><trkpt lat="46.6199653" lon="12.6456159"><ele>1307.0</ele><time>2026-05-01T14:49:42.995Z</time></trkpt><trkpt lat="46.6200222" lon="12.6455387"><ele>1306.5</ele><time>2026-05-01T14:49:43.996Z</time></trkpt><trkpt lat="46.6200906" lon="12.6454699"><ele>1306.0</ele><time>2026-05-01T14:49:44.997Z</time></trkpt><trkpt lat="46.6201698" lon="12.6454069"><ele>1305.5</ele><time>2026-05-01T14:49:46.004Z</time></trkpt><trkpt lat="46.6202409" lon="12.6453456"><ele>1305.0</ele><time>2026-05-01T14:49:46.996Z</time></trkpt><trkpt lat="46.6203031" lon="12.6452901"><ele>1305.4</ele><time>2026-05-01T14:49:48.003Z</time></trkpt><trkpt lat="46.620363" lon="12.6452257"><ele>1305.8</ele><time>2026-05-01T14:49:49Z</time></trkpt><trkpt lat="46.6204215" lon="12.6451757"><ele>1306.1999999999998</ele><time>2026-05-01T14:49:50.009Z</time></trkpt><trkpt lat="46.6205256" lon="12.6450724"><ele>1306.6</ele><time>2026-05-01T14:49:52.009Z</time></trkpt><trkpt lat="46.620594" lon="12.6449168"><ele>1307.0</ele><time>2026-05-01T14:49:54.006Z</time></trkpt><trkpt lat="46.6206146" lon="12.6448241"><ele>1307.0</ele><time>2026-05-01T14:49:55.001Z</time></trkpt><trkpt lat="46.6206286" lon="12.6447173"><ele>1307.0</ele><time>2026-05-01T14:49:55.998Z</time></trkpt><trkpt lat="46.6206468" lon="12.6446154"><ele>1307.0</ele><time>2026-05-01T14:49:56.999Z</time></trkpt><trkpt lat="46.6206804" lon="12.6445143"><ele>1307.0</ele><time>2026-05-01T14:49:57.997Z</time></trkpt><trkpt lat="46.6207256" lon="12.6444156"><ele>1307.0</ele><time>2026-05-01T14:49:59.006Z</time></trkpt><trkpt lat="46.6207741" lon="12.644315"><ele>1307.0</ele><time>2026-05-01T14:50:00.01Z</time></trkpt><trkpt lat="46.6208216" lon="12.6442215"><ele>1305.8333333333335</ele><time>2026-05-01T14:50:00.999Z</time></trkpt><trkpt lat="46.620866" lon="12.6441216"><ele>1304.6666666666667</ele><time>2026-05-01T14:50:02.002Z</time></trkpt><trkpt lat="46.6209103" lon="12.6440135"><ele>1303.5</ele><time>2026-05-01T14:50:03.001Z</time></trkpt><trkpt lat="46.6209516" lon="12.6439056"><ele>1302.3333333333333</ele><time>2026-05-01T14:50:04.007Z</time></trkpt><trkpt lat="46.6209872" lon="12.6437945"><ele>1301.1666666666665</ele><time>2026-05-01T14:50:04.997Z</time></trkpt><trkpt lat="46.6210216" lon="12.6436881"><ele>1300.0</ele><time>2026-05-01T14:50:06.007Z</time></trkpt><trkpt lat="46.6210559" lon="12.6435792"><ele>1298.7142857142856</ele><time>2026-05-01T14:50:07.006Z</time></trkpt><trkpt lat="46.6210901" lon="12.6434758"><ele>1297.4285714285716</ele><time>2026-05-01T14:50:08Z</time></trkpt><trkpt lat="46.6211254" lon="12.6433877"><ele>1296.142857142857</ele><time>2026-05-01T14:50:08.995Z</time></trkpt><trkpt lat="46.6211691" lon="12.6433"><ele>1294.8571428571427</ele><time>2026-05-01T14:50:10.003Z</time></trkpt><trkpt lat="46.6212068" lon="12.6432166"><ele>1293.5714285714284</ele><time>2026-05-01T14:50:11.001Z</time></trkpt><trkpt lat="46.6212576" lon="12.6431321"><ele>1292.2857142857142</ele><time>2026-05-01T14:50:12Z</time></trkpt><trkpt lat="46.6213013" lon="12.6430502"><ele>1291.0</ele><time>2026-05-01T14:50:13.008Z</time></trkpt><trkpt lat="46.6213492" lon="12.6429654"><ele>1292.142857142857</ele><time>2026-05-01T14:50:14.006Z</time></trkpt><trkpt lat="46.6213918" lon="12.6428735"><ele>1293.2857142857142</ele><time>2026-05-01T14:50:14.998Z</time></trkpt><trkpt lat="46.6214249" lon="12.6427741"><ele>1294.4285714285716</ele><time>2026-05-01T14:50:16.005Z</time></trkpt><trkpt lat="46.6214515" lon="12.642689"><ele>1295.5714285714284</ele><time>2026-05-01T14:50:17.005Z</time></trkpt><trkpt lat="46.6214522" lon="12.6425949"><ele>1296.7142857142858</ele><time>2026-05-01T14:50:17.995Z</time></trkpt><trkpt lat="46.6214235" lon="12.6425038"><ele>1297.857142857143</ele><time>2026-05-01T14:50:19.015Z</time></trkpt><trkpt lat="46.6213888" lon="12.642411"><ele>1299.0</ele><time>2026-05-01T14:50:20.001Z</time></trkpt><trkpt lat="46.6213511" lon="12.642314"><ele>1299.0</ele><time>2026-05-01T14:50:21.006Z</time></trkpt><trkpt lat="46.6213302" lon="12.6422112"><ele>1299.0</ele><time>2026-05-01T14:50:22.003Z</time></trkpt><trkpt lat="46.6213261" lon="12.642079"><ele>1299.0</ele><time>2026-05-01T14:50:23.005Z</time></trkpt><trkpt lat="46.6213464" lon="12.6419223"><ele>1299.0</ele><time>2026-05-01T14:50:24.011Z</time></trkpt><trkpt lat="46.6213694" lon="12.6417806"><ele>1299.0</ele><time>2026-05-01T14:50:24.999Z</time></trkpt><trkpt lat="46.621402" lon="12.6416487"><ele>1298.8333333333333</ele><time>2026-05-01T14:50:26.002Z</time></trkpt><trkpt lat="46.6214442" lon="12.6415227"><ele>1298.6666666666667</ele><time>2026-05-01T14:50:27.006Z</time></trkpt><trkpt lat="46.6214839" lon="12.6414121"><ele>1298.5</ele><time>2026-05-01T14:50:28.003Z</time></trkpt><trkpt lat="46.6215262" lon="12.6413044"><ele>1298.3333333333335</ele><time>2026-05-01T14:50:29.001Z</time></trkpt><trkpt lat="46.6215649" lon="12.6411921"><ele>1298.1666666666667</ele><time>2026-05-01T14:50:30.002Z</time></trkpt><trkpt lat="46.6216025" lon="12.6410782"><ele>1298.0</ele><time>2026-05-01T14:50:31.001Z</time></trkpt><trkpt lat="46.6216396" lon="12.6409555"><ele>1298.4</ele><time>2026-05-01T14:50:31.998Z</time></trkpt><trkpt lat="46.621688" lon="12.6408309"><ele>1298.8000000000002</ele><time>2026-05-01T14:50:33.006Z</time></trkpt><trkpt lat="46.621739" lon="12.6407203"><ele>1299.2</ele><time>2026-05-01T14:50:33.998Z</time></trkpt><trkpt lat="46.6217878" lon="12.6406152"><ele>1299.6</ele><time>2026-05-01T14:50:35.011Z</time></trkpt><trkpt lat="46.6218426" lon="12.6405052"><ele>1300.0</ele><time>2026-05-01T14:50:35.999Z</time></trkpt><trkpt lat="46.6218952" lon="12.6403874"><ele>1301.1666666666665</ele><time>2026-05-01T14:50:37.006Z</time></trkpt><trkpt lat="46.6219391" lon="12.640264"><ele>1302.3333333333333</ele><time>2026-05-01T14:50:37.999Z</time></trkpt><trkpt lat="46.6219672" lon="12.6401315"><ele>1303.5</ele><time>2026-05-01T14:50:39.01Z</time></trkpt><trkpt lat="46.6219973" lon="12.6400159"><ele>1304.6666666666667</ele><time>2026-05-01T14:50:40.012Z</time></trkpt><trkpt lat="46.6220245" lon="12.6399066"><ele>1305.8333333333335</ele><time>2026-05-01T14:50:41Z</time></trkpt><trkpt lat="46.622047" lon="12.6397865"><ele>1307.0</ele><time>2026-05-01T14:50:42.007Z</time></trkpt><trkpt lat="46.6220693" lon="12.6396677"><ele>1309.5</ele><time>2026-05-01T14:50:43Z</time></trkpt><trkpt lat="46.6220828" lon="12.639548"><ele>1312.0</ele><time>2026-05-01T14:50:44.002Z</time></trkpt><trkpt lat="46.622094" lon="12.6394236"><ele>1314.5</ele><time>2026-05-01T14:50:45.006Z</time></trkpt><trkpt lat="46.6220985" lon="12.6392984"><ele>1317.0</ele><time>2026-05-01T14:50:45.999Z</time></trkpt><trkpt lat="46.6221046" lon="12.6391631"><ele>1319.5</ele><time>2026-05-01T14:50:47.011Z</time></trkpt><trkpt lat="46.6221115" lon="12.63902"><ele>1322.0</ele><time>2026-05-01T14:50:47.996Z</time></trkpt><trkpt lat="46.6221235" lon="12.638884"><ele>1322.0</ele><time>2026-05-01T14:50:49.003Z</time></trkpt><trkpt lat="46.6221495" lon="12.6387503"><ele>1322.0</ele><time>2026-05-01T14:50:49.999Z</time></trkpt><trkpt lat="46.6221816" lon="12.6386152"><ele>1322.0</ele><time>2026-05-01T14:50:51.005Z</time></trkpt><trkpt lat="46.6222243" lon="12.6384825"><ele>1322.0</ele><time>2026-05-01T14:50:52.008Z</time></trkpt><trkpt lat="46.6222786" lon="12.6383588"><ele>1322.0</ele><time>2026-05-01T14:50:52.999Z</time></trkpt><trkpt lat="46.6223334" lon="12.6382395"><ele>1319.6</ele><time>2026-05-01T14:50:54Z</time></trkpt><trkpt lat="46.6223889" lon="12.6381209"><ele>1317.1999999999998</ele><time>2026-05-01T14:50:54.995Z</time></trkpt><trkpt lat="46.6224385" lon="12.6380029"><ele>1314.8</ele><time>2026-05-01T14:50:56.001Z</time></trkpt><trkpt lat="46.622509" lon="12.6378788"><ele>1312.4</ele><time>2026-05-01T14:50:57.009Z</time></trkpt><trkpt lat="46.6225924" lon="12.6377532"><ele>1310.0</ele><time>2026-05-01T14:50:58Z</time></trkpt><trkpt lat="46.6226864" lon="12.637642"><ele>1310.6</ele><time>2026-05-01T14:50:58.999Z</time></trkpt><trkpt lat="46.6227717" lon="12.6375345"><ele>1311.2</ele><time>2026-05-01T14:50:59.996Z</time></trkpt><trkpt lat="46.6228494" lon="12.6374413"><ele>1311.8000000000002</ele><time>2026-05-01T14:51:01.006Z</time></trkpt><trkpt lat="46.6229298" lon="12.6373505"><ele>1312.4</ele><time>2026-05-01T14:51:01.999Z</time></trkpt><trkpt lat="46.6230109" lon="12.6372775"><ele>1313.0</ele><time>2026-05-01T14:51:03.005Z</time></trkpt><trkpt lat="46.6230953" lon="12.6372218"><ele>1313.0</ele><time>2026-05-01T14:51:03.991Z</time></trkpt><trkpt lat="46.6231835" lon="12.6371772"><ele>1313.0</ele><time>2026-05-01T14:51:04.997Z</time></trkpt><trkpt lat="46.6232811" lon="12.6371413"><ele>1313.0</ele><time>2026-05-01T14:51:05.999Z</time></trkpt><trkpt lat="46.6233743" lon="12.6371034"><ele>1313.0</ele><time>2026-05-01T14:51:07.004Z</time></trkpt><trkpt lat="46.6234454" lon="12.6370831"><ele>1313.0</ele><time>2026-05-01T14:51:08.003Z</time></trkpt><trkpt lat="46.6235512" lon="12.6370033"><ele>1313.4</ele><time>2026-05-01T14:51:10.004Z</time></trkpt><trkpt lat="46.6235957" lon="12.6368813"><ele>1313.8000000000002</ele><time>2026-05-01T14:51:12Z</time></trkpt><trkpt lat="46.6236001" lon="12.6367643"><ele>1314.2</ele><time>2026-05-01T14:51:15.009Z</time></trkpt><trkpt lat="46.6235984" lon="12.6366672"><ele>1314.6</ele><time>2026-05-01T14:51:17Z</time></trkpt><trkpt lat="46.6236723" lon="12.6365559"><ele>1315.0</ele><time>2026-05-01T14:51:18.995Z</time></trkpt><trkpt lat="46.623773" lon="12.6364516"><ele>1315.0</ele><time>2026-05-01T14:51:20.998Z</time></trkpt><trkpt lat="46.6238258" lon="12.6363932"><ele>1315.0</ele><time>2026-05-01T14:51:22.004Z</time></trkpt><trkpt lat="46.6239266" lon="12.6362878"><ele>1315.0</ele><time>2026-05-01T14:51:24.006Z</time></trkpt><trkpt lat="46.6239849" lon="12.6362428"><ele>1315.0</ele><time>2026-05-01T14:51:25.001Z</time></trkpt><trkpt lat="46.6240884" lon="12.6361722"><ele>1315.0</ele><time>2026-05-01T14:51:27.003Z</time></trkpt><trkpt lat="46.6241918" lon="12.6361121"><ele>1315.7142857142858</ele><time>2026-05-01T14:51:29.003Z</time></trkpt><trkpt lat="46.6242494" lon="12.6360652"><ele>1316.4285714285716</ele><time>2026-05-01T14:51:30Z</time></trkpt><trkpt lat="46.6243051" lon="12.6360168"><ele>1317.1428571428573</ele><time>2026-05-01T14:51:30.997Z</time></trkpt><trkpt lat="46.6243564" lon="12.6359626"><ele>1317.857142857143</ele><time>2026-05-01T14:51:32.001Z</time></trkpt><trkpt lat="46.6244102" lon="12.635902"><ele>1318.5714285714287</ele><time>2026-05-01T14:51:33Z</time></trkpt><trkpt lat="46.6244734" lon="12.6358384"><ele>1319.2857142857144</ele><time>2026-05-01T14:51:34.004Z</time></trkpt><trkpt lat="46.6245293" lon="12.6357744"><ele>1320.0</ele><time>2026-05-01T14:51:34.992Z</time></trkpt><trkpt lat="46.6245935" lon="12.6357019"><ele>1320.8333333333333</ele><time>2026-05-01T14:51:36.002Z</time></trkpt><trkpt lat="46.6246597" lon="12.6356344"><ele>1321.6666666666667</ele><time>2026-05-01T14:51:36.998Z</time></trkpt><trkpt lat="46.6247228" lon="12.6355677"><ele>1322.5</ele><time>2026-05-01T14:51:37.998Z</time></trkpt><trkpt lat="46.6247886" lon="12.635482"><ele>1323.3333333333335</ele><time>2026-05-01T14:51:38.999Z</time></trkpt><trkpt lat="46.6248503" lon="12.6354076"><ele>1324.1666666666667</ele><time>2026-05-01T14:51:40.003Z</time></trkpt><trkpt lat="46.6249049" lon="12.6353431"><ele>1325.0</ele><time>2026-05-01T14:51:41.003Z</time></trkpt><trkpt lat="46.624997" lon="12.6352593"><ele>1326.6666666666667</ele><time>2026-05-01T14:51:43.003Z</time></trkpt><trkpt lat="46.6250337" lon="12.6351791"><ele>1328.3333333333335</ele><time>2026-05-01T14:51:45Z</time></trkpt><trkpt lat="46.6250555" lon="12.6350927"><ele>1330.0</ele><time>2026-05-01T14:51:46.005Z</time></trkpt><trkpt lat="46.625089" lon="12.6349754"><ele>1331.6666666666667</ele><time>2026-05-01T14:51:46.995Z</time></trkpt><trkpt lat="46.6251271" lon="12.6348365"><ele>1333.3333333333333</ele><time>2026-05-01T14:51:47.999Z</time></trkpt><trkpt lat="46.6251695" lon="12.6346838"><ele>1335.0</ele><time>2026-05-01T14:51:49.003Z</time></trkpt><trkpt lat="46.6252184" lon="12.6345046"><ele>1336.5</ele><time>2026-05-01T14:51:49.997Z</time></trkpt><trkpt lat="46.6252626" lon="12.6343344"><ele>1338.0</ele><time>2026-05-01T14:51:50.998Z</time></trkpt><trkpt lat="46.6253" lon="12.6341436"><ele>1339.5</ele><time>2026-05-01T14:51:51.996Z</time></trkpt><trkpt lat="46.625323" lon="12.6339609"><ele>1341.0</ele><time>2026-05-01T14:51:52.996Z</time></trkpt><trkpt lat="46.6253467" lon="12.6337962"><ele>1343.0</ele><time>2026-05-01T14:51:54.005Z</time></trkpt><trkpt lat="46.6253685" lon="12.6336351"><ele>1345.0</ele><time>2026-05-01T14:51:55.002Z</time></trkpt><trkpt lat="46.6253916" lon="12.6334692"><ele>1347.0</ele><time>2026-05-01T14:51:55.999Z</time></trkpt><trkpt lat="46.6254218" lon="12.6333065"><ele>1349.0</ele><time>2026-05-01T14:51:57.009Z</time></trkpt><trkpt lat="46.6254531" lon="12.6331498"><ele>1349.0</ele><time>2026-05-01T14:51:58.001Z</time></trkpt><trkpt lat="46.6254942" lon="12.6330017"><ele>1349.0</ele><time>2026-05-01T14:51:59.002Z</time></trkpt><trkpt lat="46.6255278" lon="12.6328673"><ele>1349.0</ele><time>2026-05-01T14:51:59.997Z</time></trkpt><trkpt lat="46.6255646" lon="12.6327445"><ele>1349.0</ele><time>2026-05-01T14:52:01.004Z</time></trkpt><trkpt lat="46.6256037" lon="12.6326444"><ele>1349.0</ele><time>2026-05-01T14:52:02.004Z</time></trkpt><trkpt lat="46.6256486" lon="12.6325741"><ele>1349.0</ele><time>2026-05-01T14:52:03.004Z</time></trkpt><trkpt lat="46.6257168" lon="12.6325041"><ele>1349.0</ele><time>2026-05-01T14:52:04.003Z</time></trkpt><trkpt lat="46.6258076" lon="12.6324331"><ele>1349.0</ele><time>2026-05-01T14:52:05.002Z</time></trkpt><trkpt lat="46.6259014" lon="12.6323601"><ele>1349.0</ele><time>2026-05-01T14:52:05.996Z</time></trkpt><trkpt lat="46.625998" lon="12.6322828"><ele>1349.0</ele><time>2026-05-01T14:52:06.998Z</time></trkpt><trkpt lat="46.6260915" lon="12.6322004"><ele>1349.0</ele><time>2026-05-01T14:52:08.008Z</time></trkpt><trkpt lat="46.6261734" lon="12.6321089"><ele>1349.3333333333335</ele><time>2026-05-01T14:52:09.002Z</time></trkpt><trkpt lat="46.6262456" lon="12.6320117"><ele>1349.6666666666667</ele><time>2026-05-01T14:52:09.994Z</time></trkpt><trkpt lat="46.62631" lon="12.631909"><ele>1350.0</ele><time>2026-05-01T14:52:10.998Z</time></trkpt><trkpt lat="46.6263732" lon="12.6318314"><ele>1350.3333333333333</ele><time>2026-05-01T14:52:11.999Z</time></trkpt><trkpt lat="46.6264421" lon="12.6317716"><ele>1350.6666666666665</ele><time>2026-05-01T14:52:13.005Z</time></trkpt><trkpt lat="46.626525" lon="12.6317189"><ele>1351.0</ele><time>2026-05-01T14:52:14.001Z</time></trkpt><trkpt lat="46.6266258" lon="12.6316805"><ele>1351.0</ele><time>2026-05-01T14:52:15.012Z</time></trkpt><trkpt lat="46.6267125" lon="12.6316437"><ele>1351.0</ele><time>2026-05-01T14:52:16Z</time></trkpt><trkpt lat="46.6267938" lon="12.6316139"><ele>1351.0</ele><time>2026-05-01T14:52:17.008Z</time></trkpt><trkpt lat="46.6268872" lon="12.6315605"><ele>1351.0</ele><time>2026-05-01T14:52:18Z</time></trkpt><trkpt lat="46.6269758" lon="12.6314965"><ele>1351.0</ele><time>2026-05-01T14:52:19.001Z</time></trkpt><trkpt lat="46.6270676" lon="12.6314311"><ele>1352.6</ele><time>2026-05-01T14:52:20.007Z</time></trkpt><trkpt lat="46.6271578" lon="12.6313853"><ele>1354.1999999999998</ele><time>2026-05-01T14:52:20.999Z</time></trkpt><trkpt lat="46.6272441" lon="12.6313585"><ele>1355.8000000000002</ele><time>2026-05-01T14:52:22.003Z</time></trkpt><trkpt lat="46.6273464" lon="12.6313468"><ele>1357.4</ele><time>2026-05-01T14:52:23.009Z</time></trkpt><trkpt lat="46.6274604" lon="12.6313535"><ele>1359.0</ele><time>2026-05-01T14:52:23.999Z</time></trkpt><trkpt lat="46.6275588" lon="12.6313558"><ele>1359.0</ele><time>2026-05-01T14:52:25.001Z</time></trkpt><trkpt lat="46.627659" lon="12.6313436"><ele>1359.0</ele><time>2026-05-01T14:52:26.007Z</time></trkpt><trkpt lat="46.6277633" lon="12.6313301"><ele>1359.0</ele><time>2026-05-01T14:52:26.999Z</time></trkpt><trkpt lat="46.627865" lon="12.6313292"><ele>1359.0</ele><time>2026-05-01T14:52:28.009Z</time></trkpt><trkpt lat="46.6279579" lon="12.6313392"><ele>1359.0</ele><time>2026-05-01T14:52:29.003Z</time></trkpt><trkpt lat="46.6280396" lon="12.6313529"><ele>1360.3333333333333</ele><time>2026-05-01T14:52:30Z</time></trkpt><trkpt lat="46.6281071" lon="12.6313547"><ele>1361.6666666666667</ele><time>2026-05-01T14:52:30.998Z</time></trkpt><trkpt lat="46.6281885" lon="12.6313445"><ele>1363.0</ele><time>2026-05-01T14:52:32.005Z</time></trkpt><trkpt lat="46.6282768" lon="12.6313153"><ele>1364.3333333333335</ele><time>2026-05-01T14:52:32.997Z</time></trkpt><trkpt lat="46.6283585" lon="12.6312804"><ele>1365.6666666666667</ele><time>2026-05-01T14:52:33.996Z</time></trkpt><trkpt lat="46.6284209" lon="12.6312381"><ele>1367.0</ele><time>2026-05-01T14:52:35.009Z</time></trkpt><trkpt lat="46.6285203" lon="12.6311596"><ele>1365.8</ele><time>2026-05-01T14:52:37.005Z</time></trkpt><trkpt lat="46.6285949" lon="12.6311339"><ele>1364.6</ele><time>2026-05-01T14:52:38.996Z</time></trkpt><trkpt lat="46.6286578" lon="12.6310139"><ele>1363.3999999999999</ele><time>2026-05-01T14:52:43.005Z</time></trkpt><trkpt lat="46.6286351" lon="12.6308215"><ele>1362.1999999999998</ele><time>2026-05-01T14:52:44.998Z</time></trkpt><trkpt lat="46.628621" lon="12.6307149"><ele>1361.0</ele><time>2026-05-01T14:52:46.004Z</time></trkpt><trkpt lat="46.6286019" lon="12.630607"><ele>1361.0</ele><time>2026-05-01T14:52:47.001Z</time></trkpt><trkpt lat="46.6285969" lon="12.6305098"><ele>1361.0</ele><time>2026-05-01T14:52:48.003Z</time></trkpt><trkpt lat="46.6286047" lon="12.6304088"><ele>1361.0</ele><time>2026-05-01T14:52:48.998Z</time></trkpt><trkpt lat="46.628625" lon="12.6303124"><ele>1361.0</ele><time>2026-05-01T14:52:50.002Z</time></trkpt><trkpt lat="46.6286568" lon="12.6302064"><ele>1361.0</ele><time>2026-05-01T14:52:51.004Z</time></trkpt><trkpt lat="46.6286923" lon="12.6300943"><ele>1361.0</ele><time>2026-05-01T14:52:52.004Z</time></trkpt><trkpt lat="46.6287261" lon="12.629989"><ele>1361.8333333333335</ele><time>2026-05-01T14:52:53.008Z</time></trkpt><trkpt lat="46.6287571" lon="12.6298701"><ele>1362.6666666666667</ele><time>2026-05-01T14:52:54.003Z</time></trkpt><trkpt lat="46.628784" lon="12.6297712"><ele>1363.5</ele><time>2026-05-01T14:52:55.003Z</time></trkpt><trkpt lat="46.6288532" lon="12.629611"><ele>1364.3333333333333</ele><time>2026-05-01T14:52:56.997Z</time></trkpt><trkpt lat="46.6289075" lon="12.6295523"><ele>1365.1666666666665</ele><time>2026-05-01T14:52:57.994Z</time></trkpt><trkpt lat="46.6289702" lon="12.6294961"><ele>1366.0</ele><time>2026-05-01T14:52:59.009Z</time></trkpt><trkpt lat="46.6290452" lon="12.6294394"><ele>1362.8333333333333</ele><time>2026-05-01T14:53:00.006Z</time></trkpt><trkpt lat="46.6291127" lon="12.6293794"><ele>1359.6666666666665</ele><time>2026-05-01T14:53:00.999Z</time></trkpt><trkpt lat="46.6291738" lon="12.629317"><ele>1356.5</ele><time>2026-05-01T14:53:01.992Z</time></trkpt><trkpt lat="46.6292431" lon="12.6292559"><ele>1353.3333333333333</ele><time>2026-05-01T14:53:03.003Z</time></trkpt><trkpt lat="46.629308" lon="12.6291867"><ele>1350.1666666666667</ele><time>2026-05-01T14:53:04Z</time></trkpt><trkpt lat="46.6293704" lon="12.6291178"><ele>1347.0</ele><time>2026-05-01T14:53:04.999Z</time></trkpt><trkpt lat="46.6294365" lon="12.6290348"><ele>1348.1999999999998</ele><time>2026-05-01T14:53:05.996Z</time></trkpt><trkpt lat="46.6295151" lon="12.6289448"><ele>1349.4</ele><time>2026-05-01T14:53:06.993Z</time></trkpt><trkpt lat="46.6295922" lon="12.6288364"><ele>1350.6</ele><time>2026-05-01T14:53:08Z</time></trkpt><trkpt lat="46.6296614" lon="12.6287315"><ele>1351.8000000000002</ele><time>2026-05-01T14:53:09.002Z</time></trkpt><trkpt lat="46.6297223" lon="12.6286298"><ele>1353.0</ele><time>2026-05-01T14:53:10.01Z</time></trkpt><trkpt lat="46.6297899" lon="12.6285361"><ele>1353.0</ele><time>2026-05-01T14:53:11.001Z</time></trkpt><trkpt lat="46.6298604" lon="12.6284513"><ele>1353.0</ele><time>2026-05-01T14:53:11.998Z</time></trkpt><trkpt lat="46.6299381" lon="12.6283772"><ele>1353.0</ele><time>2026-05-01T14:53:13.001Z</time></trkpt><trkpt lat="46.6300131" lon="12.6283148"><ele>1353.0</ele><time>2026-05-01T14:53:13.997Z</time></trkpt><trkpt lat="46.6300795" lon="12.6282648"><ele>1353.0</ele><time>2026-05-01T14:53:14.997Z</time></trkpt><trkpt lat="46.6301497" lon="12.6282233"><ele>1353.0</ele><time>2026-05-01T14:53:16.002Z</time></trkpt><trkpt lat="46.630213" lon="12.628183"><ele>1353.0</ele><time>2026-05-01T14:53:16.995Z</time></trkpt><trkpt lat="46.6302726" lon="12.6281362"><ele>1353.0</ele><time>2026-05-01T14:53:18.004Z</time></trkpt><trkpt lat="46.6303268" lon="12.6280829"><ele>1353.0</ele><time>2026-05-01T14:53:19Z</time></trkpt><trkpt lat="46.6303969" lon="12.6279343"><ele>1353.0</ele><time>2026-05-01T14:53:21Z</time></trkpt><trkpt lat="46.6304272" lon="12.6278523"><ele>1353.0</ele><time>2026-05-01T14:53:21.997Z</time></trkpt><trkpt lat="46.6304738" lon="12.62777"><ele>1353.0</ele><time>2026-05-01T14:53:22.999Z</time></trkpt><trkpt lat="46.6305223" lon="12.6276932"><ele>1353.5714285714287</ele><time>2026-05-01T14:53:23.998Z</time></trkpt><trkpt lat="46.630567" lon="12.6276209"><ele>1354.142857142857</ele><time>2026-05-01T14:53:24.998Z</time></trkpt><trkpt lat="46.6306172" lon="12.6275299"><ele>1354.7142857142858</ele><time>2026-05-01T14:53:26.013Z</time></trkpt><trkpt lat="46.6306672" lon="12.6274462"><ele>1355.2857142857142</ele><time>2026-05-01T14:53:27.003Z</time></trkpt><trkpt lat="46.6307149" lon="12.6273603"><ele>1355.857142857143</ele><time>2026-05-01T14:53:27.995Z</time></trkpt><trkpt lat="46.6307517" lon="12.6272671"><ele>1356.4285714285713</ele><time>2026-05-01T14:53:29Z</time></trkpt><trkpt lat="46.6307767" lon="12.6271721"><ele>1357.0</ele><time>2026-05-01T14:53:30.006Z</time></trkpt><trkpt lat="46.6308074" lon="12.62708"><ele>1356.5</ele><time>2026-05-01T14:53:30.998Z</time></trkpt><trkpt lat="46.6308378" lon="12.6269566"><ele>1356.0</ele><time>2026-05-01T14:53:32.001Z</time></trkpt><trkpt lat="46.63087" lon="12.6268277"><ele>1355.5</ele><time>2026-05-01T14:53:33.001Z</time></trkpt><trkpt lat="46.63091" lon="12.6267196"><ele>1355.0</ele><time>2026-05-01T14:53:33.998Z</time></trkpt><trkpt lat="46.6309634" lon="12.6266297"><ele>1354.5</ele><time>2026-05-01T14:53:34.998Z</time></trkpt><trkpt lat="46.6310119" lon="12.6265564"><ele>1354.0</ele><time>2026-05-01T14:53:36.014Z</time></trkpt><trkpt lat="46.6310636" lon="12.6264107"><ele>1354.0</ele><time>2026-05-01T14:53:38.005Z</time></trkpt><trkpt lat="46.6310731" lon="12.6263032"><ele>1354.0</ele><time>2026-05-01T14:53:38.997Z</time></trkpt><trkpt lat="46.6310827" lon="12.6261517"><ele>1354.0</ele><time>2026-05-01T14:53:40.999Z</time></trkpt><trkpt lat="46.6311177" lon="12.6260468"><ele>1354.0</ele><time>2026-05-01T14:53:42.002Z</time></trkpt><trkpt lat="46.6311337" lon="12.6259426"><ele>1354.0</ele><time>2026-05-01T14:53:42.999Z</time></trkpt><trkpt lat="46.6311268" lon="12.6258255"><ele>1354.0</ele><time>2026-05-01T14:53:44.002Z</time></trkpt><trkpt lat="46.6311231" lon="12.6257253"><ele>1354.8333333333333</ele><time>2026-05-01T14:53:45.011Z</time></trkpt><trkpt lat="46.6311255" lon="12.6255979"><ele>1355.6666666666665</ele><time>2026-05-01T14:53:47.003Z</time></trkpt><trkpt lat="46.631133" lon="12.6254882"><ele>1356.5</ele><time>2026-05-01T14:53:50Z</time></trkpt><trkpt lat="46.6311357" lon="12.6253876"><ele>1357.3333333333333</ele><time>2026-05-01T14:54:00.998Z</time></trkpt><trkpt lat="46.6310641" lon="12.6253239"><ele>1358.1666666666667</ele><time>2026-05-01T14:54:04.003Z</time></trkpt><trkpt lat="46.6309909" lon="12.6253194"><ele>1359.0</ele><time>2026-05-01T14:54:06.005Z</time></trkpt><trkpt lat="46.6309061" lon="12.6252484"><ele>1359.0</ele><time>2026-05-01T14:54:08.001Z</time></trkpt><trkpt lat="46.6308187" lon="12.6251261"><ele>1359.0</ele><time>2026-05-01T14:54:09.994Z</time></trkpt><trkpt lat="46.6307464" lon="12.6249733"><ele>1359.0</ele><time>2026-05-01T14:54:11.999Z</time></trkpt><trkpt lat="46.6307032" lon="12.6248985"><ele>1359.0</ele><time>2026-05-01T14:54:13.005Z</time></trkpt><trkpt lat="46.6306703" lon="12.6248128"><ele>1359.0</ele><time>2026-05-01T14:54:14.008Z</time></trkpt><trkpt lat="46.6306366" lon="12.6247242"><ele>1359.0</ele><time>2026-05-01T14:54:15.007Z</time></trkpt><trkpt lat="46.6306027" lon="12.6246289"><ele>1359.0</ele><time>2026-05-01T14:54:15.999Z</time></trkpt><trkpt lat="46.6305671" lon="12.6245376"><ele>1359.0</ele><time>2026-05-01T14:54:17.002Z</time></trkpt><trkpt lat="46.6305296" lon="12.624456"><ele>1359.0</ele><time>2026-05-01T14:54:18.003Z</time></trkpt><trkpt lat="46.630475" lon="12.6243182"><ele>1359.0</ele><time>2026-05-01T14:54:20.003Z</time></trkpt><trkpt lat="46.6304311" lon="12.6241769"><ele>1359.0</ele><time>2026-05-01T14:54:21.998Z</time></trkpt><trkpt lat="46.6304283" lon="12.6240033"><ele>1357.0</ele><time>2026-05-01T14:54:24.002Z</time></trkpt><trkpt lat="46.6304256" lon="12.6239042"><ele>1355.0</ele><time>2026-05-01T14:54:25.004Z</time></trkpt><trkpt lat="46.6304089" lon="12.6238119"><ele>1353.0</ele><time>2026-05-01T14:54:25.996Z</time></trkpt><trkpt lat="46.630383" lon="12.6237176"><ele>1351.0</ele><time>2026-05-01T14:54:27.995Z</time></trkpt><trkpt lat="46.6303113" lon="12.6237619"><ele>1349.0</ele><time>2026-05-01T14:54:41.999Z</time></trkpt><trkpt lat="46.6303587" lon="12.6238334"><ele>1347.0</ele><time>2026-05-01T14:54:46Z</time></trkpt><trkpt lat="46.630304" lon="12.6237706"><ele>1345.0</ele><time>2026-05-01T14:55:03.999Z</time></trkpt><trkpt lat="46.63024" lon="12.6237438"><ele>1341.4</ele><time>2026-05-01T14:55:08.001Z</time></trkpt><trkpt lat="46.6301392" lon="12.623693"><ele>1337.8</ele><time>2026-05-01T14:55:10.998Z</time></trkpt><trkpt lat="46.630023" lon="12.6236691"><ele>1334.1999999999998</ele><time>2026-05-01T14:55:12.995Z</time></trkpt><trkpt lat="46.6299183" lon="12.6236876"><ele>1330.6</ele><time>2026-05-01T14:55:15.003Z</time></trkpt><trkpt lat="46.6298039" lon="12.6237269"><ele>1327.0</ele><time>2026-05-01T14:55:16.998Z</time></trkpt><trkpt lat="46.6297396" lon="12.6237572"><ele>1327.0000000000002</ele><time>2026-05-01T14:55:18.005Z</time></trkpt><trkpt lat="46.6296675" lon="12.6237917"><ele>1327.0</ele><time>2026-05-01T14:55:19.001Z</time></trkpt><trkpt lat="46.6295964" lon="12.6238216"><ele>1327.0</ele><time>2026-05-01T14:55:20.002Z</time></trkpt><trkpt lat="46.6295241" lon="12.6238511"><ele>1327.0</ele><time>2026-05-01T14:55:21.005Z</time></trkpt><trkpt lat="46.6294494" lon="12.6238647"><ele>1327.0</ele><time>2026-05-01T14:55:22.005Z</time></trkpt><trkpt lat="46.6293751" lon="12.6238752"><ele>1327.0000000000002</ele><time>2026-05-01T14:55:22.999Z</time></trkpt><trkpt lat="46.6293021" lon="12.623872"><ele>1327.0</ele><time>2026-05-01T14:55:24.003Z</time></trkpt><trkpt lat="46.629229" lon="12.6238602"><ele>1327.0</ele><time>2026-05-01T14:55:24.997Z</time></trkpt><trkpt lat="46.6291608" lon="12.6238541"><ele>1327.0</ele><time>2026-05-01T14:55:26.01Z</time></trkpt><trkpt lat="46.6290932" lon="12.6238503"><ele>1327.0</ele><time>2026-05-01T14:55:27.016Z</time></trkpt><trkpt lat="46.6290295" lon="12.6238644"><ele>1327.0</ele><time>2026-05-01T14:55:27.997Z</time></trkpt><trkpt lat="46.6289028" lon="12.6239014"><ele>1327.0</ele><time>2026-05-01T14:55:30.005Z</time></trkpt><trkpt lat="46.6288345" lon="12.6239395"><ele>1327.0</ele><time>2026-05-01T14:55:31Z</time></trkpt><trkpt lat="46.628773" lon="12.6239832"><ele>1327.0</ele><time>2026-05-01T14:55:32.002Z</time></trkpt><trkpt lat="46.628706" lon="12.6240283"><ele>1327.0</ele><time>2026-05-01T14:55:32.998Z</time></trkpt><trkpt lat="46.6286301" lon="12.6240656"><ele>1327.0</ele><time>2026-05-01T14:55:34.007Z</time></trkpt><trkpt lat="46.628555" lon="12.62408"><ele>1327.0</ele><time>2026-05-01T14:55:34.999Z</time></trkpt><trkpt lat="46.6284909" lon="12.6240813"><ele>1327.0</ele><time>2026-05-01T14:55:36Z</time></trkpt><trkpt lat="46.6283796" lon="12.6241114"><ele>1327.0</ele><time>2026-05-01T14:55:38.003Z</time></trkpt><trkpt lat="46.62827" lon="12.6241178"><ele>1329.6</ele><time>2026-05-01T14:55:40.006Z</time></trkpt><trkpt lat="46.6281986" lon="12.6241041"><ele>1332.1999999999998</ele><time>2026-05-01T14:55:43.003Z</time></trkpt><trkpt lat="46.6281036" lon="12.6241158"><ele>1334.8</ele><time>2026-05-01T14:55:47.007Z</time></trkpt><trkpt lat="46.6279773" lon="12.6241831"><ele>1337.4</ele><time>2026-05-01T14:55:49.003Z</time></trkpt><trkpt lat="46.6279042" lon="12.624247"><ele>1340.0</ele><time>2026-05-01T14:55:50.004Z</time></trkpt><trkpt lat="46.6278236" lon="12.624313"><ele>1339.4</ele><time>2026-05-01T14:55:50.998Z</time></trkpt><trkpt lat="46.6277416" lon="12.6243932"><ele>1338.8</ele><time>2026-05-01T14:55:52Z</time></trkpt><trkpt lat="46.6276618" lon="12.6244721"><ele>1338.1999999999998</ele><time>2026-05-01T14:55:53.006Z</time></trkpt><trkpt lat="46.6275755" lon="12.6245473"><ele>1337.6</ele><time>2026-05-01T14:55:53.998Z</time></trkpt><trkpt lat="46.6274918" lon="12.624628"><ele>1337.0</ele><time>2026-05-01T14:55:55.005Z</time></trkpt><trkpt lat="46.6273996" lon="12.6247202"><ele>1336.75</ele><time>2026-05-01T14:55:56.001Z</time></trkpt><trkpt lat="46.6273027" lon="12.6248188"><ele>1336.5</ele><time>2026-05-01T14:55:57.002Z</time></trkpt><trkpt lat="46.6272012" lon="12.6249016"><ele>1336.25</ele><time>2026-05-01T14:55:58.006Z</time></trkpt><trkpt lat="46.6270948" lon="12.6249534"><ele>1336.0</ele><time>2026-05-01T14:55:58.999Z</time></trkpt><trkpt lat="46.626987" lon="12.6249986"><ele>1335.1999999999998</ele><time>2026-05-01T14:55:59.997Z</time></trkpt><trkpt lat="46.6268696" lon="12.625041"><ele>1334.3999999999999</ele><time>2026-05-01T14:56:00.999Z</time></trkpt><trkpt lat="46.6267528" lon="12.6250646"><ele>1333.6</ele><time>2026-05-01T14:56:02Z</time></trkpt><trkpt lat="46.6266386" lon="12.6250756"><ele>1332.8</ele><time>2026-05-01T14:56:03.009Z</time></trkpt><trkpt lat="46.6265444" lon="12.6250867"><ele>1332.0</ele><time>2026-05-01T14:56:04.008Z</time></trkpt><trkpt lat="46.6264579" lon="12.6251055"><ele>1332.0</ele><time>2026-05-01T14:56:04.996Z</time></trkpt><trkpt lat="46.626383" lon="12.6251188"><ele>1332.0</ele><time>2026-05-01T14:56:06.001Z</time></trkpt><trkpt lat="46.6262948" lon="12.6251584"><ele>1332.0</ele><time>2026-05-01T14:56:08.014Z</time></trkpt><trkpt lat="46.6263549" lon="12.6252314"><ele>1332.0</ele><time>2026-05-01T14:56:14.003Z</time></trkpt><trkpt lat="46.6264149" lon="12.6251981"><ele>1332.0</ele><time>2026-05-01T14:56:15.996Z</time></trkpt><trkpt lat="46.6264828" lon="12.6251495"><ele>1332.0</ele><time>2026-05-01T14:56:18.003Z</time></trkpt><trkpt lat="46.6265883" lon="12.6251124"><ele>1332.0</ele><time>2026-05-01T14:56:20.011Z</time></trkpt><trkpt lat="46.6266682" lon="12.6250971"><ele>1332.0</ele><time>2026-05-01T14:56:20.995Z</time></trkpt><trkpt lat="46.6267669" lon="12.6250834"><ele>1332.0</ele><time>2026-05-01T14:56:22.001Z</time></trkpt><trkpt lat="46.6268853" lon="12.6250664"><ele>1332.0</ele><time>2026-05-01T14:56:23.004Z</time></trkpt><trkpt lat="46.6270152" lon="12.6250367"><ele>1332.0</ele><time>2026-05-01T14:56:23.999Z</time></trkpt><trkpt lat="46.6271392" lon="12.6249952"><ele>1333.3333333333333</ele><time>2026-05-01T14:56:25.007Z</time></trkpt><trkpt lat="46.6272686" lon="12.6249171"><ele>1334.6666666666665</ele><time>2026-05-01T14:56:26.005Z</time></trkpt><trkpt lat="46.6274077" lon="12.6248076"><ele>1336.0</ele><time>2026-05-01T14:56:27.009Z</time></trkpt><trkpt lat="46.6275529" lon="12.6246757"><ele>1336.0</ele><time>2026-05-01T14:56:28.001Z</time></trkpt><trkpt lat="46.6276866" lon="12.6245585"><ele>1336.0</ele><time>2026-05-01T14:56:29.002Z</time></trkpt><trkpt lat="46.6277857" lon="12.6244725"><ele>1336.0</ele><time>2026-05-01T14:56:30.002Z</time></trkpt><trkpt lat="46.6278684" lon="12.6243849"><ele>1336.0</ele><time>2026-05-01T14:56:31.005Z</time></trkpt><trkpt lat="46.6279549" lon="12.6243118"><ele>1336.8</ele><time>2026-05-01T14:56:31.999Z</time></trkpt><trkpt lat="46.6280361" lon="12.6242421"><ele>1337.6</ele><time>2026-05-01T14:56:33.001Z</time></trkpt><trkpt lat="46.628116" lon="12.6241719"><ele>1338.4</ele><time>2026-05-01T14:56:34Z</time></trkpt><trkpt lat="46.6281806" lon="12.6241124"><ele>1339.2</ele><time>2026-05-01T14:56:35.002Z</time></trkpt><trkpt lat="46.6282438" lon="12.6240549"><ele>1340.0</ele><time>2026-05-01T14:56:36.008Z</time></trkpt><trkpt lat="46.6283548" lon="12.6239774"><ele>1340.0</ele><time>2026-05-01T14:56:38.007Z</time></trkpt><trkpt lat="46.6284344" lon="12.6239113"><ele>1340.0</ele><time>2026-05-01T14:56:39.996Z</time></trkpt><trkpt lat="46.6285041" lon="12.6238405"><ele>1340.0</ele><time>2026-05-01T14:56:42.003Z</time></trkpt><trkpt lat="46.6285625" lon="12.6237879"><ele>1340.0</ele><time>2026-05-01T14:56:43.003Z</time></trkpt><trkpt lat="46.6286307" lon="12.6237109"><ele>1340.0</ele><time>2026-05-01T14:56:44.002Z</time></trkpt><trkpt lat="46.6287018" lon="12.6236392"><ele>1340.0</ele><time>2026-05-01T14:56:45.008Z</time></trkpt><trkpt lat="46.6287884" lon="12.6235675"><ele>1339.8</ele><time>2026-05-01T14:56:46.012Z</time></trkpt><trkpt lat="46.6288744" lon="12.6234994"><ele>1339.6</ele><time>2026-05-01T14:56:47.014Z</time></trkpt><trkpt lat="46.6289716" lon="12.6234276"><ele>1339.4</ele><time>2026-05-01T14:56:48.004Z</time></trkpt><trkpt lat="46.6290781" lon="12.6233566"><ele>1339.2</ele><time>2026-05-01T14:56:48.997Z</time></trkpt><trkpt lat="46.6291857" lon="12.6232868"><ele>1339.0</ele><time>2026-05-01T14:56:50.002Z</time></trkpt><trkpt lat="46.6292988" lon="12.6232157"><ele>1339.0</ele><time>2026-05-01T14:56:51.003Z</time></trkpt><trkpt lat="46.6294142" lon="12.623141"><ele>1339.0</ele><time>2026-05-01T14:56:51.999Z</time></trkpt><trkpt lat="46.629535" lon="12.6230534"><ele>1339.0</ele><time>2026-05-01T14:56:53.011Z</time></trkpt><trkpt lat="46.6296518" lon="12.6229646"><ele>1339.0</ele><time>2026-05-01T14:56:53.999Z</time></trkpt><trkpt lat="46.6297747" lon="12.6228754"><ele>1343.6666666666665</ele><time>2026-05-01T14:56:54.999Z</time></trkpt><trkpt lat="46.6299008" lon="12.6227708"><ele>1348.3333333333333</ele><time>2026-05-01T14:56:55.998Z</time></trkpt><trkpt lat="46.6300249" lon="12.6226525"><ele>1353.0</ele><time>2026-05-01T14:56:57.006Z</time></trkpt><trkpt lat="46.630158" lon="12.6225154"><ele>1353.0</ele><time>2026-05-01T14:56:57.998Z</time></trkpt><trkpt lat="46.6302928" lon="12.6223677"><ele>1353.0</ele><time>2026-05-01T14:56:59.004Z</time></trkpt><trkpt lat="46.6304212" lon="12.6222182"><ele>1353.0</ele><time>2026-05-01T14:57:00.005Z</time></trkpt><trkpt lat="46.6305554" lon="12.6220709"><ele>1352.3333333333333</ele><time>2026-05-01T14:57:01.002Z</time></trkpt><trkpt lat="46.6306898" lon="12.6219136"><ele>1351.6666666666665</ele><time>2026-05-01T14:57:02.003Z</time></trkpt><trkpt lat="46.6308231" lon="12.6217602"><ele>1351.0</ele><time>2026-05-01T14:57:02.998Z</time></trkpt><trkpt lat="46.630949" lon="12.6216223"><ele>1351.0</ele><time>2026-05-01T14:57:04Z</time></trkpt><trkpt lat="46.6310675" lon="12.6214861"><ele>1351.0</ele><time>2026-05-01T14:57:05.001Z</time></trkpt><trkpt lat="46.6311809" lon="12.6213319"><ele>1351.0</ele><time>2026-05-01T14:57:06.003Z</time></trkpt><trkpt lat="46.6312878" lon="12.6211813"><ele>1350.25</ele><time>2026-05-01T14:57:07Z</time></trkpt><trkpt lat="46.6313863" lon="12.6210223"><ele>1349.5</ele><time>2026-05-01T14:57:08.001Z</time></trkpt><trkpt lat="46.6314755" lon="12.6208564"><ele>1348.75</ele><time>2026-05-01T14:57:09.001Z</time></trkpt><trkpt lat="46.6315599" lon="12.6206915"><ele>1348.0</ele><time>2026-05-01T14:57:10Z</time></trkpt><trkpt lat="46.6316358" lon="12.6205138"><ele>1348.0</ele><time>2026-05-01T14:57:11.002Z</time></trkpt><trkpt lat="46.6316968" lon="12.6203307"><ele>1348.0</ele><time>2026-05-01T14:57:12.002Z</time></trkpt><trkpt lat="46.6317458" lon="12.6201321"><ele>1348.0</ele><time>2026-05-01T14:57:13.003Z</time></trkpt><trkpt lat="46.6317914" lon="12.619943"><ele>1348.0</ele><time>2026-05-01T14:57:13.997Z</time></trkpt><trkpt lat="46.6318377" lon="12.6197629"><ele>1350.25</ele><time>2026-05-01T14:57:15.002Z</time></trkpt><trkpt lat="46.631884" lon="12.6196011"><ele>1352.5</ele><time>2026-05-01T14:57:16.004Z</time></trkpt><trkpt lat="46.6319436" lon="12.6194594"><ele>1354.75</ele><time>2026-05-01T14:57:16.994Z</time></trkpt><trkpt lat="46.6320209" lon="12.6193275"><ele>1357.0</ele><time>2026-05-01T14:57:18Z</time></trkpt><trkpt lat="46.63211" lon="12.6191923"><ele>1357.0</ele><time>2026-05-01T14:57:18.999Z</time></trkpt><trkpt lat="46.6322064" lon="12.6190798"><ele>1357.0</ele><time>2026-05-01T14:57:19.994Z</time></trkpt><trkpt lat="46.6322911" lon="12.618977"><ele>1357.0</ele><time>2026-05-01T14:57:21.006Z</time></trkpt><trkpt lat="46.6323644" lon="12.6188728"><ele>1357.0</ele><time>2026-05-01T14:57:22.002Z</time></trkpt><trkpt lat="46.6324292" lon="12.6187525"><ele>1357.0</ele><time>2026-05-01T14:57:22.999Z</time></trkpt><trkpt lat="46.6324915" lon="12.6186048"><ele>1360.25</ele><time>2026-05-01T14:57:24Z</time></trkpt><trkpt lat="46.6325551" lon="12.6184315"><ele>1363.5</ele><time>2026-05-01T14:57:25.001Z</time></trkpt><trkpt lat="46.6326187" lon="12.6182501"><ele>1366.75</ele><time>2026-05-01T14:57:26.009Z</time></trkpt><trkpt lat="46.6326719" lon="12.6180999"><ele>1370.0</ele><time>2026-05-01T14:57:27.001Z</time></trkpt><trkpt lat="46.6327066" lon="12.6179519"><ele>1371.25</ele><time>2026-05-01T14:57:28.001Z</time></trkpt><trkpt lat="46.6327367" lon="12.617786"><ele>1372.5</ele><time>2026-05-01T14:57:29Z</time></trkpt><trkpt lat="46.6327602" lon="12.6175966"><ele>1373.75</ele><time>2026-05-01T14:57:29.995Z</time></trkpt><trkpt lat="46.6327811" lon="12.6173948"><ele>1375.0</ele><time>2026-05-01T14:57:30.997Z</time></trkpt><trkpt lat="46.6328019" lon="12.6171954"><ele>1375.25</ele><time>2026-05-01T14:57:32Z</time></trkpt><trkpt lat="46.6328222" lon="12.6170048"><ele>1375.5</ele><time>2026-05-01T14:57:32.999Z</time></trkpt><trkpt lat="46.6328351" lon="12.6168229"><ele>1375.75</ele><time>2026-05-01T14:57:34.003Z</time></trkpt><trkpt lat="46.6328362" lon="12.6166536"><ele>1376.0</ele><time>2026-05-01T14:57:34.999Z</time></trkpt><trkpt lat="46.6328153" lon="12.6164791"><ele>1377.25</ele><time>2026-05-01T14:57:36.009Z</time></trkpt><trkpt lat="46.6327729" lon="12.6162934"><ele>1378.5</ele><time>2026-05-01T14:57:37.001Z</time></trkpt><trkpt lat="46.6327351" lon="12.6161178"><ele>1379.75</ele><time>2026-05-01T14:57:38.004Z</time></trkpt><trkpt lat="46.6327115" lon="12.6159619"><ele>1381.0</ele><time>2026-05-01T14:57:38.998Z</time></trkpt><trkpt lat="46.63271" lon="12.6158143"><ele>1382.25</ele><time>2026-05-01T14:57:40.005Z</time></trkpt><trkpt lat="46.6327304" lon="12.61566"><ele>1383.5</ele><time>2026-05-01T14:57:40.998Z</time></trkpt><trkpt lat="46.6327734" lon="12.6155192"><ele>1384.75</ele><time>2026-05-01T14:57:42.008Z</time></trkpt><trkpt lat="46.6328509" lon="12.6153762"><ele>1386.0</ele><time>2026-05-01T14:57:43.002Z</time></trkpt><trkpt lat="46.632935" lon="12.6152515"><ele>1387.25</ele><time>2026-05-01T14:57:43.999Z</time></trkpt><trkpt lat="46.6330318" lon="12.6151248"><ele>1388.5</ele><time>2026-05-01T14:57:45.001Z</time></trkpt><trkpt lat="46.633133" lon="12.6150045"><ele>1389.75</ele><time>2026-05-01T14:57:45.999Z</time></trkpt><trkpt lat="46.633245" lon="12.614902"><ele>1391.0</ele><time>2026-05-01T14:57:47.005Z</time></trkpt><trkpt lat="46.6333652" lon="12.6148172"><ele>1391.0</ele><time>2026-05-01T14:57:48.002Z</time></trkpt><trkpt lat="46.6334703" lon="12.6147403"><ele>1391.0</ele><time>2026-05-01T14:57:49.006Z</time></trkpt><trkpt lat="46.6335497" lon="12.6146687"><ele>1391.0</ele><time>2026-05-01T14:57:50.001Z</time></trkpt><trkpt lat="46.6336121" lon="12.6145814"><ele>1391.0</ele><time>2026-05-01T14:57:50.998Z</time></trkpt><trkpt lat="46.6336626" lon="12.6144797"><ele>1391.0</ele><time>2026-05-01T14:57:51.999Z</time></trkpt><trkpt lat="46.6337039" lon="12.6143527"><ele>1391.0</ele><time>2026-05-01T14:57:52.997Z</time></trkpt><trkpt lat="46.6337423" lon="12.6141821"><ele>1391.0</ele><time>2026-05-01T14:57:53.996Z</time></trkpt><trkpt lat="46.6337885" lon="12.6139817"><ele>1391.0</ele><time>2026-05-01T14:57:54.998Z</time></trkpt><trkpt lat="46.6338292" lon="12.6137689"><ele>1391.0</ele><time>2026-05-01T14:57:56.001Z</time></trkpt><trkpt lat="46.6338693" lon="12.6135372"><ele>1391.0</ele><time>2026-05-01T14:57:57.005Z</time></trkpt><trkpt lat="46.6339163" lon="12.61329"><ele>1391.0</ele><time>2026-05-01T14:57:57.993Z</time></trkpt><trkpt lat="46.6339629" lon="12.6130258"><ele>1391.0</ele><time>2026-05-01T14:57:59.008Z</time></trkpt><trkpt lat="46.6340081" lon="12.6127608"><ele>1391.5</ele><time>2026-05-01T14:57:59.999Z</time></trkpt><trkpt lat="46.634055" lon="12.6125285"><ele>1392.0</ele><time>2026-05-01T14:58:00.998Z</time></trkpt><trkpt lat="46.6340902" lon="12.6123305"><ele>1392.5</ele><time>2026-05-01T14:58:01.997Z</time></trkpt><trkpt lat="46.6341018" lon="12.6121364"><ele>1393.0</ele><time>2026-05-01T14:58:03.008Z</time></trkpt><trkpt lat="46.6341008" lon="12.6119252"><ele>1393.75</ele><time>2026-05-01T14:58:03.993Z</time></trkpt><trkpt lat="46.6341041" lon="12.61171"><ele>1394.5</ele><time>2026-05-01T14:58:05.015Z</time></trkpt><trkpt lat="46.6341063" lon="12.6114921"><ele>1395.25</ele><time>2026-05-01T14:58:06.002Z</time></trkpt><trkpt lat="46.6341192" lon="12.6112834"><ele>1396.0</ele><time>2026-05-01T14:58:06.993Z</time></trkpt><trkpt lat="46.6341426" lon="12.6111078"><ele>1397.25</ele><time>2026-05-01T14:58:07.997Z</time></trkpt><trkpt lat="46.6341746" lon="12.6109362"><ele>1398.5</ele><time>2026-05-01T14:58:08.999Z</time></trkpt><trkpt lat="46.63422" lon="12.6107495"><ele>1399.75</ele><time>2026-05-01T14:58:10.006Z</time></trkpt><trkpt lat="46.63427" lon="12.6105606"><ele>1401.0</ele><time>2026-05-01T14:58:10.998Z</time></trkpt><trkpt lat="46.6343198" lon="12.6103757"><ele>1402.0</ele><time>2026-05-01T14:58:12.006Z</time></trkpt><trkpt lat="46.6343558" lon="12.6102013"><ele>1403.0</ele><time>2026-05-01T14:58:13Z</time></trkpt><trkpt lat="46.6343683" lon="12.6100412"><ele>1404.0</ele><time>2026-05-01T14:58:14.001Z</time></trkpt><trkpt lat="46.634365" lon="12.6098939"><ele>1405.0</ele><time>2026-05-01T14:58:15.001Z</time></trkpt><trkpt lat="46.6343373" lon="12.6097502"><ele>1406.0</ele><time>2026-05-01T14:58:15.998Z</time></trkpt><trkpt lat="46.634294" lon="12.6096104"><ele>1409.5</ele><time>2026-05-01T14:58:17.011Z</time></trkpt><trkpt lat="46.6342395" lon="12.6094544"><ele>1413.0</ele><time>2026-05-01T14:58:18.002Z</time></trkpt><trkpt lat="46.6341783" lon="12.6092921"><ele>1416.5</ele><time>2026-05-01T14:58:18.998Z</time></trkpt><trkpt lat="46.63411" lon="12.609116"><ele>1420.0</ele><time>2026-05-01T14:58:20.001Z</time></trkpt><trkpt lat="46.6340354" lon="12.6089213"><ele>1420.0</ele><time>2026-05-01T14:58:20.999Z</time></trkpt><trkpt lat="46.6339614" lon="12.608724"><ele>1420.0</ele><time>2026-05-01T14:58:21.997Z</time></trkpt><trkpt lat="46.6338892" lon="12.608534"><ele>1420.0</ele><time>2026-05-01T14:58:23.001Z</time></trkpt><trkpt lat="46.6338123" lon="12.6083439"><ele>1421.75</ele><time>2026-05-01T14:58:24.002Z</time></trkpt><trkpt lat="46.6337324" lon="12.6081768"><ele>1423.5</ele><time>2026-05-01T14:58:25.001Z</time></trkpt><trkpt lat="46.6336591" lon="12.6080136"><ele>1425.25</ele><time>2026-05-01T14:58:26Z</time></trkpt><trkpt lat="46.6335718" lon="12.6078547"><ele>1427.0</ele><time>2026-05-01T14:58:27.004Z</time></trkpt><trkpt lat="46.6334921" lon="12.6077028"><ele>1429.1999999999998</ele><time>2026-05-01T14:58:27.999Z</time></trkpt><trkpt lat="46.6334204" lon="12.6075666"><ele>1431.4</ele><time>2026-05-01T14:58:29.009Z</time></trkpt><trkpt lat="46.63335" lon="12.6074402"><ele>1433.6</ele><time>2026-05-01T14:58:30.001Z</time></trkpt><trkpt lat="46.6332948" lon="12.6073107"><ele>1435.8000000000002</ele><time>2026-05-01T14:58:30.997Z</time></trkpt><trkpt lat="46.6332483" lon="12.6071717"><ele>1438.0</ele><time>2026-05-01T14:58:32.002Z</time></trkpt><trkpt lat="46.6332248" lon="12.6070258"><ele>1438.5</ele><time>2026-05-01T14:58:32.999Z</time></trkpt><trkpt lat="46.633206" lon="12.6068873"><ele>1439.0</ele><time>2026-05-01T14:58:34.004Z</time></trkpt><trkpt lat="46.6332017" lon="12.6067782"><ele>1439.5</ele><time>2026-05-01T14:58:34.995Z</time></trkpt><trkpt lat="46.6331899" lon="12.6066806"><ele>1440.0</ele><time>2026-05-01T14:58:36.007Z</time></trkpt><trkpt lat="46.6331738" lon="12.6065716"><ele>1440.5</ele><time>2026-05-01T14:58:36.999Z</time></trkpt><trkpt lat="46.6331626" lon="12.6064571"><ele>1441.0</ele><time>2026-05-01T14:58:37.999Z</time></trkpt><trkpt lat="46.6331495" lon="12.6063172"><ele>1443.5</ele><time>2026-05-01T14:58:39Z</time></trkpt><trkpt lat="46.633138" lon="12.6061537"><ele>1446.0</ele><time>2026-05-01T14:58:39.996Z</time></trkpt><trkpt lat="46.6331202" lon="12.6059776"><ele>1448.5</ele><time>2026-05-01T14:58:40.998Z</time></trkpt><trkpt lat="46.6330922" lon="12.605811"><ele>1451.0</ele><time>2026-05-01T14:58:41.997Z</time></trkpt><trkpt lat="46.6330657" lon="12.6056354"><ele>1451.0</ele><time>2026-05-01T14:58:43.001Z</time></trkpt><trkpt lat="46.6330367" lon="12.605457"><ele>1451.0</ele><time>2026-05-01T14:58:44.004Z</time></trkpt><trkpt lat="46.6330014" lon="12.6053063"><ele>1451.0</ele><time>2026-05-01T14:58:45.01Z</time></trkpt><trkpt lat="46.6329959" lon="12.6051962"><ele>1451.0</ele><time>2026-05-01T14:58:45.998Z</time></trkpt><trkpt lat="46.6330203" lon="12.605075"><ele>1451.0</ele><time>2026-05-01T14:58:48.001Z</time></trkpt><trkpt lat="46.6330687" lon="12.6049817"><ele>1452.4285714285716</ele><time>2026-05-01T14:58:50.007Z</time></trkpt><trkpt lat="46.6331311" lon="12.604889"><ele>1453.8571428571427</ele><time>2026-05-01T14:58:52.003Z</time></trkpt><trkpt lat="46.6331684" lon="12.6048115"><ele>1455.2857142857142</ele><time>2026-05-01T14:58:52.999Z</time></trkpt><trkpt lat="46.6331829" lon="12.6047215"><ele>1456.7142857142858</ele><time>2026-05-01T14:58:53.998Z</time></trkpt><trkpt lat="46.6331746" lon="12.604627"><ele>1458.1428571428573</ele><time>2026-05-01T14:58:54.998Z</time></trkpt><trkpt lat="46.6331541" lon="12.6045373"><ele>1459.5714285714284</ele><time>2026-05-01T14:58:56Z</time></trkpt><trkpt lat="46.6331381" lon="12.6044099"><ele>1461.0</ele><time>2026-05-01T14:58:58.007Z</time></trkpt><trkpt lat="46.6331857" lon="12.6044778"><ele>1461.0</ele><time>2026-05-01T14:59:03.997Z</time></trkpt><trkpt lat="46.6331898" lon="12.6046183"><ele>1461.0</ele><time>2026-05-01T14:59:11.997Z</time></trkpt><trkpt lat="46.6331824" lon="12.6047103"><ele>1461.0</ele><time>2026-05-01T14:59:12.998Z</time></trkpt><trkpt lat="46.6332018" lon="12.6048256"><ele>1461.0</ele><time>2026-05-01T14:59:14Z</time></trkpt><trkpt lat="46.633244" lon="12.6049615"><ele>1461.0</ele><time>2026-05-01T14:59:14.997Z</time></trkpt><trkpt lat="46.6333094" lon="12.6051064"><ele>1461.0</ele><time>2026-05-01T14:59:16.007Z</time></trkpt><trkpt lat="46.6333688" lon="12.6052557"><ele>1461.0</ele><time>2026-05-01T14:59:17.003Z</time></trkpt><trkpt lat="46.6334232" lon="12.6053969"><ele>1461.0</ele><time>2026-05-01T14:59:17.991Z</time></trkpt><trkpt lat="46.6334675" lon="12.6055133"><ele>1461.0</ele><time>2026-05-01T14:59:19.005Z</time></trkpt><trkpt lat="46.6335136" lon="12.6056153"><ele>1461.0</ele><time>2026-05-01T14:59:19.997Z</time></trkpt><trkpt lat="46.6335538" lon="12.6057159"><ele>1462.0</ele><time>2026-05-01T14:59:21.002Z</time></trkpt><trkpt lat="46.6335793" lon="12.6058056"><ele>1463.0</ele><time>2026-05-01T14:59:22.001Z</time></trkpt><trkpt lat="46.6336506" lon="12.6059179"><ele>1464.0</ele><time>2026-05-01T14:59:24Z</time></trkpt><trkpt lat="46.6337112" lon="12.6059753"><ele>1465.0</ele><time>2026-05-01T14:59:24.997Z</time></trkpt><trkpt lat="46.6337595" lon="12.606061"><ele>1466.0</ele><time>2026-05-01T14:59:26.008Z</time></trkpt><trkpt lat="46.6337927" lon="12.6061531"><ele>1467.0</ele><time>2026-05-01T14:59:26.999Z</time></trkpt><trkpt lat="46.6338648" lon="12.6062536"><ele>1467.0</ele><time>2026-05-01T14:59:28.998Z</time></trkpt><trkpt lat="46.6339796" lon="12.6063216"><ele>1467.0</ele><time>2026-05-01T14:59:31.014Z</time></trkpt><trkpt lat="46.6340262" lon="12.6063932"><ele>1467.0</ele><time>2026-05-01T14:59:32Z</time></trkpt><trkpt lat="46.6340497" lon="12.6064866"><ele>1467.0</ele><time>2026-05-01T14:59:32.999Z</time></trkpt><trkpt lat="46.6340729" lon="12.6065819"><ele>1467.0</ele><time>2026-05-01T14:59:34.001Z</time></trkpt><trkpt lat="46.6341441" lon="12.6067167"><ele>1467.0</ele><time>2026-05-01T14:59:36.006Z</time></trkpt><trkpt lat="46.634242" lon="12.6067791"><ele>1467.0</ele><time>2026-05-01T14:59:37.999Z</time></trkpt><trkpt lat="46.6343647" lon="12.6067574"><ele>1467.0</ele><time>2026-05-01T14:59:39.995Z</time></trkpt><trkpt lat="46.6344532" lon="12.6067519"><ele>1467.0</ele><time>2026-05-01T14:59:41.004Z</time></trkpt><trkpt lat="46.6345396" lon="12.6067602"><ele>1467.0</ele><time>2026-05-01T14:59:42.014Z</time></trkpt><trkpt lat="46.6346165" lon="12.6067785"><ele>1467.0</ele><time>2026-05-01T14:59:43.002Z</time></trkpt><trkpt lat="46.6347054" lon="12.6067876"><ele>1472.0</ele><time>2026-05-01T14:59:44Z</time></trkpt><trkpt lat="46.6347947" lon="12.6067918"><ele>1477.0</ele><time>2026-05-01T14:59:45.005Z</time></trkpt><trkpt lat="46.6348858" lon="12.6067939"><ele>1482.0</ele><time>2026-05-01T14:59:45.999Z</time></trkpt><trkpt lat="46.6349672" lon="12.6068047"><ele>1487.0</ele><time>2026-05-01T14:59:47.011Z</time></trkpt><trkpt lat="46.6350266" lon="12.6068563"><ele>1492.0</ele><time>2026-05-01T14:59:47.998Z</time></trkpt><trkpt lat="46.635112" lon="12.6069229"><ele>1497.0</ele><time>2026-05-01T14:59:50.003Z</time></trkpt><trkpt lat="46.635205" lon="12.6068807"><ele>1496.8333333333333</ele><time>2026-05-01T14:59:51.999Z</time></trkpt><trkpt lat="46.6353163" lon="12.6067861"><ele>1496.6666666666667</ele><time>2026-05-01T14:59:53.996Z</time></trkpt><trkpt lat="46.6353769" lon="12.6067233"><ele>1496.5</ele><time>2026-05-01T14:59:54.998Z</time></trkpt><trkpt lat="46.635436" lon="12.6066536"><ele>1496.3333333333335</ele><time>2026-05-01T14:59:55.999Z</time></trkpt><trkpt lat="46.6354962" lon="12.6065753"><ele>1496.1666666666667</ele><time>2026-05-01T14:59:57.002Z</time></trkpt><trkpt lat="46.6355543" lon="12.6064882"><ele>1496.0</ele><time>2026-05-01T14:59:58.001Z</time></trkpt><trkpt lat="46.6356158" lon="12.6063972"><ele>1496.0</ele><time>2026-05-01T14:59:59.001Z</time></trkpt><trkpt lat="46.6356859" lon="12.6063107"><ele>1496.0</ele><time>2026-05-01T14:59:59.996Z</time></trkpt><trkpt lat="46.6357538" lon="12.6062287"><ele>1496.0</ele><time>2026-05-01T15:00:00.992Z</time></trkpt><trkpt lat="46.6358254" lon="12.6061406"><ele>1496.0</ele><time>2026-05-01T15:00:02Z</time></trkpt><trkpt lat="46.635875" lon="12.6060447"><ele>1496.0</ele><time>2026-05-01T15:00:02.994Z</time></trkpt><trkpt lat="46.6359225" lon="12.605937"><ele>1496.0</ele><time>2026-05-01T15:00:04.008Z</time></trkpt><trkpt lat="46.6359688" lon="12.6058265"><ele>1499.0</ele><time>2026-05-01T15:00:04.995Z</time></trkpt><trkpt lat="46.6360167" lon="12.6057359"><ele>1502.0</ele><time>2026-05-01T15:00:06.001Z</time></trkpt><trkpt lat="46.6360603" lon="12.6056598"><ele>1505.0</ele><time>2026-05-01T15:00:07Z</time></trkpt><trkpt lat="46.6361283" lon="12.6055359"><ele>1508.0</ele><time>2026-05-01T15:00:08.996Z</time></trkpt><trkpt lat="46.6361079" lon="12.6054407"><ele>1511.0</ele><time>2026-05-01T15:00:11Z</time></trkpt><trkpt lat="46.6360273" lon="12.60542"><ele>1514.0</ele><time>2026-05-01T15:00:13.001Z</time></trkpt><trkpt lat="46.6359301" lon="12.6055436"><ele>1514.0</ele><time>2026-05-01T15:00:14.999Z</time></trkpt><trkpt lat="46.6358711" lon="12.6056349"><ele>1514.0</ele><time>2026-05-01T15:00:16.003Z</time></trkpt><trkpt lat="46.6358104" lon="12.6057186"><ele>1514.0</ele><time>2026-05-01T15:00:17.007Z</time></trkpt><trkpt lat="46.6357469" lon="12.6057908"><ele>1514.0</ele><time>2026-05-01T15:00:18.006Z</time></trkpt><trkpt lat="46.635671" lon="12.6058594"><ele>1514.0</ele><time>2026-05-01T15:00:18.998Z</time></trkpt><trkpt lat="46.6355958" lon="12.6059254"><ele>1514.0</ele><time>2026-05-01T15:00:19.999Z</time></trkpt><trkpt lat="46.6355416" lon="12.6059748"><ele>1514.0</ele><time>2026-05-01T15:00:20.996Z</time></trkpt><trkpt lat="46.6354695" lon="12.605955"><ele>1514.0</ele><time>2026-05-01T15:00:22.993Z</time></trkpt><trkpt lat="46.6355065" lon="12.6057981"><ele>1514.0</ele><time>2026-05-01T15:00:26.002Z</time></trkpt><trkpt lat="46.635578" lon="12.6057279"><ele>1514.0</ele><time>2026-05-01T15:00:26.994Z</time></trkpt><trkpt lat="46.635653" lon="12.6056588"><ele>1514.0</ele><time>2026-05-01T15:00:28.011Z</time></trkpt><trkpt lat="46.6357215" lon="12.6055624"><ele>1514.0</ele><time>2026-05-01T15:00:29.001Z</time></trkpt><trkpt lat="46.6357867" lon="12.6054275"><ele>1514.0</ele><time>2026-05-01T15:00:30.002Z</time></trkpt><trkpt lat="46.6358481" lon="12.6052689"><ele>1514.0</ele><time>2026-05-01T15:00:31.007Z</time></trkpt><trkpt lat="46.6359075" lon="12.6050987"><ele>1514.0</ele><time>2026-05-01T15:00:32.001Z</time></trkpt><trkpt lat="46.6359706" lon="12.6049241"><ele>1519.25</ele><time>2026-05-01T15:00:33.01Z</time></trkpt><trkpt lat="46.6360398" lon="12.6047523"><ele>1524.5</ele><time>2026-05-01T15:00:34Z</time></trkpt><trkpt lat="46.6361091" lon="12.6046002"><ele>1529.75</ele><time>2026-05-01T15:00:35.003Z</time></trkpt><trkpt lat="46.6361739" lon="12.6044647"><ele>1535.0</ele><time>2026-05-01T15:00:36.002Z</time></trkpt><trkpt lat="46.6362449" lon="12.6043548"><ele>1535.0</ele><time>2026-05-01T15:00:36.999Z</time></trkpt><trkpt lat="46.6363072" lon="12.6042591"><ele>1535.0</ele><time>2026-05-01T15:00:38.009Z</time></trkpt><trkpt lat="46.6363664" lon="12.6041917"><ele>1535.0</ele><time>2026-05-01T15:00:39Z</time></trkpt><trkpt lat="46.636425" lon="12.6041348"><ele>1535.0</ele><time>2026-05-01T15:00:40.001Z</time></trkpt><trkpt lat="46.6365312" lon="12.6039722"><ele>1535.0</ele><time>2026-05-01T15:00:41.999Z</time></trkpt><trkpt lat="46.6365898" lon="12.603845"><ele>1535.0</ele><time>2026-05-01T15:00:42.998Z</time></trkpt><trkpt lat="46.6366551" lon="12.60371"><ele>1535.0</ele><time>2026-05-01T15:00:44.001Z</time></trkpt><trkpt lat="46.6367235" lon="12.6035721"><ele>1535.0</ele><time>2026-05-01T15:00:44.996Z</time></trkpt><trkpt lat="46.6367883" lon="12.6034575"><ele>1535.0</ele><time>2026-05-01T15:00:45.998Z</time></trkpt><trkpt lat="46.6368453" lon="12.6033399"><ele>1535.0</ele><time>2026-05-01T15:00:47.001Z</time></trkpt><trkpt lat="46.6368964" lon="12.603207"><ele>1537.75</ele><time>2026-05-01T15:00:48.004Z</time></trkpt><trkpt lat="46.6369269" lon="12.6030469"><ele>1540.5</ele><time>2026-05-01T15:00:48.999Z</time></trkpt><trkpt lat="46.6369569" lon="12.6028654"><ele>1543.25</ele><time>2026-05-01T15:00:49.992Z</time></trkpt><trkpt lat="46.6369945" lon="12.6027009"><ele>1546.0</ele><time>2026-05-01T15:00:51.002Z</time></trkpt><trkpt lat="46.637046" lon="12.602538"><ele>1546.0000000000002</ele><time>2026-05-01T15:00:52.002Z</time></trkpt><trkpt lat="46.6371016" lon="12.6023803"><ele>1546.0</ele><time>2026-05-01T15:00:53Z</time></trkpt><trkpt lat="46.6371526" lon="12.6022529"><ele>1546.0</ele><time>2026-05-01T15:00:54.001Z</time></trkpt><trkpt lat="46.6371959" lon="12.602163"><ele>1546.0</ele><time>2026-05-01T15:00:54.994Z</time></trkpt><trkpt lat="46.6372424" lon="12.6020759"><ele>1546.0000000000002</ele><time>2026-05-01T15:00:55.999Z</time></trkpt><trkpt lat="46.6372898" lon="12.6020081"><ele>1546.0</ele><time>2026-05-01T15:00:57.005Z</time></trkpt><trkpt lat="46.6373425" lon="12.6019499"><ele>1549.6666666666667</ele><time>2026-05-01T15:00:57.996Z</time></trkpt><trkpt lat="46.6373966" lon="12.6018843"><ele>1553.3333333333335</ele><time>2026-05-01T15:00:58.995Z</time></trkpt><trkpt lat="46.6374533" lon="12.6018038"><ele>1557.0</ele><time>2026-05-01T15:00:59.995Z</time></trkpt><trkpt lat="46.6375108" lon="12.6017157"><ele>1560.6666666666665</ele><time>2026-05-01T15:01:00.998Z</time></trkpt><trkpt lat="46.6375598" lon="12.6016225"><ele>1564.3333333333333</ele><time>2026-05-01T15:01:02.006Z</time></trkpt><trkpt lat="46.6376052" lon="12.6015137"><ele>1568.0</ele><time>2026-05-01T15:01:03.002Z</time></trkpt><trkpt lat="46.6376543" lon="12.6013926"><ele>1568.0</ele><time>2026-05-01T15:01:03.995Z</time></trkpt><trkpt lat="46.6377032" lon="12.6012525"><ele>1568.0</ele><time>2026-05-01T15:01:05.006Z</time></trkpt><trkpt lat="46.6377493" lon="12.6011075"><ele>1568.0</ele><time>2026-05-01T15:01:06Z</time></trkpt><trkpt lat="46.6378004" lon="12.6009699"><ele>1568.0</ele><time>2026-05-01T15:01:07.006Z</time></trkpt><trkpt lat="46.6378533" lon="12.6008375"><ele>1568.0</ele><time>2026-05-01T15:01:08.002Z</time></trkpt><trkpt lat="46.6379054" lon="12.6007162"><ele>1566.6000000000001</ele><time>2026-05-01T15:01:08.995Z</time></trkpt><trkpt lat="46.6379515" lon="12.6005989"><ele>1565.2</ele><time>2026-05-01T15:01:09.997Z</time></trkpt><trkpt lat="46.6379876" lon="12.6004867"><ele>1563.8</ele><time>2026-05-01T15:01:11Z</time></trkpt><trkpt lat="46.6380206" lon="12.6003653"><ele>1562.4</ele><time>2026-05-01T15:01:12.002Z</time></trkpt><trkpt lat="46.6380557" lon="12.6002331"><ele>1561.0</ele><time>2026-05-01T15:01:13.002Z</time></trkpt><trkpt lat="46.6381036" lon="12.6000958"><ele>1561.0</ele><time>2026-05-01T15:01:14.007Z</time></trkpt><trkpt lat="46.6381584" lon="12.5999573"><ele>1561.0</ele><time>2026-05-01T15:01:14.995Z</time></trkpt><trkpt lat="46.638218" lon="12.5998353"><ele>1561.0</ele><time>2026-05-01T15:01:16.01Z</time></trkpt><trkpt lat="46.6382709" lon="12.599711"><ele>1561.0</ele><time>2026-05-01T15:01:17.003Z</time></trkpt><trkpt lat="46.6383211" lon="12.5995879"><ele>1561.0</ele><time>2026-05-01T15:01:17.994Z</time></trkpt><trkpt lat="46.6383604" lon="12.5994581"><ele>1564.4</ele><time>2026-05-01T15:01:19.007Z</time></trkpt><trkpt lat="46.6383823" lon="12.5993189"><ele>1567.8</ele><time>2026-05-01T15:01:19.999Z</time></trkpt><trkpt lat="46.6383932" lon="12.5991755"><ele>1571.2</ele><time>2026-05-01T15:01:21.003Z</time></trkpt><trkpt lat="46.6383931" lon="12.5990254"><ele>1574.6000000000001</ele><time>2026-05-01T15:01:22.001Z</time></trkpt><trkpt lat="46.6383959" lon="12.598875"><ele>1578.0</ele><time>2026-05-01T15:01:22.994Z</time></trkpt><trkpt lat="46.6383967" lon="12.5987294"><ele>1580.8333333333333</ele><time>2026-05-01T15:01:23.996Z</time></trkpt><trkpt lat="46.6383993" lon="12.5985742"><ele>1583.6666666666665</ele><time>2026-05-01T15:01:24.996Z</time></trkpt><trkpt lat="46.6384046" lon="12.5984402"><ele>1586.5</ele><time>2026-05-01T15:01:26.004Z</time></trkpt><trkpt lat="46.6384044" lon="12.5983198"><ele>1589.3333333333333</ele><time>2026-05-01T15:01:26.995Z</time></trkpt><trkpt lat="46.6384107" lon="12.5982044"><ele>1592.1666666666665</ele><time>2026-05-01T15:01:27.999Z</time></trkpt><trkpt lat="46.6384131" lon="12.5981013"><ele>1595.0</ele><time>2026-05-01T15:01:28.997Z</time></trkpt><trkpt lat="46.6384279" lon="12.5980072"><ele>1594.9999999999998</ele><time>2026-05-01T15:01:30.005Z</time></trkpt><trkpt lat="46.6384552" lon="12.5978845"><ele>1595.0</ele><time>2026-05-01T15:01:30.996Z</time></trkpt><trkpt lat="46.6384854" lon="12.5977871"><ele>1595.0</ele><time>2026-05-01T15:01:32.01Z</time></trkpt><trkpt lat="46.6385174" lon="12.5976943"><ele>1595.0</ele><time>2026-05-01T15:01:32.995Z</time></trkpt><trkpt lat="46.6385461" lon="12.5975858"><ele>1594.9999999999998</ele><time>2026-05-01T15:01:34Z</time></trkpt><trkpt lat="46.6385774" lon="12.5974714"><ele>1595.0</ele><time>2026-05-01T15:01:35.003Z</time></trkpt><trkpt lat="46.63861" lon="12.5973566"><ele>1590.8</ele><time>2026-05-01T15:01:35.997Z</time></trkpt><trkpt lat="46.6386433" lon="12.5972442"><ele>1586.6</ele><time>2026-05-01T15:01:37.006Z</time></trkpt><trkpt lat="46.6386767" lon="12.5971214"><ele>1582.4</ele><time>2026-05-01T15:01:38Z</time></trkpt><trkpt lat="46.6387104" lon="12.5969956"><ele>1578.2</ele><time>2026-05-01T15:01:38.999Z</time></trkpt><trkpt lat="46.6387464" lon="12.5968691"><ele>1574.0</ele><time>2026-05-01T15:01:40.008Z</time></trkpt><trkpt lat="46.6387799" lon="12.5967481"><ele>1573.9999999999998</ele><time>2026-05-01T15:01:41Z</time></trkpt><trkpt lat="46.6388111" lon="12.5966216"><ele>1574.0</ele><time>2026-05-01T15:01:41.996Z</time></trkpt><trkpt lat="46.6388388" lon="12.5964901"><ele>1574.0</ele><time>2026-05-01T15:01:42.995Z</time></trkpt><trkpt lat="46.638862" lon="12.5963658"><ele>1574.0</ele><time>2026-05-01T15:01:44Z</time></trkpt><trkpt lat="46.6388857" lon="12.5962483"><ele>1573.9999999999998</ele><time>2026-05-01T15:01:44.988Z</time></trkpt><trkpt lat="46.6389274" lon="12.5961391"><ele>1574.0</ele><time>2026-05-01T15:01:45.996Z</time></trkpt><trkpt lat="46.6389764" lon="12.5960301"><ele>1577.4</ele><time>2026-05-01T15:01:46.997Z</time></trkpt><trkpt lat="46.6390248" lon="12.5959058"><ele>1580.8000000000002</ele><time>2026-05-01T15:01:48.005Z</time></trkpt><trkpt lat="46.6390789" lon="12.5957797"><ele>1584.1999999999998</ele><time>2026-05-01T15:01:49.004Z</time></trkpt><trkpt lat="46.6391316" lon="12.5956673"><ele>1587.6</ele><time>2026-05-01T15:01:50.004Z</time></trkpt><trkpt lat="46.6391955" lon="12.5955626"><ele>1591.0</ele><time>2026-05-01T15:01:51.006Z</time></trkpt><trkpt lat="46.639274" lon="12.5954846"><ele>1591.0000000000002</ele><time>2026-05-01T15:01:51.998Z</time></trkpt><trkpt lat="46.6393427" lon="12.5953966"><ele>1591.0</ele><time>2026-05-01T15:01:52.996Z</time></trkpt><trkpt lat="46.6393914" lon="12.5953317"><ele>1591.0</ele><time>2026-05-01T15:01:53.997Z</time></trkpt><trkpt lat="46.6394413" lon="12.5952592"><ele>1591.0</ele><time>2026-05-01T15:01:54.997Z</time></trkpt><trkpt lat="46.6394717" lon="12.5951517"><ele>1591.0000000000002</ele><time>2026-05-01T15:01:55.999Z</time></trkpt><trkpt lat="46.6395132" lon="12.5950303"><ele>1591.0</ele><time>2026-05-01T15:01:56.996Z</time></trkpt><trkpt lat="46.6395601" lon="12.5949081"><ele>1591.6</ele><time>2026-05-01T15:01:57.989Z</time></trkpt><trkpt lat="46.6396195" lon="12.5947856"><ele>1592.1999999999998</ele><time>2026-05-01T15:01:58.989Z</time></trkpt><trkpt lat="46.6396762" lon="12.5946727"><ele>1592.8000000000002</ele><time>2026-05-01T15:01:59.995Z</time></trkpt><trkpt lat="46.6397359" lon="12.5945671"><ele>1593.4</ele><time>2026-05-01T15:02:01.004Z</time></trkpt><trkpt lat="46.639808" lon="12.5944618"><ele>1594.0</ele><time>2026-05-01T15:02:01.995Z</time></trkpt><trkpt lat="46.639891" lon="12.5943561"><ele>1597.6</ele><time>2026-05-01T15:02:03Z</time></trkpt><trkpt lat="46.639975" lon="12.5942595"><ele>1601.2</ele><time>2026-05-01T15:02:04.004Z</time></trkpt><trkpt lat="46.6400604" lon="12.5941685"><ele>1604.8</ele><time>2026-05-01T15:02:05.005Z</time></trkpt><trkpt lat="46.6401437" lon="12.594071"><ele>1608.3999999999999</ele><time>2026-05-01T15:02:05.997Z</time></trkpt><trkpt lat="46.6402217" lon="12.5939808"><ele>1612.0</ele><time>2026-05-01T15:02:06.996Z</time></trkpt><trkpt lat="46.6402905" lon="12.5939019"><ele>1611.5000000000002</ele><time>2026-05-01T15:02:07.994Z</time></trkpt><trkpt lat="46.6403474" lon="12.5938145"><ele>1611.0</ele><time>2026-05-01T15:02:09.009Z</time></trkpt><trkpt lat="46.6403843" lon="12.5937171"><ele>1610.5</ele><time>2026-05-01T15:02:09.999Z</time></trkpt><trkpt lat="46.6404105" lon="12.593625"><ele>1610.0</ele><time>2026-05-01T15:02:10.995Z</time></trkpt><trkpt lat="46.6404808" lon="12.5935486"><ele>1609.5000000000002</ele><time>2026-05-01T15:02:12.999Z</time></trkpt><trkpt lat="46.6405867" lon="12.5935331"><ele>1609.0</ele><time>2026-05-01T15:02:15.005Z</time></trkpt><trkpt lat="46.6406533" lon="12.5935306"><ele>1610.3333333333335</ele><time>2026-05-01T15:02:15.996Z</time></trkpt><trkpt lat="46.6407207" lon="12.5935212"><ele>1611.6666666666667</ele><time>2026-05-01T15:02:16.997Z</time></trkpt><trkpt lat="46.6408257" lon="12.5934628"><ele>1613.0</ele><time>2026-05-01T15:02:18.998Z</time></trkpt><trkpt lat="46.6409007" lon="12.5933979"><ele>1614.3333333333335</ele><time>2026-05-01T15:02:20.997Z</time></trkpt><trkpt lat="46.640973" lon="12.593399"><ele>1615.6666666666667</ele><time>2026-05-01T15:02:22.993Z</time></trkpt><trkpt lat="46.6410533" lon="12.5934058"><ele>1617.0</ele><time>2026-05-01T15:02:25.005Z</time></trkpt><trkpt lat="46.6411175" lon="12.5933613"><ele>1620.1666666666667</ele><time>2026-05-01T15:02:25.996Z</time></trkpt><trkpt lat="46.6411888" lon="12.5932973"><ele>1623.3333333333335</ele><time>2026-05-01T15:02:26.999Z</time></trkpt><trkpt lat="46.6412533" lon="12.5932152"><ele>1626.5</ele><time>2026-05-01T15:02:27.993Z</time></trkpt><trkpt lat="46.6413253" lon="12.5931179"><ele>1629.6666666666667</ele><time>2026-05-01T15:02:28.999Z</time></trkpt><trkpt lat="46.6413894" lon="12.5930451"><ele>1632.8333333333335</ele><time>2026-05-01T15:02:30.001Z</time></trkpt><trkpt lat="46.6414195" lon="12.5929149"><ele>1636.0</ele><time>2026-05-01T15:02:31.993Z</time></trkpt><trkpt lat="46.6412971" lon="12.5928677"><ele>1636.0</ele><time>2026-05-01T15:02:33.997Z</time></trkpt><trkpt lat="46.6411967" lon="12.5929051"><ele>1636.0</ele><time>2026-05-01T15:02:35.996Z</time></trkpt><trkpt lat="46.641131" lon="12.592843"><ele>1636.0</ele><time>2026-05-01T15:02:37.995Z</time></trkpt><trkpt lat="46.6411836" lon="12.5927529"><ele>1636.0</ele><time>2026-05-01T15:02:40.003Z</time></trkpt><trkpt lat="46.6413173" lon="12.5927055"><ele>1636.0</ele><time>2026-05-01T15:02:41.998Z</time></trkpt><trkpt lat="46.641382" lon="12.5926373"><ele>1636.0000000000002</ele><time>2026-05-01T15:02:43.009Z</time></trkpt><trkpt lat="46.6414643" lon="12.5925646"><ele>1636.0</ele><time>2026-05-01T15:02:44.002Z</time></trkpt><trkpt lat="46.6415451" lon="12.5925116"><ele>1636.0</ele><time>2026-05-01T15:02:44.995Z</time></trkpt><trkpt lat="46.6416104" lon="12.5924842"><ele>1636.0</ele><time>2026-05-01T15:02:46.002Z</time></trkpt><trkpt lat="46.6416636" lon="12.5924007"><ele>1636.0000000000002</ele><time>2026-05-01T15:02:48.01Z</time></trkpt><trkpt lat="46.6415842" lon="12.5923162"><ele>1636.0</ele><time>2026-05-01T15:02:50.001Z</time></trkpt><trkpt lat="46.6415151" lon="12.5923294"><ele>1636.0000000000002</ele><time>2026-05-01T15:02:50.999Z</time></trkpt><trkpt lat="46.6414386" lon="12.5923362"><ele>1636.0</ele><time>2026-05-01T15:02:51.996Z</time></trkpt><trkpt lat="46.6413727" lon="12.5923291"><ele>1636.0</ele><time>2026-05-01T15:02:53.001Z</time></trkpt><trkpt lat="46.6412996" lon="12.5922107"><ele>1636.0</ele><time>2026-05-01T15:02:54.997Z</time></trkpt><trkpt lat="46.6413466" lon="12.592092"><ele>1636.0000000000002</ele><time>2026-05-01T15:02:56.998Z</time></trkpt><trkpt lat="46.6414107" lon="12.5920616"><ele>1636.0</ele><time>2026-05-01T15:02:58Z</time></trkpt><trkpt lat="46.6414871" lon="12.5920054"><ele>1636.0000000000002</ele><time>2026-05-01T15:02:59.006Z</time></trkpt><trkpt lat="46.6415661" lon="12.5919419"><ele>1636.0</ele><time>2026-05-01T15:02:59.995Z</time></trkpt><trkpt lat="46.6416501" lon="12.5918997"><ele>1636.0</ele><time>2026-05-01T15:03:00.999Z</time></trkpt><trkpt lat="46.6417365" lon="12.5919038"><ele>1636.0</ele><time>2026-05-01T15:03:02Z</time></trkpt><trkpt lat="46.6418046" lon="12.5919455"><ele>1636.0000000000002</ele><time>2026-05-01T15:03:03.002Z</time></trkpt><trkpt lat="46.6418588" lon="12.5920159"><ele>1636.0</ele><time>2026-05-01T15:03:04.003Z</time></trkpt><trkpt lat="46.6419501" lon="12.5920763"><ele>1639.6</ele><time>2026-05-01T15:03:05.997Z</time></trkpt><trkpt lat="46.6420188" lon="12.5919405"><ele>1643.1999999999998</ele><time>2026-05-01T15:03:07.996Z</time></trkpt><trkpt lat="46.641993" lon="12.5918379"><ele>1646.8000000000002</ele><time>2026-05-01T15:03:08.998Z</time></trkpt><trkpt lat="46.641935" lon="12.5917236"><ele>1650.4</ele><time>2026-05-01T15:03:10.001Z</time></trkpt><trkpt lat="46.6418718" lon="12.5915978"><ele>1654.0</ele><time>2026-05-01T15:03:10.994Z</time></trkpt><trkpt lat="46.6418061" lon="12.5914832"><ele>1654.0</ele><time>2026-05-01T15:03:12.009Z</time></trkpt><trkpt lat="46.6417313" lon="12.5914006"><ele>1654.0</ele><time>2026-05-01T15:03:13.003Z</time></trkpt><trkpt lat="46.6416602" lon="12.5913267"><ele>1654.0</ele><time>2026-05-01T15:03:13.994Z</time></trkpt><trkpt lat="46.6415762" lon="12.5912103"><ele>1654.0</ele><time>2026-05-01T15:03:15.996Z</time></trkpt><trkpt lat="46.641585" lon="12.5910779"><ele>1654.0</ele><time>2026-05-01T15:03:18.003Z</time></trkpt><trkpt lat="46.6416974" lon="12.5910393"><ele>1657.8000000000002</ele><time>2026-05-01T15:03:19.996Z</time></trkpt><trkpt lat="46.6417746" lon="12.591039"><ele>1661.6000000000001</ele><time>2026-05-01T15:03:20.996Z</time></trkpt><trkpt lat="46.6418624" lon="12.5910442"><ele>1665.4</ele><time>2026-05-01T15:03:21.999Z</time></trkpt><trkpt lat="46.6419554" lon="12.5910298"><ele>1669.2</ele><time>2026-05-01T15:03:22.996Z</time></trkpt><trkpt lat="46.6420525" lon="12.5910297"><ele>1673.0</ele><time>2026-05-01T15:03:24.005Z</time></trkpt><trkpt lat="46.6421519" lon="12.5910542"><ele>1671.6000000000001</ele><time>2026-05-01T15:03:24.998Z</time></trkpt><trkpt lat="46.6422432" lon="12.5911168"><ele>1670.2</ele><time>2026-05-01T15:03:25.997Z</time></trkpt><trkpt lat="46.6423374" lon="12.5912034"><ele>1668.8</ele><time>2026-05-01T15:03:26.995Z</time></trkpt><trkpt lat="46.642436" lon="12.5912752"><ele>1667.4</ele><time>2026-05-01T15:03:27.999Z</time></trkpt><trkpt lat="46.6425346" lon="12.5913291"><ele>1666.0</ele><time>2026-05-01T15:03:29.001Z</time></trkpt><trkpt lat="46.6426325" lon="12.5913826"><ele>1666.0</ele><time>2026-05-01T15:03:29.997Z</time></trkpt><trkpt lat="46.6427277" lon="12.5914291"><ele>1666.0</ele><time>2026-05-01T15:03:30.996Z</time></trkpt><trkpt lat="46.6428156" lon="12.5914784"><ele>1666.0</ele><time>2026-05-01T15:03:32.002Z</time></trkpt><trkpt lat="46.6429145" lon="12.5915192"><ele>1666.0</ele><time>2026-05-01T15:03:32.997Z</time></trkpt><trkpt lat="46.6430216" lon="12.5915414"><ele>1666.0</ele><time>2026-05-01T15:03:34.007Z</time></trkpt><trkpt lat="46.6431111" lon="12.5915514"><ele>1668.0000000000002</ele><time>2026-05-01T15:03:34.996Z</time></trkpt><trkpt lat="46.6431901" lon="12.5915363"><ele>1670.0</ele><time>2026-05-01T15:03:36Z</time></trkpt><trkpt lat="46.6432683" lon="12.5915135"><ele>1672.0</ele><time>2026-05-01T15:03:36.991Z</time></trkpt><trkpt lat="46.6433469" lon="12.5914848"><ele>1674.0</ele><time>2026-05-01T15:03:38.003Z</time></trkpt><trkpt lat="46.6434231" lon="12.5914436"><ele>1676.0000000000002</ele><time>2026-05-01T15:03:38.997Z</time></trkpt><trkpt lat="46.6435027" lon="12.5913826"><ele>1678.0</ele><time>2026-05-01T15:03:40.002Z</time></trkpt><trkpt lat="46.643572" lon="12.5913187"><ele>1678.0</ele><time>2026-05-01T15:03:41.002Z</time></trkpt><trkpt lat="46.6436294" lon="12.5912759"><ele>1678.0</ele><time>2026-05-01T15:03:41.996Z</time></trkpt><trkpt lat="46.6436968" lon="12.591259"><ele>1678.0</ele><time>2026-05-01T15:03:42.997Z</time></trkpt><trkpt lat="46.6437664" lon="12.5912496"><ele>1678.0</ele><time>2026-05-01T15:03:44.009Z</time></trkpt><trkpt lat="46.6438408" lon="12.591274"><ele>1678.0</ele><time>2026-05-01T15:03:45.001Z</time></trkpt><trkpt lat="46.6439143" lon="12.5913339"><ele>1678.0</ele><time>2026-05-01T15:03:46.002Z</time></trkpt><trkpt lat="46.643977" lon="12.5914035"><ele>1678.0</ele><time>2026-05-01T15:03:47Z</time></trkpt><trkpt lat="46.6440347" lon="12.5914423"><ele>1681.4</ele><time>2026-05-01T15:03:47.999Z</time></trkpt><trkpt lat="46.6441655" lon="12.5914419"><ele>1684.8000000000002</ele><time>2026-05-01T15:03:50.003Z</time></trkpt><trkpt lat="46.6442401" lon="12.5914558"><ele>1688.2</ele><time>2026-05-01T15:03:50.998Z</time></trkpt><trkpt lat="46.6443199" lon="12.5914653"><ele>1691.6</ele><time>2026-05-01T15:03:53.009Z</time></trkpt><trkpt lat="46.6443112" lon="12.5913668"><ele>1695.0</ele><time>2026-05-01T15:03:55.005Z</time></trkpt><trkpt lat="46.644206" lon="12.5912949"><ele>1695.0</ele><time>2026-05-01T15:03:56.996Z</time></trkpt><trkpt lat="46.6441369" lon="12.5912561"><ele>1695.0</ele><time>2026-05-01T15:03:57.998Z</time></trkpt><trkpt lat="46.64408" lon="12.5911869"><ele>1695.0</ele><time>2026-05-01T15:04:00.016Z</time></trkpt><trkpt lat="46.6441505" lon="12.591146"><ele>1695.0</ele><time>2026-05-01T15:04:03.996Z</time></trkpt><trkpt lat="46.6442569" lon="12.5912369"><ele>1695.0</ele><time>2026-05-01T15:04:06.001Z</time></trkpt><trkpt lat="46.644328" lon="12.591254"><ele>1695.0</ele><time>2026-05-01T15:04:07.01Z</time></trkpt><trkpt lat="46.6444087" lon="12.5912537"><ele>1696.4</ele><time>2026-05-01T15:04:07.999Z</time></trkpt><trkpt lat="46.6444974" lon="12.5912436"><ele>1697.8</ele><time>2026-05-01T15:04:08.993Z</time></trkpt><trkpt lat="46.6445979" lon="12.5912197"><ele>1699.1999999999998</ele><time>2026-05-01T15:04:09.994Z</time></trkpt><trkpt lat="46.6446965" lon="12.5911802"><ele>1700.6</ele><time>2026-05-01T15:04:10.999Z</time></trkpt><trkpt lat="46.6448001" lon="12.5911124"><ele>1702.0</ele><time>2026-05-01T15:04:12.005Z</time></trkpt><trkpt lat="46.6449077" lon="12.5910353"><ele>1707.25</ele><time>2026-05-01T15:04:13.001Z</time></trkpt><trkpt lat="46.64502" lon="12.5909551"><ele>1712.5</ele><time>2026-05-01T15:04:13.993Z</time></trkpt><trkpt lat="46.6451308" lon="12.5908698"><ele>1717.75</ele><time>2026-05-01T15:04:15.003Z</time></trkpt><trkpt lat="46.6452316" lon="12.590788"><ele>1723.0</ele><time>2026-05-01T15:04:15.996Z</time></trkpt><trkpt lat="46.645322" lon="12.5907422"><ele>1723.0000000000002</ele><time>2026-05-01T15:04:17.001Z</time></trkpt><trkpt lat="46.6454096" lon="12.5907191"><ele>1723.0</ele><time>2026-05-01T15:04:17.995Z</time></trkpt><trkpt lat="46.645487" lon="12.59074"><ele>1723.0</ele><time>2026-05-01T15:04:19.006Z</time></trkpt><trkpt lat="46.6455483" lon="12.5906863"><ele>1723.0</ele><time>2026-05-01T15:04:20.997Z</time></trkpt><trkpt lat="46.6455512" lon="12.5905766"><ele>1723.0000000000002</ele><time>2026-05-01T15:04:23.001Z</time></trkpt><trkpt lat="46.6455395" lon="12.5906725"><ele>1723.0</ele><time>2026-05-01T15:06:01.995Z</time></trkpt><trkpt lat="46.6454765" lon="12.5907178"><ele>1723.0</ele><time>2026-05-01T15:06:03.998Z</time></trkpt><trkpt lat="46.6453473" lon="12.5907212"><ele>1723.0000000000002</ele><time>2026-05-01T15:06:05.997Z</time></trkpt><trkpt lat="46.6452728" lon="12.5907546"><ele>1723.0000000000002</ele><time>2026-05-01T15:06:06.995Z</time></trkpt><trkpt lat="46.6451824" lon="12.5908111"><ele>1723.0</ele><time>2026-05-01T15:06:08.001Z</time></trkpt><trkpt lat="46.6450878" lon="12.5908779"><ele>1723.0</ele><time>2026-05-01T15:06:08.997Z</time></trkpt><trkpt lat="46.6449914" lon="12.5909437"><ele>1725.1666666666667</ele><time>2026-05-01T15:06:10Z</time></trkpt><trkpt lat="46.6448902" lon="12.5910028"><ele>1727.3333333333335</ele><time>2026-05-01T15:06:10.998Z</time></trkpt><trkpt lat="46.6447987" lon="12.5910547"><ele>1729.5</ele><time>2026-05-01T15:06:12Z</time></trkpt><trkpt lat="46.6447212" lon="12.5910984"><ele>1731.6666666666665</ele><time>2026-05-01T15:06:12.999Z</time></trkpt><trkpt lat="46.6446553" lon="12.5911463"><ele>1733.8333333333333</ele><time>2026-05-01T15:06:13.996Z</time></trkpt><trkpt lat="46.6445941" lon="12.5911791"><ele>1736.0</ele><time>2026-05-01T15:06:15.001Z</time></trkpt><trkpt lat="46.6445335" lon="12.5912109"><ele>1734.1666666666665</ele><time>2026-05-01T15:06:16.005Z</time></trkpt><trkpt lat="46.6444719" lon="12.5912312"><ele>1732.3333333333333</ele><time>2026-05-01T15:06:16.997Z</time></trkpt><trkpt lat="46.6443993" lon="12.591241"><ele>1730.5</ele><time>2026-05-01T15:06:18.005Z</time></trkpt><trkpt lat="46.644325" lon="12.5912488"><ele>1728.6666666666665</ele><time>2026-05-01T15:06:18.999Z</time></trkpt><trkpt lat="46.6442568" lon="12.5912485"><ele>1726.8333333333333</ele><time>2026-05-01T15:06:20.002Z</time></trkpt><trkpt lat="46.6441467" lon="12.5912084"><ele>1725.0</ele><time>2026-05-01T15:06:22.004Z</time></trkpt><trkpt lat="46.6440738" lon="12.5911521"><ele>1720.0</ele><time>2026-05-01T15:06:23.99Z</time></trkpt><trkpt lat="46.6440172" lon="12.5912123"><ele>1715.0</ele><time>2026-05-01T15:06:26.003Z</time></trkpt><trkpt lat="46.6440464" lon="12.591296"><ele>1710.0</ele><time>2026-05-01T15:06:28.001Z</time></trkpt><trkpt lat="46.6441147" lon="12.5913389"><ele>1705.0</ele><time>2026-05-01T15:06:30.006Z</time></trkpt><trkpt lat="46.6442157" lon="12.5913938"><ele>1700.0</ele><time>2026-05-01T15:06:31.997Z</time></trkpt><trkpt lat="46.6442685" lon="12.5914584"><ele>1695.0</ele><time>2026-05-01T15:06:34.996Z</time></trkpt><trkpt lat="46.6441626" lon="12.5914694"><ele>1695.0</ele><time>2026-05-01T15:06:37.998Z</time></trkpt><trkpt lat="46.6440518" lon="12.5914244"><ele>1695.0</ele><time>2026-05-01T15:06:39.993Z</time></trkpt><trkpt lat="46.6439614" lon="12.5913819"><ele>1695.0</ele><time>2026-05-01T15:06:42.002Z</time></trkpt><trkpt lat="46.6438437" lon="12.5912759"><ele>1695.0</ele><time>2026-05-01T15:06:44.005Z</time></trkpt><trkpt lat="46.6437733" lon="12.5912489"><ele>1695.0</ele><time>2026-05-01T15:06:44.992Z</time></trkpt><trkpt lat="46.6436991" lon="12.591254"><ele>1691.6</ele><time>2026-05-01T15:06:46.006Z</time></trkpt><trkpt lat="46.6436215" lon="12.5912854"><ele>1688.2</ele><time>2026-05-01T15:06:46.999Z</time></trkpt><trkpt lat="46.643546" lon="12.5913326"><ele>1684.8000000000002</ele><time>2026-05-01T15:06:47.998Z</time></trkpt><trkpt lat="46.6434742" lon="12.5913833"><ele>1681.4</ele><time>2026-05-01T15:06:48.993Z</time></trkpt><trkpt lat="46.6434093" lon="12.5914309"><ele>1678.0</ele><time>2026-05-01T15:06:50.002Z</time></trkpt><trkpt lat="46.6432761" lon="12.591487"><ele>1678.0000000000002</ele><time>2026-05-01T15:06:52Z</time></trkpt><trkpt lat="46.6432009" lon="12.5915105"><ele>1678.0</ele><time>2026-05-01T15:06:53.002Z</time></trkpt><trkpt lat="46.643128" lon="12.5915261"><ele>1678.0</ele><time>2026-05-01T15:06:53.998Z</time></trkpt><trkpt lat="46.6430479" lon="12.5915298"><ele>1678.0</ele><time>2026-05-01T15:06:55.004Z</time></trkpt><trkpt lat="46.6429629" lon="12.5915146"><ele>1678.0000000000002</ele><time>2026-05-01T15:06:55.994Z</time></trkpt><trkpt lat="46.6428806" lon="12.5914946"><ele>1678.0</ele><time>2026-05-01T15:06:56.994Z</time></trkpt><trkpt lat="46.6428042" lon="12.5914696"><ele>1675.6000000000001</ele><time>2026-05-01T15:06:57.994Z</time></trkpt><trkpt lat="46.6427151" lon="12.5914313"><ele>1673.2</ele><time>2026-05-01T15:06:58.995Z</time></trkpt><trkpt lat="46.6426185" lon="12.5913803"><ele>1670.8</ele><time>2026-05-01T15:07:00Z</time></trkpt><trkpt lat="46.6425223" lon="12.5913341"><ele>1668.4</ele><time>2026-05-01T15:07:01.005Z</time></trkpt><trkpt lat="46.6424272" lon="12.5912928"><ele>1666.0</ele><time>2026-05-01T15:07:02Z</time></trkpt><trkpt lat="46.6423413" lon="12.5912343"><ele>1667.1666666666667</ele><time>2026-05-01T15:07:03.009Z</time></trkpt><trkpt lat="46.6422634" lon="12.5911695"><ele>1668.3333333333335</ele><time>2026-05-01T15:07:03.995Z</time></trkpt><trkpt lat="46.6421867" lon="12.5911139"><ele>1669.5</ele><time>2026-05-01T15:07:05Z</time></trkpt><trkpt lat="46.6421025" lon="12.5910787"><ele>1670.6666666666665</ele><time>2026-05-01T15:07:06.002Z</time></trkpt><trkpt lat="46.6420124" lon="12.5910634"><ele>1671.8333333333333</ele><time>2026-05-01T15:07:06.996Z</time></trkpt><trkpt lat="46.6419231" lon="12.5910634"><ele>1673.0</ele><time>2026-05-01T15:07:08Z</time></trkpt><trkpt lat="46.6418354" lon="12.5910722"><ele>1673.0</ele><time>2026-05-01T15:07:08.998Z</time></trkpt><trkpt lat="46.6417438" lon="12.5910689"><ele>1673.0</ele><time>2026-05-01T15:07:10.003Z</time></trkpt><trkpt lat="46.6416687" lon="12.5910633"><ele>1673.0</ele><time>2026-05-01T15:07:11.002Z</time></trkpt><trkpt lat="46.6415644" lon="12.5910657"><ele>1673.0</ele><time>2026-05-01T15:07:13.002Z</time></trkpt><trkpt lat="46.6415381" lon="12.5911971"><ele>1673.0</ele><time>2026-05-01T15:07:14.99Z</time></trkpt><trkpt lat="46.641633" lon="12.5913389"><ele>1669.8333333333333</ele><time>2026-05-01T15:07:16.998Z</time></trkpt><trkpt lat="46.6417078" lon="12.5914021"><ele>1666.6666666666665</ele><time>2026-05-01T15:07:17.996Z</time></trkpt><trkpt lat="46.6417653" lon="12.5914778"><ele>1663.5</ele><time>2026-05-01T15:07:18.997Z</time></trkpt><trkpt lat="46.6418207" lon="12.5915655"><ele>1660.3333333333335</ele><time>2026-05-01T15:07:19.994Z</time></trkpt><trkpt lat="46.6418722" lon="12.5916622"><ele>1657.1666666666667</ele><time>2026-05-01T15:07:21.012Z</time></trkpt><trkpt lat="46.6419158" lon="12.5917664"><ele>1654.0</ele><time>2026-05-01T15:07:22.003Z</time></trkpt><trkpt lat="46.6419532" lon="12.5918509"><ele>1654.0000000000002</ele><time>2026-05-01T15:07:23.003Z</time></trkpt><trkpt lat="46.641993" lon="12.5919776"><ele>1654.0</ele><time>2026-05-01T15:07:25.002Z</time></trkpt><trkpt lat="46.6419427" lon="12.5920641"><ele>1654.0</ele><time>2026-05-01T15:07:27.001Z</time></trkpt><trkpt lat="46.6418455" lon="12.5920139"><ele>1654.0</ele><time>2026-05-01T15:07:29.004Z</time></trkpt><trkpt lat="46.6417895" lon="12.5919617"><ele>1654.0000000000002</ele><time>2026-05-01T15:07:29.992Z</time></trkpt><trkpt lat="46.6417215" lon="12.5919305"><ele>1654.0</ele><time>2026-05-01T15:07:31.002Z</time></trkpt><trkpt lat="46.6416422" lon="12.5919456"><ele>1654.0</ele><time>2026-05-01T15:07:31.995Z</time></trkpt><trkpt lat="46.6415533" lon="12.5919878"><ele>1654.0</ele><time>2026-05-01T15:07:33Z</time></trkpt><trkpt lat="46.64147" lon="12.5920413"><ele>1654.0</ele><time>2026-05-01T15:07:34.009Z</time></trkpt><trkpt lat="46.6414016" lon="12.5920735"><ele>1654.0</ele><time>2026-05-01T15:07:34.995Z</time></trkpt><trkpt lat="46.6412942" lon="12.5921059"><ele>1654.0</ele><time>2026-05-01T15:07:36.995Z</time></trkpt><trkpt lat="46.6412768" lon="12.5922368"><ele>1651.0000000000002</ele><time>2026-05-01T15:07:38.994Z</time></trkpt><trkpt lat="46.6413254" lon="12.5923005"><ele>1648.0</ele><time>2026-05-01T15:07:40.007Z</time></trkpt><trkpt lat="46.6413923" lon="12.5923325"><ele>1645.0</ele><time>2026-05-01T15:07:41.002Z</time></trkpt><trkpt lat="46.6414751" lon="12.5923253"><ele>1642.0</ele><time>2026-05-01T15:07:42Z</time></trkpt><trkpt lat="46.6415439" lon="12.5923155"><ele>1639.0000000000002</ele><time>2026-05-01T15:07:43Z</time></trkpt><trkpt lat="46.6416316" lon="12.5923594"><ele>1636.0</ele><time>2026-05-01T15:07:44.996Z</time></trkpt><trkpt lat="46.6416219" lon="12.5924817"><ele>1636.0000000000002</ele><time>2026-05-01T15:07:46.995Z</time></trkpt><trkpt lat="46.6415049" lon="12.5925721"><ele>1636.0</ele><time>2026-05-01T15:07:48.995Z</time></trkpt><trkpt lat="46.641432" lon="12.5926301"><ele>1636.0</ele><time>2026-05-01T15:07:50.015Z</time></trkpt><trkpt lat="46.6413608" lon="12.592683"><ele>1636.0</ele><time>2026-05-01T15:07:51Z</time></trkpt><trkpt lat="46.6412973" lon="12.5927342"><ele>1636.0000000000002</ele><time>2026-05-01T15:07:51.994Z</time></trkpt><trkpt lat="46.6412315" lon="12.5927503"><ele>1636.0</ele><time>2026-05-01T15:07:52.995Z</time></trkpt><trkpt lat="46.6411377" lon="12.5927724"><ele>1636.0</ele><time>2026-05-01T15:07:54.999Z</time></trkpt><trkpt lat="46.6411362" lon="12.5929023"><ele>1636.0</ele><time>2026-05-01T15:07:57Z</time></trkpt><trkpt lat="46.6412413" lon="12.5929076"><ele>1636.0</ele><time>2026-05-01T15:07:58.997Z</time></trkpt><trkpt lat="46.6413372" lon="12.5928784"><ele>1636.0</ele><time>2026-05-01T15:08:00.996Z</time></trkpt><trkpt lat="46.6413812" lon="12.5929499"><ele>1636.0</ele><time>2026-05-01T15:08:02.995Z</time></trkpt><trkpt lat="46.6413285" lon="12.5930602"><ele>1636.0000000000002</ele><time>2026-05-01T15:08:04.997Z</time></trkpt><trkpt lat="46.641275" lon="12.5931162"><ele>1636.0</ele><time>2026-05-01T15:08:06Z</time></trkpt><trkpt lat="46.641209" lon="12.5931827"><ele>1636.0</ele><time>2026-05-01T15:08:07.01Z</time></trkpt><trkpt lat="46.6411444" lon="12.5932468"><ele>1636.0</ele><time>2026-05-01T15:08:07.993Z</time></trkpt><trkpt lat="46.6410848" lon="12.5933049"><ele>1636.0000000000002</ele><time>2026-05-01T15:08:08.997Z</time></trkpt><trkpt lat="46.6410322" lon="12.5933566"><ele>1636.0</ele><time>2026-05-01T15:08:09.997Z</time></trkpt><trkpt lat="46.6409348" lon="12.5933886"><ele>1632.1999999999998</ele><time>2026-05-01T15:08:11.996Z</time></trkpt><trkpt lat="46.6408337" lon="12.5934449"><ele>1628.3999999999999</ele><time>2026-05-01T15:08:13.998Z</time></trkpt><trkpt lat="46.640737" lon="12.5935313"><ele>1624.6</ele><time>2026-05-01T15:08:16.002Z</time></trkpt><trkpt lat="46.6406112" lon="12.5935744"><ele>1620.8</ele><time>2026-05-01T15:08:17.998Z</time></trkpt><trkpt lat="46.6405299" lon="12.5935696"><ele>1617.0</ele><time>2026-05-01T15:08:18.991Z</time></trkpt><trkpt lat="46.6404115" lon="12.5935623"><ele>1617.0</ele><time>2026-05-01T15:08:20.999Z</time></trkpt><trkpt lat="46.6403216" lon="12.5936065"><ele>1617.0</ele><time>2026-05-01T15:08:23.009Z</time></trkpt><trkpt lat="46.6402731" lon="12.5937518"><ele>1617.0</ele><time>2026-05-01T15:08:25.002Z</time></trkpt><trkpt lat="46.6402444" lon="12.5938348"><ele>1617.0</ele><time>2026-05-01T15:08:26.008Z</time></trkpt><trkpt lat="46.6401976" lon="12.5939093"><ele>1617.0</ele><time>2026-05-01T15:08:27Z</time></trkpt><trkpt lat="46.6401344" lon="12.5939942"><ele>1617.0</ele><time>2026-05-01T15:08:28.001Z</time></trkpt><trkpt lat="46.6400734" lon="12.5940807"><ele>1616.0</ele><time>2026-05-01T15:08:28.998Z</time></trkpt><trkpt lat="46.6400055" lon="12.594167"><ele>1615.0</ele><time>2026-05-01T15:08:29.999Z</time></trkpt><trkpt lat="46.6399283" lon="12.5942714"><ele>1614.0</ele><time>2026-05-01T15:08:30.996Z</time></trkpt><trkpt lat="46.6398501" lon="12.5943781"><ele>1613.0</ele><time>2026-05-01T15:08:31.996Z</time></trkpt><trkpt lat="46.6397807" lon="12.5944818"><ele>1612.0</ele><time>2026-05-01T15:08:33.003Z</time></trkpt><trkpt lat="46.6397155" lon="12.594573"><ele>1612.6</ele><time>2026-05-01T15:08:34.002Z</time></trkpt><trkpt lat="46.6396527" lon="12.5946792"><ele>1613.1999999999998</ele><time>2026-05-01T15:08:35.006Z</time></trkpt><trkpt lat="46.6395933" lon="12.5947849"><ele>1613.8</ele><time>2026-05-01T15:08:35.997Z</time></trkpt><trkpt lat="46.6395443" lon="12.594893"><ele>1614.4</ele><time>2026-05-01T15:08:37Z</time></trkpt><trkpt lat="46.639494" lon="12.5950032"><ele>1615.0</ele><time>2026-05-01T15:08:38.001Z</time></trkpt><trkpt lat="46.6394492" lon="12.5951065"><ele>1615.0000000000002</ele><time>2026-05-01T15:08:39.002Z</time></trkpt><trkpt lat="46.6394117" lon="12.5952092"><ele>1615.0</ele><time>2026-05-01T15:08:39.991Z</time></trkpt><trkpt lat="46.639382" lon="12.5952923"><ele>1615.0</ele><time>2026-05-01T15:08:40.998Z</time></trkpt><trkpt lat="46.6393182" lon="12.5954421"><ele>1615.0</ele><time>2026-05-01T15:08:42.993Z</time></trkpt><trkpt lat="46.6392695" lon="12.5955145"><ele>1615.0000000000002</ele><time>2026-05-01T15:08:44.007Z</time></trkpt><trkpt lat="46.6392114" lon="12.5955877"><ele>1615.0</ele><time>2026-05-01T15:08:44.994Z</time></trkpt><trkpt lat="46.6391513" lon="12.5956783"><ele>1611.0000000000002</ele><time>2026-05-01T15:08:45.997Z</time></trkpt><trkpt lat="46.6391031" lon="12.5957881"><ele>1607.0</ele><time>2026-05-01T15:08:46.999Z</time></trkpt><trkpt lat="46.6390532" lon="12.5958876"><ele>1603.0</ele><time>2026-05-01T15:08:48.002Z</time></trkpt><trkpt lat="46.6390037" lon="12.5959886"><ele>1599.0</ele><time>2026-05-01T15:08:49.006Z</time></trkpt><trkpt lat="46.6389554" lon="12.5960773"><ele>1595.0000000000002</ele><time>2026-05-01T15:08:50.003Z</time></trkpt><trkpt lat="46.6389144" lon="12.5961688"><ele>1591.0</ele><time>2026-05-01T15:08:50.998Z</time></trkpt><trkpt lat="46.638877" lon="12.5962573"><ele>1587.6</ele><time>2026-05-01T15:08:51.999Z</time></trkpt><trkpt lat="46.6388491" lon="12.5963672"><ele>1584.1999999999998</ele><time>2026-05-01T15:08:52.995Z</time></trkpt><trkpt lat="46.638829" lon="12.5964841"><ele>1580.8000000000002</ele><time>2026-05-01T15:08:54.011Z</time></trkpt><trkpt lat="46.6388028" lon="12.5966161"><ele>1577.4</ele><time>2026-05-01T15:08:55Z</time></trkpt><trkpt lat="46.6387707" lon="12.5967565"><ele>1574.0</ele><time>2026-05-01T15:08:56.002Z</time></trkpt><trkpt lat="46.6387334" lon="12.5969024"><ele>1572.25</ele><time>2026-05-01T15:08:56.994Z</time></trkpt><trkpt lat="46.6386952" lon="12.5970526"><ele>1570.5</ele><time>2026-05-01T15:08:58.001Z</time></trkpt><trkpt lat="46.6386579" lon="12.5972008"><ele>1568.75</ele><time>2026-05-01T15:08:58.997Z</time></trkpt><trkpt lat="46.638616" lon="12.5973655"><ele>1567.0</ele><time>2026-05-01T15:09:00.002Z</time></trkpt><trkpt lat="46.6385832" lon="12.5975221"><ele>1571.6666666666667</ele><time>2026-05-01T15:09:01Z</time></trkpt><trkpt lat="46.6385499" lon="12.5976564"><ele>1576.3333333333335</ele><time>2026-05-01T15:09:01.99Z</time></trkpt><trkpt lat="46.6385197" lon="12.5977818"><ele>1581.0</ele><time>2026-05-01T15:09:02.993Z</time></trkpt><trkpt lat="46.6384829" lon="12.5978974"><ele>1585.6666666666665</ele><time>2026-05-01T15:09:03.994Z</time></trkpt><trkpt lat="46.6384527" lon="12.5979976"><ele>1590.3333333333333</ele><time>2026-05-01T15:09:05Z</time></trkpt><trkpt lat="46.6384296" lon="12.5981026"><ele>1595.0</ele><time>2026-05-01T15:09:06.003Z</time></trkpt><trkpt lat="46.6384233" lon="12.5982137"><ele>1594.9999999999998</ele><time>2026-05-01T15:09:07Z</time></trkpt><trkpt lat="46.6384327" lon="12.598321"><ele>1595.0</ele><time>2026-05-01T15:09:07.995Z</time></trkpt><trkpt lat="46.6384371" lon="12.5984422"><ele>1595.0</ele><time>2026-05-01T15:09:09Z</time></trkpt><trkpt lat="46.6384376" lon="12.5985728"><ele>1595.0</ele><time>2026-05-01T15:09:09.999Z</time></trkpt><trkpt lat="46.6384336" lon="12.598703"><ele>1594.9999999999998</ele><time>2026-05-01T15:09:11Z</time></trkpt><trkpt lat="46.6384275" lon="12.5988376"><ele>1595.0</ele><time>2026-05-01T15:09:11.995Z</time></trkpt><trkpt lat="46.6384229" lon="12.5989764"><ele>1592.1666666666665</ele><time>2026-05-01T15:09:13.001Z</time></trkpt><trkpt lat="46.6384164" lon="12.5991123"><ele>1589.3333333333333</ele><time>2026-05-01T15:09:14Z</time></trkpt><trkpt lat="46.6384153" lon="12.5992473"><ele>1586.5</ele><time>2026-05-01T15:09:14.998Z</time></trkpt><trkpt lat="46.6384045" lon="12.5993656"><ele>1583.6666666666665</ele><time>2026-05-01T15:09:16.01Z</time></trkpt><trkpt lat="46.6383872" lon="12.5994733"><ele>1580.8333333333333</ele><time>2026-05-01T15:09:17.003Z</time></trkpt><trkpt lat="46.6383578" lon="12.5995757"><ele>1578.0</ele><time>2026-05-01T15:09:17.995Z</time></trkpt><trkpt lat="46.6383142" lon="12.5996913"><ele>1574.6000000000001</ele><time>2026-05-01T15:09:18.998Z</time></trkpt><trkpt lat="46.6382545" lon="12.5998198"><ele>1571.2</ele><time>2026-05-01T15:09:19.999Z</time></trkpt><trkpt lat="46.638186" lon="12.5999555"><ele>1567.8</ele><time>2026-05-01T15:09:21.004Z</time></trkpt><trkpt lat="46.6381237" lon="12.6000845"><ele>1564.4</ele><time>2026-05-01T15:09:22.007Z</time></trkpt><trkpt lat="46.6380678" lon="12.600215"><ele>1561.0</ele><time>2026-05-01T15:09:23Z</time></trkpt><trkpt lat="46.638021" lon="12.6003262"><ele>1556.1999999999998</ele><time>2026-05-01T15:09:24Z</time></trkpt><trkpt lat="46.6379775" lon="12.6004531"><ele>1551.3999999999999</ele><time>2026-05-01T15:09:24.998Z</time></trkpt><trkpt lat="46.6379356" lon="12.6005925"><ele>1546.6</ele><time>2026-05-01T15:09:25.998Z</time></trkpt><trkpt lat="46.6378792" lon="12.6007305"><ele>1541.8</ele><time>2026-05-01T15:09:27.003Z</time></trkpt><trkpt lat="46.63782" lon="12.6008696"><ele>1537.0</ele><time>2026-05-01T15:09:27.998Z</time></trkpt><trkpt lat="46.6377685" lon="12.6009907"><ele>1542.1666666666667</ele><time>2026-05-01T15:09:29.002Z</time></trkpt><trkpt lat="46.6377334" lon="12.6011211"><ele>1547.3333333333335</ele><time>2026-05-01T15:09:30.003Z</time></trkpt><trkpt lat="46.6376976" lon="12.6012543"><ele>1552.5</ele><time>2026-05-01T15:09:30.996Z</time></trkpt><trkpt lat="46.6376586" lon="12.6013819"><ele>1557.6666666666665</ele><time>2026-05-01T15:09:31.993Z</time></trkpt><trkpt lat="46.6376218" lon="12.6014909"><ele>1562.8333333333333</ele><time>2026-05-01T15:09:32.998Z</time></trkpt><trkpt lat="46.6375841" lon="12.6015845"><ele>1568.0</ele><time>2026-05-01T15:09:33.998Z</time></trkpt><trkpt lat="46.6375283" lon="12.6016685"><ele>1568.0</ele><time>2026-05-01T15:09:35.001Z</time></trkpt><trkpt lat="46.6374823" lon="12.6017576"><ele>1568.0</ele><time>2026-05-01T15:09:35.998Z</time></trkpt><trkpt lat="46.6374295" lon="12.6018389"><ele>1568.0</ele><time>2026-05-01T15:09:37Z</time></trkpt><trkpt lat="46.6373726" lon="12.6019141"><ele>1568.0</ele><time>2026-05-01T15:09:38.001Z</time></trkpt><trkpt lat="46.6373225" lon="12.6019794"><ele>1568.0</ele><time>2026-05-01T15:09:38.999Z</time></trkpt><trkpt lat="46.637269" lon="12.6020482"><ele>1568.0</ele><time>2026-05-01T15:09:40.001Z</time></trkpt><trkpt lat="46.6372214" lon="12.6021286"><ele>1568.0</ele><time>2026-05-01T15:09:41.008Z</time></trkpt><trkpt lat="46.637182" lon="12.602228"><ele>1563.6000000000001</ele><time>2026-05-01T15:09:41.995Z</time></trkpt><trkpt lat="46.6371439" lon="12.6023403"><ele>1559.2</ele><time>2026-05-01T15:09:43.002Z</time></trkpt><trkpt lat="46.637104" lon="12.6024615"><ele>1554.8</ele><time>2026-05-01T15:09:44.006Z</time></trkpt><trkpt lat="46.6370646" lon="12.6025865"><ele>1550.4</ele><time>2026-05-01T15:09:44.995Z</time></trkpt><trkpt lat="46.6370289" lon="12.6027095"><ele>1546.0</ele><time>2026-05-01T15:09:46.005Z</time></trkpt><trkpt lat="46.6369942" lon="12.6028376"><ele>1548.5000000000002</ele><time>2026-05-01T15:09:47.002Z</time></trkpt><trkpt lat="46.6369613" lon="12.602972"><ele>1551.0</ele><time>2026-05-01T15:09:48Z</time></trkpt><trkpt lat="46.6369345" lon="12.6031045"><ele>1553.5</ele><time>2026-05-01T15:09:49.004Z</time></trkpt><trkpt lat="46.6369046" lon="12.6032258"><ele>1556.0</ele><time>2026-05-01T15:09:49.997Z</time></trkpt><trkpt lat="46.636874" lon="12.6033357"><ele>1558.5000000000002</ele><time>2026-05-01T15:09:51.007Z</time></trkpt><trkpt lat="46.6368411" lon="12.6034345"><ele>1561.0</ele><time>2026-05-01T15:09:52.002Z</time></trkpt><trkpt lat="46.6367991" lon="12.603541"><ele>1561.0000000000002</ele><time>2026-05-01T15:09:53.003Z</time></trkpt><trkpt lat="46.636751" lon="12.6036417"><ele>1561.0</ele><time>2026-05-01T15:09:54.008Z</time></trkpt><trkpt lat="46.6366989" lon="12.6037411"><ele>1561.0</ele><time>2026-05-01T15:09:54.996Z</time></trkpt><trkpt lat="46.636644" lon="12.6038361"><ele>1561.0</ele><time>2026-05-01T15:09:55.996Z</time></trkpt><trkpt lat="46.6365911" lon="12.6039414"><ele>1561.0000000000002</ele><time>2026-05-01T15:09:56.996Z</time></trkpt><trkpt lat="46.636545" lon="12.604034"><ele>1561.0</ele><time>2026-05-01T15:09:58.002Z</time></trkpt><trkpt lat="46.6365004" lon="12.6041172"><ele>1557.5000000000002</ele><time>2026-05-01T15:09:59.001Z</time></trkpt><trkpt lat="46.6364048" lon="12.6042322"><ele>1554.0</ele><time>2026-05-01T15:10:00.998Z</time></trkpt><trkpt lat="46.6363386" lon="12.6042851"><ele>1550.5</ele><time>2026-05-01T15:10:01.999Z</time></trkpt><trkpt lat="46.6362764" lon="12.6043472"><ele>1547.0</ele><time>2026-05-01T15:10:02.996Z</time></trkpt><trkpt lat="46.6362154" lon="12.6044208"><ele>1543.5000000000002</ele><time>2026-05-01T15:10:03.997Z</time></trkpt><trkpt lat="46.6361616" lon="12.6045119"><ele>1540.0</ele><time>2026-05-01T15:10:04.992Z</time></trkpt><trkpt lat="46.6361027" lon="12.6046238"><ele>1540.0</ele><time>2026-05-01T15:10:06.005Z</time></trkpt><trkpt lat="46.6360417" lon="12.604733"><ele>1540.0</ele><time>2026-05-01T15:10:07.001Z</time></trkpt><trkpt lat="46.6359846" lon="12.6048372"><ele>1540.0</ele><time>2026-05-01T15:10:07.992Z</time></trkpt><trkpt lat="46.6359318" lon="12.6049456"><ele>1540.0</ele><time>2026-05-01T15:10:09.006Z</time></trkpt><trkpt lat="46.6358866" lon="12.6050569"><ele>1540.0</ele><time>2026-05-01T15:10:09.998Z</time></trkpt><trkpt lat="46.6358496" lon="12.6051647"><ele>1540.0000000000002</ele><time>2026-05-01T15:10:10.999Z</time></trkpt><trkpt lat="46.6358047" lon="12.6052788"><ele>1540.0</ele><time>2026-05-01T15:10:12Z</time></trkpt><trkpt lat="46.6357647" lon="12.6053904"><ele>1540.0</ele><time>2026-05-01T15:10:12.996Z</time></trkpt><trkpt lat="46.6357219" lon="12.6054913"><ele>1540.0</ele><time>2026-05-01T15:10:14.006Z</time></trkpt><trkpt lat="46.6356773" lon="12.6055775"><ele>1540.0000000000002</ele><time>2026-05-01T15:10:14.991Z</time></trkpt><trkpt lat="46.6356259" lon="12.6056531"><ele>1540.0</ele><time>2026-05-01T15:10:16.018Z</time></trkpt><trkpt lat="46.6355757" lon="12.605725"><ele>1535.6666666666667</ele><time>2026-05-01T15:10:17Z</time></trkpt><trkpt lat="46.6355228" lon="12.6057916"><ele>1531.3333333333335</ele><time>2026-05-01T15:10:17.996Z</time></trkpt><trkpt lat="46.6354355" lon="12.6058844"><ele>1527.0</ele><time>2026-05-01T15:10:20Z</time></trkpt><trkpt lat="46.6354045" lon="12.6059691"><ele>1522.6666666666667</ele><time>2026-05-01T15:10:23.007Z</time></trkpt><trkpt lat="46.6354572" lon="12.6060202"><ele>1518.3333333333335</ele><time>2026-05-01T15:10:25.003Z</time></trkpt><trkpt lat="46.635535" lon="12.6059934"><ele>1514.0</ele><time>2026-05-01T15:10:27.002Z</time></trkpt><trkpt lat="46.635589" lon="12.6059372"><ele>1514.0</ele><time>2026-05-01T15:10:28.004Z</time></trkpt><trkpt lat="46.6356531" lon="12.6058958"><ele>1514.0</ele><time>2026-05-01T15:10:29.004Z</time></trkpt><trkpt lat="46.6357168" lon="12.605861"><ele>1514.0</ele><time>2026-05-01T15:10:30.001Z</time></trkpt><trkpt lat="46.6357837" lon="12.6058132"><ele>1514.0</ele><time>2026-05-01T15:10:31.004Z</time></trkpt><trkpt lat="46.6358446" lon="12.605765"><ele>1514.0</ele><time>2026-05-01T15:10:32.007Z</time></trkpt><trkpt lat="46.6359339" lon="12.6056514"><ele>1514.0</ele><time>2026-05-01T15:10:34.011Z</time></trkpt><trkpt lat="46.6359849" lon="12.6055872"><ele>1514.0</ele><time>2026-05-01T15:10:35.003Z</time></trkpt><trkpt lat="46.6360624" lon="12.6055066"><ele>1514.0</ele><time>2026-05-01T15:10:37.001Z</time></trkpt><trkpt lat="46.6361215" lon="12.6055396"><ele>1514.0</ele><time>2026-05-01T15:10:39.994Z</time></trkpt><trkpt lat="46.6360887" lon="12.6056241"><ele>1514.0</ele><time>2026-05-01T15:10:41.995Z</time></trkpt><trkpt lat="46.6360333" lon="12.6056764"><ele>1514.0</ele><time>2026-05-01T15:10:43.002Z</time></trkpt><trkpt lat="46.6359806" lon="12.6057594"><ele>1514.0</ele><time>2026-05-01T15:10:43.999Z</time></trkpt><trkpt lat="46.6359239" lon="12.6058624"><ele>1514.0</ele><time>2026-05-01T15:10:44.997Z</time></trkpt><trkpt lat="46.6358723" lon="12.6059582"><ele>1514.0</ele><time>2026-05-01T15:10:45.999Z</time></trkpt><trkpt lat="46.6358355" lon="12.6060416"><ele>1514.0</ele><time>2026-05-01T15:10:47.001Z</time></trkpt><trkpt lat="46.6358057" lon="12.6061291"><ele>1514.0</ele><time>2026-05-01T15:10:48.002Z</time></trkpt><trkpt lat="46.6357616" lon="12.606199"><ele>1514.0</ele><time>2026-05-01T15:10:49.004Z</time></trkpt><trkpt lat="46.6357119" lon="12.6062649"><ele>1514.0</ele><time>2026-05-01T15:10:50Z</time></trkpt><trkpt lat="46.6356506" lon="12.6063291"><ele>1514.0</ele><time>2026-05-01T15:10:50.998Z</time></trkpt><trkpt lat="46.6355857" lon="12.6063994"><ele>1511.1666666666667</ele><time>2026-05-01T15:10:51.999Z</time></trkpt><trkpt lat="46.63553" lon="12.6064676"><ele>1508.3333333333335</ele><time>2026-05-01T15:10:53.001Z</time></trkpt><trkpt lat="46.6354782" lon="12.6065427"><ele>1505.5</ele><time>2026-05-01T15:10:53.995Z</time></trkpt><trkpt lat="46.6354267" lon="12.6066185"><ele>1502.6666666666667</ele><time>2026-05-01T15:10:55.008Z</time></trkpt><trkpt lat="46.6353766" lon="12.6066819"><ele>1499.8333333333333</ele><time>2026-05-01T15:10:55.997Z</time></trkpt><trkpt lat="46.6353253" lon="12.6067422"><ele>1497.0</ele><time>2026-05-01T15:10:56.999Z</time></trkpt><trkpt lat="46.6352235" lon="12.6068373"><ele>1497.0</ele><time>2026-05-01T15:10:59.005Z</time></trkpt><trkpt lat="46.635138" lon="12.6069073"><ele>1497.0</ele><time>2026-05-01T15:11:01.011Z</time></trkpt><trkpt lat="46.6350715" lon="12.6068996"><ele>1497.0</ele><time>2026-05-01T15:11:02.999Z</time></trkpt><trkpt lat="46.6349778" lon="12.6068398"><ele>1497.0</ele><time>2026-05-01T15:11:05.003Z</time></trkpt><trkpt lat="46.6348516" lon="12.6068042"><ele>1497.0</ele><time>2026-05-01T15:11:07.005Z</time></trkpt><trkpt lat="46.6347731" lon="12.606811"><ele>1497.0</ele><time>2026-05-01T15:11:07.999Z</time></trkpt><trkpt lat="46.6346944" lon="12.6068117"><ele>1497.0</ele><time>2026-05-01T15:11:09.002Z</time></trkpt><trkpt lat="46.6346113" lon="12.6068113"><ele>1497.0</ele><time>2026-05-01T15:11:10.001Z</time></trkpt><trkpt lat="46.6345396" lon="12.606791"><ele>1497.0</ele><time>2026-05-01T15:11:10.998Z</time></trkpt><trkpt lat="46.6344697" lon="12.6067674"><ele>1497.0</ele><time>2026-05-01T15:11:11.995Z</time></trkpt><trkpt lat="46.6343991" lon="12.606753"><ele>1497.0</ele><time>2026-05-01T15:11:13.003Z</time></trkpt><trkpt lat="46.6343315" lon="12.6067596"><ele>1497.0</ele><time>2026-05-01T15:11:13.999Z</time></trkpt><trkpt lat="46.6342325" lon="12.6067749"><ele>1491.0</ele><time>2026-05-01T15:11:15.999Z</time></trkpt><trkpt lat="46.6341451" lon="12.6067277"><ele>1485.0</ele><time>2026-05-01T15:11:17.996Z</time></trkpt><trkpt lat="46.6340785" lon="12.6066219"><ele>1479.0</ele><time>2026-05-01T15:11:20.001Z</time></trkpt><trkpt lat="46.6340289" lon="12.6064768"><ele>1473.0</ele><time>2026-05-01T15:11:21.998Z</time></trkpt><trkpt lat="46.6339697" lon="12.6063539"><ele>1467.0</ele><time>2026-05-01T15:11:23.996Z</time></trkpt><trkpt lat="46.6338799" lon="12.6062866"><ele>1467.0</ele><time>2026-05-01T15:11:25.998Z</time></trkpt><trkpt lat="46.6338026" lon="12.6062144"><ele>1467.0</ele><time>2026-05-01T15:11:28.004Z</time></trkpt><trkpt lat="46.6337364" lon="12.6060846"><ele>1467.0</ele><time>2026-05-01T15:11:30.003Z</time></trkpt><trkpt lat="46.6336558" lon="12.6059556"><ele>1467.0</ele><time>2026-05-01T15:11:32.004Z</time></trkpt><trkpt lat="46.633591" lon="12.6058452"><ele>1467.0</ele><time>2026-05-01T15:11:34.008Z</time></trkpt><trkpt lat="46.6335261" lon="12.6056934"><ele>1466.1428571428573</ele><time>2026-05-01T15:11:36.001Z</time></trkpt><trkpt lat="46.6334938" lon="12.6056145"><ele>1465.2857142857142</ele><time>2026-05-01T15:11:37.002Z</time></trkpt><trkpt lat="46.6334614" lon="12.6055207"><ele>1464.4285714285716</ele><time>2026-05-01T15:11:38.001Z</time></trkpt><trkpt lat="46.6334278" lon="12.6054281"><ele>1463.5714285714287</ele><time>2026-05-01T15:11:38.999Z</time></trkpt><trkpt lat="46.6333942" lon="12.6053369"><ele>1462.7142857142858</ele><time>2026-05-01T15:11:40.003Z</time></trkpt><trkpt lat="46.6333663" lon="12.6052336"><ele>1461.857142857143</ele><time>2026-05-01T15:11:40.995Z</time></trkpt><trkpt lat="46.6333396" lon="12.6051396"><ele>1461.0</ele><time>2026-05-01T15:11:42.002Z</time></trkpt><trkpt lat="46.6333109" lon="12.6050568"><ele>1461.0</ele><time>2026-05-01T15:11:43.003Z</time></trkpt><trkpt lat="46.6332807" lon="12.6049701"><ele>1461.0</ele><time>2026-05-01T15:11:44Z</time></trkpt><trkpt lat="46.6332594" lon="12.604883"><ele>1461.0</ele><time>2026-05-01T15:11:45.003Z</time></trkpt><trkpt lat="46.6332413" lon="12.6047839"><ele>1461.0</ele><time>2026-05-01T15:11:46Z</time></trkpt><trkpt lat="46.6332268" lon="12.6046884"><ele>1461.0</ele><time>2026-05-01T15:11:47.012Z</time></trkpt><trkpt lat="46.6332153" lon="12.6045187"><ele>1461.0</ele><time>2026-05-01T15:11:48.992Z</time></trkpt><trkpt lat="46.6331798" lon="12.6043964"><ele>1461.0</ele><time>2026-05-01T15:11:51Z</time></trkpt><trkpt lat="46.6331318" lon="12.6043203"><ele>1461.0</ele><time>2026-05-01T15:11:55.003Z</time></trkpt><trkpt lat="46.6330605" lon="12.6044"><ele>1461.0</ele><time>2026-05-01T15:11:59.002Z</time></trkpt><trkpt lat="46.6330549" lon="12.6045302"><ele>1461.0</ele><time>2026-05-01T15:12:01.007Z</time></trkpt><trkpt lat="46.6330853" lon="12.6046311"><ele>1461.0</ele><time>2026-05-01T15:12:01.999Z</time></trkpt><trkpt lat="46.6331143" lon="12.6047278"><ele>1461.0</ele><time>2026-05-01T15:12:03.001Z</time></trkpt><trkpt lat="46.6331012" lon="12.6049023"><ele>1461.0</ele><time>2026-05-01T15:12:05.008Z</time></trkpt><trkpt lat="46.6330657" lon="12.6049902"><ele>1461.0</ele><time>2026-05-01T15:12:05.999Z</time></trkpt><trkpt lat="46.6330065" lon="12.6051615"><ele>1461.0</ele><time>2026-05-01T15:12:07.995Z</time></trkpt><trkpt lat="46.6329981" lon="12.6053325"><ele>1461.0</ele><time>2026-05-01T15:12:09.997Z</time></trkpt><trkpt lat="46.6330156" lon="12.6054245"><ele>1461.0</ele><time>2026-05-01T15:12:11.004Z</time></trkpt><trkpt lat="46.63304" lon="12.6055271"><ele>1459.0</ele><time>2026-05-01T15:12:12.004Z</time></trkpt><trkpt lat="46.6330656" lon="12.6056413"><ele>1457.0</ele><time>2026-05-01T15:12:12.998Z</time></trkpt><trkpt lat="46.6330939" lon="12.6057734"><ele>1455.0</ele><time>2026-05-01T15:12:14.006Z</time></trkpt><trkpt lat="46.6331138" lon="12.6059208"><ele>1453.0</ele><time>2026-05-01T15:12:15Z</time></trkpt><trkpt lat="46.633136" lon="12.6060721"><ele>1451.0</ele><time>2026-05-01T15:12:15.995Z</time></trkpt><trkpt lat="46.6331528" lon="12.6062343"><ele>1448.5</ele><time>2026-05-01T15:12:17Z</time></trkpt><trkpt lat="46.6331703" lon="12.6064163"><ele>1446.0</ele><time>2026-05-01T15:12:17.996Z</time></trkpt><trkpt lat="46.6331875" lon="12.6066003"><ele>1443.5</ele><time>2026-05-01T15:12:19.006Z</time></trkpt><trkpt lat="46.6332054" lon="12.6067796"><ele>1441.0</ele><time>2026-05-01T15:12:20.003Z</time></trkpt><trkpt lat="46.6332184" lon="12.6069477"><ele>1440.4</ele><time>2026-05-01T15:12:20.996Z</time></trkpt><trkpt lat="46.6332311" lon="12.6071087"><ele>1439.8</ele><time>2026-05-01T15:12:22.002Z</time></trkpt><trkpt lat="46.6332474" lon="12.6072672"><ele>1439.2</ele><time>2026-05-01T15:12:22.992Z</time></trkpt><trkpt lat="46.6332856" lon="12.6074118"><ele>1438.6000000000001</ele><time>2026-05-01T15:12:23.997Z</time></trkpt><trkpt lat="46.6333388" lon="12.6075391"><ele>1438.0</ele><time>2026-05-01T15:12:25.012Z</time></trkpt><trkpt lat="46.6334048" lon="12.6076755"><ele>1438.0</ele><time>2026-05-01T15:12:25.997Z</time></trkpt><trkpt lat="46.6334749" lon="12.6078269"><ele>1438.0</ele><time>2026-05-01T15:12:27.009Z</time></trkpt><trkpt lat="46.6335502" lon="12.6079774"><ele>1438.0</ele><time>2026-05-01T15:12:28.001Z</time></trkpt><trkpt lat="46.6336228" lon="12.6081166"><ele>1438.0</ele><time>2026-05-01T15:12:29Z</time></trkpt><trkpt lat="46.6337004" lon="12.6082426"><ele>1435.8000000000002</ele><time>2026-05-01T15:12:30.004Z</time></trkpt><trkpt lat="46.6337633" lon="12.6083633"><ele>1433.6</ele><time>2026-05-01T15:12:31.001Z</time></trkpt><trkpt lat="46.6338212" lon="12.6084934"><ele>1431.4</ele><time>2026-05-01T15:12:31.996Z</time></trkpt><trkpt lat="46.6338761" lon="12.6086321"><ele>1429.1999999999998</ele><time>2026-05-01T15:12:32.997Z</time></trkpt><trkpt lat="46.6339327" lon="12.6087875"><ele>1427.0</ele><time>2026-05-01T15:12:33.998Z</time></trkpt><trkpt lat="46.6339934" lon="12.6089401"><ele>1425.6</ele><time>2026-05-01T15:12:35.01Z</time></trkpt><trkpt lat="46.634052" lon="12.6090968"><ele>1424.1999999999998</ele><time>2026-05-01T15:12:35.998Z</time></trkpt><trkpt lat="46.6341043" lon="12.6092401"><ele>1422.8</ele><time>2026-05-01T15:12:36.998Z</time></trkpt><trkpt lat="46.634154" lon="12.609374"><ele>1421.4</ele><time>2026-05-01T15:12:38.001Z</time></trkpt><trkpt lat="46.6342049" lon="12.6095039"><ele>1420.0</ele><time>2026-05-01T15:12:39.001Z</time></trkpt><trkpt lat="46.6342557" lon="12.6096265"><ele>1417.6666666666665</ele><time>2026-05-01T15:12:40.007Z</time></trkpt><trkpt lat="46.6343016" lon="12.6097306"><ele>1415.3333333333333</ele><time>2026-05-01T15:12:41Z</time></trkpt><trkpt lat="46.6343394" lon="12.6098271"><ele>1413.0</ele><time>2026-05-01T15:12:41.999Z</time></trkpt><trkpt lat="46.6343692" lon="12.6099198"><ele>1410.6666666666667</ele><time>2026-05-01T15:12:43.008Z</time></trkpt><trkpt lat="46.6343816" lon="12.6100269"><ele>1408.3333333333335</ele><time>2026-05-01T15:12:44.001Z</time></trkpt><trkpt lat="46.6343809" lon="12.6101589"><ele>1406.0</ele><time>2026-05-01T15:12:44.993Z</time></trkpt><trkpt lat="46.6343589" lon="12.6103107"><ele>1405.0</ele><time>2026-05-01T15:12:46.014Z</time></trkpt><trkpt lat="46.634329" lon="12.6104721"><ele>1404.0</ele><time>2026-05-01T15:12:46.996Z</time></trkpt><trkpt lat="46.6342917" lon="12.610619"><ele>1403.0</ele><time>2026-05-01T15:12:48.005Z</time></trkpt><trkpt lat="46.6342596" lon="12.6107565"><ele>1402.0</ele><time>2026-05-01T15:12:48.996Z</time></trkpt><trkpt lat="46.6342308" lon="12.6108965"><ele>1401.0</ele><time>2026-05-01T15:12:49.998Z</time></trkpt><trkpt lat="46.6342007" lon="12.6110637"><ele>1399.75</ele><time>2026-05-01T15:12:51.001Z</time></trkpt><trkpt lat="46.6341802" lon="12.6112421"><ele>1398.5</ele><time>2026-05-01T15:12:52.002Z</time></trkpt><trkpt lat="46.634167" lon="12.6114368"><ele>1397.25</ele><time>2026-05-01T15:12:52.999Z</time></trkpt><trkpt lat="46.6341577" lon="12.611636"><ele>1396.0</ele><time>2026-05-01T15:12:54.011Z</time></trkpt><trkpt lat="46.6341563" lon="12.6118293"><ele>1395.25</ele><time>2026-05-01T15:12:55.001Z</time></trkpt><trkpt lat="46.6341481" lon="12.6120084"><ele>1394.5</ele><time>2026-05-01T15:12:55.999Z</time></trkpt><trkpt lat="46.6341393" lon="12.6121658"><ele>1393.75</ele><time>2026-05-01T15:12:56.998Z</time></trkpt><trkpt lat="46.6341252" lon="12.6123252"><ele>1393.0</ele><time>2026-05-01T15:12:57.999Z</time></trkpt><trkpt lat="46.6341031" lon="12.6124912"><ele>1393.0</ele><time>2026-05-01T15:12:59.006Z</time></trkpt><trkpt lat="46.634074" lon="12.6126682"><ele>1393.0</ele><time>2026-05-01T15:12:59.997Z</time></trkpt><trkpt lat="46.6340334" lon="12.6128612"><ele>1393.0</ele><time>2026-05-01T15:13:01.005Z</time></trkpt><trkpt lat="46.6339875" lon="12.6130564"><ele>1393.0</ele><time>2026-05-01T15:13:02.002Z</time></trkpt><trkpt lat="46.6339466" lon="12.6132437"><ele>1392.5</ele><time>2026-05-01T15:13:02.999Z</time></trkpt><trkpt lat="46.6339082" lon="12.6134259"><ele>1392.0</ele><time>2026-05-01T15:13:04.005Z</time></trkpt><trkpt lat="46.633875" lon="12.6136007"><ele>1391.5</ele><time>2026-05-01T15:13:04.994Z</time></trkpt><trkpt lat="46.6338343" lon="12.6137745"><ele>1391.0</ele><time>2026-05-01T15:13:06.011Z</time></trkpt><trkpt lat="46.633794" lon="12.6139492"><ele>1391.0</ele><time>2026-05-01T15:13:06.996Z</time></trkpt><trkpt lat="46.6337504" lon="12.6141231"><ele>1391.0</ele><time>2026-05-01T15:13:08.003Z</time></trkpt><trkpt lat="46.6337113" lon="12.6142777"><ele>1391.0</ele><time>2026-05-01T15:13:09.001Z</time></trkpt><trkpt lat="46.6336771" lon="12.6144157"><ele>1391.0</ele><time>2026-05-01T15:13:09.998Z</time></trkpt><trkpt lat="46.6336272" lon="12.6145397"><ele>1391.0</ele><time>2026-05-01T15:13:11.002Z</time></trkpt><trkpt lat="46.6335653" lon="12.614635"><ele>1391.0</ele><time>2026-05-01T15:13:12Z</time></trkpt><trkpt lat="46.6334916" lon="12.6147193"><ele>1391.0</ele><time>2026-05-01T15:13:12.999Z</time></trkpt><trkpt lat="46.6333927" lon="12.6147901"><ele>1391.0</ele><time>2026-05-01T15:13:13.994Z</time></trkpt><trkpt lat="46.6332823" lon="12.6148535"><ele>1391.0</ele><time>2026-05-01T15:13:15.007Z</time></trkpt><trkpt lat="46.6331795" lon="12.6149219"><ele>1391.0</ele><time>2026-05-01T15:13:16.006Z</time></trkpt><trkpt lat="46.6330829" lon="12.615005"><ele>1391.0</ele><time>2026-05-01T15:13:16.995Z</time></trkpt><trkpt lat="46.6329968" lon="12.6151281"><ele>1391.0</ele><time>2026-05-01T15:13:18.007Z</time></trkpt><trkpt lat="46.6329055" lon="12.6152573"><ele>1391.0</ele><time>2026-05-01T15:13:18.998Z</time></trkpt><trkpt lat="46.6328311" lon="12.6153797"><ele>1391.0</ele><time>2026-05-01T15:13:20.005Z</time></trkpt><trkpt lat="46.632765" lon="12.6154893"><ele>1390.4</ele><time>2026-05-01T15:13:21.003Z</time></trkpt><trkpt lat="46.6327097" lon="12.6156138"><ele>1389.8</ele><time>2026-05-01T15:13:22.002Z</time></trkpt><trkpt lat="46.6326735" lon="12.6157448"><ele>1389.2</ele><time>2026-05-01T15:13:23.006Z</time></trkpt><trkpt lat="46.6326723" lon="12.6158911"><ele>1388.6000000000001</ele><time>2026-05-01T15:13:24.005Z</time></trkpt><trkpt lat="46.6326945" lon="12.6160488"><ele>1388.0</ele><time>2026-05-01T15:13:25.005Z</time></trkpt><trkpt lat="46.6327384" lon="12.6162269"><ele>1386.25</ele><time>2026-05-01T15:13:26.003Z</time></trkpt><trkpt lat="46.6327748" lon="12.6164029"><ele>1384.5</ele><time>2026-05-01T15:13:27.007Z</time></trkpt><trkpt lat="46.6327996" lon="12.6165764"><ele>1382.75</ele><time>2026-05-01T15:13:27.996Z</time></trkpt><trkpt lat="46.6328052" lon="12.6167657"><ele>1381.0</ele><time>2026-05-01T15:13:28.994Z</time></trkpt><trkpt lat="46.6327986" lon="12.6169592"><ele>1379.5</ele><time>2026-05-01T15:13:29.998Z</time></trkpt><trkpt lat="46.6327797" lon="12.6171685"><ele>1378.0</ele><time>2026-05-01T15:13:31.004Z</time></trkpt><trkpt lat="46.6327647" lon="12.6173726"><ele>1376.5</ele><time>2026-05-01T15:13:32.001Z</time></trkpt><trkpt lat="46.6327467" lon="12.6175637"><ele>1375.0</ele><time>2026-05-01T15:13:32.997Z</time></trkpt><trkpt lat="46.6327367" lon="12.6177226"><ele>1373.75</ele><time>2026-05-01T15:13:34.002Z</time></trkpt><trkpt lat="46.6327185" lon="12.6178647"><ele>1372.5</ele><time>2026-05-01T15:13:34.998Z</time></trkpt><trkpt lat="46.6326877" lon="12.6180099"><ele>1371.25</ele><time>2026-05-01T15:13:36.001Z</time></trkpt><trkpt lat="46.6326406" lon="12.6181636"><ele>1370.0</ele><time>2026-05-01T15:13:37.004Z</time></trkpt><trkpt lat="46.6325852" lon="12.6183402"><ele>1370.0</ele><time>2026-05-01T15:13:37.996Z</time></trkpt><trkpt lat="46.6325251" lon="12.6185137"><ele>1370.0</ele><time>2026-05-01T15:13:39.011Z</time></trkpt><trkpt lat="46.6324621" lon="12.6186715"><ele>1370.0</ele><time>2026-05-01T15:13:39.996Z</time></trkpt><trkpt lat="46.6323898" lon="12.6188228"><ele>1370.0</ele><time>2026-05-01T15:13:41.002Z</time></trkpt><trkpt lat="46.6322979" lon="12.6189489"><ele>1368.5</ele><time>2026-05-01T15:13:41.996Z</time></trkpt><trkpt lat="46.6321863" lon="12.6190659"><ele>1367.0</ele><time>2026-05-01T15:13:42.999Z</time></trkpt><trkpt lat="46.632082" lon="12.6191796"><ele>1365.5</ele><time>2026-05-01T15:13:43.999Z</time></trkpt><trkpt lat="46.6319905" lon="12.6192975"><ele>1364.0</ele><time>2026-05-01T15:13:45.003Z</time></trkpt><trkpt lat="46.6319028" lon="12.6194362"><ele>1362.5</ele><time>2026-05-01T15:13:46Z</time></trkpt><trkpt lat="46.6318424" lon="12.6195933"><ele>1361.0</ele><time>2026-05-01T15:13:47.007Z</time></trkpt><trkpt lat="46.6317979" lon="12.6197414"><ele>1359.5</ele><time>2026-05-01T15:13:48.001Z</time></trkpt><trkpt lat="46.6317562" lon="12.6199037"><ele>1358.0</ele><time>2026-05-01T15:13:48.995Z</time></trkpt><trkpt lat="46.6317194" lon="12.6200586"><ele>1358.0</ele><time>2026-05-01T15:13:49.997Z</time></trkpt><trkpt lat="46.6316801" lon="12.6202231"><ele>1358.0</ele><time>2026-05-01T15:13:50.997Z</time></trkpt><trkpt lat="46.6316239" lon="12.6203978"><ele>1358.0</ele><time>2026-05-01T15:13:51.997Z</time></trkpt><trkpt lat="46.6315634" lon="12.6205759"><ele>1358.0</ele><time>2026-05-01T15:13:52.996Z</time></trkpt><trkpt lat="46.6314958" lon="12.6207322"><ele>1355.5</ele><time>2026-05-01T15:13:54.003Z</time></trkpt><trkpt lat="46.6314188" lon="12.6208846"><ele>1353.0</ele><time>2026-05-01T15:13:54.997Z</time></trkpt><trkpt lat="46.631322" lon="12.6210147"><ele>1350.5</ele><time>2026-05-01T15:13:55.999Z</time></trkpt><trkpt lat="46.6312419" lon="12.6211522"><ele>1348.0</ele><time>2026-05-01T15:13:57.002Z</time></trkpt><trkpt lat="46.6311517" lon="12.6212684"><ele>1348.75</ele><time>2026-05-01T15:13:58.012Z</time></trkpt><trkpt lat="46.6310575" lon="12.6213963"><ele>1349.5</ele><time>2026-05-01T15:13:58.998Z</time></trkpt><trkpt lat="46.6309613" lon="12.6215107"><ele>1350.25</ele><time>2026-05-01T15:14:00.002Z</time></trkpt><trkpt lat="46.6308615" lon="12.621632"><ele>1351.0</ele><time>2026-05-01T15:14:00.996Z</time></trkpt><trkpt lat="46.6307545" lon="12.6217566"><ele>1351.0</ele><time>2026-05-01T15:14:01.998Z</time></trkpt><trkpt lat="46.6306441" lon="12.6218884"><ele>1351.0</ele><time>2026-05-01T15:14:02.998Z</time></trkpt><trkpt lat="46.6305385" lon="12.6220176"><ele>1351.0</ele><time>2026-05-01T15:14:03.998Z</time></trkpt><trkpt lat="46.6304291" lon="12.6221455"><ele>1351.0</ele><time>2026-05-01T15:14:05.002Z</time></trkpt><trkpt lat="46.6303227" lon="12.622277"><ele>1351.5</ele><time>2026-05-01T15:14:05.999Z</time></trkpt><trkpt lat="46.630219" lon="12.6224061"><ele>1352.0</ele><time>2026-05-01T15:14:07.003Z</time></trkpt><trkpt lat="46.6301096" lon="12.6225314"><ele>1352.5</ele><time>2026-05-01T15:14:08.001Z</time></trkpt><trkpt lat="46.6299961" lon="12.6226512"><ele>1353.0</ele><time>2026-05-01T15:14:08.994Z</time></trkpt><trkpt lat="46.6298808" lon="12.6227604"><ele>1349.5</ele><time>2026-05-01T15:14:10.013Z</time></trkpt><trkpt lat="46.629754" lon="12.6228754"><ele>1346.0</ele><time>2026-05-01T15:14:10.997Z</time></trkpt><trkpt lat="46.6296197" lon="12.6229832"><ele>1342.5</ele><time>2026-05-01T15:14:12.006Z</time></trkpt><trkpt lat="46.6294913" lon="12.6230836"><ele>1339.0</ele><time>2026-05-01T15:14:13.002Z</time></trkpt><trkpt lat="46.6293738" lon="12.623167"><ele>1339.0</ele><time>2026-05-01T15:14:14.001Z</time></trkpt><trkpt lat="46.6292608" lon="12.6232323"><ele>1339.0</ele><time>2026-05-01T15:14:15.005Z</time></trkpt><trkpt lat="46.6291386" lon="12.6233145"><ele>1339.0</ele><time>2026-05-01T15:14:15.996Z</time></trkpt><trkpt lat="46.6290072" lon="12.6233939"><ele>1339.0</ele><time>2026-05-01T15:14:16.996Z</time></trkpt><trkpt lat="46.6288705" lon="12.623481"><ele>1339.0</ele><time>2026-05-01T15:14:17.999Z</time></trkpt><trkpt lat="46.6287327" lon="12.6235941"><ele>1339.0</ele><time>2026-05-01T15:14:19.01Z</time></trkpt><trkpt lat="46.628598" lon="12.6237013"><ele>1339.0</ele><time>2026-05-01T15:14:20Z</time></trkpt><trkpt lat="46.6284666" lon="12.6237997"><ele>1339.25</ele><time>2026-05-01T15:14:20.997Z</time></trkpt><trkpt lat="46.6283378" lon="12.6238989"><ele>1339.5</ele><time>2026-05-01T15:14:22.001Z</time></trkpt><trkpt lat="46.6282131" lon="12.6240052"><ele>1339.75</ele><time>2026-05-01T15:14:23.002Z</time></trkpt><trkpt lat="46.6280909" lon="12.6241068"><ele>1340.0</ele><time>2026-05-01T15:14:24.002Z</time></trkpt><trkpt lat="46.6279812" lon="12.6242031"><ele>1340.0</ele><time>2026-05-01T15:14:25.009Z</time></trkpt><trkpt lat="46.627863" lon="12.6243041"><ele>1340.0</ele><time>2026-05-01T15:14:26.001Z</time></trkpt><trkpt lat="46.6277423" lon="12.6244001"><ele>1340.0</ele><time>2026-05-01T15:14:27.012Z</time></trkpt><trkpt lat="46.6276217" lon="12.6245023"><ele>1340.0</ele><time>2026-05-01T15:14:28.009Z</time></trkpt><trkpt lat="46.6275124" lon="12.6246077"><ele>1339.0</ele><time>2026-05-01T15:14:29.001Z</time></trkpt><trkpt lat="46.6274039" lon="12.6247048"><ele>1338.0</ele><time>2026-05-01T15:14:29.998Z</time></trkpt><trkpt lat="46.6272945" lon="12.6247914"><ele>1337.0</ele><time>2026-05-01T15:14:31.003Z</time></trkpt><trkpt lat="46.6271877" lon="12.6248642"><ele>1336.0</ele><time>2026-05-01T15:14:32.004Z</time></trkpt><trkpt lat="46.627077" lon="12.6249279"><ele>1335.0</ele><time>2026-05-01T15:14:32.998Z</time></trkpt><trkpt lat="46.6269598" lon="12.6249702"><ele>1334.0</ele><time>2026-05-01T15:14:34.004Z</time></trkpt><trkpt lat="46.6268257" lon="12.6249971"><ele>1333.0</ele><time>2026-05-01T15:14:34.998Z</time></trkpt><trkpt lat="46.6266902" lon="12.6250159"><ele>1332.0</ele><time>2026-05-01T15:14:36Z</time></trkpt><trkpt lat="46.6265619" lon="12.6250274"><ele>1332.0</ele><time>2026-05-01T15:14:37.003Z</time></trkpt><trkpt lat="46.626443" lon="12.625065"><ele>1332.0</ele><time>2026-05-01T15:14:37.998Z</time></trkpt><trkpt lat="46.6263343" lon="12.625099"><ele>1332.0</ele><time>2026-05-01T15:14:39.007Z</time></trkpt><trkpt lat="46.6262364" lon="12.6251506"><ele>1332.0</ele><time>2026-05-01T15:14:40.004Z</time></trkpt><trkpt lat="46.6261504" lon="12.6252054"><ele>1332.0</ele><time>2026-05-01T15:14:41.009Z</time></trkpt><trkpt lat="46.626053" lon="12.6252838"><ele>1330.25</ele><time>2026-05-01T15:14:42.001Z</time></trkpt><trkpt lat="46.6259309" lon="12.6253829"><ele>1328.5</ele><time>2026-05-01T15:14:43.002Z</time></trkpt><trkpt lat="46.6257984" lon="12.6254928"><ele>1326.75</ele><time>2026-05-01T15:14:44.004Z</time></trkpt><trkpt lat="46.6256666" lon="12.6255909"><ele>1325.0</ele><time>2026-05-01T15:14:45.005Z</time></trkpt><trkpt lat="46.625542" lon="12.6256978"><ele>1325.0</ele><time>2026-05-01T15:14:46.001Z</time></trkpt><trkpt lat="46.6254237" lon="12.6257944"><ele>1325.0</ele><time>2026-05-01T15:14:47.001Z</time></trkpt><trkpt lat="46.6253046" lon="12.6258618"><ele>1325.0</ele><time>2026-05-01T15:14:48.004Z</time></trkpt><trkpt lat="46.6251782" lon="12.6259234"><ele>1325.0</ele><time>2026-05-01T15:14:49.007Z</time></trkpt><trkpt lat="46.625048" lon="12.6259736"><ele>1326.0</ele><time>2026-05-01T15:14:49.999Z</time></trkpt><trkpt lat="46.6249253" lon="12.626032"><ele>1327.0</ele><time>2026-05-01T15:14:50.998Z</time></trkpt><trkpt lat="46.6248031" lon="12.6260938"><ele>1328.0</ele><time>2026-05-01T15:14:51.998Z</time></trkpt><trkpt lat="46.624677" lon="12.6261656"><ele>1329.0</ele><time>2026-05-01T15:14:53.007Z</time></trkpt><trkpt lat="46.6245512" lon="12.6262286"><ele>1325.75</ele><time>2026-05-01T15:14:54.012Z</time></trkpt><trkpt lat="46.6244215" lon="12.6262936"><ele>1322.5</ele><time>2026-05-01T15:14:55.01Z</time></trkpt><trkpt lat="46.6242899" lon="12.6263703"><ele>1319.25</ele><time>2026-05-01T15:14:56.004Z</time></trkpt><trkpt lat="46.6241522" lon="12.6264546"><ele>1316.0</ele><time>2026-05-01T15:14:57.001Z</time></trkpt><trkpt lat="46.6240149" lon="12.6265525"><ele>1316.0</ele><time>2026-05-01T15:14:58.001Z</time></trkpt><trkpt lat="46.6238711" lon="12.6266498"><ele>1316.0</ele><time>2026-05-01T15:14:59.002Z</time></trkpt><trkpt lat="46.6237229" lon="12.6267423"><ele>1316.0</ele><time>2026-05-01T15:14:59.995Z</time></trkpt><trkpt lat="46.6235824" lon="12.6268273"><ele>1313.6666666666667</ele><time>2026-05-01T15:15:01.001Z</time></trkpt><trkpt lat="46.6234395" lon="12.6269216"><ele>1311.3333333333333</ele><time>2026-05-01T15:15:02.003Z</time></trkpt><trkpt lat="46.6232933" lon="12.6270156"><ele>1309.0</ele><time>2026-05-01T15:15:03Z</time></trkpt><trkpt lat="46.6231642" lon="12.627097"><ele>1308.25</ele><time>2026-05-01T15:15:03.998Z</time></trkpt><trkpt lat="46.6230422" lon="12.6271708"><ele>1307.5</ele><time>2026-05-01T15:15:04.997Z</time></trkpt><trkpt lat="46.6229363" lon="12.6272396"><ele>1306.75</ele><time>2026-05-01T15:15:05.996Z</time></trkpt><trkpt lat="46.6228282" lon="12.6272984"><ele>1306.0</ele><time>2026-05-01T15:15:07.001Z</time></trkpt><trkpt lat="46.6227278" lon="12.6273556"><ele>1306.0</ele><time>2026-05-01T15:15:07.999Z</time></trkpt><trkpt lat="46.6226325" lon="12.627415"><ele>1306.0</ele><time>2026-05-01T15:15:09.004Z</time></trkpt><trkpt lat="46.6225381" lon="12.6274702"><ele>1306.0</ele><time>2026-05-01T15:15:10.005Z</time></trkpt><trkpt lat="46.6224391" lon="12.6275371"><ele>1306.0</ele><time>2026-05-01T15:15:10.999Z</time></trkpt><trkpt lat="46.6223234" lon="12.6276168"><ele>1306.0</ele><time>2026-05-01T15:15:12.004Z</time></trkpt><trkpt lat="46.6221947" lon="12.6276944"><ele>1306.0</ele><time>2026-05-01T15:15:12.998Z</time></trkpt><trkpt lat="46.6220739" lon="12.627783"><ele>1306.0</ele><time>2026-05-01T15:15:14.012Z</time></trkpt><trkpt lat="46.6219484" lon="12.6278614"><ele>1306.0</ele><time>2026-05-01T15:15:14.995Z</time></trkpt><trkpt lat="46.6218239" lon="12.6279396"><ele>1306.0</ele><time>2026-05-01T15:15:16.004Z</time></trkpt><trkpt lat="46.6217028" lon="12.6280106"><ele>1304.25</ele><time>2026-05-01T15:15:17.006Z</time></trkpt><trkpt lat="46.6215861" lon="12.6280713"><ele>1302.5</ele><time>2026-05-01T15:15:18.004Z</time></trkpt><trkpt lat="46.6214496" lon="12.6281233"><ele>1300.75</ele><time>2026-05-01T15:15:18.999Z</time></trkpt><trkpt lat="46.6213179" lon="12.6281568"><ele>1299.0</ele><time>2026-05-01T15:15:20.008Z</time></trkpt><trkpt lat="46.6211823" lon="12.6281671"><ele>1301.0</ele><time>2026-05-01T15:15:20.998Z</time></trkpt><trkpt lat="46.6210322" lon="12.6281581"><ele>1303.0</ele><time>2026-05-01T15:15:22.002Z</time></trkpt><trkpt lat="46.6208741" lon="12.6281299"><ele>1305.0</ele><time>2026-05-01T15:15:23.001Z</time></trkpt><trkpt lat="46.6207185" lon="12.6281069"><ele>1305.0</ele><time>2026-05-01T15:15:24.002Z</time></trkpt><trkpt lat="46.6205755" lon="12.6280945"><ele>1305.0</ele><time>2026-05-01T15:15:25.004Z</time></trkpt><trkpt lat="46.6204499" lon="12.6280836"><ele>1305.0</ele><time>2026-05-01T15:15:26.004Z</time></trkpt><trkpt lat="46.6203491" lon="12.6280716"><ele>1305.0</ele><time>2026-05-01T15:15:26.998Z</time></trkpt><trkpt lat="46.620277" lon="12.6280525"><ele>1305.0</ele><time>2026-05-01T15:15:28.007Z</time></trkpt><trkpt lat="46.6202118" lon="12.627964"><ele>1304.0</ele><time>2026-05-01T15:15:30.006Z</time></trkpt><trkpt lat="46.6201915" lon="12.627798"><ele>1303.0</ele><time>2026-05-01T15:15:31.999Z</time></trkpt><trkpt lat="46.6201892" lon="12.6276795"><ele>1302.0</ele><time>2026-05-01T15:15:33.002Z</time></trkpt><trkpt lat="46.6201623" lon="12.6275543"><ele>1301.0</ele><time>2026-05-01T15:15:34.001Z</time></trkpt><trkpt lat="46.6201043" lon="12.6274489"><ele>1300.0</ele><time>2026-05-01T15:15:35.004Z</time></trkpt><trkpt lat="46.6200216" lon="12.6273811"><ele>1300.0</ele><time>2026-05-01T15:15:36.005Z</time></trkpt><trkpt lat="46.6199226" lon="12.6273393"><ele>1300.0</ele><time>2026-05-01T15:15:37.001Z</time></trkpt><trkpt lat="46.6198027" lon="12.6273054"><ele>1300.0</ele><time>2026-05-01T15:15:38.008Z</time></trkpt><trkpt lat="46.619677" lon="12.6272667"><ele>1300.0</ele><time>2026-05-01T15:15:39.001Z</time></trkpt><trkpt lat="46.6195504" lon="12.6272215"><ele>1298.25</ele><time>2026-05-01T15:15:40.004Z</time></trkpt><trkpt lat="46.6194191" lon="12.6271714"><ele>1296.5</ele><time>2026-05-01T15:15:40.998Z</time></trkpt><trkpt lat="46.6192925" lon="12.6271179"><ele>1294.75</ele><time>2026-05-01T15:15:42Z</time></trkpt><trkpt lat="46.6191681" lon="12.6270615"><ele>1293.0</ele><time>2026-05-01T15:15:43.005Z</time></trkpt><trkpt lat="46.6190475" lon="12.6270008"><ele>1294.75</ele><time>2026-05-01T15:15:44.004Z</time></trkpt><trkpt lat="46.6189245" lon="12.626943"><ele>1296.5</ele><time>2026-05-01T15:15:44.999Z</time></trkpt><trkpt lat="46.6188062" lon="12.6268829"><ele>1298.25</ele><time>2026-05-01T15:15:46.003Z</time></trkpt><trkpt lat="46.6186885" lon="12.6268136"><ele>1300.0</ele><time>2026-05-01T15:15:47.003Z</time></trkpt><trkpt lat="46.6185818" lon="12.6267434"><ele>1300.0</ele><time>2026-05-01T15:15:47.995Z</time></trkpt><trkpt lat="46.6184764" lon="12.6266822"><ele>1300.0</ele><time>2026-05-01T15:15:49.002Z</time></trkpt><trkpt lat="46.618369" lon="12.6266194"><ele>1300.0</ele><time>2026-05-01T15:15:50.003Z</time></trkpt><trkpt lat="46.6182626" lon="12.6265544"><ele>1300.0</ele><time>2026-05-01T15:15:50.997Z</time></trkpt><trkpt lat="46.6181612" lon="12.6264927"><ele>1300.0</ele><time>2026-05-01T15:15:51.998Z</time></trkpt><trkpt lat="46.6180729" lon="12.626436"><ele>1300.0</ele><time>2026-05-01T15:15:53.008Z</time></trkpt><trkpt lat="46.6179992" lon="12.6263804"><ele>1300.0</ele><time>2026-05-01T15:15:53.997Z</time></trkpt><trkpt lat="46.617935" lon="12.6263144"><ele>1300.0</ele><time>2026-05-01T15:15:55.006Z</time></trkpt><trkpt lat="46.6178728" lon="12.6262138"><ele>1300.0</ele><time>2026-05-01T15:15:56.007Z</time></trkpt><trkpt lat="46.6178035" lon="12.6260746"><ele>1298.6666666666665</ele><time>2026-05-01T15:15:57.006Z</time></trkpt><trkpt lat="46.6177284" lon="12.6258948"><ele>1297.3333333333333</ele><time>2026-05-01T15:15:58Z</time></trkpt><trkpt lat="46.6176561" lon="12.6256908"><ele>1296.0</ele><time>2026-05-01T15:15:59.005Z</time></trkpt><trkpt lat="46.6175846" lon="12.6254793"><ele>1298.6666666666667</ele><time>2026-05-01T15:15:59.999Z</time></trkpt><trkpt lat="46.6175041" lon="12.6252494"><ele>1301.3333333333335</ele><time>2026-05-01T15:16:00.998Z</time></trkpt><trkpt lat="46.6174209" lon="12.6250259"><ele>1304.0</ele><time>2026-05-01T15:16:01.998Z</time></trkpt><trkpt lat="46.6173435" lon="12.624805"><ele>1304.0</ele><time>2026-05-01T15:16:03.001Z</time></trkpt><trkpt lat="46.6172704" lon="12.6246014"><ele>1304.0</ele><time>2026-05-01T15:16:04Z</time></trkpt><trkpt lat="46.6171999" lon="12.6244202"><ele>1304.0</ele><time>2026-05-01T15:16:04.999Z</time></trkpt><trkpt lat="46.6171166" lon="12.6242533"><ele>1304.0</ele><time>2026-05-01T15:16:06.006Z</time></trkpt><trkpt lat="46.6170135" lon="12.6240934"><ele>1303.5</ele><time>2026-05-01T15:16:07.002Z</time></trkpt><trkpt lat="46.6169097" lon="12.6239427"><ele>1303.0</ele><time>2026-05-01T15:16:08Z</time></trkpt><trkpt lat="46.61682" lon="12.6237997"><ele>1302.5</ele><time>2026-05-01T15:16:08.999Z</time></trkpt><trkpt lat="46.6167406" lon="12.6236494"><ele>1302.0</ele><time>2026-05-01T15:16:09.997Z</time></trkpt><trkpt lat="46.6166683" lon="12.6234885"><ele>1302.0</ele><time>2026-05-01T15:16:11.006Z</time></trkpt><trkpt lat="46.6166056" lon="12.6233365"><ele>1302.0</ele><time>2026-05-01T15:16:11.996Z</time></trkpt><trkpt lat="46.6165535" lon="12.6232148"><ele>1302.0</ele><time>2026-05-01T15:16:13Z</time></trkpt><trkpt lat="46.6165029" lon="12.6231041"><ele>1302.0</ele><time>2026-05-01T15:16:14.001Z</time></trkpt><trkpt lat="46.6164529" lon="12.6230316"><ele>1302.0</ele><time>2026-05-01T15:16:15.003Z</time></trkpt><trkpt lat="46.6163795" lon="12.6229788"><ele>1302.0</ele><time>2026-05-01T15:16:15.999Z</time></trkpt><trkpt lat="46.616311" lon="12.6229659"><ele>1302.0</ele><time>2026-05-01T15:16:17.004Z</time></trkpt><trkpt lat="46.6162294" lon="12.6229932"><ele>1302.0</ele><time>2026-05-01T15:16:18Z</time></trkpt><trkpt lat="46.616128" lon="12.6230453"><ele>1302.0</ele><time>2026-05-01T15:16:19.004Z</time></trkpt><trkpt lat="46.6160203" lon="12.6231455"><ele>1302.0</ele><time>2026-05-01T15:16:19.994Z</time></trkpt><trkpt lat="46.6159007" lon="12.6232723"><ele>1301.0</ele><time>2026-05-01T15:16:21.014Z</time></trkpt><trkpt lat="46.6157777" lon="12.6233974"><ele>1300.0</ele><time>2026-05-01T15:16:22.001Z</time></trkpt><trkpt lat="46.6156553" lon="12.6235252"><ele>1299.0</ele><time>2026-05-01T15:16:23.002Z</time></trkpt><trkpt lat="46.6155512" lon="12.6236485"><ele>1298.0</ele><time>2026-05-01T15:16:24.006Z</time></trkpt><trkpt lat="46.6154583" lon="12.6237635"><ele>1296.75</ele><time>2026-05-01T15:16:25.003Z</time></trkpt><trkpt lat="46.6153577" lon="12.6238679"><ele>1295.5</ele><time>2026-05-01T15:16:26.014Z</time></trkpt><trkpt lat="46.6152523" lon="12.6239635"><ele>1294.25</ele><time>2026-05-01T15:16:27Z</time></trkpt><trkpt lat="46.6151495" lon="12.6240283"><ele>1293.0</ele><time>2026-05-01T15:16:28.004Z</time></trkpt><trkpt lat="46.6150471" lon="12.624071"><ele>1293.0</ele><time>2026-05-01T15:16:29.006Z</time></trkpt><trkpt lat="46.6149369" lon="12.6241128"><ele>1293.0</ele><time>2026-05-01T15:16:30.006Z</time></trkpt><trkpt lat="46.6148124" lon="12.6241171"><ele>1293.0</ele><time>2026-05-01T15:16:30.999Z</time></trkpt><trkpt lat="46.6146771" lon="12.6241167"><ele>1293.0</ele><time>2026-05-01T15:16:32.011Z</time></trkpt><trkpt lat="46.6145333" lon="12.6241181"><ele>1292.0</ele><time>2026-05-01T15:16:32.999Z</time></trkpt><trkpt lat="46.6143807" lon="12.6241216"><ele>1291.0</ele><time>2026-05-01T15:16:34Z</time></trkpt><trkpt lat="46.6142261" lon="12.6241273"><ele>1290.0</ele><time>2026-05-01T15:16:35.003Z</time></trkpt><trkpt lat="46.6140577" lon="12.6241435"><ele>1290.0</ele><time>2026-05-01T15:16:36.011Z</time></trkpt><trkpt lat="46.6138784" lon="12.6241668"><ele>1290.0</ele><time>2026-05-01T15:16:36.996Z</time></trkpt><trkpt lat="46.6137063" lon="12.6241888"><ele>1290.0</ele><time>2026-05-01T15:16:38.002Z</time></trkpt><trkpt lat="46.6135492" lon="12.6242056"><ele>1289.75</ele><time>2026-05-01T15:16:39.006Z</time></trkpt><trkpt lat="46.6133988" lon="12.6242175"><ele>1289.5</ele><time>2026-05-01T15:16:40.002Z</time></trkpt><trkpt lat="46.6132569" lon="12.6242317"><ele>1289.25</ele><time>2026-05-01T15:16:41.003Z</time></trkpt><trkpt lat="46.6131217" lon="12.6242383"><ele>1289.0</ele><time>2026-05-01T15:16:42.005Z</time></trkpt><trkpt lat="46.6129932" lon="12.6242414"><ele>1289.0</ele><time>2026-05-01T15:16:42.997Z</time></trkpt><trkpt lat="46.6128668" lon="12.6242369"><ele>1289.0</ele><time>2026-05-01T15:16:43.998Z</time></trkpt><trkpt lat="46.6127358" lon="12.6242274"><ele>1289.0</ele><time>2026-05-01T15:16:45Z</time></trkpt><trkpt lat="46.6126061" lon="12.6242072"><ele>1289.0</ele><time>2026-05-01T15:16:46.006Z</time></trkpt><trkpt lat="46.6124845" lon="12.6241717"><ele>1290.25</ele><time>2026-05-01T15:16:47.005Z</time></trkpt><trkpt lat="46.6123729" lon="12.6241401"><ele>1291.5</ele><time>2026-05-01T15:16:47.998Z</time></trkpt><trkpt lat="46.6122655" lon="12.6240946"><ele>1292.75</ele><time>2026-05-01T15:16:49.004Z</time></trkpt><trkpt lat="46.61216" lon="12.6240305"><ele>1294.0</ele><time>2026-05-01T15:16:50.002Z</time></trkpt><trkpt lat="46.6120532" lon="12.6239451"><ele>1294.0</ele><time>2026-05-01T15:16:51.006Z</time></trkpt><trkpt lat="46.6119443" lon="12.6238373"><ele>1294.0</ele><time>2026-05-01T15:16:52.006Z</time></trkpt><trkpt lat="46.6118409" lon="12.623713"><ele>1294.0</ele><time>2026-05-01T15:16:53.001Z</time></trkpt><trkpt lat="46.6117417" lon="12.6235624"><ele>1294.0</ele><time>2026-05-01T15:16:53.999Z</time></trkpt><trkpt lat="46.6116376" lon="12.6233995"><ele>1294.0</ele><time>2026-05-01T15:16:55Z</time></trkpt><trkpt lat="46.6115327" lon="12.6232385"><ele>1294.0</ele><time>2026-05-01T15:16:56.004Z</time></trkpt><trkpt lat="46.6114395" lon="12.6230764"><ele>1294.0</ele><time>2026-05-01T15:16:56.998Z</time></trkpt><trkpt lat="46.611345" lon="12.6229122"><ele>1294.0</ele><time>2026-05-01T15:16:58.013Z</time></trkpt><trkpt lat="46.6112613" lon="12.6227501"><ele>1294.25</ele><time>2026-05-01T15:16:59.001Z</time></trkpt><trkpt lat="46.6111805" lon="12.6225782"><ele>1294.5</ele><time>2026-05-01T15:17:00Z</time></trkpt><trkpt lat="46.6111074" lon="12.6223955"><ele>1294.75</ele><time>2026-05-01T15:17:01.005Z</time></trkpt><trkpt lat="46.6110301" lon="12.6222035"><ele>1295.0</ele><time>2026-05-01T15:17:01.996Z</time></trkpt><trkpt lat="46.6109538" lon="12.6219947"><ele>1296.6666666666667</ele><time>2026-05-01T15:17:03.01Z</time></trkpt><trkpt lat="46.6108784" lon="12.621782"><ele>1298.3333333333333</ele><time>2026-05-01T15:17:04.001Z</time></trkpt><trkpt lat="46.6108029" lon="12.6215759"><ele>1300.0</ele><time>2026-05-01T15:17:05.001Z</time></trkpt><trkpt lat="46.6107339" lon="12.6213676"><ele>1300.0</ele><time>2026-05-01T15:17:06.002Z</time></trkpt><trkpt lat="46.6106533" lon="12.6211629"><ele>1300.0</ele><time>2026-05-01T15:17:07.002Z</time></trkpt><trkpt lat="46.6105737" lon="12.6209438"><ele>1300.0</ele><time>2026-05-01T15:17:08.007Z</time></trkpt><trkpt lat="46.6105048" lon="12.6207301"><ele>1303.0</ele><time>2026-05-01T15:17:09.002Z</time></trkpt><trkpt lat="46.6104379" lon="12.6205059"><ele>1306.0</ele><time>2026-05-01T15:17:10.003Z</time></trkpt><trkpt lat="46.610377" lon="12.6202678"><ele>1309.0</ele><time>2026-05-01T15:17:10.999Z</time></trkpt><trkpt lat="46.6103304" lon="12.6200316"><ele>1309.0</ele><time>2026-05-01T15:17:11.998Z</time></trkpt><trkpt lat="46.6102959" lon="12.6197947"><ele>1309.0</ele><time>2026-05-01T15:17:13Z</time></trkpt><trkpt lat="46.6102627" lon="12.6195623"><ele>1309.0</ele><time>2026-05-01T15:17:13.999Z</time></trkpt><trkpt lat="46.6102341" lon="12.6193213"><ele>1309.0</ele><time>2026-05-01T15:17:15.012Z</time></trkpt><trkpt lat="46.6102152" lon="12.6190727"><ele>1309.0</ele><time>2026-05-01T15:17:16.006Z</time></trkpt><trkpt lat="46.6102057" lon="12.6188144"><ele>1309.0</ele><time>2026-05-01T15:17:16.999Z</time></trkpt><trkpt lat="46.6101999" lon="12.6185485"><ele>1308.0</ele><time>2026-05-01T15:17:17.998Z</time></trkpt><trkpt lat="46.6101935" lon="12.618284"><ele>1307.0</ele><time>2026-05-01T15:17:18.998Z</time></trkpt><trkpt lat="46.6101778" lon="12.6180331"><ele>1306.0</ele><time>2026-05-01T15:17:19.998Z</time></trkpt><trkpt lat="46.610173" lon="12.6177997"><ele>1306.0</ele><time>2026-05-01T15:17:20.994Z</time></trkpt><trkpt lat="46.610166" lon="12.6175633"><ele>1306.0</ele><time>2026-05-01T15:17:22.005Z</time></trkpt><trkpt lat="46.6101649" lon="12.6173357"><ele>1306.0</ele><time>2026-05-01T15:17:23.002Z</time></trkpt><trkpt lat="46.610158" lon="12.6171302"><ele>1306.3333333333333</ele><time>2026-05-01T15:17:24.017Z</time></trkpt><trkpt lat="46.6101508" lon="12.6169164"><ele>1306.6666666666667</ele><time>2026-05-01T15:17:25.002Z</time></trkpt><trkpt lat="46.6101459" lon="12.6166946"><ele>1307.0</ele><time>2026-05-01T15:17:26.003Z</time></trkpt><trkpt lat="46.6101434" lon="12.6164671"><ele>1307.0</ele><time>2026-05-01T15:17:27.002Z</time></trkpt><trkpt lat="46.6101416" lon="12.6162325"><ele>1307.0</ele><time>2026-05-01T15:17:28.001Z</time></trkpt><trkpt lat="46.6101426" lon="12.615993"><ele>1307.0</ele><time>2026-05-01T15:17:29.005Z</time></trkpt><trkpt lat="46.610152" lon="12.6157703"><ele>1309.5</ele><time>2026-05-01T15:17:30Z</time></trkpt><trkpt lat="46.6101615" lon="12.6155579"><ele>1312.0</ele><time>2026-05-01T15:17:31Z</time></trkpt><trkpt lat="46.6101698" lon="12.6153356"><ele>1314.5</ele><time>2026-05-01T15:17:32Z</time></trkpt><trkpt lat="46.6101658" lon="12.6151168"><ele>1317.0</ele><time>2026-05-01T15:17:33.004Z</time></trkpt><trkpt lat="46.6101581" lon="12.6149045"><ele>1318.5</ele><time>2026-05-01T15:17:34Z</time></trkpt><trkpt lat="46.6101504" lon="12.6147002"><ele>1320.0</ele><time>2026-05-01T15:17:35.002Z</time></trkpt><trkpt lat="46.6101538" lon="12.6144928"><ele>1321.5</ele><time>2026-05-01T15:17:35.999Z</time></trkpt><trkpt lat="46.6101513" lon="12.6142861"><ele>1323.0</ele><time>2026-05-01T15:17:37Z</time></trkpt><trkpt lat="46.6101442" lon="12.614087"><ele>1324.75</ele><time>2026-05-01T15:17:37.998Z</time></trkpt><trkpt lat="46.6101454" lon="12.6138905"><ele>1326.5</ele><time>2026-05-01T15:17:39.004Z</time></trkpt><trkpt lat="46.6101573" lon="12.613702"><ele>1328.25</ele><time>2026-05-01T15:17:39.996Z</time></trkpt><trkpt lat="46.6101727" lon="12.6135252"><ele>1330.0</ele><time>2026-05-01T15:17:40.999Z</time></trkpt><trkpt lat="46.610182" lon="12.6133533"><ele>1331.5</ele><time>2026-05-01T15:17:42.006Z</time></trkpt><trkpt lat="46.6101914" lon="12.6131776"><ele>1333.0</ele><time>2026-05-01T15:17:42.996Z</time></trkpt><trkpt lat="46.6101863" lon="12.6130081"><ele>1334.5</ele><time>2026-05-01T15:17:44.008Z</time></trkpt><trkpt lat="46.6101766" lon="12.612831"><ele>1336.0</ele><time>2026-05-01T15:17:45Z</time></trkpt><trkpt lat="46.6101574" lon="12.6126585"><ele>1337.25</ele><time>2026-05-01T15:17:46.006Z</time></trkpt><trkpt lat="46.6101233" lon="12.6124807"><ele>1338.5</ele><time>2026-05-01T15:17:46.993Z</time></trkpt><trkpt lat="46.6100779" lon="12.6122992"><ele>1339.75</ele><time>2026-05-01T15:17:47.997Z</time></trkpt><trkpt lat="46.6100176" lon="12.6121229"><ele>1341.0</ele><time>2026-05-01T15:17:49.001Z</time></trkpt><trkpt lat="46.6099542" lon="12.6119386"><ele>1341.25</ele><time>2026-05-01T15:17:50.003Z</time></trkpt><trkpt lat="46.6098911" lon="12.6117649"><ele>1341.5</ele><time>2026-05-01T15:17:51.001Z</time></trkpt><trkpt lat="46.609836" lon="12.6115952"><ele>1341.75</ele><time>2026-05-01T15:17:52.003Z</time></trkpt><trkpt lat="46.6097836" lon="12.6114237"><ele>1342.0</ele><time>2026-05-01T15:17:52.998Z</time></trkpt><trkpt lat="46.609732" lon="12.6112559"><ele>1341.3999999999999</ele><time>2026-05-01T15:17:54Z</time></trkpt><trkpt lat="46.6096803" lon="12.6110923"><ele>1340.8</ele><time>2026-05-01T15:17:55Z</time></trkpt><trkpt lat="46.6096324" lon="12.6109388"><ele>1340.2</ele><time>2026-05-01T15:17:56.003Z</time></trkpt><trkpt lat="46.609594" lon="12.6107953"><ele>1339.6</ele><time>2026-05-01T15:17:56.994Z</time></trkpt><trkpt lat="46.6095602" lon="12.6106745"><ele>1339.0</ele><time>2026-05-01T15:17:58.008Z</time></trkpt><trkpt lat="46.6095325" lon="12.6105442"><ele>1339.0</ele><time>2026-05-01T15:17:59.002Z</time></trkpt><trkpt lat="46.6095118" lon="12.6103903"><ele>1339.0</ele><time>2026-05-01T15:18:00.004Z</time></trkpt><trkpt lat="46.6094923" lon="12.6102168"><ele>1339.0</ele><time>2026-05-01T15:18:00.993Z</time></trkpt><trkpt lat="46.6094821" lon="12.6100339"><ele>1339.0</ele><time>2026-05-01T15:18:01.997Z</time></trkpt><trkpt lat="46.6094682" lon="12.6098548"><ele>1342.25</ele><time>2026-05-01T15:18:03.001Z</time></trkpt><trkpt lat="46.609451" lon="12.6096851"><ele>1345.5</ele><time>2026-05-01T15:18:04Z</time></trkpt><trkpt lat="46.6094189" lon="12.6095138"><ele>1348.75</ele><time>2026-05-01T15:18:05Z</time></trkpt><trkpt lat="46.6093735" lon="12.6093497"><ele>1352.0</ele><time>2026-05-01T15:18:06.003Z</time></trkpt><trkpt lat="46.6093271" lon="12.6091832"><ele>1353.0</ele><time>2026-05-01T15:18:06.998Z</time></trkpt><trkpt lat="46.6092901" lon="12.6090084"><ele>1354.0</ele><time>2026-05-01T15:18:08.01Z</time></trkpt><trkpt lat="46.6092529" lon="12.6088182"><ele>1355.0</ele><time>2026-05-01T15:18:08.997Z</time></trkpt><trkpt lat="46.6092089" lon="12.6086131"><ele>1356.0</ele><time>2026-05-01T15:18:10Z</time></trkpt><trkpt lat="46.609169" lon="12.6084014"><ele>1358.0</ele><time>2026-05-01T15:18:11.005Z</time></trkpt><trkpt lat="46.6091315" lon="12.6081779"><ele>1360.0</ele><time>2026-05-01T15:18:12.006Z</time></trkpt><trkpt lat="46.6090884" lon="12.6079506"><ele>1362.0</ele><time>2026-05-01T15:18:13.003Z</time></trkpt><trkpt lat="46.6090353" lon="12.607734"><ele>1364.0</ele><time>2026-05-01T15:18:14.005Z</time></trkpt><trkpt lat="46.6089885" lon="12.6075405"><ele>1366.0</ele><time>2026-05-01T15:18:15.003Z</time></trkpt><trkpt lat="46.6089578" lon="12.6073768"><ele>1368.0</ele><time>2026-05-01T15:18:15.999Z</time></trkpt><trkpt lat="46.6089307" lon="12.6072221"><ele>1370.0</ele><time>2026-05-01T15:18:17.001Z</time></trkpt><trkpt lat="46.6089157" lon="12.6070714"><ele>1370.6</ele><time>2026-05-01T15:18:18.004Z</time></trkpt><trkpt lat="46.6089108" lon="12.6069161"><ele>1371.2</ele><time>2026-05-01T15:18:19.003Z</time></trkpt><trkpt lat="46.6089183" lon="12.6067635"><ele>1371.8000000000002</ele><time>2026-05-01T15:18:19.999Z</time></trkpt><trkpt lat="46.608936" lon="12.6066262"><ele>1372.4</ele><time>2026-05-01T15:18:21.013Z</time></trkpt><trkpt lat="46.6089409" lon="12.6065025"><ele>1373.0</ele><time>2026-05-01T15:18:22.006Z</time></trkpt><trkpt lat="46.6089292" lon="12.6063767"><ele>1373.0</ele><time>2026-05-01T15:18:22.999Z</time></trkpt><trkpt lat="46.6088955" lon="12.6062685"><ele>1373.0</ele><time>2026-05-01T15:18:23.999Z</time></trkpt><trkpt lat="46.608853" lon="12.6061758"><ele>1373.0</ele><time>2026-05-01T15:18:25.008Z</time></trkpt><trkpt lat="46.6087973" lon="12.6060859"><ele>1373.0</ele><time>2026-05-01T15:18:25.998Z</time></trkpt><trkpt lat="46.608736" lon="12.605998"><ele>1373.0</ele><time>2026-05-01T15:18:27.001Z</time></trkpt><trkpt lat="46.6086583" lon="12.6059106"><ele>1373.0</ele><time>2026-05-01T15:18:28.004Z</time></trkpt><trkpt lat="46.6085765" lon="12.6058079"><ele>1372.2</ele><time>2026-05-01T15:18:29.003Z</time></trkpt><trkpt lat="46.6085083" lon="12.6057044"><ele>1371.4</ele><time>2026-05-01T15:18:30.009Z</time></trkpt><trkpt lat="46.608458" lon="12.6055937"><ele>1370.6000000000001</ele><time>2026-05-01T15:18:30.999Z</time></trkpt><trkpt lat="46.6084218" lon="12.6054723"><ele>1369.8000000000002</ele><time>2026-05-01T15:18:32.004Z</time></trkpt><trkpt lat="46.608399" lon="12.6053376"><ele>1369.0</ele><time>2026-05-01T15:18:32.998Z</time></trkpt><trkpt lat="46.6083799" lon="12.6051915"><ele>1371.4</ele><time>2026-05-01T15:18:33.999Z</time></trkpt><trkpt lat="46.6083539" lon="12.6050399"><ele>1373.8000000000002</ele><time>2026-05-01T15:18:35.001Z</time></trkpt><trkpt lat="46.6083227" lon="12.6048926"><ele>1376.1999999999998</ele><time>2026-05-01T15:18:36.009Z</time></trkpt><trkpt lat="46.6083035" lon="12.6047383"><ele>1378.6</ele><time>2026-05-01T15:18:37.009Z</time></trkpt><trkpt lat="46.6082937" lon="12.6045999"><ele>1381.0</ele><time>2026-05-01T15:18:38.009Z</time></trkpt><trkpt lat="46.6082922" lon="12.6044726"><ele>1382.4</ele><time>2026-05-01T15:18:39.004Z</time></trkpt><trkpt lat="46.6083129" lon="12.6043304"><ele>1383.8</ele><time>2026-05-01T15:18:40Z</time></trkpt><trkpt lat="46.6083392" lon="12.6041725"><ele>1385.2</ele><time>2026-05-01T15:18:41.001Z</time></trkpt><trkpt lat="46.6083728" lon="12.6040154"><ele>1386.6000000000001</ele><time>2026-05-01T15:18:41.999Z</time></trkpt><trkpt lat="46.6084004" lon="12.6038601"><ele>1388.0</ele><time>2026-05-01T15:18:43.002Z</time></trkpt><trkpt lat="46.6084362" lon="12.6037059"><ele>1388.4</ele><time>2026-05-01T15:18:44.001Z</time></trkpt><trkpt lat="46.6084727" lon="12.6035617"><ele>1388.8000000000002</ele><time>2026-05-01T15:18:45.014Z</time></trkpt><trkpt lat="46.6085073" lon="12.6034195"><ele>1389.2</ele><time>2026-05-01T15:18:46.011Z</time></trkpt><trkpt lat="46.6085369" lon="12.603281"><ele>1389.6</ele><time>2026-05-01T15:18:47Z</time></trkpt><trkpt lat="46.6085609" lon="12.6031485"><ele>1390.0</ele><time>2026-05-01T15:18:48.001Z</time></trkpt><trkpt lat="46.6085723" lon="12.6030099"><ele>1390.0</ele><time>2026-05-01T15:18:48.999Z</time></trkpt><trkpt lat="46.6085632" lon="12.6028735"><ele>1390.0</ele><time>2026-05-01T15:18:50.013Z</time></trkpt><trkpt lat="46.608555" lon="12.602728"><ele>1390.0</ele><time>2026-05-01T15:18:50.997Z</time></trkpt><trkpt lat="46.6085437" lon="12.6025848"><ele>1390.0</ele><time>2026-05-01T15:18:52.002Z</time></trkpt><trkpt lat="46.6085483" lon="12.6024415"><ele>1390.0</ele><time>2026-05-01T15:18:53.006Z</time></trkpt><trkpt lat="46.6085569" lon="12.6023117"><ele>1390.1666666666665</ele><time>2026-05-01T15:18:53.997Z</time></trkpt><trkpt lat="46.6085576" lon="12.6021907"><ele>1390.3333333333333</ele><time>2026-05-01T15:18:55.013Z</time></trkpt><trkpt lat="46.6085461" lon="12.6020716"><ele>1390.5</ele><time>2026-05-01T15:18:56.001Z</time></trkpt><trkpt lat="46.6085247" lon="12.6019554"><ele>1390.6666666666667</ele><time>2026-05-01T15:18:57.003Z</time></trkpt><trkpt lat="46.608505" lon="12.6018302"><ele>1390.8333333333335</ele><time>2026-05-01T15:18:58.006Z</time></trkpt><trkpt lat="46.608495" lon="12.60171"><ele>1391.0</ele><time>2026-05-01T15:18:58.997Z</time></trkpt><trkpt lat="46.6084997" lon="12.6015659"><ele>1392.4</ele><time>2026-05-01T15:19:00.012Z</time></trkpt><trkpt lat="46.6084943" lon="12.6014187"><ele>1393.8</ele><time>2026-05-01T15:19:01.002Z</time></trkpt><trkpt lat="46.6084865" lon="12.6012676"><ele>1395.2</ele><time>2026-05-01T15:19:02.001Z</time></trkpt><trkpt lat="46.6084799" lon="12.6011266"><ele>1396.6000000000001</ele><time>2026-05-01T15:19:02.997Z</time></trkpt><trkpt lat="46.6084745" lon="12.6009812"><ele>1398.0</ele><time>2026-05-01T15:19:03.999Z</time></trkpt><trkpt lat="46.6084737" lon="12.6008439"><ele>1399.3333333333333</ele><time>2026-05-01T15:19:04.994Z</time></trkpt><trkpt lat="46.6084632" lon="12.6007072"><ele>1400.6666666666667</ele><time>2026-05-01T15:19:06.007Z</time></trkpt><trkpt lat="46.6084604" lon="12.6005787"><ele>1402.0</ele><time>2026-05-01T15:19:07.007Z</time></trkpt><trkpt lat="46.6084618" lon="12.6004551"><ele>1403.3333333333335</ele><time>2026-05-01T15:19:08.004Z</time></trkpt><trkpt lat="46.6084749" lon="12.6003305"><ele>1404.6666666666667</ele><time>2026-05-01T15:19:09.01Z</time></trkpt><trkpt lat="46.6085032" lon="12.6002099"><ele>1406.0</ele><time>2026-05-01T15:19:10.004Z</time></trkpt><trkpt lat="46.6085455" lon="12.6000724"><ele>1408.1999999999998</ele><time>2026-05-01T15:19:10.997Z</time></trkpt><trkpt lat="46.608601" lon="12.5999371"><ele>1410.3999999999999</ele><time>2026-05-01T15:19:12.007Z</time></trkpt><trkpt lat="46.6086676" lon="12.599805"><ele>1412.6</ele><time>2026-05-01T15:19:12.999Z</time></trkpt><trkpt lat="46.6087326" lon="12.5996599"><ele>1414.8</ele><time>2026-05-01T15:19:14.005Z</time></trkpt><trkpt lat="46.6087839" lon="12.5995212"><ele>1417.0</ele><time>2026-05-01T15:19:14.999Z</time></trkpt><trkpt lat="46.6088292" lon="12.599387"><ele>1418.6</ele><time>2026-05-01T15:19:16.003Z</time></trkpt><trkpt lat="46.6088798" lon="12.5992408"><ele>1420.1999999999998</ele><time>2026-05-01T15:19:17.003Z</time></trkpt><trkpt lat="46.6089234" lon="12.5990899"><ele>1421.8</ele><time>2026-05-01T15:19:18.009Z</time></trkpt><trkpt lat="46.6089587" lon="12.5989384"><ele>1423.4</ele><time>2026-05-01T15:19:19.008Z</time></trkpt><trkpt lat="46.6089957" lon="12.5988056"><ele>1425.0</ele><time>2026-05-01T15:19:20Z</time></trkpt><trkpt lat="46.6090286" lon="12.5986791"><ele>1426.4</ele><time>2026-05-01T15:19:21.008Z</time></trkpt><trkpt lat="46.6090595" lon="12.598543"><ele>1427.8</ele><time>2026-05-01T15:19:22.005Z</time></trkpt><trkpt lat="46.6090874" lon="12.5983994"><ele>1429.1999999999998</ele><time>2026-05-01T15:19:22.999Z</time></trkpt><trkpt lat="46.6091145" lon="12.5982488"><ele>1430.6</ele><time>2026-05-01T15:19:24.013Z</time></trkpt><trkpt lat="46.6091313" lon="12.5981041"><ele>1432.0</ele><time>2026-05-01T15:19:25.003Z</time></trkpt><trkpt lat="46.6091504" lon="12.5979674"><ele>1433.0</ele><time>2026-05-01T15:19:25.996Z</time></trkpt><trkpt lat="46.6091541" lon="12.5978208"><ele>1434.0</ele><time>2026-05-01T15:19:27.003Z</time></trkpt><trkpt lat="46.6091606" lon="12.5976743"><ele>1435.0</ele><time>2026-05-01T15:19:28.001Z</time></trkpt><trkpt lat="46.6091577" lon="12.5975249"><ele>1436.0</ele><time>2026-05-01T15:19:29.013Z</time></trkpt><trkpt lat="46.6091461" lon="12.5973672"><ele>1437.0</ele><time>2026-05-01T15:19:30.003Z</time></trkpt><trkpt lat="46.6091343" lon="12.5972163"><ele>1437.0</ele><time>2026-05-01T15:19:31.002Z</time></trkpt><trkpt lat="46.609116" lon="12.5970745"><ele>1437.0</ele><time>2026-05-01T15:19:31.998Z</time></trkpt><trkpt lat="46.6090916" lon="12.5969273"><ele>1437.0</ele><time>2026-05-01T15:19:33.003Z</time></trkpt><trkpt lat="46.6090659" lon="12.5967804"><ele>1437.0</ele><time>2026-05-01T15:19:34.001Z</time></trkpt><trkpt lat="46.6090395" lon="12.5966562"><ele>1437.0</ele><time>2026-05-01T15:19:35.012Z</time></trkpt><trkpt lat="46.6090086" lon="12.5965113"><ele>1437.8</ele><time>2026-05-01T15:19:36.001Z</time></trkpt><trkpt lat="46.6089895" lon="12.5963866"><ele>1438.6</ele><time>2026-05-01T15:19:36.996Z</time></trkpt><trkpt lat="46.6089641" lon="12.5962791"><ele>1439.3999999999999</ele><time>2026-05-01T15:19:38.004Z</time></trkpt><trkpt lat="46.608945" lon="12.5961485"><ele>1440.1999999999998</ele><time>2026-05-01T15:19:39.005Z</time></trkpt><trkpt lat="46.6089349" lon="12.5959948"><ele>1441.0</ele><time>2026-05-01T15:19:40.004Z</time></trkpt><trkpt lat="46.6089256" lon="12.5958554"><ele>1441.8</ele><time>2026-05-01T15:19:41.004Z</time></trkpt><trkpt lat="46.608922" lon="12.5957518"><ele>1442.6</ele><time>2026-05-01T15:19:42.001Z</time></trkpt><trkpt lat="46.6089379" lon="12.5956524"><ele>1443.4</ele><time>2026-05-01T15:19:45.009Z</time></trkpt><trkpt lat="46.6087975" lon="12.5957373"><ele>1444.2</ele><time>2026-05-01T15:29:42.999Z</time></trkpt><trkpt lat="46.6086682" lon="12.5957627"><ele>1445.0</ele><time>2026-05-01T15:29:44.998Z</time></trkpt><trkpt lat="46.6085598" lon="12.5957526"><ele>1447.6</ele><time>2026-05-01T15:29:45.998Z</time></trkpt><trkpt lat="46.6084436" lon="12.5957364"><ele>1450.2</ele><time>2026-05-01T15:29:46.996Z</time></trkpt><trkpt lat="46.6083348" lon="12.5957202"><ele>1452.8000000000002</ele><time>2026-05-01T15:29:47.992Z</time></trkpt><trkpt lat="46.6082384" lon="12.5957057"><ele>1455.4</ele><time>2026-05-01T15:29:49.003Z</time></trkpt><trkpt lat="46.6081491" lon="12.5956939"><ele>1458.0</ele><time>2026-05-01T15:29:50.001Z</time></trkpt><trkpt lat="46.608058" lon="12.5956906"><ele>1458.0</ele><time>2026-05-01T15:29:51.001Z</time></trkpt><trkpt lat="46.6079688" lon="12.5957156"><ele>1458.0</ele><time>2026-05-01T15:29:52.001Z</time></trkpt><trkpt lat="46.6078938" lon="12.5957562"><ele>1458.0</ele><time>2026-05-01T15:29:53.003Z</time></trkpt><trkpt lat="46.6077973" lon="12.5957862"><ele>1458.0</ele><time>2026-05-01T15:29:55.008Z</time></trkpt><trkpt lat="46.607707" lon="12.595799"><ele>1458.0</ele><time>2026-05-01T15:29:56.996Z</time></trkpt><trkpt lat="46.6076382" lon="12.5957905"><ele>1458.0</ele><time>2026-05-01T15:29:58.996Z</time></trkpt><trkpt lat="46.6075551" lon="12.5957733"><ele>1460.4</ele><time>2026-05-01T15:30:00.993Z</time></trkpt><trkpt lat="46.6074632" lon="12.5957407"><ele>1462.8000000000002</ele><time>2026-05-01T15:30:02.997Z</time></trkpt><trkpt lat="46.6073571" lon="12.5956867"><ele>1465.2</ele><time>2026-05-01T15:30:05.007Z</time></trkpt><trkpt lat="46.6072511" lon="12.5956353"><ele>1467.6</ele><time>2026-05-01T15:30:07.002Z</time></trkpt><trkpt lat="46.6071632" lon="12.5955593"><ele>1470.0</ele><time>2026-05-01T15:30:09.002Z</time></trkpt><trkpt lat="46.6071562" lon="12.595395"><ele>1471.0</ele><time>2026-05-01T15:30:10.993Z</time></trkpt><trkpt lat="46.6071824" lon="12.5953069"><ele>1472.0</ele><time>2026-05-01T15:30:12.006Z</time></trkpt><trkpt lat="46.6072207" lon="12.5952112"><ele>1473.0</ele><time>2026-05-01T15:30:13.001Z</time></trkpt><trkpt lat="46.6072736" lon="12.5951158"><ele>1474.0</ele><time>2026-05-01T15:30:14.002Z</time></trkpt><trkpt lat="46.6073464" lon="12.5950223"><ele>1475.0</ele><time>2026-05-01T15:30:14.998Z</time></trkpt><trkpt lat="46.6074484" lon="12.5949448"><ele>1476.0</ele><time>2026-05-01T15:30:15.999Z</time></trkpt><trkpt lat="46.6075588" lon="12.5948858"><ele>1476.0</ele><time>2026-05-01T15:30:16.999Z</time></trkpt><trkpt lat="46.6076761" lon="12.5948499"><ele>1476.0</ele><time>2026-05-01T15:30:18.014Z</time></trkpt><trkpt lat="46.6077901" lon="12.5948224"><ele>1476.0</ele><time>2026-05-01T15:30:19.005Z</time></trkpt><trkpt lat="46.6078826" lon="12.5947706"><ele>1476.0</ele><time>2026-05-01T15:30:20Z</time></trkpt><trkpt lat="46.6079556" lon="12.5947095"><ele>1476.0</ele><time>2026-05-01T15:30:20.997Z</time></trkpt><trkpt lat="46.6080149" lon="12.5945843"><ele>1479.6</ele><time>2026-05-01T15:30:23.002Z</time></trkpt><trkpt lat="46.6079848" lon="12.5944757"><ele>1483.1999999999998</ele><time>2026-05-01T15:30:24.998Z</time></trkpt><trkpt lat="46.6078542" lon="12.5944564"><ele>1486.8000000000002</ele><time>2026-05-01T15:30:27.001Z</time></trkpt><trkpt lat="46.6077769" lon="12.5944634"><ele>1490.4</ele><time>2026-05-01T15:30:28.001Z</time></trkpt><trkpt lat="46.6077017" lon="12.5944569"><ele>1494.0</ele><time>2026-05-01T15:30:29.003Z</time></trkpt><trkpt lat="46.6076166" lon="12.5944035"><ele>1494.0</ele><time>2026-05-01T15:30:29.996Z</time></trkpt><trkpt lat="46.6075362" lon="12.5943101"><ele>1494.0</ele><time>2026-05-01T15:30:31.009Z</time></trkpt><trkpt lat="46.6074676" lon="12.5941995"><ele>1494.0</ele><time>2026-05-01T15:30:32.002Z</time></trkpt><trkpt lat="46.6073971" lon="12.594073"><ele>1494.0</ele><time>2026-05-01T15:30:33.001Z</time></trkpt><trkpt lat="46.607308" lon="12.5939603"><ele>1494.0</ele><time>2026-05-01T15:30:34.003Z</time></trkpt><trkpt lat="46.6072082" lon="12.593877"><ele>1494.0</ele><time>2026-05-01T15:30:34.999Z</time></trkpt><trkpt lat="46.6070999" lon="12.5938097"><ele>1494.0</ele><time>2026-05-01T15:30:36Z</time></trkpt><trkpt lat="46.606987" lon="12.5937337"><ele>1494.0</ele><time>2026-05-01T15:30:37.004Z</time></trkpt><trkpt lat="46.6068668" lon="12.5936685"><ele>1494.0</ele><time>2026-05-01T15:30:38.006Z</time></trkpt><trkpt lat="46.6067484" lon="12.5936246"><ele>1496.2</ele><time>2026-05-01T15:30:38.996Z</time></trkpt><trkpt lat="46.6066465" lon="12.5936181"><ele>1498.4</ele><time>2026-05-01T15:30:39.999Z</time></trkpt><trkpt lat="46.6065602" lon="12.5936389"><ele>1500.6</ele><time>2026-05-01T15:30:41Z</time></trkpt><trkpt lat="46.606483" lon="12.5936681"><ele>1502.8</ele><time>2026-05-01T15:30:42.001Z</time></trkpt><trkpt lat="46.6063964" lon="12.593728"><ele>1505.0</ele><time>2026-05-01T15:30:43Z</time></trkpt><trkpt lat="46.6063028" lon="12.5938122"><ele>1505.0</ele><time>2026-05-01T15:30:44.001Z</time></trkpt><trkpt lat="46.6062079" lon="12.5939171"><ele>1505.0</ele><time>2026-05-01T15:30:44.995Z</time></trkpt><trkpt lat="46.6060953" lon="12.5940015"><ele>1505.0</ele><time>2026-05-01T15:30:46.001Z</time></trkpt><trkpt lat="46.605992" lon="12.5940699"><ele>1505.0</ele><time>2026-05-01T15:30:47.001Z</time></trkpt><trkpt lat="46.6058976" lon="12.5941023"><ele>1508.4</ele><time>2026-05-01T15:30:48.001Z</time></trkpt><trkpt lat="46.6057963" lon="12.5941395"><ele>1511.8</ele><time>2026-05-01T15:30:49.006Z</time></trkpt><trkpt lat="46.605696" lon="12.5941678"><ele>1515.1999999999998</ele><time>2026-05-01T15:30:50.001Z</time></trkpt><trkpt lat="46.6056038" lon="12.5941859"><ele>1518.6</ele><time>2026-05-01T15:30:50.999Z</time></trkpt><trkpt lat="46.6054968" lon="12.5941769"><ele>1522.0</ele><time>2026-05-01T15:30:52.003Z</time></trkpt><trkpt lat="46.6053747" lon="12.5941658"><ele>1524.5</ele><time>2026-05-01T15:30:52.998Z</time></trkpt><trkpt lat="46.6052514" lon="12.5941486"><ele>1527.0</ele><time>2026-05-01T15:30:54.005Z</time></trkpt><trkpt lat="46.6051283" lon="12.594128"><ele>1529.5</ele><time>2026-05-01T15:30:55.007Z</time></trkpt><trkpt lat="46.6050124" lon="12.5941124"><ele>1532.0</ele><time>2026-05-01T15:30:56Z</time></trkpt><trkpt lat="46.604908" lon="12.5941044"><ele>1532.0</ele><time>2026-05-01T15:30:56.999Z</time></trkpt><trkpt lat="46.6048002" lon="12.5940869"><ele>1532.0</ele><time>2026-05-01T15:30:57.997Z</time></trkpt><trkpt lat="46.604698" lon="12.5940658"><ele>1532.0</ele><time>2026-05-01T15:30:58.998Z</time></trkpt><trkpt lat="46.6046238" lon="12.594043"><ele>1532.0</ele><time>2026-05-01T15:30:59.994Z</time></trkpt><trkpt lat="46.6045219" lon="12.5940759"><ele>1532.0</ele><time>2026-05-01T15:31:01.998Z</time></trkpt><trkpt lat="46.6044886" lon="12.5941589"><ele>1535.1999999999998</ele><time>2026-05-01T15:31:02.994Z</time></trkpt><trkpt lat="46.604479" lon="12.5942764"><ele>1538.4</ele><time>2026-05-01T15:31:04Z</time></trkpt><trkpt lat="46.6044666" lon="12.5944223"><ele>1541.6</ele><time>2026-05-01T15:31:05.002Z</time></trkpt><trkpt lat="46.6044318" lon="12.5945491"><ele>1544.8000000000002</ele><time>2026-05-01T15:31:06.003Z</time></trkpt><trkpt lat="46.6043818" lon="12.5946604"><ele>1548.0</ele><time>2026-05-01T15:31:06.997Z</time></trkpt><trkpt lat="46.6043203" lon="12.5947417"><ele>1548.0</ele><time>2026-05-01T15:31:08.002Z</time></trkpt><trkpt lat="46.6042422" lon="12.594806"><ele>1548.0</ele><time>2026-05-01T15:31:09.003Z</time></trkpt><trkpt lat="46.6041699" lon="12.5948457"><ele>1548.0</ele><time>2026-05-01T15:31:09.999Z</time></trkpt><trkpt lat="46.604086" lon="12.5948481"><ele>1548.0</ele><time>2026-05-01T15:31:11.007Z</time></trkpt><trkpt lat="46.6039897" lon="12.5948454"><ele>1548.0</ele><time>2026-05-01T15:31:11.997Z</time></trkpt><trkpt lat="46.6038853" lon="12.5948408"><ele>1548.0</ele><time>2026-05-01T15:31:13.008Z</time></trkpt><trkpt lat="46.6037833" lon="12.5948246"><ele>1548.0</ele><time>2026-05-01T15:31:14.001Z</time></trkpt><trkpt lat="46.6036999" lon="12.5947983"><ele>1548.0</ele><time>2026-05-01T15:31:14.999Z</time></trkpt><trkpt lat="46.6036318" lon="12.594748"><ele>1548.0</ele><time>2026-05-01T15:31:16.006Z</time></trkpt><trkpt lat="46.6035895" lon="12.5946763"><ele>1548.0</ele><time>2026-05-01T15:31:17.002Z</time></trkpt><trkpt lat="46.60357" lon="12.594583"><ele>1548.0</ele><time>2026-05-01T15:31:17.999Z</time></trkpt><trkpt lat="46.6035833" lon="12.5944693"><ele>1549.2</ele><time>2026-05-01T15:31:19.002Z</time></trkpt><trkpt lat="46.603605" lon="12.5943525"><ele>1550.4</ele><time>2026-05-01T15:31:20.002Z</time></trkpt><trkpt lat="46.6036329" lon="12.5942016"><ele>1551.6000000000001</ele><time>2026-05-01T15:31:21.004Z</time></trkpt><trkpt lat="46.603664" lon="12.5940425"><ele>1552.8000000000002</ele><time>2026-05-01T15:31:22Z</time></trkpt><trkpt lat="46.603705" lon="12.5938729"><ele>1554.0</ele><time>2026-05-01T15:31:22.998Z</time></trkpt><trkpt lat="46.6037539" lon="12.593701"><ele>1557.25</ele><time>2026-05-01T15:31:24.005Z</time></trkpt><trkpt lat="46.6038135" lon="12.5935149"><ele>1560.5</ele><time>2026-05-01T15:31:25.003Z</time></trkpt><trkpt lat="46.6038754" lon="12.5933305"><ele>1563.75</ele><time>2026-05-01T15:31:26.002Z</time></trkpt><trkpt lat="46.6039431" lon="12.5931586"><ele>1567.0</ele><time>2026-05-01T15:31:27.001Z</time></trkpt><trkpt lat="46.6040118" lon="12.5930067"><ele>1567.0</ele><time>2026-05-01T15:31:28.001Z</time></trkpt><trkpt lat="46.6040882" lon="12.5928816"><ele>1567.0</ele><time>2026-05-01T15:31:28.999Z</time></trkpt><trkpt lat="46.6041834" lon="12.5927654"><ele>1567.0</ele><time>2026-05-01T15:31:30Z</time></trkpt><trkpt lat="46.6042964" lon="12.5926528"><ele>1567.0</ele><time>2026-05-01T15:31:31.005Z</time></trkpt><trkpt lat="46.6044218" lon="12.5925472"><ele>1569.25</ele><time>2026-05-01T15:31:32.003Z</time></trkpt><trkpt lat="46.6045396" lon="12.5924578"><ele>1571.5</ele><time>2026-05-01T15:31:32.997Z</time></trkpt><trkpt lat="46.6046497" lon="12.5923911"><ele>1573.75</ele><time>2026-05-01T15:31:34.005Z</time></trkpt><trkpt lat="46.6047495" lon="12.5923393"><ele>1576.0</ele><time>2026-05-01T15:31:35.002Z</time></trkpt><trkpt lat="46.6048321" lon="12.5922808"><ele>1576.0000000000002</ele><time>2026-05-01T15:31:36.003Z</time></trkpt><trkpt lat="46.604889" lon="12.5922144"><ele>1576.0</ele><time>2026-05-01T15:31:36.998Z</time></trkpt><trkpt lat="46.604927" lon="12.5921304"><ele>1576.0</ele><time>2026-05-01T15:31:38.001Z</time></trkpt><trkpt lat="46.6049568" lon="12.5920037"><ele>1576.0</ele><time>2026-05-01T15:31:38.995Z</time></trkpt><trkpt lat="46.6049919" lon="12.5918602"><ele>1576.0000000000002</ele><time>2026-05-01T15:31:39.999Z</time></trkpt><trkpt lat="46.6050378" lon="12.5917289"><ele>1576.0</ele><time>2026-05-01T15:31:41Z</time></trkpt><trkpt lat="46.6050912" lon="12.591628"><ele>1579.1999999999998</ele><time>2026-05-01T15:31:42.004Z</time></trkpt><trkpt lat="46.6051381" lon="12.5914846"><ele>1582.3999999999999</ele><time>2026-05-01T15:31:43.995Z</time></trkpt><trkpt lat="46.605092" lon="12.5914039"><ele>1585.6</ele><time>2026-05-01T15:31:46.002Z</time></trkpt><trkpt lat="46.6049819" lon="12.5914073"><ele>1588.8</ele><time>2026-05-01T15:31:48.007Z</time></trkpt><trkpt lat="46.6049026" lon="12.5914457"><ele>1592.0</ele><time>2026-05-01T15:31:48.997Z</time></trkpt><trkpt lat="46.6048149" lon="12.59149"><ele>1592.0</ele><time>2026-05-01T15:31:50Z</time></trkpt><trkpt lat="46.604725" lon="12.591547"><ele>1592.0</ele><time>2026-05-01T15:31:51.004Z</time></trkpt><trkpt lat="46.6046435" lon="12.5916026"><ele>1592.0</ele><time>2026-05-01T15:31:52Z</time></trkpt><trkpt lat="46.604567" lon="12.5916378"><ele>1592.0</ele><time>2026-05-01T15:31:53.001Z</time></trkpt><trkpt lat="46.604474" lon="12.5916518"><ele>1592.0</ele><time>2026-05-01T15:31:54.008Z</time></trkpt><trkpt lat="46.604366" lon="12.5916684"><ele>1594.75</ele><time>2026-05-01T15:31:55.001Z</time></trkpt><trkpt lat="46.6042411" lon="12.5916879"><ele>1597.5</ele><time>2026-05-01T15:31:55.996Z</time></trkpt><trkpt lat="46.6041103" lon="12.5917061"><ele>1600.25</ele><time>2026-05-01T15:31:56.996Z</time></trkpt><trkpt lat="46.6039802" lon="12.5917352"><ele>1603.0</ele><time>2026-05-01T15:31:58.005Z</time></trkpt><trkpt lat="46.6038434" lon="12.5917684"><ele>1603.0</ele><time>2026-05-01T15:31:59Z</time></trkpt><trkpt lat="46.6036997" lon="12.591801"><ele>1603.0</ele><time>2026-05-01T15:32:00.007Z</time></trkpt><trkpt lat="46.6035594" lon="12.5918266"><ele>1603.0</ele><time>2026-05-01T15:32:00.995Z</time></trkpt><trkpt lat="46.6034399" lon="12.5918379"><ele>1603.0</ele><time>2026-05-01T15:32:01.995Z</time></trkpt><trkpt lat="46.6033264" lon="12.5918465"><ele>1605.0</ele><time>2026-05-01T15:32:03.004Z</time></trkpt><trkpt lat="46.6031933" lon="12.5918383"><ele>1607.0</ele><time>2026-05-01T15:32:04.003Z</time></trkpt><trkpt lat="46.6030588" lon="12.591821"><ele>1609.0</ele><time>2026-05-01T15:32:05.014Z</time></trkpt><trkpt lat="46.6029435" lon="12.5918083"><ele>1611.0</ele><time>2026-05-01T15:32:05.995Z</time></trkpt><trkpt lat="46.6028489" lon="12.5918036"><ele>1609.4</ele><time>2026-05-01T15:32:07.008Z</time></trkpt><trkpt lat="46.6027786" lon="12.5917946"><ele>1607.8</ele><time>2026-05-01T15:32:08.005Z</time></trkpt><trkpt lat="46.602687" lon="12.5917374"><ele>1606.2</ele><time>2026-05-01T15:32:10.001Z</time></trkpt><trkpt lat="46.6026272" lon="12.5916197"><ele>1604.6000000000001</ele><time>2026-05-01T15:32:11.997Z</time></trkpt><trkpt lat="46.6026306" lon="12.5914362"><ele>1603.0</ele><time>2026-05-01T15:32:14.002Z</time></trkpt><trkpt lat="46.602648" lon="12.591318"><ele>1603.0000000000002</ele><time>2026-05-01T15:32:15.008Z</time></trkpt><trkpt lat="46.6026714" lon="12.5911953"><ele>1603.0</ele><time>2026-05-01T15:32:16Z</time></trkpt><trkpt lat="46.6026982" lon="12.5910949"><ele>1603.0</ele><time>2026-05-01T15:32:17.009Z</time></trkpt><trkpt lat="46.6027032" lon="12.5910006"><ele>1603.0</ele><time>2026-05-01T15:32:17.999Z</time></trkpt><trkpt lat="46.602691" lon="12.5908462"><ele>1603.0000000000002</ele><time>2026-05-01T15:32:20.005Z</time></trkpt><trkpt lat="46.6026116" lon="12.5907955"><ele>1603.0</ele><time>2026-05-01T15:32:22.009Z</time></trkpt><trkpt lat="46.6025421" lon="12.5909184"><ele>1603.0000000000002</ele><time>2026-05-01T15:32:23.998Z</time></trkpt><trkpt lat="46.6025186" lon="12.5910285"><ele>1603.0</ele><time>2026-05-01T15:32:25.003Z</time></trkpt><trkpt lat="46.6024989" lon="12.5911473"><ele>1603.0</ele><time>2026-05-01T15:32:26.001Z</time></trkpt><trkpt lat="46.6024704" lon="12.5912485"><ele>1603.0</ele><time>2026-05-01T15:32:27.011Z</time></trkpt><trkpt lat="46.6024354" lon="12.5913283"><ele>1603.0000000000002</ele><time>2026-05-01T15:32:27.997Z</time></trkpt><trkpt lat="46.6023446" lon="12.5914008"><ele>1603.0</ele><time>2026-05-01T15:32:30.001Z</time></trkpt><trkpt lat="46.602259" lon="12.5913542"><ele>1603.0</ele><time>2026-05-01T15:32:31.998Z</time></trkpt><trkpt lat="46.6021652" lon="12.5913771"><ele>1603.0</ele><time>2026-05-01T15:32:35.997Z</time></trkpt><trkpt lat="46.6020595" lon="12.5914369"><ele>1603.0</ele><time>2026-05-01T15:32:38.002Z</time></trkpt><trkpt lat="46.6019843" lon="12.5914907"><ele>1603.0</ele><time>2026-05-01T15:32:38.996Z</time></trkpt><trkpt lat="46.6019041" lon="12.5915359"><ele>1603.0</ele><time>2026-05-01T15:32:40.002Z</time></trkpt><trkpt lat="46.6018264" lon="12.5915861"><ele>1600.2857142857142</ele><time>2026-05-01T15:32:41.001Z</time></trkpt><trkpt lat="46.601751" lon="12.591639"><ele>1597.5714285714284</ele><time>2026-05-01T15:32:42.008Z</time></trkpt><trkpt lat="46.6016825" lon="12.5916825"><ele>1594.857142857143</ele><time>2026-05-01T15:32:42.996Z</time></trkpt><trkpt lat="46.6016094" lon="12.5917171"><ele>1592.142857142857</ele><time>2026-05-01T15:32:44Z</time></trkpt><trkpt lat="46.6015363" lon="12.5917345"><ele>1589.4285714285713</ele><time>2026-05-01T15:32:44.997Z</time></trkpt><trkpt lat="46.6014682" lon="12.5917631"><ele>1586.7142857142858</ele><time>2026-05-01T15:32:46.007Z</time></trkpt><trkpt lat="46.601406" lon="12.5917994"><ele>1584.0</ele><time>2026-05-01T15:32:47.001Z</time></trkpt><trkpt lat="46.6013421" lon="12.5918316"><ele>1584.0</ele><time>2026-05-01T15:32:48.006Z</time></trkpt><trkpt lat="46.6012132" lon="12.5918338"><ele>1584.0</ele><time>2026-05-01T15:32:49.999Z</time></trkpt><trkpt lat="46.6011421" lon="12.5918106"><ele>1584.0</ele><time>2026-05-01T15:32:51.003Z</time></trkpt><trkpt lat="46.6010591" lon="12.5917896"><ele>1584.0</ele><time>2026-05-01T15:32:51.995Z</time></trkpt><trkpt lat="46.6009765" lon="12.5917755"><ele>1584.0</ele><time>2026-05-01T15:32:53.005Z</time></trkpt><trkpt lat="46.6009088" lon="12.5917357"><ele>1584.0</ele><time>2026-05-01T15:32:54.004Z</time></trkpt><trkpt lat="46.6008463" lon="12.591698"><ele>1582.2</ele><time>2026-05-01T15:32:55.002Z</time></trkpt><trkpt lat="46.6007415" lon="12.5916114"><ele>1580.4</ele><time>2026-05-01T15:32:56.999Z</time></trkpt><trkpt lat="46.6006641" lon="12.5915148"><ele>1578.6</ele><time>2026-05-01T15:32:58.996Z</time></trkpt><trkpt lat="46.6006066" lon="12.5913923"><ele>1576.8</ele><time>2026-05-01T15:33:01Z</time></trkpt><trkpt lat="46.6005286" lon="12.5912772"><ele>1575.0</ele><time>2026-05-01T15:33:02.992Z</time></trkpt><trkpt lat="46.6004755" lon="12.5912256"><ele>1573.0</ele><time>2026-05-01T15:33:03.996Z</time></trkpt><trkpt lat="46.6004187" lon="12.5911699"><ele>1571.0</ele><time>2026-05-01T15:33:05.007Z</time></trkpt><trkpt lat="46.6003653" lon="12.5911126"><ele>1569.0</ele><time>2026-05-01T15:33:05.999Z</time></trkpt><trkpt lat="46.6003116" lon="12.5910571"><ele>1567.0</ele><time>2026-05-01T15:33:06.999Z</time></trkpt><trkpt lat="46.6002528" lon="12.5910175"><ele>1565.0</ele><time>2026-05-01T15:33:08.004Z</time></trkpt><trkpt lat="46.6001404" lon="12.5909517"><ele>1563.0</ele><time>2026-05-01T15:33:10.004Z</time></trkpt><trkpt lat="46.6000205" lon="12.5908844"><ele>1563.0</ele><time>2026-05-01T15:33:12.003Z</time></trkpt><trkpt lat="46.5999554" lon="12.5908647"><ele>1563.0</ele><time>2026-05-01T15:33:13.004Z</time></trkpt><trkpt lat="46.5998922" lon="12.5908576"><ele>1563.0</ele><time>2026-05-01T15:33:13.998Z</time></trkpt><trkpt lat="46.5998293" lon="12.5908437"><ele>1563.0</ele><time>2026-05-01T15:33:15.013Z</time></trkpt><trkpt lat="46.5997607" lon="12.5908293"><ele>1563.0</ele><time>2026-05-01T15:33:15.998Z</time></trkpt><trkpt lat="46.5996902" lon="12.5908169"><ele>1563.0</ele><time>2026-05-01T15:33:17.003Z</time></trkpt><trkpt lat="46.5996259" lon="12.590795"><ele>1563.0</ele><time>2026-05-01T15:33:18.005Z</time></trkpt><trkpt lat="46.5995627" lon="12.5907649"><ele>1563.0</ele><time>2026-05-01T15:33:19Z</time></trkpt><trkpt lat="46.5995073" lon="12.5907201"><ele>1563.0</ele><time>2026-05-01T15:33:20.006Z</time></trkpt><trkpt lat="46.5994104" lon="12.5905997"><ele>1563.0</ele><time>2026-05-01T15:33:22.003Z</time></trkpt><trkpt lat="46.5993618" lon="12.5905182"><ele>1563.0</ele><time>2026-05-01T15:33:23.001Z</time></trkpt><trkpt lat="46.5993227" lon="12.5904378"><ele>1563.0</ele><time>2026-05-01T15:33:24.008Z</time></trkpt><trkpt lat="46.5992823" lon="12.590347"><ele>1563.0</ele><time>2026-05-01T15:33:25.004Z</time></trkpt><trkpt lat="46.5992449" lon="12.5902563"><ele>1559.8333333333333</ele><time>2026-05-01T15:33:26.01Z</time></trkpt><trkpt lat="46.5992102" lon="12.5901649"><ele>1556.6666666666665</ele><time>2026-05-01T15:33:27.006Z</time></trkpt><trkpt lat="46.5991751" lon="12.590073"><ele>1553.5</ele><time>2026-05-01T15:33:28.01Z</time></trkpt><trkpt lat="46.599138" lon="12.5899952"><ele>1550.3333333333333</ele><time>2026-05-01T15:33:29.003Z</time></trkpt><trkpt lat="46.5990921" lon="12.5899288"><ele>1547.1666666666665</ele><time>2026-05-01T15:33:30.001Z</time></trkpt><trkpt lat="46.5989992" lon="12.5898453"><ele>1544.0</ele><time>2026-05-01T15:33:31.998Z</time></trkpt><trkpt lat="46.5989121" lon="12.5898042"><ele>1544.0</ele><time>2026-05-01T15:33:34.006Z</time></trkpt><trkpt lat="46.5988293" lon="12.5898675"><ele>1544.0</ele><time>2026-05-01T15:33:37.996Z</time></trkpt><trkpt lat="46.598749" lon="12.5900232"><ele>1544.0</ele><time>2026-05-01T15:33:40.001Z</time></trkpt><trkpt lat="46.5986945" lon="12.5901227"><ele>1544.0</ele><time>2026-05-01T15:33:41.007Z</time></trkpt><trkpt lat="46.5986318" lon="12.5902185"><ele>1544.0</ele><time>2026-05-01T15:33:42.002Z</time></trkpt><trkpt lat="46.598569" lon="12.5903167"><ele>1542.6666666666665</ele><time>2026-05-01T15:33:43.004Z</time></trkpt><trkpt lat="46.5985074" lon="12.5904184"><ele>1541.3333333333333</ele><time>2026-05-01T15:33:44.002Z</time></trkpt><trkpt lat="46.5984504" lon="12.590517"><ele>1540.0</ele><time>2026-05-01T15:33:44.997Z</time></trkpt><trkpt lat="46.5983956" lon="12.5906114"><ele>1538.6666666666665</ele><time>2026-05-01T15:33:46.007Z</time></trkpt><trkpt lat="46.5983436" lon="12.5907064"><ele>1537.3333333333333</ele><time>2026-05-01T15:33:47.002Z</time></trkpt><trkpt lat="46.5982859" lon="12.5907964"><ele>1536.0</ele><time>2026-05-01T15:33:48.014Z</time></trkpt><trkpt lat="46.5982363" lon="12.5908772"><ele>1536.0</ele><time>2026-05-01T15:33:49.001Z</time></trkpt><trkpt lat="46.5981836" lon="12.5909469"><ele>1536.0</ele><time>2026-05-01T15:33:49.996Z</time></trkpt><trkpt lat="46.5981298" lon="12.5909955"><ele>1536.0</ele><time>2026-05-01T15:33:51Z</time></trkpt><trkpt lat="46.5980137" lon="12.591024"><ele>1536.0</ele><time>2026-05-01T15:33:53.017Z</time></trkpt><trkpt lat="46.5978997" lon="12.5910147"><ele>1536.0</ele><time>2026-05-01T15:33:55.002Z</time></trkpt><trkpt lat="46.597834" lon="12.5910214"><ele>1536.0</ele><time>2026-05-01T15:33:56.008Z</time></trkpt><trkpt lat="46.5977779" lon="12.5910663"><ele>1538.1666666666667</ele><time>2026-05-01T15:33:57.006Z</time></trkpt><trkpt lat="46.5977293" lon="12.5911317"><ele>1540.3333333333335</ele><time>2026-05-01T15:33:58.008Z</time></trkpt><trkpt lat="46.5976762" lon="12.591187"><ele>1542.5</ele><time>2026-05-01T15:33:59Z</time></trkpt><trkpt lat="46.5975889" lon="12.5912757"><ele>1544.6666666666667</ele><time>2026-05-01T15:34:01.004Z</time></trkpt><trkpt lat="46.5974978" lon="12.5913301"><ele>1546.8333333333335</ele><time>2026-05-01T15:34:02.993Z</time></trkpt><trkpt lat="46.597435" lon="12.5913537"><ele>1549.0</ele><time>2026-05-01T15:34:03.996Z</time></trkpt><trkpt lat="46.5973589" lon="12.5913752"><ele>1544.3333333333335</ele><time>2026-05-01T15:34:04.995Z</time></trkpt><trkpt lat="46.5972809" lon="12.5914063"><ele>1539.6666666666667</ele><time>2026-05-01T15:34:06.01Z</time></trkpt><trkpt lat="46.5972042" lon="12.591444"><ele>1535.0</ele><time>2026-05-01T15:34:07.001Z</time></trkpt><trkpt lat="46.5971365" lon="12.5914934"><ele>1530.3333333333335</ele><time>2026-05-01T15:34:07.992Z</time></trkpt><trkpt lat="46.5970854" lon="12.5915499"><ele>1525.6666666666667</ele><time>2026-05-01T15:34:09.003Z</time></trkpt><trkpt lat="46.5970315" lon="12.5915988"><ele>1521.0</ele><time>2026-05-01T15:34:10.002Z</time></trkpt><trkpt lat="46.5969226" lon="12.5916845"><ele>1520.5714285714287</ele><time>2026-05-01T15:34:12.005Z</time></trkpt><trkpt lat="46.5968661" lon="12.5917347"><ele>1520.142857142857</ele><time>2026-05-01T15:34:12.998Z</time></trkpt><trkpt lat="46.5968093" lon="12.5917799"><ele>1519.7142857142858</ele><time>2026-05-01T15:34:14.009Z</time></trkpt><trkpt lat="46.5967466" lon="12.591814"><ele>1519.2857142857142</ele><time>2026-05-01T15:34:14.998Z</time></trkpt><trkpt lat="46.5966689" lon="12.5918364"><ele>1518.8571428571427</ele><time>2026-05-01T15:34:15.998Z</time></trkpt><trkpt lat="46.5965956" lon="12.5918521"><ele>1518.4285714285713</ele><time>2026-05-01T15:34:17.008Z</time></trkpt><trkpt lat="46.5965275" lon="12.5918786"><ele>1518.0</ele><time>2026-05-01T15:34:17.997Z</time></trkpt><trkpt lat="46.5964564" lon="12.5918989"><ele>1518.0</ele><time>2026-05-01T15:34:18.999Z</time></trkpt><trkpt lat="46.5963915" lon="12.5919003"><ele>1518.0</ele><time>2026-05-01T15:34:20Z</time></trkpt><trkpt lat="46.5962785" lon="12.5918778"><ele>1518.0</ele><time>2026-05-01T15:34:21.998Z</time></trkpt><trkpt lat="46.5961787" lon="12.5918932"><ele>1518.0</ele><time>2026-05-01T15:34:24.003Z</time></trkpt><trkpt lat="46.596091" lon="12.5919391"><ele>1518.0</ele><time>2026-05-01T15:34:26.002Z</time></trkpt><trkpt lat="46.5959904" lon="12.5919234"><ele>1514.0</ele><time>2026-05-01T15:34:27.993Z</time></trkpt><trkpt lat="46.5958882" lon="12.5918159"><ele>1510.0</ele><time>2026-05-01T15:34:30.002Z</time></trkpt><trkpt lat="46.5958425" lon="12.5917394"><ele>1506.0</ele><time>2026-05-01T15:34:31.001Z</time></trkpt><trkpt lat="46.595795" lon="12.5916549"><ele>1502.0</ele><time>2026-05-01T15:34:31.993Z</time></trkpt><trkpt lat="46.5957633" lon="12.5915728"><ele>1498.0</ele><time>2026-05-01T15:34:33Z</time></trkpt><trkpt lat="46.5957358" lon="12.5914709"><ele>1494.0</ele><time>2026-05-01T15:34:34.002Z</time></trkpt><trkpt lat="46.5957229" lon="12.5913596"><ele>1493.9999999999998</ele><time>2026-05-01T15:34:34.998Z</time></trkpt><trkpt lat="46.5957059" lon="12.5912349"><ele>1494.0</ele><time>2026-05-01T15:34:36.007Z</time></trkpt><trkpt lat="46.5956782" lon="12.5911437"><ele>1494.0</ele><time>2026-05-01T15:34:36.998Z</time></trkpt><trkpt lat="46.595633" lon="12.5910735"><ele>1494.0</ele><time>2026-05-01T15:34:38.002Z</time></trkpt><trkpt lat="46.5955847" lon="12.5909994"><ele>1494.0</ele><time>2026-05-01T15:34:38.997Z</time></trkpt><trkpt lat="46.5955417" lon="12.5909152"><ele>1493.9999999999998</ele><time>2026-05-01T15:34:39.999Z</time></trkpt><trkpt lat="46.5955067" lon="12.5908298"><ele>1494.0</ele><time>2026-05-01T15:34:40.998Z</time></trkpt><trkpt lat="46.5954674" lon="12.5907468"><ele>1495.142857142857</ele><time>2026-05-01T15:34:42.001Z</time></trkpt><trkpt lat="46.5954218" lon="12.5906526"><ele>1496.2857142857142</ele><time>2026-05-01T15:34:43.007Z</time></trkpt><trkpt lat="46.5953683" lon="12.5905706"><ele>1497.4285714285716</ele><time>2026-05-01T15:34:44.002Z</time></trkpt><trkpt lat="46.59531" lon="12.5904918"><ele>1498.5714285714284</ele><time>2026-05-01T15:34:45.005Z</time></trkpt><trkpt lat="46.5952519" lon="12.5904243"><ele>1499.7142857142858</ele><time>2026-05-01T15:34:46.002Z</time></trkpt><trkpt lat="46.5951995" lon="12.590359"><ele>1500.857142857143</ele><time>2026-05-01T15:34:46.997Z</time></trkpt><trkpt lat="46.5951461" lon="12.5902983"><ele>1502.0</ele><time>2026-05-01T15:34:48Z</time></trkpt><trkpt lat="46.5950922" lon="12.5902442"><ele>1502.0</ele><time>2026-05-01T15:34:49.002Z</time></trkpt><trkpt lat="46.5950002" lon="12.5901766"><ele>1502.0</ele><time>2026-05-01T15:34:51.004Z</time></trkpt><trkpt lat="46.5949091" lon="12.5902421"><ele>1502.0</ele><time>2026-05-01T15:34:53.007Z</time></trkpt><trkpt lat="46.5948614" lon="12.590308"><ele>1502.0</ele><time>2026-05-01T15:34:54Z</time></trkpt><trkpt lat="46.5948117" lon="12.5903871"><ele>1502.0</ele><time>2026-05-01T15:34:55.003Z</time></trkpt><trkpt lat="46.5947605" lon="12.5904642"><ele>1502.0</ele><time>2026-05-01T15:34:56.006Z</time></trkpt><trkpt lat="46.5947138" lon="12.5905343"><ele>1499.2857142857144</ele><time>2026-05-01T15:34:57.004Z</time></trkpt><trkpt lat="46.5946616" lon="12.5905927"><ele>1496.5714285714287</ele><time>2026-05-01T15:34:58.003Z</time></trkpt><trkpt lat="46.5945979" lon="12.5906391"><ele>1493.857142857143</ele><time>2026-05-01T15:34:59.008Z</time></trkpt><trkpt lat="46.5945332" lon="12.5906831"><ele>1491.1428571428573</ele><time>2026-05-01T15:34:59.996Z</time></trkpt><trkpt lat="46.5944639" lon="12.5907246"><ele>1488.4285714285713</ele><time>2026-05-01T15:35:00.999Z</time></trkpt><trkpt lat="46.5943917" lon="12.5907662"><ele>1485.7142857142858</ele><time>2026-05-01T15:35:01.997Z</time></trkpt><trkpt lat="46.5943161" lon="12.5908169"><ele>1483.0</ele><time>2026-05-01T15:35:02.997Z</time></trkpt><trkpt lat="46.5942418" lon="12.5908646"><ele>1483.0</ele><time>2026-05-01T15:35:03.993Z</time></trkpt><trkpt lat="46.5941667" lon="12.5909127"><ele>1483.0</ele><time>2026-05-01T15:35:05Z</time></trkpt><trkpt lat="46.5940946" lon="12.590982"><ele>1483.0</ele><time>2026-05-01T15:35:05.997Z</time></trkpt><trkpt lat="46.59404" lon="12.5910666"><ele>1483.0</ele><time>2026-05-01T15:35:06.999Z</time></trkpt><trkpt lat="46.5939955" lon="12.5911582"><ele>1483.0</ele><time>2026-05-01T15:35:08.008Z</time></trkpt><trkpt lat="46.5939446" lon="12.5912269"><ele>1483.0</ele><time>2026-05-01T15:35:09.004Z</time></trkpt><trkpt lat="46.593878" lon="12.5912818"><ele>1477.1666666666665</ele><time>2026-05-01T15:35:09.995Z</time></trkpt><trkpt lat="46.5938025" lon="12.5913286"><ele>1471.3333333333333</ele><time>2026-05-01T15:35:10.998Z</time></trkpt><trkpt lat="46.5937271" lon="12.5913759"><ele>1465.5</ele><time>2026-05-01T15:35:12.002Z</time></trkpt><trkpt lat="46.5936589" lon="12.5914204"><ele>1459.6666666666667</ele><time>2026-05-01T15:35:13.005Z</time></trkpt><trkpt lat="46.5935971" lon="12.5914625"><ele>1453.8333333333335</ele><time>2026-05-01T15:35:13.999Z</time></trkpt><trkpt lat="46.5935367" lon="12.5914891"><ele>1448.0</ele><time>2026-05-01T15:35:15.01Z</time></trkpt><trkpt lat="46.593429" lon="12.5915073"><ele>1448.0</ele><time>2026-05-01T15:35:16.995Z</time></trkpt><trkpt lat="46.5933637" lon="12.5915047"><ele>1448.0</ele><time>2026-05-01T15:35:18.004Z</time></trkpt><trkpt lat="46.5932529" lon="12.5914649"><ele>1448.0</ele><time>2026-05-01T15:35:20.008Z</time></trkpt><trkpt lat="46.5931726" lon="12.5913795"><ele>1448.0</ele><time>2026-05-01T15:35:22.005Z</time></trkpt><trkpt lat="46.5930871" lon="12.5913416"><ele>1448.0</ele><time>2026-05-01T15:35:23.997Z</time></trkpt><trkpt lat="46.5929927" lon="12.5914145"><ele>1448.0</ele><time>2026-05-01T15:35:26.009Z</time></trkpt><trkpt lat="46.5929489" lon="12.5914823"><ele>1448.0</ele><time>2026-05-01T15:35:26.999Z</time></trkpt><trkpt lat="46.5928996" lon="12.5915524"><ele>1448.0</ele><time>2026-05-01T15:35:28.006Z</time></trkpt><trkpt lat="46.5928307" lon="12.591644"><ele>1448.0</ele><time>2026-05-01T15:35:30.002Z</time></trkpt><trkpt lat="46.5927543" lon="12.59167"><ele>1448.0</ele><time>2026-05-01T15:35:33.002Z</time></trkpt><trkpt lat="46.5927011" lon="12.5916125"><ele>1448.0</ele><time>2026-05-01T15:35:35Z</time></trkpt><trkpt lat="46.5926465" lon="12.5914973"><ele>1445.8000000000002</ele><time>2026-05-01T15:35:36.993Z</time></trkpt><trkpt lat="46.5925878" lon="12.5913546"><ele>1443.6</ele><time>2026-05-01T15:35:38.998Z</time></trkpt><trkpt lat="46.5924935" lon="12.5912612"><ele>1441.4</ele><time>2026-05-01T15:35:41.01Z</time></trkpt><trkpt lat="46.5923553" lon="12.5912678"><ele>1439.1999999999998</ele><time>2026-05-01T15:35:43.001Z</time></trkpt><trkpt lat="46.592284" lon="12.5913048"><ele>1437.0</ele><time>2026-05-01T15:35:43.998Z</time></trkpt><trkpt lat="46.5922093" lon="12.5913576"><ele>1437.0</ele><time>2026-05-01T15:35:44.998Z</time></trkpt><trkpt lat="46.592127" lon="12.5914244"><ele>1437.0</ele><time>2026-05-01T15:35:46.002Z</time></trkpt><trkpt lat="46.5920418" lon="12.5914902"><ele>1437.0</ele><time>2026-05-01T15:35:46.997Z</time></trkpt><trkpt lat="46.591961" lon="12.5915489"><ele>1437.0</ele><time>2026-05-01T15:35:48.003Z</time></trkpt><trkpt lat="46.5918973" lon="12.5915995"><ele>1437.0</ele><time>2026-05-01T15:35:49.001Z</time></trkpt><trkpt lat="46.5918075" lon="12.5917154"><ele>1437.8333333333333</ele><time>2026-05-01T15:35:51.005Z</time></trkpt><trkpt lat="46.5917606" lon="12.5917816"><ele>1438.6666666666667</ele><time>2026-05-01T15:35:52.008Z</time></trkpt><trkpt lat="46.5917218" lon="12.5918544"><ele>1439.5</ele><time>2026-05-01T15:35:52.999Z</time></trkpt><trkpt lat="46.5916474" lon="12.5919783"><ele>1440.3333333333335</ele><time>2026-05-01T15:35:55.003Z</time></trkpt><trkpt lat="46.5915608" lon="12.5920592"><ele>1441.1666666666667</ele><time>2026-05-01T15:35:56.997Z</time></trkpt><trkpt lat="46.5914972" lon="12.5921004"><ele>1442.0</ele><time>2026-05-01T15:35:57.999Z</time></trkpt><trkpt lat="46.5914237" lon="12.5921409"><ele>1435.3333333333335</ele><time>2026-05-01T15:35:59.004Z</time></trkpt><trkpt lat="46.5913531" lon="12.592175"><ele>1428.6666666666667</ele><time>2026-05-01T15:36:00.001Z</time></trkpt><trkpt lat="46.5912882" lon="12.5922009"><ele>1422.0</ele><time>2026-05-01T15:36:01.001Z</time></trkpt><trkpt lat="46.5911987" lon="12.5922045"><ele>1415.3333333333333</ele><time>2026-05-01T15:36:03.008Z</time></trkpt><trkpt lat="46.5911129" lon="12.5921698"><ele>1408.6666666666665</ele><time>2026-05-01T15:36:05.006Z</time></trkpt><trkpt lat="46.5910578" lon="12.5921175"><ele>1402.0</ele><time>2026-05-01T15:36:06.009Z</time></trkpt><trkpt lat="46.5909892" lon="12.5920553"><ele>1403.8333333333333</ele><time>2026-05-01T15:36:07.004Z</time></trkpt><trkpt lat="46.5909226" lon="12.5920015"><ele>1405.6666666666665</ele><time>2026-05-01T15:36:08.006Z</time></trkpt><trkpt lat="46.5908664" lon="12.5919436"><ele>1407.5</ele><time>2026-05-01T15:36:09.006Z</time></trkpt><trkpt lat="46.5908006" lon="12.5918756"><ele>1409.3333333333333</ele><time>2026-05-01T15:36:09.998Z</time></trkpt><trkpt lat="46.5907326" lon="12.5918064"><ele>1411.1666666666667</ele><time>2026-05-01T15:36:10.999Z</time></trkpt><trkpt lat="46.5906661" lon="12.5917378"><ele>1413.0</ele><time>2026-05-01T15:36:12.007Z</time></trkpt><trkpt lat="46.5905978" lon="12.5916645"><ele>1413.0</ele><time>2026-05-01T15:36:13.001Z</time></trkpt><trkpt lat="46.5905378" lon="12.5915912"><ele>1413.0</ele><time>2026-05-01T15:36:13.998Z</time></trkpt><trkpt lat="46.5904855" lon="12.5915114"><ele>1413.0</ele><time>2026-05-01T15:36:15.004Z</time></trkpt><trkpt lat="46.5904378" lon="12.5914431"><ele>1413.0</ele><time>2026-05-01T15:36:15.997Z</time></trkpt><trkpt lat="46.5903812" lon="12.5913855"><ele>1413.0</ele><time>2026-05-01T15:36:17Z</time></trkpt><trkpt lat="46.5903234" lon="12.5913348"><ele>1413.0</ele><time>2026-05-01T15:36:18.004Z</time></trkpt><trkpt lat="46.5902533" lon="12.5912882"><ele>1413.0</ele><time>2026-05-01T15:36:18.998Z</time></trkpt><trkpt lat="46.5901757" lon="12.5912493"><ele>1410.3333333333333</ele><time>2026-05-01T15:36:20.009Z</time></trkpt><trkpt lat="46.5900923" lon="12.5912341"><ele>1407.6666666666667</ele><time>2026-05-01T15:36:20.999Z</time></trkpt><trkpt lat="46.5900111" lon="12.5912297"><ele>1405.0</ele><time>2026-05-01T15:36:22Z</time></trkpt><trkpt lat="46.589935" lon="12.5912398"><ele>1402.3333333333335</ele><time>2026-05-01T15:36:22.994Z</time></trkpt><trkpt lat="46.5898595" lon="12.5912317"><ele>1399.6666666666667</ele><time>2026-05-01T15:36:24.008Z</time></trkpt><trkpt lat="46.5897869" lon="12.5912103"><ele>1397.0</ele><time>2026-05-01T15:36:25.009Z</time></trkpt><trkpt lat="46.5897009" lon="12.5911936"><ele>1397.0</ele><time>2026-05-01T15:36:25.997Z</time></trkpt><trkpt lat="46.5896074" lon="12.5911799"><ele>1397.0</ele><time>2026-05-01T15:36:27.007Z</time></trkpt><trkpt lat="46.5895062" lon="12.5911771"><ele>1397.0</ele><time>2026-05-01T15:36:27.997Z</time></trkpt><trkpt lat="46.5894041" lon="12.591178"><ele>1397.0</ele><time>2026-05-01T15:36:28.998Z</time></trkpt><trkpt lat="46.5893035" lon="12.5911707"><ele>1397.0</ele><time>2026-05-01T15:36:29.997Z</time></trkpt><trkpt lat="46.5892061" lon="12.5911483"><ele>1397.6666666666667</ele><time>2026-05-01T15:36:31.004Z</time></trkpt><trkpt lat="46.5891122" lon="12.5911333"><ele>1398.3333333333335</ele><time>2026-05-01T15:36:31.999Z</time></trkpt><trkpt lat="46.5890286" lon="12.5911336"><ele>1399.0</ele><time>2026-05-01T15:36:33.005Z</time></trkpt><trkpt lat="46.5889356" lon="12.5911463"><ele>1399.6666666666667</ele><time>2026-05-01T15:36:34.004Z</time></trkpt><trkpt lat="46.588849" lon="12.5911733"><ele>1400.3333333333333</ele><time>2026-05-01T15:36:34.998Z</time></trkpt><trkpt lat="46.5887733" lon="12.5911992"><ele>1401.0</ele><time>2026-05-01T15:36:36.001Z</time></trkpt><trkpt lat="46.5887047" lon="12.591204"><ele>1396.4</ele><time>2026-05-01T15:36:36.995Z</time></trkpt><trkpt lat="46.5885996" lon="12.5912779"><ele>1391.8</ele><time>2026-05-01T15:36:39.002Z</time></trkpt><trkpt lat="46.5885341" lon="12.5913995"><ele>1387.2</ele><time>2026-05-01T15:36:40.997Z</time></trkpt><trkpt lat="46.5885016" lon="12.5915555"><ele>1382.6000000000001</ele><time>2026-05-01T15:36:43.001Z</time></trkpt><trkpt lat="46.5884668" lon="12.5916502"><ele>1378.0</ele><time>2026-05-01T15:36:43.997Z</time></trkpt><trkpt lat="46.5884129" lon="12.5917337"><ele>1378.0</ele><time>2026-05-01T15:36:45.006Z</time></trkpt><trkpt lat="46.5883534" lon="12.5917966"><ele>1378.0</ele><time>2026-05-01T15:36:46Z</time></trkpt><trkpt lat="46.5882908" lon="12.5918491"><ele>1378.0</ele><time>2026-05-01T15:36:47Z</time></trkpt><trkpt lat="46.5881737" lon="12.5918981"><ele>1378.0</ele><time>2026-05-01T15:36:49.002Z</time></trkpt><trkpt lat="46.5880457" lon="12.5919182"><ele>1378.0</ele><time>2026-05-01T15:36:51.003Z</time></trkpt><trkpt lat="46.5879482" lon="12.5919995"><ele>1372.5</ele><time>2026-05-01T15:36:53.001Z</time></trkpt><trkpt lat="46.5878436" lon="12.592082"><ele>1367.0</ele><time>2026-05-01T15:36:55.006Z</time></trkpt><trkpt lat="46.5877378" lon="12.59217"><ele>1361.5</ele><time>2026-05-01T15:36:57.011Z</time></trkpt><trkpt lat="46.5876392" lon="12.5922538"><ele>1356.0</ele><time>2026-05-01T15:36:59.015Z</time></trkpt><trkpt lat="46.5875149" lon="12.5923427"><ele>1356.0</ele><time>2026-05-01T15:37:01Z</time></trkpt><trkpt lat="46.5874444" lon="12.5923987"><ele>1356.0</ele><time>2026-05-01T15:37:02Z</time></trkpt><trkpt lat="46.5873751" lon="12.5924227"><ele>1356.0</ele><time>2026-05-01T15:37:02.998Z</time></trkpt><trkpt lat="46.5873098" lon="12.5924511"><ele>1356.0</ele><time>2026-05-01T15:37:04.001Z</time></trkpt><trkpt lat="46.5872461" lon="12.5924663"><ele>1356.0</ele><time>2026-05-01T15:37:05.002Z</time></trkpt><trkpt lat="46.5871815" lon="12.5924563"><ele>1356.0</ele><time>2026-05-01T15:37:06Z</time></trkpt><trkpt lat="46.587064" lon="12.5923998"><ele>1354.8</ele><time>2026-05-01T15:37:08.011Z</time></trkpt><trkpt lat="46.5869649" lon="12.5923032"><ele>1353.6</ele><time>2026-05-01T15:37:10.004Z</time></trkpt><trkpt lat="46.5868521" lon="12.5922532"><ele>1352.4</ele><time>2026-05-01T15:37:12.006Z</time></trkpt><trkpt lat="46.5867799" lon="12.5922595"><ele>1351.2</ele><time>2026-05-01T15:37:13Z</time></trkpt><trkpt lat="46.5867091" lon="12.5922768"><ele>1350.0</ele><time>2026-05-01T15:37:14.007Z</time></trkpt><trkpt lat="46.5866371" lon="12.5922853"><ele>1350.0</ele><time>2026-05-01T15:37:15.004Z</time></trkpt><trkpt lat="46.5865646" lon="12.5923073"><ele>1350.0</ele><time>2026-05-01T15:37:16Z</time></trkpt><trkpt lat="46.5865014" lon="12.592332"><ele>1350.0</ele><time>2026-05-01T15:37:17.002Z</time></trkpt><trkpt lat="46.5864438" lon="12.5923812"><ele>1350.0</ele><time>2026-05-01T15:37:17.998Z</time></trkpt><trkpt lat="46.5863773" lon="12.5924518"><ele>1350.0</ele><time>2026-05-01T15:37:19.006Z</time></trkpt><trkpt lat="46.5863187" lon="12.5925219"><ele>1350.0</ele><time>2026-05-01T15:37:20.001Z</time></trkpt><trkpt lat="46.5862621" lon="12.5925951"><ele>1350.0</ele><time>2026-05-01T15:37:21.006Z</time></trkpt><trkpt lat="46.5862043" lon="12.5926666"><ele>1349.8</ele><time>2026-05-01T15:37:22.003Z</time></trkpt><trkpt lat="46.5861429" lon="12.5927143"><ele>1349.6</ele><time>2026-05-01T15:37:23.002Z</time></trkpt><trkpt lat="46.5860348" lon="12.5927397"><ele>1349.4</ele><time>2026-05-01T15:37:25Z</time></trkpt><trkpt lat="46.5859183" lon="12.5927175"><ele>1349.2</ele><time>2026-05-01T15:37:26.998Z</time></trkpt><trkpt lat="46.5858431" lon="12.5927059"><ele>1349.0</ele><time>2026-05-01T15:37:28.003Z</time></trkpt><trkpt lat="46.5857603" lon="12.5927192"><ele>1349.0</ele><time>2026-05-01T15:37:28.999Z</time></trkpt><trkpt lat="46.5856753" lon="12.5927439"><ele>1349.0</ele><time>2026-05-01T15:37:30Z</time></trkpt><trkpt lat="46.5855913" lon="12.5927719"><ele>1349.0</ele><time>2026-05-01T15:37:31.007Z</time></trkpt><trkpt lat="46.5855042" lon="12.5927863"><ele>1349.0</ele><time>2026-05-01T15:37:31.995Z</time></trkpt><trkpt lat="46.5854143" lon="12.5928072"><ele>1349.0</ele><time>2026-05-01T15:37:32.993Z</time></trkpt><trkpt lat="46.5853246" lon="12.5928256"><ele>1349.0</ele><time>2026-05-01T15:37:33.997Z</time></trkpt><trkpt lat="46.5852401" lon="12.5928432"><ele>1342.5</ele><time>2026-05-01T15:37:34.997Z</time></trkpt><trkpt lat="46.5851532" lon="12.5928677"><ele>1336.0</ele><time>2026-05-01T15:37:35.996Z</time></trkpt><trkpt lat="46.5850713" lon="12.5928862"><ele>1329.5</ele><time>2026-05-01T15:37:36.994Z</time></trkpt><trkpt lat="46.5849959" lon="12.5929072"><ele>1323.0</ele><time>2026-05-01T15:37:38.001Z</time></trkpt><trkpt lat="46.5849317" lon="12.5929297"><ele>1316.5</ele><time>2026-05-01T15:37:39.002Z</time></trkpt><trkpt lat="46.584829" lon="12.5929869"><ele>1310.0</ele><time>2026-05-01T15:37:41.008Z</time></trkpt><trkpt lat="46.5847544" lon="12.5931281"><ele>1310.0</ele><time>2026-05-01T15:37:43.004Z</time></trkpt><trkpt lat="46.5847139" lon="12.5932015"><ele>1310.0</ele><time>2026-05-01T15:37:44.003Z</time></trkpt><trkpt lat="46.5846786" lon="12.5932804"><ele>1310.0</ele><time>2026-05-01T15:37:45.01Z</time></trkpt><trkpt lat="46.5846135" lon="12.5934051"><ele>1310.0</ele><time>2026-05-01T15:37:47.002Z</time></trkpt><trkpt lat="46.5845292" lon="12.5935223"><ele>1310.0</ele><time>2026-05-01T15:37:49Z</time></trkpt><trkpt lat="46.5844086" lon="12.5936183"><ele>1306.6</ele><time>2026-05-01T15:37:50.998Z</time></trkpt><trkpt lat="46.5843536" lon="12.593716"><ele>1303.2</ele><time>2026-05-01T15:37:51.998Z</time></trkpt><trkpt lat="46.5842904" lon="12.5938223"><ele>1299.8000000000002</ele><time>2026-05-01T15:37:52.998Z</time></trkpt><trkpt lat="46.5842258" lon="12.5939452"><ele>1296.4</ele><time>2026-05-01T15:37:54.002Z</time></trkpt><trkpt lat="46.5841514" lon="12.5940595"><ele>1293.0</ele><time>2026-05-01T15:37:55.017Z</time></trkpt><trkpt lat="46.5840893" lon="12.5941575"><ele>1293.0</ele><time>2026-05-01T15:37:55.997Z</time></trkpt><trkpt lat="46.584036" lon="12.5942394"><ele>1293.0</ele><time>2026-05-01T15:37:56.998Z</time></trkpt><trkpt lat="46.5839909" lon="12.5943097"><ele>1293.0</ele><time>2026-05-01T15:37:58.001Z</time></trkpt><trkpt lat="46.5838998" lon="12.5944288"><ele>1293.0</ele><time>2026-05-01T15:38:00.003Z</time></trkpt><trkpt lat="46.5837974" lon="12.5945283"><ele>1293.0</ele><time>2026-05-01T15:38:02.011Z</time></trkpt><trkpt lat="46.5837315" lon="12.5945622"><ele>1289.5</ele><time>2026-05-01T15:38:02.997Z</time></trkpt><trkpt lat="46.5836598" lon="12.5946013"><ele>1286.0</ele><time>2026-05-01T15:38:04Z</time></trkpt><trkpt lat="46.5835931" lon="12.594639"><ele>1282.5</ele><time>2026-05-01T15:38:04.995Z</time></trkpt><trkpt lat="46.5835274" lon="12.5946826"><ele>1279.0</ele><time>2026-05-01T15:38:06.001Z</time></trkpt><trkpt lat="46.5834115" lon="12.5947045"><ele>1275.5</ele><time>2026-05-01T15:38:08.001Z</time></trkpt><trkpt lat="46.5833485" lon="12.5946953"><ele>1272.0</ele><time>2026-05-01T15:38:09.004Z</time></trkpt><trkpt lat="46.5832285" lon="12.5946741"><ele>1272.0</ele><time>2026-05-01T15:38:11.002Z</time></trkpt><trkpt lat="46.5831597" lon="12.5946692"><ele>1272.0</ele><time>2026-05-01T15:38:12.007Z</time></trkpt><trkpt lat="46.5830532" lon="12.5946815"><ele>1272.0</ele><time>2026-05-01T15:38:14.002Z</time></trkpt><trkpt lat="46.5829709" lon="12.5947747"><ele>1272.0</ele><time>2026-05-01T15:38:16.002Z</time></trkpt><trkpt lat="46.5829158" lon="12.5949246"><ele>1272.0</ele><time>2026-05-01T15:38:18.002Z</time></trkpt><trkpt lat="46.5828575" lon="12.5950755"><ele>1272.0</ele><time>2026-05-01T15:38:20.001Z</time></trkpt><trkpt lat="46.582804" lon="12.5951273"><ele>1272.0</ele><time>2026-05-01T15:38:20.995Z</time></trkpt><trkpt lat="46.5827464" lon="12.5951825"><ele>1272.0</ele><time>2026-05-01T15:38:22.011Z</time></trkpt><trkpt lat="46.5826912" lon="12.5952333"><ele>1272.0</ele><time>2026-05-01T15:38:23.004Z</time></trkpt><trkpt lat="46.5825863" lon="12.5953227"><ele>1272.0</ele><time>2026-05-01T15:38:25.002Z</time></trkpt><trkpt lat="46.5825249" lon="12.5953525"><ele>1272.0</ele><time>2026-05-01T15:38:25.996Z</time></trkpt><trkpt lat="46.5824643" lon="12.5953949"><ele>1267.857142857143</ele><time>2026-05-01T15:38:27.017Z</time></trkpt><trkpt lat="46.582403" lon="12.5954364"><ele>1263.7142857142858</ele><time>2026-05-01T15:38:28.002Z</time></trkpt><trkpt lat="46.5823433" lon="12.5954825"><ele>1259.5714285714287</ele><time>2026-05-01T15:38:28.996Z</time></trkpt><trkpt lat="46.582276" lon="12.5955173"><ele>1255.4285714285716</ele><time>2026-05-01T15:38:30.001Z</time></trkpt><trkpt lat="46.5822062" lon="12.595545"><ele>1251.2857142857142</ele><time>2026-05-01T15:38:31.005Z</time></trkpt><trkpt lat="46.5821324" lon="12.595577"><ele>1247.1428571428573</ele><time>2026-05-01T15:38:31.999Z</time></trkpt><trkpt lat="46.5820552" lon="12.5956049"><ele>1243.0</ele><time>2026-05-01T15:38:32.997Z</time></trkpt><trkpt lat="46.5819817" lon="12.5956289"><ele>1242.0</ele><time>2026-05-01T15:38:34.006Z</time></trkpt><trkpt lat="46.5819023" lon="12.5956608"><ele>1241.0</ele><time>2026-05-01T15:38:35Z</time></trkpt><trkpt lat="46.5818253" lon="12.5956967"><ele>1240.0</ele><time>2026-05-01T15:38:35.992Z</time></trkpt><trkpt lat="46.5817489" lon="12.5957371"><ele>1239.0</ele><time>2026-05-01T15:38:37.001Z</time></trkpt><trkpt lat="46.581673" lon="12.5957649"><ele>1238.0</ele><time>2026-05-01T15:38:38.007Z</time></trkpt><trkpt lat="46.5815868" lon="12.5957742"><ele>1237.0</ele><time>2026-05-01T15:38:38.998Z</time></trkpt><trkpt lat="46.581484" lon="12.5957662"><ele>1237.0</ele><time>2026-05-01T15:38:39.996Z</time></trkpt><trkpt lat="46.5813768" lon="12.5957558"><ele>1237.0</ele><time>2026-05-01T15:38:41.007Z</time></trkpt><trkpt lat="46.5812788" lon="12.5957312"><ele>1237.0</ele><time>2026-05-01T15:38:41.996Z</time></trkpt><trkpt lat="46.5811801" lon="12.5957107"><ele>1237.0</ele><time>2026-05-01T15:38:43.004Z</time></trkpt><trkpt lat="46.5810804" lon="12.5956954"><ele>1237.0</ele><time>2026-05-01T15:38:43.999Z</time></trkpt><trkpt lat="46.5809869" lon="12.5956876"><ele>1235.3333333333333</ele><time>2026-05-01T15:38:45.004Z</time></trkpt><trkpt lat="46.580897" lon="12.5956899"><ele>1233.6666666666665</ele><time>2026-05-01T15:38:45.994Z</time></trkpt><trkpt lat="46.5808012" lon="12.5957057"><ele>1232.0</ele><time>2026-05-01T15:38:47Z</time></trkpt><trkpt lat="46.580708" lon="12.5957329"><ele>1230.3333333333333</ele><time>2026-05-01T15:38:48.001Z</time></trkpt><trkpt lat="46.5806262" lon="12.5957686"><ele>1228.6666666666667</ele><time>2026-05-01T15:38:48.997Z</time></trkpt><trkpt lat="46.5805525" lon="12.595805"><ele>1227.0</ele><time>2026-05-01T15:38:50.006Z</time></trkpt><trkpt lat="46.5804809" lon="12.5958458"><ele>1227.0</ele><time>2026-05-01T15:38:51Z</time></trkpt><trkpt lat="46.580419" lon="12.5958884"><ele>1227.0</ele><time>2026-05-01T15:38:51.993Z</time></trkpt><trkpt lat="46.5803513" lon="12.5959241"><ele>1227.0</ele><time>2026-05-01T15:38:53.002Z</time></trkpt><trkpt lat="46.5802759" lon="12.5959535"><ele>1227.0</ele><time>2026-05-01T15:38:54.005Z</time></trkpt><trkpt lat="46.5801943" lon="12.5959737"><ele>1227.0</ele><time>2026-05-01T15:38:55.005Z</time></trkpt><trkpt lat="46.5800955" lon="12.5959876"><ele>1227.0</ele><time>2026-05-01T15:38:55.995Z</time></trkpt><trkpt lat="46.5799977" lon="12.5959922"><ele>1225.2</ele><time>2026-05-01T15:38:57.006Z</time></trkpt><trkpt lat="46.5799012" lon="12.595998"><ele>1223.4</ele><time>2026-05-01T15:38:57.998Z</time></trkpt><trkpt lat="46.5798042" lon="12.5960212"><ele>1221.6</ele><time>2026-05-01T15:38:59.003Z</time></trkpt><trkpt lat="46.5797021" lon="12.5960468"><ele>1219.8</ele><time>2026-05-01T15:38:59.997Z</time></trkpt><trkpt lat="46.5796039" lon="12.5960709"><ele>1218.0</ele><time>2026-05-01T15:39:01.005Z</time></trkpt><trkpt lat="46.5795116" lon="12.5960917"><ele>1216.2</ele><time>2026-05-01T15:39:02.001Z</time></trkpt><trkpt lat="46.5794117" lon="12.5961061"><ele>1214.4</ele><time>2026-05-01T15:39:03.002Z</time></trkpt><trkpt lat="46.5793141" lon="12.5961129"><ele>1212.6000000000001</ele><time>2026-05-01T15:39:03.997Z</time></trkpt><trkpt lat="46.5792231" lon="12.5961134"><ele>1210.8</ele><time>2026-05-01T15:39:04.995Z</time></trkpt><trkpt lat="46.579139" lon="12.596114"><ele>1209.0</ele><time>2026-05-01T15:39:05.998Z</time></trkpt><trkpt lat="46.5790496" lon="12.596116"><ele>1209.0</ele><time>2026-05-01T15:39:07Z</time></trkpt><trkpt lat="46.5789536" lon="12.5961098"><ele>1209.0</ele><time>2026-05-01T15:39:08.007Z</time></trkpt><trkpt lat="46.5788534" lon="12.5960874"><ele>1209.0</ele><time>2026-05-01T15:39:09.001Z</time></trkpt><trkpt lat="46.578759" lon="12.5960576"><ele>1209.0</ele><time>2026-05-01T15:39:09.993Z</time></trkpt><trkpt lat="46.5786752" lon="12.5960342"><ele>1209.0</ele><time>2026-05-01T15:39:10.999Z</time></trkpt><trkpt lat="46.5786071" lon="12.5960029"><ele>1205.6666666666667</ele><time>2026-05-01T15:39:12.003Z</time></trkpt><trkpt lat="46.5785299" lon="12.5959392"><ele>1202.3333333333333</ele><time>2026-05-01T15:39:13.999Z</time></trkpt><trkpt lat="46.5784593" lon="12.5958477"><ele>1199.0</ele><time>2026-05-01T15:39:15.993Z</time></trkpt><trkpt lat="46.5784171" lon="12.5957531"><ele>1195.6666666666665</ele><time>2026-05-01T15:39:16.995Z</time></trkpt><trkpt lat="46.578375" lon="12.595651"><ele>1192.3333333333333</ele><time>2026-05-01T15:39:17.999Z</time></trkpt><trkpt lat="46.5783284" lon="12.5955435"><ele>1189.0</ele><time>2026-05-01T15:39:18.998Z</time></trkpt><trkpt lat="46.5782803" lon="12.5954167"><ele>1191.4</ele><time>2026-05-01T15:39:20.006Z</time></trkpt><trkpt lat="46.5782357" lon="12.5953034"><ele>1193.8000000000002</ele><time>2026-05-01T15:39:21.014Z</time></trkpt><trkpt lat="46.5782071" lon="12.5951924"><ele>1196.1999999999998</ele><time>2026-05-01T15:39:22.008Z</time></trkpt><trkpt lat="46.578175" lon="12.5950721"><ele>1198.6</ele><time>2026-05-01T15:39:23.006Z</time></trkpt><trkpt lat="46.5781509" lon="12.5949139"><ele>1201.0</ele><time>2026-05-01T15:39:24.004Z</time></trkpt><trkpt lat="46.5781259" lon="12.5947587"><ele>1201.0</ele><time>2026-05-01T15:39:24.999Z</time></trkpt><trkpt lat="46.578089" lon="12.5945916"><ele>1201.0</ele><time>2026-05-01T15:39:25.997Z</time></trkpt><trkpt lat="46.5780452" lon="12.5944239"><ele>1201.0</ele><time>2026-05-01T15:39:27Z</time></trkpt><trkpt lat="46.5779941" lon="12.5942649"><ele>1201.0</ele><time>2026-05-01T15:39:28.004Z</time></trkpt><trkpt lat="46.5779386" lon="12.5941171"><ele>1203.6</ele><time>2026-05-01T15:39:29.003Z</time></trkpt><trkpt lat="46.5778881" lon="12.5939768"><ele>1206.1999999999998</ele><time>2026-05-01T15:39:30.008Z</time></trkpt><trkpt lat="46.5778356" lon="12.5938347"><ele>1208.8000000000002</ele><time>2026-05-01T15:39:31.003Z</time></trkpt><trkpt lat="46.5777742" lon="12.5936931"><ele>1211.4</ele><time>2026-05-01T15:39:32.001Z</time></trkpt><trkpt lat="46.5777108" lon="12.5935693"><ele>1214.0</ele><time>2026-05-01T15:39:33.004Z</time></trkpt><trkpt lat="46.5776577" lon="12.5934545"><ele>1208.3333333333335</ele><time>2026-05-01T15:39:34.009Z</time></trkpt><trkpt lat="46.5776005" lon="12.5933579"><ele>1202.6666666666667</ele><time>2026-05-01T15:39:35Z</time></trkpt><trkpt lat="46.5775531" lon="12.5932711"><ele>1197.0</ele><time>2026-05-01T15:39:35.995Z</time></trkpt><trkpt lat="46.5774929" lon="12.5931507"><ele>1191.3333333333333</ele><time>2026-05-01T15:39:37.996Z</time></trkpt><trkpt lat="46.5774406" lon="12.5930243"><ele>1185.6666666666665</ele><time>2026-05-01T15:39:40.002Z</time></trkpt><trkpt lat="46.577418" lon="12.5929221"><ele>1180.0</ele><time>2026-05-01T15:39:41Z</time></trkpt><trkpt lat="46.5773624" lon="12.5927861"><ele>1180.0</ele><time>2026-05-01T15:39:43.005Z</time></trkpt><trkpt lat="46.577275" lon="12.5926962"><ele>1180.0</ele><time>2026-05-01T15:39:44.992Z</time></trkpt><trkpt lat="46.5771868" lon="12.5925894"><ele>1180.0</ele><time>2026-05-01T15:39:47.001Z</time></trkpt><trkpt lat="46.5771347" lon="12.5925341"><ele>1180.0</ele><time>2026-05-01T15:39:47.994Z</time></trkpt><trkpt lat="46.5770309" lon="12.5924296"><ele>1180.0</ele><time>2026-05-01T15:39:49.997Z</time></trkpt><trkpt lat="46.5769632" lon="12.5923616"><ele>1179.4</ele><time>2026-05-01T15:39:51.006Z</time></trkpt><trkpt lat="46.5768814" lon="12.5922843"><ele>1178.8</ele><time>2026-05-01T15:39:52.004Z</time></trkpt><trkpt lat="46.5767918" lon="12.5921969"><ele>1178.2</ele><time>2026-05-01T15:39:52.995Z</time></trkpt><trkpt lat="46.5767044" lon="12.5921153"><ele>1177.6</ele><time>2026-05-01T15:39:54.001Z</time></trkpt><trkpt lat="46.5766246" lon="12.5920382"><ele>1177.0</ele><time>2026-05-01T15:39:54.996Z</time></trkpt><trkpt lat="46.5765685" lon="12.5919895"><ele>1177.0</ele><time>2026-05-01T15:39:55.996Z</time></trkpt><trkpt lat="46.5764743" lon="12.5919429"><ele>1177.0</ele><time>2026-05-01T15:39:57.994Z</time></trkpt><trkpt lat="46.5764109" lon="12.5919276"><ele>1177.0</ele><time>2026-05-01T15:39:58.999Z</time></trkpt><trkpt lat="46.576324" lon="12.5918788"><ele>1177.0</ele><time>2026-05-01T15:39:59.993Z</time></trkpt><trkpt lat="46.5762126" lon="12.5918089"><ele>1177.0</ele><time>2026-05-01T15:40:01.013Z</time></trkpt><trkpt lat="46.5760988" lon="12.5917332"><ele>1172.4</ele><time>2026-05-01T15:40:01.995Z</time></trkpt><trkpt lat="46.576001" lon="12.5916673"><ele>1167.8000000000002</ele><time>2026-05-01T15:40:02.999Z</time></trkpt><trkpt lat="46.5759068" lon="12.5916099"><ele>1163.2</ele><time>2026-05-01T15:40:03.997Z</time></trkpt><trkpt lat="46.5758237" lon="12.5915741"><ele>1158.6000000000001</ele><time>2026-05-01T15:40:05.003Z</time></trkpt><trkpt lat="46.5757427" lon="12.5915453"><ele>1154.0</ele><time>2026-05-01T15:40:06.007Z</time></trkpt><trkpt lat="46.5756282" lon="12.591477"><ele>1154.0</ele><time>2026-05-01T15:40:08.002Z</time></trkpt><trkpt lat="46.575579" lon="12.5914117"><ele>1154.0</ele><time>2026-05-01T15:40:08.998Z</time></trkpt><trkpt lat="46.5755359" lon="12.5913339"><ele>1154.0</ele><time>2026-05-01T15:40:10.003Z</time></trkpt><trkpt lat="46.5755077" lon="12.591248"><ele>1154.0</ele><time>2026-05-01T15:40:11.005Z</time></trkpt><trkpt lat="46.5754909" lon="12.5911279"><ele>1154.0</ele><time>2026-05-01T15:40:11.998Z</time></trkpt><trkpt lat="46.5754734" lon="12.591013"><ele>1154.0</ele><time>2026-05-01T15:40:13.01Z</time></trkpt><trkpt lat="46.5754591" lon="12.5908957"><ele>1154.0</ele><time>2026-05-01T15:40:14.004Z</time></trkpt><trkpt lat="46.5754315" lon="12.5907968"><ele>1155.6000000000001</ele><time>2026-05-01T15:40:15.002Z</time></trkpt><trkpt lat="46.5753779" lon="12.5907064"><ele>1157.2</ele><time>2026-05-01T15:40:16.002Z</time></trkpt><trkpt lat="46.5753002" lon="12.5906321"><ele>1158.8000000000002</ele><time>2026-05-01T15:40:17.004Z</time></trkpt><trkpt lat="46.5752294" lon="12.5905697"><ele>1160.4</ele><time>2026-05-01T15:40:17.997Z</time></trkpt><trkpt lat="46.5751681" lon="12.5905181"><ele>1162.0</ele><time>2026-05-01T15:40:18.999Z</time></trkpt><trkpt lat="46.5750686" lon="12.590408"><ele>1157.8</ele><time>2026-05-01T15:40:21.008Z</time></trkpt><trkpt lat="46.5750199" lon="12.5903236"><ele>1153.6</ele><time>2026-05-01T15:40:22.001Z</time></trkpt><trkpt lat="46.574974" lon="12.5902139"><ele>1149.3999999999999</ele><time>2026-05-01T15:40:22.998Z</time></trkpt><trkpt lat="46.5749144" lon="12.5901025"><ele>1145.2</ele><time>2026-05-01T15:40:23.997Z</time></trkpt><trkpt lat="46.5748519" lon="12.589997"><ele>1141.0</ele><time>2026-05-01T15:40:24.995Z</time></trkpt><trkpt lat="46.5747917" lon="12.5898912"><ele>1141.0</ele><time>2026-05-01T15:40:26.009Z</time></trkpt><trkpt lat="46.5747413" lon="12.5897667"><ele>1141.0</ele><time>2026-05-01T15:40:26.998Z</time></trkpt><trkpt lat="46.574697" lon="12.5896252"><ele>1141.0</ele><time>2026-05-01T15:40:27.999Z</time></trkpt><trkpt lat="46.574651" lon="12.5894913"><ele>1141.0</ele><time>2026-05-01T15:40:29.01Z</time></trkpt><trkpt lat="46.5746143" lon="12.5893895"><ele>1141.0</ele><time>2026-05-01T15:40:30.002Z</time></trkpt><trkpt lat="46.5745864" lon="12.589292"><ele>1142.1666666666665</ele><time>2026-05-01T15:40:31.997Z</time></trkpt><trkpt lat="46.5745509" lon="12.5891848"><ele>1143.3333333333333</ele><time>2026-05-01T15:40:33.997Z</time></trkpt><trkpt lat="46.5744932" lon="12.5890271"><ele>1144.5</ele><time>2026-05-01T15:40:36.001Z</time></trkpt><trkpt lat="46.5744522" lon="12.5889474"><ele>1145.6666666666667</ele><time>2026-05-01T15:40:37.004Z</time></trkpt><trkpt lat="46.5743972" lon="12.5888884"><ele>1146.8333333333335</ele><time>2026-05-01T15:40:38Z</time></trkpt><trkpt lat="46.574336" lon="12.5888187"><ele>1148.0</ele><time>2026-05-01T15:40:39.002Z</time></trkpt><trkpt lat="46.574281" lon="12.5887443"><ele>1143.1666666666667</ele><time>2026-05-01T15:40:40.003Z</time></trkpt><trkpt lat="46.5742214" lon="12.5886655"><ele>1138.3333333333335</ele><time>2026-05-01T15:40:41Z</time></trkpt><trkpt lat="46.5741644" lon="12.5885804"><ele>1133.5</ele><time>2026-05-01T15:40:42.002Z</time></trkpt><trkpt lat="46.5741001" lon="12.5884883"><ele>1128.6666666666667</ele><time>2026-05-01T15:40:43.011Z</time></trkpt><trkpt lat="46.5740508" lon="12.5883971"><ele>1123.8333333333333</ele><time>2026-05-01T15:40:44.002Z</time></trkpt><trkpt lat="46.5740083" lon="12.5883071"><ele>1119.0</ele><time>2026-05-01T15:40:45Z</time></trkpt><trkpt lat="46.5739632" lon="12.5882257"><ele>1119.0</ele><time>2026-05-01T15:40:46.007Z</time></trkpt><trkpt lat="46.5739109" lon="12.5881527"><ele>1119.0</ele><time>2026-05-01T15:40:47Z</time></trkpt><trkpt lat="46.5738634" lon="12.5880926"><ele>1119.0</ele><time>2026-05-01T15:40:48.009Z</time></trkpt><trkpt lat="46.5737873" lon="12.5879981"><ele>1119.0</ele><time>2026-05-01T15:40:50Z</time></trkpt><trkpt lat="46.573716" lon="12.5879007"><ele>1119.0</ele><time>2026-05-01T15:40:52.002Z</time></trkpt><trkpt lat="46.5736262" lon="12.5877834"><ele>1115.2</ele><time>2026-05-01T15:40:54.001Z</time></trkpt><trkpt lat="46.5735607" lon="12.5876665"><ele>1111.4</ele><time>2026-05-01T15:40:56.004Z</time></trkpt><trkpt lat="46.573489" lon="12.5875129"><ele>1107.6</ele><time>2026-05-01T15:40:58.001Z</time></trkpt><trkpt lat="46.5734443" lon="12.5874063"><ele>1103.8</ele><time>2026-05-01T15:40:59.001Z</time></trkpt><trkpt lat="46.5733956" lon="12.5872679"><ele>1100.0</ele><time>2026-05-01T15:40:59.996Z</time></trkpt><trkpt lat="46.5733424" lon="12.5871044"><ele>1099.75</ele><time>2026-05-01T15:41:00.995Z</time></trkpt><trkpt lat="46.5732917" lon="12.5869495"><ele>1099.5</ele><time>2026-05-01T15:41:01.996Z</time></trkpt><trkpt lat="46.5732409" lon="12.5867948"><ele>1099.25</ele><time>2026-05-01T15:41:03.006Z</time></trkpt><trkpt lat="46.5731862" lon="12.5866535"><ele>1099.0</ele><time>2026-05-01T15:41:04Z</time></trkpt><trkpt lat="46.5731341" lon="12.5865226"><ele>1099.0</ele><time>2026-05-01T15:41:04.997Z</time></trkpt><trkpt lat="46.5730875" lon="12.5863899"><ele>1099.0</ele><time>2026-05-01T15:41:06.003Z</time></trkpt><trkpt lat="46.5730488" lon="12.5862582"><ele>1099.0</ele><time>2026-05-01T15:41:07.005Z</time></trkpt><trkpt lat="46.5730137" lon="12.5861229"><ele>1099.0</ele><time>2026-05-01T15:41:07.996Z</time></trkpt><trkpt lat="46.5729787" lon="12.5859863"><ele>1099.0</ele><time>2026-05-01T15:41:09.003Z</time></trkpt><trkpt lat="46.5729575" lon="12.5858633"><ele>1099.0</ele><time>2026-05-01T15:41:09.999Z</time></trkpt><trkpt lat="46.5729404" lon="12.5857643"><ele>1099.0</ele><time>2026-05-01T15:41:11.001Z</time></trkpt><trkpt lat="46.5729214" lon="12.5856715"><ele>1099.0</ele><time>2026-05-01T15:41:11.998Z</time></trkpt><trkpt lat="46.5728954" lon="12.5854886"><ele>1099.0</ele><time>2026-05-01T15:41:14.007Z</time></trkpt><trkpt lat="46.572891" lon="12.5853866"><ele>1099.0</ele><time>2026-05-01T15:41:15.005Z</time></trkpt><trkpt lat="46.572873" lon="12.5852979"><ele>1099.0</ele><time>2026-05-01T15:41:16.001Z</time></trkpt><trkpt lat="46.5727892" lon="12.5852213"><ele>1094.2</ele><time>2026-05-01T15:41:18.002Z</time></trkpt><trkpt lat="46.572702" lon="12.5853028"><ele>1089.4</ele><time>2026-05-01T15:41:19.998Z</time></trkpt><trkpt lat="46.572678" lon="12.5854124"><ele>1084.6</ele><time>2026-05-01T15:41:21.004Z</time></trkpt><trkpt lat="46.5726458" lon="12.5855528"><ele>1079.8</ele><time>2026-05-01T15:41:22.001Z</time></trkpt><trkpt lat="46.5726157" lon="12.5857113"><ele>1075.0</ele><time>2026-05-01T15:41:23.003Z</time></trkpt><trkpt lat="46.5725892" lon="12.5858657"><ele>1075.0</ele><time>2026-05-01T15:41:23.998Z</time></trkpt><trkpt lat="46.5725634" lon="12.58602"><ele>1075.0</ele><time>2026-05-01T15:41:24.994Z</time></trkpt><trkpt lat="46.572538" lon="12.5861592"><ele>1075.0</ele><time>2026-05-01T15:41:25.999Z</time></trkpt><trkpt lat="46.5725261" lon="12.5862994"><ele>1075.0</ele><time>2026-05-01T15:41:26.99Z</time></trkpt><trkpt lat="46.5725197" lon="12.5864415"><ele>1075.0</ele><time>2026-05-01T15:41:28.001Z</time></trkpt><trkpt lat="46.5725131" lon="12.586595"><ele>1074.4</ele><time>2026-05-01T15:41:29.002Z</time></trkpt><trkpt lat="46.5725096" lon="12.58674"><ele>1073.8</ele><time>2026-05-01T15:41:29.991Z</time></trkpt><trkpt lat="46.5724998" lon="12.5868874"><ele>1073.2</ele><time>2026-05-01T15:41:30.993Z</time></trkpt><trkpt lat="46.5724963" lon="12.5870298"><ele>1072.6</ele><time>2026-05-01T15:41:31.999Z</time></trkpt><trkpt lat="46.5725039" lon="12.5871873"><ele>1072.0</ele><time>2026-05-01T15:41:32.998Z</time></trkpt><trkpt lat="46.572522" lon="12.5873538"><ele>1070.75</ele><time>2026-05-01T15:41:34.001Z</time></trkpt><trkpt lat="46.5725561" lon="12.5875321"><ele>1069.5</ele><time>2026-05-01T15:41:35Z</time></trkpt><trkpt lat="46.5725826" lon="12.587702"><ele>1068.25</ele><time>2026-05-01T15:41:36.002Z</time></trkpt><trkpt lat="46.5726042" lon="12.5878663"><ele>1067.0</ele><time>2026-05-01T15:41:37.002Z</time></trkpt><trkpt lat="46.5726246" lon="12.5880188"><ele>1065.8</ele><time>2026-05-01T15:41:37.995Z</time></trkpt><trkpt lat="46.5726393" lon="12.5881594"><ele>1064.6</ele><time>2026-05-01T15:41:39.008Z</time></trkpt><trkpt lat="46.5726615" lon="12.5882953"><ele>1063.3999999999999</ele><time>2026-05-01T15:41:40.004Z</time></trkpt><trkpt lat="46.5726847" lon="12.5884308"><ele>1062.2</ele><time>2026-05-01T15:41:40.993Z</time></trkpt><trkpt lat="46.5727075" lon="12.5885484"><ele>1061.0</ele><time>2026-05-01T15:41:42.002Z</time></trkpt><trkpt lat="46.5727351" lon="12.5886624"><ele>1058.2</ele><time>2026-05-01T15:41:43.003Z</time></trkpt><trkpt lat="46.5727693" lon="12.5887684"><ele>1055.3999999999999</ele><time>2026-05-01T15:41:44Z</time></trkpt><trkpt lat="46.572802" lon="12.5888576"><ele>1052.6</ele><time>2026-05-01T15:41:45.004Z</time></trkpt><trkpt lat="46.5728158" lon="12.5890022"><ele>1049.8</ele><time>2026-05-01T15:41:46.998Z</time></trkpt><trkpt lat="46.5727262" lon="12.5890276"><ele>1047.0</ele><time>2026-05-01T15:41:48.997Z</time></trkpt><trkpt lat="46.5726576" lon="12.5888943"><ele>1047.0</ele><time>2026-05-01T15:41:50.995Z</time></trkpt><trkpt lat="46.5726328" lon="12.5887608"><ele>1047.0</ele><time>2026-05-01T15:41:52.01Z</time></trkpt><trkpt lat="46.5726066" lon="12.5885924"><ele>1047.0</ele><time>2026-05-01T15:41:52.993Z</time></trkpt><trkpt lat="46.57256" lon="12.5884291"><ele>1047.0</ele><time>2026-05-01T15:41:54Z</time></trkpt><trkpt lat="46.5725195" lon="12.5882628"><ele>1049.8</ele><time>2026-05-01T15:41:55Z</time></trkpt><trkpt lat="46.5724593" lon="12.588114"><ele>1052.6</ele><time>2026-05-01T15:41:56.003Z</time></trkpt><trkpt lat="46.5723909" lon="12.5879808"><ele>1055.3999999999999</ele><time>2026-05-01T15:41:56.997Z</time></trkpt><trkpt lat="46.572325" lon="12.5878527"><ele>1058.2</ele><time>2026-05-01T15:41:57.997Z</time></trkpt><trkpt lat="46.5722634" lon="12.5877283"><ele>1061.0</ele><time>2026-05-01T15:41:58.996Z</time></trkpt><trkpt lat="46.5722001" lon="12.5876153"><ele>1062.2</ele><time>2026-05-01T15:41:59.999Z</time></trkpt><trkpt lat="46.5721349" lon="12.5874951"><ele>1063.3999999999999</ele><time>2026-05-01T15:42:00.997Z</time></trkpt><trkpt lat="46.5720687" lon="12.587371"><ele>1064.6</ele><time>2026-05-01T15:42:02.002Z</time></trkpt><trkpt lat="46.5720027" lon="12.5872484"><ele>1065.8</ele><time>2026-05-01T15:42:03.002Z</time></trkpt><trkpt lat="46.5719394" lon="12.5871174"><ele>1067.0</ele><time>2026-05-01T15:42:03.996Z</time></trkpt><trkpt lat="46.5718723" lon="12.5869926"><ele>1063.6</ele><time>2026-05-01T15:42:05Z</time></trkpt><trkpt lat="46.5717996" lon="12.5868669"><ele>1060.2</ele><time>2026-05-01T15:42:06.004Z</time></trkpt><trkpt lat="46.5717356" lon="12.5867504"><ele>1056.8</ele><time>2026-05-01T15:42:07.004Z</time></trkpt><trkpt lat="46.5716725" lon="12.5866383"><ele>1053.4</ele><time>2026-05-01T15:42:08.001Z</time></trkpt><trkpt lat="46.571613" lon="12.5865215"><ele>1050.0</ele><time>2026-05-01T15:42:09.003Z</time></trkpt><trkpt lat="46.5715458" lon="12.5864111"><ele>1050.0</ele><time>2026-05-01T15:42:09.997Z</time></trkpt><trkpt lat="46.5714808" lon="12.5863027"><ele>1050.0</ele><time>2026-05-01T15:42:11.004Z</time></trkpt><trkpt lat="46.5714286" lon="12.5861795"><ele>1050.0</ele><time>2026-05-01T15:42:12.01Z</time></trkpt><trkpt lat="46.5713786" lon="12.5860594"><ele>1050.0</ele><time>2026-05-01T15:42:12.999Z</time></trkpt><trkpt lat="46.5713366" lon="12.5859256"><ele>1050.0</ele><time>2026-05-01T15:42:13.999Z</time></trkpt><trkpt lat="46.5713059" lon="12.5858043"><ele>1050.2</ele><time>2026-05-01T15:42:15Z</time></trkpt><trkpt lat="46.5712913" lon="12.585706"><ele>1050.4</ele><time>2026-05-01T15:42:16Z</time></trkpt><trkpt lat="46.5712131" lon="12.5855674"><ele>1050.6</ele><time>2026-05-01T15:42:18.009Z</time></trkpt><trkpt lat="46.5711418" lon="12.5855443"><ele>1050.8</ele><time>2026-05-01T15:42:19.003Z</time></trkpt><trkpt lat="46.5710516" lon="12.5855481"><ele>1051.0</ele><time>2026-05-01T15:42:20.008Z</time></trkpt><trkpt lat="46.5709521" lon="12.5855801"><ele>1048.8333333333333</ele><time>2026-05-01T15:42:20.995Z</time></trkpt><trkpt lat="46.5708674" lon="12.5856184"><ele>1046.6666666666665</ele><time>2026-05-01T15:42:21.998Z</time></trkpt><trkpt lat="46.5707986" lon="12.5856621"><ele>1044.5</ele><time>2026-05-01T15:42:23.005Z</time></trkpt><trkpt lat="46.5707467" lon="12.5857348"><ele>1042.3333333333333</ele><time>2026-05-01T15:42:24.002Z</time></trkpt><trkpt lat="46.5707204" lon="12.5858184"><ele>1040.1666666666667</ele><time>2026-05-01T15:42:25.002Z</time></trkpt><trkpt lat="46.5706668" lon="12.5859715"><ele>1038.0</ele><time>2026-05-01T15:42:27.003Z</time></trkpt><trkpt lat="46.5705485" lon="12.5860138"><ele>1038.0</ele><time>2026-05-01T15:42:29.001Z</time></trkpt><trkpt lat="46.570471" lon="12.5859848"><ele>1038.0</ele><time>2026-05-01T15:42:31.006Z</time></trkpt><trkpt lat="46.5704867" lon="12.5858591"><ele>1038.0</ele><time>2026-05-01T15:42:33.008Z</time></trkpt><trkpt lat="46.5705477" lon="12.5857777"><ele>1038.0</ele><time>2026-05-01T15:42:34.008Z</time></trkpt><trkpt lat="46.5706327" lon="12.5856978"><ele>1038.0</ele><time>2026-05-01T15:42:35.003Z</time></trkpt><trkpt lat="46.5707226" lon="12.5856005"><ele>1038.0</ele><time>2026-05-01T15:42:36.005Z</time></trkpt><trkpt lat="46.5708323" lon="12.5854875"><ele>1038.0</ele><time>2026-05-01T15:42:36.997Z</time></trkpt><trkpt lat="46.5709404" lon="12.5853743"><ele>1038.0</ele><time>2026-05-01T15:42:37.998Z</time></trkpt><trkpt lat="46.5710377" lon="12.5852734"><ele>1038.0</ele><time>2026-05-01T15:42:38.995Z</time></trkpt><trkpt lat="46.5711294" lon="12.5851614"><ele>1038.4</ele><time>2026-05-01T15:42:40.001Z</time></trkpt><trkpt lat="46.5712096" lon="12.5850392"><ele>1038.8</ele><time>2026-05-01T15:42:41.003Z</time></trkpt><trkpt lat="46.571265" lon="12.5849171"><ele>1039.2</ele><time>2026-05-01T15:42:41.999Z</time></trkpt><trkpt lat="46.5713025" lon="12.5847825"><ele>1039.6</ele><time>2026-05-01T15:42:43.011Z</time></trkpt><trkpt lat="46.5713362" lon="12.5846456"><ele>1040.0</ele><time>2026-05-01T15:42:44.001Z</time></trkpt><trkpt lat="46.571357" lon="12.5845093"><ele>1037.8</ele><time>2026-05-01T15:42:45.004Z</time></trkpt><trkpt lat="46.5713723" lon="12.5843721"><ele>1035.6</ele><time>2026-05-01T15:42:46.003Z</time></trkpt><trkpt lat="46.5713953" lon="12.5842266"><ele>1033.4</ele><time>2026-05-01T15:42:47Z</time></trkpt><trkpt lat="46.5714143" lon="12.5840827"><ele>1031.2</ele><time>2026-05-01T15:42:48.009Z</time></trkpt><trkpt lat="46.5714374" lon="12.5839447"><ele>1029.0</ele><time>2026-05-01T15:42:49.003Z</time></trkpt><trkpt lat="46.5714761" lon="12.5838174"><ele>1029.0</ele><time>2026-05-01T15:42:50Z</time></trkpt><trkpt lat="46.5715357" lon="12.5837175"><ele>1029.0</ele><time>2026-05-01T15:42:51Z</time></trkpt><trkpt lat="46.5716071" lon="12.5836294"><ele>1029.0</ele><time>2026-05-01T15:42:51.995Z</time></trkpt><trkpt lat="46.5716887" lon="12.5835649"><ele>1029.0</ele><time>2026-05-01T15:42:53.004Z</time></trkpt><trkpt lat="46.571763" lon="12.5835117"><ele>1029.0</ele><time>2026-05-01T15:42:53.998Z</time></trkpt><trkpt lat="46.5718199" lon="12.5834515"><ele>1029.0</ele><time>2026-05-01T15:42:54.997Z</time></trkpt><trkpt lat="46.5718618" lon="12.5833803"><ele>1030.0</ele><time>2026-05-01T15:42:55.996Z</time></trkpt><trkpt lat="46.5718827" lon="12.5832854"><ele>1031.0</ele><time>2026-05-01T15:42:56.995Z</time></trkpt><trkpt lat="46.5719165" lon="12.5832045"><ele>1032.0</ele><time>2026-05-01T15:42:58.006Z</time></trkpt><trkpt lat="46.572019" lon="12.5830788"><ele>1033.0</ele><time>2026-05-01T15:42:59.998Z</time></trkpt><trkpt lat="46.5721002" lon="12.5829903"><ele>1034.0</ele><time>2026-05-01T15:43:00.994Z</time></trkpt><trkpt lat="46.572195" lon="12.5829147"><ele>1034.0</ele><time>2026-05-01T15:43:01.995Z</time></trkpt><trkpt lat="46.5722976" lon="12.5828533"><ele>1034.0</ele><time>2026-05-01T15:43:02.995Z</time></trkpt><trkpt lat="46.5724121" lon="12.5828136"><ele>1034.0</ele><time>2026-05-01T15:43:03.998Z</time></trkpt><trkpt lat="46.5725297" lon="12.5827711"><ele>1034.0</ele><time>2026-05-01T15:43:05Z</time></trkpt><trkpt lat="46.572644" lon="12.5827413"><ele>1035.3333333333335</ele><time>2026-05-01T15:43:05.994Z</time></trkpt><trkpt lat="46.5727317" lon="12.5827275"><ele>1036.6666666666667</ele><time>2026-05-01T15:43:06.997Z</time></trkpt><trkpt lat="46.5728193" lon="12.5827411"><ele>1038.0</ele><time>2026-05-01T15:43:09Z</time></trkpt><trkpt lat="46.5727654" lon="12.5826774"><ele>1039.3333333333333</ele><time>2026-05-01T15:43:12.996Z</time></trkpt><trkpt lat="46.5726832" lon="12.5826867"><ele>1040.6666666666665</ele><time>2026-05-01T15:43:13.995Z</time></trkpt><trkpt lat="46.572576" lon="12.582724"><ele>1042.0</ele><time>2026-05-01T15:43:15Z</time></trkpt><trkpt lat="46.5724555" lon="12.5827629"><ele>1042.0</ele><time>2026-05-01T15:43:16.002Z</time></trkpt><trkpt lat="46.5723366" lon="12.5828046"><ele>1042.0</ele><time>2026-05-01T15:43:16.994Z</time></trkpt><trkpt lat="46.5722231" lon="12.5828636"><ele>1042.0</ele><time>2026-05-01T15:43:17.998Z</time></trkpt><trkpt lat="46.5721218" lon="12.5829385"><ele>1042.0</ele><time>2026-05-01T15:43:18.999Z</time></trkpt><trkpt lat="46.5720294" lon="12.5830145"><ele>1037.2</ele><time>2026-05-01T15:43:19.996Z</time></trkpt><trkpt lat="46.5719606" lon="12.5830865"><ele>1032.4</ele><time>2026-05-01T15:43:20.993Z</time></trkpt><trkpt lat="46.571902" lon="12.5831511"><ele>1027.6</ele><time>2026-05-01T15:43:21.997Z</time></trkpt><trkpt lat="46.5718149" lon="12.5832108"><ele>1022.8</ele><time>2026-05-01T15:43:24.001Z</time></trkpt><trkpt lat="46.5716822" lon="12.5832395"><ele>1018.0</ele><time>2026-05-01T15:43:26.001Z</time></trkpt><trkpt lat="46.5715847" lon="12.5833012"><ele>1018.0</ele><time>2026-05-01T15:43:27.003Z</time></trkpt><trkpt lat="46.5714751" lon="12.5833868"><ele>1018.0</ele><time>2026-05-01T15:43:28Z</time></trkpt><trkpt lat="46.5713652" lon="12.5834812"><ele>1018.0</ele><time>2026-05-01T15:43:29Z</time></trkpt><trkpt lat="46.5712675" lon="12.5835735"><ele>1018.0</ele><time>2026-05-01T15:43:29.996Z</time></trkpt><trkpt lat="46.5711685" lon="12.5836764"><ele>1015.8</ele><time>2026-05-01T15:43:30.999Z</time></trkpt><trkpt lat="46.5710757" lon="12.5837732"><ele>1013.5999999999999</ele><time>2026-05-01T15:43:31.999Z</time></trkpt><trkpt lat="46.5709892" lon="12.5838733"><ele>1011.4000000000001</ele><time>2026-05-01T15:43:33.001Z</time></trkpt><trkpt lat="46.5709091" lon="12.5839796"><ele>1009.2</ele><time>2026-05-01T15:43:33.999Z</time></trkpt><trkpt lat="46.570826" lon="12.5840911"><ele>1007.0</ele><time>2026-05-01T15:43:34.993Z</time></trkpt><trkpt lat="46.5707448" lon="12.5842029"><ele>1007.0</ele><time>2026-05-01T15:43:35.999Z</time></trkpt><trkpt lat="46.5706599" lon="12.5843232"><ele>1007.0</ele><time>2026-05-01T15:43:37.008Z</time></trkpt><trkpt lat="46.5705848" lon="12.5844524"><ele>1007.0</ele><time>2026-05-01T15:43:37.999Z</time></trkpt><trkpt lat="46.5705147" lon="12.5845963"><ele>1007.0</ele><time>2026-05-01T15:43:39.01Z</time></trkpt><trkpt lat="46.5704529" lon="12.5847313"><ele>1005.4000000000001</ele><time>2026-05-01T15:43:40.004Z</time></trkpt><trkpt lat="46.5704006" lon="12.584845"><ele>1003.8000000000001</ele><time>2026-05-01T15:43:41Z</time></trkpt><trkpt lat="46.5703428" lon="12.5849291"><ele>1002.2</ele><time>2026-05-01T15:43:42.002Z</time></trkpt><trkpt lat="46.5702724" lon="12.5849921"><ele>1000.6</ele><time>2026-05-01T15:43:43.002Z</time></trkpt><trkpt lat="46.5701823" lon="12.585027"><ele>999.0</ele><time>2026-05-01T15:43:43.994Z</time></trkpt><trkpt lat="46.5700859" lon="12.5850586"><ele>999.0</ele><time>2026-05-01T15:43:45.009Z</time></trkpt><trkpt lat="46.5699748" lon="12.5850639"><ele>999.0</ele><time>2026-05-01T15:43:45.998Z</time></trkpt><trkpt lat="46.5698633" lon="12.5850529"><ele>999.0</ele><time>2026-05-01T15:43:46.999Z</time></trkpt><trkpt lat="46.5697498" lon="12.5850571"><ele>999.0</ele><time>2026-05-01T15:43:48.004Z</time></trkpt><trkpt lat="46.5696267" lon="12.5851023"><ele>997.75</ele><time>2026-05-01T15:43:49.005Z</time></trkpt><trkpt lat="46.569501" lon="12.5851799"><ele>996.5</ele><time>2026-05-01T15:43:50.007Z</time></trkpt><trkpt lat="46.5693768" lon="12.5852699"><ele>995.25</ele><time>2026-05-01T15:43:51.004Z</time></trkpt><trkpt lat="46.5692631" lon="12.5853705"><ele>994.0</ele><time>2026-05-01T15:43:52Z</time></trkpt><trkpt lat="46.5691623" lon="12.5854806"><ele>992.2</ele><time>2026-05-01T15:43:52.998Z</time></trkpt><trkpt lat="46.5690767" lon="12.585587"><ele>990.4000000000001</ele><time>2026-05-01T15:43:53.995Z</time></trkpt><trkpt lat="46.569001" lon="12.5857047"><ele>988.6</ele><time>2026-05-01T15:43:54.995Z</time></trkpt><trkpt lat="46.5689136" lon="12.5858018"><ele>986.8</ele><time>2026-05-01T15:43:56.002Z</time></trkpt><trkpt lat="46.5688095" lon="12.5858704"><ele>985.0</ele><time>2026-05-01T15:43:56.998Z</time></trkpt><trkpt lat="46.5687021" lon="12.5859268"><ele>983.5</ele><time>2026-05-01T15:43:58Z</time></trkpt><trkpt lat="46.5685892" lon="12.5859973"><ele>982.0</ele><time>2026-05-01T15:43:59.001Z</time></trkpt><trkpt lat="46.5684785" lon="12.5860794"><ele>980.5</ele><time>2026-05-01T15:44:00.005Z</time></trkpt><trkpt lat="46.5683763" lon="12.5861593"><ele>979.0</ele><time>2026-05-01T15:44:01.006Z</time></trkpt><trkpt lat="46.5682939" lon="12.5862224"><ele>976.0</ele><time>2026-05-01T15:44:01.996Z</time></trkpt><trkpt lat="46.568229" lon="12.5863159"><ele>973.0000000000001</ele><time>2026-05-01T15:44:02.998Z</time></trkpt><trkpt lat="46.5681884" lon="12.586407"><ele>970.0000000000001</ele><time>2026-05-01T15:44:03.992Z</time></trkpt><trkpt lat="46.5681847" lon="12.5865387"><ele>967.0</ele><time>2026-05-01T15:44:05Z</time></trkpt><trkpt lat="46.5682066" lon="12.5867111"><ele>964.0</ele><time>2026-05-01T15:44:05.995Z</time></trkpt><trkpt lat="46.5682244" lon="12.5868806"><ele>962.8000000000001</ele><time>2026-05-01T15:44:06.999Z</time></trkpt><trkpt lat="46.5682402" lon="12.5870424"><ele>961.6000000000001</ele><time>2026-05-01T15:44:07.999Z</time></trkpt><trkpt lat="46.5682521" lon="12.587202"><ele>960.4</ele><time>2026-05-01T15:44:08.997Z</time></trkpt><trkpt lat="46.568254" lon="12.5873464"><ele>959.2</ele><time>2026-05-01T15:44:10.005Z</time></trkpt><trkpt lat="46.5682232" lon="12.5874801"><ele>958.0</ele><time>2026-05-01T15:44:11Z</time></trkpt><trkpt lat="46.5681804" lon="12.5875826"><ele>958.0</ele><time>2026-05-01T15:44:12.003Z</time></trkpt><trkpt lat="46.568135" lon="12.5876523"><ele>958.0</ele><time>2026-05-01T15:44:13.001Z</time></trkpt><trkpt lat="46.5680563" lon="12.5876654"><ele>958.0</ele><time>2026-05-01T15:44:15.996Z</time></trkpt><trkpt lat="46.5679412" lon="12.58755"><ele>958.0</ele><time>2026-05-01T15:44:18.003Z</time></trkpt><trkpt lat="46.5678611" lon="12.5874639"><ele>958.0</ele><time>2026-05-01T15:44:19.01Z</time></trkpt><trkpt lat="46.5677551" lon="12.5873432"><ele>958.25</ele><time>2026-05-01T15:44:20.002Z</time></trkpt><trkpt lat="46.5676432" lon="12.587243"><ele>958.5</ele><time>2026-05-01T15:44:20.999Z</time></trkpt><trkpt lat="46.5675203" lon="12.5871205"><ele>958.75</ele><time>2026-05-01T15:44:21.999Z</time></trkpt><trkpt lat="46.5673962" lon="12.58697"><ele>959.0</ele><time>2026-05-01T15:44:22.994Z</time></trkpt><trkpt lat="46.5672805" lon="12.5868194"><ele>959.0</ele><time>2026-05-01T15:44:24.002Z</time></trkpt><trkpt lat="46.5671863" lon="12.5866632"><ele>959.0</ele><time>2026-05-01T15:44:24.999Z</time></trkpt><trkpt lat="46.5671066" lon="12.5865204"><ele>959.0</ele><time>2026-05-01T15:44:26.008Z</time></trkpt><trkpt lat="46.5670327" lon="12.5864059"><ele>959.0</ele><time>2026-05-01T15:44:26.996Z</time></trkpt><trkpt lat="46.5669526" lon="12.5863208"><ele>958.0</ele><time>2026-05-01T15:44:27.998Z</time></trkpt><trkpt lat="46.5668476" lon="12.586263"><ele>957.0</ele><time>2026-05-01T15:44:29Z</time></trkpt><trkpt lat="46.5667401" lon="12.5862075"><ele>956.0</ele><time>2026-05-01T15:44:29.997Z</time></trkpt><trkpt lat="46.5666451" lon="12.5861014"><ele>955.0</ele><time>2026-05-01T15:44:30.996Z</time></trkpt><trkpt lat="46.5665497" lon="12.5859761"><ele>955.0</ele><time>2026-05-01T15:44:31.999Z</time></trkpt><trkpt lat="46.5664556" lon="12.5858244"><ele>955.0</ele><time>2026-05-01T15:44:32.998Z</time></trkpt><trkpt lat="46.566356" lon="12.5856516"><ele>955.0</ele><time>2026-05-01T15:44:34.003Z</time></trkpt><trkpt lat="46.5662575" lon="12.5854849"><ele>955.0</ele><time>2026-05-01T15:44:35.004Z</time></trkpt><trkpt lat="46.5661669" lon="12.585321"><ele>951.25</ele><time>2026-05-01T15:44:35.997Z</time></trkpt><trkpt lat="46.5660702" lon="12.5851679"><ele>947.5</ele><time>2026-05-01T15:44:37.002Z</time></trkpt><trkpt lat="46.5659765" lon="12.5850208"><ele>943.75</ele><time>2026-05-01T15:44:38.002Z</time></trkpt><trkpt lat="46.5658871" lon="12.5848847"><ele>940.0</ele><time>2026-05-01T15:44:39.006Z</time></trkpt><trkpt lat="46.5658051" lon="12.5847641"><ele>939.9999999999999</ele><time>2026-05-01T15:44:40.003Z</time></trkpt><trkpt lat="46.5657337" lon="12.5846627"><ele>940.0</ele><time>2026-05-01T15:44:41.006Z</time></trkpt><trkpt lat="46.5656709" lon="12.5845689"><ele>940.0</ele><time>2026-05-01T15:44:42.002Z</time></trkpt><trkpt lat="46.5656079" lon="12.5844904"><ele>940.0</ele><time>2026-05-01T15:44:43.001Z</time></trkpt><trkpt lat="46.565537" lon="12.5844204"><ele>939.9999999999999</ele><time>2026-05-01T15:44:44.012Z</time></trkpt><trkpt lat="46.5654672" lon="12.5843384"><ele>940.0</ele><time>2026-05-01T15:44:44.997Z</time></trkpt><trkpt lat="46.5654002" lon="12.5842199"><ele>939.75</ele><time>2026-05-01T15:44:45.999Z</time></trkpt><trkpt lat="46.5653356" lon="12.5840836"><ele>939.5</ele><time>2026-05-01T15:44:46.994Z</time></trkpt><trkpt lat="46.5652622" lon="12.5839258"><ele>939.25</ele><time>2026-05-01T15:44:48.003Z</time></trkpt><trkpt lat="46.5651801" lon="12.5837547"><ele>939.0</ele><time>2026-05-01T15:44:48.999Z</time></trkpt><trkpt lat="46.5651024" lon="12.5835779"><ele>939.0</ele><time>2026-05-01T15:44:50.006Z</time></trkpt><trkpt lat="46.5650294" lon="12.5833972"><ele>939.0</ele><time>2026-05-01T15:44:50.999Z</time></trkpt><trkpt lat="46.5649556" lon="12.5832274"><ele>939.0</ele><time>2026-05-01T15:44:52.003Z</time></trkpt><trkpt lat="46.5648899" lon="12.5830746"><ele>939.0</ele><time>2026-05-01T15:44:52.996Z</time></trkpt><trkpt lat="46.5648247" lon="12.5829335"><ele>939.5</ele><time>2026-05-01T15:44:53.999Z</time></trkpt><trkpt lat="46.564768" lon="12.5827959"><ele>940.0</ele><time>2026-05-01T15:44:55.002Z</time></trkpt><trkpt lat="46.5647182" lon="12.5826623"><ele>940.5</ele><time>2026-05-01T15:44:56.004Z</time></trkpt><trkpt lat="46.564682" lon="12.5825035"><ele>941.0</ele><time>2026-05-01T15:44:56.999Z</time></trkpt><trkpt lat="46.5646574" lon="12.5823312"><ele>941.0</ele><time>2026-05-01T15:44:58.009Z</time></trkpt><trkpt lat="46.5646308" lon="12.5821465"><ele>941.0</ele><time>2026-05-01T15:44:58.996Z</time></trkpt><trkpt lat="46.5646014" lon="12.5819707"><ele>941.0</ele><time>2026-05-01T15:44:59.999Z</time></trkpt><trkpt lat="46.5645818" lon="12.5818034"><ele>941.0</ele><time>2026-05-01T15:45:01.005Z</time></trkpt><trkpt lat="46.5645651" lon="12.5816555"><ele>941.1666666666667</ele><time>2026-05-01T15:45:02.014Z</time></trkpt><trkpt lat="46.5645308" lon="12.581532"><ele>941.3333333333334</ele><time>2026-05-01T15:45:03.001Z</time></trkpt><trkpt lat="46.5644913" lon="12.5814319"><ele>941.5</ele><time>2026-05-01T15:45:03.996Z</time></trkpt><trkpt lat="46.564436" lon="12.5813239"><ele>941.6666666666667</ele><time>2026-05-01T15:45:05.996Z</time></trkpt><trkpt lat="46.5643586" lon="12.5812973"><ele>941.8333333333334</ele><time>2026-05-01T15:45:08.003Z</time></trkpt><trkpt lat="46.5642915" lon="12.5813116"><ele>942.0</ele><time>2026-05-01T15:45:08.997Z</time></trkpt><trkpt lat="46.5642131" lon="12.5813498"><ele>941.25</ele><time>2026-05-01T15:45:10.003Z</time></trkpt><trkpt lat="46.5641141" lon="12.5814044"><ele>940.5</ele><time>2026-05-01T15:45:11.009Z</time></trkpt><trkpt lat="46.564004" lon="12.5814564"><ele>939.75</ele><time>2026-05-01T15:45:12.005Z</time></trkpt><trkpt lat="46.5638942" lon="12.5815118"><ele>939.0</ele><time>2026-05-01T15:45:13.002Z</time></trkpt><trkpt lat="46.5637768" lon="12.5815662"><ele>940.0</ele><time>2026-05-01T15:45:14.001Z</time></trkpt><trkpt lat="46.5636635" lon="12.581636"><ele>941.0</ele><time>2026-05-01T15:45:15.01Z</time></trkpt><trkpt lat="46.5635571" lon="12.5817029"><ele>942.0</ele><time>2026-05-01T15:45:16.001Z</time></trkpt><trkpt lat="46.5634473" lon="12.5817793"><ele>943.0</ele><time>2026-05-01T15:45:17.006Z</time></trkpt><trkpt lat="46.5633275" lon="12.5818641"><ele>943.0</ele><time>2026-05-01T15:45:18.007Z</time></trkpt><trkpt lat="46.5632003" lon="12.5819513"><ele>943.0</ele><time>2026-05-01T15:45:19.003Z</time></trkpt><trkpt lat="46.5630686" lon="12.5820418"><ele>943.0</ele><time>2026-05-01T15:45:19.999Z</time></trkpt><trkpt lat="46.5629355" lon="12.5821349"><ele>943.0</ele><time>2026-05-01T15:45:21.002Z</time></trkpt><trkpt lat="46.5628063" lon="12.5822333"><ele>944.25</ele><time>2026-05-01T15:45:22.003Z</time></trkpt><trkpt lat="46.5626829" lon="12.5823535"><ele>945.5</ele><time>2026-05-01T15:45:23.005Z</time></trkpt><trkpt lat="46.5625738" lon="12.5824545"><ele>946.75</ele><time>2026-05-01T15:45:24.011Z</time></trkpt><trkpt lat="46.5624721" lon="12.5825454"><ele>948.0</ele><time>2026-05-01T15:45:25Z</time></trkpt><trkpt lat="46.5623677" lon="12.5826447"><ele>948.0</ele><time>2026-05-01T15:45:26.004Z</time></trkpt><trkpt lat="46.562262" lon="12.5827524"><ele>948.0</ele><time>2026-05-01T15:45:26.996Z</time></trkpt><trkpt lat="46.5621618" lon="12.5828694"><ele>948.0</ele><time>2026-05-01T15:45:27.997Z</time></trkpt><trkpt lat="46.5620658" lon="12.5829978"><ele>948.0</ele><time>2026-05-01T15:45:29.004Z</time></trkpt><trkpt lat="46.5619778" lon="12.583158"><ele>947.6666666666667</ele><time>2026-05-01T15:45:29.996Z</time></trkpt><trkpt lat="46.5618842" lon="12.5833205"><ele>947.3333333333334</ele><time>2026-05-01T15:45:30.997Z</time></trkpt><trkpt lat="46.5617853" lon="12.583496"><ele>947.0</ele><time>2026-05-01T15:45:32.008Z</time></trkpt><trkpt lat="46.5616719" lon="12.5836657"><ele>948.3333333333334</ele><time>2026-05-01T15:45:33.004Z</time></trkpt><trkpt lat="46.5615537" lon="12.5838269"><ele>949.6666666666667</ele><time>2026-05-01T15:45:34.012Z</time></trkpt><trkpt lat="46.561438" lon="12.5839655"><ele>951.0</ele><time>2026-05-01T15:45:34.994Z</time></trkpt><trkpt lat="46.5613173" lon="12.5840991"><ele>951.3333333333333</ele><time>2026-05-01T15:45:36Z</time></trkpt><trkpt lat="46.5611878" lon="12.5842158"><ele>951.6666666666666</ele><time>2026-05-01T15:45:37Z</time></trkpt><trkpt lat="46.5610576" lon="12.5843282"><ele>952.0</ele><time>2026-05-01T15:45:38.006Z</time></trkpt><trkpt lat="46.5609249" lon="12.5844248"><ele>955.25</ele><time>2026-05-01T15:45:39.003Z</time></trkpt><trkpt lat="46.5607991" lon="12.5845154"><ele>958.5</ele><time>2026-05-01T15:45:40.004Z</time></trkpt><trkpt lat="46.5606627" lon="12.5845894"><ele>961.75</ele><time>2026-05-01T15:45:41.005Z</time></trkpt><trkpt lat="46.5605171" lon="12.5846499"><ele>965.0</ele><time>2026-05-01T15:45:42.002Z</time></trkpt><trkpt lat="46.5603692" lon="12.5847058"><ele>961.6666666666667</ele><time>2026-05-01T15:45:43.003Z</time></trkpt><trkpt lat="46.5602164" lon="12.5847584"><ele>958.3333333333333</ele><time>2026-05-01T15:45:44.003Z</time></trkpt><trkpt lat="46.5600611" lon="12.5848127"><ele>955.0</ele><time>2026-05-01T15:45:44.999Z</time></trkpt><trkpt lat="46.5598899" lon="12.5848589"><ele>955.0</ele><time>2026-05-01T15:45:46.004Z</time></trkpt><trkpt lat="46.5597114" lon="12.5848959"><ele>955.0</ele><time>2026-05-01T15:45:47.004Z</time></trkpt><trkpt lat="46.5595424" lon="12.5849346"><ele>955.0</ele><time>2026-05-01T15:45:48.004Z</time></trkpt><trkpt lat="46.5593808" lon="12.5849561"><ele>955.5</ele><time>2026-05-01T15:45:49Z</time></trkpt><trkpt lat="46.5592323" lon="12.5849797"><ele>956.0</ele><time>2026-05-01T15:45:49.998Z</time></trkpt><trkpt lat="46.5590891" lon="12.5850116"><ele>956.5</ele><time>2026-05-01T15:45:51.009Z</time></trkpt><trkpt lat="46.5589488" lon="12.5850774"><ele>957.0</ele><time>2026-05-01T15:45:52Z</time></trkpt><trkpt lat="46.5588105" lon="12.5851681"><ele>960.6666666666667</ele><time>2026-05-01T15:45:53Z</time></trkpt><trkpt lat="46.5586677" lon="12.585288"><ele>964.3333333333334</ele><time>2026-05-01T15:45:53.992Z</time></trkpt><trkpt lat="46.5585343" lon="12.5854232"><ele>968.0</ele><time>2026-05-01T15:45:55.001Z</time></trkpt><trkpt lat="46.5583858" lon="12.5855388"><ele>969.6666666666667</ele><time>2026-05-01T15:45:55.999Z</time></trkpt><trkpt lat="46.5582289" lon="12.5856564"><ele>971.3333333333333</ele><time>2026-05-01T15:45:57.002Z</time></trkpt><trkpt lat="46.558065" lon="12.5857615"><ele>973.0</ele><time>2026-05-01T15:45:58Z</time></trkpt><trkpt lat="46.5578868" lon="12.5858655"><ele>971.0</ele><time>2026-05-01T15:45:58.995Z</time></trkpt><trkpt lat="46.5577104" lon="12.5859625"><ele>969.0</ele><time>2026-05-01T15:46:00.002Z</time></trkpt><trkpt lat="46.5575326" lon="12.5860563"><ele>967.0</ele><time>2026-05-01T15:46:00.996Z</time></trkpt><trkpt lat="46.5573533" lon="12.5861483"><ele>970.3333333333333</ele><time>2026-05-01T15:46:01.998Z</time></trkpt><trkpt lat="46.557188" lon="12.5862345"><ele>973.6666666666667</ele><time>2026-05-01T15:46:03Z</time></trkpt><trkpt lat="46.557036" lon="12.5863039"><ele>977.0</ele><time>2026-05-01T15:46:04.006Z</time></trkpt><trkpt lat="46.5569016" lon="12.5863712"><ele>977.0</ele><time>2026-05-01T15:46:04.997Z</time></trkpt><trkpt lat="46.5567776" lon="12.5864254"><ele>977.0</ele><time>2026-05-01T15:46:06Z</time></trkpt><trkpt lat="46.5566621" lon="12.5864844"><ele>977.0</ele><time>2026-05-01T15:46:06.998Z</time></trkpt><trkpt lat="46.5565582" lon="12.5865211"><ele>977.0</ele><time>2026-05-01T15:46:08Z</time></trkpt><trkpt lat="46.5564652" lon="12.5865218"><ele>977.0</ele><time>2026-05-01T15:46:09Z</time></trkpt><trkpt lat="46.5563791" lon="12.5865225"><ele>977.0</ele><time>2026-05-01T15:46:10.001Z</time></trkpt><trkpt lat="46.5562884" lon="12.5865174"><ele>977.0</ele><time>2026-05-01T15:46:11.005Z</time></trkpt><trkpt lat="46.5561823" lon="12.5865165"><ele>977.0</ele><time>2026-05-01T15:46:11.998Z</time></trkpt><trkpt lat="46.5560634" lon="12.5865231"><ele>977.0</ele><time>2026-05-01T15:46:13.003Z</time></trkpt><trkpt lat="46.5559404" lon="12.5865269"><ele>975.25</ele><time>2026-05-01T15:46:14Z</time></trkpt><trkpt lat="46.5558172" lon="12.586538"><ele>973.5</ele><time>2026-05-01T15:46:15.001Z</time></trkpt><trkpt lat="46.5556979" lon="12.5865447"><ele>971.75</ele><time>2026-05-01T15:46:15.999Z</time></trkpt><trkpt lat="46.5555898" lon="12.5865585"><ele>970.0</ele><time>2026-05-01T15:46:17.003Z</time></trkpt><trkpt lat="46.5554863" lon="12.586577"><ele>969.9999999999999</ele><time>2026-05-01T15:46:17.997Z</time></trkpt><trkpt lat="46.5553899" lon="12.5865969"><ele>970.0</ele><time>2026-05-01T15:46:19.005Z</time></trkpt><trkpt lat="46.5553056" lon="12.5866073"><ele>970.0</ele><time>2026-05-01T15:46:19.999Z</time></trkpt><trkpt lat="46.5552328" lon="12.5866221"><ele>970.0</ele><time>2026-05-01T15:46:21Z</time></trkpt><trkpt lat="46.5551623" lon="12.5866503"><ele>969.9999999999999</ele><time>2026-05-01T15:46:22.005Z</time></trkpt><trkpt lat="46.5550999" lon="12.5866981"><ele>970.0</ele><time>2026-05-01T15:46:22.996Z</time></trkpt><trkpt lat="46.5550487" lon="12.5867597"><ele>970.6666666666666</ele><time>2026-05-01T15:46:24.009Z</time></trkpt><trkpt lat="46.5549984" lon="12.5868182"><ele>971.3333333333333</ele><time>2026-05-01T15:46:24.998Z</time></trkpt><trkpt lat="46.5549433" lon="12.5868882"><ele>972.0</ele><time>2026-05-01T15:46:26.001Z</time></trkpt><trkpt lat="46.5548846" lon="12.5869565"><ele>972.6666666666667</ele><time>2026-05-01T15:46:26.993Z</time></trkpt><trkpt lat="46.5548327" lon="12.5870091"><ele>973.3333333333334</ele><time>2026-05-01T15:46:28.01Z</time></trkpt><trkpt lat="46.5547403" lon="12.5870384"><ele>974.0</ele><time>2026-05-01T15:46:30Z</time></trkpt><trkpt lat="46.5546491" lon="12.5869571"><ele>974.0</ele><time>2026-05-01T15:46:31.995Z</time></trkpt><trkpt lat="46.5545534" lon="12.5868979"><ele>974.0000000000001</ele><time>2026-05-01T15:46:33.994Z</time></trkpt><trkpt lat="46.5544507" lon="12.5869228"><ele>974.0000000000001</ele><time>2026-05-01T15:46:35.989Z</time></trkpt><trkpt lat="46.5543915" lon="12.5869745"><ele>974.0</ele><time>2026-05-01T15:46:36.994Z</time></trkpt><trkpt lat="46.5543128" lon="12.5870353"><ele>974.0</ele><time>2026-05-01T15:46:38.002Z</time></trkpt><trkpt lat="46.5542274" lon="12.5870875"><ele>975.0000000000001</ele><time>2026-05-01T15:46:39Z</time></trkpt><trkpt lat="46.5541412" lon="12.587141"><ele>976.0</ele><time>2026-05-01T15:46:40.008Z</time></trkpt><trkpt lat="46.5540522" lon="12.5871788"><ele>977.0</ele><time>2026-05-01T15:46:40.995Z</time></trkpt><trkpt lat="46.5539673" lon="12.5872248"><ele>978.0</ele><time>2026-05-01T15:46:42.002Z</time></trkpt><trkpt lat="46.5538905" lon="12.5872544"><ele>979.0000000000001</ele><time>2026-05-01T15:46:43.003Z</time></trkpt><trkpt lat="46.5538195" lon="12.5872903"><ele>980.0</ele><time>2026-05-01T15:46:44.003Z</time></trkpt><trkpt lat="46.553756" lon="12.5873178"><ele>980.8333333333334</ele><time>2026-05-01T15:46:44.999Z</time></trkpt><trkpt lat="46.5536866" lon="12.5873176"><ele>981.6666666666667</ele><time>2026-05-01T15:46:45.998Z</time></trkpt><trkpt lat="46.5536243" lon="12.5873037"><ele>982.5</ele><time>2026-05-01T15:46:47.005Z</time></trkpt><trkpt lat="46.5535578" lon="12.5872873"><ele>983.3333333333333</ele><time>2026-05-01T15:46:47.999Z</time></trkpt><trkpt lat="46.5534282" lon="12.5872461"><ele>984.1666666666666</ele><time>2026-05-01T15:46:50Z</time></trkpt><trkpt lat="46.553342" lon="12.5872122"><ele>985.0</ele><time>2026-05-01T15:46:50.999Z</time></trkpt><trkpt lat="46.5532482" lon="12.5871773"><ele>985.0</ele><time>2026-05-01T15:46:52.004Z</time></trkpt><trkpt lat="46.5531505" lon="12.5871412"><ele>985.0</ele><time>2026-05-01T15:46:53.003Z</time></trkpt><trkpt lat="46.5530536" lon="12.5871089"><ele>985.0</ele><time>2026-05-01T15:46:54.002Z</time></trkpt><trkpt lat="46.5529612" lon="12.5870609"><ele>985.0</ele><time>2026-05-01T15:46:55.002Z</time></trkpt><trkpt lat="46.5528748" lon="12.5870032"><ele>985.0</ele><time>2026-05-01T15:46:55.996Z</time></trkpt><trkpt lat="46.5527953" lon="12.5869344"><ele>989.3333333333333</ele><time>2026-05-01T15:46:57Z</time></trkpt><trkpt lat="46.5527277" lon="12.5868455"><ele>993.6666666666666</ele><time>2026-05-01T15:46:58.008Z</time></trkpt><trkpt lat="46.5526685" lon="12.5867497"><ele>998.0</ele><time>2026-05-01T15:46:59.005Z</time></trkpt><trkpt lat="46.5526181" lon="12.5866419"><ele>1002.3333333333333</ele><time>2026-05-01T15:47:00.009Z</time></trkpt><trkpt lat="46.5525882" lon="12.5865329"><ele>1006.6666666666666</ele><time>2026-05-01T15:47:00.991Z</time></trkpt><trkpt lat="46.5525483" lon="12.5864159"><ele>1011.0</ele><time>2026-05-01T15:47:01.994Z</time></trkpt><trkpt lat="46.5525148" lon="12.5862795"><ele>1013.1999999999999</ele><time>2026-05-01T15:47:02.993Z</time></trkpt><trkpt lat="46.5524893" lon="12.5861284"><ele>1015.3999999999999</ele><time>2026-05-01T15:47:03.998Z</time></trkpt><trkpt lat="46.5524675" lon="12.5860014"><ele>1017.6</ele><time>2026-05-01T15:47:04.991Z</time></trkpt><trkpt lat="46.5524267" lon="12.585898"><ele>1019.8</ele><time>2026-05-01T15:47:06.003Z</time></trkpt><trkpt lat="46.5523798" lon="12.5857746"><ele>1022.0</ele><time>2026-05-01T15:47:07.002Z</time></trkpt><trkpt lat="46.5523213" lon="12.5856516"><ele>1022.0</ele><time>2026-05-01T15:47:08.002Z</time></trkpt><trkpt lat="46.5522509" lon="12.5855546"><ele>1022.0</ele><time>2026-05-01T15:47:08.994Z</time></trkpt><trkpt lat="46.5521826" lon="12.5854894"><ele>1022.0</ele><time>2026-05-01T15:47:10Z</time></trkpt><trkpt lat="46.5520999" lon="12.5854406"><ele>1022.0</ele><time>2026-05-01T15:47:11.009Z</time></trkpt><trkpt lat="46.5519986" lon="12.5853912"><ele>1022.0</ele><time>2026-05-01T15:47:11.995Z</time></trkpt><trkpt lat="46.551896" lon="12.58535"><ele>1026.5</ele><time>2026-05-01T15:47:13.007Z</time></trkpt><trkpt lat="46.5518088" lon="12.5853172"><ele>1031.0</ele><time>2026-05-01T15:47:13.999Z</time></trkpt><trkpt lat="46.5517351" lon="12.5852903"><ele>1035.5</ele><time>2026-05-01T15:47:14.999Z</time></trkpt><trkpt lat="46.5516624" lon="12.5852676"><ele>1040.0</ele><time>2026-05-01T15:47:16.003Z</time></trkpt><trkpt lat="46.5515857" lon="12.58524"><ele>1044.5</ele><time>2026-05-01T15:47:17.998Z</time></trkpt><trkpt lat="46.551515" lon="12.5852483"><ele>1049.0</ele><time>2026-05-01T15:47:20.012Z</time></trkpt><trkpt lat="46.5515776" lon="12.5852344"><ele>1049.0</ele><time>2026-05-01T15:47:38.001Z</time></trkpt><trkpt lat="46.5516593" lon="12.5851699"><ele>1049.0</ele><time>2026-05-01T15:47:40.012Z</time></trkpt><trkpt lat="46.5516898" lon="12.5850787"><ele>1049.0</ele><time>2026-05-01T15:47:41.997Z</time></trkpt><trkpt lat="46.5516199" lon="12.5849871"><ele>1049.0</ele><time>2026-05-01T15:47:44.995Z</time></trkpt><trkpt lat="46.5515306" lon="12.5849975"><ele>1049.0</ele><time>2026-05-01T15:47:46.998Z</time></trkpt><trkpt lat="46.5514151" lon="12.5850038"><ele>1049.0</ele><time>2026-05-01T15:47:48.999Z</time></trkpt><trkpt lat="46.5513494" lon="12.5850021"><ele>1049.0</ele><time>2026-05-01T15:47:50.002Z</time></trkpt><trkpt lat="46.5512772" lon="12.584983"><ele>1049.0</ele><time>2026-05-01T15:47:51.002Z</time></trkpt><trkpt lat="46.5512053" lon="12.5849597"><ele>1049.0</ele><time>2026-05-01T15:47:51.999Z</time></trkpt><trkpt lat="46.5511285" lon="12.5849352"><ele>1049.0</ele><time>2026-05-01T15:47:52.999Z</time></trkpt><trkpt lat="46.5510486" lon="12.5849113"><ele>1049.0</ele><time>2026-05-01T15:47:54.002Z</time></trkpt><trkpt lat="46.5509683" lon="12.5849022"><ele>1050.4285714285713</ele><time>2026-05-01T15:47:55Z</time></trkpt><trkpt lat="46.5508903" lon="12.5849142"><ele>1051.857142857143</ele><time>2026-05-01T15:47:55.998Z</time></trkpt><trkpt lat="46.5508196" lon="12.5849321"><ele>1053.2857142857142</ele><time>2026-05-01T15:47:57.002Z</time></trkpt><trkpt lat="46.5507532" lon="12.5849313"><ele>1054.7142857142858</ele><time>2026-05-01T15:47:57.999Z</time></trkpt><trkpt lat="46.5506842" lon="12.5849107"><ele>1056.142857142857</ele><time>2026-05-01T15:47:59.001Z</time></trkpt><trkpt lat="46.5506213" lon="12.5848867"><ele>1057.5714285714284</ele><time>2026-05-01T15:48:00.002Z</time></trkpt><trkpt lat="46.5505521" lon="12.584851"><ele>1059.0</ele><time>2026-05-01T15:48:01.006Z</time></trkpt><trkpt lat="46.5504801" lon="12.5848203"><ele>1059.0</ele><time>2026-05-01T15:48:01.995Z</time></trkpt><trkpt lat="46.5504117" lon="12.5847969"><ele>1059.0</ele><time>2026-05-01T15:48:03.005Z</time></trkpt><trkpt lat="46.5503012" lon="12.5847752"><ele>1059.0</ele><time>2026-05-01T15:48:04.998Z</time></trkpt><trkpt lat="46.550262" lon="12.5846911"><ele>1059.0</ele><time>2026-05-01T15:48:08.999Z</time></trkpt><trkpt lat="46.5503439" lon="12.5846519"><ele>1059.0</ele><time>2026-05-01T15:48:11.001Z</time></trkpt><trkpt lat="46.5504632" lon="12.5845965"><ele>1059.0</ele><time>2026-05-01T15:48:13Z</time></trkpt><trkpt lat="46.5505299" lon="12.5845375"><ele>1059.0</ele><time>2026-05-01T15:48:14.005Z</time></trkpt><trkpt lat="46.5506038" lon="12.5844974"><ele>1059.0</ele><time>2026-05-01T15:48:15Z</time></trkpt><trkpt lat="46.5506802" lon="12.5844979"><ele>1059.0</ele><time>2026-05-01T15:48:16.002Z</time></trkpt><trkpt lat="46.5507477" lon="12.584522"><ele>1059.0</ele><time>2026-05-01T15:48:17.004Z</time></trkpt><trkpt lat="46.550813" lon="12.5845368"><ele>1059.0</ele><time>2026-05-01T15:48:17.997Z</time></trkpt><trkpt lat="46.5508808" lon="12.5845225"><ele>1059.0</ele><time>2026-05-01T15:48:19.004Z</time></trkpt><trkpt lat="46.5509517" lon="12.5844696"><ele>1062.2857142857142</ele><time>2026-05-01T15:48:20Z</time></trkpt><trkpt lat="46.5510112" lon="12.5844062"><ele>1065.5714285714284</ele><time>2026-05-01T15:48:20.995Z</time></trkpt><trkpt lat="46.5510749" lon="12.584371"><ele>1068.857142857143</ele><time>2026-05-01T15:48:22.003Z</time></trkpt><trkpt lat="46.5511425" lon="12.5843494"><ele>1072.142857142857</ele><time>2026-05-01T15:48:23Z</time></trkpt><trkpt lat="46.5512084" lon="12.5843246"><ele>1075.4285714285716</ele><time>2026-05-01T15:48:24.005Z</time></trkpt><trkpt lat="46.5512819" lon="12.5842961"><ele>1078.7142857142858</ele><time>2026-05-01T15:48:24.995Z</time></trkpt><trkpt lat="46.5513565" lon="12.5842586"><ele>1082.0</ele><time>2026-05-01T15:48:26.008Z</time></trkpt><trkpt lat="46.5514334" lon="12.5842354"><ele>1082.0</ele><time>2026-05-01T15:48:26.999Z</time></trkpt><trkpt lat="46.5514974" lon="12.5842167"><ele>1082.0</ele><time>2026-05-01T15:48:27.993Z</time></trkpt><trkpt lat="46.5515653" lon="12.5842011"><ele>1082.0</ele><time>2026-05-01T15:48:28.996Z</time></trkpt><trkpt lat="46.5516309" lon="12.5841894"><ele>1082.0</ele><time>2026-05-01T15:48:30.002Z</time></trkpt><trkpt lat="46.5517307" lon="12.5840946"><ele>1082.0</ele><time>2026-05-01T15:48:32.011Z</time></trkpt><trkpt lat="46.5518104" lon="12.5840124"><ele>1082.0</ele><time>2026-05-01T15:48:33.998Z</time></trkpt><trkpt lat="46.5518795" lon="12.5840103"><ele>1082.0</ele><time>2026-05-01T15:48:35.001Z</time></trkpt><trkpt lat="46.5519551" lon="12.584028"><ele>1082.0</ele><time>2026-05-01T15:48:35.999Z</time></trkpt><trkpt lat="46.5520241" lon="12.5840334"><ele>1082.0</ele><time>2026-05-01T15:48:37.005Z</time></trkpt><trkpt lat="46.5521177" lon="12.5840037"><ele>1082.0</ele><time>2026-05-01T15:48:39.004Z</time></trkpt><trkpt lat="46.5522118" lon="12.5838456"><ele>1082.0</ele><time>2026-05-01T15:48:41.002Z</time></trkpt><trkpt lat="46.5522534" lon="12.5837508"><ele>1083.8333333333335</ele><time>2026-05-01T15:48:41.995Z</time></trkpt><trkpt lat="46.5523047" lon="12.5836721"><ele>1085.6666666666667</ele><time>2026-05-01T15:48:43.008Z</time></trkpt><trkpt lat="46.5523532" lon="12.5835856"><ele>1087.5</ele><time>2026-05-01T15:48:43.998Z</time></trkpt><trkpt lat="46.5523965" lon="12.5835127"><ele>1089.3333333333333</ele><time>2026-05-01T15:48:45.001Z</time></trkpt><trkpt lat="46.5524645" lon="12.5833756"><ele>1091.1666666666665</ele><time>2026-05-01T15:48:47.002Z</time></trkpt><trkpt lat="46.5524876" lon="12.5832393"><ele>1093.0</ele><time>2026-05-01T15:48:49.005Z</time></trkpt><trkpt lat="46.5524796" lon="12.5831401"><ele>1093.0</ele><time>2026-05-01T15:48:50.998Z</time></trkpt><trkpt lat="46.5523783" lon="12.5831218"><ele>1093.0</ele><time>2026-05-01T15:48:54.002Z</time></trkpt><trkpt lat="46.5523001" lon="12.5831079"><ele>1093.0</ele><time>2026-05-01T15:48:55.003Z</time></trkpt><trkpt lat="46.5521945" lon="12.5830804"><ele>1093.0</ele><time>2026-05-01T15:48:57.002Z</time></trkpt><trkpt lat="46.5521663" lon="12.5829783"><ele>1093.0</ele><time>2026-05-01T15:49:00.001Z</time></trkpt><trkpt lat="46.5522102" lon="12.5828777"><ele>1093.0</ele><time>2026-05-01T15:49:02.996Z</time></trkpt><trkpt lat="46.5522502" lon="12.5827307"><ele>1095.6666666666665</ele><time>2026-05-01T15:49:05.004Z</time></trkpt><trkpt lat="46.5522627" lon="12.5826356"><ele>1098.3333333333333</ele><time>2026-05-01T15:49:06.007Z</time></trkpt><trkpt lat="46.5522255" lon="12.5824782"><ele>1101.0</ele><time>2026-05-01T15:49:08.003Z</time></trkpt><trkpt lat="46.5521967" lon="12.582381"><ele>1103.6666666666667</ele><time>2026-05-01T15:49:09.006Z</time></trkpt><trkpt lat="46.5521681" lon="12.5822903"><ele>1106.3333333333335</ele><time>2026-05-01T15:49:10Z</time></trkpt><trkpt lat="46.5521375" lon="12.5821877"><ele>1109.0</ele><time>2026-05-01T15:49:11Z</time></trkpt><trkpt lat="46.552112" lon="12.5820954"><ele>1109.8571428571427</ele><time>2026-05-01T15:49:11.997Z</time></trkpt><trkpt lat="46.5520828" lon="12.5819897"><ele>1110.7142857142858</ele><time>2026-05-01T15:49:12.999Z</time></trkpt><trkpt lat="46.5520723" lon="12.5818793"><ele>1111.5714285714284</ele><time>2026-05-01T15:49:13.998Z</time></trkpt><trkpt lat="46.5520829" lon="12.5817634"><ele>1112.4285714285713</ele><time>2026-05-01T15:49:15.005Z</time></trkpt><trkpt lat="46.5520999" lon="12.5816683"><ele>1113.2857142857142</ele><time>2026-05-01T15:49:16.006Z</time></trkpt><trkpt lat="46.552125" lon="12.581575"><ele>1114.142857142857</ele><time>2026-05-01T15:49:16.998Z</time></trkpt><trkpt lat="46.5521572" lon="12.5814802"><ele>1115.0</ele><time>2026-05-01T15:49:18.008Z</time></trkpt><trkpt lat="46.5521924" lon="12.5813491"><ele>1115.0</ele><time>2026-05-01T15:49:20.005Z</time></trkpt><trkpt lat="46.5521263" lon="12.5812877"><ele>1115.0</ele><time>2026-05-01T15:49:23.001Z</time></trkpt><trkpt lat="46.5520599" lon="12.5813046"><ele>1115.0</ele><time>2026-05-01T15:49:25.001Z</time></trkpt><trkpt lat="46.5519915" lon="12.5813032"><ele>1115.0</ele><time>2026-05-01T15:49:27.996Z</time></trkpt><trkpt lat="46.5520156" lon="12.5812087"><ele>1115.0</ele><time>2026-05-01T15:49:30.995Z</time></trkpt><trkpt lat="46.5520663" lon="12.5811113"><ele>1115.0</ele><time>2026-05-01T15:49:32.996Z</time></trkpt><trkpt lat="46.5520907" lon="12.5809911"><ele>1118.1666666666667</ele><time>2026-05-01T15:49:34.994Z</time></trkpt><trkpt lat="46.5521053" lon="12.5808556"><ele>1121.3333333333335</ele><time>2026-05-01T15:49:36.994Z</time></trkpt><trkpt lat="46.5521019" lon="12.5807544"><ele>1124.5</ele><time>2026-05-01T15:49:37.997Z</time></trkpt><trkpt lat="46.5521093" lon="12.5806551"><ele>1127.6666666666667</ele><time>2026-05-01T15:49:38.997Z</time></trkpt><trkpt lat="46.5521296" lon="12.5805524"><ele>1130.8333333333333</ele><time>2026-05-01T15:49:39.997Z</time></trkpt><trkpt lat="46.5521589" lon="12.5804571"><ele>1134.0</ele><time>2026-05-01T15:49:40.995Z</time></trkpt><trkpt lat="46.5521896" lon="12.5803592"><ele>1136.5</ele><time>2026-05-01T15:49:42.005Z</time></trkpt><trkpt lat="46.5522133" lon="12.5802312"><ele>1139.0</ele><time>2026-05-01T15:49:43.002Z</time></trkpt><trkpt lat="46.5522346" lon="12.5801242"><ele>1141.5</ele><time>2026-05-01T15:49:44.007Z</time></trkpt><trkpt lat="46.5522514" lon="12.5800204"><ele>1144.0</ele><time>2026-05-01T15:49:45Z</time></trkpt><trkpt lat="46.5522756" lon="12.5799337"><ele>1146.5</ele><time>2026-05-01T15:49:45.997Z</time></trkpt><trkpt lat="46.5523068" lon="12.5797783"><ele>1149.0</ele><time>2026-05-01T15:49:48.002Z</time></trkpt><trkpt lat="46.5523642" lon="12.5796958"><ele>1149.0</ele><time>2026-05-01T15:49:50.004Z</time></trkpt><trkpt lat="46.5524629" lon="12.5796807"><ele>1149.0</ele><time>2026-05-01T15:49:53.001Z</time></trkpt><trkpt lat="46.5525627" lon="12.5796256"><ele>1149.0</ele><time>2026-05-01T15:49:55.008Z</time></trkpt><trkpt lat="46.5526596" lon="12.5795169"><ele>1149.0</ele><time>2026-05-01T15:49:57.001Z</time></trkpt><trkpt lat="46.5527449" lon="12.5794893"><ele>1149.0</ele><time>2026-05-01T15:49:59.002Z</time></trkpt><trkpt lat="46.5528212" lon="12.5795672"><ele>1151.4</ele><time>2026-05-01T15:50:01.004Z</time></trkpt><trkpt lat="46.5528858" lon="12.5797092"><ele>1153.8000000000002</ele><time>2026-05-01T15:50:03.001Z</time></trkpt><trkpt lat="46.5529399" lon="12.5798584"><ele>1156.1999999999998</ele><time>2026-05-01T15:50:05.007Z</time></trkpt><trkpt lat="46.5529993" lon="12.5799673"><ele>1158.6</ele><time>2026-05-01T15:50:07Z</time></trkpt><trkpt lat="46.553091" lon="12.58002"><ele>1161.0</ele><time>2026-05-01T15:50:09.004Z</time></trkpt><trkpt lat="46.5531786" lon="12.5800044"><ele>1161.0</ele><time>2026-05-01T15:50:11.004Z</time></trkpt><trkpt lat="46.5532323" lon="12.5799106"><ele>1161.0</ele><time>2026-05-01T15:50:12.998Z</time></trkpt><trkpt lat="46.5532382" lon="12.5798129"><ele>1161.0</ele><time>2026-05-01T15:50:15.001Z</time></trkpt><trkpt lat="46.5531811" lon="12.5797548"><ele>1161.0</ele><time>2026-05-01T15:50:16.995Z</time></trkpt><trkpt lat="46.5531262" lon="12.5796588"><ele>1161.0</ele><time>2026-05-01T15:50:18.999Z</time></trkpt><trkpt lat="46.5531307" lon="12.5795545"><ele>1161.0</ele><time>2026-05-01T15:50:21.002Z</time></trkpt><trkpt lat="46.5532223" lon="12.5795553"><ele>1161.0</ele><time>2026-05-01T15:50:23.003Z</time></trkpt><trkpt lat="46.553335" lon="12.5795309"><ele>1161.0</ele><time>2026-05-01T15:50:25.003Z</time></trkpt><trkpt lat="46.5534324" lon="12.5794841"><ele>1161.0</ele><time>2026-05-01T15:50:27.002Z</time></trkpt><trkpt lat="46.5535311" lon="12.5795246"><ele>1161.0</ele><time>2026-05-01T15:50:28.997Z</time></trkpt><trkpt lat="46.5536023" lon="12.5796664"><ele>1161.0</ele><time>2026-05-01T15:50:31.003Z</time></trkpt><trkpt lat="46.5536752" lon="12.5797775"><ele>1164.0</ele><time>2026-05-01T15:50:33.004Z</time></trkpt><trkpt lat="46.5537647" lon="12.5798069"><ele>1167.0</ele><time>2026-05-01T15:50:35.007Z</time></trkpt><trkpt lat="46.5538669" lon="12.5797381"><ele>1170.0</ele><time>2026-05-01T15:50:37.008Z</time></trkpt><trkpt lat="46.5539254" lon="12.579688"><ele>1173.0</ele><time>2026-05-01T15:50:38.003Z</time></trkpt><trkpt lat="46.5539875" lon="12.5796389"><ele>1176.0</ele><time>2026-05-01T15:50:38.998Z</time></trkpt><trkpt lat="46.5540483" lon="12.579596"><ele>1179.0</ele><time>2026-05-01T15:50:40.006Z</time></trkpt><trkpt lat="46.5541168" lon="12.5795556"><ele>1179.0</ele><time>2026-05-01T15:50:41.008Z</time></trkpt><trkpt lat="46.5541911" lon="12.5795191"><ele>1179.0</ele><time>2026-05-01T15:50:42.001Z</time></trkpt><trkpt lat="46.5542605" lon="12.5794972"><ele>1179.0</ele><time>2026-05-01T15:50:43.004Z</time></trkpt><trkpt lat="46.5543393" lon="12.5794631"><ele>1179.0</ele><time>2026-05-01T15:50:43.996Z</time></trkpt><trkpt lat="46.5544284" lon="12.5794175"><ele>1179.0</ele><time>2026-05-01T15:50:44.997Z</time></trkpt><trkpt lat="46.5545174" lon="12.5793756"><ele>1179.0</ele><time>2026-05-01T15:50:46Z</time></trkpt><trkpt lat="46.5546009" lon="12.5793444"><ele>1182.8333333333333</ele><time>2026-05-01T15:50:47Z</time></trkpt><trkpt lat="46.5546873" lon="12.5793328"><ele>1186.6666666666667</ele><time>2026-05-01T15:50:48.002Z</time></trkpt><trkpt lat="46.5547645" lon="12.5793149"><ele>1190.5</ele><time>2026-05-01T15:50:49Z</time></trkpt><trkpt lat="46.5548407" lon="12.5792866"><ele>1194.3333333333335</ele><time>2026-05-01T15:50:50.006Z</time></trkpt><trkpt lat="46.5549095" lon="12.5792209"><ele>1198.1666666666667</ele><time>2026-05-01T15:50:51.001Z</time></trkpt><trkpt lat="46.5549836" lon="12.5791512"><ele>1202.0</ele><time>2026-05-01T15:50:52.01Z</time></trkpt><trkpt lat="46.5550478" lon="12.5790808"><ele>1202.0</ele><time>2026-05-01T15:50:53Z</time></trkpt><trkpt lat="46.5551008" lon="12.5789945"><ele>1202.0</ele><time>2026-05-01T15:50:54.004Z</time></trkpt><trkpt lat="46.5551318" lon="12.5788802"><ele>1202.0</ele><time>2026-05-01T15:50:55.003Z</time></trkpt><trkpt lat="46.5551566" lon="12.5787817"><ele>1202.0</ele><time>2026-05-01T15:50:55.992Z</time></trkpt><trkpt lat="46.5551654" lon="12.5786436"><ele>1202.0</ele><time>2026-05-01T15:50:57.998Z</time></trkpt><trkpt lat="46.5551072" lon="12.5785509"><ele>1202.0</ele><time>2026-05-01T15:51:00Z</time></trkpt><trkpt lat="46.5549823" lon="12.5785303"><ele>1204.8333333333335</ele><time>2026-05-01T15:51:01.999Z</time></trkpt><trkpt lat="46.5549109" lon="12.5785321"><ele>1207.6666666666667</ele><time>2026-05-01T15:51:02.998Z</time></trkpt><trkpt lat="46.5548383" lon="12.578526"><ele>1210.5</ele><time>2026-05-01T15:51:04.001Z</time></trkpt><trkpt lat="46.5547627" lon="12.5785258"><ele>1213.3333333333333</ele><time>2026-05-01T15:51:04.999Z</time></trkpt><trkpt lat="46.5546861" lon="12.5785216"><ele>1216.1666666666665</ele><time>2026-05-01T15:51:06.005Z</time></trkpt><trkpt lat="46.5545983" lon="12.5785188"><ele>1219.0</ele><time>2026-05-01T15:51:07.001Z</time></trkpt><trkpt lat="46.5545021" lon="12.5785131"><ele>1220.1666666666665</ele><time>2026-05-01T15:51:08.009Z</time></trkpt><trkpt lat="46.5544141" lon="12.5784854"><ele>1221.3333333333333</ele><time>2026-05-01T15:51:09.003Z</time></trkpt><trkpt lat="46.5543401" lon="12.5784545"><ele>1222.5</ele><time>2026-05-01T15:51:10.001Z</time></trkpt><trkpt lat="46.5542732" lon="12.5784133"><ele>1223.6666666666667</ele><time>2026-05-01T15:51:11.006Z</time></trkpt><trkpt lat="46.5542133" lon="12.5783675"><ele>1224.8333333333335</ele><time>2026-05-01T15:51:12.004Z</time></trkpt><trkpt lat="46.5541641" lon="12.5782367"><ele>1226.0</ele><time>2026-05-01T15:51:13.997Z</time></trkpt><trkpt lat="46.5541929" lon="12.5781259"><ele>1226.0</ele><time>2026-05-01T15:51:15.995Z</time></trkpt><trkpt lat="46.554276" lon="12.578036"><ele>1226.0</ele><time>2026-05-01T15:51:17.994Z</time></trkpt><trkpt lat="46.5543959" lon="12.5779619"><ele>1226.0</ele><time>2026-05-01T15:51:20.01Z</time></trkpt><trkpt lat="46.5544566" lon="12.5779111"><ele>1226.0</ele><time>2026-05-01T15:51:21.001Z</time></trkpt><trkpt lat="46.5545477" lon="12.5777928"><ele>1226.0</ele><time>2026-05-01T15:51:23.003Z</time></trkpt><trkpt lat="46.5546251" lon="12.5776549"><ele>1226.6666666666667</ele><time>2026-05-01T15:51:25.012Z</time></trkpt><trkpt lat="46.5546572" lon="12.5775727"><ele>1227.3333333333335</ele><time>2026-05-01T15:51:25.998Z</time></trkpt><trkpt lat="46.5546779" lon="12.5774842"><ele>1228.0</ele><time>2026-05-01T15:51:27.008Z</time></trkpt><trkpt lat="46.5546761" lon="12.5773438"><ele>1228.6666666666667</ele><time>2026-05-01T15:51:29Z</time></trkpt><trkpt lat="46.554599" lon="12.5772714"><ele>1229.3333333333333</ele><time>2026-05-01T15:51:31.008Z</time></trkpt><trkpt lat="46.5545404" lon="12.577235"><ele>1230.0</ele><time>2026-05-01T15:51:32.004Z</time></trkpt><trkpt lat="46.5544239" lon="12.5771749"><ele>1232.0</ele><time>2026-05-01T15:51:34Z</time></trkpt><trkpt lat="46.5543112" lon="12.577119"><ele>1234.0</ele><time>2026-05-01T15:51:36.008Z</time></trkpt><trkpt lat="46.5542035" lon="12.5770108"><ele>1236.0</ele><time>2026-05-01T15:51:38.001Z</time></trkpt><trkpt lat="46.55414" lon="12.5769518"><ele>1238.0</ele><time>2026-05-01T15:51:38.997Z</time></trkpt><trkpt lat="46.5540723" lon="12.5768924"><ele>1240.0</ele><time>2026-05-01T15:51:40.001Z</time></trkpt><trkpt lat="46.553995" lon="12.5768371"><ele>1241.8333333333333</ele><time>2026-05-01T15:51:41.005Z</time></trkpt><trkpt lat="46.5539127" lon="12.5767706"><ele>1243.6666666666665</ele><time>2026-05-01T15:51:42.008Z</time></trkpt><trkpt lat="46.5538346" lon="12.5766964"><ele>1245.5</ele><time>2026-05-01T15:51:43.003Z</time></trkpt><trkpt lat="46.5537595" lon="12.5766307"><ele>1247.3333333333333</ele><time>2026-05-01T15:51:43.999Z</time></trkpt><trkpt lat="46.5536927" lon="12.5765848"><ele>1249.1666666666667</ele><time>2026-05-01T15:51:45.004Z</time></trkpt><trkpt lat="46.5536118" lon="12.5765217"><ele>1251.0</ele><time>2026-05-01T15:51:47.004Z</time></trkpt><trkpt lat="46.5536251" lon="12.5763931"><ele>1251.0</ele><time>2026-05-01T15:51:50.003Z</time></trkpt><trkpt lat="46.5537076" lon="12.5762424"><ele>1251.0</ele><time>2026-05-01T15:51:52.002Z</time></trkpt><trkpt lat="46.5537389" lon="12.5761441"><ele>1251.0</ele><time>2026-05-01T15:51:53.006Z</time></trkpt><trkpt lat="46.5537648" lon="12.5760569"><ele>1251.0</ele><time>2026-05-01T15:51:54.003Z</time></trkpt><trkpt lat="46.5537935" lon="12.5759587"><ele>1251.0</ele><time>2026-05-01T15:51:55.003Z</time></trkpt><trkpt lat="46.5538128" lon="12.5758602"><ele>1251.0</ele><time>2026-05-01T15:51:56.013Z</time></trkpt><trkpt lat="46.5538458" lon="12.5757621"><ele>1252.2857142857142</ele><time>2026-05-01T15:51:57.004Z</time></trkpt><trkpt lat="46.5538895" lon="12.5756626"><ele>1253.5714285714287</ele><time>2026-05-01T15:51:58.003Z</time></trkpt><trkpt lat="46.553926" lon="12.5755645"><ele>1254.857142857143</ele><time>2026-05-01T15:51:59.011Z</time></trkpt><trkpt lat="46.5539551" lon="12.5754641"><ele>1256.142857142857</ele><time>2026-05-01T15:52:00.007Z</time></trkpt><trkpt lat="46.5539828" lon="12.5753657"><ele>1257.4285714285716</ele><time>2026-05-01T15:52:01.007Z</time></trkpt><trkpt lat="46.5539986" lon="12.5752698"><ele>1258.7142857142858</ele><time>2026-05-01T15:52:02.007Z</time></trkpt><trkpt lat="46.5540104" lon="12.5751684"><ele>1260.0</ele><time>2026-05-01T15:52:02.998Z</time></trkpt><trkpt lat="46.5540172" lon="12.5750535"><ele>1261.1666666666667</ele><time>2026-05-01T15:52:04.015Z</time></trkpt><trkpt lat="46.5540164" lon="12.5749429"><ele>1262.3333333333333</ele><time>2026-05-01T15:52:05.004Z</time></trkpt><trkpt lat="46.554006" lon="12.5748326"><ele>1263.5</ele><time>2026-05-01T15:52:05.996Z</time></trkpt><trkpt lat="46.5539946" lon="12.5747332"><ele>1264.6666666666665</ele><time>2026-05-01T15:52:07.007Z</time></trkpt><trkpt lat="46.5539804" lon="12.5746295"><ele>1265.8333333333333</ele><time>2026-05-01T15:52:08Z</time></trkpt><trkpt lat="46.5539705" lon="12.5745045"><ele>1267.0</ele><time>2026-05-01T15:52:09Z</time></trkpt><trkpt lat="46.5539683" lon="12.5743709"><ele>1267.0</ele><time>2026-05-01T15:52:10.008Z</time></trkpt><trkpt lat="46.5539611" lon="12.5742467"><ele>1267.0</ele><time>2026-05-01T15:52:11.004Z</time></trkpt><trkpt lat="46.5539541" lon="12.5741325"><ele>1267.0</ele><time>2026-05-01T15:52:12.001Z</time></trkpt><trkpt lat="46.5539455" lon="12.574038"><ele>1267.0</ele><time>2026-05-01T15:52:13.011Z</time></trkpt><trkpt lat="46.5539179" lon="12.573948"><ele>1267.0</ele><time>2026-05-01T15:52:14.002Z</time></trkpt><trkpt lat="46.5538784" lon="12.5738518"><ele>1267.0</ele><time>2026-05-01T15:52:15.012Z</time></trkpt><trkpt lat="46.5538419" lon="12.573753"><ele>1265.6666666666665</ele><time>2026-05-01T15:52:15.995Z</time></trkpt><trkpt lat="46.5537956" lon="12.5736474"><ele>1264.3333333333333</ele><time>2026-05-01T15:52:16.995Z</time></trkpt><trkpt lat="46.5537509" lon="12.5735395"><ele>1263.0</ele><time>2026-05-01T15:52:18.003Z</time></trkpt><trkpt lat="46.5537061" lon="12.5734339"><ele>1261.6666666666667</ele><time>2026-05-01T15:52:19.005Z</time></trkpt><trkpt lat="46.5536628" lon="12.5733465"><ele>1260.3333333333335</ele><time>2026-05-01T15:52:20.003Z</time></trkpt><trkpt lat="46.5536231" lon="12.5732615"><ele>1259.0</ele><time>2026-05-01T15:52:21.01Z</time></trkpt><trkpt lat="46.55358" lon="12.5731837"><ele>1259.8333333333335</ele><time>2026-05-01T15:52:22.006Z</time></trkpt><trkpt lat="46.5535259" lon="12.573116"><ele>1260.6666666666667</ele><time>2026-05-01T15:52:23.002Z</time></trkpt><trkpt lat="46.5534569" lon="12.5730484"><ele>1261.5</ele><time>2026-05-01T15:52:24.005Z</time></trkpt><trkpt lat="46.5533779" lon="12.5729786"><ele>1262.3333333333333</ele><time>2026-05-01T15:52:25.001Z</time></trkpt><trkpt lat="46.5533051" lon="12.5729008"><ele>1263.1666666666665</ele><time>2026-05-01T15:52:25.995Z</time></trkpt><trkpt lat="46.553242" lon="12.5728287"><ele>1264.0</ele><time>2026-05-01T15:52:27.005Z</time></trkpt><trkpt lat="46.5531777" lon="12.5727597"><ele>1264.0</ele><time>2026-05-01T15:52:28.003Z</time></trkpt><trkpt lat="46.5531153" lon="12.5726947"><ele>1264.0</ele><time>2026-05-01T15:52:29.005Z</time></trkpt><trkpt lat="46.5530596" lon="12.5726274"><ele>1264.0</ele><time>2026-05-01T15:52:30.01Z</time></trkpt><trkpt lat="46.5529987" lon="12.5725542"><ele>1264.0</ele><time>2026-05-01T15:52:31.005Z</time></trkpt><trkpt lat="46.5529504" lon="12.5724629"><ele>1264.0</ele><time>2026-05-01T15:52:31.996Z</time></trkpt><trkpt lat="46.5529178" lon="12.572375"><ele>1264.0</ele><time>2026-05-01T15:52:33.004Z</time></trkpt><trkpt lat="46.5528736" lon="12.5722783"><ele>1266.1666666666665</ele><time>2026-05-01T15:52:34.004Z</time></trkpt><trkpt lat="46.5528264" lon="12.5721926"><ele>1268.3333333333333</ele><time>2026-05-01T15:52:35.002Z</time></trkpt><trkpt lat="46.5527798" lon="12.5720975"><ele>1270.5</ele><time>2026-05-01T15:52:36.007Z</time></trkpt><trkpt lat="46.5527254" lon="12.571998"><ele>1272.6666666666667</ele><time>2026-05-01T15:52:37.002Z</time></trkpt><trkpt lat="46.5526677" lon="12.5718878"><ele>1274.8333333333335</ele><time>2026-05-01T15:52:38Z</time></trkpt><trkpt lat="46.5526389" lon="12.5717791"><ele>1277.0</ele><time>2026-05-01T15:52:39.011Z</time></trkpt><trkpt lat="46.5526114" lon="12.5716824"><ele>1277.0</ele><time>2026-05-01T15:52:40.008Z</time></trkpt><trkpt lat="46.5525821" lon="12.5715985"><ele>1277.0</ele><time>2026-05-01T15:52:41.004Z</time></trkpt><trkpt lat="46.5525306" lon="12.5715297"><ele>1277.0</ele><time>2026-05-01T15:52:42.006Z</time></trkpt><trkpt lat="46.5524557" lon="12.5714531"><ele>1277.0</ele><time>2026-05-01T15:52:43.008Z</time></trkpt><trkpt lat="46.5523888" lon="12.5713782"><ele>1277.0</ele><time>2026-05-01T15:52:44.003Z</time></trkpt><trkpt lat="46.5523274" lon="12.5713049"><ele>1277.0</ele><time>2026-05-01T15:52:45.009Z</time></trkpt><trkpt lat="46.552265" lon="12.5712529"><ele>1277.0</ele><time>2026-05-01T15:52:46Z</time></trkpt><trkpt lat="46.5522041" lon="12.5712134"><ele>1277.0</ele><time>2026-05-01T15:52:47.001Z</time></trkpt><trkpt lat="46.5521094" lon="12.5711739"><ele>1277.0</ele><time>2026-05-01T15:52:49.005Z</time></trkpt><trkpt lat="46.5520325" lon="12.5711008"><ele>1277.0</ele><time>2026-05-01T15:52:51.012Z</time></trkpt><trkpt lat="46.5519433" lon="12.5709605"><ele>1277.0</ele><time>2026-05-01T15:52:53.004Z</time></trkpt><trkpt lat="46.5518856" lon="12.5708886"><ele>1278.8333333333335</ele><time>2026-05-01T15:52:54.007Z</time></trkpt><trkpt lat="46.5518185" lon="12.5708094"><ele>1280.6666666666667</ele><time>2026-05-01T15:52:55.011Z</time></trkpt><trkpt lat="46.5517614" lon="12.5707427"><ele>1282.5</ele><time>2026-05-01T15:52:56.003Z</time></trkpt><trkpt lat="46.5516913" lon="12.5706885"><ele>1284.3333333333333</ele><time>2026-05-01T15:52:57.002Z</time></trkpt><trkpt lat="46.5516178" lon="12.5706491"><ele>1286.1666666666665</ele><time>2026-05-01T15:52:58.002Z</time></trkpt><trkpt lat="46.5515432" lon="12.5706149"><ele>1288.0</ele><time>2026-05-01T15:52:59.002Z</time></trkpt><trkpt lat="46.5514672" lon="12.5705753"><ele>1288.0</ele><time>2026-05-01T15:53:00.015Z</time></trkpt><trkpt lat="46.5513963" lon="12.570535"><ele>1288.0</ele><time>2026-05-01T15:53:00.995Z</time></trkpt><trkpt lat="46.551334" lon="12.5704833"><ele>1288.0</ele><time>2026-05-01T15:53:02.003Z</time></trkpt><trkpt lat="46.5512768" lon="12.5704126"><ele>1288.0</ele><time>2026-05-01T15:53:03Z</time></trkpt><trkpt lat="46.5512343" lon="12.5703315"><ele>1288.0</ele><time>2026-05-01T15:53:03.998Z</time></trkpt><trkpt lat="46.5511885" lon="12.5702462"><ele>1288.0</ele><time>2026-05-01T15:53:05Z</time></trkpt><trkpt lat="46.5511423" lon="12.5701522"><ele>1288.0</ele><time>2026-05-01T15:53:06.008Z</time></trkpt><trkpt lat="46.5511022" lon="12.5700534"><ele>1288.1666666666665</ele><time>2026-05-01T15:53:07.004Z</time></trkpt><trkpt lat="46.5510458" lon="12.5699657"><ele>1288.3333333333333</ele><time>2026-05-01T15:53:08Z</time></trkpt><trkpt lat="46.5509827" lon="12.569884"><ele>1288.5</ele><time>2026-05-01T15:53:09.004Z</time></trkpt><trkpt lat="46.5509243" lon="12.569813"><ele>1288.6666666666667</ele><time>2026-05-01T15:53:10.009Z</time></trkpt><trkpt lat="46.5508662" lon="12.569743"><ele>1288.8333333333335</ele><time>2026-05-01T15:53:11.001Z</time></trkpt><trkpt lat="46.5508166" lon="12.5696722"><ele>1289.0</ele><time>2026-05-01T15:53:12Z</time></trkpt><trkpt lat="46.5507586" lon="12.5695269"><ele>1285.2</ele><time>2026-05-01T15:53:14.003Z</time></trkpt><trkpt lat="46.5507198" lon="12.569401"><ele>1281.4</ele><time>2026-05-01T15:53:16.009Z</time></trkpt><trkpt lat="46.5506537" lon="12.5692956"><ele>1277.6</ele><time>2026-05-01T15:53:17.998Z</time></trkpt><trkpt lat="46.5505597" lon="12.569232"><ele>1273.8</ele><time>2026-05-01T15:53:21.003Z</time></trkpt><trkpt lat="46.5505026" lon="12.5691232"><ele>1270.0</ele><time>2026-05-01T15:53:22.999Z</time></trkpt><trkpt lat="46.5505197" lon="12.5690205"><ele>1270.0</ele><time>2026-05-01T15:53:25.003Z</time></trkpt><trkpt lat="46.5505674" lon="12.5689517"><ele>1270.0</ele><time>2026-05-01T15:53:26.996Z</time></trkpt><trkpt lat="46.5506315" lon="12.5688904"><ele>1270.0</ele><time>2026-05-01T15:53:29Z</time></trkpt><trkpt lat="46.5507319" lon="12.5688187"><ele>1270.0</ele><time>2026-05-01T15:53:31.007Z</time></trkpt><trkpt lat="46.5508273" lon="12.5688376"><ele>1270.0</ele><time>2026-05-01T15:53:34.002Z</time></trkpt><trkpt lat="46.550926" lon="12.5689341"><ele>1270.0</ele><time>2026-05-01T15:53:36.004Z</time></trkpt><trkpt lat="46.5510356" lon="12.5690254"><ele>1270.0</ele><time>2026-05-01T15:53:38.003Z</time></trkpt><trkpt lat="46.5511651" lon="12.5690849"><ele>1270.0</ele><time>2026-05-01T15:53:40.001Z</time></trkpt><trkpt lat="46.551238" lon="12.5691192"><ele>1270.0</ele><time>2026-05-01T15:53:41.001Z</time></trkpt><trkpt lat="46.5513074" lon="12.5691578"><ele>1270.0</ele><time>2026-05-01T15:53:42.003Z</time></trkpt><trkpt lat="46.5513789" lon="12.5691955"><ele>1269.6</ele><time>2026-05-01T15:53:43.009Z</time></trkpt><trkpt lat="46.5514389" lon="12.569246"><ele>1269.2</ele><time>2026-05-01T15:53:44.006Z</time></trkpt><trkpt lat="46.5515358" lon="12.5693397"><ele>1268.8</ele><time>2026-05-01T15:53:46.005Z</time></trkpt><trkpt lat="46.5516043" lon="12.5694565"><ele>1268.4</ele><time>2026-05-01T15:53:48.011Z</time></trkpt><trkpt lat="46.5516701" lon="12.5695536"><ele>1268.0</ele><time>2026-05-01T15:53:49.999Z</time></trkpt><trkpt lat="46.5517747" lon="12.5696115"><ele>1268.0</ele><time>2026-05-01T15:53:51.998Z</time></trkpt><trkpt lat="46.5518369" lon="12.5696353"><ele>1268.0</ele><time>2026-05-01T15:53:52.998Z</time></trkpt><trkpt lat="46.551896" lon="12.5696673"><ele>1268.0</ele><time>2026-05-01T15:53:54Z</time></trkpt><trkpt lat="46.5519633" lon="12.5696885"><ele>1268.0</ele><time>2026-05-01T15:53:55.005Z</time></trkpt><trkpt lat="46.5520325" lon="12.569711"><ele>1268.0</ele><time>2026-05-01T15:53:56.005Z</time></trkpt><trkpt lat="46.5521033" lon="12.5697199"><ele>1268.0</ele><time>2026-05-01T15:53:57.007Z</time></trkpt><trkpt lat="46.5522294" lon="12.5697178"><ele>1265.1666666666667</ele><time>2026-05-01T15:53:59.007Z</time></trkpt><trkpt lat="46.5523438" lon="12.5697409"><ele>1262.3333333333335</ele><time>2026-05-01T15:54:01.001Z</time></trkpt><trkpt lat="46.55245" lon="12.569815"><ele>1259.5</ele><time>2026-05-01T15:54:03.005Z</time></trkpt><trkpt lat="46.5524983" lon="12.5698773"><ele>1256.6666666666667</ele><time>2026-05-01T15:54:03.998Z</time></trkpt><trkpt lat="46.5525465" lon="12.5699453"><ele>1253.8333333333333</ele><time>2026-05-01T15:54:05.005Z</time></trkpt><trkpt lat="46.5525994" lon="12.5700036"><ele>1251.0</ele><time>2026-05-01T15:54:05.999Z</time></trkpt><trkpt lat="46.5526471" lon="12.5700927"><ele>1251.0</ele><time>2026-05-01T15:54:07.009Z</time></trkpt><trkpt lat="46.5526888" lon="12.5701855"><ele>1251.0</ele><time>2026-05-01T15:54:08Z</time></trkpt><trkpt lat="46.5527387" lon="12.5702536"><ele>1251.0</ele><time>2026-05-01T15:54:09.007Z</time></trkpt><trkpt lat="46.5527972" lon="12.5703189"><ele>1251.0</ele><time>2026-05-01T15:54:10.006Z</time></trkpt><trkpt lat="46.5528707" lon="12.5703632"><ele>1251.0</ele><time>2026-05-01T15:54:11.003Z</time></trkpt><trkpt lat="46.5529497" lon="12.5704129"><ele>1251.0</ele><time>2026-05-01T15:54:12.005Z</time></trkpt><trkpt lat="46.5530224" lon="12.5704665"><ele>1249.8333333333333</ele><time>2026-05-01T15:54:13Z</time></trkpt><trkpt lat="46.5530847" lon="12.5705046"><ele>1248.6666666666667</ele><time>2026-05-01T15:54:14Z</time></trkpt><trkpt lat="46.5531517" lon="12.5705655"><ele>1247.5</ele><time>2026-05-01T15:54:15.005Z</time></trkpt><trkpt lat="46.5532135" lon="12.5706291"><ele>1246.3333333333335</ele><time>2026-05-01T15:54:16Z</time></trkpt><trkpt lat="46.553273" lon="12.5706856"><ele>1245.1666666666667</ele><time>2026-05-01T15:54:17.008Z</time></trkpt><trkpt lat="46.5533495" lon="12.5707942"><ele>1244.0</ele><time>2026-05-01T15:54:19Z</time></trkpt><trkpt lat="46.5534322" lon="12.5708347"><ele>1244.0</ele><time>2026-05-01T15:54:20.996Z</time></trkpt><trkpt lat="46.5534885" lon="12.5707932"><ele>1244.0</ele><time>2026-05-01T15:54:23.005Z</time></trkpt><trkpt lat="46.553531" lon="12.5707113"><ele>1244.0</ele><time>2026-05-01T15:54:25.001Z</time></trkpt><trkpt lat="46.5535706" lon="12.5706002"><ele>1244.0</ele><time>2026-05-01T15:54:26.997Z</time></trkpt><trkpt lat="46.553613" lon="12.570517"><ele>1244.0</ele><time>2026-05-01T15:54:27.999Z</time></trkpt><trkpt lat="46.5536513" lon="12.5703795"><ele>1244.0</ele><time>2026-05-01T15:54:30.007Z</time></trkpt><trkpt lat="46.5536936" lon="12.5702692"><ele>1237.8</ele><time>2026-05-01T15:54:32Z</time></trkpt><trkpt lat="46.5537382" lon="12.570202"><ele>1231.6000000000001</ele><time>2026-05-01T15:54:34.002Z</time></trkpt><trkpt lat="46.5538296" lon="12.5701461"><ele>1225.4</ele><time>2026-05-01T15:54:36.999Z</time></trkpt><trkpt lat="46.5539356" lon="12.5701362"><ele>1219.2</ele><time>2026-05-01T15:54:39.002Z</time></trkpt><trkpt lat="46.5540449" lon="12.570097"><ele>1213.0</ele><time>2026-05-01T15:54:40.999Z</time></trkpt><trkpt lat="46.5541444" lon="12.5700614"><ele>1213.0</ele><time>2026-05-01T15:54:42.999Z</time></trkpt><trkpt lat="46.5542492" lon="12.5700333"><ele>1213.0</ele><time>2026-05-01T15:54:44.999Z</time></trkpt><trkpt lat="46.5543451" lon="12.5699984"><ele>1213.0</ele><time>2026-05-01T15:54:47Z</time></trkpt><trkpt lat="46.5544239" lon="12.5700283"><ele>1213.0</ele><time>2026-05-01T15:54:49.007Z</time></trkpt><trkpt lat="46.554471" lon="12.5701118"><ele>1213.0</ele><time>2026-05-01T15:54:50.996Z</time></trkpt><trkpt lat="46.554484" lon="12.5702222"><ele>1213.0</ele><time>2026-05-01T15:54:53.002Z</time></trkpt><trkpt lat="46.5544993" lon="12.5703444"><ele>1209.6</ele><time>2026-05-01T15:54:55.002Z</time></trkpt><trkpt lat="46.5545427" lon="12.5704564"><ele>1206.1999999999998</ele><time>2026-05-01T15:54:57Z</time></trkpt><trkpt lat="46.5545819" lon="12.5706143"><ele>1202.8</ele><time>2026-05-01T15:54:59.006Z</time></trkpt><trkpt lat="46.5546259" lon="12.5707764"><ele>1199.3999999999999</ele><time>2026-05-01T15:55:01.002Z</time></trkpt><trkpt lat="46.5546689" lon="12.5709163"><ele>1196.0</ele><time>2026-05-01T15:55:03.007Z</time></trkpt><trkpt lat="46.5547157" lon="12.5710475"><ele>1196.0</ele><time>2026-05-01T15:55:05.009Z</time></trkpt><trkpt lat="46.5547894" lon="12.5711433"><ele>1196.0</ele><time>2026-05-01T15:55:07Z</time></trkpt><trkpt lat="46.5548742" lon="12.5711575"><ele>1196.0</ele><time>2026-05-01T15:55:09.006Z</time></trkpt><trkpt lat="46.5549463" lon="12.5711272"><ele>1196.0</ele><time>2026-05-01T15:55:11Z</time></trkpt><trkpt lat="46.5550066" lon="12.571062"><ele>1196.0</ele><time>2026-05-01T15:55:13.008Z</time></trkpt><trkpt lat="46.5550313" lon="12.5709542"><ele>1196.0</ele><time>2026-05-01T15:55:15.001Z</time></trkpt><trkpt lat="46.5550264" lon="12.5707742"><ele>1196.0</ele><time>2026-05-01T15:55:16.997Z</time></trkpt><trkpt lat="46.5550405" lon="12.5706663"><ele>1196.0</ele><time>2026-05-01T15:55:17.997Z</time></trkpt><trkpt lat="46.5550626" lon="12.5705376"><ele>1196.0</ele><time>2026-05-01T15:55:19.003Z</time></trkpt><trkpt lat="46.555084" lon="12.5704138"><ele>1196.0</ele><time>2026-05-01T15:55:20.003Z</time></trkpt><trkpt lat="46.5551022" lon="12.5702842"><ele>1196.0</ele><time>2026-05-01T15:55:21.002Z</time></trkpt><trkpt lat="46.5551144" lon="12.5701725"><ele>1196.0</ele><time>2026-05-01T15:55:22.004Z</time></trkpt><trkpt lat="46.555126" lon="12.5700584"><ele>1195.5714285714284</ele><time>2026-05-01T15:55:23.01Z</time></trkpt><trkpt lat="46.5551276" lon="12.569961"><ele>1195.142857142857</ele><time>2026-05-01T15:55:24.007Z</time></trkpt><trkpt lat="46.5551275" lon="12.5698571"><ele>1194.7142857142858</ele><time>2026-05-01T15:55:25.005Z</time></trkpt><trkpt lat="46.5551182" lon="12.5697574"><ele>1194.2857142857142</ele><time>2026-05-01T15:55:26.007Z</time></trkpt><trkpt lat="46.5550952" lon="12.5696549"><ele>1193.857142857143</ele><time>2026-05-01T15:55:27.003Z</time></trkpt><trkpt lat="46.5550572" lon="12.5695453"><ele>1193.4285714285713</ele><time>2026-05-01T15:55:28.003Z</time></trkpt><trkpt lat="46.5550266" lon="12.5694576"><ele>1193.0</ele><time>2026-05-01T15:55:29.003Z</time></trkpt><trkpt lat="46.5549821" lon="12.5693758"><ele>1190.25</ele><time>2026-05-01T15:55:30.002Z</time></trkpt><trkpt lat="46.5549632" lon="12.5692228"><ele>1187.5</ele><time>2026-05-01T15:55:32.004Z</time></trkpt><trkpt lat="46.5549829" lon="12.5690399"><ele>1184.75</ele><time>2026-05-01T15:55:33.999Z</time></trkpt><trkpt lat="46.5549439" lon="12.568875"><ele>1182.0</ele><time>2026-05-01T15:55:35.999Z</time></trkpt><trkpt lat="46.5548562" lon="12.5687129"><ele>1179.6666666666667</ele><time>2026-05-01T15:55:38.005Z</time></trkpt><trkpt lat="46.5547886" lon="12.5686259"><ele>1177.3333333333333</ele><time>2026-05-01T15:55:39.007Z</time></trkpt><trkpt lat="46.5547272" lon="12.5685403"><ele>1175.0</ele><time>2026-05-01T15:55:40.001Z</time></trkpt><trkpt lat="46.5546763" lon="12.5684608"><ele>1172.6666666666665</ele><time>2026-05-01T15:55:41.004Z</time></trkpt><trkpt lat="46.5546426" lon="12.5683771"><ele>1170.3333333333333</ele><time>2026-05-01T15:55:42.005Z</time></trkpt><trkpt lat="46.5546157" lon="12.5682705"><ele>1168.0</ele><time>2026-05-01T15:55:43.004Z</time></trkpt><trkpt lat="46.5545972" lon="12.5681606"><ele>1168.0</ele><time>2026-05-01T15:55:44.002Z</time></trkpt><trkpt lat="46.5545727" lon="12.5680525"><ele>1168.0</ele><time>2026-05-01T15:55:44.994Z</time></trkpt><trkpt lat="46.5545169" lon="12.5679177"><ele>1168.0</ele><time>2026-05-01T15:55:46.998Z</time></trkpt><trkpt lat="46.5544248" lon="12.5678082"><ele>1168.0</ele><time>2026-05-01T15:55:48.995Z</time></trkpt><trkpt lat="46.5543612" lon="12.5677547"><ele>1168.0</ele><time>2026-05-01T15:55:50.007Z</time></trkpt><trkpt lat="46.5542957" lon="12.5677232"><ele>1168.0</ele><time>2026-05-01T15:55:51.001Z</time></trkpt><trkpt lat="46.5542324" lon="12.5676929"><ele>1167.2857142857142</ele><time>2026-05-01T15:55:52.005Z</time></trkpt><trkpt lat="46.5541618" lon="12.5676634"><ele>1166.5714285714287</ele><time>2026-05-01T15:55:53.003Z</time></trkpt><trkpt lat="46.5540914" lon="12.5676678"><ele>1165.857142857143</ele><time>2026-05-01T15:55:54.005Z</time></trkpt><trkpt lat="46.5540149" lon="12.567668"><ele>1165.142857142857</ele><time>2026-05-01T15:55:55.003Z</time></trkpt><trkpt lat="46.5539447" lon="12.5676585"><ele>1164.4285714285713</ele><time>2026-05-01T15:55:56.003Z</time></trkpt><trkpt lat="46.5538717" lon="12.567644"><ele>1163.7142857142858</ele><time>2026-05-01T15:55:57.006Z</time></trkpt><trkpt lat="46.5538009" lon="12.5676115"><ele>1163.0</ele><time>2026-05-01T15:55:58.006Z</time></trkpt><trkpt lat="46.5537394" lon="12.5675644"><ele>1163.3333333333335</ele><time>2026-05-01T15:55:58.997Z</time></trkpt><trkpt lat="46.5536831" lon="12.5675178"><ele>1163.6666666666667</ele><time>2026-05-01T15:55:59.997Z</time></trkpt><trkpt lat="46.5535983" lon="12.5674338"><ele>1164.0</ele><time>2026-05-01T15:56:02.013Z</time></trkpt><trkpt lat="46.5535837" lon="12.5673406"><ele>1164.3333333333333</ele><time>2026-05-01T15:56:03.999Z</time></trkpt><trkpt lat="46.553575" lon="12.5672166"><ele>1164.6666666666665</ele><time>2026-05-01T15:56:07.003Z</time></trkpt><trkpt lat="46.553535" lon="12.5671099"><ele>1165.0</ele><time>2026-05-01T15:56:09.002Z</time></trkpt><trkpt lat="46.5534813" lon="12.5669695"><ele>1165.0</ele><time>2026-05-01T15:56:11.007Z</time></trkpt><trkpt lat="46.5534084" lon="12.5668558"><ele>1165.0</ele><time>2026-05-01T15:56:12.997Z</time></trkpt><trkpt lat="46.5533032" lon="12.5668111"><ele>1165.0</ele><time>2026-05-01T15:56:15.003Z</time></trkpt><trkpt lat="46.5531928" lon="12.5668324"><ele>1165.0</ele><time>2026-05-01T15:56:16.997Z</time></trkpt><trkpt lat="46.5530752" lon="12.5668673"><ele>1165.0</ele><time>2026-05-01T15:56:19.012Z</time></trkpt><trkpt lat="46.5529577" lon="12.5668611"><ele>1167.8333333333333</ele><time>2026-05-01T15:56:21.006Z</time></trkpt><trkpt lat="46.5528691" lon="12.5667765"><ele>1170.6666666666665</ele><time>2026-05-01T15:56:23.004Z</time></trkpt><trkpt lat="46.5527918" lon="12.5666421"><ele>1173.5</ele><time>2026-05-01T15:56:25.009Z</time></trkpt><trkpt lat="46.5527345" lon="12.5665975"><ele>1176.3333333333333</ele><time>2026-05-01T15:56:25.994Z</time></trkpt><trkpt lat="46.552662" lon="12.5666002"><ele>1179.1666666666667</ele><time>2026-05-01T15:56:27.007Z</time></trkpt><trkpt lat="46.5525905" lon="12.5665968"><ele>1182.0</ele><time>2026-05-01T15:56:28.007Z</time></trkpt><trkpt lat="46.5525251" lon="12.5666004"><ele>1182.0</ele><time>2026-05-01T15:56:29.001Z</time></trkpt><trkpt lat="46.5524574" lon="12.5666153"><ele>1182.0</ele><time>2026-05-01T15:56:30.008Z</time></trkpt><trkpt lat="46.5523855" lon="12.5666672"><ele>1182.0</ele><time>2026-05-01T15:56:32.007Z</time></trkpt><trkpt lat="46.5524133" lon="12.5668242"><ele>1182.0</ele><time>2026-05-01T15:56:35.001Z</time></trkpt><trkpt lat="46.5524619" lon="12.5669373"><ele>1182.0</ele><time>2026-05-01T15:56:37Z</time></trkpt><trkpt lat="46.5524853" lon="12.5670537"><ele>1182.0</ele><time>2026-05-01T15:56:39.001Z</time></trkpt><trkpt lat="46.5524729" lon="12.5671829"><ele>1185.5</ele><time>2026-05-01T15:56:41.003Z</time></trkpt><trkpt lat="46.5524712" lon="12.5673228"><ele>1189.0</ele><time>2026-05-01T15:56:43.002Z</time></trkpt><trkpt lat="46.5524505" lon="12.56742"><ele>1192.5</ele><time>2026-05-01T15:56:45.002Z</time></trkpt><trkpt lat="46.5523671" lon="12.5674332"><ele>1196.0</ele><time>2026-05-01T15:56:46.997Z</time></trkpt><trkpt lat="46.5522846" lon="12.5674052"><ele>1199.5</ele><time>2026-05-01T15:56:49.004Z</time></trkpt><trkpt lat="46.5521878" lon="12.5673652"><ele>1203.0</ele><time>2026-05-01T15:56:51.002Z</time></trkpt><trkpt lat="46.5520789" lon="12.5673112"><ele>1205.6666666666667</ele><time>2026-05-01T15:56:52.997Z</time></trkpt><trkpt lat="46.5519582" lon="12.5673089"><ele>1208.3333333333333</ele><time>2026-05-01T15:56:54.995Z</time></trkpt><trkpt lat="46.5518942" lon="12.5673098"><ele>1211.0</ele><time>2026-05-01T15:56:56.012Z</time></trkpt><trkpt lat="46.5518142" lon="12.5672984"><ele>1213.6666666666665</ele><time>2026-05-01T15:56:57.006Z</time></trkpt><trkpt lat="46.551732" lon="12.5672851"><ele>1216.3333333333333</ele><time>2026-05-01T15:56:58.002Z</time></trkpt><trkpt lat="46.5516445" lon="12.5672792"><ele>1219.0</ele><time>2026-05-01T15:56:59.003Z</time></trkpt><trkpt lat="46.5515622" lon="12.5672671"><ele>1219.0</ele><time>2026-05-01T15:56:59.998Z</time></trkpt><trkpt lat="46.551486" lon="12.5672561"><ele>1219.0</ele><time>2026-05-01T15:57:01.007Z</time></trkpt><trkpt lat="46.5514067" lon="12.5672418"><ele>1219.0</ele><time>2026-05-01T15:57:02.001Z</time></trkpt><trkpt lat="46.5513361" lon="12.5672316"><ele>1219.0</ele><time>2026-05-01T15:57:03.006Z</time></trkpt><trkpt lat="46.551269" lon="12.5672204"><ele>1219.0</ele><time>2026-05-01T15:57:03.995Z</time></trkpt><trkpt lat="46.5511484" lon="12.5672158"><ele>1219.0</ele><time>2026-05-01T15:57:06.006Z</time></trkpt><trkpt lat="46.551071" lon="12.5672208"><ele>1230.0</ele><time>2026-05-01T15:57:08.004Z</time></trkpt><trkpt lat="46.5509755" lon="12.5671961"><ele>1230.0</ele><time>2026-05-01T15:57:11.007Z</time></trkpt><trkpt lat="46.5509156" lon="12.5671097"><ele>1230.0</ele><time>2026-05-01T15:57:13.005Z</time></trkpt><trkpt lat="46.5508973" lon="12.5670145"><ele>1237.0</ele><time>2026-05-01T15:57:15.999Z</time></trkpt></trkseg><trkseg><trkpt lat="46.558093" lon="12.5491134"><ele>913.0</ele><time>2026-05-01T17:28:19.883Z</time></trkpt><trkpt lat="46.5582134" lon="12.5489913"><ele>913.0</ele><time>2026-05-01T17:28:21.886Z</time></trkpt><trkpt lat="46.558307" lon="12.548932"><ele>913.0</ele><time>2026-05-01T17:28:22.882Z</time></trkpt><trkpt lat="46.5584124" lon="12.5488915"><ele>913.0</ele><time>2026-05-01T17:28:23.884Z</time></trkpt><trkpt lat="46.5585371" lon="12.5488361"><ele>913.0</ele><time>2026-05-01T17:28:24.885Z</time></trkpt><trkpt lat="46.558686" lon="12.548802"><ele>913.0</ele><time>2026-05-01T17:28:25.881Z</time></trkpt><trkpt lat="46.5588398" lon="12.5487594"><ele>913.0</ele><time>2026-05-01T17:28:26.89Z</time></trkpt><trkpt lat="46.5589961" lon="12.5487083"><ele>913.0</ele><time>2026-05-01T17:28:27.886Z</time></trkpt><trkpt lat="46.5591648" lon="12.5486501"><ele>913.0</ele><time>2026-05-01T17:28:28.882Z</time></trkpt><trkpt lat="46.5593338" lon="12.548599"><ele>913.0</ele><time>2026-05-01T17:28:29.883Z</time></trkpt><trkpt lat="46.5594929" lon="12.5485595"><ele>914.0</ele><time>2026-05-01T17:28:30.88Z</time></trkpt><trkpt lat="46.559631" lon="12.5485015"><ele>915.0</ele><time>2026-05-01T17:28:31.885Z</time></trkpt><trkpt lat="46.5597602" lon="12.5484599"><ele>916.0</ele><time>2026-05-01T17:28:32.888Z</time></trkpt><trkpt lat="46.5599014" lon="12.5483942"><ele>917.0</ele><time>2026-05-01T17:28:33.88Z</time></trkpt><trkpt lat="46.5600412" lon="12.5483113"><ele>917.0</ele><time>2026-05-01T17:28:34.883Z</time></trkpt><trkpt lat="46.5601861" lon="12.5482048"><ele>917.0</ele><time>2026-05-01T17:28:35.885Z</time></trkpt><trkpt lat="46.5603304" lon="12.5480813"><ele>917.0</ele><time>2026-05-01T17:28:36.881Z</time></trkpt><trkpt lat="46.5604758" lon="12.5479708"><ele>917.0</ele><time>2026-05-01T17:28:37.889Z</time></trkpt><trkpt lat="46.5606203" lon="12.5478687"><ele>917.0</ele><time>2026-05-01T17:28:38.887Z</time></trkpt><trkpt lat="46.5607514" lon="12.5477701"><ele>917.0</ele><time>2026-05-01T17:28:39.881Z</time></trkpt><trkpt lat="46.5608784" lon="12.5476798"><ele>917.0</ele><time>2026-05-01T17:28:40.884Z</time></trkpt><trkpt lat="46.5610014" lon="12.5475896"><ele>917.0</ele><time>2026-05-01T17:28:41.885Z</time></trkpt><trkpt lat="46.56112" lon="12.547506"><ele>917.0</ele><time>2026-05-01T17:28:42.878Z</time></trkpt><trkpt lat="46.561236" lon="12.5474187"><ele>917.0</ele><time>2026-05-01T17:28:43.885Z</time></trkpt><trkpt lat="46.56135" lon="12.5473247"><ele>918.25</ele><time>2026-05-01T17:28:44.881Z</time></trkpt><trkpt lat="46.5614645" lon="12.5472299"><ele>919.5</ele><time>2026-05-01T17:28:45.883Z</time></trkpt><trkpt lat="46.5615695" lon="12.547113"><ele>920.75</ele><time>2026-05-01T17:28:46.883Z</time></trkpt><trkpt lat="46.5616631" lon="12.5469595"><ele>922.0</ele><time>2026-05-01T17:28:47.878Z</time></trkpt><trkpt lat="46.5617569" lon="12.546795"><ele>922.0</ele><time>2026-05-01T17:28:48.891Z</time></trkpt><trkpt lat="46.5618591" lon="12.5466133"><ele>922.0</ele><time>2026-05-01T17:28:49.881Z</time></trkpt><trkpt lat="46.5619668" lon="12.5464435"><ele>922.0</ele><time>2026-05-01T17:28:50.892Z</time></trkpt><trkpt lat="46.5620893" lon="12.5463002"><ele>922.6666666666666</ele><time>2026-05-01T17:28:51.882Z</time></trkpt><trkpt lat="46.562229" lon="12.5461716"><ele>923.3333333333333</ele><time>2026-05-01T17:28:52.876Z</time></trkpt><trkpt lat="46.5623713" lon="12.5460422"><ele>924.0</ele><time>2026-05-01T17:28:53.89Z</time></trkpt><trkpt lat="46.5625087" lon="12.5459021"><ele>924.0</ele><time>2026-05-01T17:28:54.889Z</time></trkpt><trkpt lat="46.5626313" lon="12.5457612"><ele>924.0</ele><time>2026-05-01T17:28:55.889Z</time></trkpt><trkpt lat="46.5627419" lon="12.5456239"><ele>924.0</ele><time>2026-05-01T17:28:56.881Z</time></trkpt><trkpt lat="46.5628424" lon="12.545491"><ele>924.0</ele><time>2026-05-01T17:28:57.884Z</time></trkpt><trkpt lat="46.5629461" lon="12.5453785"><ele>924.5</ele><time>2026-05-01T17:28:58.884Z</time></trkpt><trkpt lat="46.5630599" lon="12.5453075"><ele>925.0</ele><time>2026-05-01T17:28:59.885Z</time></trkpt><trkpt lat="46.5631912" lon="12.5452729"><ele>925.5</ele><time>2026-05-01T17:29:00.886Z</time></trkpt><trkpt lat="46.5633395" lon="12.5452537"><ele>926.0</ele><time>2026-05-01T17:29:01.883Z</time></trkpt><trkpt lat="46.5634891" lon="12.5452319"><ele>926.0</ele><time>2026-05-01T17:29:02.884Z</time></trkpt><trkpt lat="46.5636457" lon="12.5451569"><ele>926.0</ele><time>2026-05-01T17:29:03.879Z</time></trkpt><trkpt lat="46.5638052" lon="12.5450516"><ele>926.0</ele><time>2026-05-01T17:29:04.879Z</time></trkpt><trkpt lat="46.5639548" lon="12.5449244"><ele>925.6666666666667</ele><time>2026-05-01T17:29:05.89Z</time></trkpt><trkpt lat="46.5641017" lon="12.5447757"><ele>925.3333333333333</ele><time>2026-05-01T17:29:06.877Z</time></trkpt><trkpt lat="46.5642515" lon="12.5446253"><ele>925.0</ele><time>2026-05-01T17:29:07.887Z</time></trkpt><trkpt lat="46.5644051" lon="12.5444788"><ele>931.3333333333333</ele><time>2026-05-01T17:29:08.884Z</time></trkpt><trkpt lat="46.5645792" lon="12.5443611"><ele>937.6666666666667</ele><time>2026-05-01T17:29:09.888Z</time></trkpt><trkpt lat="46.5647561" lon="12.5442512"><ele>944.0</ele><time>2026-05-01T17:29:10.886Z</time></trkpt><trkpt lat="46.5649279" lon="12.544123"><ele>944.0</ele><time>2026-05-01T17:29:11.881Z</time></trkpt><trkpt lat="46.5650939" lon="12.5439733"><ele>944.0</ele><time>2026-05-01T17:29:12.881Z</time></trkpt><trkpt lat="46.5652631" lon="12.5438074"><ele>944.0</ele><time>2026-05-01T17:29:13.879Z</time></trkpt><trkpt lat="46.5654417" lon="12.5436436"><ele>942.3333333333334</ele><time>2026-05-01T17:29:14.886Z</time></trkpt><trkpt lat="46.565621" lon="12.5434955"><ele>940.6666666666667</ele><time>2026-05-01T17:29:15.882Z</time></trkpt><trkpt lat="46.5658087" lon="12.5433581"><ele>939.0</ele><time>2026-05-01T17:29:16.89Z</time></trkpt><trkpt lat="46.5660018" lon="12.5432279"><ele>939.0</ele><time>2026-05-01T17:29:17.885Z</time></trkpt><trkpt lat="46.5661776" lon="12.5431086"><ele>939.0</ele><time>2026-05-01T17:29:18.881Z</time></trkpt><trkpt lat="46.5663472" lon="12.5429903"><ele>939.0</ele><time>2026-05-01T17:29:19.88Z</time></trkpt><trkpt lat="46.5665104" lon="12.5428548"><ele>941.0</ele><time>2026-05-01T17:29:20.881Z</time></trkpt><trkpt lat="46.566658" lon="12.5426841"><ele>943.0</ele><time>2026-05-01T17:29:21.881Z</time></trkpt><trkpt lat="46.566797" lon="12.5424828"><ele>945.0</ele><time>2026-05-01T17:29:22.883Z</time></trkpt><trkpt lat="46.5669184" lon="12.5422821"><ele>945.0</ele><time>2026-05-01T17:29:23.881Z</time></trkpt><trkpt lat="46.5670256" lon="12.5420879"><ele>945.0</ele><time>2026-05-01T17:29:24.88Z</time></trkpt><trkpt lat="46.5671309" lon="12.5419082"><ele>945.0</ele><time>2026-05-01T17:29:25.879Z</time></trkpt><trkpt lat="46.5672134" lon="12.5417311"><ele>945.3333333333333</ele><time>2026-05-01T17:29:26.88Z</time></trkpt><trkpt lat="46.5672748" lon="12.5415381"><ele>945.6666666666666</ele><time>2026-05-01T17:29:27.887Z</time></trkpt><trkpt lat="46.5673178" lon="12.541321"><ele>946.0</ele><time>2026-05-01T17:29:28.89Z</time></trkpt><trkpt lat="46.5673499" lon="12.5410797"><ele>946.0</ele><time>2026-05-01T17:29:29.884Z</time></trkpt><trkpt lat="46.5673781" lon="12.5408387"><ele>946.0</ele><time>2026-05-01T17:29:30.881Z</time></trkpt><trkpt lat="46.567422" lon="12.5405852"><ele>946.0</ele><time>2026-05-01T17:29:31.886Z</time></trkpt><trkpt lat="46.5674765" lon="12.5403319"><ele>945.3333333333333</ele><time>2026-05-01T17:29:32.885Z</time></trkpt><trkpt lat="46.5675454" lon="12.5400878"><ele>944.6666666666667</ele><time>2026-05-01T17:29:33.887Z</time></trkpt><trkpt lat="46.5676244" lon="12.5398538"><ele>944.0</ele><time>2026-05-01T17:29:34.879Z</time></trkpt><trkpt lat="46.5677151" lon="12.5396308"><ele>945.0</ele><time>2026-05-01T17:29:35.896Z</time></trkpt><trkpt lat="46.5678162" lon="12.5394199"><ele>946.0</ele><time>2026-05-01T17:29:36.882Z</time></trkpt><trkpt lat="46.5679263" lon="12.5392098"><ele>947.0</ele><time>2026-05-01T17:29:37.893Z</time></trkpt><trkpt lat="46.5680438" lon="12.5390079"><ele>946.0</ele><time>2026-05-01T17:29:38.883Z</time></trkpt><trkpt lat="46.5681738" lon="12.5388133"><ele>945.0</ele><time>2026-05-01T17:29:39.878Z</time></trkpt><trkpt lat="46.5683028" lon="12.5386317"><ele>944.0</ele><time>2026-05-01T17:29:40.881Z</time></trkpt><trkpt lat="46.5684225" lon="12.5384564"><ele>944.0</ele><time>2026-05-01T17:29:41.884Z</time></trkpt><trkpt lat="46.5685438" lon="12.5382909"><ele>944.0</ele><time>2026-05-01T17:29:42.884Z</time></trkpt><trkpt lat="46.5686632" lon="12.5381264"><ele>944.0</ele><time>2026-05-01T17:29:43.886Z</time></trkpt><trkpt lat="46.5687857" lon="12.5379636"><ele>947.0</ele><time>2026-05-01T17:29:44.892Z</time></trkpt><trkpt lat="46.5689101" lon="12.5378068"><ele>950.0</ele><time>2026-05-01T17:29:45.882Z</time></trkpt><trkpt lat="46.5690429" lon="12.5376698"><ele>953.0</ele><time>2026-05-01T17:29:46.886Z</time></trkpt><trkpt lat="46.5691795" lon="12.5375547"><ele>953.0</ele><time>2026-05-01T17:29:47.89Z</time></trkpt><trkpt lat="46.5693221" lon="12.5374693"><ele>953.0</ele><time>2026-05-01T17:29:48.889Z</time></trkpt><trkpt lat="46.5694693" lon="12.5374083"><ele>953.0</ele><time>2026-05-01T17:29:49.889Z</time></trkpt><trkpt lat="46.569619" lon="12.5373737"><ele>959.6666666666667</ele><time>2026-05-01T17:29:50.885Z</time></trkpt><trkpt lat="46.5697695" lon="12.537352"><ele>966.3333333333333</ele><time>2026-05-01T17:29:51.89Z</time></trkpt><trkpt lat="46.5699182" lon="12.5373126"><ele>973.0</ele><time>2026-05-01T17:29:52.887Z</time></trkpt><trkpt lat="46.5700515" lon="12.5372167"><ele>973.0</ele><time>2026-05-01T17:29:53.879Z</time></trkpt><trkpt lat="46.5701792" lon="12.5370788"><ele>973.0</ele><time>2026-05-01T17:29:54.882Z</time></trkpt><trkpt lat="46.5703074" lon="12.5369427"><ele>973.0</ele><time>2026-05-01T17:29:55.886Z</time></trkpt><trkpt lat="46.5704385" lon="12.5368074"><ele>976.0</ele><time>2026-05-01T17:29:56.883Z</time></trkpt><trkpt lat="46.5705702" lon="12.5366765"><ele>979.0</ele><time>2026-05-01T17:29:57.896Z</time></trkpt><trkpt lat="46.5707006" lon="12.5365387"><ele>982.0</ele><time>2026-05-01T17:29:58.882Z</time></trkpt><trkpt lat="46.5708234" lon="12.5363859"><ele>975.3333333333333</ele><time>2026-05-01T17:29:59.881Z</time></trkpt><trkpt lat="46.5709361" lon="12.5362141"><ele>968.6666666666667</ele><time>2026-05-01T17:30:00.89Z</time></trkpt><trkpt lat="46.5710333" lon="12.5360409"><ele>962.0</ele><time>2026-05-01T17:30:01.885Z</time></trkpt><trkpt lat="46.5711343" lon="12.5358884"><ele>967.75</ele><time>2026-05-01T17:30:02.882Z</time></trkpt><trkpt lat="46.5712401" lon="12.5357627"><ele>973.5</ele><time>2026-05-01T17:30:03.89Z</time></trkpt><trkpt lat="46.5713686" lon="12.5356569"><ele>979.25</ele><time>2026-05-01T17:30:04.883Z</time></trkpt><trkpt lat="46.5715084" lon="12.5355577"><ele>985.0</ele><time>2026-05-01T17:30:05.88Z</time></trkpt><trkpt lat="46.5716452" lon="12.5354626"><ele>982.25</ele><time>2026-05-01T17:30:06.886Z</time></trkpt><trkpt lat="46.5717733" lon="12.5353826"><ele>979.5</ele><time>2026-05-01T17:30:07.883Z</time></trkpt><trkpt lat="46.5719067" lon="12.5353206"><ele>976.75</ele><time>2026-05-01T17:30:08.881Z</time></trkpt><trkpt lat="46.572042" lon="12.5352713"><ele>974.0</ele><time>2026-05-01T17:30:09.885Z</time></trkpt><trkpt lat="46.5721839" lon="12.5352411"><ele>974.0</ele><time>2026-05-01T17:30:10.888Z</time></trkpt><trkpt lat="46.57234" lon="12.5352379"><ele>974.0</ele><time>2026-05-01T17:30:11.889Z</time></trkpt><trkpt lat="46.5724928" lon="12.535259"><ele>974.0</ele><time>2026-05-01T17:30:12.883Z</time></trkpt><trkpt lat="46.5726364" lon="12.5352822"><ele>974.0</ele><time>2026-05-01T17:30:13.885Z</time></trkpt><trkpt lat="46.5727763" lon="12.5352753"><ele>974.0</ele><time>2026-05-01T17:30:14.886Z</time></trkpt><trkpt lat="46.5729197" lon="12.5352234"><ele>974.0</ele><time>2026-05-01T17:30:15.883Z</time></trkpt><trkpt lat="46.5730528" lon="12.5351307"><ele>974.0</ele><time>2026-05-01T17:30:16.894Z</time></trkpt><trkpt lat="46.5731926" lon="12.5350159"><ele>974.6666666666667</ele><time>2026-05-01T17:30:17.88Z</time></trkpt><trkpt lat="46.5733288" lon="12.5348878"><ele>975.3333333333333</ele><time>2026-05-01T17:30:18.886Z</time></trkpt><trkpt lat="46.5734716" lon="12.5347735"><ele>976.0</ele><time>2026-05-01T17:30:19.881Z</time></trkpt><trkpt lat="46.5736137" lon="12.534659"><ele>974.75</ele><time>2026-05-01T17:30:20.884Z</time></trkpt><trkpt lat="46.5737462" lon="12.5345532"><ele>973.5</ele><time>2026-05-01T17:30:21.883Z</time></trkpt><trkpt lat="46.5738717" lon="12.5344584"><ele>972.25</ele><time>2026-05-01T17:30:22.891Z</time></trkpt><trkpt lat="46.5739972" lon="12.5343796"><ele>971.0</ele><time>2026-05-01T17:30:23.884Z</time></trkpt><trkpt lat="46.5741169" lon="12.5343008"><ele>971.0</ele><time>2026-05-01T17:30:24.887Z</time></trkpt><trkpt lat="46.5742317" lon="12.5342274"><ele>971.0</ele><time>2026-05-01T17:30:25.891Z</time></trkpt><trkpt lat="46.5743396" lon="12.534159"><ele>971.0</ele><time>2026-05-01T17:30:26.888Z</time></trkpt><trkpt lat="46.5744474" lon="12.5340855"><ele>971.0</ele><time>2026-05-01T17:30:27.887Z</time></trkpt><trkpt lat="46.5745439" lon="12.5340188"><ele>971.5999999999999</ele><time>2026-05-01T17:30:28.889Z</time></trkpt><trkpt lat="46.5746402" lon="12.5339596"><ele>972.1999999999999</ele><time>2026-05-01T17:30:29.888Z</time></trkpt><trkpt lat="46.5747299" lon="12.5339021"><ele>972.8000000000001</ele><time>2026-05-01T17:30:30.888Z</time></trkpt><trkpt lat="46.5748094" lon="12.533818"><ele>973.4000000000001</ele><time>2026-05-01T17:30:31.892Z</time></trkpt><trkpt lat="46.5748859" lon="12.5336857"><ele>974.0</ele><time>2026-05-01T17:30:32.885Z</time></trkpt><trkpt lat="46.5749616" lon="12.5335404"><ele>974.0</ele><time>2026-05-01T17:30:33.888Z</time></trkpt><trkpt lat="46.5750432" lon="12.5333926"><ele>974.0</ele><time>2026-05-01T17:30:34.879Z</time></trkpt><trkpt lat="46.575119" lon="12.5332533"><ele>974.0</ele><time>2026-05-01T17:30:35.886Z</time></trkpt><trkpt lat="46.5752153" lon="12.5331311"><ele>974.0</ele><time>2026-05-01T17:30:36.891Z</time></trkpt><trkpt lat="46.5753184" lon="12.5330157"><ele>974.0</ele><time>2026-05-01T17:30:37.895Z</time></trkpt><trkpt lat="46.5754366" lon="12.5329371"><ele>974.0</ele><time>2026-05-01T17:30:38.888Z</time></trkpt><trkpt lat="46.5755551" lon="12.5328665"><ele>974.0</ele><time>2026-05-01T17:30:39.892Z</time></trkpt><trkpt lat="46.5756644" lon="12.532833"><ele>974.0</ele><time>2026-05-01T17:30:40.891Z</time></trkpt><trkpt lat="46.5757764" lon="12.5328406"><ele>974.0</ele><time>2026-05-01T17:30:41.889Z</time></trkpt><trkpt lat="46.575893" lon="12.5328626"><ele>974.0</ele><time>2026-05-01T17:30:42.881Z</time></trkpt><trkpt lat="46.5759967" lon="12.5328363"><ele>974.0</ele><time>2026-05-01T17:30:43.886Z</time></trkpt><trkpt lat="46.5760893" lon="12.5327371"><ele>974.0</ele><time>2026-05-01T17:30:44.882Z</time></trkpt><trkpt lat="46.5761969" lon="12.5326265"><ele>975.75</ele><time>2026-05-01T17:30:45.882Z</time></trkpt><trkpt lat="46.5763165" lon="12.5324989"><ele>977.5</ele><time>2026-05-01T17:30:46.884Z</time></trkpt><trkpt lat="46.5764331" lon="12.5323639"><ele>979.25</ele><time>2026-05-01T17:30:47.885Z</time></trkpt><trkpt lat="46.5765506" lon="12.5322449"><ele>981.0</ele><time>2026-05-01T17:30:48.878Z</time></trkpt><trkpt lat="46.5766579" lon="12.532126"><ele>979.25</ele><time>2026-05-01T17:30:49.883Z</time></trkpt><trkpt lat="46.57676" lon="12.5320077"><ele>977.5</ele><time>2026-05-01T17:30:50.88Z</time></trkpt><trkpt lat="46.5768424" lon="12.5318929"><ele>975.75</ele><time>2026-05-01T17:30:51.884Z</time></trkpt><trkpt lat="46.5769269" lon="12.5317821"><ele>974.0</ele><time>2026-05-01T17:30:52.883Z</time></trkpt><trkpt lat="46.5769995" lon="12.5316745"><ele>975.2</ele><time>2026-05-01T17:30:53.884Z</time></trkpt><trkpt lat="46.5770729" lon="12.5315591"><ele>976.4000000000001</ele><time>2026-05-01T17:30:54.886Z</time></trkpt><trkpt lat="46.5771441" lon="12.5314346"><ele>977.6</ele><time>2026-05-01T17:30:55.884Z</time></trkpt><trkpt lat="46.5772178" lon="12.5313097"><ele>978.8</ele><time>2026-05-01T17:30:56.885Z</time></trkpt><trkpt lat="46.5772948" lon="12.5311835"><ele>980.0</ele><time>2026-05-01T17:30:57.885Z</time></trkpt><trkpt lat="46.5773734" lon="12.5310549"><ele>980.0</ele><time>2026-05-01T17:30:58.883Z</time></trkpt><trkpt lat="46.5774574" lon="12.5309249"><ele>980.0</ele><time>2026-05-01T17:30:59.887Z</time></trkpt><trkpt lat="46.5775436" lon="12.5307943"><ele>980.0</ele><time>2026-05-01T17:31:00.883Z</time></trkpt><trkpt lat="46.577628" lon="12.5306568"><ele>980.0</ele><time>2026-05-01T17:31:01.884Z</time></trkpt><trkpt lat="46.5777134" lon="12.5305212"><ele>979.25</ele><time>2026-05-01T17:31:02.885Z</time></trkpt><trkpt lat="46.5778028" lon="12.5303828"><ele>978.5</ele><time>2026-05-01T17:31:03.887Z</time></trkpt><trkpt lat="46.577892" lon="12.5302471"><ele>977.75</ele><time>2026-05-01T17:31:04.878Z</time></trkpt><trkpt lat="46.5779785" lon="12.5301099"><ele>977.0</ele><time>2026-05-01T17:31:05.883Z</time></trkpt><trkpt lat="46.5780885" lon="12.5299904"><ele>977.0</ele><time>2026-05-01T17:31:06.892Z</time></trkpt><trkpt lat="46.5782091" lon="12.5298817"><ele>977.0</ele><time>2026-05-01T17:31:07.887Z</time></trkpt><trkpt lat="46.5783206" lon="12.5297528"><ele>977.0</ele><time>2026-05-01T17:31:08.88Z</time></trkpt><trkpt lat="46.5784379" lon="12.5296027"><ele>977.0</ele><time>2026-05-01T17:31:09.879Z</time></trkpt><trkpt lat="46.5785697" lon="12.5294243"><ele>984.6666666666667</ele><time>2026-05-01T17:31:10.886Z</time></trkpt><trkpt lat="46.5787165" lon="12.5292187"><ele>992.3333333333333</ele><time>2026-05-01T17:31:11.882Z</time></trkpt><trkpt lat="46.5788726" lon="12.5290088"><ele>1000.0</ele><time>2026-05-01T17:31:12.877Z</time></trkpt><trkpt lat="46.5790372" lon="12.5287968"><ele>991.0</ele><time>2026-05-01T17:31:13.883Z</time></trkpt><trkpt lat="46.5792089" lon="12.5285737"><ele>982.0</ele><time>2026-05-01T17:31:14.878Z</time></trkpt><trkpt lat="46.5793829" lon="12.5283553"><ele>990.5</ele><time>2026-05-01T17:31:15.883Z</time></trkpt><trkpt lat="46.5795539" lon="12.5281339"><ele>999.0</ele><time>2026-05-01T17:31:16.886Z</time></trkpt><trkpt lat="46.5797257" lon="12.5278999"><ele>994.6666666666667</ele><time>2026-05-01T17:31:17.881Z</time></trkpt><trkpt lat="46.5798901" lon="12.5276726"><ele>990.3333333333334</ele><time>2026-05-01T17:31:18.893Z</time></trkpt><trkpt lat="46.5800477" lon="12.5274601"><ele>986.0</ele><time>2026-05-01T17:31:19.88Z</time></trkpt><trkpt lat="46.5802009" lon="12.5272614"><ele>988.6666666666667</ele><time>2026-05-01T17:31:20.892Z</time></trkpt><trkpt lat="46.5803506" lon="12.5270586"><ele>991.3333333333333</ele><time>2026-05-01T17:31:21.884Z</time></trkpt><trkpt lat="46.5804959" lon="12.5268566"><ele>994.0</ele><time>2026-05-01T17:31:22.887Z</time></trkpt><trkpt lat="46.5806383" lon="12.5266556"><ele>994.0</ele><time>2026-05-01T17:31:23.886Z</time></trkpt><trkpt lat="46.5807745" lon="12.5264546"><ele>994.0</ele><time>2026-05-01T17:31:24.887Z</time></trkpt><trkpt lat="46.5809096" lon="12.5262546"><ele>994.0</ele><time>2026-05-01T17:31:25.887Z</time></trkpt><trkpt lat="46.5810326" lon="12.5260576"><ele>997.6666666666666</ele><time>2026-05-01T17:31:26.88Z</time></trkpt><trkpt lat="46.5811524" lon="12.5258786"><ele>1001.3333333333333</ele><time>2026-05-01T17:31:27.884Z</time></trkpt><trkpt lat="46.5812655" lon="12.5257178"><ele>1005.0</ele><time>2026-05-01T17:31:28.885Z</time></trkpt><trkpt lat="46.5813747" lon="12.5255664"><ele>1005.0</ele><time>2026-05-01T17:31:29.886Z</time></trkpt><trkpt lat="46.5814918" lon="12.5254189"><ele>1005.0</ele><time>2026-05-01T17:31:30.887Z</time></trkpt><trkpt lat="46.5816124" lon="12.5252789"><ele>1005.0</ele><time>2026-05-01T17:31:31.892Z</time></trkpt><trkpt lat="46.5817225" lon="12.5251338"><ele>1006.3333333333333</ele><time>2026-05-01T17:31:32.892Z</time></trkpt><trkpt lat="46.581842" lon="12.5249964"><ele>1007.6666666666666</ele><time>2026-05-01T17:31:33.886Z</time></trkpt><trkpt lat="46.5819658" lon="12.5248526"><ele>1009.0</ele><time>2026-05-01T17:31:34.886Z</time></trkpt><trkpt lat="46.5820851" lon="12.5247043"><ele>1003.3333333333333</ele><time>2026-05-01T17:31:35.879Z</time></trkpt><trkpt lat="46.5822113" lon="12.5245486"><ele>997.6666666666667</ele><time>2026-05-01T17:31:36.889Z</time></trkpt><trkpt lat="46.5823343" lon="12.5243894"><ele>992.0</ele><time>2026-05-01T17:31:37.886Z</time></trkpt><trkpt lat="46.5824555" lon="12.5242349"><ele>992.0</ele><time>2026-05-01T17:31:38.897Z</time></trkpt><trkpt lat="46.5825761" lon="12.5240748"><ele>992.0</ele><time>2026-05-01T17:31:39.882Z</time></trkpt><trkpt lat="46.5826873" lon="12.5239015"><ele>992.0</ele><time>2026-05-01T17:31:40.887Z</time></trkpt><trkpt lat="46.582793" lon="12.5237262"><ele>996.6666666666667</ele><time>2026-05-01T17:31:41.885Z</time></trkpt><trkpt lat="46.5828926" lon="12.5235529"><ele>1001.3333333333333</ele><time>2026-05-01T17:31:42.884Z</time></trkpt><trkpt lat="46.5829999" lon="12.5233957"><ele>1006.0</ele><time>2026-05-01T17:31:43.889Z</time></trkpt><trkpt lat="46.5831128" lon="12.523247"><ele>1006.0</ele><time>2026-05-01T17:31:44.882Z</time></trkpt><trkpt lat="46.5832216" lon="12.5231021"><ele>1006.0</ele><time>2026-05-01T17:31:45.883Z</time></trkpt><trkpt lat="46.5833247" lon="12.5229772"><ele>1006.0</ele><time>2026-05-01T17:31:46.887Z</time></trkpt><trkpt lat="46.5834291" lon="12.5228811"><ele>1006.0</ele><time>2026-05-01T17:31:47.881Z</time></trkpt><trkpt lat="46.5835344" lon="12.5228129"><ele>1005.25</ele><time>2026-05-01T17:31:48.888Z</time></trkpt><trkpt lat="46.5836483" lon="12.5227648"><ele>1004.5</ele><time>2026-05-01T17:31:49.89Z</time></trkpt><trkpt lat="46.5837727" lon="12.5227255"><ele>1003.75</ele><time>2026-05-01T17:31:50.882Z</time></trkpt><trkpt lat="46.5838912" lon="12.5227061"><ele>1003.0</ele><time>2026-05-01T17:31:51.886Z</time></trkpt><trkpt lat="46.5840103" lon="12.5227077"><ele>1003.0</ele><time>2026-05-01T17:31:52.882Z</time></trkpt><trkpt lat="46.5841304" lon="12.5227333"><ele>1003.0</ele><time>2026-05-01T17:31:53.883Z</time></trkpt><trkpt lat="46.5842548" lon="12.5227742"><ele>1003.0</ele><time>2026-05-01T17:31:54.879Z</time></trkpt><trkpt lat="46.5843711" lon="12.522818"><ele>1003.0</ele><time>2026-05-01T17:31:55.879Z</time></trkpt><trkpt lat="46.5844713" lon="12.5228504"><ele>1003.5</ele><time>2026-05-01T17:31:56.881Z</time></trkpt><trkpt lat="46.5845756" lon="12.5228861"><ele>1004.0</ele><time>2026-05-01T17:31:57.886Z</time></trkpt><trkpt lat="46.5846837" lon="12.522928"><ele>1004.5</ele><time>2026-05-01T17:31:58.885Z</time></trkpt><trkpt lat="46.5847964" lon="12.5229946"><ele>1005.0</ele><time>2026-05-01T17:31:59.887Z</time></trkpt><trkpt lat="46.5849205" lon="12.5230667"><ele>1009.3333333333333</ele><time>2026-05-01T17:32:00.884Z</time></trkpt><trkpt lat="46.5850682" lon="12.5231155"><ele>1013.6666666666666</ele><time>2026-05-01T17:32:01.88Z</time></trkpt><trkpt lat="46.585236" lon="12.523175"><ele>1018.0</ele><time>2026-05-01T17:32:02.878Z</time></trkpt><trkpt lat="46.585424" lon="12.5232391"><ele>1018.0</ele><time>2026-05-01T17:32:03.889Z</time></trkpt><trkpt lat="46.5856171" lon="12.5232877"><ele>1018.0</ele><time>2026-05-01T17:32:04.882Z</time></trkpt><trkpt lat="46.5858173" lon="12.5233399"><ele>1018.0</ele><time>2026-05-01T17:32:05.904Z</time></trkpt><trkpt lat="46.5860266" lon="12.5234127"><ele>1017.6666666666666</ele><time>2026-05-01T17:32:06.885Z</time></trkpt><trkpt lat="46.5862366" lon="12.5235105"><ele>1017.3333333333333</ele><time>2026-05-01T17:32:07.886Z</time></trkpt><trkpt lat="46.5864403" lon="12.523605"><ele>1017.0</ele><time>2026-05-01T17:32:08.881Z</time></trkpt><trkpt lat="46.5866599" lon="12.5236933"><ele>1025.3333333333333</ele><time>2026-05-01T17:32:09.881Z</time></trkpt><trkpt lat="46.5868803" lon="12.5237547"><ele>1033.6666666666665</ele><time>2026-05-01T17:32:10.886Z</time></trkpt><trkpt lat="46.5870791" lon="12.5237983"><ele>1042.0</ele><time>2026-05-01T17:32:11.882Z</time></trkpt><trkpt lat="46.5872472" lon="12.5238473"><ele>1042.0</ele><time>2026-05-01T17:32:12.881Z</time></trkpt><trkpt lat="46.5874071" lon="12.5238776"><ele>1042.0</ele><time>2026-05-01T17:32:13.878Z</time></trkpt><trkpt lat="46.5875504" lon="12.523866"><ele>1042.0</ele><time>2026-05-01T17:32:14.879Z</time></trkpt><trkpt lat="46.5876887" lon="12.5238224"><ele>1042.0</ele><time>2026-05-01T17:32:15.884Z</time></trkpt><trkpt lat="46.5878278" lon="12.5237356"><ele>1038.75</ele><time>2026-05-01T17:32:16.878Z</time></trkpt><trkpt lat="46.5879578" lon="12.5236511"><ele>1035.5</ele><time>2026-05-01T17:32:17.89Z</time></trkpt><trkpt lat="46.5880891" lon="12.5236083"><ele>1032.25</ele><time>2026-05-01T17:32:18.877Z</time></trkpt><trkpt lat="46.5882474" lon="12.5235988"><ele>1029.0</ele><time>2026-05-01T17:32:19.887Z</time></trkpt><trkpt lat="46.5883801" lon="12.5236072"><ele>1029.0</ele><time>2026-05-01T17:32:20.877Z</time></trkpt><trkpt lat="46.5884665" lon="12.5236061"><ele>1029.0</ele><time>2026-05-01T17:32:21.883Z</time></trkpt><trkpt lat="46.5885489" lon="12.5235654"><ele>1029.0</ele><time>2026-05-01T17:32:22.886Z</time></trkpt><trkpt lat="46.5886146" lon="12.5234807"><ele>1029.0</ele><time>2026-05-01T17:32:23.881Z</time></trkpt><trkpt lat="46.588662" lon="12.5233583"><ele>1029.0</ele><time>2026-05-01T17:32:24.881Z</time></trkpt><trkpt lat="46.5886901" lon="12.523197"><ele>1029.75</ele><time>2026-05-01T17:32:25.884Z</time></trkpt><trkpt lat="46.588707" lon="12.5230195"><ele>1030.5</ele><time>2026-05-01T17:32:26.889Z</time></trkpt><trkpt lat="46.5887176" lon="12.5228431"><ele>1031.25</ele><time>2026-05-01T17:32:27.88Z</time></trkpt><trkpt lat="46.588738" lon="12.5226956"><ele>1032.0</ele><time>2026-05-01T17:32:28.887Z</time></trkpt><trkpt lat="46.5887881" lon="12.522566"><ele>1034.6</ele><time>2026-05-01T17:32:29.885Z</time></trkpt><trkpt lat="46.5888574" lon="12.5224711"><ele>1037.2</ele><time>2026-05-01T17:32:30.886Z</time></trkpt><trkpt lat="46.588956" lon="12.5224348"><ele>1039.8</ele><time>2026-05-01T17:32:31.882Z</time></trkpt><trkpt lat="46.5890667" lon="12.5224592"><ele>1042.4</ele><time>2026-05-01T17:32:32.882Z</time></trkpt><trkpt lat="46.5891835" lon="12.522517"><ele>1045.0</ele><time>2026-05-01T17:32:33.881Z</time></trkpt><trkpt lat="46.5893061" lon="12.522572"><ele>1045.0</ele><time>2026-05-01T17:32:34.885Z</time></trkpt><trkpt lat="46.5894401" lon="12.5225824"><ele>1045.0</ele><time>2026-05-01T17:32:35.883Z</time></trkpt><trkpt lat="46.5895778" lon="12.5225475"><ele>1045.0</ele><time>2026-05-01T17:32:36.889Z</time></trkpt><trkpt lat="46.5897318" lon="12.5224843"><ele>1045.0</ele><time>2026-05-01T17:32:37.883Z</time></trkpt><trkpt lat="46.5898935" lon="12.5224284"><ele>1047.0</ele><time>2026-05-01T17:32:38.888Z</time></trkpt><trkpt lat="46.5900563" lon="12.5223973"><ele>1049.0</ele><time>2026-05-01T17:32:39.882Z</time></trkpt><trkpt lat="46.5902253" lon="12.5224027"><ele>1051.0</ele><time>2026-05-01T17:32:40.885Z</time></trkpt><trkpt lat="46.5903896" lon="12.5224045"><ele>1052.3333333333333</ele><time>2026-05-01T17:32:41.879Z</time></trkpt><trkpt lat="46.5905573" lon="12.5224018"><ele>1053.6666666666667</ele><time>2026-05-01T17:32:42.884Z</time></trkpt><trkpt lat="46.5907274" lon="12.5224085"><ele>1055.0</ele><time>2026-05-01T17:32:43.89Z</time></trkpt><trkpt lat="46.5908958" lon="12.5224321"><ele>1055.0</ele><time>2026-05-01T17:32:44.882Z</time></trkpt><trkpt lat="46.5910559" lon="12.5224842"><ele>1055.0</ele><time>2026-05-01T17:32:45.881Z</time></trkpt><trkpt lat="46.5912049" lon="12.5225096"><ele>1055.0</ele><time>2026-05-01T17:32:46.88Z</time></trkpt><trkpt lat="46.5913398" lon="12.5225438"><ele>1057.5</ele><time>2026-05-01T17:32:47.877Z</time></trkpt><trkpt lat="46.5914793" lon="12.5225575"><ele>1060.0</ele><time>2026-05-01T17:32:48.883Z</time></trkpt><trkpt lat="46.5916172" lon="12.5225354"><ele>1062.5</ele><time>2026-05-01T17:32:49.886Z</time></trkpt><trkpt lat="46.5917535" lon="12.5224742"><ele>1065.0</ele><time>2026-05-01T17:32:50.877Z</time></trkpt><trkpt lat="46.5918991" lon="12.5223965"><ele>1066.5</ele><time>2026-05-01T17:32:51.883Z</time></trkpt><trkpt lat="46.5920426" lon="12.5223512"><ele>1068.0</ele><time>2026-05-01T17:32:52.886Z</time></trkpt><trkpt lat="46.5921857" lon="12.5223326"><ele>1069.5</ele><time>2026-05-01T17:32:53.882Z</time></trkpt><trkpt lat="46.5923265" lon="12.5223368"><ele>1071.0</ele><time>2026-05-01T17:32:54.882Z</time></trkpt><trkpt lat="46.5924689" lon="12.5223706"><ele>1071.0</ele><time>2026-05-01T17:32:55.889Z</time></trkpt><trkpt lat="46.5926042" lon="12.5224231"><ele>1071.0</ele><time>2026-05-01T17:32:56.882Z</time></trkpt><trkpt lat="46.5927269" lon="12.5224881"><ele>1071.0</ele><time>2026-05-01T17:32:57.887Z</time></trkpt><trkpt lat="46.5928542" lon="12.5225161"><ele>1071.0</ele><time>2026-05-01T17:32:58.887Z</time></trkpt><trkpt lat="46.5929794" lon="12.5225208"><ele>1075.0</ele><time>2026-05-01T17:32:59.88Z</time></trkpt><trkpt lat="46.5931005" lon="12.522528"><ele>1079.0</ele><time>2026-05-01T17:33:00.891Z</time></trkpt><trkpt lat="46.5932161" lon="12.5225607"><ele>1083.0</ele><time>2026-05-01T17:33:01.889Z</time></trkpt><trkpt lat="46.593312" lon="12.5226536"><ele>1087.0</ele><time>2026-05-01T17:33:02.878Z</time></trkpt><trkpt lat="46.5934103" lon="12.5227508"><ele>1087.0</ele><time>2026-05-01T17:33:03.879Z</time></trkpt><trkpt lat="46.5935099" lon="12.5228508"><ele>1087.0</ele><time>2026-05-01T17:33:04.885Z</time></trkpt><trkpt lat="46.5936124" lon="12.5228862"><ele>1087.0</ele><time>2026-05-01T17:33:05.884Z</time></trkpt><trkpt lat="46.5937301" lon="12.5228848"><ele>1087.0</ele><time>2026-05-01T17:33:06.88Z</time></trkpt><trkpt lat="46.5938683" lon="12.522849"><ele>1090.6666666666665</ele><time>2026-05-01T17:33:07.887Z</time></trkpt><trkpt lat="46.5940161" lon="12.5228016"><ele>1094.3333333333333</ele><time>2026-05-01T17:33:08.882Z</time></trkpt><trkpt lat="46.5941843" lon="12.5227859"><ele>1098.0</ele><time>2026-05-01T17:33:09.882Z</time></trkpt><trkpt lat="46.5943583" lon="12.5227985"><ele>1101.3333333333333</ele><time>2026-05-01T17:33:10.892Z</time></trkpt><trkpt lat="46.594519" lon="12.5228376"><ele>1104.6666666666665</ele><time>2026-05-01T17:33:11.882Z</time></trkpt><trkpt lat="46.5946833" lon="12.5229052"><ele>1108.0</ele><time>2026-05-01T17:33:12.884Z</time></trkpt><trkpt lat="46.5948656" lon="12.5229663"><ele>1104.6666666666665</ele><time>2026-05-01T17:33:13.886Z</time></trkpt><trkpt lat="46.5950511" lon="12.5230387"><ele>1101.3333333333333</ele><time>2026-05-01T17:33:14.882Z</time></trkpt><trkpt lat="46.5952448" lon="12.5231081"><ele>1098.0</ele><time>2026-05-01T17:33:15.893Z</time></trkpt><trkpt lat="46.5954376" lon="12.5231758"><ele>1098.0</ele><time>2026-05-01T17:33:16.883Z</time></trkpt><trkpt lat="46.5956224" lon="12.5232459"><ele>1098.0</ele><time>2026-05-01T17:33:17.88Z</time></trkpt><trkpt lat="46.5957915" lon="12.5233133"><ele>1098.0</ele><time>2026-05-01T17:33:18.882Z</time></trkpt><trkpt lat="46.5959637" lon="12.5233546"><ele>1098.0</ele><time>2026-05-01T17:33:19.89Z</time></trkpt><trkpt lat="46.5961355" lon="12.5233558"><ele>1098.0</ele><time>2026-05-01T17:33:20.891Z</time></trkpt><trkpt lat="46.596312" lon="12.5233238"><ele>1098.0</ele><time>2026-05-01T17:33:21.891Z</time></trkpt><trkpt lat="46.5965057" lon="12.5232819"><ele>1101.0</ele><time>2026-05-01T17:33:22.886Z</time></trkpt><trkpt lat="46.5967026" lon="12.523242"><ele>1104.0</ele><time>2026-05-01T17:33:23.894Z</time></trkpt><trkpt lat="46.5968747" lon="12.5232112"><ele>1107.0</ele><time>2026-05-01T17:33:24.886Z</time></trkpt><trkpt lat="46.5970369" lon="12.5232007"><ele>1108.6666666666667</ele><time>2026-05-01T17:33:25.884Z</time></trkpt><trkpt lat="46.5971884" lon="12.5232238"><ele>1110.3333333333335</ele><time>2026-05-01T17:33:26.891Z</time></trkpt><trkpt lat="46.5973459" lon="12.5232611"><ele>1112.0</ele><time>2026-05-01T17:33:27.888Z</time></trkpt><trkpt lat="46.597493" lon="12.5232998"><ele>1112.0</ele><time>2026-05-01T17:33:28.898Z</time></trkpt><trkpt lat="46.5976265" lon="12.5233309"><ele>1112.0</ele><time>2026-05-01T17:33:29.889Z</time></trkpt><trkpt lat="46.5977485" lon="12.5233884"><ele>1112.0</ele><time>2026-05-01T17:33:30.895Z</time></trkpt><trkpt lat="46.5978581" lon="12.5234672"><ele>1112.0</ele><time>2026-05-01T17:33:31.885Z</time></trkpt><trkpt lat="46.597955" lon="12.5236066"><ele>1109.6666666666667</ele><time>2026-05-01T17:33:32.879Z</time></trkpt><trkpt lat="46.5980465" lon="12.5237625"><ele>1107.3333333333333</ele><time>2026-05-01T17:33:33.884Z</time></trkpt><trkpt lat="46.5981546" lon="12.5239288"><ele>1105.0</ele><time>2026-05-01T17:33:34.882Z</time></trkpt><trkpt lat="46.5982696" lon="12.5240783"><ele>1105.0</ele><time>2026-05-01T17:33:35.884Z</time></trkpt><trkpt lat="46.5983956" lon="12.524206"><ele>1105.0</ele><time>2026-05-01T17:33:36.88Z</time></trkpt><trkpt lat="46.5985286" lon="12.5242967"><ele>1105.0</ele><time>2026-05-01T17:33:37.899Z</time></trkpt><trkpt lat="46.5986664" lon="12.5243571"><ele>1105.0</ele><time>2026-05-01T17:33:38.894Z</time></trkpt><trkpt lat="46.5988018" lon="12.5243973"><ele>1108.0</ele><time>2026-05-01T17:33:39.883Z</time></trkpt><trkpt lat="46.598931" lon="12.5244012"><ele>1111.0</ele><time>2026-05-01T17:33:40.885Z</time></trkpt><trkpt lat="46.5990535" lon="12.5243642"><ele>1114.0</ele><time>2026-05-01T17:33:41.884Z</time></trkpt><trkpt lat="46.5991635" lon="12.5242866"><ele>1117.0</ele><time>2026-05-01T17:33:42.898Z</time></trkpt><trkpt lat="46.5992731" lon="12.5241593"><ele>1117.0</ele><time>2026-05-01T17:33:43.879Z</time></trkpt><trkpt lat="46.5993846" lon="12.524009"><ele>1117.0</ele><time>2026-05-01T17:33:44.877Z</time></trkpt><trkpt lat="46.5995224" lon="12.5238699"><ele>1117.0</ele><time>2026-05-01T17:33:45.888Z</time></trkpt><trkpt lat="46.5996785" lon="12.5237464"><ele>1117.3333333333333</ele><time>2026-05-01T17:33:46.884Z</time></trkpt><trkpt lat="46.5998329" lon="12.5236427"><ele>1117.6666666666667</ele><time>2026-05-01T17:33:47.884Z</time></trkpt><trkpt lat="46.5999888" lon="12.5235695"><ele>1118.0</ele><time>2026-05-01T17:33:48.902Z</time></trkpt><trkpt lat="46.6001538" lon="12.5235116"><ele>1118.0</ele><time>2026-05-01T17:33:49.883Z</time></trkpt><trkpt lat="46.6003276" lon="12.5234702"><ele>1118.0</ele><time>2026-05-01T17:33:50.887Z</time></trkpt><trkpt lat="46.6004812" lon="12.523433"><ele>1118.0</ele><time>2026-05-01T17:33:51.89Z</time></trkpt><trkpt lat="46.6006174" lon="12.5234242"><ele>1119.3333333333335</ele><time>2026-05-01T17:33:52.887Z</time></trkpt><trkpt lat="46.6007635" lon="12.5234553"><ele>1120.6666666666667</ele><time>2026-05-01T17:33:53.886Z</time></trkpt><trkpt lat="46.6009138" lon="12.5235196"><ele>1122.0</ele><time>2026-05-01T17:33:54.889Z</time></trkpt><trkpt lat="46.6010793" lon="12.5235853"><ele>1124.3333333333333</ele><time>2026-05-01T17:33:55.886Z</time></trkpt><trkpt lat="46.6012514" lon="12.5236276"><ele>1126.6666666666665</ele><time>2026-05-01T17:33:56.89Z</time></trkpt><trkpt lat="46.6014211" lon="12.5236337"><ele>1129.0</ele><time>2026-05-01T17:33:57.886Z</time></trkpt><trkpt lat="46.6015795" lon="12.523661"><ele>1129.0</ele><time>2026-05-01T17:33:58.882Z</time></trkpt><trkpt lat="46.6017239" lon="12.5236901"><ele>1129.0</ele><time>2026-05-01T17:33:59.886Z</time></trkpt><trkpt lat="46.6018501" lon="12.5237697"><ele>1129.0</ele><time>2026-05-01T17:34:00.883Z</time></trkpt><trkpt lat="46.6019819" lon="12.5238832"><ele>1129.0</ele><time>2026-05-01T17:34:01.891Z</time></trkpt><trkpt lat="46.6021202" lon="12.5240077"><ele>1127.0</ele><time>2026-05-01T17:34:02.883Z</time></trkpt><trkpt lat="46.602238" lon="12.5241112"><ele>1125.0</ele><time>2026-05-01T17:34:03.875Z</time></trkpt><trkpt lat="46.6023378" lon="12.5242102"><ele>1123.0</ele><time>2026-05-01T17:34:04.89Z</time></trkpt><trkpt lat="46.6024286" lon="12.5242775"><ele>1121.0</ele><time>2026-05-01T17:34:05.878Z</time></trkpt><trkpt lat="46.602509" lon="12.5243034"><ele>1119.0</ele><time>2026-05-01T17:34:06.896Z</time></trkpt><trkpt lat="46.6025821" lon="12.5242888"><ele>1119.0</ele><time>2026-05-01T17:34:07.882Z</time></trkpt><trkpt lat="46.6026386" lon="12.5242359"><ele>1119.0</ele><time>2026-05-01T17:34:08.886Z</time></trkpt><trkpt lat="46.6026817" lon="12.5241349"><ele>1119.0</ele><time>2026-05-01T17:34:09.885Z</time></trkpt><trkpt lat="46.6027069" lon="12.5240125"><ele>1119.0</ele><time>2026-05-01T17:34:10.88Z</time></trkpt><trkpt lat="46.6026887" lon="12.523894"><ele>1119.0</ele><time>2026-05-01T17:34:11.888Z</time></trkpt><trkpt lat="46.6026326" lon="12.5238186"><ele>1119.0</ele><time>2026-05-01T17:34:12.881Z</time></trkpt><trkpt lat="46.6025435" lon="12.5237575"><ele>1123.5</ele><time>2026-05-01T17:34:13.889Z</time></trkpt><trkpt lat="46.6024103" lon="12.5237006"><ele>1128.0</ele><time>2026-05-01T17:34:14.883Z</time></trkpt><trkpt lat="46.6022772" lon="12.5236526"><ele>1132.5</ele><time>2026-05-01T17:34:15.879Z</time></trkpt><trkpt lat="46.6021564" lon="12.5235925"><ele>1137.0</ele><time>2026-05-01T17:34:16.88Z</time></trkpt><trkpt lat="46.6020717" lon="12.5235367"><ele>1137.0</ele><time>2026-05-01T17:34:17.878Z</time></trkpt><trkpt lat="46.6020106" lon="12.5234659"><ele>1137.0</ele><time>2026-05-01T17:34:20.877Z</time></trkpt><trkpt lat="46.6019531" lon="12.5233783"><ele>1137.0</ele><time>2026-05-01T17:34:41.886Z</time></trkpt><trkpt lat="46.6018713" lon="12.5233161"><ele>1137.0</ele><time>2026-05-01T17:34:45.884Z</time></trkpt><trkpt lat="46.6017982" lon="12.5232867"><ele>1137.0</ele><time>2026-05-01T17:34:46.877Z</time></trkpt><trkpt lat="46.6016768" lon="12.5232631"><ele>1135.0</ele><time>2026-05-01T17:34:47.881Z</time></trkpt><trkpt lat="46.6015532" lon="12.5232517"><ele>1133.0</ele><time>2026-05-01T17:34:48.891Z</time></trkpt><trkpt lat="46.6014298" lon="12.5232444"><ele>1131.0</ele><time>2026-05-01T17:34:49.883Z</time></trkpt><trkpt lat="46.6013116" lon="12.5232302"><ele>1129.0</ele><time>2026-05-01T17:34:50.883Z</time></trkpt><trkpt lat="46.6011891" lon="12.523212"><ele>1127.25</ele><time>2026-05-01T17:34:51.887Z</time></trkpt><trkpt lat="46.6010625" lon="12.5231785"><ele>1125.5</ele><time>2026-05-01T17:34:52.884Z</time></trkpt><trkpt lat="46.6009415" lon="12.5231207"><ele>1123.75</ele><time>2026-05-01T17:34:53.895Z</time></trkpt><trkpt lat="46.6008364" lon="12.5230116"><ele>1122.0</ele><time>2026-05-01T17:34:54.883Z</time></trkpt><trkpt lat="46.600743" lon="12.5228491"><ele>1131.25</ele><time>2026-05-01T17:34:55.878Z</time></trkpt><trkpt lat="46.6006357" lon="12.5227373"><ele>1140.5</ele><time>2026-05-01T17:34:56.881Z</time></trkpt><trkpt lat="46.6005091" lon="12.5226837"><ele>1149.75</ele><time>2026-05-01T17:34:57.882Z</time></trkpt><trkpt lat="46.6003667" lon="12.5226633"><ele>1159.0</ele><time>2026-05-01T17:34:58.887Z</time></trkpt><trkpt lat="46.6002119" lon="12.5226663"><ele>1159.0</ele><time>2026-05-01T17:34:59.878Z</time></trkpt><trkpt lat="46.6000467" lon="12.5226701"><ele>1159.0</ele><time>2026-05-01T17:35:00.885Z</time></trkpt><trkpt lat="46.5998751" lon="12.5226794"><ele>1159.0</ele><time>2026-05-01T17:35:01.878Z</time></trkpt><trkpt lat="46.5997133" lon="12.5227042"><ele>1159.0</ele><time>2026-05-01T17:35:02.878Z</time></trkpt><trkpt lat="46.5995545" lon="12.5227349"><ele>1159.0</ele><time>2026-05-01T17:35:03.877Z</time></trkpt><trkpt lat="46.5994008" lon="12.5227521"><ele>1159.0</ele><time>2026-05-01T17:35:04.885Z</time></trkpt><trkpt lat="46.5992494" lon="12.5227361"><ele>1157.6666666666665</ele><time>2026-05-01T17:35:05.882Z</time></trkpt><trkpt lat="46.599103" lon="12.5226795"><ele>1156.3333333333333</ele><time>2026-05-01T17:35:06.886Z</time></trkpt><trkpt lat="46.598956" lon="12.5225792"><ele>1155.0</ele><time>2026-05-01T17:35:07.879Z</time></trkpt><trkpt lat="46.5988033" lon="12.5224762"><ele>1152.3333333333333</ele><time>2026-05-01T17:35:08.89Z</time></trkpt><trkpt lat="46.598644" lon="12.5223436"><ele>1149.6666666666665</ele><time>2026-05-01T17:35:09.88Z</time></trkpt><trkpt lat="46.5984755" lon="12.5222006"><ele>1147.0</ele><time>2026-05-01T17:35:10.881Z</time></trkpt><trkpt lat="46.5983191" lon="12.5220601"><ele>1156.6666666666665</ele><time>2026-05-01T17:35:11.877Z</time></trkpt><trkpt lat="46.5981788" lon="12.5219475"><ele>1166.3333333333333</ele><time>2026-05-01T17:35:12.89Z</time></trkpt><trkpt lat="46.5980381" lon="12.5218543"><ele>1176.0</ele><time>2026-05-01T17:35:13.88Z</time></trkpt><trkpt lat="46.5978839" lon="12.5217912"><ele>1173.0</ele><time>2026-05-01T17:35:14.892Z</time></trkpt><trkpt lat="46.5977141" lon="12.5217479"><ele>1170.0</ele><time>2026-05-01T17:35:15.888Z</time></trkpt><trkpt lat="46.597534" lon="12.5217003"><ele>1167.0</ele><time>2026-05-01T17:35:16.886Z</time></trkpt><trkpt lat="46.5973584" lon="12.5216376"><ele>1167.0</ele><time>2026-05-01T17:35:17.888Z</time></trkpt><trkpt lat="46.597175" lon="12.5215703"><ele>1167.0</ele><time>2026-05-01T17:35:18.879Z</time></trkpt><trkpt lat="46.5969865" lon="12.5215051"><ele>1167.0</ele><time>2026-05-01T17:35:19.882Z</time></trkpt><trkpt lat="46.5968047" lon="12.5214649"><ele>1164.3333333333333</ele><time>2026-05-01T17:35:20.886Z</time></trkpt><trkpt lat="46.5966376" lon="12.5214317"><ele>1161.6666666666665</ele><time>2026-05-01T17:35:21.885Z</time></trkpt><trkpt lat="46.5964902" lon="12.5214107"><ele>1159.0</ele><time>2026-05-01T17:35:22.887Z</time></trkpt><trkpt lat="46.5963542" lon="12.5213875"><ele>1159.0</ele><time>2026-05-01T17:35:23.879Z</time></trkpt><trkpt lat="46.5962392" lon="12.5213659"><ele>1159.0</ele><time>2026-05-01T17:35:24.883Z</time></trkpt><trkpt lat="46.5961463" lon="12.5213278"><ele>1159.0</ele><time>2026-05-01T17:35:25.88Z</time></trkpt><trkpt lat="46.5960672" lon="12.5212338"><ele>1159.0</ele><time>2026-05-01T17:35:26.884Z</time></trkpt><trkpt lat="46.5959779" lon="12.5210968"><ele>1159.0</ele><time>2026-05-01T17:35:27.878Z</time></trkpt><trkpt lat="46.5958665" lon="12.5209697"><ele>1163.3333333333333</ele><time>2026-05-01T17:35:28.883Z</time></trkpt><trkpt lat="46.5957323" lon="12.5208648"><ele>1167.6666666666667</ele><time>2026-05-01T17:35:29.891Z</time></trkpt><trkpt lat="46.5955733" lon="12.5207648"><ele>1172.0</ele><time>2026-05-01T17:35:30.88Z</time></trkpt><trkpt lat="46.5954047" lon="12.5206742"><ele>1171.3333333333335</ele><time>2026-05-01T17:35:31.886Z</time></trkpt><trkpt lat="46.5952441" lon="12.5205824"><ele>1170.6666666666667</ele><time>2026-05-01T17:35:32.882Z</time></trkpt><trkpt lat="46.5950819" lon="12.520476"><ele>1170.0</ele><time>2026-05-01T17:35:33.884Z</time></trkpt><trkpt lat="46.5949197" lon="12.5203736"><ele>1173.3333333333333</ele><time>2026-05-01T17:35:34.879Z</time></trkpt><trkpt lat="46.5947538" lon="12.5203128"><ele>1176.6666666666665</ele><time>2026-05-01T17:35:35.88Z</time></trkpt><trkpt lat="46.5945817" lon="12.5202738"><ele>1180.0</ele><time>2026-05-01T17:35:36.891Z</time></trkpt><trkpt lat="46.5943987" lon="12.5202474"><ele>1180.0</ele><time>2026-05-01T17:35:37.882Z</time></trkpt><trkpt lat="46.5942277" lon="12.5202102"><ele>1180.0</ele><time>2026-05-01T17:35:38.892Z</time></trkpt><trkpt lat="46.5940602" lon="12.5201479"><ele>1180.0</ele><time>2026-05-01T17:35:39.884Z</time></trkpt><trkpt lat="46.5939003" lon="12.5200385"><ele>1180.0</ele><time>2026-05-01T17:35:40.884Z</time></trkpt><trkpt lat="46.5937419" lon="12.5199314"><ele>1180.0</ele><time>2026-05-01T17:35:41.885Z</time></trkpt><trkpt lat="46.5935728" lon="12.5198542"><ele>1180.0</ele><time>2026-05-01T17:35:42.886Z</time></trkpt><trkpt lat="46.5934034" lon="12.5198137"><ele>1177.75</ele><time>2026-05-01T17:35:43.882Z</time></trkpt><trkpt lat="46.5932454" lon="12.5197785"><ele>1175.5</ele><time>2026-05-01T17:35:44.883Z</time></trkpt><trkpt lat="46.5931031" lon="12.5197368"><ele>1173.25</ele><time>2026-05-01T17:35:45.88Z</time></trkpt><trkpt lat="46.5929704" lon="12.5196887"><ele>1171.0</ele><time>2026-05-01T17:35:46.889Z</time></trkpt><trkpt lat="46.5928557" lon="12.5195809"><ele>1175.5</ele><time>2026-05-01T17:35:47.885Z</time></trkpt><trkpt lat="46.592748" lon="12.5194496"><ele>1180.0</ele><time>2026-05-01T17:35:48.883Z</time></trkpt><trkpt lat="46.5926484" lon="12.5193393"><ele>1184.5</ele><time>2026-05-01T17:35:49.883Z</time></trkpt><trkpt lat="46.5925434" lon="12.5192759"><ele>1189.0</ele><time>2026-05-01T17:35:50.883Z</time></trkpt><trkpt lat="46.5924309" lon="12.5192521"><ele>1189.0</ele><time>2026-05-01T17:35:51.885Z</time></trkpt><trkpt lat="46.5922932" lon="12.5192583"><ele>1189.0</ele><time>2026-05-01T17:35:52.886Z</time></trkpt><trkpt lat="46.592139" lon="12.5192745"><ele>1189.0</ele><time>2026-05-01T17:35:53.884Z</time></trkpt><trkpt lat="46.5919686" lon="12.5192712"><ele>1188.0</ele><time>2026-05-01T17:35:54.892Z</time></trkpt><trkpt lat="46.5917986" lon="12.5192333"><ele>1187.0</ele><time>2026-05-01T17:35:55.884Z</time></trkpt><trkpt lat="46.5916164" lon="12.5191867"><ele>1186.0</ele><time>2026-05-01T17:35:56.883Z</time></trkpt><trkpt lat="46.5914233" lon="12.5191242"><ele>1186.0</ele><time>2026-05-01T17:35:57.887Z</time></trkpt><trkpt lat="46.5912302" lon="12.5190664"><ele>1186.0</ele><time>2026-05-01T17:35:58.892Z</time></trkpt><trkpt lat="46.5910387" lon="12.5190048"><ele>1186.0</ele><time>2026-05-01T17:35:59.882Z</time></trkpt><trkpt lat="46.5908583" lon="12.518959"><ele>1184.75</ele><time>2026-05-01T17:36:00.892Z</time></trkpt><trkpt lat="46.5907074" lon="12.5189058"><ele>1183.5</ele><time>2026-05-01T17:36:01.883Z</time></trkpt><trkpt lat="46.5905769" lon="12.5188289"><ele>1182.25</ele><time>2026-05-01T17:36:02.886Z</time></trkpt><trkpt lat="46.5904532" lon="12.5187305"><ele>1181.0</ele><time>2026-05-01T17:36:03.89Z</time></trkpt><trkpt lat="46.590327" lon="12.5185963"><ele>1185.0</ele><time>2026-05-01T17:36:04.882Z</time></trkpt><trkpt lat="46.5901856" lon="12.518442"><ele>1189.0</ele><time>2026-05-01T17:36:05.89Z</time></trkpt><trkpt lat="46.5900308" lon="12.518284"><ele>1193.0</ele><time>2026-05-01T17:36:06.884Z</time></trkpt><trkpt lat="46.589878" lon="12.5181157"><ele>1193.0</ele><time>2026-05-01T17:36:07.883Z</time></trkpt><trkpt lat="46.5897311" lon="12.5179652"><ele>1193.0</ele><time>2026-05-01T17:36:08.889Z</time></trkpt><trkpt lat="46.5895922" lon="12.5178281"><ele>1193.0</ele><time>2026-05-01T17:36:09.892Z</time></trkpt><trkpt lat="46.5894305" lon="12.5177009"><ele>1197.6666666666667</ele><time>2026-05-01T17:36:10.892Z</time></trkpt><trkpt lat="46.5892503" lon="12.5175951"><ele>1202.3333333333333</ele><time>2026-05-01T17:36:11.889Z</time></trkpt><trkpt lat="46.5890715" lon="12.5175105"><ele>1207.0</ele><time>2026-05-01T17:36:12.897Z</time></trkpt><trkpt lat="46.5889195" lon="12.5174345"><ele>1207.0</ele><time>2026-05-01T17:36:13.888Z</time></trkpt><trkpt lat="46.5888067" lon="12.5173568"><ele>1207.0</ele><time>2026-05-01T17:36:14.889Z</time></trkpt><trkpt lat="46.5887244" lon="12.517292"><ele>1207.0</ele><time>2026-05-01T17:36:15.899Z</time></trkpt><trkpt lat="46.5886727" lon="12.5172111"><ele>1207.0</ele><time>2026-05-01T17:36:16.89Z</time></trkpt><trkpt lat="46.5886467" lon="12.5170941"><ele>1207.0</ele><time>2026-05-01T17:36:17.886Z</time></trkpt><trkpt lat="46.5886531" lon="12.5169647"><ele>1209.75</ele><time>2026-05-01T17:36:18.886Z</time></trkpt><trkpt lat="46.5886837" lon="12.5168232"><ele>1212.5</ele><time>2026-05-01T17:36:19.882Z</time></trkpt><trkpt lat="46.5887225" lon="12.5166538"><ele>1215.25</ele><time>2026-05-01T17:36:20.898Z</time></trkpt><trkpt lat="46.5887649" lon="12.5164541"><ele>1218.0</ele><time>2026-05-01T17:36:21.889Z</time></trkpt><trkpt lat="46.5888239" lon="12.5162222"><ele>1218.0</ele><time>2026-05-01T17:36:22.885Z</time></trkpt><trkpt lat="46.5888845" lon="12.5159716"><ele>1218.0</ele><time>2026-05-01T17:36:23.884Z</time></trkpt><trkpt lat="46.5889277" lon="12.5157129"><ele>1218.0</ele><time>2026-05-01T17:36:24.892Z</time></trkpt><trkpt lat="46.5889618" lon="12.5154414"><ele>1217.0</ele><time>2026-05-01T17:36:25.883Z</time></trkpt><trkpt lat="46.5889856" lon="12.5151724"><ele>1216.0</ele><time>2026-05-01T17:36:26.892Z</time></trkpt><trkpt lat="46.5890133" lon="12.5149296"><ele>1215.0</ele><time>2026-05-01T17:36:27.884Z</time></trkpt><trkpt lat="46.5890395" lon="12.5147206"><ele>1213.25</ele><time>2026-05-01T17:36:28.904Z</time></trkpt><trkpt lat="46.5890667" lon="12.5145279"><ele>1211.5</ele><time>2026-05-01T17:36:29.888Z</time></trkpt><trkpt lat="46.5890961" lon="12.5143466"><ele>1209.75</ele><time>2026-05-01T17:36:30.888Z</time></trkpt><trkpt lat="46.5891269" lon="12.5141959"><ele>1208.0</ele><time>2026-05-01T17:36:31.885Z</time></trkpt><trkpt lat="46.5891799" lon="12.5140541"><ele>1208.0</ele><time>2026-05-01T17:36:32.882Z</time></trkpt><trkpt lat="46.5892593" lon="12.5138939"><ele>1208.0</ele><time>2026-05-01T17:36:33.88Z</time></trkpt><trkpt lat="46.5893386" lon="12.5137211"><ele>1208.0</ele><time>2026-05-01T17:36:34.885Z</time></trkpt><trkpt lat="46.5894225" lon="12.5135269"><ele>1208.0</ele><time>2026-05-01T17:36:35.894Z</time></trkpt><trkpt lat="46.5894923" lon="12.5132969"><ele>1212.3333333333335</ele><time>2026-05-01T17:36:36.889Z</time></trkpt><trkpt lat="46.5895555" lon="12.5130553"><ele>1216.6666666666667</ele><time>2026-05-01T17:36:37.891Z</time></trkpt><trkpt lat="46.5896259" lon="12.5128035"><ele>1221.0</ele><time>2026-05-01T17:36:38.893Z</time></trkpt><trkpt lat="46.5896911" lon="12.5125478"><ele>1221.0</ele><time>2026-05-01T17:36:39.889Z</time></trkpt><trkpt lat="46.5897521" lon="12.5123003"><ele>1221.0</ele><time>2026-05-01T17:36:40.889Z</time></trkpt><trkpt lat="46.5898102" lon="12.5120693"><ele>1221.0</ele><time>2026-05-01T17:36:41.881Z</time></trkpt><trkpt lat="46.5898499" lon="12.5118303"><ele>1218.3333333333333</ele><time>2026-05-01T17:36:42.882Z</time></trkpt><trkpt lat="46.5898875" lon="12.5115939"><ele>1215.6666666666665</ele><time>2026-05-01T17:36:43.885Z</time></trkpt><trkpt lat="46.5899274" lon="12.5113492"><ele>1213.0</ele><time>2026-05-01T17:36:44.891Z</time></trkpt><trkpt lat="46.589973" lon="12.5111007"><ele>1211.6666666666665</ele><time>2026-05-01T17:36:45.887Z</time></trkpt><trkpt lat="46.5900165" lon="12.5108464"><ele>1210.3333333333333</ele><time>2026-05-01T17:36:46.89Z</time></trkpt><trkpt lat="46.5900612" lon="12.5106125"><ele>1209.0</ele><time>2026-05-01T17:36:47.89Z</time></trkpt><trkpt lat="46.5901101" lon="12.5103916"><ele>1206.3333333333333</ele><time>2026-05-01T17:36:48.889Z</time></trkpt><trkpt lat="46.5901639" lon="12.5101909"><ele>1203.6666666666665</ele><time>2026-05-01T17:36:49.885Z</time></trkpt><trkpt lat="46.5902384" lon="12.509996"><ele>1201.0</ele><time>2026-05-01T17:36:50.889Z</time></trkpt><trkpt lat="46.5903422" lon="12.5097974"><ele>1202.6666666666665</ele><time>2026-05-01T17:36:51.886Z</time></trkpt><trkpt lat="46.5904577" lon="12.5096121"><ele>1204.3333333333333</ele><time>2026-05-01T17:36:52.888Z</time></trkpt><trkpt lat="46.5905853" lon="12.5094381"><ele>1206.0</ele><time>2026-05-01T17:36:53.887Z</time></trkpt><trkpt lat="46.590733" lon="12.5092735"><ele>1206.0</ele><time>2026-05-01T17:36:54.898Z</time></trkpt><trkpt lat="46.5908862" lon="12.5090992"><ele>1206.0</ele><time>2026-05-01T17:36:55.887Z</time></trkpt><trkpt lat="46.5910362" lon="12.5088913"><ele>1206.0</ele><time>2026-05-01T17:36:56.89Z</time></trkpt><trkpt lat="46.5911694" lon="12.5086695"><ele>1211.6666666666667</ele><time>2026-05-01T17:36:57.887Z</time></trkpt><trkpt lat="46.5912955" lon="12.5084415"><ele>1217.3333333333335</ele><time>2026-05-01T17:36:58.888Z</time></trkpt><trkpt lat="46.5914221" lon="12.5082001"><ele>1223.0</ele><time>2026-05-01T17:36:59.887Z</time></trkpt><trkpt lat="46.5915358" lon="12.5079466"><ele>1218.0</ele><time>2026-05-01T17:37:00.886Z</time></trkpt><trkpt lat="46.5916454" lon="12.5077127"><ele>1213.0</ele><time>2026-05-01T17:37:01.885Z</time></trkpt><trkpt lat="46.5917608" lon="12.5075026"><ele>1208.0</ele><time>2026-05-01T17:37:02.879Z</time></trkpt><trkpt lat="46.5918825" lon="12.5072995"><ele>1208.0</ele><time>2026-05-01T17:37:03.884Z</time></trkpt><trkpt lat="46.5919969" lon="12.5070928"><ele>1208.0</ele><time>2026-05-01T17:37:04.887Z</time></trkpt><trkpt lat="46.5921001" lon="12.5068652"><ele>1208.0</ele><time>2026-05-01T17:37:05.884Z</time></trkpt><trkpt lat="46.5921919" lon="12.5066158"><ele>1210.6666666666667</ele><time>2026-05-01T17:37:06.884Z</time></trkpt><trkpt lat="46.5922821" lon="12.5063622"><ele>1213.3333333333333</ele><time>2026-05-01T17:37:07.893Z</time></trkpt><trkpt lat="46.5923722" lon="12.5061031"><ele>1216.0</ele><time>2026-05-01T17:37:08.883Z</time></trkpt><trkpt lat="46.5924525" lon="12.5058376"><ele>1216.0</ele><time>2026-05-01T17:37:09.888Z</time></trkpt><trkpt lat="46.5925253" lon="12.5055604"><ele>1216.0</ele><time>2026-05-01T17:37:10.888Z</time></trkpt><trkpt lat="46.5926023" lon="12.5052852"><ele>1216.0</ele><time>2026-05-01T17:37:11.891Z</time></trkpt><trkpt lat="46.5926974" lon="12.505012"><ele>1218.3333333333333</ele><time>2026-05-01T17:37:12.881Z</time></trkpt><trkpt lat="46.5928092" lon="12.5047346"><ele>1220.6666666666667</ele><time>2026-05-01T17:37:13.887Z</time></trkpt><trkpt lat="46.5929225" lon="12.5044677"><ele>1223.0</ele><time>2026-05-01T17:37:14.889Z</time></trkpt><trkpt lat="46.5930314" lon="12.504199"><ele>1223.0</ele><time>2026-05-01T17:37:15.881Z</time></trkpt><trkpt lat="46.5931514" lon="12.5039397"><ele>1223.0</ele><time>2026-05-01T17:37:16.893Z</time></trkpt><trkpt lat="46.5932528" lon="12.5036717"><ele>1223.0</ele><time>2026-05-01T17:37:17.89Z</time></trkpt><trkpt lat="46.5933491" lon="12.5033992"><ele>1218.6666666666667</ele><time>2026-05-01T17:37:18.887Z</time></trkpt><trkpt lat="46.5934364" lon="12.5031352"><ele>1214.3333333333333</ele><time>2026-05-01T17:37:19.891Z</time></trkpt><trkpt lat="46.5935241" lon="12.5028811"><ele>1210.0</ele><time>2026-05-01T17:37:20.888Z</time></trkpt><trkpt lat="46.5936374" lon="12.5026411"><ele>1210.3333333333333</ele><time>2026-05-01T17:37:21.885Z</time></trkpt><trkpt lat="46.5937706" lon="12.5024128"><ele>1210.6666666666667</ele><time>2026-05-01T17:37:22.884Z</time></trkpt><trkpt lat="46.5939087" lon="12.502185"><ele>1211.0</ele><time>2026-05-01T17:37:23.886Z</time></trkpt><trkpt lat="46.5940448" lon="12.5019712"><ele>1211.0</ele><time>2026-05-01T17:37:24.884Z</time></trkpt><trkpt lat="46.5941923" lon="12.5017671"><ele>1211.0</ele><time>2026-05-01T17:37:25.882Z</time></trkpt><trkpt lat="46.5943439" lon="12.5015765"><ele>1211.0</ele><time>2026-05-01T17:37:26.887Z</time></trkpt><trkpt lat="46.5945064" lon="12.5013894"><ele>1211.6666666666667</ele><time>2026-05-01T17:37:27.885Z</time></trkpt><trkpt lat="46.5946633" lon="12.5012146"><ele>1212.3333333333333</ele><time>2026-05-01T17:37:28.882Z</time></trkpt><trkpt lat="46.5948128" lon="12.5010507"><ele>1213.0</ele><time>2026-05-01T17:37:29.884Z</time></trkpt><trkpt lat="46.5949633" lon="12.5009048"><ele>1213.0</ele><time>2026-05-01T17:37:30.893Z</time></trkpt><trkpt lat="46.5951232" lon="12.5007802"><ele>1213.0</ele><time>2026-05-01T17:37:31.887Z</time></trkpt><trkpt lat="46.5952881" lon="12.5006717"><ele>1213.0</ele><time>2026-05-01T17:37:32.891Z</time></trkpt><trkpt lat="46.5954377" lon="12.5005504"><ele>1214.0</ele><time>2026-05-01T17:37:33.878Z</time></trkpt><trkpt lat="46.5955774" lon="12.5003966"><ele>1215.0</ele><time>2026-05-01T17:37:34.882Z</time></trkpt><trkpt lat="46.5957129" lon="12.5002163"><ele>1216.0</ele><time>2026-05-01T17:37:35.886Z</time></trkpt><trkpt lat="46.5958501" lon="12.5000058"><ele>1216.0</ele><time>2026-05-01T17:37:36.887Z</time></trkpt><trkpt lat="46.5959901" lon="12.4997954"><ele>1216.0</ele><time>2026-05-01T17:37:37.889Z</time></trkpt><trkpt lat="46.5961302" lon="12.499585"><ele>1216.0</ele><time>2026-05-01T17:37:38.881Z</time></trkpt><trkpt lat="46.5962807" lon="12.4993744"><ele>1219.3333333333333</ele><time>2026-05-01T17:37:39.886Z</time></trkpt><trkpt lat="46.5964329" lon="12.4991684"><ele>1222.6666666666667</ele><time>2026-05-01T17:37:40.881Z</time></trkpt><trkpt lat="46.5965695" lon="12.498962"><ele>1226.0</ele><time>2026-05-01T17:37:41.88Z</time></trkpt><trkpt lat="46.5966849" lon="12.4987519"><ele>1228.3333333333335</ele><time>2026-05-01T17:37:42.886Z</time></trkpt><trkpt lat="46.5967956" lon="12.498559"><ele>1230.6666666666667</ele><time>2026-05-01T17:37:43.882Z</time></trkpt><trkpt lat="46.5969036" lon="12.4983865"><ele>1233.0</ele><time>2026-05-01T17:37:44.889Z</time></trkpt><trkpt lat="46.5970203" lon="12.4982067"><ele>1233.0</ele><time>2026-05-01T17:37:45.889Z</time></trkpt><trkpt lat="46.5971235" lon="12.4980137"><ele>1233.0</ele><time>2026-05-01T17:37:46.886Z</time></trkpt><trkpt lat="46.597213" lon="12.4977995"><ele>1233.0</ele><time>2026-05-01T17:37:47.889Z</time></trkpt><trkpt lat="46.5972841" lon="12.497565"><ele>1229.6666666666667</ele><time>2026-05-01T17:37:48.882Z</time></trkpt><trkpt lat="46.5973516" lon="12.4973436"><ele>1226.3333333333335</ele><time>2026-05-01T17:37:49.882Z</time></trkpt><trkpt lat="46.5974012" lon="12.4971474"><ele>1223.0</ele><time>2026-05-01T17:37:50.883Z</time></trkpt><trkpt lat="46.5974643" lon="12.4969619"><ele>1220.75</ele><time>2026-05-01T17:37:51.888Z</time></trkpt><trkpt lat="46.5975431" lon="12.4967887"><ele>1218.5</ele><time>2026-05-01T17:37:52.89Z</time></trkpt><trkpt lat="46.5976422" lon="12.4966338"><ele>1216.25</ele><time>2026-05-01T17:37:53.885Z</time></trkpt><trkpt lat="46.5977512" lon="12.4964957"><ele>1214.0</ele><time>2026-05-01T17:37:54.891Z</time></trkpt><trkpt lat="46.5978826" lon="12.4963929"><ele>1216.0</ele><time>2026-05-01T17:37:55.886Z</time></trkpt><trkpt lat="46.5980217" lon="12.4963224"><ele>1218.0</ele><time>2026-05-01T17:37:56.888Z</time></trkpt><trkpt lat="46.598148" lon="12.4962523"><ele>1220.0</ele><time>2026-05-01T17:37:57.883Z</time></trkpt><trkpt lat="46.5982642" lon="12.4961686"><ele>1222.0</ele><time>2026-05-01T17:37:58.88Z</time></trkpt><trkpt lat="46.5983603" lon="12.4960462"><ele>1222.0</ele><time>2026-05-01T17:37:59.885Z</time></trkpt><trkpt lat="46.5984462" lon="12.4958873"><ele>1222.0</ele><time>2026-05-01T17:38:00.885Z</time></trkpt><trkpt lat="46.5985371" lon="12.4956928"><ele>1222.0</ele><time>2026-05-01T17:38:01.887Z</time></trkpt><trkpt lat="46.598635" lon="12.4954983"><ele>1227.3333333333333</ele><time>2026-05-01T17:38:02.886Z</time></trkpt><trkpt lat="46.5987301" lon="12.4952948"><ele>1232.6666666666667</ele><time>2026-05-01T17:38:03.884Z</time></trkpt><trkpt lat="46.5988223" lon="12.4951134"><ele>1238.0</ele><time>2026-05-01T17:38:04.881Z</time></trkpt><trkpt lat="46.5989228" lon="12.4949487"><ele>1238.0</ele><time>2026-05-01T17:38:05.881Z</time></trkpt><trkpt lat="46.5990307" lon="12.4947989"><ele>1238.0</ele><time>2026-05-01T17:38:06.881Z</time></trkpt><trkpt lat="46.5991261" lon="12.494641"><ele>1238.0</ele><time>2026-05-01T17:38:07.893Z</time></trkpt><trkpt lat="46.5991976" lon="12.4944385"><ele>1235.0</ele><time>2026-05-01T17:38:08.888Z</time></trkpt><trkpt lat="46.5992455" lon="12.4942171"><ele>1232.0</ele><time>2026-05-01T17:38:09.886Z</time></trkpt><trkpt lat="46.5992849" lon="12.4939805"><ele>1229.0</ele><time>2026-05-01T17:38:10.888Z</time></trkpt><trkpt lat="46.5993298" lon="12.4937359"><ele>1229.0</ele><time>2026-05-01T17:38:11.881Z</time></trkpt><trkpt lat="46.5993745" lon="12.4934848"><ele>1229.0</ele><time>2026-05-01T17:38:12.885Z</time></trkpt><trkpt lat="46.5994221" lon="12.4932345"><ele>1229.0</ele><time>2026-05-01T17:38:13.891Z</time></trkpt><trkpt lat="46.5994654" lon="12.4929816"><ele>1233.6666666666667</ele><time>2026-05-01T17:38:14.89Z</time></trkpt><trkpt lat="46.5995034" lon="12.4927349"><ele>1238.3333333333333</ele><time>2026-05-01T17:38:15.885Z</time></trkpt><trkpt lat="46.5995354" lon="12.4925181"><ele>1243.0</ele><time>2026-05-01T17:38:16.892Z</time></trkpt><trkpt lat="46.5995737" lon="12.4923332"><ele>1243.0</ele><time>2026-05-01T17:38:17.891Z</time></trkpt><trkpt lat="46.5996343" lon="12.4921402"><ele>1243.0</ele><time>2026-05-01T17:38:18.882Z</time></trkpt><trkpt lat="46.5997043" lon="12.491949"><ele>1243.0</ele><time>2026-05-01T17:38:19.891Z</time></trkpt><trkpt lat="46.5997781" lon="12.4917536"><ele>1243.0</ele><time>2026-05-01T17:38:20.884Z</time></trkpt><trkpt lat="46.599855" lon="12.4915637"><ele>1242.8</ele><time>2026-05-01T17:38:21.906Z</time></trkpt><trkpt lat="46.5999277" lon="12.4913894"><ele>1242.6</ele><time>2026-05-01T17:38:22.89Z</time></trkpt><trkpt lat="46.5999824" lon="12.4912439"><ele>1242.4</ele><time>2026-05-01T17:38:23.898Z</time></trkpt><trkpt lat="46.60003" lon="12.4911245"><ele>1242.2</ele><time>2026-05-01T17:38:24.886Z</time></trkpt><trkpt lat="46.6000796" lon="12.4910438"><ele>1242.0</ele><time>2026-05-01T17:38:25.893Z</time></trkpt><trkpt lat="46.6001351" lon="12.4909927"><ele>1242.0</ele><time>2026-05-01T17:38:26.893Z</time></trkpt><trkpt lat="46.6002037" lon="12.490948"><ele>1242.0</ele><time>2026-05-01T17:38:27.887Z</time></trkpt><trkpt lat="46.6002851" lon="12.4909448"><ele>1242.0</ele><time>2026-05-01T17:38:28.881Z</time></trkpt><trkpt lat="46.6003773" lon="12.4909477"><ele>1242.0</ele><time>2026-05-01T17:38:29.892Z</time></trkpt><trkpt lat="46.6004794" lon="12.4909271"><ele>1242.0</ele><time>2026-05-01T17:38:30.893Z</time></trkpt><trkpt lat="46.6005711" lon="12.4908156"><ele>1242.0</ele><time>2026-05-01T17:38:31.886Z</time></trkpt><trkpt lat="46.6006603" lon="12.4906673"><ele>1242.0</ele><time>2026-05-01T17:38:32.89Z</time></trkpt><trkpt lat="46.600755" lon="12.4904776"><ele>1242.0</ele><time>2026-05-01T17:38:33.884Z</time></trkpt><trkpt lat="46.6008499" lon="12.4902762"><ele>1242.3333333333333</ele><time>2026-05-01T17:38:34.883Z</time></trkpt><trkpt lat="46.6009566" lon="12.490067"><ele>1242.6666666666665</ele><time>2026-05-01T17:38:35.879Z</time></trkpt><trkpt lat="46.6010732" lon="12.4898332"><ele>1243.0</ele><time>2026-05-01T17:38:36.878Z</time></trkpt><trkpt lat="46.6011884" lon="12.489591"><ele>1243.0</ele><time>2026-05-01T17:38:37.888Z</time></trkpt><trkpt lat="46.6013117" lon="12.4893438"><ele>1243.0</ele><time>2026-05-01T17:38:38.885Z</time></trkpt><trkpt lat="46.601435" lon="12.4891014"><ele>1243.0</ele><time>2026-05-01T17:38:39.882Z</time></trkpt><trkpt lat="46.6015616" lon="12.488858"><ele>1239.0</ele><time>2026-05-01T17:38:40.883Z</time></trkpt><trkpt lat="46.6016961" lon="12.4886233"><ele>1235.0</ele><time>2026-05-01T17:38:41.885Z</time></trkpt><trkpt lat="46.6018252" lon="12.4883958"><ele>1231.0</ele><time>2026-05-01T17:38:42.886Z</time></trkpt><trkpt lat="46.601944" lon="12.4881864"><ele>1238.3333333333333</ele><time>2026-05-01T17:38:43.884Z</time></trkpt><trkpt lat="46.6020473" lon="12.4879661"><ele>1245.6666666666667</ele><time>2026-05-01T17:38:44.893Z</time></trkpt><trkpt lat="46.6021221" lon="12.487725"><ele>1253.0</ele><time>2026-05-01T17:38:45.887Z</time></trkpt><trkpt lat="46.6021977" lon="12.4874735"><ele>1253.0</ele><time>2026-05-01T17:38:46.89Z</time></trkpt><trkpt lat="46.6022715" lon="12.4872267"><ele>1253.0</ele><time>2026-05-01T17:38:47.886Z</time></trkpt><trkpt lat="46.6023449" lon="12.4870018"><ele>1253.0</ele><time>2026-05-01T17:38:48.881Z</time></trkpt><trkpt lat="46.602409" lon="12.4867946"><ele>1247.25</ele><time>2026-05-01T17:38:49.888Z</time></trkpt><trkpt lat="46.6024665" lon="12.4866108"><ele>1241.5</ele><time>2026-05-01T17:38:50.884Z</time></trkpt><trkpt lat="46.6025366" lon="12.4864555"><ele>1235.75</ele><time>2026-05-01T17:38:51.89Z</time></trkpt><trkpt lat="46.6026214" lon="12.4863127"><ele>1230.0</ele><time>2026-05-01T17:38:52.889Z</time></trkpt><trkpt lat="46.6027388" lon="12.4861837"><ele>1236.3333333333333</ele><time>2026-05-01T17:38:53.879Z</time></trkpt><trkpt lat="46.6028793" lon="12.4860549"><ele>1242.6666666666665</ele><time>2026-05-01T17:38:54.882Z</time></trkpt><trkpt lat="46.6030223" lon="12.4859169"><ele>1249.0</ele><time>2026-05-01T17:38:55.889Z</time></trkpt><trkpt lat="46.6031625" lon="12.4857905"><ele>1249.0</ele><time>2026-05-01T17:38:56.884Z</time></trkpt><trkpt lat="46.6032886" lon="12.485653"><ele>1249.0</ele><time>2026-05-01T17:38:57.888Z</time></trkpt><trkpt lat="46.6033949" lon="12.4854929"><ele>1249.0</ele><time>2026-05-01T17:38:58.885Z</time></trkpt><trkpt lat="46.6035002" lon="12.4853041"><ele>1253.3333333333333</ele><time>2026-05-01T17:38:59.879Z</time></trkpt><trkpt lat="46.6036089" lon="12.4851269"><ele>1257.6666666666667</ele><time>2026-05-01T17:39:00.893Z</time></trkpt><trkpt lat="46.6037067" lon="12.4849673"><ele>1262.0</ele><time>2026-05-01T17:39:01.876Z</time></trkpt><trkpt lat="46.6038031" lon="12.4848124"><ele>1262.0</ele><time>2026-05-01T17:39:02.888Z</time></trkpt><trkpt lat="46.6039007" lon="12.4846598"><ele>1262.0</ele><time>2026-05-01T17:39:03.885Z</time></trkpt><trkpt lat="46.6040134" lon="12.4845112"><ele>1262.0</ele><time>2026-05-01T17:39:04.889Z</time></trkpt><trkpt lat="46.6041499" lon="12.4843657"><ele>1261.3333333333335</ele><time>2026-05-01T17:39:05.884Z</time></trkpt><trkpt lat="46.6043084" lon="12.4842134"><ele>1260.6666666666667</ele><time>2026-05-01T17:39:06.886Z</time></trkpt><trkpt lat="46.6044808" lon="12.4840693"><ele>1260.0</ele><time>2026-05-01T17:39:07.876Z</time></trkpt><trkpt lat="46.6046549" lon="12.4839161"><ele>1247.0</ele><time>2026-05-01T17:39:08.884Z</time></trkpt><trkpt lat="46.6048227" lon="12.4837446"><ele>1234.0</ele><time>2026-05-01T17:39:09.881Z</time></trkpt><trkpt lat="46.6049911" lon="12.4835478"><ele>1221.0</ele><time>2026-05-01T17:39:10.887Z</time></trkpt><trkpt lat="46.6051651" lon="12.4833377"><ele>1220.0</ele><time>2026-05-01T17:39:11.889Z</time></trkpt><trkpt lat="46.6053329" lon="12.4831336"><ele>1219.0</ele><time>2026-05-01T17:39:12.889Z</time></trkpt><trkpt lat="46.6054856" lon="12.4829568"><ele>1218.0</ele><time>2026-05-01T17:39:13.888Z</time></trkpt><trkpt lat="46.6056325" lon="12.4827892"><ele>1218.0</ele><time>2026-05-01T17:39:14.884Z</time></trkpt><trkpt lat="46.6057698" lon="12.4826444"><ele>1218.0</ele><time>2026-05-01T17:39:15.891Z</time></trkpt><trkpt lat="46.6059215" lon="12.482517"><ele>1218.0</ele><time>2026-05-01T17:39:16.883Z</time></trkpt><trkpt lat="46.606083" lon="12.4823995"><ele>1215.3333333333333</ele><time>2026-05-01T17:39:17.885Z</time></trkpt><trkpt lat="46.6062447" lon="12.4822826"><ele>1212.6666666666665</ele><time>2026-05-01T17:39:18.881Z</time></trkpt><trkpt lat="46.6063997" lon="12.4821666"><ele>1210.0</ele><time>2026-05-01T17:39:19.885Z</time></trkpt><trkpt lat="46.6065383" lon="12.4820533"><ele>1210.0</ele><time>2026-05-01T17:39:20.884Z</time></trkpt><trkpt lat="46.6066686" lon="12.4819497"><ele>1210.0</ele><time>2026-05-01T17:39:21.879Z</time></trkpt><trkpt lat="46.6067926" lon="12.4818736"><ele>1210.0</ele><time>2026-05-01T17:39:22.888Z</time></trkpt><trkpt lat="46.6069212" lon="12.4818201"><ele>1210.0</ele><time>2026-05-01T17:39:23.883Z</time></trkpt><trkpt lat="46.6070646" lon="12.4817949"><ele>1213.3333333333333</ele><time>2026-05-01T17:39:24.886Z</time></trkpt><trkpt lat="46.6072131" lon="12.4817736"><ele>1216.6666666666667</ele><time>2026-05-01T17:39:25.889Z</time></trkpt><trkpt lat="46.6073768" lon="12.4817603"><ele>1220.0</ele><time>2026-05-01T17:39:26.886Z</time></trkpt><trkpt lat="46.6075533" lon="12.4817459"><ele>1220.0</ele><time>2026-05-01T17:39:27.883Z</time></trkpt><trkpt lat="46.6077206" lon="12.4817213"><ele>1220.0</ele><time>2026-05-01T17:39:28.89Z</time></trkpt><trkpt lat="46.6078753" lon="12.4817009"><ele>1220.0</ele><time>2026-05-01T17:39:29.888Z</time></trkpt><trkpt lat="46.6080118" lon="12.4816824"><ele>1219.75</ele><time>2026-05-01T17:39:30.884Z</time></trkpt><trkpt lat="46.6081415" lon="12.4816541"><ele>1219.5</ele><time>2026-05-01T17:39:31.889Z</time></trkpt><trkpt lat="46.6082636" lon="12.4815975"><ele>1219.25</ele><time>2026-05-01T17:39:32.88Z</time></trkpt><trkpt lat="46.6083627" lon="12.4815176"><ele>1219.0</ele><time>2026-05-01T17:39:33.89Z</time></trkpt><trkpt lat="46.6084492" lon="12.4814399"><ele>1219.0</ele><time>2026-05-01T17:39:34.881Z</time></trkpt><trkpt lat="46.6085082" lon="12.4813737"><ele>1219.0</ele><time>2026-05-01T17:39:35.891Z</time></trkpt><trkpt lat="46.6085565" lon="12.4813101"><ele>1219.0</ele><time>2026-05-01T17:39:36.887Z</time></trkpt><trkpt lat="46.6086064" lon="12.4812068"><ele>1219.0</ele><time>2026-05-01T17:39:38.877Z</time></trkpt><trkpt lat="46.608579" lon="12.4810463"><ele>1219.0</ele><time>2026-05-01T17:39:40.889Z</time></trkpt><trkpt lat="46.6085352" lon="12.4809486"><ele>1219.0</ele><time>2026-05-01T17:39:41.896Z</time></trkpt><trkpt lat="46.60848" lon="12.4808311"><ele>1217.6000000000001</ele><time>2026-05-01T17:39:42.884Z</time></trkpt><trkpt lat="46.6084173" lon="12.4807143"><ele>1216.2</ele><time>2026-05-01T17:39:43.885Z</time></trkpt><trkpt lat="46.6083499" lon="12.4805963"><ele>1214.8000000000002</ele><time>2026-05-01T17:39:44.891Z</time></trkpt><trkpt lat="46.6082841" lon="12.4804921"><ele>1213.4</ele><time>2026-05-01T17:39:45.888Z</time></trkpt><trkpt lat="46.6082226" lon="12.4803931"><ele>1212.0</ele><time>2026-05-01T17:39:46.9Z</time></trkpt><trkpt lat="46.6081687" lon="12.4803032"><ele>1210.8333333333333</ele><time>2026-05-01T17:39:47.887Z</time></trkpt><trkpt lat="46.6081116" lon="12.4802186"><ele>1209.6666666666667</ele><time>2026-05-01T17:39:48.887Z</time></trkpt><trkpt lat="46.6080618" lon="12.4801518"><ele>1208.5</ele><time>2026-05-01T17:39:49.888Z</time></trkpt><trkpt lat="46.6079988" lon="12.480053"><ele>1207.3333333333335</ele><time>2026-05-01T17:39:51.899Z</time></trkpt><trkpt lat="46.6079297" lon="12.4800153"><ele>1206.1666666666667</ele><time>2026-05-01T17:39:54.888Z</time></trkpt><trkpt lat="46.607863" lon="12.4800221"><ele>1205.0</ele><time>2026-05-01T17:39:55.888Z</time></trkpt><trkpt lat="46.6077903" lon="12.4800542"><ele>1203.8</ele><time>2026-05-01T17:39:56.891Z</time></trkpt><trkpt lat="46.6077229" lon="12.480093"><ele>1202.6</ele><time>2026-05-01T17:39:57.884Z</time></trkpt><trkpt lat="46.6076371" lon="12.4801457"><ele>1201.4</ele><time>2026-05-01T17:39:58.886Z</time></trkpt><trkpt lat="46.6075334" lon="12.4802035"><ele>1200.2</ele><time>2026-05-01T17:39:59.887Z</time></trkpt><trkpt lat="46.6074171" lon="12.4802701"><ele>1199.0</ele><time>2026-05-01T17:40:00.885Z</time></trkpt><trkpt lat="46.6073058" lon="12.4803294"><ele>1199.0</ele><time>2026-05-01T17:40:01.879Z</time></trkpt><trkpt lat="46.6072012" lon="12.4803944"><ele>1199.0</ele><time>2026-05-01T17:40:02.887Z</time></trkpt><trkpt lat="46.6070872" lon="12.4804587"><ele>1199.0</ele><time>2026-05-01T17:40:03.884Z</time></trkpt><trkpt lat="46.6069711" lon="12.4805309"><ele>1199.0</ele><time>2026-05-01T17:40:04.884Z</time></trkpt><trkpt lat="46.6068687" lon="12.4806102"><ele>1199.2</ele><time>2026-05-01T17:40:05.887Z</time></trkpt><trkpt lat="46.6067871" lon="12.480668"><ele>1199.4</ele><time>2026-05-01T17:40:06.886Z</time></trkpt><trkpt lat="46.6067261" lon="12.4807013"><ele>1199.6</ele><time>2026-05-01T17:40:07.891Z</time></trkpt><trkpt lat="46.60662" lon="12.4806894"><ele>1199.8</ele><time>2026-05-01T17:40:09.887Z</time></trkpt><trkpt lat="46.6065592" lon="12.4806169"><ele>1200.0</ele><time>2026-05-01T17:40:10.883Z</time></trkpt><trkpt lat="46.6065005" lon="12.4804838"><ele>1199.25</ele><time>2026-05-01T17:40:11.885Z</time></trkpt><trkpt lat="46.6064297" lon="12.4803153"><ele>1198.5</ele><time>2026-05-01T17:40:12.89Z</time></trkpt><trkpt lat="46.6063456" lon="12.4801449"><ele>1197.75</ele><time>2026-05-01T17:40:13.88Z</time></trkpt><trkpt lat="46.6062678" lon="12.4799851"><ele>1197.0</ele><time>2026-05-01T17:40:14.889Z</time></trkpt><trkpt lat="46.6061773" lon="12.4798701"><ele>1198.25</ele><time>2026-05-01T17:40:15.884Z</time></trkpt><trkpt lat="46.6060773" lon="12.4797896"><ele>1199.5</ele><time>2026-05-01T17:40:16.888Z</time></trkpt><trkpt lat="46.6059607" lon="12.4797613"><ele>1200.75</ele><time>2026-05-01T17:40:17.887Z</time></trkpt><trkpt lat="46.6058378" lon="12.479761"><ele>1202.0</ele><time>2026-05-01T17:40:18.886Z</time></trkpt><trkpt lat="46.6057005" lon="12.4797959"><ele>1202.0</ele><time>2026-05-01T17:40:19.894Z</time></trkpt><trkpt lat="46.6055505" lon="12.4798454"><ele>1202.0</ele><time>2026-05-01T17:40:20.886Z</time></trkpt><trkpt lat="46.6053809" lon="12.4798839"><ele>1202.0</ele><time>2026-05-01T17:40:21.889Z</time></trkpt><trkpt lat="46.6051976" lon="12.479928"><ele>1202.3333333333335</ele><time>2026-05-01T17:40:22.886Z</time></trkpt><trkpt lat="46.6050193" lon="12.4799718"><ele>1202.6666666666667</ele><time>2026-05-01T17:40:23.888Z</time></trkpt><trkpt lat="46.6048264" lon="12.4800252"><ele>1203.0</ele><time>2026-05-01T17:40:24.9Z</time></trkpt><trkpt lat="46.6046295" lon="12.4800793"><ele>1203.6666666666667</ele><time>2026-05-01T17:40:25.885Z</time></trkpt><trkpt lat="46.6044383" lon="12.4801312"><ele>1204.3333333333335</ele><time>2026-05-01T17:40:26.881Z</time></trkpt><trkpt lat="46.6042712" lon="12.4801903"><ele>1205.0</ele><time>2026-05-01T17:40:27.886Z</time></trkpt><trkpt lat="46.6041232" lon="12.4802296"><ele>1205.0</ele><time>2026-05-01T17:40:28.892Z</time></trkpt><trkpt lat="46.6039825" lon="12.4802623"><ele>1205.0</ele><time>2026-05-01T17:40:29.894Z</time></trkpt><trkpt lat="46.6038392" lon="12.4802717"><ele>1205.0</ele><time>2026-05-01T17:40:30.883Z</time></trkpt><trkpt lat="46.6036966" lon="12.4802649"><ele>1205.0</ele><time>2026-05-01T17:40:31.882Z</time></trkpt><trkpt lat="46.6035541" lon="12.4802262"><ele>1205.0</ele><time>2026-05-01T17:40:32.882Z</time></trkpt><trkpt lat="46.6034086" lon="12.4801645"><ele>1205.0</ele><time>2026-05-01T17:40:33.887Z</time></trkpt><trkpt lat="46.6032581" lon="12.4800683"><ele>1205.0</ele><time>2026-05-01T17:40:34.886Z</time></trkpt><trkpt lat="46.6030907" lon="12.4799668"><ele>1205.0</ele><time>2026-05-01T17:40:35.884Z</time></trkpt><trkpt lat="46.6029254" lon="12.4798642"><ele>1205.0</ele><time>2026-05-01T17:40:36.889Z</time></trkpt><trkpt lat="46.6027584" lon="12.4797552"><ele>1205.0</ele><time>2026-05-01T17:40:37.88Z</time></trkpt><trkpt lat="46.6025885" lon="12.479644"><ele>1208.0</ele><time>2026-05-01T17:40:38.883Z</time></trkpt><trkpt lat="46.6024206" lon="12.479541"><ele>1211.0</ele><time>2026-05-01T17:40:39.89Z</time></trkpt><trkpt lat="46.6022553" lon="12.4794553"><ele>1214.0</ele><time>2026-05-01T17:40:40.886Z</time></trkpt><trkpt lat="46.6021012" lon="12.4793783"><ele>1215.6666666666667</ele><time>2026-05-01T17:40:41.891Z</time></trkpt><trkpt lat="46.6019522" lon="12.4792986"><ele>1217.3333333333333</ele><time>2026-05-01T17:40:42.891Z</time></trkpt><trkpt lat="46.6018028" lon="12.4792142"><ele>1219.0</ele><time>2026-05-01T17:40:43.884Z</time></trkpt><trkpt lat="46.6016454" lon="12.4791249"><ele>1219.0</ele><time>2026-05-01T17:40:44.889Z</time></trkpt><trkpt lat="46.6014891" lon="12.4790363"><ele>1219.0</ele><time>2026-05-01T17:40:45.895Z</time></trkpt><trkpt lat="46.6013216" lon="12.4789179"><ele>1219.0</ele><time>2026-05-01T17:40:46.889Z</time></trkpt><trkpt lat="46.6011458" lon="12.478807"><ele>1221.6666666666665</ele><time>2026-05-01T17:40:47.888Z</time></trkpt><trkpt lat="46.6009834" lon="12.4787067"><ele>1224.3333333333333</ele><time>2026-05-01T17:40:48.891Z</time></trkpt><trkpt lat="46.6008261" lon="12.4785965"><ele>1227.0</ele><time>2026-05-01T17:40:49.89Z</time></trkpt><trkpt lat="46.6006659" lon="12.478484"><ele>1227.0</ele><time>2026-05-01T17:40:50.89Z</time></trkpt><trkpt lat="46.6004994" lon="12.4783601"><ele>1227.0</ele><time>2026-05-01T17:40:51.891Z</time></trkpt><trkpt lat="46.6003388" lon="12.478237"><ele>1227.0</ele><time>2026-05-01T17:40:52.883Z</time></trkpt><trkpt lat="46.6001854" lon="12.478126"><ele>1228.6666666666667</ele><time>2026-05-01T17:40:53.889Z</time></trkpt><trkpt lat="46.6000271" lon="12.4780184"><ele>1230.3333333333335</ele><time>2026-05-01T17:40:54.89Z</time></trkpt><trkpt lat="46.5998656" lon="12.4779115"><ele>1232.0</ele><time>2026-05-01T17:40:55.884Z</time></trkpt><trkpt lat="46.5996798" lon="12.4778289"><ele>1233.6666666666667</ele><time>2026-05-01T17:40:56.889Z</time></trkpt><trkpt lat="46.5994834" lon="12.477756"><ele>1235.3333333333333</ele><time>2026-05-01T17:40:57.891Z</time></trkpt><trkpt lat="46.5992968" lon="12.4776964"><ele>1237.0</ele><time>2026-05-01T17:40:58.885Z</time></trkpt><trkpt lat="46.5991273" lon="12.4776328"><ele>1237.0</ele><time>2026-05-01T17:40:59.886Z</time></trkpt><trkpt lat="46.5989711" lon="12.4775688"><ele>1237.0</ele><time>2026-05-01T17:41:00.883Z</time></trkpt><trkpt lat="46.5988284" lon="12.4775107"><ele>1237.0</ele><time>2026-05-01T17:41:01.883Z</time></trkpt><trkpt lat="46.5986936" lon="12.4774999"><ele>1237.0</ele><time>2026-05-01T17:41:02.884Z</time></trkpt><trkpt lat="46.5985687" lon="12.4774862"><ele>1237.5</ele><time>2026-05-01T17:41:03.886Z</time></trkpt><trkpt lat="46.5984567" lon="12.4774845"><ele>1238.0</ele><time>2026-05-01T17:41:04.883Z</time></trkpt><trkpt lat="46.5983501" lon="12.4775123"><ele>1238.5</ele><time>2026-05-01T17:41:05.879Z</time></trkpt><trkpt lat="46.5982556" lon="12.4775839"><ele>1239.0</ele><time>2026-05-01T17:41:06.879Z</time></trkpt><trkpt lat="46.5981613" lon="12.4777179"><ele>1239.0</ele><time>2026-05-01T17:41:07.877Z</time></trkpt><trkpt lat="46.5980592" lon="12.4778746"><ele>1239.0</ele><time>2026-05-01T17:41:08.883Z</time></trkpt><trkpt lat="46.5979628" lon="12.4780542"><ele>1239.0</ele><time>2026-05-01T17:41:09.879Z</time></trkpt><trkpt lat="46.5978824" lon="12.47826"><ele>1241.25</ele><time>2026-05-01T17:41:10.888Z</time></trkpt><trkpt lat="46.5978065" lon="12.4784613"><ele>1243.5</ele><time>2026-05-01T17:41:11.88Z</time></trkpt><trkpt lat="46.5977419" lon="12.4786422"><ele>1245.75</ele><time>2026-05-01T17:41:12.891Z</time></trkpt><trkpt lat="46.5976744" lon="12.4788076"><ele>1248.0</ele><time>2026-05-01T17:41:13.885Z</time></trkpt><trkpt lat="46.5975781" lon="12.4789422"><ele>1248.0</ele><time>2026-05-01T17:41:14.888Z</time></trkpt><trkpt lat="46.5974593" lon="12.4790419"><ele>1248.0</ele><time>2026-05-01T17:41:15.887Z</time></trkpt><trkpt lat="46.5973187" lon="12.4791203"><ele>1248.0</ele><time>2026-05-01T17:41:16.878Z</time></trkpt><trkpt lat="46.5971526" lon="12.4792074"><ele>1255.3333333333333</ele><time>2026-05-01T17:41:17.889Z</time></trkpt><trkpt lat="46.5969939" lon="12.4793113"><ele>1262.6666666666665</ele><time>2026-05-01T17:41:18.893Z</time></trkpt><trkpt lat="46.5968327" lon="12.4794224"><ele>1270.0</ele><time>2026-05-01T17:41:19.885Z</time></trkpt><trkpt lat="46.5966729" lon="12.4795507"><ele>1266.3333333333333</ele><time>2026-05-01T17:41:20.89Z</time></trkpt><trkpt lat="46.5965173" lon="12.4796961"><ele>1262.6666666666667</ele><time>2026-05-01T17:41:21.884Z</time></trkpt><trkpt lat="46.5963715" lon="12.4798436"><ele>1259.0</ele><time>2026-05-01T17:41:22.881Z</time></trkpt><trkpt lat="46.5962104" lon="12.4799617"><ele>1264.3333333333335</ele><time>2026-05-01T17:41:23.88Z</time></trkpt><trkpt lat="46.5960336" lon="12.4800707"><ele>1269.6666666666667</ele><time>2026-05-01T17:41:24.887Z</time></trkpt><trkpt lat="46.5958412" lon="12.4801649"><ele>1275.0</ele><time>2026-05-01T17:41:25.879Z</time></trkpt><trkpt lat="46.5956432" lon="12.4802797"><ele>1275.0</ele><time>2026-05-01T17:41:26.886Z</time></trkpt><trkpt lat="46.5954428" lon="12.4804009"><ele>1275.0</ele><time>2026-05-01T17:41:27.888Z</time></trkpt><trkpt lat="46.5952591" lon="12.4805198"><ele>1275.0</ele><time>2026-05-01T17:41:28.891Z</time></trkpt><trkpt lat="46.5950934" lon="12.4806081"><ele>1275.6666666666667</ele><time>2026-05-01T17:41:29.891Z</time></trkpt><trkpt lat="46.5949297" lon="12.4806839"><ele>1276.3333333333335</ele><time>2026-05-01T17:41:30.891Z</time></trkpt><trkpt lat="46.5947593" lon="12.4807412"><ele>1277.0</ele><time>2026-05-01T17:41:31.884Z</time></trkpt><trkpt lat="46.5945803" lon="12.4808029"><ele>1281.0</ele><time>2026-05-01T17:41:32.894Z</time></trkpt><trkpt lat="46.594399" lon="12.48085"><ele>1285.0</ele><time>2026-05-01T17:41:33.881Z</time></trkpt><trkpt lat="46.5942042" lon="12.4808684"><ele>1289.0</ele><time>2026-05-01T17:41:34.883Z</time></trkpt><trkpt lat="46.5940194" lon="12.4808687"><ele>1289.0</ele><time>2026-05-01T17:41:35.884Z</time></trkpt><trkpt lat="46.5938596" lon="12.4808679"><ele>1289.0</ele><time>2026-05-01T17:41:36.883Z</time></trkpt><trkpt lat="46.5937128" lon="12.4808692"><ele>1289.0</ele><time>2026-05-01T17:41:37.889Z</time></trkpt><trkpt lat="46.5935719" lon="12.480882"><ele>1289.0</ele><time>2026-05-01T17:41:38.884Z</time></trkpt><trkpt lat="46.5934168" lon="12.4809377"><ele>1288.3333333333335</ele><time>2026-05-01T17:41:39.884Z</time></trkpt><trkpt lat="46.5932707" lon="12.4810412"><ele>1287.6666666666667</ele><time>2026-05-01T17:41:40.89Z</time></trkpt><trkpt lat="46.5931325" lon="12.4811853"><ele>1287.0</ele><time>2026-05-01T17:41:41.884Z</time></trkpt><trkpt lat="46.5930016" lon="12.4813597"><ele>1287.0</ele><time>2026-05-01T17:41:42.894Z</time></trkpt><trkpt lat="46.5928647" lon="12.4815439"><ele>1287.0</ele><time>2026-05-01T17:41:43.891Z</time></trkpt><trkpt lat="46.592732" lon="12.4817192"><ele>1287.0</ele><time>2026-05-01T17:41:44.889Z</time></trkpt><trkpt lat="46.5925997" lon="12.4818641"><ele>1289.6666666666667</ele><time>2026-05-01T17:41:45.883Z</time></trkpt><trkpt lat="46.5924744" lon="12.481979"><ele>1292.3333333333335</ele><time>2026-05-01T17:41:46.887Z</time></trkpt><trkpt lat="46.5923296" lon="12.4820684"><ele>1295.0</ele><time>2026-05-01T17:41:47.884Z</time></trkpt><trkpt lat="46.5921884" lon="12.4821285"><ele>1295.0</ele><time>2026-05-01T17:41:48.889Z</time></trkpt><trkpt lat="46.5920506" lon="12.4821667"><ele>1295.0</ele><time>2026-05-01T17:41:49.891Z</time></trkpt><trkpt lat="46.5919101" lon="12.4821708"><ele>1295.0</ele><time>2026-05-01T17:41:50.884Z</time></trkpt><trkpt lat="46.5917679" lon="12.482136"><ele>1295.0</ele><time>2026-05-01T17:41:51.886Z</time></trkpt><trkpt lat="46.5916312" lon="12.4820798"><ele>1300.3333333333335</ele><time>2026-05-01T17:41:52.889Z</time></trkpt><trkpt lat="46.5914832" lon="12.4820626"><ele>1305.6666666666667</ele><time>2026-05-01T17:41:53.881Z</time></trkpt><trkpt lat="46.5913277" lon="12.4820951"><ele>1311.0</ele><time>2026-05-01T17:41:54.888Z</time></trkpt><trkpt lat="46.5911611" lon="12.4821621"><ele>1311.0</ele><time>2026-05-01T17:41:55.887Z</time></trkpt><trkpt lat="46.5909897" lon="12.4822587"><ele>1311.0</ele><time>2026-05-01T17:41:56.888Z</time></trkpt><trkpt lat="46.5908237" lon="12.4823535"><ele>1311.0</ele><time>2026-05-01T17:41:57.894Z</time></trkpt><trkpt lat="46.5906675" lon="12.4824228"><ele>1311.0</ele><time>2026-05-01T17:41:58.887Z</time></trkpt><trkpt lat="46.5905163" lon="12.4824819"><ele>1311.0</ele><time>2026-05-01T17:41:59.886Z</time></trkpt><trkpt lat="46.5903782" lon="12.4825318"><ele>1311.0</ele><time>2026-05-01T17:42:00.887Z</time></trkpt><trkpt lat="46.5902599" lon="12.4825366"><ele>1311.0</ele><time>2026-05-01T17:42:01.884Z</time></trkpt><trkpt lat="46.5901614" lon="12.4825049"><ele>1311.1999999999998</ele><time>2026-05-01T17:42:02.889Z</time></trkpt><trkpt lat="46.5900631" lon="12.4824402"><ele>1311.3999999999999</ele><time>2026-05-01T17:42:03.884Z</time></trkpt><trkpt lat="46.5899664" lon="12.4823554"><ele>1311.6</ele><time>2026-05-01T17:42:04.893Z</time></trkpt><trkpt lat="46.5898644" lon="12.4822769"><ele>1311.8</ele><time>2026-05-01T17:42:05.883Z</time></trkpt><trkpt lat="46.5897628" lon="12.4822042"><ele>1312.0</ele><time>2026-05-01T17:42:06.881Z</time></trkpt><trkpt lat="46.5896538" lon="12.4821847"><ele>1312.0</ele><time>2026-05-01T17:42:07.888Z</time></trkpt><trkpt lat="46.5895359" lon="12.4822122"><ele>1312.0</ele><time>2026-05-01T17:42:08.88Z</time></trkpt><trkpt lat="46.5894066" lon="12.4822578"><ele>1312.0</ele><time>2026-05-01T17:42:09.878Z</time></trkpt><trkpt lat="46.5892652" lon="12.4823113"><ele>1312.0</ele><time>2026-05-01T17:42:10.889Z</time></trkpt><trkpt lat="46.5891011" lon="12.4823507"><ele>1313.3333333333333</ele><time>2026-05-01T17:42:11.885Z</time></trkpt><trkpt lat="46.5889118" lon="12.4823942"><ele>1314.6666666666667</ele><time>2026-05-01T17:42:12.88Z</time></trkpt><trkpt lat="46.5887191" lon="12.4824242"><ele>1316.0</ele><time>2026-05-01T17:42:13.886Z</time></trkpt><trkpt lat="46.5885262" lon="12.4824659"><ele>1321.0</ele><time>2026-05-01T17:42:14.88Z</time></trkpt><trkpt lat="46.5883226" lon="12.4825415"><ele>1326.0</ele><time>2026-05-01T17:42:15.881Z</time></trkpt><trkpt lat="46.5881123" lon="12.4826347"><ele>1331.0</ele><time>2026-05-01T17:42:16.885Z</time></trkpt><trkpt lat="46.5878951" lon="12.4827392"><ele>1329.3333333333335</ele><time>2026-05-01T17:42:17.888Z</time></trkpt><trkpt lat="46.5876835" lon="12.4828318"><ele>1327.6666666666667</ele><time>2026-05-01T17:42:18.885Z</time></trkpt><trkpt lat="46.5874661" lon="12.4829213"><ele>1326.0</ele><time>2026-05-01T17:42:19.885Z</time></trkpt><trkpt lat="46.5872553" lon="12.4830068"><ele>1326.0</ele><time>2026-05-01T17:42:20.883Z</time></trkpt><trkpt lat="46.5870658" lon="12.4830814"><ele>1326.0</ele><time>2026-05-01T17:42:21.883Z</time></trkpt><trkpt lat="46.5869038" lon="12.4831351"><ele>1326.0</ele><time>2026-05-01T17:42:22.882Z</time></trkpt><trkpt lat="46.5867597" lon="12.4831843"><ele>1328.8</ele><time>2026-05-01T17:42:23.89Z</time></trkpt><trkpt lat="46.586647" lon="12.4832199"><ele>1331.6</ele><time>2026-05-01T17:42:24.883Z</time></trkpt><trkpt lat="46.58658" lon="12.4832452"><ele>1334.4</ele><time>2026-05-01T17:42:25.896Z</time></trkpt><trkpt lat="46.5864959" lon="12.4831764"><ele>1337.2</ele><time>2026-05-01T17:42:27.885Z</time></trkpt><trkpt lat="46.5864804" lon="12.4830647"><ele>1340.0</ele><time>2026-05-01T17:42:28.889Z</time></trkpt><trkpt lat="46.5864878" lon="12.4829213"><ele>1344.6</ele><time>2026-05-01T17:42:29.888Z</time></trkpt><trkpt lat="46.5865123" lon="12.4827863"><ele>1349.2</ele><time>2026-05-01T17:42:30.887Z</time></trkpt><trkpt lat="46.5865652" lon="12.4826518"><ele>1353.8000000000002</ele><time>2026-05-01T17:42:31.89Z</time></trkpt><trkpt lat="46.5866313" lon="12.4825083"><ele>1358.4</ele><time>2026-05-01T17:42:32.88Z</time></trkpt><trkpt lat="46.5866891" lon="12.4823799"><ele>1363.0</ele><time>2026-05-01T17:42:33.888Z</time></trkpt><trkpt lat="46.5867045" lon="12.4822657"><ele>1363.0</ele><time>2026-05-01T17:42:34.89Z</time></trkpt><trkpt lat="46.5866948" lon="12.4821484"><ele>1363.0</ele><time>2026-05-01T17:42:35.881Z</time></trkpt><trkpt lat="46.5866451" lon="12.4820417"><ele>1363.0</ele><time>2026-05-01T17:42:36.885Z</time></trkpt><trkpt lat="46.5865553" lon="12.4819834"><ele>1363.0</ele><time>2026-05-01T17:42:37.896Z</time></trkpt><trkpt lat="46.5864491" lon="12.4819642"><ele>1363.0</ele><time>2026-05-01T17:42:38.884Z</time></trkpt><trkpt lat="46.5863342" lon="12.4819819"><ele>1365.75</ele><time>2026-05-01T17:42:39.886Z</time></trkpt><trkpt lat="46.586197" lon="12.482017"><ele>1368.5</ele><time>2026-05-01T17:42:40.889Z</time></trkpt><trkpt lat="46.5860462" lon="12.4820109"><ele>1371.25</ele><time>2026-05-01T17:42:41.886Z</time></trkpt><trkpt lat="46.5859007" lon="12.4819442"><ele>1374.0</ele><time>2026-05-01T17:42:42.884Z</time></trkpt><trkpt lat="46.5857444" lon="12.4818526"><ele>1375.0</ele><time>2026-05-01T17:42:43.887Z</time></trkpt><trkpt lat="46.5856061" lon="12.4817259"><ele>1376.0</ele><time>2026-05-01T17:42:44.888Z</time></trkpt><trkpt lat="46.5854808" lon="12.481555"><ele>1377.0</ele><time>2026-05-01T17:42:45.879Z</time></trkpt><trkpt lat="46.5853754" lon="12.481337"><ele>1377.3333333333333</ele><time>2026-05-01T17:42:46.897Z</time></trkpt><trkpt lat="46.5852765" lon="12.4811083"><ele>1377.6666666666665</ele><time>2026-05-01T17:42:47.888Z</time></trkpt><trkpt lat="46.5852301" lon="12.4808473"><ele>1378.0</ele><time>2026-05-01T17:42:48.884Z</time></trkpt><trkpt lat="46.5851919" lon="12.480602"><ele>1380.0</ele><time>2026-05-01T17:42:49.88Z</time></trkpt><trkpt lat="46.5850828" lon="12.4804013"><ele>1382.0</ele><time>2026-05-01T17:42:50.883Z</time></trkpt><trkpt lat="46.5849468" lon="12.4802113"><ele>1384.0</ele><time>2026-05-01T17:42:51.886Z</time></trkpt><trkpt lat="46.5848282" lon="12.4800423"><ele>1384.0</ele><time>2026-05-01T17:42:52.889Z</time></trkpt><trkpt lat="46.5847018" lon="12.4798801"><ele>1384.0</ele><time>2026-05-01T17:42:53.884Z</time></trkpt><trkpt lat="46.5845678" lon="12.4797435"><ele>1384.0</ele><time>2026-05-01T17:42:54.894Z</time></trkpt><trkpt lat="46.5844036" lon="12.4796437"><ele>1387.0</ele><time>2026-05-01T17:42:55.887Z</time></trkpt><trkpt lat="46.5842231" lon="12.4795797"><ele>1390.0</ele><time>2026-05-01T17:42:56.891Z</time></trkpt><trkpt lat="46.584044" lon="12.4795303"><ele>1393.0</ele><time>2026-05-01T17:42:57.889Z</time></trkpt><trkpt lat="46.5838552" lon="12.4795104"><ele>1398.3333333333333</ele><time>2026-05-01T17:42:58.892Z</time></trkpt><trkpt lat="46.5836508" lon="12.4795206"><ele>1403.6666666666667</ele><time>2026-05-01T17:42:59.882Z</time></trkpt><trkpt lat="46.5834345" lon="12.4795337"><ele>1409.0</ele><time>2026-05-01T17:43:00.89Z</time></trkpt><trkpt lat="46.5832181" lon="12.4795528"><ele>1409.0</ele><time>2026-05-01T17:43:01.878Z</time></trkpt><trkpt lat="46.5830011" lon="12.4795819"><ele>1409.0</ele><time>2026-05-01T17:43:02.886Z</time></trkpt><trkpt lat="46.5827877" lon="12.4796277"><ele>1409.0</ele><time>2026-05-01T17:43:03.879Z</time></trkpt><trkpt lat="46.5825578" lon="12.4796797"><ele>1403.5</ele><time>2026-05-01T17:43:04.889Z</time></trkpt><trkpt lat="46.5823219" lon="12.4797122"><ele>1398.0</ele><time>2026-05-01T17:43:05.889Z</time></trkpt><trkpt lat="46.5820876" lon="12.4797333"><ele>1401.0</ele><time>2026-05-01T17:43:06.886Z</time></trkpt><trkpt lat="46.5818608" lon="12.4797443"><ele>1404.0</ele><time>2026-05-01T17:43:07.884Z</time></trkpt><trkpt lat="46.5816418" lon="12.4797451"><ele>1407.0</ele><time>2026-05-01T17:43:08.882Z</time></trkpt><trkpt lat="46.5814358" lon="12.4797271"><ele>1407.0</ele><time>2026-05-01T17:43:09.884Z</time></trkpt><trkpt lat="46.5812343" lon="12.4796615"><ele>1407.0</ele><time>2026-05-01T17:43:10.886Z</time></trkpt><trkpt lat="46.5810308" lon="12.4795775"><ele>1407.0</ele><time>2026-05-01T17:43:11.883Z</time></trkpt><trkpt lat="46.5808252" lon="12.4795417"><ele>1407.5</ele><time>2026-05-01T17:43:12.884Z</time></trkpt><trkpt lat="46.5805925" lon="12.4795679"><ele>1408.0</ele><time>2026-05-01T17:43:13.883Z</time></trkpt><trkpt lat="46.5803748" lon="12.4796173"><ele>1411.6666666666665</ele><time>2026-05-01T17:43:14.883Z</time></trkpt><trkpt lat="46.5801635" lon="12.4796631"><ele>1415.3333333333333</ele><time>2026-05-01T17:43:15.885Z</time></trkpt><trkpt lat="46.5799808" lon="12.4797081"><ele>1419.0</ele><time>2026-05-01T17:43:16.883Z</time></trkpt><trkpt lat="46.5798124" lon="12.4797479"><ele>1419.0</ele><time>2026-05-01T17:43:17.887Z</time></trkpt><trkpt lat="46.5796465" lon="12.4797657"><ele>1419.0</ele><time>2026-05-01T17:43:18.891Z</time></trkpt><trkpt lat="46.5794699" lon="12.4797517"><ele>1419.0</ele><time>2026-05-01T17:43:19.882Z</time></trkpt><trkpt lat="46.5792867" lon="12.4797029"><ele>1418.6666666666667</ele><time>2026-05-01T17:43:20.882Z</time></trkpt><trkpt lat="46.5791005" lon="12.4796524"><ele>1418.3333333333335</ele><time>2026-05-01T17:43:21.893Z</time></trkpt><trkpt lat="46.5789131" lon="12.4796191"><ele>1418.0</ele><time>2026-05-01T17:43:22.879Z</time></trkpt><trkpt lat="46.5787205" lon="12.4796357"><ele>1419.0</ele><time>2026-05-01T17:43:23.889Z</time></trkpt><trkpt lat="46.578522" lon="12.4796894"><ele>1420.0</ele><time>2026-05-01T17:43:24.891Z</time></trkpt><trkpt lat="46.5783229" lon="12.479755"><ele>1421.0</ele><time>2026-05-01T17:43:25.888Z</time></trkpt><trkpt lat="46.5781266" lon="12.47983"><ele>1421.0</ele><time>2026-05-01T17:43:26.893Z</time></trkpt><trkpt lat="46.5779206" lon="12.4799053"><ele>1421.0</ele><time>2026-05-01T17:43:27.89Z</time></trkpt><trkpt lat="46.5777225" lon="12.4799699"><ele>1421.0</ele><time>2026-05-01T17:43:28.885Z</time></trkpt><trkpt lat="46.5775202" lon="12.4800081"><ele>1426.0</ele><time>2026-05-01T17:43:29.895Z</time></trkpt><trkpt lat="46.5773047" lon="12.4800196"><ele>1431.0</ele><time>2026-05-01T17:43:30.884Z</time></trkpt><trkpt lat="46.5770987" lon="12.4800075"><ele>1436.0</ele><time>2026-05-01T17:43:31.887Z</time></trkpt><trkpt lat="46.576898" lon="12.4799879"><ele>1437.0</ele><time>2026-05-01T17:43:32.883Z</time></trkpt><trkpt lat="46.5767096" lon="12.4799695"><ele>1438.0</ele><time>2026-05-01T17:43:33.89Z</time></trkpt><trkpt lat="46.5765328" lon="12.4799564"><ele>1439.0</ele><time>2026-05-01T17:43:34.891Z</time></trkpt><trkpt lat="46.5763763" lon="12.4799324"><ele>1439.0</ele><time>2026-05-01T17:43:35.886Z</time></trkpt><trkpt lat="46.5762381" lon="12.4799002"><ele>1439.0</ele><time>2026-05-01T17:43:36.884Z</time></trkpt><trkpt lat="46.5761102" lon="12.4798434"><ele>1439.0</ele><time>2026-05-01T17:43:37.886Z</time></trkpt><trkpt lat="46.5759705" lon="12.4797432"><ele>1439.0</ele><time>2026-05-01T17:43:38.886Z</time></trkpt><trkpt lat="46.5758393" lon="12.4796123"><ele>1446.0</ele><time>2026-05-01T17:43:39.893Z</time></trkpt><trkpt lat="46.5757071" lon="12.4794582"><ele>1453.0</ele><time>2026-05-01T17:43:40.88Z</time></trkpt><trkpt lat="46.5755695" lon="12.4793402"><ele>1460.0</ele><time>2026-05-01T17:43:41.885Z</time></trkpt><trkpt lat="46.5754129" lon="12.479269"><ele>1459.0</ele><time>2026-05-01T17:43:42.895Z</time></trkpt><trkpt lat="46.5752322" lon="12.4792206"><ele>1458.0</ele><time>2026-05-01T17:43:43.888Z</time></trkpt><trkpt lat="46.5750482" lon="12.4791963"><ele>1457.0</ele><time>2026-05-01T17:43:44.884Z</time></trkpt><trkpt lat="46.5748736" lon="12.479188"><ele>1457.0</ele><time>2026-05-01T17:43:45.883Z</time></trkpt><trkpt lat="46.5747229" lon="12.4791873"><ele>1457.0</ele><time>2026-05-01T17:43:46.891Z</time></trkpt><trkpt lat="46.574603" lon="12.4792047"><ele>1457.0</ele><time>2026-05-01T17:43:47.887Z</time></trkpt><trkpt lat="46.5745017" lon="12.4792465"><ele>1457.0</ele><time>2026-05-01T17:43:48.883Z</time></trkpt><trkpt lat="46.5744272" lon="12.4793281"><ele>1460.0</ele><time>2026-05-01T17:43:49.874Z</time></trkpt><trkpt lat="46.5743678" lon="12.47944"><ele>1463.0</ele><time>2026-05-01T17:43:50.885Z</time></trkpt><trkpt lat="46.5743156" lon="12.4795778"><ele>1466.0</ele><time>2026-05-01T17:43:51.882Z</time></trkpt><trkpt lat="46.5742806" lon="12.4797713"><ele>1469.0</ele><time>2026-05-01T17:43:52.89Z</time></trkpt><trkpt lat="46.5742478" lon="12.4799749"><ele>1469.0</ele><time>2026-05-01T17:43:53.888Z</time></trkpt><trkpt lat="46.5742107" lon="12.4801542"><ele>1469.0</ele><time>2026-05-01T17:43:54.881Z</time></trkpt><trkpt lat="46.5741588" lon="12.480304"><ele>1469.0</ele><time>2026-05-01T17:43:55.884Z</time></trkpt><trkpt lat="46.5740712" lon="12.4804285"><ele>1469.0</ele><time>2026-05-01T17:43:56.884Z</time></trkpt><trkpt lat="46.573957" lon="12.4805155"><ele>1470.3333333333335</ele><time>2026-05-01T17:43:57.887Z</time></trkpt><trkpt lat="46.5738172" lon="12.4805848"><ele>1471.6666666666667</ele><time>2026-05-01T17:43:58.883Z</time></trkpt><trkpt lat="46.5736584" lon="12.4806113"><ele>1473.0</ele><time>2026-05-01T17:43:59.887Z</time></trkpt><trkpt lat="46.5734952" lon="12.4806311"><ele>1473.0</ele><time>2026-05-01T17:44:00.884Z</time></trkpt><trkpt lat="46.5733291" lon="12.4806397"><ele>1473.0</ele><time>2026-05-01T17:44:01.88Z</time></trkpt><trkpt lat="46.5731762" lon="12.4806595"><ele>1473.0</ele><time>2026-05-01T17:44:02.884Z</time></trkpt><trkpt lat="46.5730209" lon="12.4806886"><ele>1473.0</ele><time>2026-05-01T17:44:03.893Z</time></trkpt><trkpt lat="46.5728763" lon="12.4807448"><ele>1473.0</ele><time>2026-05-01T17:44:04.885Z</time></trkpt><trkpt lat="46.5727475" lon="12.4808498"><ele>1473.0</ele><time>2026-05-01T17:44:05.892Z</time></trkpt><trkpt lat="46.5726431" lon="12.4809852"><ele>1473.0</ele><time>2026-05-01T17:44:06.885Z</time></trkpt><trkpt lat="46.5725504" lon="12.481158"><ele>1474.6666666666667</ele><time>2026-05-01T17:44:07.876Z</time></trkpt><trkpt lat="46.5724624" lon="12.4813498"><ele>1476.3333333333335</ele><time>2026-05-01T17:44:08.876Z</time></trkpt><trkpt lat="46.5723761" lon="12.4815534"><ele>1478.0</ele><time>2026-05-01T17:44:09.88Z</time></trkpt><trkpt lat="46.572287" lon="12.4817718"><ele>1478.0</ele><time>2026-05-01T17:44:10.88Z</time></trkpt><trkpt lat="46.5721901" lon="12.4819899"><ele>1478.0</ele><time>2026-05-01T17:44:11.882Z</time></trkpt><trkpt lat="46.5720956" lon="12.4822019"><ele>1478.0</ele><time>2026-05-01T17:44:12.887Z</time></trkpt><trkpt lat="46.5720156" lon="12.4824015"><ele>1479.25</ele><time>2026-05-01T17:44:13.888Z</time></trkpt><trkpt lat="46.5719359" lon="12.4825734"><ele>1480.5</ele><time>2026-05-01T17:44:14.885Z</time></trkpt><trkpt lat="46.5718677" lon="12.4827379"><ele>1481.75</ele><time>2026-05-01T17:44:15.886Z</time></trkpt><trkpt lat="46.5717858" lon="12.4828969"><ele>1483.0</ele><time>2026-05-01T17:44:16.893Z</time></trkpt><trkpt lat="46.5716777" lon="12.4830548"><ele>1483.0</ele><time>2026-05-01T17:44:17.89Z</time></trkpt><trkpt lat="46.571548" lon="12.4831975"><ele>1483.0</ele><time>2026-05-01T17:44:18.885Z</time></trkpt><trkpt lat="46.5713941" lon="12.4833303"><ele>1483.0</ele><time>2026-05-01T17:44:19.888Z</time></trkpt><trkpt lat="46.5712287" lon="12.4834514"><ele>1484.6666666666665</ele><time>2026-05-01T17:44:20.886Z</time></trkpt><trkpt lat="46.5710573" lon="12.4835846"><ele>1486.3333333333333</ele><time>2026-05-01T17:44:21.889Z</time></trkpt><trkpt lat="46.5708951" lon="12.4837193"><ele>1488.0</ele><time>2026-05-01T17:44:22.888Z</time></trkpt><trkpt lat="46.5707284" lon="12.4838539"><ele>1487.0</ele><time>2026-05-01T17:44:23.886Z</time></trkpt><trkpt lat="46.5705618" lon="12.4839864"><ele>1486.0</ele><time>2026-05-01T17:44:24.895Z</time></trkpt><trkpt lat="46.5703913" lon="12.4841209"><ele>1485.0</ele><time>2026-05-01T17:44:25.888Z</time></trkpt><trkpt lat="46.5702154" lon="12.4842651"><ele>1485.0</ele><time>2026-05-01T17:44:26.886Z</time></trkpt><trkpt lat="46.5700453" lon="12.4843932"><ele>1485.0</ele><time>2026-05-01T17:44:27.889Z</time></trkpt><trkpt lat="46.5698885" lon="12.484514"><ele>1485.0</ele><time>2026-05-01T17:44:28.894Z</time></trkpt><trkpt lat="46.5697334" lon="12.4846302"><ele>1483.0</ele><time>2026-05-01T17:44:29.887Z</time></trkpt><trkpt lat="46.5695865" lon="12.4847248"><ele>1481.0</ele><time>2026-05-01T17:44:30.885Z</time></trkpt><trkpt lat="46.5694307" lon="12.4847958"><ele>1479.0</ele><time>2026-05-01T17:44:31.884Z</time></trkpt><trkpt lat="46.5692636" lon="12.4848185"><ele>1478.6666666666667</ele><time>2026-05-01T17:44:32.882Z</time></trkpt><trkpt lat="46.5690868" lon="12.4848051"><ele>1478.3333333333335</ele><time>2026-05-01T17:44:33.891Z</time></trkpt><trkpt lat="46.5689189" lon="12.4847522"><ele>1478.0</ele><time>2026-05-01T17:44:34.893Z</time></trkpt><trkpt lat="46.5687526" lon="12.4846608"><ele>1480.6666666666667</ele><time>2026-05-01T17:44:35.886Z</time></trkpt><trkpt lat="46.5685845" lon="12.4845717"><ele>1483.3333333333333</ele><time>2026-05-01T17:44:36.895Z</time></trkpt><trkpt lat="46.5684286" lon="12.4844771"><ele>1486.0</ele><time>2026-05-01T17:44:37.889Z</time></trkpt><trkpt lat="46.5682815" lon="12.4843563"><ele>1486.0</ele><time>2026-05-01T17:44:38.884Z</time></trkpt><trkpt lat="46.5681421" lon="12.4842088"><ele>1486.0</ele><time>2026-05-01T17:44:39.889Z</time></trkpt><trkpt lat="46.5679962" lon="12.4840249"><ele>1486.0</ele><time>2026-05-01T17:44:40.883Z</time></trkpt><trkpt lat="46.567851" lon="12.4838311"><ele>1485.0</ele><time>2026-05-01T17:44:41.89Z</time></trkpt><trkpt lat="46.5676948" lon="12.4836317"><ele>1484.0</ele><time>2026-05-01T17:44:42.885Z</time></trkpt><trkpt lat="46.5675339" lon="12.483427"><ele>1483.0</ele><time>2026-05-01T17:44:43.888Z</time></trkpt><trkpt lat="46.5673799" lon="12.4832462"><ele>1483.0</ele><time>2026-05-01T17:44:44.88Z</time></trkpt><trkpt lat="46.56723" lon="12.4830794"><ele>1483.0</ele><time>2026-05-01T17:44:45.894Z</time></trkpt><trkpt lat="46.5670786" lon="12.4829218"><ele>1483.0</ele><time>2026-05-01T17:44:46.894Z</time></trkpt><trkpt lat="46.5669257" lon="12.4827665"><ele>1481.0</ele><time>2026-05-01T17:44:47.888Z</time></trkpt><trkpt lat="46.5667498" lon="12.482637"><ele>1479.0</ele><time>2026-05-01T17:44:48.897Z</time></trkpt><trkpt lat="46.5665614" lon="12.4825151"><ele>1477.0</ele><time>2026-05-01T17:44:49.895Z</time></trkpt><trkpt lat="46.5663598" lon="12.4824023"><ele>1471.6666666666665</ele><time>2026-05-01T17:44:50.888Z</time></trkpt><trkpt lat="46.5661614" lon="12.4823004"><ele>1466.3333333333333</ele><time>2026-05-01T17:44:51.891Z</time></trkpt><trkpt lat="46.5659757" lon="12.4822024"><ele>1461.0</ele><time>2026-05-01T17:44:52.889Z</time></trkpt><trkpt lat="46.565801" lon="12.482106"><ele>1462.3333333333333</ele><time>2026-05-01T17:44:53.89Z</time></trkpt><trkpt lat="46.5656269" lon="12.4820067"><ele>1463.6666666666665</ele><time>2026-05-01T17:44:54.889Z</time></trkpt><trkpt lat="46.5654614" lon="12.4819243"><ele>1465.0</ele><time>2026-05-01T17:44:55.891Z</time></trkpt><trkpt lat="46.5653119" lon="12.4818425"><ele>1465.0</ele><time>2026-05-01T17:44:56.883Z</time></trkpt><trkpt lat="46.565174" lon="12.4817838"><ele>1465.0</ele><time>2026-05-01T17:44:57.893Z</time></trkpt><trkpt lat="46.5650423" lon="12.481755"><ele>1465.0</ele><time>2026-05-01T17:44:58.884Z</time></trkpt><trkpt lat="46.5649089" lon="12.4817642"><ele>1465.0</ele><time>2026-05-01T17:44:59.884Z</time></trkpt><trkpt lat="46.5647752" lon="12.4818249"><ele>1465.0</ele><time>2026-05-01T17:45:00.882Z</time></trkpt><trkpt lat="46.5646385" lon="12.4819232"><ele>1465.0</ele><time>2026-05-01T17:45:01.883Z</time></trkpt><trkpt lat="46.5645129" lon="12.482075"><ele>1465.0</ele><time>2026-05-01T17:45:02.886Z</time></trkpt><trkpt lat="46.5643902" lon="12.4822362"><ele>1463.6666666666665</ele><time>2026-05-01T17:45:03.886Z</time></trkpt><trkpt lat="46.5642604" lon="12.4824028"><ele>1462.3333333333333</ele><time>2026-05-01T17:45:04.893Z</time></trkpt><trkpt lat="46.5641221" lon="12.4825652"><ele>1461.0</ele><time>2026-05-01T17:45:05.879Z</time></trkpt><trkpt lat="46.5639862" lon="12.4827226"><ele>1461.0</ele><time>2026-05-01T17:45:06.896Z</time></trkpt><trkpt lat="46.5638595" lon="12.4828625"><ele>1461.0</ele><time>2026-05-01T17:45:07.889Z</time></trkpt><trkpt lat="46.5637235" lon="12.4829764"><ele>1461.0</ele><time>2026-05-01T17:45:08.888Z</time></trkpt><trkpt lat="46.5635817" lon="12.4830606"><ele>1461.6666666666667</ele><time>2026-05-01T17:45:09.891Z</time></trkpt><trkpt lat="46.5634145" lon="12.4831197"><ele>1462.3333333333335</ele><time>2026-05-01T17:45:10.893Z</time></trkpt><trkpt lat="46.5632448" lon="12.4831401"><ele>1463.0</ele><time>2026-05-01T17:45:11.884Z</time></trkpt><trkpt lat="46.5630642" lon="12.4831449"><ele>1463.0</ele><time>2026-05-01T17:45:12.885Z</time></trkpt><trkpt lat="46.562884" lon="12.4831587"><ele>1463.0</ele><time>2026-05-01T17:45:13.887Z</time></trkpt><trkpt lat="46.5626998" lon="12.4831783"><ele>1463.0</ele><time>2026-05-01T17:45:14.881Z</time></trkpt><trkpt lat="46.5625025" lon="12.4832055"><ele>1462.6666666666667</ele><time>2026-05-01T17:45:15.883Z</time></trkpt><trkpt lat="46.5623082" lon="12.4832412"><ele>1462.3333333333333</ele><time>2026-05-01T17:45:16.893Z</time></trkpt><trkpt lat="46.562104" lon="12.4832748"><ele>1462.0</ele><time>2026-05-01T17:45:17.889Z</time></trkpt><trkpt lat="46.5618973" lon="12.4833097"><ele>1462.0</ele><time>2026-05-01T17:45:18.887Z</time></trkpt><trkpt lat="46.5616781" lon="12.483343"><ele>1462.0</ele><time>2026-05-01T17:45:19.881Z</time></trkpt><trkpt lat="46.5614648" lon="12.4833791"><ele>1462.0</ele><time>2026-05-01T17:45:20.894Z</time></trkpt><trkpt lat="46.5612554" lon="12.4834138"><ele>1461.0</ele><time>2026-05-01T17:45:21.885Z</time></trkpt><trkpt lat="46.5610602" lon="12.4834374"><ele>1460.0</ele><time>2026-05-01T17:45:22.883Z</time></trkpt><trkpt lat="46.5608721" lon="12.4834628"><ele>1459.0</ele><time>2026-05-01T17:45:23.884Z</time></trkpt><trkpt lat="46.5606965" lon="12.4834835"><ele>1459.0</ele><time>2026-05-01T17:45:24.888Z</time></trkpt><trkpt lat="46.5605261" lon="12.4835062"><ele>1459.0</ele><time>2026-05-01T17:45:25.889Z</time></trkpt><trkpt lat="46.5603615" lon="12.4835083"><ele>1459.0</ele><time>2026-05-01T17:45:26.884Z</time></trkpt><trkpt lat="46.5602031" lon="12.4834958"><ele>1457.5</ele><time>2026-05-01T17:45:27.881Z</time></trkpt><trkpt lat="46.5600526" lon="12.4834849"><ele>1456.0</ele><time>2026-05-01T17:45:28.896Z</time></trkpt><trkpt lat="46.5599052" lon="12.4834823"><ele>1454.5</ele><time>2026-05-01T17:45:29.887Z</time></trkpt><trkpt lat="46.5597736" lon="12.4834675"><ele>1453.0</ele><time>2026-05-01T17:45:30.891Z</time></trkpt><trkpt lat="46.5596429" lon="12.483423"><ele>1449.0</ele><time>2026-05-01T17:45:31.89Z</time></trkpt><trkpt lat="46.5595111" lon="12.4833513"><ele>1445.0</ele><time>2026-05-01T17:45:32.884Z</time></trkpt><trkpt lat="46.5593653" lon="12.4832454"><ele>1441.0</ele><time>2026-05-01T17:45:33.892Z</time></trkpt><trkpt lat="46.5592164" lon="12.4831298"><ele>1441.0</ele><time>2026-05-01T17:45:34.895Z</time></trkpt><trkpt lat="46.5590736" lon="12.4830279"><ele>1441.0</ele><time>2026-05-01T17:45:35.881Z</time></trkpt><trkpt lat="46.5589495" lon="12.4829139"><ele>1441.0</ele><time>2026-05-01T17:45:36.893Z</time></trkpt><trkpt lat="46.5588298" lon="12.4828004"><ele>1441.0</ele><time>2026-05-01T17:45:37.88Z</time></trkpt><trkpt lat="46.5587366" lon="12.4827107"><ele>1443.0</ele><time>2026-05-01T17:45:38.889Z</time></trkpt><trkpt lat="46.5586566" lon="12.4826749"><ele>1445.0</ele><time>2026-05-01T17:45:39.885Z</time></trkpt><trkpt lat="46.5585643" lon="12.4826852"><ele>1447.0</ele><time>2026-05-01T17:45:40.884Z</time></trkpt><trkpt lat="46.5584734" lon="12.482717"><ele>1449.0</ele><time>2026-05-01T17:45:41.883Z</time></trkpt><trkpt lat="46.5583902" lon="12.4828069"><ele>1451.0</ele><time>2026-05-01T17:45:42.882Z</time></trkpt><trkpt lat="46.5583096" lon="12.482916"><ele>1445.75</ele><time>2026-05-01T17:45:43.889Z</time></trkpt><trkpt lat="46.5582137" lon="12.48299"><ele>1440.5</ele><time>2026-05-01T17:45:44.888Z</time></trkpt><trkpt lat="46.558088" lon="12.4830184"><ele>1435.25</ele><time>2026-05-01T17:45:45.89Z</time></trkpt><trkpt lat="46.5579474" lon="12.4830344"><ele>1430.0</ele><time>2026-05-01T17:45:46.883Z</time></trkpt><trkpt lat="46.5578081" lon="12.4830425"><ele>1429.5</ele><time>2026-05-01T17:45:47.887Z</time></trkpt><trkpt lat="46.5576682" lon="12.4830642"><ele>1429.0</ele><time>2026-05-01T17:45:48.885Z</time></trkpt><trkpt lat="46.5575454" lon="12.4831076"><ele>1428.5</ele><time>2026-05-01T17:45:49.886Z</time></trkpt><trkpt lat="46.5574338" lon="12.4831495"><ele>1428.0</ele><time>2026-05-01T17:45:50.889Z</time></trkpt><trkpt lat="46.5573217" lon="12.4831973"><ele>1428.0</ele><time>2026-05-01T17:45:51.879Z</time></trkpt><trkpt lat="46.5572184" lon="12.4832308"><ele>1428.0</ele><time>2026-05-01T17:45:52.898Z</time></trkpt><trkpt lat="46.5571223" lon="12.4832451"><ele>1428.0</ele><time>2026-05-01T17:45:53.888Z</time></trkpt><trkpt lat="46.5570421" lon="12.4832514"><ele>1428.0</ele><time>2026-05-01T17:45:54.89Z</time></trkpt><trkpt lat="46.5569753" lon="12.4832531"><ele>1428.0</ele><time>2026-05-01T17:45:55.888Z</time></trkpt><trkpt lat="46.5568827" lon="12.4833371"><ele>1428.0</ele><time>2026-05-01T17:45:57.886Z</time></trkpt><trkpt lat="46.5569075" lon="12.4835106"><ele>1428.0</ele><time>2026-05-01T17:45:59.887Z</time></trkpt><trkpt lat="46.5569703" lon="12.483555"><ele>1428.0</ele><time>2026-05-01T17:46:00.875Z</time></trkpt><trkpt lat="46.5570482" lon="12.4835713"><ele>1428.0</ele><time>2026-05-01T17:46:01.883Z</time></trkpt><trkpt lat="46.5571372" lon="12.4835649"><ele>1428.0</ele><time>2026-05-01T17:46:02.885Z</time></trkpt><trkpt lat="46.5572312" lon="12.4835599"><ele>1428.0</ele><time>2026-05-01T17:46:03.886Z</time></trkpt><trkpt lat="46.5573083" lon="12.4835739"><ele>1428.0</ele><time>2026-05-01T17:46:04.886Z</time></trkpt><trkpt lat="46.5573709" lon="12.4836094"><ele>1428.0</ele><time>2026-05-01T17:46:05.894Z</time></trkpt><trkpt lat="46.5574117" lon="12.4837325"><ele>1428.0</ele><time>2026-05-01T17:46:07.886Z</time></trkpt><trkpt lat="46.5573024" lon="12.483824"><ele>1428.0</ele><time>2026-05-01T17:46:09.891Z</time></trkpt><trkpt lat="46.5571935" lon="12.4838571"><ele>1424.6000000000001</ele><time>2026-05-01T17:46:10.886Z</time></trkpt><trkpt lat="46.5570791" lon="12.4838872"><ele>1421.2</ele><time>2026-05-01T17:46:11.896Z</time></trkpt><trkpt lat="46.556975" lon="12.4839265"><ele>1417.8</ele><time>2026-05-01T17:46:12.882Z</time></trkpt><trkpt lat="46.5568752" lon="12.48396"><ele>1414.4</ele><time>2026-05-01T17:46:13.889Z</time></trkpt><trkpt lat="46.5567919" lon="12.4839974"><ele>1411.0</ele><time>2026-05-01T17:46:14.883Z</time></trkpt><trkpt lat="46.5567327" lon="12.4840394"><ele>1411.0</ele><time>2026-05-01T17:46:15.885Z</time></trkpt><trkpt lat="46.5566818" lon="12.4841954"><ele>1411.0</ele><time>2026-05-01T17:46:17.884Z</time></trkpt><trkpt lat="46.5567091" lon="12.4842912"><ele>1411.0</ele><time>2026-05-01T17:46:18.891Z</time></trkpt><trkpt lat="46.55677" lon="12.4843717"><ele>1411.0</ele><time>2026-05-01T17:46:19.887Z</time></trkpt><trkpt lat="46.5568725" lon="12.4844321"><ele>1411.0</ele><time>2026-05-01T17:46:20.886Z</time></trkpt><trkpt lat="46.5569968" lon="12.4844906"><ele>1410.25</ele><time>2026-05-01T17:46:21.881Z</time></trkpt><trkpt lat="46.5571155" lon="12.4845519"><ele>1409.5</ele><time>2026-05-01T17:46:22.888Z</time></trkpt><trkpt lat="46.5572252" lon="12.4846215"><ele>1408.75</ele><time>2026-05-01T17:46:23.882Z</time></trkpt><trkpt lat="46.5573297" lon="12.4846694"><ele>1408.0</ele><time>2026-05-01T17:46:24.879Z</time></trkpt><trkpt lat="46.557428" lon="12.4846988"><ele>1405.0</ele><time>2026-05-01T17:46:25.894Z</time></trkpt><trkpt lat="46.5575208" lon="12.4847047"><ele>1402.0</ele><time>2026-05-01T17:46:26.884Z</time></trkpt><trkpt lat="46.5576009" lon="12.4847089"><ele>1399.0</ele><time>2026-05-01T17:46:27.885Z</time></trkpt><trkpt lat="46.5576639" lon="12.4847309"><ele>1396.0</ele><time>2026-05-01T17:46:28.89Z</time></trkpt><trkpt lat="46.5576988" lon="12.4848391"><ele>1393.0</ele><time>2026-05-01T17:46:30.89Z</time></trkpt><trkpt lat="46.5576276" lon="12.4849549"><ele>1390.0</ele><time>2026-05-01T17:46:32.889Z</time></trkpt><trkpt lat="46.5575463" lon="12.4850286"><ele>1390.0</ele><time>2026-05-01T17:46:33.882Z</time></trkpt><trkpt lat="46.5574561" lon="12.4851065"><ele>1390.0</ele><time>2026-05-01T17:46:34.886Z</time></trkpt><trkpt lat="46.5573781" lon="12.4852268"><ele>1390.0</ele><time>2026-05-01T17:46:35.887Z</time></trkpt><trkpt lat="46.5573049" lon="12.4854162"><ele>1390.0</ele><time>2026-05-01T17:46:36.885Z</time></trkpt><trkpt lat="46.5572527" lon="12.4856206"><ele>1388.75</ele><time>2026-05-01T17:46:37.881Z</time></trkpt><trkpt lat="46.5572119" lon="12.4858223"><ele>1387.5</ele><time>2026-05-01T17:46:38.892Z</time></trkpt><trkpt lat="46.5571697" lon="12.4859929"><ele>1386.25</ele><time>2026-05-01T17:46:39.886Z</time></trkpt><trkpt lat="46.5571249" lon="12.4861561"><ele>1385.0</ele><time>2026-05-01T17:46:40.888Z</time></trkpt><trkpt lat="46.5570769" lon="12.4863117"><ele>1384.0</ele><time>2026-05-01T17:46:41.882Z</time></trkpt><trkpt lat="46.5570243" lon="12.4864498"><ele>1383.0</ele><time>2026-05-01T17:46:42.884Z</time></trkpt><trkpt lat="46.5569645" lon="12.4865699"><ele>1382.0</ele><time>2026-05-01T17:46:43.882Z</time></trkpt><trkpt lat="46.5568814" lon="12.4866651"><ele>1381.0</ele><time>2026-05-01T17:46:44.898Z</time></trkpt><trkpt lat="46.556779" lon="12.486727"><ele>1380.0</ele><time>2026-05-01T17:46:45.888Z</time></trkpt><trkpt lat="46.5566713" lon="12.4867776"><ele>1380.0</ele><time>2026-05-01T17:46:46.891Z</time></trkpt><trkpt lat="46.5565775" lon="12.4868166"><ele>1380.0</ele><time>2026-05-01T17:46:47.889Z</time></trkpt><trkpt lat="46.5565034" lon="12.486821"><ele>1380.0</ele><time>2026-05-01T17:46:48.886Z</time></trkpt><trkpt lat="46.5564327" lon="12.4867584"><ele>1380.0</ele><time>2026-05-01T17:46:49.884Z</time></trkpt><trkpt lat="46.5563469" lon="12.4866457"><ele>1380.0</ele><time>2026-05-01T17:46:50.882Z</time></trkpt><trkpt lat="46.5562589" lon="12.4865184"><ele>1379.5</ele><time>2026-05-01T17:46:51.882Z</time></trkpt><trkpt lat="46.5561541" lon="12.4863856"><ele>1379.0</ele><time>2026-05-01T17:46:52.888Z</time></trkpt><trkpt lat="46.5560414" lon="12.4862523"><ele>1378.5</ele><time>2026-05-01T17:46:53.891Z</time></trkpt><trkpt lat="46.5559179" lon="12.4861338"><ele>1378.0</ele><time>2026-05-01T17:46:54.882Z</time></trkpt><trkpt lat="46.5557921" lon="12.4860261"><ele>1378.0</ele><time>2026-05-01T17:46:55.882Z</time></trkpt><trkpt lat="46.5556479" lon="12.485939"><ele>1378.0</ele><time>2026-05-01T17:46:56.883Z</time></trkpt><trkpt lat="46.5554848" lon="12.4858958"><ele>1378.0</ele><time>2026-05-01T17:46:57.883Z</time></trkpt><trkpt lat="46.5553294" lon="12.4858535"><ele>1371.75</ele><time>2026-05-01T17:46:58.886Z</time></trkpt><trkpt lat="46.55518" lon="12.4857994"><ele>1365.5</ele><time>2026-05-01T17:46:59.888Z</time></trkpt><trkpt lat="46.5550408" lon="12.4857317"><ele>1359.25</ele><time>2026-05-01T17:47:00.881Z</time></trkpt><trkpt lat="46.554922" lon="12.4856215"><ele>1353.0</ele><time>2026-05-01T17:47:01.878Z</time></trkpt><trkpt lat="46.5548155" lon="12.4854762"><ele>1358.3333333333333</ele><time>2026-05-01T17:47:02.884Z</time></trkpt><trkpt lat="46.5547141" lon="12.485295"><ele>1363.6666666666665</ele><time>2026-05-01T17:47:03.883Z</time></trkpt><trkpt lat="46.5546139" lon="12.4851122"><ele>1369.0</ele><time>2026-05-01T17:47:04.888Z</time></trkpt><trkpt lat="46.5545139" lon="12.48492"><ele>1360.3333333333333</ele><time>2026-05-01T17:47:05.881Z</time></trkpt><trkpt lat="46.5544187" lon="12.4847283"><ele>1351.6666666666667</ele><time>2026-05-01T17:47:06.885Z</time></trkpt><trkpt lat="46.5543269" lon="12.484527"><ele>1343.0</ele><time>2026-05-01T17:47:07.883Z</time></trkpt><trkpt lat="46.5542462" lon="12.4843118"><ele>1343.0</ele><time>2026-05-01T17:47:08.89Z</time></trkpt><trkpt lat="46.5541793" lon="12.4840793"><ele>1343.0</ele><time>2026-05-01T17:47:09.882Z</time></trkpt><trkpt lat="46.5541111" lon="12.4838405"><ele>1343.0</ele><time>2026-05-01T17:47:10.883Z</time></trkpt><trkpt lat="46.5540424" lon="12.4835807"><ele>1345.0</ele><time>2026-05-01T17:47:11.886Z</time></trkpt><trkpt lat="46.5539568" lon="12.4833092"><ele>1347.0</ele><time>2026-05-01T17:47:12.883Z</time></trkpt><trkpt lat="46.5538753" lon="12.4830278"><ele>1349.0</ele><time>2026-05-01T17:47:13.888Z</time></trkpt><trkpt lat="46.5537958" lon="12.4827521"><ele>1351.6666666666667</ele><time>2026-05-01T17:47:14.887Z</time></trkpt><trkpt lat="46.5537154" lon="12.482493"><ele>1354.3333333333333</ele><time>2026-05-01T17:47:15.884Z</time></trkpt><trkpt lat="46.5536349" lon="12.4822347"><ele>1357.0</ele><time>2026-05-01T17:47:16.886Z</time></trkpt><trkpt lat="46.5535537" lon="12.4819683"><ele>1349.6666666666665</ele><time>2026-05-01T17:47:17.886Z</time></trkpt><trkpt lat="46.5534728" lon="12.4817063"><ele>1342.3333333333333</ele><time>2026-05-01T17:47:18.886Z</time></trkpt><trkpt lat="46.5533923" lon="12.4814471"><ele>1335.0</ele><time>2026-05-01T17:47:19.879Z</time></trkpt><trkpt lat="46.5532958" lon="12.4811904"><ele>1335.0</ele><time>2026-05-01T17:47:20.885Z</time></trkpt><trkpt lat="46.5531972" lon="12.4809377"><ele>1335.0</ele><time>2026-05-01T17:47:21.891Z</time></trkpt><trkpt lat="46.5531049" lon="12.4806909"><ele>1335.0</ele><time>2026-05-01T17:47:22.893Z</time></trkpt><trkpt lat="46.5530155" lon="12.4804485"><ele>1340.3333333333333</ele><time>2026-05-01T17:47:23.889Z</time></trkpt><trkpt lat="46.5529062" lon="12.4801986"><ele>1345.6666666666665</ele><time>2026-05-01T17:47:24.885Z</time></trkpt><trkpt lat="46.5527905" lon="12.479958"><ele>1351.0</ele><time>2026-05-01T17:47:25.889Z</time></trkpt><trkpt lat="46.5526796" lon="12.4797199"><ele>1339.0</ele><time>2026-05-01T17:47:26.886Z</time></trkpt><trkpt lat="46.5525743" lon="12.4794887"><ele>1327.0</ele><time>2026-05-01T17:47:27.889Z</time></trkpt><trkpt lat="46.5524726" lon="12.4792566"><ele>1315.0</ele><time>2026-05-01T17:47:28.888Z</time></trkpt><trkpt lat="46.5523734" lon="12.4790219"><ele>1315.0</ele><time>2026-05-01T17:47:29.888Z</time></trkpt><trkpt lat="46.5522778" lon="12.4787981"><ele>1315.0</ele><time>2026-05-01T17:47:30.889Z</time></trkpt><trkpt lat="46.552178" lon="12.4785858"><ele>1315.0</ele><time>2026-05-01T17:47:31.891Z</time></trkpt><trkpt lat="46.552087" lon="12.4783754"><ele>1307.0</ele><time>2026-05-01T17:47:32.885Z</time></trkpt><trkpt lat="46.5519934" lon="12.4781595"><ele>1299.0</ele><time>2026-05-01T17:47:33.882Z</time></trkpt><trkpt lat="46.5518978" lon="12.4779525"><ele>1291.0</ele><time>2026-05-01T17:47:34.884Z</time></trkpt><trkpt lat="46.5518108" lon="12.4777526"><ele>1291.0</ele><time>2026-05-01T17:47:35.892Z</time></trkpt><trkpt lat="46.5517265" lon="12.4775531"><ele>1291.0</ele><time>2026-05-01T17:47:36.887Z</time></trkpt><trkpt lat="46.5516521" lon="12.4773642"><ele>1291.0</ele><time>2026-05-01T17:47:37.889Z</time></trkpt><trkpt lat="46.5515858" lon="12.4771804"><ele>1292.0</ele><time>2026-05-01T17:47:38.89Z</time></trkpt><trkpt lat="46.5515316" lon="12.4769941"><ele>1293.0</ele><time>2026-05-01T17:47:39.892Z</time></trkpt><trkpt lat="46.5514911" lon="12.4767762"><ele>1294.0</ele><time>2026-05-01T17:47:40.886Z</time></trkpt><trkpt lat="46.5514622" lon="12.4765404"><ele>1294.0</ele><time>2026-05-01T17:47:41.885Z</time></trkpt><trkpt lat="46.5514387" lon="12.4762971"><ele>1294.0</ele><time>2026-05-01T17:47:42.881Z</time></trkpt><trkpt lat="46.5514103" lon="12.4760564"><ele>1294.0</ele><time>2026-05-01T17:47:43.884Z</time></trkpt><trkpt lat="46.5513682" lon="12.4758341"><ele>1294.5</ele><time>2026-05-01T17:47:44.889Z</time></trkpt><trkpt lat="46.5513135" lon="12.4756232"><ele>1295.0</ele><time>2026-05-01T17:47:45.882Z</time></trkpt><trkpt lat="46.5512588" lon="12.4754358"><ele>1295.5</ele><time>2026-05-01T17:47:46.886Z</time></trkpt><trkpt lat="46.5512126" lon="12.475254"><ele>1296.0</ele><time>2026-05-01T17:47:47.889Z</time></trkpt><trkpt lat="46.5511765" lon="12.4750882"><ele>1288.0</ele><time>2026-05-01T17:47:48.885Z</time></trkpt><trkpt lat="46.5511441" lon="12.47495"><ele>1280.0</ele><time>2026-05-01T17:47:49.892Z</time></trkpt><trkpt lat="46.5511286" lon="12.474837"><ele>1272.0</ele><time>2026-05-01T17:47:50.89Z</time></trkpt><trkpt lat="46.5510708" lon="12.4746943"><ele>1264.0</ele><time>2026-05-01T17:47:52.89Z</time></trkpt><trkpt lat="46.5509618" lon="12.4746907"><ele>1256.0</ele><time>2026-05-01T17:47:54.887Z</time></trkpt><trkpt lat="46.550896" lon="12.4748246"><ele>1256.0</ele><time>2026-05-01T17:47:56.881Z</time></trkpt><trkpt lat="46.5509264" lon="12.4750196"><ele>1256.0</ele><time>2026-05-01T17:47:58.887Z</time></trkpt><trkpt lat="46.5509531" lon="12.4751418"><ele>1256.0</ele><time>2026-05-01T17:47:59.883Z</time></trkpt><trkpt lat="46.550985" lon="12.4752736"><ele>1256.0</ele><time>2026-05-01T17:48:00.884Z</time></trkpt><trkpt lat="46.5510183" lon="12.4754282"><ele>1256.0</ele><time>2026-05-01T17:48:01.89Z</time></trkpt><trkpt lat="46.5510479" lon="12.4755982"><ele>1254.3999999999999</ele><time>2026-05-01T17:48:02.885Z</time></trkpt><trkpt lat="46.5510676" lon="12.4757643"><ele>1252.8</ele><time>2026-05-01T17:48:03.884Z</time></trkpt><trkpt lat="46.551086" lon="12.4759284"><ele>1251.1999999999998</ele><time>2026-05-01T17:48:04.886Z</time></trkpt><trkpt lat="46.5511075" lon="12.4760857"><ele>1249.6</ele><time>2026-05-01T17:48:05.886Z</time></trkpt><trkpt lat="46.5511309" lon="12.4762226"><ele>1248.0</ele><time>2026-05-01T17:48:06.886Z</time></trkpt><trkpt lat="46.5511451" lon="12.4763377"><ele>1248.0</ele><time>2026-05-01T17:48:07.882Z</time></trkpt><trkpt lat="46.5511447" lon="12.4764339"><ele>1248.0</ele><time>2026-05-01T17:48:08.883Z</time></trkpt><trkpt lat="46.55109" lon="12.4765002"><ele>1248.0</ele><time>2026-05-01T17:48:10.888Z</time></trkpt><trkpt lat="46.5510561" lon="12.4763873"><ele>1248.0</ele><time>2026-05-01T17:48:13.883Z</time></trkpt><trkpt lat="46.5510489" lon="12.4762884"><ele>1248.0</ele><time>2026-05-01T17:48:14.881Z</time></trkpt><trkpt lat="46.5510441" lon="12.4761626"><ele>1248.0</ele><time>2026-05-01T17:48:15.885Z</time></trkpt><trkpt lat="46.5509949" lon="12.4760108"><ele>1248.0</ele><time>2026-05-01T17:48:16.884Z</time></trkpt><trkpt lat="46.5509251" lon="12.4758497"><ele>1248.0</ele><time>2026-05-01T17:48:17.888Z</time></trkpt><trkpt lat="46.5508569" lon="12.4757093"><ele>1248.0</ele><time>2026-05-01T17:48:18.891Z</time></trkpt><trkpt lat="46.5507987" lon="12.4755798"><ele>1248.0</ele><time>2026-05-01T17:48:19.882Z</time></trkpt><trkpt lat="46.5507629" lon="12.4754596"><ele>1248.0</ele><time>2026-05-01T17:48:20.879Z</time></trkpt><trkpt lat="46.5507431" lon="12.4753544"><ele>1248.0</ele><time>2026-05-01T17:48:21.893Z</time></trkpt><trkpt lat="46.5506923" lon="12.4752401"><ele>1248.0</ele><time>2026-05-01T17:48:23.884Z</time></trkpt><trkpt lat="46.5505961" lon="12.4752813"><ele>1248.0</ele><time>2026-05-01T17:48:25.885Z</time></trkpt><trkpt lat="46.5505643" lon="12.4754372"><ele>1248.0</ele><time>2026-05-01T17:48:27.893Z</time></trkpt><trkpt lat="46.5505892" lon="12.4755595"><ele>1248.0</ele><time>2026-05-01T17:48:28.881Z</time></trkpt><trkpt lat="46.5506284" lon="12.4756955"><ele>1248.0</ele><time>2026-05-01T17:48:29.883Z</time></trkpt><trkpt lat="46.5506573" lon="12.4758544"><ele>1248.0</ele><time>2026-05-01T17:48:30.883Z</time></trkpt><trkpt lat="46.5506771" lon="12.476031"><ele>1248.0</ele><time>2026-05-01T17:48:31.892Z</time></trkpt><trkpt lat="46.5506911" lon="12.4762186"><ele>1248.0</ele><time>2026-05-01T17:48:32.878Z</time></trkpt><trkpt lat="46.5507053" lon="12.4764033"><ele>1246.0</ele><time>2026-05-01T17:48:33.894Z</time></trkpt><trkpt lat="46.5507095" lon="12.4765857"><ele>1244.0</ele><time>2026-05-01T17:48:34.889Z</time></trkpt><trkpt lat="46.5507024" lon="12.4767779"><ele>1242.0</ele><time>2026-05-01T17:48:35.892Z</time></trkpt><trkpt lat="46.5506886" lon="12.4769765"><ele>1240.0</ele><time>2026-05-01T17:48:36.887Z</time></trkpt><trkpt lat="46.5506705" lon="12.4771813"><ele>1237.75</ele><time>2026-05-01T17:48:37.885Z</time></trkpt><trkpt lat="46.5506598" lon="12.4773987"><ele>1235.5</ele><time>2026-05-01T17:48:38.887Z</time></trkpt><trkpt lat="46.5506644" lon="12.4776083"><ele>1233.25</ele><time>2026-05-01T17:48:39.885Z</time></trkpt><trkpt lat="46.5506845" lon="12.4778266"><ele>1231.0</ele><time>2026-05-01T17:48:40.884Z</time></trkpt><trkpt lat="46.5507209" lon="12.4780579"><ele>1226.3333333333333</ele><time>2026-05-01T17:48:41.887Z</time></trkpt><trkpt lat="46.5507792" lon="12.4782942"><ele>1221.6666666666667</ele><time>2026-05-01T17:48:42.887Z</time></trkpt><trkpt lat="46.5508443" lon="12.4785251"><ele>1217.0</ele><time>2026-05-01T17:48:43.881Z</time></trkpt><trkpt lat="46.5509005" lon="12.4787506"><ele>1211.3333333333335</ele><time>2026-05-01T17:48:44.883Z</time></trkpt><trkpt lat="46.5509614" lon="12.4789679"><ele>1205.6666666666667</ele><time>2026-05-01T17:48:45.884Z</time></trkpt><trkpt lat="46.5510149" lon="12.4791832"><ele>1200.0</ele><time>2026-05-01T17:48:46.886Z</time></trkpt><trkpt lat="46.5510764" lon="12.4793918"><ele>1200.0</ele><time>2026-05-01T17:48:47.892Z</time></trkpt><trkpt lat="46.5511331" lon="12.4795924"><ele>1200.0</ele><time>2026-05-01T17:48:48.89Z</time></trkpt><trkpt lat="46.5512011" lon="12.4797788"><ele>1200.0</ele><time>2026-05-01T17:48:49.885Z</time></trkpt><trkpt lat="46.5512772" lon="12.4799565"><ele>1200.0</ele><time>2026-05-01T17:48:50.894Z</time></trkpt><trkpt lat="46.5513413" lon="12.4801424"><ele>1203.25</ele><time>2026-05-01T17:48:51.885Z</time></trkpt><trkpt lat="46.5513951" lon="12.4803406"><ele>1206.5</ele><time>2026-05-01T17:48:52.881Z</time></trkpt><trkpt lat="46.551432" lon="12.4805543"><ele>1209.75</ele><time>2026-05-01T17:48:53.882Z</time></trkpt><trkpt lat="46.5514636" lon="12.4807669"><ele>1213.0</ele><time>2026-05-01T17:48:54.884Z</time></trkpt><trkpt lat="46.5514815" lon="12.4809594"><ele>1213.0</ele><time>2026-05-01T17:48:55.883Z</time></trkpt><trkpt lat="46.5514829" lon="12.4811458"><ele>1213.0</ele><time>2026-05-01T17:48:56.882Z</time></trkpt><trkpt lat="46.5514639" lon="12.4813293"><ele>1213.0</ele><time>2026-05-01T17:48:57.881Z</time></trkpt><trkpt lat="46.5514194" lon="12.4815297"><ele>1213.0</ele><time>2026-05-01T17:48:58.887Z</time></trkpt><trkpt lat="46.5513645" lon="12.4817423"><ele>1211.0</ele><time>2026-05-01T17:48:59.884Z</time></trkpt><trkpt lat="46.5513042" lon="12.481962"><ele>1209.0</ele><time>2026-05-01T17:49:00.89Z</time></trkpt><trkpt lat="46.5512449" lon="12.4821741"><ele>1207.0</ele><time>2026-05-01T17:49:01.877Z</time></trkpt><trkpt lat="46.5511957" lon="12.4823666"><ele>1200.2</ele><time>2026-05-01T17:49:02.884Z</time></trkpt><trkpt lat="46.5511516" lon="12.4825258"><ele>1193.4</ele><time>2026-05-01T17:49:03.879Z</time></trkpt><trkpt lat="46.5511076" lon="12.4826604"><ele>1186.6</ele><time>2026-05-01T17:49:04.89Z</time></trkpt><trkpt lat="46.5510645" lon="12.4827639"><ele>1179.8</ele><time>2026-05-01T17:49:05.883Z</time></trkpt><trkpt lat="46.551008" lon="12.4828257"><ele>1173.0</ele><time>2026-05-01T17:49:06.887Z</time></trkpt><trkpt lat="46.5509319" lon="12.4828553"><ele>1173.0</ele><time>2026-05-01T17:49:07.885Z</time></trkpt><trkpt lat="46.5508525" lon="12.4828609"><ele>1173.0</ele><time>2026-05-01T17:49:08.881Z</time></trkpt><trkpt lat="46.5507775" lon="12.482817"><ele>1173.0</ele><time>2026-05-01T17:49:09.877Z</time></trkpt><trkpt lat="46.5507183" lon="12.482737"><ele>1173.0</ele><time>2026-05-01T17:49:10.887Z</time></trkpt><trkpt lat="46.5506621" lon="12.4826539"><ele>1173.0</ele><time>2026-05-01T17:49:11.885Z</time></trkpt><trkpt lat="46.5506033" lon="12.4826055"><ele>1173.0</ele><time>2026-05-01T17:49:12.889Z</time></trkpt><trkpt lat="46.5505076" lon="12.4826265"><ele>1173.0</ele><time>2026-05-01T17:49:14.89Z</time></trkpt><trkpt lat="46.5504752" lon="12.4828164"><ele>1173.0</ele><time>2026-05-01T17:49:16.881Z</time></trkpt><trkpt lat="46.5504863" lon="12.4829339"><ele>1173.0</ele><time>2026-05-01T17:49:17.886Z</time></trkpt><trkpt lat="46.5505042" lon="12.4830545"><ele>1173.0</ele><time>2026-05-01T17:49:18.888Z</time></trkpt><trkpt lat="46.5505012" lon="12.4831531"><ele>1173.0</ele><time>2026-05-01T17:49:19.882Z</time></trkpt><trkpt lat="46.5504411" lon="12.4832515"><ele>1169.0</ele><time>2026-05-01T17:49:21.886Z</time></trkpt><trkpt lat="46.5503604" lon="12.4831579"><ele>1165.0</ele><time>2026-05-01T17:49:23.888Z</time></trkpt><trkpt lat="46.5503174" lon="12.483037"><ele>1161.0</ele><time>2026-05-01T17:49:24.882Z</time></trkpt><trkpt lat="46.5502719" lon="12.4828936"><ele>1157.0</ele><time>2026-05-01T17:49:25.881Z</time></trkpt><trkpt lat="46.5502245" lon="12.4827446"><ele>1153.0</ele><time>2026-05-01T17:49:26.887Z</time></trkpt><trkpt lat="46.5501713" lon="12.4825802"><ele>1153.0</ele><time>2026-05-01T17:49:27.882Z</time></trkpt><trkpt lat="46.5501058" lon="12.4824111"><ele>1153.0</ele><time>2026-05-01T17:49:28.886Z</time></trkpt><trkpt lat="46.5500464" lon="12.4822528"><ele>1153.0</ele><time>2026-05-01T17:49:29.88Z</time></trkpt><trkpt lat="46.549991" lon="12.4820973"><ele>1153.0</ele><time>2026-05-01T17:49:30.885Z</time></trkpt><trkpt lat="46.5499428" lon="12.4819527"><ele>1151.2</ele><time>2026-05-01T17:49:31.885Z</time></trkpt><trkpt lat="46.549909" lon="12.4818279"><ele>1149.4</ele><time>2026-05-01T17:49:32.887Z</time></trkpt><trkpt lat="46.549882" lon="12.4817431"><ele>1147.6000000000001</ele><time>2026-05-01T17:49:33.892Z</time></trkpt><trkpt lat="46.549888" lon="12.4815956"><ele>1145.8</ele><time>2026-05-01T17:49:35.893Z</time></trkpt><trkpt lat="46.5499836" lon="12.4815048"><ele>1144.0</ele><time>2026-05-01T17:49:37.883Z</time></trkpt><trkpt lat="46.5500606" lon="12.4814919"><ele>1144.0</ele><time>2026-05-01T17:49:38.88Z</time></trkpt><trkpt lat="46.5501643" lon="12.4814678"><ele>1144.0</ele><time>2026-05-01T17:49:39.883Z</time></trkpt><trkpt lat="46.5502552" lon="12.4814485"><ele>1144.0</ele><time>2026-05-01T17:49:40.893Z</time></trkpt><trkpt lat="46.5503198" lon="12.4814104"><ele>1144.0</ele><time>2026-05-01T17:49:41.892Z</time></trkpt><trkpt lat="46.5503693" lon="12.4813425"><ele>1144.0</ele><time>2026-05-01T17:49:42.892Z</time></trkpt><trkpt lat="46.5504039" lon="12.481253"><ele>1144.0</ele><time>2026-05-01T17:49:43.891Z</time></trkpt><trkpt lat="46.5504091" lon="12.4811412"><ele>1141.0</ele><time>2026-05-01T17:49:44.88Z</time></trkpt><trkpt lat="46.5503766" lon="12.4809875"><ele>1138.0</ele><time>2026-05-01T17:49:45.883Z</time></trkpt><trkpt lat="46.5503305" lon="12.4808232"><ele>1135.0</ele><time>2026-05-01T17:49:46.88Z</time></trkpt><trkpt lat="46.5502921" lon="12.4806595"><ele>1132.0</ele><time>2026-05-01T17:49:47.885Z</time></trkpt><trkpt lat="46.5502531" lon="12.4804874"><ele>1132.4</ele><time>2026-05-01T17:49:48.885Z</time></trkpt><trkpt lat="46.5502311" lon="12.4803223"><ele>1132.8000000000002</ele><time>2026-05-01T17:49:49.897Z</time></trkpt><trkpt lat="46.550219" lon="12.4801768"><ele>1133.2</ele><time>2026-05-01T17:49:50.885Z</time></trkpt><trkpt lat="46.5502032" lon="12.4800725"><ele>1133.6000000000001</ele><time>2026-05-01T17:49:51.888Z</time></trkpt><trkpt lat="46.5501623" lon="12.4800013"><ele>1134.0</ele><time>2026-05-01T17:49:52.889Z</time></trkpt><trkpt lat="46.5500417" lon="12.4799962"><ele>1134.0</ele><time>2026-05-01T17:49:54.905Z</time></trkpt><trkpt lat="46.5499611" lon="12.4801296"><ele>1134.0</ele><time>2026-05-01T17:49:56.879Z</time></trkpt><trkpt lat="46.5499581" lon="12.4802447"><ele>1134.0</ele><time>2026-05-01T17:49:57.889Z</time></trkpt><trkpt lat="46.5499853" lon="12.4803921"><ele>1134.0</ele><time>2026-05-01T17:49:58.882Z</time></trkpt><trkpt lat="46.5499771" lon="12.4805274"><ele>1134.0</ele><time>2026-05-01T17:49:59.897Z</time></trkpt><trkpt lat="46.5499452" lon="12.4806531"><ele>1133.6000000000001</ele><time>2026-05-01T17:50:00.885Z</time></trkpt><trkpt lat="46.5498977" lon="12.480723"><ele>1133.2</ele><time>2026-05-01T17:50:01.884Z</time></trkpt><trkpt lat="46.5498173" lon="12.4807706"><ele>1132.8000000000002</ele><time>2026-05-01T17:50:02.881Z</time></trkpt><trkpt lat="46.5497232" lon="12.4807695"><ele>1132.4</ele><time>2026-05-01T17:50:03.886Z</time></trkpt><trkpt lat="46.5496287" lon="12.480735"><ele>1132.0</ele><time>2026-05-01T17:50:04.884Z</time></trkpt><trkpt lat="46.549519" lon="12.4806813"><ele>1128.5</ele><time>2026-05-01T17:50:05.898Z</time></trkpt><trkpt lat="46.5494028" lon="12.4805996"><ele>1125.0</ele><time>2026-05-01T17:50:06.887Z</time></trkpt><trkpt lat="46.5492599" lon="12.4805269"><ele>1121.5</ele><time>2026-05-01T17:50:07.885Z</time></trkpt><trkpt lat="46.5491178" lon="12.4804628"><ele>1118.0</ele><time>2026-05-01T17:50:08.894Z</time></trkpt><trkpt lat="46.5489917" lon="12.4804157"><ele>1118.0</ele><time>2026-05-01T17:50:09.883Z</time></trkpt><trkpt lat="46.5488929" lon="12.4803896"><ele>1118.0</ele><time>2026-05-01T17:50:10.889Z</time></trkpt><trkpt lat="46.5488094" lon="12.480403"><ele>1118.0</ele><time>2026-05-01T17:50:11.881Z</time></trkpt><trkpt lat="46.548743" lon="12.4804454"><ele>1118.0</ele><time>2026-05-01T17:50:12.893Z</time></trkpt><trkpt lat="46.5486913" lon="12.4805102"><ele>1118.0</ele><time>2026-05-01T17:50:13.884Z</time></trkpt><trkpt lat="46.5486519" lon="12.4806345"><ele>1118.0</ele><time>2026-05-01T17:50:14.886Z</time></trkpt><trkpt lat="46.54865" lon="12.480777"><ele>1114.4</ele><time>2026-05-01T17:50:15.884Z</time></trkpt><trkpt lat="46.5486473" lon="12.4809155"><ele>1110.8</ele><time>2026-05-01T17:50:16.885Z</time></trkpt><trkpt lat="46.5485994" lon="12.4810458"><ele>1107.2</ele><time>2026-05-01T17:50:18.878Z</time></trkpt><trkpt lat="46.5484709" lon="12.4810588"><ele>1103.6</ele><time>2026-05-01T17:50:20.88Z</time></trkpt><trkpt lat="46.548409" lon="12.4810033"><ele>1100.0</ele><time>2026-05-01T17:50:21.879Z</time></trkpt><trkpt lat="46.5483798" lon="12.4809016"><ele>1100.0</ele><time>2026-05-01T17:50:22.884Z</time></trkpt><trkpt lat="46.548344" lon="12.4807531"><ele>1100.0</ele><time>2026-05-01T17:50:23.881Z</time></trkpt><trkpt lat="46.5483031" lon="12.4805875"><ele>1100.0</ele><time>2026-05-01T17:50:24.888Z</time></trkpt><trkpt lat="46.5482495" lon="12.4804223"><ele>1100.0</ele><time>2026-05-01T17:50:25.88Z</time></trkpt><trkpt lat="46.5481931" lon="12.4802607"><ele>1098.6666666666667</ele><time>2026-05-01T17:50:26.884Z</time></trkpt><trkpt lat="46.5481539" lon="12.4801235"><ele>1097.3333333333335</ele><time>2026-05-01T17:50:27.878Z</time></trkpt><trkpt lat="46.5481394" lon="12.4800034"><ele>1096.0</ele><time>2026-05-01T17:50:28.881Z</time></trkpt><trkpt lat="46.5481574" lon="12.4798957"><ele>1094.6666666666667</ele><time>2026-05-01T17:50:29.89Z</time></trkpt><trkpt lat="46.5482048" lon="12.4798075"><ele>1093.3333333333333</ele><time>2026-05-01T17:50:30.88Z</time></trkpt><trkpt lat="46.548271" lon="12.4797467"><ele>1092.0</ele><time>2026-05-01T17:50:31.878Z</time></trkpt><trkpt lat="46.5483602" lon="12.4797279"><ele>1092.0</ele><time>2026-05-01T17:50:32.885Z</time></trkpt><trkpt lat="46.5484618" lon="12.4797295"><ele>1092.0</ele><time>2026-05-01T17:50:33.881Z</time></trkpt><trkpt lat="46.548567" lon="12.4797315"><ele>1092.0</ele><time>2026-05-01T17:50:34.89Z</time></trkpt><trkpt lat="46.5486584" lon="12.4797145"><ele>1092.0</ele><time>2026-05-01T17:50:35.883Z</time></trkpt><trkpt lat="46.5487257" lon="12.4796964"><ele>1092.0</ele><time>2026-05-01T17:50:36.884Z</time></trkpt><trkpt lat="46.5487871" lon="12.4796322"><ele>1092.0</ele><time>2026-05-01T17:50:37.888Z</time></trkpt><trkpt lat="46.5488273" lon="12.4795379"><ele>1088.8</ele><time>2026-05-01T17:50:38.88Z</time></trkpt><trkpt lat="46.5488272" lon="12.4794203"><ele>1085.6</ele><time>2026-05-01T17:50:39.89Z</time></trkpt><trkpt lat="46.5487908" lon="12.4792899"><ele>1082.3999999999999</ele><time>2026-05-01T17:50:40.882Z</time></trkpt><trkpt lat="46.5487288" lon="12.4791597"><ele>1079.2</ele><time>2026-05-01T17:50:41.888Z</time></trkpt><trkpt lat="46.5486339" lon="12.4790256"><ele>1076.0</ele><time>2026-05-01T17:50:42.884Z</time></trkpt><trkpt lat="46.5485434" lon="12.4788815"><ele>1078.6666666666667</ele><time>2026-05-01T17:50:43.887Z</time></trkpt><trkpt lat="46.5484396" lon="12.4787298"><ele>1081.3333333333333</ele><time>2026-05-01T17:50:44.881Z</time></trkpt><trkpt lat="46.5483297" lon="12.4785811"><ele>1084.0</ele><time>2026-05-01T17:50:45.878Z</time></trkpt><trkpt lat="46.548212" lon="12.4784153"><ele>1084.0</ele><time>2026-05-01T17:50:46.883Z</time></trkpt><trkpt lat="46.5481045" lon="12.4782458"><ele>1084.0</ele><time>2026-05-01T17:50:47.878Z</time></trkpt><trkpt lat="46.5480015" lon="12.4780787"><ele>1084.0</ele><time>2026-05-01T17:50:48.896Z</time></trkpt><trkpt lat="46.5478992" lon="12.4779189"><ele>1081.0</ele><time>2026-05-01T17:50:49.889Z</time></trkpt><trkpt lat="46.5478027" lon="12.4777649"><ele>1078.0</ele><time>2026-05-01T17:50:50.891Z</time></trkpt><trkpt lat="46.5477071" lon="12.4776201"><ele>1075.0</ele><time>2026-05-01T17:50:51.887Z</time></trkpt><trkpt lat="46.547627" lon="12.4774898"><ele>1072.0</ele><time>2026-05-01T17:50:52.879Z</time></trkpt><trkpt lat="46.5475579" lon="12.4773753"><ele>1072.0</ele><time>2026-05-01T17:50:53.887Z</time></trkpt><trkpt lat="46.5474942" lon="12.4772883"><ele>1072.0</ele><time>2026-05-01T17:50:54.886Z</time></trkpt><trkpt lat="46.5474408" lon="12.4772148"><ele>1072.0</ele><time>2026-05-01T17:50:55.888Z</time></trkpt><trkpt lat="46.5473826" lon="12.4771698"><ele>1072.0</ele><time>2026-05-01T17:50:56.894Z</time></trkpt><trkpt lat="46.547315" lon="12.4771789"><ele>1072.0</ele><time>2026-05-01T17:50:57.883Z</time></trkpt><trkpt lat="46.5472482" lon="12.4772307"><ele>1072.0</ele><time>2026-05-01T17:50:58.883Z</time></trkpt><trkpt lat="46.547219" lon="12.4773408"><ele>1072.0</ele><time>2026-05-01T17:50:59.888Z</time></trkpt><trkpt lat="46.5472223" lon="12.4774598"><ele>1072.0</ele><time>2026-05-01T17:51:00.884Z</time></trkpt><trkpt lat="46.5472689" lon="12.4776068"><ele>1072.0</ele><time>2026-05-01T17:51:01.881Z</time></trkpt><trkpt lat="46.5473263" lon="12.4777523"><ele>1072.0</ele><time>2026-05-01T17:51:02.879Z</time></trkpt><trkpt lat="46.5473954" lon="12.4779041"><ele>1072.0</ele><time>2026-05-01T17:51:03.893Z</time></trkpt><trkpt lat="46.5474651" lon="12.4780626"><ele>1068.4</ele><time>2026-05-01T17:51:04.881Z</time></trkpt><trkpt lat="46.5475357" lon="12.4782121"><ele>1064.8000000000002</ele><time>2026-05-01T17:51:05.887Z</time></trkpt><trkpt lat="46.5476064" lon="12.4783407"><ele>1061.2</ele><time>2026-05-01T17:51:06.882Z</time></trkpt><trkpt lat="46.5476727" lon="12.478441"><ele>1057.6000000000001</ele><time>2026-05-01T17:51:07.883Z</time></trkpt><trkpt lat="46.5477257" lon="12.4785306"><ele>1054.0</ele><time>2026-05-01T17:51:08.887Z</time></trkpt><trkpt lat="46.5477688" lon="12.4786174"><ele>1054.0</ele><time>2026-05-01T17:51:09.888Z</time></trkpt><trkpt lat="46.5477791" lon="12.4787115"><ele>1054.0</ele><time>2026-05-01T17:51:10.894Z</time></trkpt><trkpt lat="46.5477355" lon="12.4788383"><ele>1054.0</ele><time>2026-05-01T17:51:12.886Z</time></trkpt><trkpt lat="46.5476712" lon="12.478877"><ele>1054.0</ele><time>2026-05-01T17:51:13.887Z</time></trkpt><trkpt lat="46.547586" lon="12.4788944"><ele>1054.0</ele><time>2026-05-01T17:51:14.884Z</time></trkpt><trkpt lat="46.5474806" lon="12.478921"><ele>1054.0</ele><time>2026-05-01T17:51:15.893Z</time></trkpt><trkpt lat="46.5473781" lon="12.4790246"><ele>1053.0</ele><time>2026-05-01T17:51:16.879Z</time></trkpt><trkpt lat="46.5472873" lon="12.4791872"><ele>1052.0</ele><time>2026-05-01T17:51:17.882Z</time></trkpt><trkpt lat="46.5471896" lon="12.4793403"><ele>1051.0</ele><time>2026-05-01T17:51:18.878Z</time></trkpt><trkpt lat="46.547102" lon="12.4795006"><ele>1050.0</ele><time>2026-05-01T17:51:19.884Z</time></trkpt><trkpt lat="46.5470149" lon="12.4796422"><ele>1044.5</ele><time>2026-05-01T17:51:20.882Z</time></trkpt><trkpt lat="46.5469284" lon="12.4797797"><ele>1039.0</ele><time>2026-05-01T17:51:21.885Z</time></trkpt><trkpt lat="46.5468514" lon="12.4799114"><ele>1033.5</ele><time>2026-05-01T17:51:22.885Z</time></trkpt><trkpt lat="46.5467833" lon="12.4800395"><ele>1028.0</ele><time>2026-05-01T17:51:23.878Z</time></trkpt><trkpt lat="46.5467389" lon="12.4801853"><ele>1028.0</ele><time>2026-05-01T17:51:24.876Z</time></trkpt><trkpt lat="46.5467236" lon="12.4803419"><ele>1028.0</ele><time>2026-05-01T17:51:25.882Z</time></trkpt><trkpt lat="46.5467121" lon="12.4804972"><ele>1028.0</ele><time>2026-05-01T17:51:26.886Z</time></trkpt><trkpt lat="46.5466982" lon="12.4806379"><ele>1028.0</ele><time>2026-05-01T17:51:27.877Z</time></trkpt><trkpt lat="46.5466422" lon="12.4807661"><ele>1028.0</ele><time>2026-05-01T17:51:28.876Z</time></trkpt><trkpt lat="46.5465711" lon="12.4808442"><ele>1028.3333333333335</ele><time>2026-05-01T17:51:29.888Z</time></trkpt><trkpt lat="46.5464995" lon="12.4808963"><ele>1028.6666666666667</ele><time>2026-05-01T17:51:30.88Z</time></trkpt><trkpt lat="46.5464133" lon="12.4809178"><ele>1029.0</ele><time>2026-05-01T17:51:31.882Z</time></trkpt><trkpt lat="46.5463397" lon="12.4809085"><ele>1029.3333333333333</ele><time>2026-05-01T17:51:32.887Z</time></trkpt><trkpt lat="46.5462939" lon="12.4808365"><ele>1029.6666666666665</ele><time>2026-05-01T17:51:33.878Z</time></trkpt><trkpt lat="46.5462664" lon="12.4807504"><ele>1030.0</ele><time>2026-05-01T17:51:34.879Z</time></trkpt><trkpt lat="46.5462566" lon="12.4806331"><ele>1030.0</ele><time>2026-05-01T17:51:35.89Z</time></trkpt><trkpt lat="46.5462534" lon="12.4804656"><ele>1030.0</ele><time>2026-05-01T17:51:36.884Z</time></trkpt><trkpt lat="46.5462699" lon="12.4802718"><ele>1030.0</ele><time>2026-05-01T17:51:37.886Z</time></trkpt><trkpt lat="46.5462836" lon="12.480073"><ele>1030.0</ele><time>2026-05-01T17:51:38.886Z</time></trkpt><trkpt lat="46.5462852" lon="12.4798882"><ele>1029.5</ele><time>2026-05-01T17:51:39.883Z</time></trkpt><trkpt lat="46.5462939" lon="12.4797"><ele>1029.0</ele><time>2026-05-01T17:51:40.882Z</time></trkpt><trkpt lat="46.5462896" lon="12.4795219"><ele>1028.5</ele><time>2026-05-01T17:51:41.882Z</time></trkpt><trkpt lat="46.546275" lon="12.479351"><ele>1028.0</ele><time>2026-05-01T17:51:42.881Z</time></trkpt><trkpt lat="46.5462333" lon="12.4791763"><ele>1026.0</ele><time>2026-05-01T17:51:43.879Z</time></trkpt><trkpt lat="46.5461645" lon="12.4790134"><ele>1024.0</ele><time>2026-05-01T17:51:44.878Z</time></trkpt><trkpt lat="46.5460849" lon="12.4788661"><ele>1022.0</ele><time>2026-05-01T17:51:45.895Z</time></trkpt><trkpt lat="46.5459883" lon="12.4787321"><ele>1020.0</ele><time>2026-05-01T17:51:46.885Z</time></trkpt><trkpt lat="46.5458895" lon="12.4785995"><ele>1020.0</ele><time>2026-05-01T17:51:47.884Z</time></trkpt><trkpt lat="46.5457945" lon="12.4784542"><ele>1020.0</ele><time>2026-05-01T17:51:48.896Z</time></trkpt><trkpt lat="46.5457011" lon="12.4783069"><ele>1020.0</ele><time>2026-05-01T17:51:49.881Z</time></trkpt><trkpt lat="46.5456017" lon="12.478199"><ele>1020.0</ele><time>2026-05-01T17:51:50.899Z</time></trkpt><trkpt lat="46.5455032" lon="12.478115"><ele>1020.0</ele><time>2026-05-01T17:51:51.883Z</time></trkpt><trkpt lat="46.5454094" lon="12.4780448"><ele>1020.0</ele><time>2026-05-01T17:51:52.882Z</time></trkpt><trkpt lat="46.5453415" lon="12.4779908"><ele>1020.0</ele><time>2026-05-01T17:51:53.879Z</time></trkpt><trkpt lat="46.5452709" lon="12.4779573"><ele>1020.0</ele><time>2026-05-01T17:51:54.883Z</time></trkpt><trkpt lat="46.5451713" lon="12.4779771"><ele>1020.0</ele><time>2026-05-01T17:51:56.881Z</time></trkpt><trkpt lat="46.5451519" lon="12.4781716"><ele>1015.4</ele><time>2026-05-01T17:51:58.882Z</time></trkpt><trkpt lat="46.5451829" lon="12.478294"><ele>1010.8</ele><time>2026-05-01T17:51:59.879Z</time></trkpt><trkpt lat="46.5452256" lon="12.4784179"><ele>1006.2</ele><time>2026-05-01T17:52:00.878Z</time></trkpt><trkpt lat="46.5452388" lon="12.4785216"><ele>1001.6</ele><time>2026-05-01T17:52:01.878Z</time></trkpt><trkpt lat="46.5451726" lon="12.478673"><ele>997.0</ele><time>2026-05-01T17:52:03.881Z</time></trkpt><trkpt lat="46.5451018" lon="12.4786815"><ele>997.0</ele><time>2026-05-01T17:52:04.885Z</time></trkpt><trkpt lat="46.5450058" lon="12.478664"><ele>997.0</ele><time>2026-05-01T17:52:05.884Z</time></trkpt><trkpt lat="46.544907" lon="12.4786183"><ele>997.0</ele><time>2026-05-01T17:52:06.878Z</time></trkpt><trkpt lat="46.5447915" lon="12.4785462"><ele>997.0</ele><time>2026-05-01T17:52:07.877Z</time></trkpt><trkpt lat="46.5446786" lon="12.478462"><ele>997.0</ele><time>2026-05-01T17:52:08.89Z</time></trkpt><trkpt lat="46.5445797" lon="12.4783558"><ele>997.0</ele><time>2026-05-01T17:52:09.889Z</time></trkpt><trkpt lat="46.5444957" lon="12.478234"><ele>997.0</ele><time>2026-05-01T17:52:10.883Z</time></trkpt><trkpt lat="46.5444157" lon="12.4780957"><ele>997.0</ele><time>2026-05-01T17:52:11.884Z</time></trkpt><trkpt lat="46.5443576" lon="12.4779435"><ele>993.5</ele><time>2026-05-01T17:52:12.881Z</time></trkpt><trkpt lat="46.5443194" lon="12.4777514"><ele>990.0</ele><time>2026-05-01T17:52:13.883Z</time></trkpt><trkpt lat="46.5442754" lon="12.4775496"><ele>986.5</ele><time>2026-05-01T17:52:14.881Z</time></trkpt><trkpt lat="46.5442181" lon="12.4773762"><ele>983.0</ele><time>2026-05-01T17:52:15.884Z</time></trkpt><trkpt lat="46.5441461" lon="12.4772256"><ele>983.0</ele><time>2026-05-01T17:52:16.888Z</time></trkpt><trkpt lat="46.5440516" lon="12.4771089"><ele>983.0</ele><time>2026-05-01T17:52:17.879Z</time></trkpt><trkpt lat="46.5439394" lon="12.4770102"><ele>983.0</ele><time>2026-05-01T17:52:18.882Z</time></trkpt><trkpt lat="46.5438169" lon="12.4769242"><ele>983.0</ele><time>2026-05-01T17:52:19.884Z</time></trkpt><trkpt lat="46.5437125" lon="12.4768513"><ele>979.4</ele><time>2026-05-01T17:52:20.88Z</time></trkpt><trkpt lat="46.5436161" lon="12.4767876"><ele>975.8</ele><time>2026-05-01T17:52:21.895Z</time></trkpt><trkpt lat="46.5435228" lon="12.476735"><ele>972.2</ele><time>2026-05-01T17:52:22.88Z</time></trkpt><trkpt lat="46.5434474" lon="12.4766778"><ele>968.6</ele><time>2026-05-01T17:52:23.883Z</time></trkpt><trkpt lat="46.5433975" lon="12.4765702"><ele>965.0</ele><time>2026-05-01T17:52:24.881Z</time></trkpt><trkpt lat="46.54339" lon="12.4763962"><ele>963.0</ele><time>2026-05-01T17:52:25.875Z</time></trkpt><trkpt lat="46.5433988" lon="12.4761989"><ele>961.0</ele><time>2026-05-01T17:52:26.897Z</time></trkpt><trkpt lat="46.5434192" lon="12.475992"><ele>959.0</ele><time>2026-05-01T17:52:27.887Z</time></trkpt><trkpt lat="46.5434485" lon="12.4757662"><ele>957.0</ele><time>2026-05-01T17:52:28.881Z</time></trkpt><trkpt lat="46.5434447" lon="12.4755386"><ele>955.6666666666667</ele><time>2026-05-01T17:52:29.877Z</time></trkpt><trkpt lat="46.543408" lon="12.4753"><ele>954.3333333333334</ele><time>2026-05-01T17:52:30.879Z</time></trkpt><trkpt lat="46.5433607" lon="12.4750524"><ele>953.0</ele><time>2026-05-01T17:52:31.883Z</time></trkpt><trkpt lat="46.5433008" lon="12.4748131"><ele>953.0</ele><time>2026-05-01T17:52:32.884Z</time></trkpt><trkpt lat="46.5432362" lon="12.474593"><ele>953.0</ele><time>2026-05-01T17:52:33.888Z</time></trkpt><trkpt lat="46.5431684" lon="12.4743725"><ele>953.0</ele><time>2026-05-01T17:52:34.883Z</time></trkpt><trkpt lat="46.5431055" lon="12.4741646"><ele>953.0</ele><time>2026-05-01T17:52:35.878Z</time></trkpt><trkpt lat="46.5430554" lon="12.473955"><ele>953.0</ele><time>2026-05-01T17:52:36.878Z</time></trkpt><trkpt lat="46.5430223" lon="12.4737217"><ele>953.0</ele><time>2026-05-01T17:52:37.884Z</time></trkpt><trkpt lat="46.5430062" lon="12.4734645"><ele>954.6666666666667</ele><time>2026-05-01T17:52:38.894Z</time></trkpt><trkpt lat="46.5429995" lon="12.4731967"><ele>956.3333333333333</ele><time>2026-05-01T17:52:39.877Z</time></trkpt><trkpt lat="46.5429939" lon="12.4729306"><ele>958.0</ele><time>2026-05-01T17:52:40.879Z</time></trkpt><trkpt lat="46.5429809" lon="12.4726625"><ele>958.0</ele><time>2026-05-01T17:52:41.885Z</time></trkpt><trkpt lat="46.5429605" lon="12.4724029"><ele>958.0</ele><time>2026-05-01T17:52:42.891Z</time></trkpt><trkpt lat="46.5429484" lon="12.4721579"><ele>958.0</ele><time>2026-05-01T17:52:43.885Z</time></trkpt><trkpt lat="46.5429428" lon="12.4719338"><ele>954.5</ele><time>2026-05-01T17:52:44.887Z</time></trkpt><trkpt lat="46.5429422" lon="12.4717354"><ele>951.0</ele><time>2026-05-01T17:52:45.882Z</time></trkpt><trkpt lat="46.5429524" lon="12.4715458"><ele>947.5</ele><time>2026-05-01T17:52:46.883Z</time></trkpt><trkpt lat="46.5429936" lon="12.4713527"><ele>944.0</ele><time>2026-05-01T17:52:47.886Z</time></trkpt><trkpt lat="46.543043" lon="12.4711582"><ele>941.75</ele><time>2026-05-01T17:52:48.886Z</time></trkpt><trkpt lat="46.5430816" lon="12.4709664"><ele>939.5</ele><time>2026-05-01T17:52:49.884Z</time></trkpt><trkpt lat="46.5430994" lon="12.4707764"><ele>937.25</ele><time>2026-05-01T17:52:50.884Z</time></trkpt><trkpt lat="46.543111" lon="12.4705908"><ele>935.0</ele><time>2026-05-01T17:52:51.877Z</time></trkpt><trkpt lat="46.5431179" lon="12.470429"><ele>933.8</ele><time>2026-05-01T17:52:52.878Z</time></trkpt><trkpt lat="46.5431234" lon="12.4702847"><ele>932.6</ele><time>2026-05-01T17:52:53.885Z</time></trkpt><trkpt lat="46.5430968" lon="12.4701423"><ele>931.4000000000001</ele><time>2026-05-01T17:52:54.884Z</time></trkpt><trkpt lat="46.5430461" lon="12.4700293"><ele>930.2</ele><time>2026-05-01T17:52:55.885Z</time></trkpt><trkpt lat="46.5429852" lon="12.4699448"><ele>929.0</ele><time>2026-05-01T17:52:56.884Z</time></trkpt><trkpt lat="46.5429309" lon="12.4698756"><ele>921.8000000000001</ele><time>2026-05-01T17:52:57.881Z</time></trkpt><trkpt lat="46.5428443" lon="12.4698146"><ele>914.6000000000001</ele><time>2026-05-01T17:52:59.887Z</time></trkpt><trkpt lat="46.5427689" lon="12.4699522"><ele>907.4</ele><time>2026-05-01T17:53:01.885Z</time></trkpt><trkpt lat="46.5427689" lon="12.4700643"><ele>900.2</ele><time>2026-05-01T17:53:02.879Z</time></trkpt><trkpt lat="46.5427771" lon="12.4702096"><ele>893.0</ele><time>2026-05-01T17:53:03.88Z</time></trkpt><trkpt lat="46.5427788" lon="12.4703546"><ele>893.5999999999999</ele><time>2026-05-01T17:53:04.89Z</time></trkpt><trkpt lat="46.542781" lon="12.4704923"><ele>894.1999999999999</ele><time>2026-05-01T17:53:05.884Z</time></trkpt><trkpt lat="46.5427882" lon="12.4705927"><ele>894.8</ele><time>2026-05-01T17:53:06.877Z</time></trkpt><trkpt lat="46.5427631" lon="12.4706996"><ele>895.4</ele><time>2026-05-01T17:53:08.883Z</time></trkpt><trkpt lat="46.542682" lon="12.4706675"><ele>896.0</ele><time>2026-05-01T17:53:10.886Z</time></trkpt><trkpt lat="46.5426198" lon="12.4704748"><ele>895.25</ele><time>2026-05-01T17:53:12.879Z</time></trkpt><trkpt lat="46.542582" lon="12.4703225"><ele>894.5</ele><time>2026-05-01T17:53:13.888Z</time></trkpt><trkpt lat="46.5425242" lon="12.4701403"><ele>893.75</ele><time>2026-05-01T17:53:14.878Z</time></trkpt><trkpt lat="46.5424489" lon="12.469961"><ele>893.0</ele><time>2026-05-01T17:53:15.885Z</time></trkpt><trkpt lat="46.5423662" lon="12.4697541"><ele>896.3333333333334</ele><time>2026-05-01T17:53:16.881Z</time></trkpt><trkpt lat="46.5422857" lon="12.4695395"><ele>899.6666666666667</ele><time>2026-05-01T17:53:17.883Z</time></trkpt><trkpt lat="46.542206" lon="12.4693157"><ele>903.0</ele><time>2026-05-01T17:53:18.883Z</time></trkpt><trkpt lat="46.5421308" lon="12.4690737"><ele>903.0</ele><time>2026-05-01T17:53:19.882Z</time></trkpt><trkpt lat="46.5420669" lon="12.4688231"><ele>903.0</ele><time>2026-05-01T17:53:20.889Z</time></trkpt><trkpt lat="46.5420117" lon="12.4685834"><ele>903.0</ele><time>2026-05-01T17:53:21.884Z</time></trkpt><trkpt lat="46.5419602" lon="12.4683473"><ele>896.0</ele><time>2026-05-01T17:53:22.881Z</time></trkpt><trkpt lat="46.5419229" lon="12.4681137"><ele>889.0</ele><time>2026-05-01T17:53:23.888Z</time></trkpt><trkpt lat="46.5418908" lon="12.4678612"><ele>882.0</ele><time>2026-05-01T17:53:24.878Z</time></trkpt><trkpt lat="46.5418569" lon="12.4676029"><ele>877.6666666666667</ele><time>2026-05-01T17:53:25.893Z</time></trkpt><trkpt lat="46.541828" lon="12.4673441"><ele>873.3333333333334</ele><time>2026-05-01T17:53:26.877Z</time></trkpt><trkpt lat="46.5417878" lon="12.4670785"><ele>869.0</ele><time>2026-05-01T17:53:27.884Z</time></trkpt><trkpt lat="46.5417484" lon="12.4668141"><ele>868.3333333333334</ele><time>2026-05-01T17:53:28.88Z</time></trkpt><trkpt lat="46.5417057" lon="12.4665576"><ele>867.6666666666667</ele><time>2026-05-01T17:53:29.883Z</time></trkpt><trkpt lat="46.5416516" lon="12.4663148"><ele>867.0</ele><time>2026-05-01T17:53:30.88Z</time></trkpt><trkpt lat="46.5415981" lon="12.4660871"><ele>866.0</ele><time>2026-05-01T17:53:31.88Z</time></trkpt><trkpt lat="46.5415557" lon="12.4658586"><ele>865.0</ele><time>2026-05-01T17:53:32.893Z</time></trkpt><trkpt lat="46.5415339" lon="12.4656205"><ele>864.0</ele><time>2026-05-01T17:53:33.883Z</time></trkpt><trkpt lat="46.541528" lon="12.4653746"><ele>864.0</ele><time>2026-05-01T17:53:34.878Z</time></trkpt><trkpt lat="46.5415244" lon="12.4651375"><ele>864.0</ele><time>2026-05-01T17:53:35.88Z</time></trkpt><trkpt lat="46.5415244" lon="12.4649074"><ele>864.0</ele><time>2026-05-01T17:53:36.88Z</time></trkpt><trkpt lat="46.5415192" lon="12.4647026"><ele>862.0</ele><time>2026-05-01T17:53:37.898Z</time></trkpt><trkpt lat="46.5415186" lon="12.4645219"><ele>860.0000000000001</ele><time>2026-05-01T17:53:38.883Z</time></trkpt><trkpt lat="46.541526" lon="12.4643704"><ele>858.0000000000001</ele><time>2026-05-01T17:53:39.883Z</time></trkpt><trkpt lat="46.54155" lon="12.4642455"><ele>856.0</ele><time>2026-05-01T17:53:40.88Z</time></trkpt><trkpt lat="46.5415921" lon="12.46414"><ele>854.0</ele><time>2026-05-01T17:53:41.889Z</time></trkpt><trkpt lat="46.5416568" lon="12.4640581"><ele>854.0</ele><time>2026-05-01T17:53:42.889Z</time></trkpt><trkpt lat="46.5417555" lon="12.4639831"><ele>854.0</ele><time>2026-05-01T17:53:43.89Z</time></trkpt><trkpt lat="46.5418628" lon="12.4639303"><ele>854.0</ele><time>2026-05-01T17:53:44.887Z</time></trkpt><trkpt lat="46.5419758" lon="12.4638547"><ele>854.0</ele><time>2026-05-01T17:53:45.88Z</time></trkpt><trkpt lat="46.5420828" lon="12.4637636"><ele>854.75</ele><time>2026-05-01T17:53:46.886Z</time></trkpt><trkpt lat="46.5421695" lon="12.4636496"><ele>855.5</ele><time>2026-05-01T17:53:47.888Z</time></trkpt><trkpt lat="46.5422346" lon="12.4635138"><ele>856.25</ele><time>2026-05-01T17:53:48.886Z</time></trkpt><trkpt lat="46.5422858" lon="12.4633499"><ele>857.0</ele><time>2026-05-01T17:53:49.878Z</time></trkpt><trkpt lat="46.5423227" lon="12.4631414"><ele>855.5</ele><time>2026-05-01T17:53:50.889Z</time></trkpt><trkpt lat="46.5423448" lon="12.462918"><ele>854.0</ele><time>2026-05-01T17:53:51.887Z</time></trkpt><trkpt lat="46.5423645" lon="12.4627042"><ele>852.5</ele><time>2026-05-01T17:53:52.883Z</time></trkpt><trkpt lat="46.5423781" lon="12.4625118"><ele>851.0</ele><time>2026-05-01T17:53:53.883Z</time></trkpt><trkpt lat="46.5423903" lon="12.4623514"><ele>851.0</ele><time>2026-05-01T17:53:54.892Z</time></trkpt><trkpt lat="46.5424266" lon="12.462196"><ele>851.0</ele><time>2026-05-01T17:53:55.88Z</time></trkpt><trkpt lat="46.5424696" lon="12.4620254"><ele>851.0</ele><time>2026-05-01T17:53:56.879Z</time></trkpt><trkpt lat="46.542526" lon="12.461843"><ele>851.0</ele><time>2026-05-01T17:53:57.879Z</time></trkpt><trkpt lat="46.5425749" lon="12.4616575"><ele>849.75</ele><time>2026-05-01T17:53:58.885Z</time></trkpt><trkpt lat="46.5426333" lon="12.4614848"><ele>848.5</ele><time>2026-05-01T17:53:59.882Z</time></trkpt><trkpt lat="46.5426959" lon="12.4613332"><ele>847.25</ele><time>2026-05-01T17:54:00.875Z</time></trkpt><trkpt lat="46.5427775" lon="12.4611933"><ele>846.0</ele><time>2026-05-01T17:54:01.878Z</time></trkpt><trkpt lat="46.542859" lon="12.4610614"><ele>846.4</ele><time>2026-05-01T17:54:02.879Z</time></trkpt><trkpt lat="46.5429425" lon="12.4609465"><ele>846.8</ele><time>2026-05-01T17:54:03.884Z</time></trkpt><trkpt lat="46.5430231" lon="12.4608569"><ele>847.1999999999999</ele><time>2026-05-01T17:54:04.897Z</time></trkpt><trkpt lat="46.5430976" lon="12.4607901"><ele>847.5999999999999</ele><time>2026-05-01T17:54:05.885Z</time></trkpt><trkpt lat="46.5431849" lon="12.4607541"><ele>848.0</ele><time>2026-05-01T17:54:06.885Z</time></trkpt><trkpt lat="46.5432949" lon="12.4607331"><ele>848.0</ele><time>2026-05-01T17:54:07.888Z</time></trkpt><trkpt lat="46.5433987" lon="12.4607189"><ele>848.0</ele><time>2026-05-01T17:54:08.88Z</time></trkpt><trkpt lat="46.5434949" lon="12.4606716"><ele>848.0</ele><time>2026-05-01T17:54:09.89Z</time></trkpt><trkpt lat="46.5435951" lon="12.4605783"><ele>848.0</ele><time>2026-05-01T17:54:10.893Z</time></trkpt><trkpt lat="46.5436728" lon="12.4604582"><ele>848.0</ele><time>2026-05-01T17:54:11.879Z</time></trkpt><trkpt lat="46.5437431" lon="12.4603048"><ele>849.25</ele><time>2026-05-01T17:54:12.875Z</time></trkpt><trkpt lat="46.5438111" lon="12.4601705"><ele>850.5</ele><time>2026-05-01T17:54:13.882Z</time></trkpt><trkpt lat="46.5438864" lon="12.4600498"><ele>851.75</ele><time>2026-05-01T17:54:14.885Z</time></trkpt><trkpt lat="46.543989" lon="12.4599297"><ele>853.0</ele><time>2026-05-01T17:54:15.889Z</time></trkpt><trkpt lat="46.5441124" lon="12.4598136"><ele>853.0</ele><time>2026-05-01T17:54:16.883Z</time></trkpt><trkpt lat="46.5442342" lon="12.4596864"><ele>853.0</ele><time>2026-05-01T17:54:17.886Z</time></trkpt><trkpt lat="46.5443512" lon="12.4595347"><ele>853.0</ele><time>2026-05-01T17:54:18.888Z</time></trkpt><trkpt lat="46.5444593" lon="12.4593871"><ele>851.75</ele><time>2026-05-01T17:54:19.883Z</time></trkpt><trkpt lat="46.5445695" lon="12.4592462"><ele>850.5</ele><time>2026-05-01T17:54:20.889Z</time></trkpt><trkpt lat="46.5446729" lon="12.4591096"><ele>849.25</ele><time>2026-05-01T17:54:21.882Z</time></trkpt><trkpt lat="46.5447714" lon="12.4589871"><ele>848.0</ele><time>2026-05-01T17:54:22.886Z</time></trkpt><trkpt lat="46.5448623" lon="12.4588654"><ele>847.5999999999999</ele><time>2026-05-01T17:54:23.883Z</time></trkpt><trkpt lat="46.5449502" lon="12.4587595"><ele>847.1999999999999</ele><time>2026-05-01T17:54:24.883Z</time></trkpt><trkpt lat="46.5450304" lon="12.4586567"><ele>846.8</ele><time>2026-05-01T17:54:25.888Z</time></trkpt><trkpt lat="46.5451037" lon="12.4585558"><ele>846.4</ele><time>2026-05-01T17:54:26.88Z</time></trkpt><trkpt lat="46.545168" lon="12.458457"><ele>846.0</ele><time>2026-05-01T17:54:27.879Z</time></trkpt><trkpt lat="46.5452133" lon="12.4583585"><ele>846.0</ele><time>2026-05-01T17:54:28.883Z</time></trkpt><trkpt lat="46.5452468" lon="12.4582566"><ele>846.0</ele><time>2026-05-01T17:54:29.883Z</time></trkpt><trkpt lat="46.5452707" lon="12.4581659"><ele>846.0</ele><time>2026-05-01T17:54:30.876Z</time></trkpt><trkpt lat="46.5453088" lon="12.4579809"><ele>846.0</ele><time>2026-05-01T17:54:32.884Z</time></trkpt><trkpt lat="46.5453255" lon="12.4578592"><ele>846.0</ele><time>2026-05-01T17:54:33.883Z</time></trkpt><trkpt lat="46.5453611" lon="12.4576893"><ele>847.75</ele><time>2026-05-01T17:54:34.882Z</time></trkpt><trkpt lat="46.5454034" lon="12.4575118"><ele>849.5</ele><time>2026-05-01T17:54:35.886Z</time></trkpt><trkpt lat="46.5454375" lon="12.457345"><ele>851.25</ele><time>2026-05-01T17:54:36.883Z</time></trkpt><trkpt lat="46.5454719" lon="12.4571759"><ele>853.0</ele><time>2026-05-01T17:54:37.885Z</time></trkpt><trkpt lat="46.5455081" lon="12.4570058"><ele>853.0</ele><time>2026-05-01T17:54:38.882Z</time></trkpt><trkpt lat="46.5455481" lon="12.4568293"><ele>853.0</ele><time>2026-05-01T17:54:39.886Z</time></trkpt><trkpt lat="46.5455962" lon="12.456648"><ele>853.0</ele><time>2026-05-01T17:54:40.886Z</time></trkpt><trkpt lat="46.5456581" lon="12.4564505"><ele>853.0</ele><time>2026-05-01T17:54:41.886Z</time></trkpt><trkpt lat="46.5457333" lon="12.4562483"><ele>852.3333333333333</ele><time>2026-05-01T17:54:42.882Z</time></trkpt><trkpt lat="46.545824" lon="12.4560499"><ele>851.6666666666667</ele><time>2026-05-01T17:54:43.884Z</time></trkpt><trkpt lat="46.5459267" lon="12.4558589"><ele>851.0</ele><time>2026-05-01T17:54:44.881Z</time></trkpt><trkpt lat="46.5460453" lon="12.4556605"><ele>851.0</ele><time>2026-05-01T17:54:45.891Z</time></trkpt><trkpt lat="46.546168" lon="12.4554619"><ele>851.0</ele><time>2026-05-01T17:54:46.881Z</time></trkpt><trkpt lat="46.5462793" lon="12.4552636"><ele>851.0</ele><time>2026-05-01T17:54:47.888Z</time></trkpt><trkpt lat="46.5463846" lon="12.4550676"><ele>852.3333333333334</ele><time>2026-05-01T17:54:48.885Z</time></trkpt><trkpt lat="46.5464865" lon="12.4548754"><ele>853.6666666666667</ele><time>2026-05-01T17:54:49.881Z</time></trkpt><trkpt lat="46.5465777" lon="12.4546842"><ele>855.0</ele><time>2026-05-01T17:54:50.884Z</time></trkpt><trkpt lat="46.5466636" lon="12.4544849"><ele>855.0</ele><time>2026-05-01T17:54:51.886Z</time></trkpt><trkpt lat="46.5467439" lon="12.45429"><ele>855.0</ele><time>2026-05-01T17:54:52.889Z</time></trkpt><trkpt lat="46.5468215" lon="12.4540916"><ele>855.0</ele><time>2026-05-01T17:54:53.889Z</time></trkpt><trkpt lat="46.5468957" lon="12.453882"><ele>854.3333333333333</ele><time>2026-05-01T17:54:54.883Z</time></trkpt><trkpt lat="46.5469749" lon="12.4536613"><ele>853.6666666666666</ele><time>2026-05-01T17:54:55.883Z</time></trkpt><trkpt lat="46.5470286" lon="12.4534659"><ele>853.0</ele><time>2026-05-01T17:54:56.886Z</time></trkpt><trkpt lat="46.5470819" lon="12.4532642"><ele>853.0</ele><time>2026-05-01T17:54:57.885Z</time></trkpt><trkpt lat="46.5471561" lon="12.4530685"><ele>853.0</ele><time>2026-05-01T17:54:58.889Z</time></trkpt><trkpt lat="46.5472439" lon="12.4528682"><ele>853.0</ele><time>2026-05-01T17:54:59.888Z</time></trkpt><trkpt lat="46.5473561" lon="12.4526826"><ele>853.0</ele><time>2026-05-01T17:55:00.885Z</time></trkpt><trkpt lat="46.5474826" lon="12.4524962"><ele>853.0</ele><time>2026-05-01T17:55:01.894Z</time></trkpt><trkpt lat="46.5475947" lon="12.4523185"><ele>853.0</ele><time>2026-05-01T17:55:02.892Z</time></trkpt><trkpt lat="46.5477026" lon="12.4521567"><ele>852.25</ele><time>2026-05-01T17:55:03.886Z</time></trkpt><trkpt lat="46.5477978" lon="12.4520057"><ele>851.5</ele><time>2026-05-01T17:55:04.882Z</time></trkpt><trkpt lat="46.5478871" lon="12.4518467"><ele>850.75</ele><time>2026-05-01T17:55:05.887Z</time></trkpt><trkpt lat="46.5479551" lon="12.4516476"><ele>850.0</ele><time>2026-05-01T17:55:06.879Z</time></trkpt><trkpt lat="46.5480072" lon="12.4514106"><ele>853.0</ele><time>2026-05-01T17:55:07.892Z</time></trkpt><trkpt lat="46.5480505" lon="12.4511653"><ele>856.0</ele><time>2026-05-01T17:55:08.884Z</time></trkpt><trkpt lat="46.5480979" lon="12.4509282"><ele>859.0</ele><time>2026-05-01T17:55:09.885Z</time></trkpt><trkpt lat="46.5481612" lon="12.4506821"><ele>857.6666666666666</ele><time>2026-05-01T17:55:10.886Z</time></trkpt><trkpt lat="46.5482306" lon="12.450449"><ele>856.3333333333333</ele><time>2026-05-01T17:55:11.892Z</time></trkpt><trkpt lat="46.5483119" lon="12.4502087"><ele>855.0</ele><time>2026-05-01T17:55:12.889Z</time></trkpt><trkpt lat="46.5484153" lon="12.4499727"><ele>855.0</ele><time>2026-05-01T17:55:13.88Z</time></trkpt><trkpt lat="46.5485232" lon="12.4497455"><ele>855.0</ele><time>2026-05-01T17:55:14.889Z</time></trkpt><trkpt lat="46.5486296" lon="12.4495312"><ele>855.0</ele><time>2026-05-01T17:55:15.886Z</time></trkpt><trkpt lat="46.5487335" lon="12.4493206"><ele>856.3333333333333</ele><time>2026-05-01T17:55:16.885Z</time></trkpt><trkpt lat="46.5488399" lon="12.4491046"><ele>857.6666666666666</ele><time>2026-05-01T17:55:17.89Z</time></trkpt><trkpt lat="46.5489268" lon="12.4488841"><ele>859.0</ele><time>2026-05-01T17:55:18.888Z</time></trkpt><trkpt lat="46.5489979" lon="12.4486398"><ele>859.0</ele><time>2026-05-01T17:55:19.887Z</time></trkpt><trkpt lat="46.5490679" lon="12.4483777"><ele>859.0</ele><time>2026-05-01T17:55:20.884Z</time></trkpt><trkpt lat="46.5491387" lon="12.4481107"><ele>859.0</ele><time>2026-05-01T17:55:21.883Z</time></trkpt><trkpt lat="46.5492104" lon="12.4478461"><ele>858.3333333333333</ele><time>2026-05-01T17:55:22.887Z</time></trkpt><trkpt lat="46.5492791" lon="12.4476038"><ele>857.6666666666667</ele><time>2026-05-01T17:55:23.89Z</time></trkpt><trkpt lat="46.5493371" lon="12.4473757"><ele>857.0</ele><time>2026-05-01T17:55:24.886Z</time></trkpt><trkpt lat="46.5494058" lon="12.4471477"><ele>857.6666666666667</ele><time>2026-05-01T17:55:25.886Z</time></trkpt><trkpt lat="46.5494834" lon="12.4469188"><ele>858.3333333333333</ele><time>2026-05-01T17:55:26.895Z</time></trkpt><trkpt lat="46.5495691" lon="12.4466786"><ele>859.0</ele><time>2026-05-01T17:55:27.882Z</time></trkpt><trkpt lat="46.5496535" lon="12.4464406"><ele>861.3333333333333</ele><time>2026-05-01T17:55:28.88Z</time></trkpt><trkpt lat="46.5497408" lon="12.4461951"><ele>863.6666666666667</ele><time>2026-05-01T17:55:29.884Z</time></trkpt><trkpt lat="46.5498245" lon="12.4459517"><ele>866.0</ele><time>2026-05-01T17:55:30.883Z</time></trkpt><trkpt lat="46.5499105" lon="12.4457193"><ele>866.0</ele><time>2026-05-01T17:55:31.89Z</time></trkpt><trkpt lat="46.5499909" lon="12.4454972"><ele>866.0</ele><time>2026-05-01T17:55:32.882Z</time></trkpt><trkpt lat="46.5500702" lon="12.4452679"><ele>866.0</ele><time>2026-05-01T17:55:33.885Z</time></trkpt><trkpt lat="46.5501596" lon="12.4450546"><ele>866.0</ele><time>2026-05-01T17:55:34.882Z</time></trkpt><trkpt lat="46.5502653" lon="12.4448365"><ele>866.0</ele><time>2026-05-01T17:55:35.882Z</time></trkpt><trkpt lat="46.5503888" lon="12.4446095"><ele>866.0</ele><time>2026-05-01T17:55:36.887Z</time></trkpt><trkpt lat="46.5505217" lon="12.4443925"><ele>866.0</ele><time>2026-05-01T17:55:37.884Z</time></trkpt><trkpt lat="46.5506517" lon="12.4441916"><ele>866.0</ele><time>2026-05-01T17:55:38.895Z</time></trkpt><trkpt lat="46.5507678" lon="12.444012"><ele>866.0</ele><time>2026-05-01T17:55:39.882Z</time></trkpt><trkpt lat="46.5508849" lon="12.4438343"><ele>867.3333333333334</ele><time>2026-05-01T17:55:40.89Z</time></trkpt><trkpt lat="46.5510027" lon="12.4436559"><ele>868.6666666666667</ele><time>2026-05-01T17:55:41.879Z</time></trkpt><trkpt lat="46.5511205" lon="12.4434681"><ele>870.0</ele><time>2026-05-01T17:55:42.884Z</time></trkpt><trkpt lat="46.55122" lon="12.4432806"><ele>870.0</ele><time>2026-05-01T17:55:43.881Z</time></trkpt><trkpt lat="46.5513081" lon="12.4430955"><ele>870.0</ele><time>2026-05-01T17:55:44.888Z</time></trkpt><trkpt lat="46.5513906" lon="12.4429099"><ele>870.0</ele><time>2026-05-01T17:55:45.887Z</time></trkpt><trkpt lat="46.5514719" lon="12.4427117"><ele>868.3333333333333</ele><time>2026-05-01T17:55:46.882Z</time></trkpt><trkpt lat="46.55155" lon="12.4425169"><ele>866.6666666666666</ele><time>2026-05-01T17:55:47.882Z</time></trkpt><trkpt lat="46.5516205" lon="12.4423178"><ele>865.0</ele><time>2026-05-01T17:55:48.882Z</time></trkpt><trkpt lat="46.5517046" lon="12.4421357"><ele>863.0</ele><time>2026-05-01T17:55:49.889Z</time></trkpt><trkpt lat="46.551795" lon="12.4419637"><ele>861.0</ele><time>2026-05-01T17:55:50.881Z</time></trkpt><trkpt lat="46.5518882" lon="12.4417843"><ele>859.0</ele><time>2026-05-01T17:55:51.881Z</time></trkpt><trkpt lat="46.551986" lon="12.4415904"><ele>858.0</ele><time>2026-05-01T17:55:52.881Z</time></trkpt><trkpt lat="46.5520875" lon="12.4413881"><ele>857.0</ele><time>2026-05-01T17:55:53.889Z</time></trkpt><trkpt lat="46.5521838" lon="12.4412076"><ele>856.0</ele><time>2026-05-01T17:55:54.883Z</time></trkpt><trkpt lat="46.5522768" lon="12.4410347"><ele>856.0</ele><time>2026-05-01T17:55:55.893Z</time></trkpt><trkpt lat="46.5523648" lon="12.440871"><ele>856.0</ele><time>2026-05-01T17:55:56.886Z</time></trkpt><trkpt lat="46.5524495" lon="12.4407194"><ele>856.0</ele><time>2026-05-01T17:55:57.884Z</time></trkpt><trkpt lat="46.5525325" lon="12.4405824"><ele>856.0</ele><time>2026-05-01T17:55:58.881Z</time></trkpt><trkpt lat="46.5526063" lon="12.4404539"><ele>856.1666666666666</ele><time>2026-05-01T17:55:59.878Z</time></trkpt><trkpt lat="46.55267" lon="12.4403578"><ele>856.3333333333333</ele><time>2026-05-01T17:56:00.879Z</time></trkpt><trkpt lat="46.552707" lon="12.4402831"><ele>856.5</ele><time>2026-05-01T17:56:01.883Z</time></trkpt><trkpt lat="46.5527283" lon="12.4401966"><ele>856.6666666666667</ele><time>2026-05-01T17:58:31.883Z</time></trkpt><trkpt lat="46.5527429" lon="12.4400391"><ele>856.8333333333334</ele><time>2026-05-01T17:58:33.888Z</time></trkpt><trkpt lat="46.5527544" lon="12.4398849"><ele>857.0</ele><time>2026-05-01T17:58:34.88Z</time></trkpt><trkpt lat="46.552751" lon="12.4396934"><ele>857.5</ele><time>2026-05-01T17:58:35.896Z</time></trkpt><trkpt lat="46.5527318" lon="12.4395019"><ele>858.0</ele><time>2026-05-01T17:58:36.889Z</time></trkpt><trkpt lat="46.5526925" lon="12.4392864"><ele>858.5</ele><time>2026-05-01T17:58:37.879Z</time></trkpt><trkpt lat="46.5526209" lon="12.4390756"><ele>859.0</ele><time>2026-05-01T17:58:38.881Z</time></trkpt><trkpt lat="46.5525359" lon="12.4388714"><ele>860.3333333333333</ele><time>2026-05-01T17:58:39.883Z</time></trkpt><trkpt lat="46.5524569" lon="12.4386729"><ele>861.6666666666667</ele><time>2026-05-01T17:58:40.888Z</time></trkpt><trkpt lat="46.5523833" lon="12.4384949"><ele>863.0</ele><time>2026-05-01T17:58:41.885Z</time></trkpt><trkpt lat="46.5523096" lon="12.4383048"><ele>863.0</ele><time>2026-05-01T17:58:42.882Z</time></trkpt><trkpt lat="46.5522467" lon="12.438113"><ele>863.0</ele><time>2026-05-01T17:58:43.883Z</time></trkpt><trkpt lat="46.5521885" lon="12.4379327"><ele>863.0</ele><time>2026-05-01T17:58:44.882Z</time></trkpt><trkpt lat="46.5521369" lon="12.4377593"><ele>863.0</ele><time>2026-05-01T17:58:45.885Z</time></trkpt><trkpt lat="46.5520985" lon="12.4375896"><ele>863.3333333333334</ele><time>2026-05-01T17:58:46.882Z</time></trkpt><trkpt lat="46.5520664" lon="12.4374043"><ele>863.6666666666667</ele><time>2026-05-01T17:58:47.874Z</time></trkpt><trkpt lat="46.5520664" lon="12.4371743"><ele>864.0</ele><time>2026-05-01T17:58:48.88Z</time></trkpt><trkpt lat="46.5520785" lon="12.4369126"><ele>864.6666666666667</ele><time>2026-05-01T17:58:49.884Z</time></trkpt><trkpt lat="46.5520928" lon="12.4366439"><ele>865.3333333333334</ele><time>2026-05-01T17:58:50.88Z</time></trkpt><trkpt lat="46.5520948" lon="12.4363736"><ele>866.0</ele><time>2026-05-01T17:58:51.888Z</time></trkpt><trkpt lat="46.552093" lon="12.4360955"><ele>867.3333333333334</ele><time>2026-05-01T17:58:52.887Z</time></trkpt><trkpt lat="46.5520843" lon="12.4358045"><ele>868.6666666666667</ele><time>2026-05-01T17:58:53.883Z</time></trkpt><trkpt lat="46.5520768" lon="12.4355241"><ele>870.0</ele><time>2026-05-01T17:58:54.88Z</time></trkpt><trkpt lat="46.5520739" lon="12.435239"><ele>870.0</ele><time>2026-05-01T17:58:55.884Z</time></trkpt><trkpt lat="46.5520834" lon="12.4349489"><ele>870.0</ele><time>2026-05-01T17:58:56.885Z</time></trkpt><trkpt lat="46.5521102" lon="12.4346762"><ele>870.0</ele><time>2026-05-01T17:58:57.885Z</time></trkpt><trkpt lat="46.5521412" lon="12.4344172"><ele>870.0</ele><time>2026-05-01T17:58:58.897Z</time></trkpt><trkpt lat="46.552185" lon="12.4341813"><ele>870.0</ele><time>2026-05-01T17:58:59.883Z</time></trkpt><trkpt lat="46.5522302" lon="12.4339654"><ele>870.0</ele><time>2026-05-01T17:59:00.882Z</time></trkpt><trkpt lat="46.5522795" lon="12.4337584"><ele>869.0</ele><time>2026-05-01T17:59:01.886Z</time></trkpt><trkpt lat="46.552331" lon="12.4335776"><ele>868.0</ele><time>2026-05-01T17:59:02.888Z</time></trkpt><trkpt lat="46.5523827" lon="12.4334012"><ele>867.0</ele><time>2026-05-01T17:59:03.887Z</time></trkpt><trkpt lat="46.5524416" lon="12.4332343"><ele>866.0</ele><time>2026-05-01T17:59:04.893Z</time></trkpt><trkpt lat="46.5525183" lon="12.4330634"><ele>863.0</ele><time>2026-05-01T17:59:05.881Z</time></trkpt><trkpt lat="46.5526251" lon="12.4329059"><ele>860.0</ele><time>2026-05-01T17:59:06.891Z</time></trkpt><trkpt lat="46.5527333" lon="12.4327492"><ele>857.0</ele><time>2026-05-01T17:59:07.881Z</time></trkpt><trkpt lat="46.552851" lon="12.4325941"><ele>859.3333333333334</ele><time>2026-05-01T17:59:08.887Z</time></trkpt><trkpt lat="46.552987" lon="12.43244"><ele>861.6666666666667</ele><time>2026-05-01T17:59:09.886Z</time></trkpt><trkpt lat="46.553126" lon="12.4322723"><ele>864.0</ele><time>2026-05-01T17:59:10.882Z</time></trkpt><trkpt lat="46.5532426" lon="12.4320845"><ele>864.0</ele><time>2026-05-01T17:59:11.887Z</time></trkpt><trkpt lat="46.5533489" lon="12.4318787"><ele>864.0</ele><time>2026-05-01T17:59:12.883Z</time></trkpt><trkpt lat="46.5534332" lon="12.4316653"><ele>864.0</ele><time>2026-05-01T17:59:13.884Z</time></trkpt><trkpt lat="46.5535156" lon="12.4314458"><ele>863.25</ele><time>2026-05-01T17:59:14.889Z</time></trkpt><trkpt lat="46.5535647" lon="12.4312343"><ele>862.5</ele><time>2026-05-01T17:59:15.881Z</time></trkpt><trkpt lat="46.5536237" lon="12.4310435"><ele>861.75</ele><time>2026-05-01T17:59:16.879Z</time></trkpt><trkpt lat="46.5536878" lon="12.4308736"><ele>861.0</ele><time>2026-05-01T17:59:17.89Z</time></trkpt><trkpt lat="46.5537509" lon="12.430702"><ele>861.75</ele><time>2026-05-01T17:59:18.886Z</time></trkpt><trkpt lat="46.5538104" lon="12.4305546"><ele>862.5</ele><time>2026-05-01T17:59:19.881Z</time></trkpt><trkpt lat="46.5538705" lon="12.4304124"><ele>863.25</ele><time>2026-05-01T17:59:20.88Z</time></trkpt><trkpt lat="46.5539211" lon="12.4302739"><ele>864.0</ele><time>2026-05-01T17:59:21.886Z</time></trkpt><trkpt lat="46.5539758" lon="12.4301327"><ele>864.0</ele><time>2026-05-01T17:59:22.888Z</time></trkpt><trkpt lat="46.5540332" lon="12.4299883"><ele>864.0</ele><time>2026-05-01T17:59:23.889Z</time></trkpt><trkpt lat="46.5541088" lon="12.4298635"><ele>864.0</ele><time>2026-05-01T17:59:24.889Z</time></trkpt><trkpt lat="46.5542007" lon="12.4297591"><ele>864.0</ele><time>2026-05-01T17:59:25.883Z</time></trkpt><trkpt lat="46.5543031" lon="12.4296714"><ele>864.2</ele><time>2026-05-01T17:59:26.889Z</time></trkpt><trkpt lat="46.5544039" lon="12.4295965"><ele>864.4000000000001</ele><time>2026-05-01T17:59:27.884Z</time></trkpt><trkpt lat="46.5544927" lon="12.4295267"><ele>864.6</ele><time>2026-05-01T17:59:28.886Z</time></trkpt><trkpt lat="46.5545851" lon="12.4294415"><ele>864.8</ele><time>2026-05-01T17:59:29.883Z</time></trkpt><trkpt lat="46.5546876" lon="12.4293529"><ele>865.0</ele><time>2026-05-01T17:59:30.885Z</time></trkpt><trkpt lat="46.5547932" lon="12.4292633"><ele>865.0</ele><time>2026-05-01T17:59:31.888Z</time></trkpt><trkpt lat="46.554902" lon="12.4291844"><ele>865.0</ele><time>2026-05-01T17:59:32.885Z</time></trkpt><trkpt lat="46.5550059" lon="12.4291081"><ele>865.0</ele><time>2026-05-01T17:59:33.883Z</time></trkpt><trkpt lat="46.5551178" lon="12.4290262"><ele>865.0</ele><time>2026-05-01T17:59:34.883Z</time></trkpt><trkpt lat="46.5552292" lon="12.4289441"><ele>865.0</ele><time>2026-05-01T17:59:35.882Z</time></trkpt><trkpt lat="46.5553421" lon="12.4288585"><ele>865.0</ele><time>2026-05-01T17:59:36.887Z</time></trkpt><trkpt lat="46.5554562" lon="12.4287735"><ele>865.0</ele><time>2026-05-01T17:59:37.879Z</time></trkpt><trkpt lat="46.5555674" lon="12.4286925"><ele>865.0</ele><time>2026-05-01T17:59:38.887Z</time></trkpt><trkpt lat="46.5556851" lon="12.4286218"><ele>864.3333333333333</ele><time>2026-05-01T17:59:39.887Z</time></trkpt><trkpt lat="46.5558225" lon="12.4285463"><ele>863.6666666666667</ele><time>2026-05-01T17:59:40.882Z</time></trkpt><trkpt lat="46.5559765" lon="12.4284584"><ele>863.0</ele><time>2026-05-01T17:59:41.892Z</time></trkpt><trkpt lat="46.5561434" lon="12.4283809"><ele>863.6666666666667</ele><time>2026-05-01T17:59:42.882Z</time></trkpt><trkpt lat="46.5563152" lon="12.4283151"><ele>864.3333333333333</ele><time>2026-05-01T17:59:43.891Z</time></trkpt><trkpt lat="46.5564792" lon="12.4282508"><ele>865.0</ele><time>2026-05-01T17:59:44.888Z</time></trkpt><trkpt lat="46.5566285" lon="12.4281831"><ele>865.0</ele><time>2026-05-01T17:59:45.888Z</time></trkpt><trkpt lat="46.5567547" lon="12.4281198"><ele>865.0</ele><time>2026-05-01T17:59:46.884Z</time></trkpt><trkpt lat="46.5568706" lon="12.4280617"><ele>865.0</ele><time>2026-05-01T17:59:47.882Z</time></trkpt><trkpt lat="46.5569764" lon="12.4280056"><ele>865.0</ele><time>2026-05-01T17:59:48.893Z</time></trkpt><trkpt lat="46.5570799" lon="12.4279478"><ele>865.4</ele><time>2026-05-01T17:59:49.885Z</time></trkpt><trkpt lat="46.5571677" lon="12.4278977"><ele>865.8</ele><time>2026-05-01T17:59:50.886Z</time></trkpt><trkpt lat="46.5572509" lon="12.4278331"><ele>866.2</ele><time>2026-05-01T17:59:51.889Z</time></trkpt><trkpt lat="46.5573287" lon="12.4277472"><ele>866.6</ele><time>2026-05-01T17:59:52.881Z</time></trkpt><trkpt lat="46.5573934" lon="12.4276483"><ele>867.0</ele><time>2026-05-01T17:59:53.89Z</time></trkpt><trkpt lat="46.5574508" lon="12.4275443"><ele>867.0</ele><time>2026-05-01T17:59:54.885Z</time></trkpt><trkpt lat="46.557496" lon="12.4274168"><ele>867.0</ele><time>2026-05-01T17:59:55.884Z</time></trkpt><trkpt lat="46.5575305" lon="12.4272402"><ele>867.0</ele><time>2026-05-01T17:59:56.88Z</time></trkpt><trkpt lat="46.5575746" lon="12.4270096"><ele>867.0</ele><time>2026-05-01T17:59:57.886Z</time></trkpt><trkpt lat="46.5576335" lon="12.4267696"><ele>867.0</ele><time>2026-05-01T17:59:58.875Z</time></trkpt><trkpt lat="46.557692" lon="12.4265069"><ele>867.0</ele><time>2026-05-01T17:59:59.881Z</time></trkpt><trkpt lat="46.5577534" lon="12.4262321"><ele>867.0</ele><time>2026-05-01T18:00:00.88Z</time></trkpt><trkpt lat="46.5578153" lon="12.4259504"><ele>870.3333333333333</ele><time>2026-05-01T18:00:01.88Z</time></trkpt><trkpt lat="46.5578756" lon="12.4256613"><ele>873.6666666666666</ele><time>2026-05-01T18:00:02.885Z</time></trkpt><trkpt lat="46.5579363" lon="12.425368"><ele>877.0</ele><time>2026-05-01T18:00:03.882Z</time></trkpt><trkpt lat="46.5579918" lon="12.4250852"><ele>877.0</ele><time>2026-05-01T18:00:04.89Z</time></trkpt><trkpt lat="46.5580443" lon="12.4248266"><ele>877.0</ele><time>2026-05-01T18:00:05.887Z</time></trkpt><trkpt lat="46.5580979" lon="12.4245712"><ele>877.0</ele><time>2026-05-01T18:00:06.891Z</time></trkpt><trkpt lat="46.5581432" lon="12.4243345"><ele>875.6666666666666</ele><time>2026-05-01T18:00:07.884Z</time></trkpt><trkpt lat="46.558211" lon="12.4241019"><ele>874.3333333333333</ele><time>2026-05-01T18:00:08.885Z</time></trkpt><trkpt lat="46.558292" lon="12.4238727"><ele>873.0</ele><time>2026-05-01T18:00:09.882Z</time></trkpt><trkpt lat="46.5583986" lon="12.4236478"><ele>874.0</ele><time>2026-05-01T18:00:10.891Z</time></trkpt><trkpt lat="46.5585175" lon="12.4234269"><ele>875.0</ele><time>2026-05-01T18:00:11.884Z</time></trkpt><trkpt lat="46.5586558" lon="12.4231978"><ele>876.0</ele><time>2026-05-01T18:00:12.887Z</time></trkpt><trkpt lat="46.558794" lon="12.4229671"><ele>876.0</ele><time>2026-05-01T18:00:13.886Z</time></trkpt><trkpt lat="46.5589234" lon="12.422745"><ele>876.0</ele><time>2026-05-01T18:00:14.886Z</time></trkpt><trkpt lat="46.5590485" lon="12.4225427"><ele>876.0</ele><time>2026-05-01T18:00:15.889Z</time></trkpt><trkpt lat="46.5591679" lon="12.4223465"><ele>873.0</ele><time>2026-05-01T18:00:16.886Z</time></trkpt><trkpt lat="46.5592848" lon="12.422148"><ele>870.0</ele><time>2026-05-01T18:00:17.882Z</time></trkpt><trkpt lat="46.5594047" lon="12.4219441"><ele>867.0</ele><time>2026-05-01T18:00:18.889Z</time></trkpt><trkpt lat="46.5595286" lon="12.4217504"><ele>868.3333333333333</ele><time>2026-05-01T18:00:19.883Z</time></trkpt><trkpt lat="46.5596659" lon="12.421576"><ele>869.6666666666666</ele><time>2026-05-01T18:00:20.88Z</time></trkpt><trkpt lat="46.5598119" lon="12.4214148"><ele>871.0</ele><time>2026-05-01T18:00:21.887Z</time></trkpt><trkpt lat="46.5599587" lon="12.4212405"><ele>871.0</ele><time>2026-05-01T18:00:22.886Z</time></trkpt><trkpt lat="46.5600896" lon="12.4210503"><ele>871.0</ele><time>2026-05-01T18:00:23.89Z</time></trkpt><trkpt lat="46.5602096" lon="12.4208525"><ele>871.0</ele><time>2026-05-01T18:00:24.886Z</time></trkpt><trkpt lat="46.560315" lon="12.4206383"><ele>872.3333333333333</ele><time>2026-05-01T18:00:25.881Z</time></trkpt><trkpt lat="46.5604117" lon="12.4204223"><ele>873.6666666666667</ele><time>2026-05-01T18:00:26.888Z</time></trkpt><trkpt lat="46.5605063" lon="12.4202194"><ele>875.0</ele><time>2026-05-01T18:00:27.885Z</time></trkpt><trkpt lat="46.5606131" lon="12.4200231"><ele>875.0</ele><time>2026-05-01T18:00:28.883Z</time></trkpt><trkpt lat="46.5607348" lon="12.4198457"><ele>875.0</ele><time>2026-05-01T18:00:29.881Z</time></trkpt><trkpt lat="46.5608767" lon="12.4196753"><ele>875.0</ele><time>2026-05-01T18:00:30.886Z</time></trkpt><trkpt lat="46.5610211" lon="12.4194995"><ele>874.3333333333334</ele><time>2026-05-01T18:00:31.883Z</time></trkpt><trkpt lat="46.5611658" lon="12.4193139"><ele>873.6666666666667</ele><time>2026-05-01T18:00:32.888Z</time></trkpt><trkpt lat="46.561301" lon="12.4191358"><ele>873.0</ele><time>2026-05-01T18:00:33.886Z</time></trkpt><trkpt lat="46.5614283" lon="12.4189603"><ele>872.3333333333333</ele><time>2026-05-01T18:00:34.882Z</time></trkpt><trkpt lat="46.5615551" lon="12.418775"><ele>871.6666666666666</ele><time>2026-05-01T18:00:35.888Z</time></trkpt><trkpt lat="46.561674" lon="12.4185707"><ele>871.0</ele><time>2026-05-01T18:00:36.881Z</time></trkpt><trkpt lat="46.5617809" lon="12.4183487"><ele>871.0</ele><time>2026-05-01T18:00:37.887Z</time></trkpt><trkpt lat="46.5618793" lon="12.4180984"><ele>871.0</ele><time>2026-05-01T18:00:38.886Z</time></trkpt><trkpt lat="46.56197" lon="12.4178365"><ele>871.0</ele><time>2026-05-01T18:00:39.881Z</time></trkpt><trkpt lat="46.5620471" lon="12.417569"><ele>872.0</ele><time>2026-05-01T18:00:40.89Z</time></trkpt><trkpt lat="46.5620991" lon="12.4172943"><ele>873.0</ele><time>2026-05-01T18:00:41.881Z</time></trkpt><trkpt lat="46.5621347" lon="12.4169993"><ele>874.0</ele><time>2026-05-01T18:00:42.881Z</time></trkpt><trkpt lat="46.5621608" lon="12.4167074"><ele>874.0</ele><time>2026-05-01T18:00:43.883Z</time></trkpt><trkpt lat="46.5621976" lon="12.4164087"><ele>874.0</ele><time>2026-05-01T18:00:44.894Z</time></trkpt><trkpt lat="46.5622321" lon="12.4161267"><ele>874.0</ele><time>2026-05-01T18:00:45.885Z</time></trkpt><trkpt lat="46.5622647" lon="12.4158496"><ele>873.6666666666666</ele><time>2026-05-01T18:00:46.879Z</time></trkpt><trkpt lat="46.5622941" lon="12.4156059"><ele>873.3333333333333</ele><time>2026-05-01T18:00:47.883Z</time></trkpt><trkpt lat="46.5623264" lon="12.4153707"><ele>873.0</ele><time>2026-05-01T18:00:48.879Z</time></trkpt><trkpt lat="46.562371" lon="12.4151494"><ele>872.3333333333333</ele><time>2026-05-01T18:00:49.879Z</time></trkpt><trkpt lat="46.5624313" lon="12.414923"><ele>871.6666666666666</ele><time>2026-05-01T18:00:50.877Z</time></trkpt><trkpt lat="46.5625076" lon="12.4146958"><ele>871.0</ele><time>2026-05-01T18:00:51.885Z</time></trkpt><trkpt lat="46.5625948" lon="12.4144746"><ele>871.0</ele><time>2026-05-01T18:00:52.882Z</time></trkpt><trkpt lat="46.5626955" lon="12.4142515"><ele>871.0</ele><time>2026-05-01T18:00:53.89Z</time></trkpt><trkpt lat="46.5627994" lon="12.4140289"><ele>871.0</ele><time>2026-05-01T18:00:54.883Z</time></trkpt><trkpt lat="46.5629128" lon="12.4137843"><ele>872.0</ele><time>2026-05-01T18:00:55.884Z</time></trkpt><trkpt lat="46.5630287" lon="12.4135284"><ele>873.0</ele><time>2026-05-01T18:00:56.884Z</time></trkpt><trkpt lat="46.5631572" lon="12.4132538"><ele>874.0</ele><time>2026-05-01T18:00:57.881Z</time></trkpt><trkpt lat="46.5632872" lon="12.4129749"><ele>874.0</ele><time>2026-05-01T18:00:58.889Z</time></trkpt><trkpt lat="46.563415" lon="12.4126951"><ele>874.0</ele><time>2026-05-01T18:00:59.89Z</time></trkpt><trkpt lat="46.5635413" lon="12.4124121"><ele>874.0</ele><time>2026-05-01T18:01:00.882Z</time></trkpt><trkpt lat="46.5636745" lon="12.412122"><ele>874.0</ele><time>2026-05-01T18:01:01.88Z</time></trkpt><trkpt lat="46.5638105" lon="12.4118288"><ele>876.0</ele><time>2026-05-01T18:01:02.887Z</time></trkpt><trkpt lat="46.5639506" lon="12.4115309"><ele>878.0</ele><time>2026-05-01T18:01:03.883Z</time></trkpt><trkpt lat="46.5640884" lon="12.4112423"><ele>878.5</ele><time>2026-05-01T18:01:04.881Z</time></trkpt><trkpt lat="46.5642163" lon="12.4109677"><ele>879.0</ele><time>2026-05-01T18:01:05.886Z</time></trkpt><trkpt lat="46.5643511" lon="12.4106921"><ele>876.5</ele><time>2026-05-01T18:01:06.883Z</time></trkpt><trkpt lat="46.5644864" lon="12.4104177"><ele>874.0</ele><time>2026-05-01T18:01:07.881Z</time></trkpt><trkpt lat="46.5646253" lon="12.4101481"><ele>878.0</ele><time>2026-05-01T18:01:08.888Z</time></trkpt><trkpt lat="46.5647613" lon="12.4098826"><ele>882.0</ele><time>2026-05-01T18:01:09.889Z</time></trkpt><trkpt lat="46.5648973" lon="12.4096219"><ele>882.0</ele><time>2026-05-01T18:01:10.882Z</time></trkpt><trkpt lat="46.5650319" lon="12.4093688"><ele>882.0</ele><time>2026-05-01T18:01:11.893Z</time></trkpt><trkpt lat="46.5651642" lon="12.4091181"><ele>882.0</ele><time>2026-05-01T18:01:12.877Z</time></trkpt><trkpt lat="46.5652958" lon="12.4088673"><ele>884.6666666666667</ele><time>2026-05-01T18:01:13.888Z</time></trkpt><trkpt lat="46.5654234" lon="12.4086197"><ele>887.3333333333334</ele><time>2026-05-01T18:01:14.883Z</time></trkpt><trkpt lat="46.5655503" lon="12.4083748"><ele>890.0</ele><time>2026-05-01T18:01:15.879Z</time></trkpt><trkpt lat="46.5656766" lon="12.4081375"><ele>888.6666666666667</ele><time>2026-05-01T18:01:16.88Z</time></trkpt><trkpt lat="46.5658041" lon="12.4078954"><ele>887.3333333333333</ele><time>2026-05-01T18:01:17.883Z</time></trkpt><trkpt lat="46.5659274" lon="12.4076584"><ele>886.0</ele><time>2026-05-01T18:01:18.887Z</time></trkpt><trkpt lat="46.5660502" lon="12.4074226"><ele>886.0</ele><time>2026-05-01T18:01:19.881Z</time></trkpt><trkpt lat="46.5661749" lon="12.4071823"><ele>886.0</ele><time>2026-05-01T18:01:20.887Z</time></trkpt><trkpt lat="46.5663013" lon="12.4069364"><ele>886.0</ele><time>2026-05-01T18:01:21.885Z</time></trkpt><trkpt lat="46.5664262" lon="12.4066894"><ele>888.0</ele><time>2026-05-01T18:01:22.883Z</time></trkpt><trkpt lat="46.5665536" lon="12.4064348"><ele>890.0</ele><time>2026-05-01T18:01:23.881Z</time></trkpt><trkpt lat="46.5666822" lon="12.4061741"><ele>892.0</ele><time>2026-05-01T18:01:24.887Z</time></trkpt><trkpt lat="46.5668078" lon="12.4058934"><ele>892.0</ele><time>2026-05-01T18:01:25.889Z</time></trkpt><trkpt lat="46.5669318" lon="12.4055951"><ele>892.0</ele><time>2026-05-01T18:01:26.886Z</time></trkpt><trkpt lat="46.5670564" lon="12.4052951"><ele>896.0</ele><time>2026-05-01T18:01:27.89Z</time></trkpt><trkpt lat="46.5671723" lon="12.4049913"><ele>900.0</ele><time>2026-05-01T18:01:28.892Z</time></trkpt><trkpt lat="46.567293" lon="12.4046942"><ele>898.6666666666667</ele><time>2026-05-01T18:01:29.883Z</time></trkpt><trkpt lat="46.5674002" lon="12.4044258"><ele>897.3333333333334</ele><time>2026-05-01T18:01:30.894Z</time></trkpt><trkpt lat="46.5674974" lon="12.404171"><ele>896.0</ele><time>2026-05-01T18:01:31.879Z</time></trkpt><trkpt lat="46.5675891" lon="12.4039369"><ele>894.3333333333334</ele><time>2026-05-01T18:01:32.89Z</time></trkpt><trkpt lat="46.5676747" lon="12.4037173"><ele>892.6666666666667</ele><time>2026-05-01T18:01:33.883Z</time></trkpt><trkpt lat="46.5677654" lon="12.4035024"><ele>891.0</ele><time>2026-05-01T18:01:34.888Z</time></trkpt><trkpt lat="46.5678525" lon="12.4032841"><ele>894.6666666666667</ele><time>2026-05-01T18:01:35.887Z</time></trkpt><trkpt lat="46.567937" lon="12.403072"><ele>898.3333333333334</ele><time>2026-05-01T18:01:36.882Z</time></trkpt><trkpt lat="46.5680249" lon="12.4028607"><ele>902.0</ele><time>2026-05-01T18:01:37.887Z</time></trkpt><trkpt lat="46.5681092" lon="12.4026404"><ele>902.0</ele><time>2026-05-01T18:01:38.891Z</time></trkpt><trkpt lat="46.5682053" lon="12.4024025"><ele>902.0</ele><time>2026-05-01T18:01:39.884Z</time></trkpt><trkpt lat="46.5682963" lon="12.4021633"><ele>902.0</ele><time>2026-05-01T18:01:40.888Z</time></trkpt><trkpt lat="46.5683899" lon="12.4019263"><ele>902.0</ele><time>2026-05-01T18:01:41.881Z</time></trkpt><trkpt lat="46.5684973" lon="12.4016927"><ele>902.0</ele><time>2026-05-01T18:01:42.881Z</time></trkpt><trkpt lat="46.5686176" lon="12.4014644"><ele>902.0</ele><time>2026-05-01T18:01:43.881Z</time></trkpt><trkpt lat="46.5687495" lon="12.4012479"><ele>902.0</ele><time>2026-05-01T18:01:44.888Z</time></trkpt><trkpt lat="46.5688851" lon="12.4010484"><ele>902.0</ele><time>2026-05-01T18:01:45.888Z</time></trkpt><trkpt lat="46.5690289" lon="12.4008598"><ele>902.0</ele><time>2026-05-01T18:01:46.884Z</time></trkpt><trkpt lat="46.5691829" lon="12.4006861"><ele>902.0</ele><time>2026-05-01T18:01:47.892Z</time></trkpt><trkpt lat="46.5693543" lon="12.4005118"><ele>902.0</ele><time>2026-05-01T18:01:48.88Z</time></trkpt><trkpt lat="46.5695363" lon="12.4003405"><ele>902.0</ele><time>2026-05-01T18:01:49.888Z</time></trkpt><trkpt lat="46.5697176" lon="12.4001716"><ele>902.3333333333334</ele><time>2026-05-01T18:01:50.884Z</time></trkpt><trkpt lat="46.5698987" lon="12.4000016"><ele>902.6666666666667</ele><time>2026-05-01T18:01:51.886Z</time></trkpt><trkpt lat="46.5700647" lon="12.3998398"><ele>903.0</ele><time>2026-05-01T18:01:52.884Z</time></trkpt><trkpt lat="46.5702262" lon="12.3996818"><ele>901.6666666666667</ele><time>2026-05-01T18:01:53.891Z</time></trkpt><trkpt lat="46.5703825" lon="12.399524"><ele>900.3333333333334</ele><time>2026-05-01T18:01:54.889Z</time></trkpt><trkpt lat="46.5705327" lon="12.3993597"><ele>899.0</ele><time>2026-05-01T18:01:55.883Z</time></trkpt><trkpt lat="46.5706817" lon="12.3991715"><ele>899.0</ele><time>2026-05-01T18:01:56.9Z</time></trkpt><trkpt lat="46.5708235" lon="12.3989715"><ele>899.0</ele><time>2026-05-01T18:01:57.88Z</time></trkpt><trkpt lat="46.5709701" lon="12.3987529"><ele>899.0</ele><time>2026-05-01T18:01:58.885Z</time></trkpt><trkpt lat="46.5711164" lon="12.3985358"><ele>898.6666666666667</ele><time>2026-05-01T18:01:59.886Z</time></trkpt><trkpt lat="46.5712681" lon="12.3983122"><ele>898.3333333333333</ele><time>2026-05-01T18:02:00.886Z</time></trkpt><trkpt lat="46.5714265" lon="12.3980776"><ele>898.0</ele><time>2026-05-01T18:02:01.882Z</time></trkpt><trkpt lat="46.5715915" lon="12.3978303"><ele>898.0</ele><time>2026-05-01T18:02:02.885Z</time></trkpt><trkpt lat="46.5717574" lon="12.397576"><ele>898.0</ele><time>2026-05-01T18:02:03.886Z</time></trkpt><trkpt lat="46.5719285" lon="12.3973009"><ele>902.5</ele><time>2026-05-01T18:02:04.879Z</time></trkpt><trkpt lat="46.5720969" lon="12.3970155"><ele>907.0</ele><time>2026-05-01T18:02:05.885Z</time></trkpt><trkpt lat="46.5722577" lon="12.3967104"><ele>907.0</ele><time>2026-05-01T18:02:06.884Z</time></trkpt><trkpt lat="46.5724219" lon="12.3963958"><ele>907.0</ele><time>2026-05-01T18:02:07.889Z</time></trkpt><trkpt lat="46.5725827" lon="12.3960727"><ele>907.5</ele><time>2026-05-01T18:02:08.884Z</time></trkpt><trkpt lat="46.5727493" lon="12.3957532"><ele>908.0</ele><time>2026-05-01T18:02:09.881Z</time></trkpt><trkpt lat="46.5729184" lon="12.3954244"><ele>908.0</ele><time>2026-05-01T18:02:10.886Z</time></trkpt><trkpt lat="46.5730877" lon="12.3950893"><ele>908.0</ele><time>2026-05-01T18:02:11.88Z</time></trkpt><trkpt lat="46.5732562" lon="12.3947516"><ele>905.5</ele><time>2026-05-01T18:02:12.889Z</time></trkpt><trkpt lat="46.5734278" lon="12.3944029"><ele>903.0</ele><time>2026-05-01T18:02:13.876Z</time></trkpt><trkpt lat="46.5736081" lon="12.3940675"><ele>906.0</ele><time>2026-05-01T18:02:14.886Z</time></trkpt><trkpt lat="46.573786" lon="12.3937339"><ele>909.0</ele><time>2026-05-01T18:02:15.887Z</time></trkpt><trkpt lat="46.5739443" lon="12.3934151"><ele>909.0</ele><time>2026-05-01T18:02:16.881Z</time></trkpt><trkpt lat="46.5740885" lon="12.3931292"><ele>909.0</ele><time>2026-05-01T18:02:17.887Z</time></trkpt><trkpt lat="46.5742295" lon="12.3928538"><ele>907.0</ele><time>2026-05-01T18:02:18.885Z</time></trkpt><trkpt lat="46.5743694" lon="12.3925742"><ele>905.0</ele><time>2026-05-01T18:02:19.875Z</time></trkpt><trkpt lat="46.5745017" lon="12.392304"><ele>909.0</ele><time>2026-05-01T18:02:20.889Z</time></trkpt><trkpt lat="46.5746348" lon="12.3920416"><ele>913.0</ele><time>2026-05-01T18:02:21.891Z</time></trkpt><trkpt lat="46.5747537" lon="12.3918014"><ele>917.0</ele><time>2026-05-01T18:02:22.887Z</time></trkpt><trkpt lat="46.5748704" lon="12.3915853"><ele>917.0</ele><time>2026-05-01T18:02:23.885Z</time></trkpt><trkpt lat="46.5749723" lon="12.3913771"><ele>917.0</ele><time>2026-05-01T18:02:24.885Z</time></trkpt><trkpt lat="46.5750704" lon="12.3911747"><ele>917.0</ele><time>2026-05-01T18:02:25.878Z</time></trkpt><trkpt lat="46.5751611" lon="12.390963"><ele>915.0</ele><time>2026-05-01T18:02:26.879Z</time></trkpt><trkpt lat="46.5752316" lon="12.390731"><ele>913.0</ele><time>2026-05-01T18:02:27.881Z</time></trkpt><trkpt lat="46.5752824" lon="12.3904855"><ele>911.0</ele><time>2026-05-01T18:02:28.879Z</time></trkpt><trkpt lat="46.5753153" lon="12.3902261"><ele>911.0</ele><time>2026-05-01T18:02:29.889Z</time></trkpt><trkpt lat="46.5753205" lon="12.3899588"><ele>911.0</ele><time>2026-05-01T18:02:30.885Z</time></trkpt><trkpt lat="46.5753121" lon="12.3896787"><ele>911.0</ele><time>2026-05-01T18:02:31.885Z</time></trkpt><trkpt lat="46.575308" lon="12.3893926"><ele>913.3333333333334</ele><time>2026-05-01T18:02:32.881Z</time></trkpt><trkpt lat="46.575309" lon="12.3891023"><ele>915.6666666666667</ele><time>2026-05-01T18:02:33.882Z</time></trkpt><trkpt lat="46.5753096" lon="12.3888091"><ele>918.0</ele><time>2026-05-01T18:02:34.883Z</time></trkpt><trkpt lat="46.5753076" lon="12.3885283"><ele>918.0</ele><time>2026-05-01T18:02:35.882Z</time></trkpt><trkpt lat="46.5753143" lon="12.3882667"><ele>918.0</ele><time>2026-05-01T18:02:36.887Z</time></trkpt><trkpt lat="46.5753221" lon="12.3880244"><ele>918.0</ele><time>2026-05-01T18:02:37.885Z</time></trkpt><trkpt lat="46.5753366" lon="12.3878075"><ele>919.25</ele><time>2026-05-01T18:02:38.878Z</time></trkpt><trkpt lat="46.5753723" lon="12.3876063"><ele>920.5</ele><time>2026-05-01T18:02:39.892Z</time></trkpt><trkpt lat="46.5754226" lon="12.3874263"><ele>921.75</ele><time>2026-05-01T18:02:40.881Z</time></trkpt><trkpt lat="46.5754918" lon="12.3872458"><ele>923.0</ele><time>2026-05-01T18:02:41.882Z</time></trkpt><trkpt lat="46.5755637" lon="12.3870725"><ele>923.0</ele><time>2026-05-01T18:02:42.885Z</time></trkpt><trkpt lat="46.5756328" lon="12.3869251"><ele>923.0</ele><time>2026-05-01T18:02:43.88Z</time></trkpt><trkpt lat="46.57571" lon="12.3868049"><ele>923.0</ele><time>2026-05-01T18:02:44.887Z</time></trkpt><trkpt lat="46.5757898" lon="12.3866966"><ele>923.0</ele><time>2026-05-01T18:02:45.889Z</time></trkpt><trkpt lat="46.575867" lon="12.3866029"><ele>923.0</ele><time>2026-05-01T18:02:46.883Z</time></trkpt><trkpt lat="46.5759347" lon="12.3865351"><ele>923.0</ele><time>2026-05-01T18:02:47.888Z</time></trkpt><trkpt lat="46.5760262" lon="12.3865162"><ele>923.0</ele><time>2026-05-01T18:02:49.879Z</time></trkpt><trkpt lat="46.5761493" lon="12.3866103"><ele>923.0</ele><time>2026-05-01T18:02:51.887Z</time></trkpt><trkpt lat="46.5762305" lon="12.3866753"><ele>923.0</ele><time>2026-05-01T18:02:52.886Z</time></trkpt><trkpt lat="46.5763188" lon="12.3867541"><ele>923.0</ele><time>2026-05-01T18:02:53.897Z</time></trkpt><trkpt lat="46.576421" lon="12.3868416"><ele>924.8</ele><time>2026-05-01T18:02:54.888Z</time></trkpt><trkpt lat="46.5765183" lon="12.3869216"><ele>926.5999999999999</ele><time>2026-05-01T18:02:55.879Z</time></trkpt><trkpt lat="46.5766076" lon="12.3869999"><ele>928.4000000000001</ele><time>2026-05-01T18:02:56.886Z</time></trkpt><trkpt lat="46.576695" lon="12.387083"><ele>930.2</ele><time>2026-05-01T18:02:57.88Z</time></trkpt><trkpt lat="46.5767845" lon="12.3871638"><ele>932.0</ele><time>2026-05-01T18:02:58.882Z</time></trkpt><trkpt lat="46.5768609" lon="12.3872267"><ele>932.5000000000001</ele><time>2026-05-01T18:02:59.888Z</time></trkpt><trkpt lat="46.5769279" lon="12.3872779"><ele>933.0</ele><time>2026-05-01T18:03:00.881Z</time></trkpt><trkpt lat="46.5770144" lon="12.3873774"><ele>933.5</ele><time>2026-05-01T18:03:02.882Z</time></trkpt><trkpt lat="46.5770092" lon="12.3874694"><ele>934.0</ele><time>2026-05-01T18:03:04.885Z</time></trkpt><trkpt lat="46.5769372" lon="12.3875248"><ele>934.5000000000001</ele><time>2026-05-01T18:03:07.886Z</time></trkpt><trkpt lat="46.5768824" lon="12.3875794"><ele>935.0</ele><time>2026-05-01T18:03:09.88Z</time></trkpt><trkpt lat="46.5768217" lon="12.3874955"><ele>935.0</ele><time>2026-05-01T18:03:18.873Z</time></trkpt></trkseg></trk></gpx>